<?xml version='1.0' encoding='UTF-8'?><gpx version="1.1" creator="JPX - https://github.com/jenetics/jpx" xmlns="http://www.topografix.com/GPX/1/1"><trk><trkseg><trkpt lat="45.6678356" lon="11.7197948"><ele>62.0</ele><time>2026-04-06T12:04:18.58Z</time></trkpt><trkpt lat="45.6678033" lon="11.719635"><ele>62.0</ele><time>2026-04-06T12:04:34.596Z</time></trkpt><trkpt lat="45.6677538" lon="11.7195554"><ele>62.0</ele><time>2026-04-06T12:04:36.616Z</time></trkpt><trkpt lat="45.6676644" lon="11.7195892"><ele>62.0</ele><time>2026-04-06T12:04:38.622Z</time></trkpt><trkpt lat="45.6675993" lon="11.7196815"><ele>62.0</ele><time>2026-04-06T12:04:40.626Z</time></trkpt><trkpt lat="45.6675684" lon="11.7197801"><ele>62.00000000000001</ele><time>2026-04-06T12:04:42.616Z</time></trkpt><trkpt lat="45.6674946" lon="11.7198656"><ele>62.0</ele><time>2026-04-06T12:04:45.62Z</time></trkpt><trkpt lat="45.6674094" lon="11.719797"><ele>62.0</ele><time>2026-04-06T12:04:51.611Z</time></trkpt><trkpt lat="45.6673926" lon="11.7197045"><ele>62.0</ele><time>2026-04-06T12:04:52.618Z</time></trkpt><trkpt lat="45.6673718" lon="11.7195901"><ele>62.00000000000001</ele><time>2026-04-06T12:04:53.597Z</time></trkpt><trkpt lat="45.6673491" lon="11.719454"><ele>62.0</ele><time>2026-04-06T12:04:54.605Z</time></trkpt><trkpt lat="45.6673229" lon="11.7193144"><ele>62.0</ele><time>2026-04-06T12:04:55.626Z</time></trkpt><trkpt lat="45.6672896" lon="11.719158"><ele>62.0</ele><time>2026-04-06T12:04:56.622Z</time></trkpt><trkpt lat="45.6672601" lon="11.7190051"><ele>62.0</ele><time>2026-04-06T12:04:57.619Z</time></trkpt><trkpt lat="45.6672352" lon="11.7188737"><ele>62.0</ele><time>2026-04-06T12:04:58.622Z</time></trkpt><trkpt lat="45.667213" lon="11.7187732"><ele>62.0</ele><time>2026-04-06T12:04:59.616Z</time></trkpt><trkpt lat="45.6671873" lon="11.7186323"><ele>61.66666666666667</ele><time>2026-04-06T12:05:01.616Z</time></trkpt><trkpt lat="45.6672118" lon="11.7185131"><ele>61.333333333333336</ele><time>2026-04-06T12:05:04.63Z</time></trkpt><trkpt lat="45.6672813" lon="11.7184001"><ele>61.0</ele><time>2026-04-06T12:05:06.616Z</time></trkpt><trkpt lat="45.667284" lon="11.7183057"><ele>60.66666666666667</ele><time>2026-04-06T12:05:07.634Z</time></trkpt><trkpt lat="45.6672731" lon="11.7181992"><ele>60.333333333333336</ele><time>2026-04-06T12:05:08.621Z</time></trkpt><trkpt lat="45.6672591" lon="11.7180852"><ele>60.0</ele><time>2026-04-06T12:05:09.61Z</time></trkpt><trkpt lat="45.6672416" lon="11.7179699"><ele>60.0</ele><time>2026-04-06T12:05:10.637Z</time></trkpt><trkpt lat="45.6672192" lon="11.7178508"><ele>60.0</ele><time>2026-04-06T12:05:11.618Z</time></trkpt><trkpt lat="45.667196" lon="11.7177313"><ele>60.0</ele><time>2026-04-06T12:05:12.596Z</time></trkpt><trkpt lat="45.6671661" lon="11.7176084"><ele>60.0</ele><time>2026-04-06T12:05:13.618Z</time></trkpt><trkpt lat="45.6671367" lon="11.7174781"><ele>60.0</ele><time>2026-04-06T12:05:14.62Z</time></trkpt><trkpt lat="45.6671083" lon="11.7173419"><ele>60.0</ele><time>2026-04-06T12:05:15.639Z</time></trkpt><trkpt lat="45.6670817" lon="11.7172034"><ele>60.0</ele><time>2026-04-06T12:05:16.634Z</time></trkpt><trkpt lat="45.6670508" lon="11.717061"><ele>60.0</ele><time>2026-04-06T12:05:17.624Z</time></trkpt><trkpt lat="45.6670196" lon="11.716916"><ele>60.0</ele><time>2026-04-06T12:05:18.642Z</time></trkpt><trkpt lat="45.6669912" lon="11.7167755"><ele>60.0</ele><time>2026-04-06T12:05:19.613Z</time></trkpt><trkpt lat="45.6669651" lon="11.7166508"><ele>59.833333333333336</ele><time>2026-04-06T12:05:20.618Z</time></trkpt><trkpt lat="45.6669444" lon="11.7165501"><ele>59.66666666666667</ele><time>2026-04-06T12:05:21.618Z</time></trkpt><trkpt lat="45.6669096" lon="11.7163911"><ele>59.5</ele><time>2026-04-06T12:05:23.619Z</time></trkpt><trkpt lat="45.6668903" lon="11.7163009"><ele>59.333333333333336</ele><time>2026-04-06T12:05:24.617Z</time></trkpt><trkpt lat="45.6668679" lon="11.716191"><ele>59.16666666666667</ele><time>2026-04-06T12:05:25.622Z</time></trkpt><trkpt lat="45.6668434" lon="11.7160733"><ele>59.0</ele><time>2026-04-06T12:05:26.623Z</time></trkpt><trkpt lat="45.6668142" lon="11.7159407"><ele>58.75</ele><time>2026-04-06T12:05:27.623Z</time></trkpt><trkpt lat="45.6667812" lon="11.7157988"><ele>58.5</ele><time>2026-04-06T12:05:28.62Z</time></trkpt><trkpt lat="45.6667422" lon="11.7156464"><ele>58.25</ele><time>2026-04-06T12:05:29.619Z</time></trkpt><trkpt lat="45.6667038" lon="11.7154756"><ele>58.0</ele><time>2026-04-06T12:05:30.627Z</time></trkpt><trkpt lat="45.666667" lon="11.7152971"><ele>57.75</ele><time>2026-04-06T12:05:31.604Z</time></trkpt><trkpt lat="45.6666298" lon="11.7151103"><ele>57.5</ele><time>2026-04-06T12:05:32.62Z</time></trkpt><trkpt lat="45.6665885" lon="11.714913"><ele>57.25</ele><time>2026-04-06T12:05:33.629Z</time></trkpt><trkpt lat="45.6665457" lon="11.7147081"><ele>57.0</ele><time>2026-04-06T12:05:34.622Z</time></trkpt><trkpt lat="45.6665015" lon="11.7144948"><ele>57.25</ele><time>2026-04-06T12:05:35.621Z</time></trkpt><trkpt lat="45.6664562" lon="11.7142808"><ele>57.5</ele><time>2026-04-06T12:05:36.622Z</time></trkpt><trkpt lat="45.6664134" lon="11.7140802"><ele>57.75</ele><time>2026-04-06T12:05:37.621Z</time></trkpt><trkpt lat="45.6663725" lon="11.7138918"><ele>58.0</ele><time>2026-04-06T12:05:38.624Z</time></trkpt><trkpt lat="45.6663335" lon="11.7137161"><ele>58.0</ele><time>2026-04-06T12:05:39.62Z</time></trkpt><trkpt lat="45.6662982" lon="11.7135567"><ele>58.0</ele><time>2026-04-06T12:05:40.626Z</time></trkpt><trkpt lat="45.6662654" lon="11.7134037"><ele>58.0</ele><time>2026-04-06T12:05:41.624Z</time></trkpt><trkpt lat="45.666235" lon="11.7132546"><ele>58.0</ele><time>2026-04-06T12:05:42.617Z</time></trkpt><trkpt lat="45.6662081" lon="11.7131199"><ele>58.0</ele><time>2026-04-06T12:05:43.621Z</time></trkpt><trkpt lat="45.6661824" lon="11.713003"><ele>58.0</ele><time>2026-04-06T12:05:44.618Z</time></trkpt><trkpt lat="45.66616" lon="11.7129015"><ele>58.0</ele><time>2026-04-06T12:05:45.624Z</time></trkpt><trkpt lat="45.6661259" lon="11.7127559"><ele>58.0</ele><time>2026-04-06T12:05:47.626Z</time></trkpt><trkpt lat="45.666194" lon="11.7126272"><ele>58.0</ele><time>2026-04-06T12:05:57.614Z</time></trkpt><trkpt lat="45.6662642" lon="11.7126064"><ele>58.0</ele><time>2026-04-06T12:05:58.621Z</time></trkpt><trkpt lat="45.6663479" lon="11.7125767"><ele>57.75</ele><time>2026-04-06T12:05:59.627Z</time></trkpt><trkpt lat="45.6664442" lon="11.7125395"><ele>57.5</ele><time>2026-04-06T12:06:00.63Z</time></trkpt><trkpt lat="45.6665529" lon="11.7124915"><ele>57.25</ele><time>2026-04-06T12:06:01.626Z</time></trkpt><trkpt lat="45.6666704" lon="11.7124359"><ele>57.0</ele><time>2026-04-06T12:06:02.634Z</time></trkpt><trkpt lat="45.6667974" lon="11.7123766"><ele>57.0</ele><time>2026-04-06T12:06:03.617Z</time></trkpt><trkpt lat="45.6669339" lon="11.7123141"><ele>57.0</ele><time>2026-04-06T12:06:04.621Z</time></trkpt><trkpt lat="45.6670747" lon="11.7122503"><ele>57.0</ele><time>2026-04-06T12:06:05.625Z</time></trkpt><trkpt lat="45.6672226" lon="11.7121819"><ele>57.0</ele><time>2026-04-06T12:06:06.628Z</time></trkpt><trkpt lat="45.6673737" lon="11.7121117"><ele>58.0</ele><time>2026-04-06T12:06:07.62Z</time></trkpt><trkpt lat="45.6675279" lon="11.7120383"><ele>59.0</ele><time>2026-04-06T12:06:08.622Z</time></trkpt><trkpt lat="45.6676919" lon="11.7119616"><ele>60.0</ele><time>2026-04-06T12:06:09.627Z</time></trkpt><trkpt lat="45.667858" lon="11.7118845"><ele>60.0</ele><time>2026-04-06T12:06:10.626Z</time></trkpt><trkpt lat="45.6680364" lon="11.7118007"><ele>60.0</ele><time>2026-04-06T12:06:11.622Z</time></trkpt><trkpt lat="45.668213" lon="11.711723"><ele>60.0</ele><time>2026-04-06T12:06:12.624Z</time></trkpt><trkpt lat="45.668394" lon="11.7116483"><ele>60.0</ele><time>2026-04-06T12:06:13.62Z</time></trkpt><trkpt lat="45.6685786" lon="11.7115795"><ele>60.0</ele><time>2026-04-06T12:06:14.625Z</time></trkpt><trkpt lat="45.6687678" lon="11.7115138"><ele>60.0</ele><time>2026-04-06T12:06:15.622Z</time></trkpt><trkpt lat="45.6689602" lon="11.7114555"><ele>59.66666666666667</ele><time>2026-04-06T12:06:16.627Z</time></trkpt><trkpt lat="45.6691558" lon="11.711401"><ele>59.333333333333336</ele><time>2026-04-06T12:06:17.631Z</time></trkpt><trkpt lat="45.6693484" lon="11.7113494"><ele>59.0</ele><time>2026-04-06T12:06:18.631Z</time></trkpt><trkpt lat="45.6695402" lon="11.7113005"><ele>59.0</ele><time>2026-04-06T12:06:19.622Z</time></trkpt><trkpt lat="45.6697279" lon="11.7112514"><ele>59.0</ele><time>2026-04-06T12:06:20.625Z</time></trkpt><trkpt lat="45.6699163" lon="11.7111991"><ele>59.0</ele><time>2026-04-06T12:06:21.623Z</time></trkpt><trkpt lat="45.6701033" lon="11.7111459"><ele>59.333333333333336</ele><time>2026-04-06T12:06:22.624Z</time></trkpt><trkpt lat="45.6702854" lon="11.7110897"><ele>59.66666666666667</ele><time>2026-04-06T12:06:23.627Z</time></trkpt><trkpt lat="45.6704607" lon="11.7110267"><ele>60.0</ele><time>2026-04-06T12:06:24.626Z</time></trkpt><trkpt lat="45.670632" lon="11.710953"><ele>60.0</ele><time>2026-04-06T12:06:25.6Z</time></trkpt><trkpt lat="45.6707989" lon="11.7108719"><ele>60.0</ele><time>2026-04-06T12:06:26.628Z</time></trkpt><trkpt lat="45.6709646" lon="11.7107862"><ele>60.0</ele><time>2026-04-06T12:06:27.622Z</time></trkpt><trkpt lat="45.6711286" lon="11.7106992"><ele>60.33333333333333</ele><time>2026-04-06T12:06:28.625Z</time></trkpt><trkpt lat="45.6712887" lon="11.7106142"><ele>60.666666666666664</ele><time>2026-04-06T12:06:29.62Z</time></trkpt><trkpt lat="45.6714464" lon="11.7105316"><ele>61.0</ele><time>2026-04-06T12:06:30.63Z</time></trkpt><trkpt lat="45.6716067" lon="11.7104592"><ele>61.0</ele><time>2026-04-06T12:06:31.622Z</time></trkpt><trkpt lat="45.6717702" lon="11.7104018"><ele>61.0</ele><time>2026-04-06T12:06:32.636Z</time></trkpt><trkpt lat="45.6719342" lon="11.7103496"><ele>61.0</ele><time>2026-04-06T12:06:33.648Z</time></trkpt><trkpt lat="45.6720964" lon="11.7102949"><ele>61.0</ele><time>2026-04-06T12:06:34.612Z</time></trkpt><trkpt lat="45.6722613" lon="11.7102387"><ele>61.0</ele><time>2026-04-06T12:06:35.624Z</time></trkpt><trkpt lat="45.6724303" lon="11.7101827"><ele>61.0</ele><time>2026-04-06T12:06:36.621Z</time></trkpt><trkpt lat="45.6725937" lon="11.7101293"><ele>61.0</ele><time>2026-04-06T12:06:37.622Z</time></trkpt><trkpt lat="45.6727559" lon="11.710075"><ele>61.0</ele><time>2026-04-06T12:06:38.622Z</time></trkpt><trkpt lat="45.6729257" lon="11.7100178"><ele>61.0</ele><time>2026-04-06T12:06:39.626Z</time></trkpt><trkpt lat="45.6731005" lon="11.7099638"><ele>62.0</ele><time>2026-04-06T12:06:40.617Z</time></trkpt><trkpt lat="45.6732804" lon="11.7099084"><ele>63.0</ele><time>2026-04-06T12:06:41.628Z</time></trkpt><trkpt lat="45.6734679" lon="11.7098479"><ele>64.0</ele><time>2026-04-06T12:06:42.639Z</time></trkpt><trkpt lat="45.6736674" lon="11.7097724"><ele>64.5</ele><time>2026-04-06T12:06:43.622Z</time></trkpt><trkpt lat="45.6738806" lon="11.7096897"><ele>65.0</ele><time>2026-04-06T12:06:44.625Z</time></trkpt><trkpt lat="45.6741076" lon="11.7096101"><ele>65.0</ele><time>2026-04-06T12:06:45.627Z</time></trkpt><trkpt lat="45.6743424" lon="11.7095356"><ele>65.0</ele><time>2026-04-06T12:06:46.626Z</time></trkpt><trkpt lat="45.6745791" lon="11.7094638"><ele>64.0</ele><time>2026-04-06T12:06:47.624Z</time></trkpt><trkpt lat="45.6748163" lon="11.7093928"><ele>63.0</ele><time>2026-04-06T12:06:48.63Z</time></trkpt><trkpt lat="45.6750538" lon="11.7093199"><ele>63.0</ele><time>2026-04-06T12:06:49.662Z</time></trkpt><trkpt lat="45.6752938" lon="11.7092458"><ele>63.0</ele><time>2026-04-06T12:06:50.637Z</time></trkpt><trkpt lat="45.6755339" lon="11.7091682"><ele>63.0</ele><time>2026-04-06T12:06:51.621Z</time></trkpt><trkpt lat="45.6757741" lon="11.709086"><ele>63.0</ele><time>2026-04-06T12:06:52.626Z</time></trkpt><trkpt lat="45.6760119" lon="11.7089957"><ele>64.0</ele><time>2026-04-06T12:06:53.636Z</time></trkpt><trkpt lat="45.6762473" lon="11.7088987"><ele>65.0</ele><time>2026-04-06T12:06:54.621Z</time></trkpt><trkpt lat="45.6764798" lon="11.7087914"><ele>65.0</ele><time>2026-04-06T12:06:55.615Z</time></trkpt><trkpt lat="45.676711" lon="11.708679"><ele>65.0</ele><time>2026-04-06T12:06:56.63Z</time></trkpt><trkpt lat="45.6769424" lon="11.7085652"><ele>65.0</ele><time>2026-04-06T12:06:57.632Z</time></trkpt><trkpt lat="45.6771753" lon="11.708458"><ele>65.0</ele><time>2026-04-06T12:06:58.63Z</time></trkpt><trkpt lat="45.6774077" lon="11.7083504"><ele>65.0</ele><time>2026-04-06T12:06:59.614Z</time></trkpt><trkpt lat="45.6776376" lon="11.7082363"><ele>65.0</ele><time>2026-04-06T12:07:00.627Z</time></trkpt><trkpt lat="45.6778666" lon="11.708118"><ele>65.0</ele><time>2026-04-06T12:07:01.626Z</time></trkpt><trkpt lat="45.6780939" lon="11.7079974"><ele>65.0</ele><time>2026-04-06T12:07:02.625Z</time></trkpt><trkpt lat="45.6783197" lon="11.707876"><ele>65.0</ele><time>2026-04-06T12:07:03.628Z</time></trkpt><trkpt lat="45.6785445" lon="11.7077544"><ele>65.0</ele><time>2026-04-06T12:07:04.619Z</time></trkpt><trkpt lat="45.6787695" lon="11.7076348"><ele>65.5</ele><time>2026-04-06T12:07:05.625Z</time></trkpt><trkpt lat="45.6789934" lon="11.7075163"><ele>66.0</ele><time>2026-04-06T12:07:06.628Z</time></trkpt><trkpt lat="45.6792158" lon="11.707397"><ele>66.0</ele><time>2026-04-06T12:07:07.623Z</time></trkpt><trkpt lat="45.6794338" lon="11.70728"><ele>66.0</ele><time>2026-04-06T12:07:08.624Z</time></trkpt><trkpt lat="45.6796469" lon="11.7071643"><ele>66.0</ele><time>2026-04-06T12:07:09.635Z</time></trkpt><trkpt lat="45.679853" lon="11.7070516"><ele>66.0</ele><time>2026-04-06T12:07:10.623Z</time></trkpt><trkpt lat="45.6800561" lon="11.7069423"><ele>66.0</ele><time>2026-04-06T12:07:11.626Z</time></trkpt><trkpt lat="45.6802523" lon="11.7068376"><ele>65.66666666666667</ele><time>2026-04-06T12:07:12.624Z</time></trkpt><trkpt lat="45.6804361" lon="11.7067409"><ele>65.33333333333334</ele><time>2026-04-06T12:07:13.626Z</time></trkpt><trkpt lat="45.6806149" lon="11.7066559"><ele>65.0</ele><time>2026-04-06T12:07:14.623Z</time></trkpt><trkpt lat="45.6807929" lon="11.7065886"><ele>65.0</ele><time>2026-04-06T12:07:15.612Z</time></trkpt><trkpt lat="45.6809715" lon="11.7065449"><ele>65.0</ele><time>2026-04-06T12:07:16.623Z</time></trkpt><trkpt lat="45.6811528" lon="11.7065121"><ele>65.0</ele><time>2026-04-06T12:07:17.638Z</time></trkpt><trkpt lat="45.6813347" lon="11.7065355"><ele>65.66666666666667</ele><time>2026-04-06T12:07:18.623Z</time></trkpt><trkpt lat="45.6815012" lon="11.706575"><ele>66.33333333333333</ele><time>2026-04-06T12:07:19.625Z</time></trkpt><trkpt lat="45.681656" lon="11.7066031"><ele>67.0</ele><time>2026-04-06T12:07:20.622Z</time></trkpt><trkpt lat="45.6817889" lon="11.7066356"><ele>67.0</ele><time>2026-04-06T12:07:21.628Z</time></trkpt><trkpt lat="45.6819002" lon="11.7066624"><ele>67.0</ele><time>2026-04-06T12:07:22.628Z</time></trkpt><trkpt lat="45.6819833" lon="11.7066846"><ele>67.0</ele><time>2026-04-06T12:07:23.623Z</time></trkpt><trkpt lat="45.6820474" lon="11.7067008"><ele>67.0</ele><time>2026-04-06T12:07:24.621Z</time></trkpt><trkpt lat="45.6821555" lon="11.7066918"><ele>67.0</ele><time>2026-04-06T12:07:29.632Z</time></trkpt><trkpt lat="45.6822441" lon="11.706537"><ele>67.5</ele><time>2026-04-06T12:07:31.617Z</time></trkpt><trkpt lat="45.682286" lon="11.7064134"><ele>68.0</ele><time>2026-04-06T12:07:32.626Z</time></trkpt><trkpt lat="45.6823338" lon="11.7062696"><ele>68.5</ele><time>2026-04-06T12:07:33.625Z</time></trkpt><trkpt lat="45.6823849" lon="11.7061126"><ele>69.0</ele><time>2026-04-06T12:07:34.624Z</time></trkpt><trkpt lat="45.6824417" lon="11.7059422"><ele>69.0</ele><time>2026-04-06T12:07:35.624Z</time></trkpt><trkpt lat="45.6825023" lon="11.7057659"><ele>69.0</ele><time>2026-04-06T12:07:36.608Z</time></trkpt><trkpt lat="45.6825626" lon="11.7055802"><ele>69.0</ele><time>2026-04-06T12:07:37.627Z</time></trkpt><trkpt lat="45.6826212" lon="11.7053835"><ele>69.0</ele><time>2026-04-06T12:07:38.618Z</time></trkpt><trkpt lat="45.6826752" lon="11.7051772"><ele>69.0</ele><time>2026-04-06T12:07:39.62Z</time></trkpt><trkpt lat="45.682728" lon="11.7049617"><ele>69.0</ele><time>2026-04-06T12:07:40.626Z</time></trkpt><trkpt lat="45.6827791" lon="11.7047432"><ele>69.0</ele><time>2026-04-06T12:07:41.612Z</time></trkpt><trkpt lat="45.6828246" lon="11.7045281"><ele>69.0</ele><time>2026-04-06T12:07:42.628Z</time></trkpt><trkpt lat="45.6828615" lon="11.7043278"><ele>69.0</ele><time>2026-04-06T12:07:43.624Z</time></trkpt><trkpt lat="45.6828933" lon="11.7041437"><ele>69.0</ele><time>2026-04-06T12:07:44.625Z</time></trkpt><trkpt lat="45.68292" lon="11.7039801"><ele>69.0</ele><time>2026-04-06T12:07:45.622Z</time></trkpt><trkpt lat="45.6829414" lon="11.7038369"><ele>69.0</ele><time>2026-04-06T12:07:46.621Z</time></trkpt><trkpt lat="45.6829593" lon="11.7037141"><ele>69.0</ele><time>2026-04-06T12:07:47.624Z</time></trkpt><trkpt lat="45.6829793" lon="11.7036139"><ele>69.0</ele><time>2026-04-06T12:07:48.638Z</time></trkpt><trkpt lat="45.6830118" lon="11.7035328"><ele>69.0</ele><time>2026-04-06T12:07:49.627Z</time></trkpt><trkpt lat="45.6830645" lon="11.7034701"><ele>69.0</ele><time>2026-04-06T12:07:50.619Z</time></trkpt><trkpt lat="45.6831225" lon="11.70342"><ele>69.0</ele><time>2026-04-06T12:07:51.623Z</time></trkpt><trkpt lat="45.6832146" lon="11.7034436"><ele>69.25</ele><time>2026-04-06T12:07:52.624Z</time></trkpt><trkpt lat="45.6833196" lon="11.7034588"><ele>69.5</ele><time>2026-04-06T12:07:53.62Z</time></trkpt><trkpt lat="45.6834293" lon="11.7034826"><ele>69.75</ele><time>2026-04-06T12:07:54.627Z</time></trkpt><trkpt lat="45.6835473" lon="11.703504"><ele>70.0</ele><time>2026-04-06T12:07:55.62Z</time></trkpt><trkpt lat="45.6836713" lon="11.7035244"><ele>70.0</ele><time>2026-04-06T12:07:56.623Z</time></trkpt><trkpt lat="45.6838002" lon="11.7035497"><ele>70.0</ele><time>2026-04-06T12:07:57.623Z</time></trkpt><trkpt lat="45.6839313" lon="11.7035737"><ele>70.0</ele><time>2026-04-06T12:07:58.618Z</time></trkpt><trkpt lat="45.6840751" lon="11.7035984"><ele>70.0</ele><time>2026-04-06T12:07:59.624Z</time></trkpt><trkpt lat="45.6842221" lon="11.7036277"><ele>70.0</ele><time>2026-04-06T12:08:00.619Z</time></trkpt><trkpt lat="45.6843721" lon="11.7036562"><ele>70.0</ele><time>2026-04-06T12:08:01.632Z</time></trkpt><trkpt lat="45.6845282" lon="11.7036842"><ele>70.0</ele><time>2026-04-06T12:08:02.625Z</time></trkpt><trkpt lat="45.6846892" lon="11.703713"><ele>70.33333333333333</ele><time>2026-04-06T12:08:03.625Z</time></trkpt><trkpt lat="45.6848516" lon="11.7037366"><ele>70.66666666666667</ele><time>2026-04-06T12:08:04.625Z</time></trkpt><trkpt lat="45.6850185" lon="11.7037632"><ele>71.0</ele><time>2026-04-06T12:08:05.622Z</time></trkpt><trkpt lat="45.6851857" lon="11.7037918"><ele>71.0</ele><time>2026-04-06T12:08:06.626Z</time></trkpt><trkpt lat="45.6853539" lon="11.7038193"><ele>71.0</ele><time>2026-04-06T12:08:07.646Z</time></trkpt><trkpt lat="45.6855238" lon="11.7038467"><ele>71.0</ele><time>2026-04-06T12:08:08.602Z</time></trkpt><trkpt lat="45.6856922" lon="11.7038775"><ele>71.0</ele><time>2026-04-06T12:08:09.631Z</time></trkpt><trkpt lat="45.6858627" lon="11.7039087"><ele>71.0</ele><time>2026-04-06T12:08:10.628Z</time></trkpt><trkpt lat="45.6860324" lon="11.7039389"><ele>71.0</ele><time>2026-04-06T12:08:11.634Z</time></trkpt><trkpt lat="45.6861925" lon="11.7039682"><ele>71.0</ele><time>2026-04-06T12:08:12.602Z</time></trkpt><trkpt lat="45.6863332" lon="11.7039938"><ele>71.0</ele><time>2026-04-06T12:08:13.63Z</time></trkpt><trkpt lat="45.686461" lon="11.7040163"><ele>71.0</ele><time>2026-04-06T12:08:14.634Z</time></trkpt><trkpt lat="45.6865688" lon="11.7040603"><ele>71.0</ele><time>2026-04-06T12:08:15.625Z</time></trkpt><trkpt lat="45.6866849" lon="11.7041322"><ele>71.0</ele><time>2026-04-06T12:08:16.626Z</time></trkpt><trkpt lat="45.6868079" lon="11.7042108"><ele>71.0</ele><time>2026-04-06T12:08:17.62Z</time></trkpt><trkpt lat="45.6869281" lon="11.7043004"><ele>71.0</ele><time>2026-04-06T12:08:18.627Z</time></trkpt><trkpt lat="45.687054" lon="11.7043728"><ele>71.0</ele><time>2026-04-06T12:08:19.63Z</time></trkpt><trkpt lat="45.6871859" lon="11.7044101"><ele>71.0</ele><time>2026-04-06T12:08:20.62Z</time></trkpt><trkpt lat="45.6873269" lon="11.7044446"><ele>71.0</ele><time>2026-04-06T12:08:21.639Z</time></trkpt><trkpt lat="45.687471" lon="11.7044955"><ele>71.0</ele><time>2026-04-06T12:08:22.621Z</time></trkpt><trkpt lat="45.687617" lon="11.7045635"><ele>71.0</ele><time>2026-04-06T12:08:23.63Z</time></trkpt><trkpt lat="45.6877643" lon="11.7046343"><ele>71.0</ele><time>2026-04-06T12:08:24.625Z</time></trkpt><trkpt lat="45.6879156" lon="11.7047136"><ele>71.0</ele><time>2026-04-06T12:08:25.617Z</time></trkpt><trkpt lat="45.688063" lon="11.7048031"><ele>71.0</ele><time>2026-04-06T12:08:26.627Z</time></trkpt><trkpt lat="45.6882075" lon="11.7048987"><ele>71.0</ele><time>2026-04-06T12:08:27.63Z</time></trkpt><trkpt lat="45.6883473" lon="11.7049961"><ele>71.0</ele><time>2026-04-06T12:08:28.624Z</time></trkpt><trkpt lat="45.6884751" lon="11.7050876"><ele>71.0</ele><time>2026-04-06T12:08:29.618Z</time></trkpt><trkpt lat="45.6885925" lon="11.705176"><ele>71.0</ele><time>2026-04-06T12:08:30.622Z</time></trkpt><trkpt lat="45.6887019" lon="11.7052618"><ele>71.2</ele><time>2026-04-06T12:08:31.624Z</time></trkpt><trkpt lat="45.6888022" lon="11.7053413"><ele>71.39999999999999</ele><time>2026-04-06T12:08:32.616Z</time></trkpt><trkpt lat="45.6889003" lon="11.7054204"><ele>71.6</ele><time>2026-04-06T12:08:33.633Z</time></trkpt><trkpt lat="45.6889974" lon="11.7055003"><ele>71.8</ele><time>2026-04-06T12:08:34.621Z</time></trkpt><trkpt lat="45.6890895" lon="11.7055728"><ele>72.0</ele><time>2026-04-06T12:08:35.621Z</time></trkpt><trkpt lat="45.689173" lon="11.7056356"><ele>72.0</ele><time>2026-04-06T12:08:36.612Z</time></trkpt><trkpt lat="45.6892451" lon="11.7056912"><ele>72.0</ele><time>2026-04-06T12:08:37.627Z</time></trkpt><trkpt lat="45.689317" lon="11.7057447"><ele>72.0</ele><time>2026-04-06T12:08:38.624Z</time></trkpt><trkpt lat="45.6894023" lon="11.7058049"><ele>72.0</ele><time>2026-04-06T12:08:39.626Z</time></trkpt><trkpt lat="45.6895044" lon="11.7058765"><ele>72.0</ele><time>2026-04-06T12:08:40.63Z</time></trkpt><trkpt lat="45.6896179" lon="11.7059591"><ele>72.0</ele><time>2026-04-06T12:08:41.623Z</time></trkpt><trkpt lat="45.6897402" lon="11.7060452"><ele>72.0</ele><time>2026-04-06T12:08:42.617Z</time></trkpt><trkpt lat="45.6898722" lon="11.70613"><ele>72.0</ele><time>2026-04-06T12:08:43.623Z</time></trkpt><trkpt lat="45.6900131" lon="11.7062136"><ele>72.0</ele><time>2026-04-06T12:08:44.627Z</time></trkpt><trkpt lat="45.6901619" lon="11.7062971"><ele>72.0</ele><time>2026-04-06T12:08:45.623Z</time></trkpt><trkpt lat="45.6903179" lon="11.7063824"><ele>72.0</ele><time>2026-04-06T12:08:46.611Z</time></trkpt><trkpt lat="45.6904801" lon="11.7064732"><ele>72.0</ele><time>2026-04-06T12:08:47.622Z</time></trkpt><trkpt lat="45.6906474" lon="11.7065693"><ele>72.0</ele><time>2026-04-06T12:08:48.625Z</time></trkpt><trkpt lat="45.6908156" lon="11.7066648"><ele>72.0</ele><time>2026-04-06T12:08:49.625Z</time></trkpt><trkpt lat="45.6909859" lon="11.7067612"><ele>72.0</ele><time>2026-04-06T12:08:50.627Z</time></trkpt><trkpt lat="45.6911589" lon="11.7068577"><ele>72.66666666666667</ele><time>2026-04-06T12:08:51.626Z</time></trkpt><trkpt lat="45.691335" lon="11.7069563"><ele>73.33333333333334</ele><time>2026-04-06T12:08:52.623Z</time></trkpt><trkpt lat="45.6915137" lon="11.7070564"><ele>74.0</ele><time>2026-04-06T12:08:53.618Z</time></trkpt><trkpt lat="45.691694" lon="11.7071579"><ele>74.0</ele><time>2026-04-06T12:08:54.621Z</time></trkpt><trkpt lat="45.6918755" lon="11.7072569"><ele>74.0</ele><time>2026-04-06T12:08:55.628Z</time></trkpt><trkpt lat="45.6920573" lon="11.7073549"><ele>74.0</ele><time>2026-04-06T12:08:56.64Z</time></trkpt><trkpt lat="45.6922395" lon="11.707453"><ele>73.66666666666667</ele><time>2026-04-06T12:08:57.63Z</time></trkpt><trkpt lat="45.6924228" lon="11.7075488"><ele>73.33333333333333</ele><time>2026-04-06T12:08:58.635Z</time></trkpt><trkpt lat="45.6926089" lon="11.7076371"><ele>73.0</ele><time>2026-04-06T12:08:59.626Z</time></trkpt><trkpt lat="45.6927985" lon="11.7077151"><ele>73.0</ele><time>2026-04-06T12:09:00.62Z</time></trkpt><trkpt lat="45.6929917" lon="11.707784"><ele>73.0</ele><time>2026-04-06T12:09:01.624Z</time></trkpt><trkpt lat="45.6931879" lon="11.707844"><ele>73.0</ele><time>2026-04-06T12:09:02.616Z</time></trkpt><trkpt lat="45.6933855" lon="11.7078938"><ele>73.0</ele><time>2026-04-06T12:09:03.637Z</time></trkpt><trkpt lat="45.6935839" lon="11.7079376"><ele>73.0</ele><time>2026-04-06T12:09:04.618Z</time></trkpt><trkpt lat="45.6937831" lon="11.7079769"><ele>73.0</ele><time>2026-04-06T12:09:05.627Z</time></trkpt><trkpt lat="45.6939832" lon="11.7080119"><ele>73.0</ele><time>2026-04-06T12:09:06.624Z</time></trkpt><trkpt lat="45.6941835" lon="11.7080429"><ele>73.0</ele><time>2026-04-06T12:09:07.621Z</time></trkpt><trkpt lat="45.6943821" lon="11.7080692"><ele>73.0</ele><time>2026-04-06T12:09:08.623Z</time></trkpt><trkpt lat="45.6945761" lon="11.7080913"><ele>73.33333333333333</ele><time>2026-04-06T12:09:09.629Z</time></trkpt><trkpt lat="45.6947669" lon="11.7081107"><ele>73.66666666666667</ele><time>2026-04-06T12:09:10.621Z</time></trkpt><trkpt lat="45.6949571" lon="11.7081289"><ele>74.0</ele><time>2026-04-06T12:09:11.617Z</time></trkpt><trkpt lat="45.695147" lon="11.7081491"><ele>74.33333333333334</ele><time>2026-04-06T12:09:12.62Z</time></trkpt><trkpt lat="45.6953356" lon="11.7081725"><ele>74.66666666666667</ele><time>2026-04-06T12:09:13.619Z</time></trkpt><trkpt lat="45.6955207" lon="11.708199"><ele>75.0</ele><time>2026-04-06T12:09:14.616Z</time></trkpt><trkpt lat="45.6956975" lon="11.7082264"><ele>75.0</ele><time>2026-04-06T12:09:15.623Z</time></trkpt><trkpt lat="45.695847" lon="11.7082494"><ele>75.0</ele><time>2026-04-06T12:09:16.616Z</time></trkpt><trkpt lat="45.6959725" lon="11.7082692"><ele>75.0</ele><time>2026-04-06T12:09:17.623Z</time></trkpt><trkpt lat="45.6960799" lon="11.7082859"><ele>75.0</ele><time>2026-04-06T12:09:18.631Z</time></trkpt><trkpt lat="45.6961761" lon="11.7083012"><ele>75.16666666666667</ele><time>2026-04-06T12:09:19.623Z</time></trkpt><trkpt lat="45.6962616" lon="11.7083084"><ele>75.33333333333333</ele><time>2026-04-06T12:09:20.601Z</time></trkpt><trkpt lat="45.6963368" lon="11.7083134"><ele>75.5</ele><time>2026-04-06T12:09:21.603Z</time></trkpt><trkpt lat="45.6964027" lon="11.7083242"><ele>75.66666666666666</ele><time>2026-04-06T12:09:22.652Z</time></trkpt><trkpt lat="45.6964936" lon="11.7083433"><ele>75.83333333333333</ele><time>2026-04-06T12:09:24.621Z</time></trkpt><trkpt lat="45.6965595" lon="11.7083501"><ele>76.0</ele><time>2026-04-06T12:09:26.609Z</time></trkpt><trkpt lat="45.6966387" lon="11.7083596"><ele>76.0</ele><time>2026-04-06T12:09:51.6Z</time></trkpt><trkpt lat="45.6967713" lon="11.7083759"><ele>76.0</ele><time>2026-04-06T12:09:53.62Z</time></trkpt><trkpt lat="45.6968462" lon="11.708386"><ele>76.0</ele><time>2026-04-06T12:09:54.63Z</time></trkpt><trkpt lat="45.6969254" lon="11.7083977"><ele>76.0</ele><time>2026-04-06T12:09:55.615Z</time></trkpt><trkpt lat="45.6970095" lon="11.7084116"><ele>76.0</ele><time>2026-04-06T12:09:56.642Z</time></trkpt><trkpt lat="45.6970986" lon="11.7084305"><ele>75.8</ele><time>2026-04-06T12:09:57.623Z</time></trkpt><trkpt lat="45.6971891" lon="11.7084536"><ele>75.6</ele><time>2026-04-06T12:09:58.625Z</time></trkpt><trkpt lat="45.6972825" lon="11.7084813"><ele>75.4</ele><time>2026-04-06T12:09:59.61Z</time></trkpt><trkpt lat="45.6973738" lon="11.708511"><ele>75.2</ele><time>2026-04-06T12:10:00.62Z</time></trkpt><trkpt lat="45.6974704" lon="11.708541"><ele>75.0</ele><time>2026-04-06T12:10:01.625Z</time></trkpt><trkpt lat="45.6975655" lon="11.7085715"><ele>75.2</ele><time>2026-04-06T12:10:02.627Z</time></trkpt><trkpt lat="45.6976703" lon="11.7086032"><ele>75.4</ele><time>2026-04-06T12:10:03.625Z</time></trkpt><trkpt lat="45.6977764" lon="11.708642"><ele>75.6</ele><time>2026-04-06T12:10:04.621Z</time></trkpt><trkpt lat="45.6978852" lon="11.7086766"><ele>75.8</ele><time>2026-04-06T12:10:05.603Z</time></trkpt><trkpt lat="45.6980011" lon="11.7087211"><ele>76.0</ele><time>2026-04-06T12:10:06.624Z</time></trkpt><trkpt lat="45.6981192" lon="11.7087624"><ele>76.0</ele><time>2026-04-06T12:10:07.613Z</time></trkpt><trkpt lat="45.6982407" lon="11.7088057"><ele>76.0</ele><time>2026-04-06T12:10:08.633Z</time></trkpt><trkpt lat="45.69837" lon="11.7088384"><ele>76.0</ele><time>2026-04-06T12:10:09.62Z</time></trkpt><trkpt lat="45.698498" lon="11.7088626"><ele>76.0</ele><time>2026-04-06T12:10:10.621Z</time></trkpt><trkpt lat="45.6986252" lon="11.708882"><ele>76.0</ele><time>2026-04-06T12:10:11.61Z</time></trkpt><trkpt lat="45.6987513" lon="11.7089086"><ele>76.0</ele><time>2026-04-06T12:10:12.617Z</time></trkpt><trkpt lat="45.6988726" lon="11.7089235"><ele>76.0</ele><time>2026-04-06T12:10:13.625Z</time></trkpt><trkpt lat="45.6989876" lon="11.7089339"><ele>76.0</ele><time>2026-04-06T12:10:14.63Z</time></trkpt><trkpt lat="45.6990967" lon="11.7089588"><ele>76.0</ele><time>2026-04-06T12:10:15.618Z</time></trkpt><trkpt lat="45.6992015" lon="11.7089728"><ele>76.0</ele><time>2026-04-06T12:10:16.613Z</time></trkpt><trkpt lat="45.6992973" lon="11.7089878"><ele>76.0</ele><time>2026-04-06T12:10:17.624Z</time></trkpt><trkpt lat="45.6993892" lon="11.7090059"><ele>76.0</ele><time>2026-04-06T12:10:18.623Z</time></trkpt><trkpt lat="45.699478" lon="11.7090207"><ele>76.0</ele><time>2026-04-06T12:10:19.625Z</time></trkpt><trkpt lat="45.6995707" lon="11.7090419"><ele>76.0</ele><time>2026-04-06T12:10:20.626Z</time></trkpt><trkpt lat="45.6996758" lon="11.7090712"><ele>76.0</ele><time>2026-04-06T12:10:21.62Z</time></trkpt><trkpt lat="45.699799" lon="11.7090827"><ele>76.0</ele><time>2026-04-06T12:10:22.626Z</time></trkpt><trkpt lat="45.6999419" lon="11.7090962"><ele>76.0</ele><time>2026-04-06T12:10:23.623Z</time></trkpt><trkpt lat="45.7000976" lon="11.709113"><ele>76.33333333333333</ele><time>2026-04-06T12:10:24.628Z</time></trkpt><trkpt lat="45.7002654" lon="11.7091092"><ele>76.66666666666667</ele><time>2026-04-06T12:10:25.602Z</time></trkpt><trkpt lat="45.7004488" lon="11.7090982"><ele>77.0</ele><time>2026-04-06T12:10:26.617Z</time></trkpt><trkpt lat="45.7006298" lon="11.7090721"><ele>77.0</ele><time>2026-04-06T12:10:27.621Z</time></trkpt><trkpt lat="45.7008141" lon="11.7090503"><ele>77.0</ele><time>2026-04-06T12:10:28.625Z</time></trkpt><trkpt lat="45.7009973" lon="11.7090308"><ele>77.0</ele><time>2026-04-06T12:10:29.631Z</time></trkpt><trkpt lat="45.7011794" lon="11.7090155"><ele>77.0</ele><time>2026-04-06T12:10:30.625Z</time></trkpt><trkpt lat="45.7013602" lon="11.7090133"><ele>77.0</ele><time>2026-04-06T12:10:31.622Z</time></trkpt><trkpt lat="45.7015396" lon="11.7090432"><ele>77.0</ele><time>2026-04-06T12:10:32.62Z</time></trkpt><trkpt lat="45.7017141" lon="11.7091125"><ele>77.0</ele><time>2026-04-06T12:10:33.627Z</time></trkpt><trkpt lat="45.7018865" lon="11.7092145"><ele>77.0</ele><time>2026-04-06T12:10:34.623Z</time></trkpt><trkpt lat="45.7020507" lon="11.7093434"><ele>77.0</ele><time>2026-04-06T12:10:35.621Z</time></trkpt><trkpt lat="45.7022043" lon="11.709493"><ele>77.33333333333334</ele><time>2026-04-06T12:10:36.617Z</time></trkpt><trkpt lat="45.7023479" lon="11.7096537"><ele>77.66666666666667</ele><time>2026-04-06T12:10:37.626Z</time></trkpt><trkpt lat="45.7024948" lon="11.7098053"><ele>78.0</ele><time>2026-04-06T12:10:38.622Z</time></trkpt><trkpt lat="45.7026535" lon="11.7099271"><ele>78.66666666666667</ele><time>2026-04-06T12:10:39.62Z</time></trkpt><trkpt lat="45.7028266" lon="11.7100229"><ele>79.33333333333334</ele><time>2026-04-06T12:10:40.624Z</time></trkpt><trkpt lat="45.7030025" lon="11.7101084"><ele>80.0</ele><time>2026-04-06T12:10:41.617Z</time></trkpt><trkpt lat="45.7031809" lon="11.7101946"><ele>79.66666666666667</ele><time>2026-04-06T12:10:42.622Z</time></trkpt><trkpt lat="45.7033601" lon="11.7102832"><ele>79.33333333333333</ele><time>2026-04-06T12:10:43.649Z</time></trkpt><trkpt lat="45.7035403" lon="11.7103743"><ele>79.0</ele><time>2026-04-06T12:10:44.618Z</time></trkpt><trkpt lat="45.7037252" lon="11.7104613"><ele>79.0</ele><time>2026-04-06T12:10:45.598Z</time></trkpt><trkpt lat="45.7039153" lon="11.7105387"><ele>79.0</ele><time>2026-04-06T12:10:46.627Z</time></trkpt><trkpt lat="45.7041117" lon="11.7106059"><ele>79.0</ele><time>2026-04-06T12:10:47.63Z</time></trkpt><trkpt lat="45.7043125" lon="11.7106647"><ele>78.33333333333333</ele><time>2026-04-06T12:10:48.621Z</time></trkpt><trkpt lat="45.7045147" lon="11.7107243"><ele>77.66666666666667</ele><time>2026-04-06T12:10:49.618Z</time></trkpt><trkpt lat="45.7047173" lon="11.7107861"><ele>77.0</ele><time>2026-04-06T12:10:50.636Z</time></trkpt><trkpt lat="45.7049201" lon="11.7108476"><ele>77.0</ele><time>2026-04-06T12:10:51.628Z</time></trkpt><trkpt lat="45.7051194" lon="11.7109087"><ele>77.0</ele><time>2026-04-06T12:10:52.618Z</time></trkpt><trkpt lat="45.7053138" lon="11.7109673"><ele>77.0</ele><time>2026-04-06T12:10:53.632Z</time></trkpt><trkpt lat="45.7055013" lon="11.711023"><ele>77.33333333333334</ele><time>2026-04-06T12:10:54.62Z</time></trkpt><trkpt lat="45.7056843" lon="11.7110776"><ele>77.66666666666667</ele><time>2026-04-06T12:10:55.627Z</time></trkpt><trkpt lat="45.7058464" lon="11.7111267"><ele>78.0</ele><time>2026-04-06T12:10:56.617Z</time></trkpt><trkpt lat="45.7059803" lon="11.7111693"><ele>78.0</ele><time>2026-04-06T12:10:57.619Z</time></trkpt><trkpt lat="45.7060861" lon="11.7112047"><ele>78.0</ele><time>2026-04-06T12:10:58.62Z</time></trkpt><trkpt lat="45.7061661" lon="11.7112331"><ele>78.0</ele><time>2026-04-06T12:10:59.626Z</time></trkpt><trkpt lat="45.7062555" lon="11.7112718"><ele>78.0</ele><time>2026-04-06T12:11:01.623Z</time></trkpt><trkpt lat="45.7063662" lon="11.7113189"><ele>78.0</ele><time>2026-04-06T12:11:25.602Z</time></trkpt><trkpt lat="45.7064386" lon="11.7113498"><ele>78.0</ele><time>2026-04-06T12:11:26.601Z</time></trkpt><trkpt lat="45.7065257" lon="11.7113937"><ele>78.0</ele><time>2026-04-06T12:11:27.623Z</time></trkpt><trkpt lat="45.7066243" lon="11.7114507"><ele>78.0</ele><time>2026-04-06T12:11:28.618Z</time></trkpt><trkpt lat="45.7067331" lon="11.7115173"><ele>78.0</ele><time>2026-04-06T12:11:29.621Z</time></trkpt><trkpt lat="45.7068485" lon="11.7115903"><ele>78.0</ele><time>2026-04-06T12:11:30.618Z</time></trkpt><trkpt lat="45.706971" lon="11.7116738"><ele>79.0</ele><time>2026-04-06T12:11:31.628Z</time></trkpt><trkpt lat="45.7070986" lon="11.7117696"><ele>80.0</ele><time>2026-04-06T12:11:32.624Z</time></trkpt><trkpt lat="45.7072294" lon="11.7118739"><ele>81.0</ele><time>2026-04-06T12:11:33.62Z</time></trkpt><trkpt lat="45.7073643" lon="11.7119864"><ele>81.0</ele><time>2026-04-06T12:11:34.633Z</time></trkpt><trkpt lat="45.7075018" lon="11.712107"><ele>81.0</ele><time>2026-04-06T12:11:35.634Z</time></trkpt><trkpt lat="45.7076439" lon="11.7122338"><ele>81.0</ele><time>2026-04-06T12:11:36.625Z</time></trkpt><trkpt lat="45.7077914" lon="11.7123604"><ele>81.0</ele><time>2026-04-06T12:11:37.633Z</time></trkpt><trkpt lat="45.7079448" lon="11.7124887"><ele>81.0</ele><time>2026-04-06T12:11:38.612Z</time></trkpt><trkpt lat="45.7081055" lon="11.7126149"><ele>81.0</ele><time>2026-04-06T12:11:39.629Z</time></trkpt><trkpt lat="45.7082738" lon="11.7127385"><ele>81.0</ele><time>2026-04-06T12:11:40.628Z</time></trkpt><trkpt lat="45.7084493" lon="11.7128614"><ele>81.0</ele><time>2026-04-06T12:11:41.638Z</time></trkpt><trkpt lat="45.7086289" lon="11.7129842"><ele>81.0</ele><time>2026-04-06T12:11:42.627Z</time></trkpt><trkpt lat="45.7088107" lon="11.7131072"><ele>81.0</ele><time>2026-04-06T12:11:43.629Z</time></trkpt><trkpt lat="45.7089941" lon="11.713232"><ele>81.0</ele><time>2026-04-06T12:11:44.622Z</time></trkpt><trkpt lat="45.7091801" lon="11.7133574"><ele>81.0</ele><time>2026-04-06T12:11:45.627Z</time></trkpt><trkpt lat="45.7093684" lon="11.7134848"><ele>81.33333333333333</ele><time>2026-04-06T12:11:46.627Z</time></trkpt><trkpt lat="45.7095573" lon="11.7136132"><ele>81.66666666666666</ele><time>2026-04-06T12:11:47.615Z</time></trkpt><trkpt lat="45.7097467" lon="11.7137396"><ele>82.0</ele><time>2026-04-06T12:11:48.613Z</time></trkpt><trkpt lat="45.7099365" lon="11.7138637"><ele>82.0</ele><time>2026-04-06T12:11:49.649Z</time></trkpt><trkpt lat="45.7101249" lon="11.7139818"><ele>82.0</ele><time>2026-04-06T12:11:50.618Z</time></trkpt><trkpt lat="45.7103115" lon="11.7140948"><ele>82.0</ele><time>2026-04-06T12:11:51.623Z</time></trkpt><trkpt lat="45.7104932" lon="11.7142021"><ele>82.33333333333333</ele><time>2026-04-06T12:11:52.625Z</time></trkpt><trkpt lat="45.7106684" lon="11.7143029"><ele>82.66666666666667</ele><time>2026-04-06T12:11:53.624Z</time></trkpt><trkpt lat="45.7108449" lon="11.7143995"><ele>83.0</ele><time>2026-04-06T12:11:54.625Z</time></trkpt><trkpt lat="45.7110265" lon="11.7144896"><ele>83.0</ele><time>2026-04-06T12:11:55.631Z</time></trkpt><trkpt lat="45.7112147" lon="11.7145696"><ele>83.0</ele><time>2026-04-06T12:11:56.628Z</time></trkpt><trkpt lat="45.711409" lon="11.7146384"><ele>83.0</ele><time>2026-04-06T12:11:57.614Z</time></trkpt><trkpt lat="45.7116058" lon="11.7147016"><ele>83.0</ele><time>2026-04-06T12:11:58.618Z</time></trkpt><trkpt lat="45.711796" lon="11.7147662"><ele>83.0</ele><time>2026-04-06T12:11:59.612Z</time></trkpt><trkpt lat="45.7119728" lon="11.714837"><ele>83.0</ele><time>2026-04-06T12:12:00.643Z</time></trkpt><trkpt lat="45.7121401" lon="11.7149324"><ele>82.66666666666667</ele><time>2026-04-06T12:12:01.62Z</time></trkpt><trkpt lat="45.7123016" lon="11.7150657"><ele>82.33333333333333</ele><time>2026-04-06T12:12:02.628Z</time></trkpt><trkpt lat="45.7124599" lon="11.7152326"><ele>82.0</ele><time>2026-04-06T12:12:03.629Z</time></trkpt><trkpt lat="45.7126171" lon="11.7154049"><ele>82.66666666666666</ele><time>2026-04-06T12:12:04.626Z</time></trkpt><trkpt lat="45.7127866" lon="11.7155793"><ele>83.33333333333333</ele><time>2026-04-06T12:12:05.627Z</time></trkpt><trkpt lat="45.7129723" lon="11.7157479"><ele>84.0</ele><time>2026-04-06T12:12:06.629Z</time></trkpt><trkpt lat="45.7131547" lon="11.7159121"><ele>84.0</ele><time>2026-04-06T12:12:07.629Z</time></trkpt><trkpt lat="45.7133391" lon="11.7160739"><ele>84.0</ele><time>2026-04-06T12:12:08.633Z</time></trkpt><trkpt lat="45.7135284" lon="11.716234"><ele>84.0</ele><time>2026-04-06T12:12:09.628Z</time></trkpt><trkpt lat="45.7137158" lon="11.7163931"><ele>84.0</ele><time>2026-04-06T12:12:10.609Z</time></trkpt><trkpt lat="45.7139042" lon="11.7165511"><ele>84.0</ele><time>2026-04-06T12:12:11.607Z</time></trkpt><trkpt lat="45.7140957" lon="11.7167086"><ele>84.0</ele><time>2026-04-06T12:12:12.623Z</time></trkpt><trkpt lat="45.7142913" lon="11.716858"><ele>83.66666666666667</ele><time>2026-04-06T12:12:13.629Z</time></trkpt><trkpt lat="45.714492" lon="11.7170001"><ele>83.33333333333334</ele><time>2026-04-06T12:12:14.629Z</time></trkpt><trkpt lat="45.7146951" lon="11.717139"><ele>83.0</ele><time>2026-04-06T12:12:15.624Z</time></trkpt><trkpt lat="45.7149005" lon="11.7172782"><ele>83.0</ele><time>2026-04-06T12:12:16.622Z</time></trkpt><trkpt lat="45.7151073" lon="11.717417"><ele>83.0</ele><time>2026-04-06T12:12:17.625Z</time></trkpt><trkpt lat="45.7153146" lon="11.7175543"><ele>83.5</ele><time>2026-04-06T12:12:18.628Z</time></trkpt><trkpt lat="45.7155223" lon="11.7176912"><ele>84.0</ele><time>2026-04-06T12:12:19.628Z</time></trkpt><trkpt lat="45.7157303" lon="11.7178279"><ele>84.0</ele><time>2026-04-06T12:12:20.625Z</time></trkpt><trkpt lat="45.7159391" lon="11.717966"><ele>84.0</ele><time>2026-04-06T12:12:21.628Z</time></trkpt><trkpt lat="45.7161467" lon="11.7181055"><ele>84.0</ele><time>2026-04-06T12:12:22.627Z</time></trkpt><trkpt lat="45.7163534" lon="11.7182464"><ele>84.0</ele><time>2026-04-06T12:12:23.629Z</time></trkpt><trkpt lat="45.7165589" lon="11.7183908"><ele>84.0</ele><time>2026-04-06T12:12:24.626Z</time></trkpt><trkpt lat="45.7167631" lon="11.7185385"><ele>84.0</ele><time>2026-04-06T12:12:25.629Z</time></trkpt><trkpt lat="45.7169634" lon="11.7186912"><ele>84.33333333333333</ele><time>2026-04-06T12:12:26.644Z</time></trkpt><trkpt lat="45.7171517" lon="11.7188399"><ele>84.66666666666666</ele><time>2026-04-06T12:12:27.633Z</time></trkpt><trkpt lat="45.7173334" lon="11.7189862"><ele>85.0</ele><time>2026-04-06T12:12:28.635Z</time></trkpt><trkpt lat="45.7175061" lon="11.719129"><ele>85.0</ele><time>2026-04-06T12:12:29.627Z</time></trkpt><trkpt lat="45.717668" lon="11.7192627"><ele>85.0</ele><time>2026-04-06T12:12:30.633Z</time></trkpt><trkpt lat="45.7178189" lon="11.7193873"><ele>85.0</ele><time>2026-04-06T12:12:31.615Z</time></trkpt><trkpt lat="45.7179669" lon="11.7195096"><ele>86.0</ele><time>2026-04-06T12:12:32.62Z</time></trkpt><trkpt lat="45.7181111" lon="11.7196292"><ele>87.0</ele><time>2026-04-06T12:12:33.615Z</time></trkpt><trkpt lat="45.7182517" lon="11.7197472"><ele>88.0</ele><time>2026-04-06T12:12:34.628Z</time></trkpt><trkpt lat="45.7183835" lon="11.7198551"><ele>88.0</ele><time>2026-04-06T12:12:35.63Z</time></trkpt><trkpt lat="45.7185027" lon="11.7199533"><ele>88.0</ele><time>2026-04-06T12:12:36.628Z</time></trkpt><trkpt lat="45.7186096" lon="11.7200406"><ele>88.0</ele><time>2026-04-06T12:12:37.627Z</time></trkpt><trkpt lat="45.7186985" lon="11.7201104"><ele>88.0</ele><time>2026-04-06T12:12:38.641Z</time></trkpt><trkpt lat="45.7187607" lon="11.7201569"><ele>88.0</ele><time>2026-04-06T12:12:39.629Z</time></trkpt><trkpt lat="45.7188735" lon="11.7202489"><ele>87.80000000000001</ele><time>2026-04-06T12:12:41.618Z</time></trkpt><trkpt lat="45.7189544" lon="11.7202935"><ele>87.6</ele><time>2026-04-06T12:12:42.641Z</time></trkpt><trkpt lat="45.7190511" lon="11.7203162"><ele>87.4</ele><time>2026-04-06T12:12:43.627Z</time></trkpt><trkpt lat="45.7191613" lon="11.7203428"><ele>87.19999999999999</ele><time>2026-04-06T12:12:44.623Z</time></trkpt><trkpt lat="45.719279" lon="11.7203989"><ele>87.0</ele><time>2026-04-06T12:12:45.634Z</time></trkpt><trkpt lat="45.7194024" lon="11.7204855"><ele>87.0</ele><time>2026-04-06T12:12:46.614Z</time></trkpt><trkpt lat="45.7195377" lon="11.7205893"><ele>87.0</ele><time>2026-04-06T12:12:47.633Z</time></trkpt><trkpt lat="45.7196803" lon="11.720697"><ele>87.0</ele><time>2026-04-06T12:12:48.639Z</time></trkpt><trkpt lat="45.7198304" lon="11.7208093"><ele>87.0</ele><time>2026-04-06T12:12:49.616Z</time></trkpt><trkpt lat="45.7199925" lon="11.72093"><ele>87.0</ele><time>2026-04-06T12:12:50.621Z</time></trkpt><trkpt lat="45.7201601" lon="11.7210551"><ele>87.0</ele><time>2026-04-06T12:12:51.625Z</time></trkpt><trkpt lat="45.7203317" lon="11.7211842"><ele>87.0</ele><time>2026-04-06T12:12:52.63Z</time></trkpt><trkpt lat="45.7205072" lon="11.7213161"><ele>87.0</ele><time>2026-04-06T12:12:53.627Z</time></trkpt><trkpt lat="45.7206863" lon="11.7214469"><ele>87.0</ele><time>2026-04-06T12:12:54.628Z</time></trkpt><trkpt lat="45.7208686" lon="11.721582"><ele>87.0</ele><time>2026-04-06T12:12:55.627Z</time></trkpt><trkpt lat="45.7210548" lon="11.7217103"><ele>87.0</ele><time>2026-04-06T12:12:56.621Z</time></trkpt><trkpt lat="45.721247" lon="11.7218309"><ele>87.0</ele><time>2026-04-06T12:12:57.622Z</time></trkpt><trkpt lat="45.7214474" lon="11.7219361"><ele>87.0</ele><time>2026-04-06T12:12:58.63Z</time></trkpt><trkpt lat="45.7216551" lon="11.7220164"><ele>87.0</ele><time>2026-04-06T12:12:59.631Z</time></trkpt><trkpt lat="45.7218683" lon="11.7220724"><ele>87.0</ele><time>2026-04-06T12:13:00.626Z</time></trkpt><trkpt lat="45.7220863" lon="11.7221098"><ele>87.0</ele><time>2026-04-06T12:13:01.624Z</time></trkpt><trkpt lat="45.7223063" lon="11.7221407"><ele>87.0</ele><time>2026-04-06T12:13:02.624Z</time></trkpt><trkpt lat="45.7225277" lon="11.7221738"><ele>87.0</ele><time>2026-04-06T12:13:03.629Z</time></trkpt><trkpt lat="45.7227488" lon="11.722217"><ele>87.33333333333333</ele><time>2026-04-06T12:13:04.628Z</time></trkpt><trkpt lat="45.72297" lon="11.7222653"><ele>87.66666666666666</ele><time>2026-04-06T12:13:05.626Z</time></trkpt><trkpt lat="45.7231912" lon="11.7223155"><ele>88.0</ele><time>2026-04-06T12:13:06.63Z</time></trkpt><trkpt lat="45.7234129" lon="11.722366"><ele>88.0</ele><time>2026-04-06T12:13:07.63Z</time></trkpt><trkpt lat="45.7236322" lon="11.7224197"><ele>88.0</ele><time>2026-04-06T12:13:08.645Z</time></trkpt><trkpt lat="45.7238508" lon="11.7224758"><ele>88.0</ele><time>2026-04-06T12:13:09.622Z</time></trkpt><trkpt lat="45.7240728" lon="11.722526"><ele>88.0</ele><time>2026-04-06T12:13:10.632Z</time></trkpt><trkpt lat="45.7242946" lon="11.722567"><ele>88.0</ele><time>2026-04-06T12:13:11.627Z</time></trkpt><trkpt lat="45.7245183" lon="11.7225954"><ele>88.0</ele><time>2026-04-06T12:13:12.631Z</time></trkpt><trkpt lat="45.7247433" lon="11.7226105"><ele>88.0</ele><time>2026-04-06T12:13:13.629Z</time></trkpt><trkpt lat="45.7249686" lon="11.7226235"><ele>88.0</ele><time>2026-04-06T12:13:14.627Z</time></trkpt><trkpt lat="45.7251942" lon="11.722643"><ele>88.5</ele><time>2026-04-06T12:13:15.625Z</time></trkpt><trkpt lat="45.725419" lon="11.7226763"><ele>89.0</ele><time>2026-04-06T12:13:16.633Z</time></trkpt><trkpt lat="45.7256419" lon="11.722726"><ele>89.5</ele><time>2026-04-06T12:13:17.629Z</time></trkpt><trkpt lat="45.7258641" lon="11.7227819"><ele>90.0</ele><time>2026-04-06T12:13:18.624Z</time></trkpt><trkpt lat="45.7260862" lon="11.7228402"><ele>90.5</ele><time>2026-04-06T12:13:19.622Z</time></trkpt><trkpt lat="45.726308" lon="11.7228973"><ele>91.0</ele><time>2026-04-06T12:13:20.628Z</time></trkpt><trkpt lat="45.7265303" lon="11.7229515"><ele>91.0</ele><time>2026-04-06T12:13:21.626Z</time></trkpt><trkpt lat="45.7267535" lon="11.7230038"><ele>91.0</ele><time>2026-04-06T12:13:22.62Z</time></trkpt><trkpt lat="45.7269766" lon="11.7230522"><ele>91.0</ele><time>2026-04-06T12:13:23.626Z</time></trkpt><trkpt lat="45.7272007" lon="11.7230952"><ele>91.0</ele><time>2026-04-06T12:13:24.628Z</time></trkpt><trkpt lat="45.727425" lon="11.7231329"><ele>91.0</ele><time>2026-04-06T12:13:25.617Z</time></trkpt><trkpt lat="45.7276429" lon="11.7231684"><ele>91.0</ele><time>2026-04-06T12:13:26.61Z</time></trkpt><trkpt lat="45.727842" lon="11.7232003"><ele>91.0</ele><time>2026-04-06T12:13:27.624Z</time></trkpt><trkpt lat="45.7280219" lon="11.7232298"><ele>91.5</ele><time>2026-04-06T12:13:28.62Z</time></trkpt><trkpt lat="45.7281836" lon="11.7232599"><ele>92.0</ele><time>2026-04-06T12:13:29.628Z</time></trkpt><trkpt lat="45.728326" lon="11.7232855"><ele>92.5</ele><time>2026-04-06T12:13:30.643Z</time></trkpt><trkpt lat="45.728455" lon="11.7233079"><ele>93.0</ele><time>2026-04-06T12:13:31.618Z</time></trkpt><trkpt lat="45.7285787" lon="11.7233294"><ele>93.25</ele><time>2026-04-06T12:13:32.627Z</time></trkpt><trkpt lat="45.7287001" lon="11.7233613"><ele>93.5</ele><time>2026-04-06T12:13:33.629Z</time></trkpt><trkpt lat="45.7288323" lon="11.7233798"><ele>93.75</ele><time>2026-04-06T12:13:34.623Z</time></trkpt><trkpt lat="45.7289704" lon="11.7234147"><ele>94.0</ele><time>2026-04-06T12:13:35.632Z</time></trkpt><trkpt lat="45.7291148" lon="11.7234576"><ele>94.0</ele><time>2026-04-06T12:13:36.625Z</time></trkpt><trkpt lat="45.7292557" lon="11.7235018"><ele>94.0</ele><time>2026-04-06T12:13:37.624Z</time></trkpt><trkpt lat="45.729417" lon="11.7235385"><ele>94.0</ele><time>2026-04-06T12:13:38.62Z</time></trkpt><trkpt lat="45.7295854" lon="11.7235785"><ele>94.0</ele><time>2026-04-06T12:13:39.632Z</time></trkpt><trkpt lat="45.7297526" lon="11.7236126"><ele>94.0</ele><time>2026-04-06T12:13:40.63Z</time></trkpt><trkpt lat="45.7299231" lon="11.723641"><ele>94.0</ele><time>2026-04-06T12:13:41.624Z</time></trkpt><trkpt lat="45.7300843" lon="11.7236593"><ele>93.66666666666666</ele><time>2026-04-06T12:13:42.627Z</time></trkpt><trkpt lat="45.7302384" lon="11.7236691"><ele>93.33333333333333</ele><time>2026-04-06T12:13:43.623Z</time></trkpt><trkpt lat="45.7303923" lon="11.723673"><ele>93.0</ele><time>2026-04-06T12:13:44.633Z</time></trkpt><trkpt lat="45.7305505" lon="11.7236742"><ele>93.0</ele><time>2026-04-06T12:13:45.619Z</time></trkpt><trkpt lat="45.7307142" lon="11.7236696"><ele>93.0</ele><time>2026-04-06T12:13:46.621Z</time></trkpt><trkpt lat="45.7308833" lon="11.7236558"><ele>93.0</ele><time>2026-04-06T12:13:47.628Z</time></trkpt><trkpt lat="45.7310541" lon="11.7236296"><ele>93.66666666666667</ele><time>2026-04-06T12:13:48.619Z</time></trkpt><trkpt lat="45.7312261" lon="11.7236003"><ele>94.33333333333334</ele><time>2026-04-06T12:13:49.617Z</time></trkpt><trkpt lat="45.7313991" lon="11.7235646"><ele>95.0</ele><time>2026-04-06T12:13:50.623Z</time></trkpt><trkpt lat="45.7315682" lon="11.7235341"><ele>95.0</ele><time>2026-04-06T12:13:51.622Z</time></trkpt><trkpt lat="45.7317247" lon="11.7235272"><ele>95.0</ele><time>2026-04-06T12:13:52.628Z</time></trkpt><trkpt lat="45.7318671" lon="11.7235422"><ele>95.0</ele><time>2026-04-06T12:13:53.626Z</time></trkpt><trkpt lat="45.7319967" lon="11.723571"><ele>95.0</ele><time>2026-04-06T12:13:54.611Z</time></trkpt><trkpt lat="45.7321249" lon="11.7236051"><ele>95.0</ele><time>2026-04-06T12:13:55.624Z</time></trkpt><trkpt lat="45.7322591" lon="11.7236418"><ele>95.0</ele><time>2026-04-06T12:13:56.631Z</time></trkpt><trkpt lat="45.7324003" lon="11.7236806"><ele>95.0</ele><time>2026-04-06T12:13:57.624Z</time></trkpt><trkpt lat="45.7325382" lon="11.7237198"><ele>95.0</ele><time>2026-04-06T12:13:58.624Z</time></trkpt><trkpt lat="45.7326699" lon="11.7237369"><ele>94.75</ele><time>2026-04-06T12:13:59.626Z</time></trkpt><trkpt lat="45.7328029" lon="11.7237172"><ele>94.5</ele><time>2026-04-06T12:14:00.628Z</time></trkpt><trkpt lat="45.7329316" lon="11.7236564"><ele>94.25</ele><time>2026-04-06T12:14:01.622Z</time></trkpt><trkpt lat="45.733051" lon="11.7235592"><ele>94.0</ele><time>2026-04-06T12:14:02.626Z</time></trkpt><trkpt lat="45.7331539" lon="11.7234462"><ele>94.0</ele><time>2026-04-06T12:14:03.627Z</time></trkpt><trkpt lat="45.7332526" lon="11.7233592"><ele>94.0</ele><time>2026-04-06T12:14:04.622Z</time></trkpt><trkpt lat="45.7333497" lon="11.7233264"><ele>94.0</ele><time>2026-04-06T12:14:05.624Z</time></trkpt><trkpt lat="45.7334561" lon="11.7233557"><ele>94.0</ele><time>2026-04-06T12:14:06.642Z</time></trkpt><trkpt lat="45.7335757" lon="11.7234317"><ele>94.33333333333333</ele><time>2026-04-06T12:14:07.624Z</time></trkpt><trkpt lat="45.7337082" lon="11.7235329"><ele>94.66666666666667</ele><time>2026-04-06T12:14:08.638Z</time></trkpt><trkpt lat="45.7338489" lon="11.7236448"><ele>95.0</ele><time>2026-04-06T12:14:09.649Z</time></trkpt><trkpt lat="45.7339933" lon="11.7237601"><ele>95.0</ele><time>2026-04-06T12:14:10.618Z</time></trkpt><trkpt lat="45.734142" lon="11.7238781"><ele>95.0</ele><time>2026-04-06T12:14:11.628Z</time></trkpt><trkpt lat="45.7342951" lon="11.7239989"><ele>95.0</ele><time>2026-04-06T12:14:12.626Z</time></trkpt><trkpt lat="45.7344499" lon="11.7241212"><ele>95.0</ele><time>2026-04-06T12:14:13.628Z</time></trkpt><trkpt lat="45.7345961" lon="11.7242359"><ele>95.0</ele><time>2026-04-06T12:14:14.625Z</time></trkpt><trkpt lat="45.7347261" lon="11.7243395"><ele>95.0</ele><time>2026-04-06T12:14:15.629Z</time></trkpt><trkpt lat="45.7348455" lon="11.724438"><ele>95.0</ele><time>2026-04-06T12:14:16.617Z</time></trkpt><trkpt lat="45.7349674" lon="11.724532"><ele>95.0</ele><time>2026-04-06T12:14:17.625Z</time></trkpt><trkpt lat="45.7350946" lon="11.7246266"><ele>95.0</ele><time>2026-04-06T12:14:18.625Z</time></trkpt><trkpt lat="45.7352298" lon="11.7247231"><ele>95.0</ele><time>2026-04-06T12:14:19.63Z</time></trkpt><trkpt lat="45.7353628" lon="11.7248199"><ele>95.75</ele><time>2026-04-06T12:14:20.622Z</time></trkpt><trkpt lat="45.7354863" lon="11.7249106"><ele>96.5</ele><time>2026-04-06T12:14:21.614Z</time></trkpt><trkpt lat="45.7356049" lon="11.7250031"><ele>97.25</ele><time>2026-04-06T12:14:22.629Z</time></trkpt><trkpt lat="45.7357307" lon="11.7250987"><ele>98.0</ele><time>2026-04-06T12:14:23.622Z</time></trkpt><trkpt lat="45.7358593" lon="11.7251956"><ele>98.0</ele><time>2026-04-06T12:14:24.62Z</time></trkpt><trkpt lat="45.7359863" lon="11.7253072"><ele>98.0</ele><time>2026-04-06T12:14:25.626Z</time></trkpt><trkpt lat="45.7361154" lon="11.7254312"><ele>98.0</ele><time>2026-04-06T12:14:26.64Z</time></trkpt><trkpt lat="45.7362429" lon="11.7255613"><ele>98.0</ele><time>2026-04-06T12:14:27.624Z</time></trkpt><trkpt lat="45.7363668" lon="11.7256822"><ele>98.0</ele><time>2026-04-06T12:14:28.619Z</time></trkpt><trkpt lat="45.7364844" lon="11.7257886"><ele>98.0</ele><time>2026-04-06T12:14:29.619Z</time></trkpt><trkpt lat="45.7365954" lon="11.7258723"><ele>98.0</ele><time>2026-04-06T12:14:30.617Z</time></trkpt><trkpt lat="45.7366984" lon="11.7259435"><ele>98.0</ele><time>2026-04-06T12:14:31.627Z</time></trkpt><trkpt lat="45.7367833" lon="11.7260057"><ele>98.0</ele><time>2026-04-06T12:14:32.625Z</time></trkpt><trkpt lat="45.7368491" lon="11.7260593"><ele>98.0</ele><time>2026-04-06T12:14:33.628Z</time></trkpt><trkpt lat="45.7369471" lon="11.7261412"><ele>98.0</ele><time>2026-04-06T12:14:36.617Z</time></trkpt><trkpt lat="45.7370092" lon="11.726104"><ele>98.0</ele><time>2026-04-06T12:14:38.616Z</time></trkpt><trkpt lat="45.7369947" lon="11.7259021"><ele>98.0</ele><time>2026-04-06T12:14:40.62Z</time></trkpt><trkpt lat="45.7369712" lon="11.7257719"><ele>98.0</ele><time>2026-04-06T12:14:41.621Z</time></trkpt><trkpt lat="45.7369409" lon="11.7256258"><ele>98.0</ele><time>2026-04-06T12:14:42.603Z</time></trkpt><trkpt lat="45.7369109" lon="11.7254703"><ele>98.0</ele><time>2026-04-06T12:14:43.62Z</time></trkpt><trkpt lat="45.7368835" lon="11.7253266"><ele>98.0</ele><time>2026-04-06T12:14:44.632Z</time></trkpt><trkpt lat="45.7368648" lon="11.7252021"><ele>97.83333333333333</ele><time>2026-04-06T12:14:45.621Z</time></trkpt><trkpt lat="45.7368582" lon="11.725103"><ele>97.66666666666666</ele><time>2026-04-06T12:14:46.645Z</time></trkpt><trkpt lat="45.7368805" lon="11.7249621"><ele>97.5</ele><time>2026-04-06T12:14:48.621Z</time></trkpt><trkpt lat="45.7369353" lon="11.7249066"><ele>97.33333333333334</ele><time>2026-04-06T12:14:49.621Z</time></trkpt><trkpt lat="45.7370143" lon="11.724866"><ele>97.16666666666667</ele><time>2026-04-06T12:14:50.617Z</time></trkpt><trkpt lat="45.737112" lon="11.7248332"><ele>97.0</ele><time>2026-04-06T12:14:51.615Z</time></trkpt><trkpt lat="45.7372277" lon="11.7247914"><ele>97.0</ele><time>2026-04-06T12:14:52.628Z</time></trkpt><trkpt lat="45.7373472" lon="11.7247455"><ele>97.0</ele><time>2026-04-06T12:14:53.623Z</time></trkpt><trkpt lat="45.7374672" lon="11.7247009"><ele>97.0</ele><time>2026-04-06T12:14:54.621Z</time></trkpt><trkpt lat="45.7375841" lon="11.7246654"><ele>97.0</ele><time>2026-04-06T12:14:55.63Z</time></trkpt><trkpt lat="45.7377073" lon="11.7246153"><ele>97.5</ele><time>2026-04-06T12:14:56.62Z</time></trkpt><trkpt lat="45.7378376" lon="11.7245667"><ele>98.0</ele><time>2026-04-06T12:14:57.627Z</time></trkpt><trkpt lat="45.7379624" lon="11.7245221"><ele>98.5</ele><time>2026-04-06T12:14:58.659Z</time></trkpt><trkpt lat="45.7380821" lon="11.7244849"><ele>99.0</ele><time>2026-04-06T12:14:59.625Z</time></trkpt><trkpt lat="45.7382089" lon="11.7244532"><ele>99.0</ele><time>2026-04-06T12:15:00.624Z</time></trkpt><trkpt lat="45.7383454" lon="11.7244323"><ele>99.0</ele><time>2026-04-06T12:15:01.622Z</time></trkpt><trkpt lat="45.738492" lon="11.7244204"><ele>99.0</ele><time>2026-04-06T12:15:02.632Z</time></trkpt><trkpt lat="45.7386425" lon="11.7244081"><ele>99.0</ele><time>2026-04-06T12:15:03.625Z</time></trkpt><trkpt lat="45.7389625" lon="11.724402"><ele>98.66666666666666</ele><time>2026-04-06T12:15:05.62Z</time></trkpt><trkpt lat="45.739117" lon="11.7243798"><ele>98.33333333333333</ele><time>2026-04-06T12:15:06.621Z</time></trkpt><trkpt lat="45.7392655" lon="11.7243542"><ele>98.0</ele><time>2026-04-06T12:15:07.623Z</time></trkpt><trkpt lat="45.7394178" lon="11.7243198"><ele>98.0</ele><time>2026-04-06T12:15:08.617Z</time></trkpt><trkpt lat="45.7395721" lon="11.7242519"><ele>98.0</ele><time>2026-04-06T12:15:09.618Z</time></trkpt><trkpt lat="45.7397292" lon="11.724183"><ele>98.0</ele><time>2026-04-06T12:15:10.624Z</time></trkpt><trkpt lat="45.739876" lon="11.7241026"><ele>98.0</ele><time>2026-04-06T12:15:11.617Z</time></trkpt><trkpt lat="45.7400156" lon="11.7240234"><ele>98.0</ele><time>2026-04-06T12:15:12.626Z</time></trkpt><trkpt lat="45.7401527" lon="11.7239401"><ele>98.0</ele><time>2026-04-06T12:15:13.619Z</time></trkpt><trkpt lat="45.7402959" lon="11.7238555"><ele>98.75</ele><time>2026-04-06T12:15:14.661Z</time></trkpt><trkpt lat="45.7404341" lon="11.7237804"><ele>99.5</ele><time>2026-04-06T12:15:15.622Z</time></trkpt><trkpt lat="45.7405735" lon="11.7237173"><ele>100.25</ele><time>2026-04-06T12:15:16.623Z</time></trkpt><trkpt lat="45.7407136" lon="11.7236652"><ele>101.0</ele><time>2026-04-06T12:15:17.619Z</time></trkpt><trkpt lat="45.7408483" lon="11.7236216"><ele>101.0</ele><time>2026-04-06T12:15:18.619Z</time></trkpt><trkpt lat="45.7409786" lon="11.7235866"><ele>101.0</ele><time>2026-04-06T12:15:19.64Z</time></trkpt><trkpt lat="45.7411091" lon="11.7235651"><ele>101.0</ele><time>2026-04-06T12:15:20.617Z</time></trkpt><trkpt lat="45.7412369" lon="11.7235533"><ele>101.0</ele><time>2026-04-06T12:15:21.624Z</time></trkpt><trkpt lat="45.7413617" lon="11.7235416"><ele>100.4</ele><time>2026-04-06T12:15:22.623Z</time></trkpt><trkpt lat="45.7414779" lon="11.7235347"><ele>99.8</ele><time>2026-04-06T12:15:23.616Z</time></trkpt><trkpt lat="45.7415874" lon="11.723532"><ele>99.2</ele><time>2026-04-06T12:15:24.63Z</time></trkpt><trkpt lat="45.7416861" lon="11.7235337"><ele>98.60000000000001</ele><time>2026-04-06T12:15:25.629Z</time></trkpt><trkpt lat="45.7417757" lon="11.7235392"><ele>98.0</ele><time>2026-04-06T12:15:26.622Z</time></trkpt><trkpt lat="45.741851" lon="11.7235544"><ele>98.60000000000001</ele><time>2026-04-06T12:15:27.627Z</time></trkpt><trkpt lat="45.7419099" lon="11.7235934"><ele>99.2</ele><time>2026-04-06T12:15:28.629Z</time></trkpt><trkpt lat="45.741978" lon="11.7237488"><ele>99.8</ele><time>2026-04-06T12:15:30.631Z</time></trkpt><trkpt lat="45.741998" lon="11.7238609"><ele>100.4</ele><time>2026-04-06T12:15:31.622Z</time></trkpt><trkpt lat="45.7420248" lon="11.7239911"><ele>101.0</ele><time>2026-04-06T12:15:32.637Z</time></trkpt><trkpt lat="45.7420531" lon="11.7241397"><ele>101.0</ele><time>2026-04-06T12:15:33.627Z</time></trkpt><trkpt lat="45.7420857" lon="11.7242919"><ele>101.0</ele><time>2026-04-06T12:15:34.626Z</time></trkpt><trkpt lat="45.7421147" lon="11.7244621"><ele>101.0</ele><time>2026-04-06T12:15:35.626Z</time></trkpt><trkpt lat="45.7421533" lon="11.7246348"><ele>101.0</ele><time>2026-04-06T12:15:36.609Z</time></trkpt><trkpt lat="45.742188" lon="11.7248094"><ele>101.0</ele><time>2026-04-06T12:15:37.621Z</time></trkpt><trkpt lat="45.7422279" lon="11.7249898"><ele>101.0</ele><time>2026-04-06T12:15:38.63Z</time></trkpt><trkpt lat="45.7422697" lon="11.7251787"><ele>101.0</ele><time>2026-04-06T12:15:39.629Z</time></trkpt><trkpt lat="45.7423144" lon="11.7253664"><ele>101.0</ele><time>2026-04-06T12:15:40.64Z</time></trkpt><trkpt lat="45.7423692" lon="11.7255595"><ele>100.25</ele><time>2026-04-06T12:15:41.637Z</time></trkpt><trkpt lat="45.7424299" lon="11.7257519"><ele>99.5</ele><time>2026-04-06T12:15:42.624Z</time></trkpt><trkpt lat="45.7424911" lon="11.7259491"><ele>98.75</ele><time>2026-04-06T12:15:43.617Z</time></trkpt><trkpt lat="45.7425502" lon="11.7261488"><ele>98.0</ele><time>2026-04-06T12:15:44.625Z</time></trkpt><trkpt lat="45.7426059" lon="11.726353"><ele>98.0</ele><time>2026-04-06T12:15:45.62Z</time></trkpt><trkpt lat="45.7426545" lon="11.7265617"><ele>98.0</ele><time>2026-04-06T12:15:46.641Z</time></trkpt><trkpt lat="45.7426977" lon="11.7267745"><ele>98.0</ele><time>2026-04-06T12:15:47.626Z</time></trkpt><trkpt lat="45.7427393" lon="11.7269898"><ele>98.66666666666666</ele><time>2026-04-06T12:15:48.622Z</time></trkpt><trkpt lat="45.7427794" lon="11.7272088"><ele>99.33333333333334</ele><time>2026-04-06T12:15:49.628Z</time></trkpt><trkpt lat="45.7428178" lon="11.7274317"><ele>100.0</ele><time>2026-04-06T12:15:50.624Z</time></trkpt><trkpt lat="45.7428552" lon="11.7276565"><ele>100.0</ele><time>2026-04-06T12:15:51.63Z</time></trkpt><trkpt lat="45.7428921" lon="11.7278822"><ele>100.0</ele><time>2026-04-06T12:15:52.627Z</time></trkpt><trkpt lat="45.742931" lon="11.7281087"><ele>100.0</ele><time>2026-04-06T12:15:53.631Z</time></trkpt><trkpt lat="45.7429708" lon="11.7283369"><ele>100.0</ele><time>2026-04-06T12:15:54.625Z</time></trkpt><trkpt lat="45.7430087" lon="11.7285514"><ele>100.0</ele><time>2026-04-06T12:15:55.628Z</time></trkpt><trkpt lat="45.7430434" lon="11.7287472"><ele>100.0</ele><time>2026-04-06T12:15:56.62Z</time></trkpt><trkpt lat="45.7430756" lon="11.7289252"><ele>100.0</ele><time>2026-04-06T12:15:57.61Z</time></trkpt><trkpt lat="45.7431054" lon="11.7290869"><ele>100.2</ele><time>2026-04-06T12:15:58.623Z</time></trkpt><trkpt lat="45.7431337" lon="11.7292346"><ele>100.4</ele><time>2026-04-06T12:15:59.623Z</time></trkpt><trkpt lat="45.7431594" lon="11.7293688"><ele>100.6</ele><time>2026-04-06T12:16:00.632Z</time></trkpt><trkpt lat="45.7431811" lon="11.7294897"><ele>100.8</ele><time>2026-04-06T12:16:01.625Z</time></trkpt><trkpt lat="45.7431978" lon="11.7296061"><ele>101.0</ele><time>2026-04-06T12:16:02.625Z</time></trkpt><trkpt lat="45.7432068" lon="11.7297213"><ele>100.99999999999999</ele><time>2026-04-06T12:16:03.626Z</time></trkpt><trkpt lat="45.7432024" lon="11.7298287"><ele>101.0</ele><time>2026-04-06T12:16:04.625Z</time></trkpt><trkpt lat="45.7431863" lon="11.7299381"><ele>101.0</ele><time>2026-04-06T12:16:05.623Z</time></trkpt><trkpt lat="45.7431709" lon="11.7300519"><ele>101.0</ele><time>2026-04-06T12:16:06.622Z</time></trkpt><trkpt lat="45.743175" lon="11.7301655"><ele>100.99999999999999</ele><time>2026-04-06T12:16:07.624Z</time></trkpt><trkpt lat="45.7432042" lon="11.7302589"><ele>101.0</ele><time>2026-04-06T12:16:08.621Z</time></trkpt><trkpt lat="45.7432574" lon="11.7303222"><ele>100.99999999999999</ele><time>2026-04-06T12:16:09.628Z</time></trkpt><trkpt lat="45.743324" lon="11.7303453"><ele>101.0</ele><time>2026-04-06T12:16:10.612Z</time></trkpt><trkpt lat="45.7433893" lon="11.7303241"><ele>101.0</ele><time>2026-04-06T12:16:11.624Z</time></trkpt><trkpt lat="45.7434527" lon="11.7302706"><ele>101.0</ele><time>2026-04-06T12:16:12.624Z</time></trkpt><trkpt lat="45.7435296" lon="11.7302119"><ele>100.99999999999999</ele><time>2026-04-06T12:16:13.621Z</time></trkpt><trkpt lat="45.7436301" lon="11.7301635"><ele>101.0</ele><time>2026-04-06T12:16:14.625Z</time></trkpt><trkpt lat="45.7437475" lon="11.7301161"><ele>101.25</ele><time>2026-04-06T12:16:15.625Z</time></trkpt><trkpt lat="45.743874" lon="11.7300596"><ele>101.5</ele><time>2026-04-06T12:16:16.629Z</time></trkpt><trkpt lat="45.744009" lon="11.7299891"><ele>101.75</ele><time>2026-04-06T12:16:17.611Z</time></trkpt><trkpt lat="45.7441476" lon="11.7299038"><ele>102.0</ele><time>2026-04-06T12:16:18.632Z</time></trkpt><trkpt lat="45.744289" lon="11.7297971"><ele>102.66666666666666</ele><time>2026-04-06T12:16:19.614Z</time></trkpt><trkpt lat="45.7444336" lon="11.7296712"><ele>103.33333333333333</ele><time>2026-04-06T12:16:20.621Z</time></trkpt><trkpt lat="45.7445821" lon="11.7295319"><ele>104.0</ele><time>2026-04-06T12:16:21.621Z</time></trkpt><trkpt lat="45.7447354" lon="11.729385"><ele>104.33333333333333</ele><time>2026-04-06T12:16:22.619Z</time></trkpt><trkpt lat="45.7448914" lon="11.7292353"><ele>104.66666666666666</ele><time>2026-04-06T12:16:23.651Z</time></trkpt><trkpt lat="45.7450496" lon="11.7290838"><ele>105.0</ele><time>2026-04-06T12:16:24.629Z</time></trkpt><trkpt lat="45.7452094" lon="11.7289304"><ele>104.66666666666666</ele><time>2026-04-06T12:16:25.619Z</time></trkpt><trkpt lat="45.7453719" lon="11.7287747"><ele>104.33333333333333</ele><time>2026-04-06T12:16:26.617Z</time></trkpt><trkpt lat="45.7455343" lon="11.7286183"><ele>104.0</ele><time>2026-04-06T12:16:27.617Z</time></trkpt><trkpt lat="45.7456972" lon="11.7284617"><ele>103.66666666666666</ele><time>2026-04-06T12:16:28.62Z</time></trkpt><trkpt lat="45.7458603" lon="11.7283085"><ele>103.33333333333334</ele><time>2026-04-06T12:16:29.621Z</time></trkpt><trkpt lat="45.746023" lon="11.7281614"><ele>103.0</ele><time>2026-04-06T12:16:30.613Z</time></trkpt><trkpt lat="45.746183" lon="11.7280221"><ele>103.33333333333334</ele><time>2026-04-06T12:16:31.62Z</time></trkpt><trkpt lat="45.7463392" lon="11.7278914"><ele>103.66666666666666</ele><time>2026-04-06T12:16:32.625Z</time></trkpt><trkpt lat="45.7464936" lon="11.7277667"><ele>104.0</ele><time>2026-04-06T12:16:33.625Z</time></trkpt><trkpt lat="45.746647" lon="11.7276474"><ele>104.0</ele><time>2026-04-06T12:16:34.619Z</time></trkpt><trkpt lat="45.7467988" lon="11.7275319"><ele>104.0</ele><time>2026-04-06T12:16:35.628Z</time></trkpt><trkpt lat="45.7469466" lon="11.7274213"><ele>104.0</ele><time>2026-04-06T12:16:36.624Z</time></trkpt><trkpt lat="45.7470848" lon="11.7273177"><ele>104.2</ele><time>2026-04-06T12:16:37.622Z</time></trkpt><trkpt lat="45.747209" lon="11.7272231"><ele>104.4</ele><time>2026-04-06T12:16:38.632Z</time></trkpt><trkpt lat="45.7473148" lon="11.7271426"><ele>104.6</ele><time>2026-04-06T12:16:39.626Z</time></trkpt><trkpt lat="45.7473996" lon="11.7270783"><ele>104.8</ele><time>2026-04-06T12:16:40.63Z</time></trkpt><trkpt lat="45.7474673" lon="11.7270272"><ele>105.0</ele><time>2026-04-06T12:16:41.608Z</time></trkpt><trkpt lat="45.7475303" lon="11.7269792"><ele>105.0</ele><time>2026-04-06T12:16:42.62Z</time></trkpt><trkpt lat="45.7476356" lon="11.7269062"><ele>105.0</ele><time>2026-04-06T12:16:44.632Z</time></trkpt><trkpt lat="45.7477554" lon="11.726867"><ele>105.0</ele><time>2026-04-06T12:16:46.623Z</time></trkpt><trkpt lat="45.7478183" lon="11.7268155"><ele>105.0</ele><time>2026-04-06T12:16:47.624Z</time></trkpt><trkpt lat="45.7478857" lon="11.7267403"><ele>105.0</ele><time>2026-04-06T12:16:48.626Z</time></trkpt><trkpt lat="45.7479584" lon="11.7266524"><ele>105.5</ele><time>2026-04-06T12:16:49.628Z</time></trkpt><trkpt lat="45.7480462" lon="11.7265604"><ele>106.0</ele><time>2026-04-06T12:16:50.656Z</time></trkpt><trkpt lat="45.7481514" lon="11.7264713"><ele>106.5</ele><time>2026-04-06T12:16:51.601Z</time></trkpt><trkpt lat="45.7482697" lon="11.7263831"><ele>107.0</ele><time>2026-04-06T12:16:52.616Z</time></trkpt><trkpt lat="45.7483996" lon="11.7262912"><ele>107.0</ele><time>2026-04-06T12:16:53.62Z</time></trkpt><trkpt lat="45.7485367" lon="11.7261971"><ele>107.0</ele><time>2026-04-06T12:16:54.624Z</time></trkpt><trkpt lat="45.7486884" lon="11.7261073"><ele>107.0</ele><time>2026-04-06T12:16:55.614Z</time></trkpt><trkpt lat="45.7488492" lon="11.7260329"><ele>106.66666666666666</ele><time>2026-04-06T12:16:56.608Z</time></trkpt><trkpt lat="45.7490183" lon="11.725964"><ele>106.33333333333334</ele><time>2026-04-06T12:16:57.613Z</time></trkpt><trkpt lat="45.7491996" lon="11.7258968"><ele>106.0</ele><time>2026-04-06T12:16:58.628Z</time></trkpt><trkpt lat="45.7493852" lon="11.72584"><ele>105.33333333333334</ele><time>2026-04-06T12:16:59.625Z</time></trkpt><trkpt lat="45.7495794" lon="11.7257945"><ele>104.66666666666666</ele><time>2026-04-06T12:17:00.623Z</time></trkpt><trkpt lat="45.7497764" lon="11.725767"><ele>104.0</ele><time>2026-04-06T12:17:01.612Z</time></trkpt><trkpt lat="45.7499778" lon="11.7257604"><ele>104.0</ele><time>2026-04-06T12:17:02.616Z</time></trkpt><trkpt lat="45.7501812" lon="11.7257744"><ele>104.0</ele><time>2026-04-06T12:17:03.624Z</time></trkpt><trkpt lat="45.7503848" lon="11.7258034"><ele>104.0</ele><time>2026-04-06T12:17:04.612Z</time></trkpt><trkpt lat="45.7505859" lon="11.7258472"><ele>104.33333333333333</ele><time>2026-04-06T12:17:05.621Z</time></trkpt><trkpt lat="45.7507836" lon="11.7259069"><ele>104.66666666666666</ele><time>2026-04-06T12:17:06.615Z</time></trkpt><trkpt lat="45.7509784" lon="11.7259794"><ele>105.0</ele><time>2026-04-06T12:17:07.616Z</time></trkpt><trkpt lat="45.7511723" lon="11.7260645"><ele>105.66666666666666</ele><time>2026-04-06T12:17:08.625Z</time></trkpt><trkpt lat="45.7513645" lon="11.7261647"><ele>106.33333333333333</ele><time>2026-04-06T12:17:09.626Z</time></trkpt><trkpt lat="45.7515541" lon="11.7262794"><ele>107.0</ele><time>2026-04-06T12:17:10.628Z</time></trkpt><trkpt lat="45.7517381" lon="11.7264"><ele>106.33333333333333</ele><time>2026-04-06T12:17:11.62Z</time></trkpt><trkpt lat="45.75191" lon="11.7265179"><ele>105.66666666666666</ele><time>2026-04-06T12:17:12.626Z</time></trkpt><trkpt lat="45.7520702" lon="11.7266346"><ele>105.0</ele><time>2026-04-06T12:17:13.623Z</time></trkpt><trkpt lat="45.7522215" lon="11.7267441"><ele>105.0</ele><time>2026-04-06T12:17:14.615Z</time></trkpt><trkpt lat="45.7523638" lon="11.726847"><ele>105.0</ele><time>2026-04-06T12:17:15.614Z</time></trkpt><trkpt lat="45.7524938" lon="11.7269416"><ele>105.0</ele><time>2026-04-06T12:17:16.62Z</time></trkpt><trkpt lat="45.7526115" lon="11.7270281"><ele>105.0</ele><time>2026-04-06T12:17:17.65Z</time></trkpt><trkpt lat="45.7527179" lon="11.7271048"><ele>105.25</ele><time>2026-04-06T12:17:18.616Z</time></trkpt><trkpt lat="45.7528145" lon="11.7271771"><ele>105.5</ele><time>2026-04-06T12:17:19.62Z</time></trkpt><trkpt lat="45.7529084" lon="11.7272577"><ele>105.75</ele><time>2026-04-06T12:17:20.615Z</time></trkpt><trkpt lat="45.7530023" lon="11.7273547"><ele>106.0</ele><time>2026-04-06T12:17:21.636Z</time></trkpt><trkpt lat="45.7531086" lon="11.7274469"><ele>106.0</ele><time>2026-04-06T12:17:22.613Z</time></trkpt><trkpt lat="45.7532335" lon="11.7275131"><ele>106.0</ele><time>2026-04-06T12:17:23.614Z</time></trkpt><trkpt lat="45.7533675" lon="11.7275743"><ele>106.0</ele><time>2026-04-06T12:17:24.624Z</time></trkpt><trkpt lat="45.7535048" lon="11.7276506"><ele>106.0</ele><time>2026-04-06T12:17:25.616Z</time></trkpt><trkpt lat="45.7536458" lon="11.7277442"><ele>106.33333333333334</ele><time>2026-04-06T12:17:26.604Z</time></trkpt><trkpt lat="45.7537912" lon="11.7278472"><ele>106.66666666666666</ele><time>2026-04-06T12:17:27.615Z</time></trkpt><trkpt lat="45.7539406" lon="11.7279525"><ele>107.0</ele><time>2026-04-06T12:17:28.606Z</time></trkpt><trkpt lat="45.7540886" lon="11.7280512"><ele>107.0</ele><time>2026-04-06T12:17:29.621Z</time></trkpt><trkpt lat="45.7542376" lon="11.7281509"><ele>107.0</ele><time>2026-04-06T12:17:30.623Z</time></trkpt><trkpt lat="45.7543793" lon="11.7282592"><ele>107.0</ele><time>2026-04-06T12:17:31.618Z</time></trkpt><trkpt lat="45.7545161" lon="11.7283664"><ele>106.66666666666666</ele><time>2026-04-06T12:17:32.625Z</time></trkpt><trkpt lat="45.7546626" lon="11.7284712"><ele>106.33333333333334</ele><time>2026-04-06T12:17:33.618Z</time></trkpt><trkpt lat="45.7548089" lon="11.7285765"><ele>106.0</ele><time>2026-04-06T12:17:34.619Z</time></trkpt><trkpt lat="45.7549585" lon="11.7286849"><ele>106.0</ele><time>2026-04-06T12:17:35.621Z</time></trkpt><trkpt lat="45.755108" lon="11.7287873"><ele>106.0</ele><time>2026-04-06T12:17:36.618Z</time></trkpt><trkpt lat="45.7552542" lon="11.728894"><ele>106.0</ele><time>2026-04-06T12:17:37.624Z</time></trkpt><trkpt lat="45.7554016" lon="11.7289997"><ele>106.0</ele><time>2026-04-06T12:17:38.63Z</time></trkpt><trkpt lat="45.7555502" lon="11.7291061"><ele>106.0</ele><time>2026-04-06T12:17:39.617Z</time></trkpt><trkpt lat="45.7557009" lon="11.7292142"><ele>106.0</ele><time>2026-04-06T12:17:40.608Z</time></trkpt><trkpt lat="45.7558563" lon="11.729322"><ele>106.33333333333334</ele><time>2026-04-06T12:17:41.616Z</time></trkpt><trkpt lat="45.7560143" lon="11.7294329"><ele>106.66666666666666</ele><time>2026-04-06T12:17:42.616Z</time></trkpt><trkpt lat="45.7561764" lon="11.7295468"><ele>107.0</ele><time>2026-04-06T12:17:43.621Z</time></trkpt><trkpt lat="45.7563429" lon="11.729662"><ele>107.0</ele><time>2026-04-06T12:17:44.625Z</time></trkpt><trkpt lat="45.7565122" lon="11.7297787"><ele>107.0</ele><time>2026-04-06T12:17:45.611Z</time></trkpt><trkpt lat="45.7566789" lon="11.729895"><ele>107.0</ele><time>2026-04-06T12:17:46.624Z</time></trkpt><trkpt lat="45.7568525" lon="11.7300179"><ele>106.66666666666666</ele><time>2026-04-06T12:17:47.628Z</time></trkpt><trkpt lat="45.7570175" lon="11.7301431"><ele>106.33333333333334</ele><time>2026-04-06T12:17:48.635Z</time></trkpt><trkpt lat="45.7571852" lon="11.7302642"><ele>106.0</ele><time>2026-04-06T12:17:49.625Z</time></trkpt><trkpt lat="45.7573498" lon="11.73038"><ele>106.0</ele><time>2026-04-06T12:17:50.636Z</time></trkpt><trkpt lat="45.7575084" lon="11.7304822"><ele>106.0</ele><time>2026-04-06T12:17:51.625Z</time></trkpt><trkpt lat="45.7576648" lon="11.7305814"><ele>106.0</ele><time>2026-04-06T12:17:52.615Z</time></trkpt><trkpt lat="45.7578227" lon="11.7306717"><ele>106.0</ele><time>2026-04-06T12:17:53.622Z</time></trkpt><trkpt lat="45.7579798" lon="11.7307574"><ele>106.0</ele><time>2026-04-06T12:17:54.63Z</time></trkpt><trkpt lat="45.7581395" lon="11.730844"><ele>106.0</ele><time>2026-04-06T12:17:55.621Z</time></trkpt><trkpt lat="45.7582986" lon="11.7309309"><ele>106.0</ele><time>2026-04-06T12:17:56.617Z</time></trkpt><trkpt lat="45.7584598" lon="11.7310127"><ele>106.0</ele><time>2026-04-06T12:17:57.621Z</time></trkpt><trkpt lat="45.758622" lon="11.7310951"><ele>106.0</ele><time>2026-04-06T12:17:58.618Z</time></trkpt><trkpt lat="45.7587842" lon="11.7311756"><ele>107.0</ele><time>2026-04-06T12:17:59.628Z</time></trkpt><trkpt lat="45.7589478" lon="11.7312522"><ele>108.0</ele><time>2026-04-06T12:18:00.619Z</time></trkpt><trkpt lat="45.7590996" lon="11.7313288"><ele>109.0</ele><time>2026-04-06T12:18:01.626Z</time></trkpt><trkpt lat="45.7592555" lon="11.7314126"><ele>109.0</ele><time>2026-04-06T12:18:02.616Z</time></trkpt><trkpt lat="45.759407" lon="11.7314862"><ele>109.0</ele><time>2026-04-06T12:18:03.62Z</time></trkpt><trkpt lat="45.7595546" lon="11.7315511"><ele>109.0</ele><time>2026-04-06T12:18:04.631Z</time></trkpt><trkpt lat="45.7596883" lon="11.7316089"><ele>109.0</ele><time>2026-04-06T12:18:05.623Z</time></trkpt><trkpt lat="45.7598104" lon="11.7316615"><ele>109.0</ele><time>2026-04-06T12:18:06.622Z</time></trkpt><trkpt lat="45.7599236" lon="11.7317043"><ele>109.0</ele><time>2026-04-06T12:18:07.616Z</time></trkpt><trkpt lat="45.7600281" lon="11.7317432"><ele>109.0</ele><time>2026-04-06T12:18:08.63Z</time></trkpt><trkpt lat="45.7601255" lon="11.7317773"><ele>109.16666666666667</ele><time>2026-04-06T12:18:09.614Z</time></trkpt><trkpt lat="45.7602129" lon="11.7318116"><ele>109.33333333333334</ele><time>2026-04-06T12:18:10.621Z</time></trkpt><trkpt lat="45.7602973" lon="11.7318609"><ele>109.5</ele><time>2026-04-06T12:18:11.617Z</time></trkpt><trkpt lat="45.7603804" lon="11.7319246"><ele>109.66666666666666</ele><time>2026-04-06T12:18:12.624Z</time></trkpt><trkpt lat="45.7604525" lon="11.7319913"><ele>109.83333333333333</ele><time>2026-04-06T12:18:13.601Z</time></trkpt><trkpt lat="45.7605008" lon="11.7320646"><ele>110.0</ele><time>2026-04-06T12:18:14.623Z</time></trkpt><trkpt lat="45.7605339" lon="11.7321455"><ele>110.4</ele><time>2026-04-06T12:18:15.609Z</time></trkpt><trkpt lat="45.7605446" lon="11.7322583"><ele>110.8</ele><time>2026-04-06T12:18:16.612Z</time></trkpt><trkpt lat="45.7605227" lon="11.7323937"><ele>111.19999999999999</ele><time>2026-04-06T12:18:17.625Z</time></trkpt><trkpt lat="45.7605085" lon="11.7325258"><ele>111.6</ele><time>2026-04-06T12:18:18.622Z</time></trkpt><trkpt lat="45.760492" lon="11.7326675"><ele>112.0</ele><time>2026-04-06T12:18:19.636Z</time></trkpt><trkpt lat="45.7604664" lon="11.7328194"><ele>112.19999999999999</ele><time>2026-04-06T12:18:20.617Z</time></trkpt><trkpt lat="45.7604421" lon="11.7329732"><ele>112.39999999999999</ele><time>2026-04-06T12:18:21.613Z</time></trkpt><trkpt lat="45.7604189" lon="11.7331141"><ele>112.60000000000001</ele><time>2026-04-06T12:18:22.616Z</time></trkpt><trkpt lat="45.7603962" lon="11.7332455"><ele>112.80000000000001</ele><time>2026-04-06T12:18:23.615Z</time></trkpt><trkpt lat="45.760365" lon="11.733363"><ele>113.0</ele><time>2026-04-06T12:18:24.602Z</time></trkpt><trkpt lat="45.7603176" lon="11.7334688"><ele>113.4</ele><time>2026-04-06T12:18:25.625Z</time></trkpt><trkpt lat="45.7602626" lon="11.7335796"><ele>113.80000000000001</ele><time>2026-04-06T12:18:26.601Z</time></trkpt><trkpt lat="45.7602074" lon="11.7336996"><ele>114.2</ele><time>2026-04-06T12:18:27.616Z</time></trkpt><trkpt lat="45.7601515" lon="11.7338337"><ele>114.6</ele><time>2026-04-06T12:18:28.618Z</time></trkpt><trkpt lat="45.7601036" lon="11.7339686"><ele>115.0</ele><time>2026-04-06T12:18:29.616Z</time></trkpt><trkpt lat="45.7600623" lon="11.7340931"><ele>115.00000000000001</ele><time>2026-04-06T12:18:30.619Z</time></trkpt><trkpt lat="45.7600311" lon="11.7342087"><ele>115.0</ele><time>2026-04-06T12:18:31.618Z</time></trkpt><trkpt lat="45.7600129" lon="11.7343215"><ele>115.0</ele><time>2026-04-06T12:18:32.613Z</time></trkpt><trkpt lat="45.7600159" lon="11.7344413"><ele>115.0</ele><time>2026-04-06T12:18:33.621Z</time></trkpt><trkpt lat="45.7600442" lon="11.7345668"><ele>115.00000000000001</ele><time>2026-04-06T12:18:34.616Z</time></trkpt><trkpt lat="45.7600878" lon="11.7346963"><ele>115.0</ele><time>2026-04-06T12:18:35.62Z</time></trkpt><trkpt lat="45.7601371" lon="11.7348326"><ele>115.25</ele><time>2026-04-06T12:18:36.613Z</time></trkpt><trkpt lat="45.7601972" lon="11.7349788"><ele>115.5</ele><time>2026-04-06T12:18:37.613Z</time></trkpt><trkpt lat="45.7602641" lon="11.7351376"><ele>115.75</ele><time>2026-04-06T12:18:38.617Z</time></trkpt><trkpt lat="45.7603363" lon="11.7353061"><ele>116.0</ele><time>2026-04-06T12:18:39.625Z</time></trkpt><trkpt lat="45.7604103" lon="11.7354827"><ele>115.5</ele><time>2026-04-06T12:18:40.62Z</time></trkpt><trkpt lat="45.7604802" lon="11.7356559"><ele>115.0</ele><time>2026-04-06T12:18:41.611Z</time></trkpt><trkpt lat="45.7605506" lon="11.7358342"><ele>114.5</ele><time>2026-04-06T12:18:42.619Z</time></trkpt><trkpt lat="45.7606223" lon="11.7360159"><ele>114.0</ele><time>2026-04-06T12:18:43.617Z</time></trkpt><trkpt lat="45.7606887" lon="11.7361903"><ele>114.0</ele><time>2026-04-06T12:18:44.614Z</time></trkpt><trkpt lat="45.760749" lon="11.73636"><ele>114.0</ele><time>2026-04-06T12:18:45.61Z</time></trkpt><trkpt lat="45.7608023" lon="11.7365165"><ele>114.0</ele><time>2026-04-06T12:18:46.614Z</time></trkpt><trkpt lat="45.7608526" lon="11.7366602"><ele>114.0</ele><time>2026-04-06T12:18:47.613Z</time></trkpt><trkpt lat="45.760902" lon="11.7367889"><ele>114.0</ele><time>2026-04-06T12:18:48.612Z</time></trkpt><trkpt lat="45.7609481" lon="11.7368958"><ele>113.99999999999999</ele><time>2026-04-06T12:18:49.608Z</time></trkpt><trkpt lat="45.7609791" lon="11.7369888"><ele>114.0</ele><time>2026-04-06T12:18:50.614Z</time></trkpt><trkpt lat="45.7609922" lon="11.7370774"><ele>114.0</ele><time>2026-04-06T12:18:51.622Z</time></trkpt><trkpt lat="45.7609841" lon="11.7371702"><ele>113.99999999999999</ele><time>2026-04-06T12:18:52.618Z</time></trkpt><trkpt lat="45.7609605" lon="11.7372738"><ele>114.0</ele><time>2026-04-06T12:18:53.614Z</time></trkpt><trkpt lat="45.7609329" lon="11.7373822"><ele>114.0</ele><time>2026-04-06T12:18:54.624Z</time></trkpt><trkpt lat="45.7608987" lon="11.7375264"><ele>114.0</ele><time>2026-04-06T12:18:55.615Z</time></trkpt><trkpt lat="45.7608647" lon="11.7376837"><ele>114.0</ele><time>2026-04-06T12:18:56.619Z</time></trkpt><trkpt lat="45.7608417" lon="11.7378533"><ele>114.0</ele><time>2026-04-06T12:18:57.617Z</time></trkpt><trkpt lat="45.7608252" lon="11.7380433"><ele>114.0</ele><time>2026-04-06T12:18:58.636Z</time></trkpt><trkpt lat="45.7608192" lon="11.7382366"><ele>115.0</ele><time>2026-04-06T12:18:59.625Z</time></trkpt><trkpt lat="45.760816" lon="11.7384393"><ele>116.0</ele><time>2026-04-06T12:19:00.611Z</time></trkpt><trkpt lat="45.7608138" lon="11.7386536"><ele>117.0</ele><time>2026-04-06T12:19:01.613Z</time></trkpt><trkpt lat="45.7608132" lon="11.738864"><ele>118.0</ele><time>2026-04-06T12:19:02.613Z</time></trkpt><trkpt lat="45.7608143" lon="11.7390668"><ele>119.0</ele><time>2026-04-06T12:19:03.614Z</time></trkpt><trkpt lat="45.7608174" lon="11.7392601"><ele>120.0</ele><time>2026-04-06T12:19:04.602Z</time></trkpt><trkpt lat="45.7608193" lon="11.7394509"><ele>121.0</ele><time>2026-04-06T12:19:05.615Z</time></trkpt><trkpt lat="45.7608192" lon="11.7396283"><ele>122.0</ele><time>2026-04-06T12:19:06.62Z</time></trkpt><trkpt lat="45.7608192" lon="11.7397908"><ele>122.5</ele><time>2026-04-06T12:19:07.615Z</time></trkpt><trkpt lat="45.7608135" lon="11.739953"><ele>123.0</ele><time>2026-04-06T12:19:08.632Z</time></trkpt><trkpt lat="45.7608039" lon="11.7401183"><ele>123.5</ele><time>2026-04-06T12:19:09.619Z</time></trkpt><trkpt lat="45.7607933" lon="11.7402837"><ele>124.0</ele><time>2026-04-06T12:19:10.614Z</time></trkpt><trkpt lat="45.7607813" lon="11.7404502"><ele>124.4</ele><time>2026-04-06T12:19:11.61Z</time></trkpt><trkpt lat="45.7607704" lon="11.7406018"><ele>124.80000000000001</ele><time>2026-04-06T12:19:12.627Z</time></trkpt><trkpt lat="45.760767" lon="11.7407452"><ele>125.19999999999999</ele><time>2026-04-06T12:19:13.622Z</time></trkpt><trkpt lat="45.760773" lon="11.740878"><ele>125.6</ele><time>2026-04-06T12:19:14.619Z</time></trkpt><trkpt lat="45.7607935" lon="11.7409853"><ele>126.0</ele><time>2026-04-06T12:19:15.623Z</time></trkpt><trkpt lat="45.7608832" lon="11.7411014"><ele>126.0</ele><time>2026-04-06T12:19:17.612Z</time></trkpt><trkpt lat="45.760947" lon="11.741134"><ele>126.0</ele><time>2026-04-06T12:19:18.622Z</time></trkpt><trkpt lat="45.7610348" lon="11.7410795"><ele>126.0</ele><time>2026-04-06T12:19:19.633Z</time></trkpt><trkpt lat="45.7611287" lon="11.7410202"><ele>126.0</ele><time>2026-04-06T12:19:20.633Z</time></trkpt><trkpt lat="45.7612398" lon="11.7409541"><ele>126.0</ele><time>2026-04-06T12:19:21.638Z</time></trkpt><trkpt lat="45.7613547" lon="11.7408803"><ele>126.25</ele><time>2026-04-06T12:19:22.618Z</time></trkpt><trkpt lat="45.7614724" lon="11.7408074"><ele>126.5</ele><time>2026-04-06T12:19:23.62Z</time></trkpt><trkpt lat="45.7615984" lon="11.7407373"><ele>126.75</ele><time>2026-04-06T12:19:24.62Z</time></trkpt><trkpt lat="45.7617286" lon="11.7406677"><ele>127.0</ele><time>2026-04-06T12:19:25.614Z</time></trkpt><trkpt lat="45.7618614" lon="11.7405947"><ele>127.0</ele><time>2026-04-06T12:19:26.621Z</time></trkpt><trkpt lat="45.7619964" lon="11.7405202"><ele>127.0</ele><time>2026-04-06T12:19:27.62Z</time></trkpt><trkpt lat="45.762129" lon="11.7404476"><ele>127.0</ele><time>2026-04-06T12:19:28.62Z</time></trkpt><trkpt lat="45.7622512" lon="11.7403805"><ele>127.0</ele><time>2026-04-06T12:19:29.63Z</time></trkpt><trkpt lat="45.7623673" lon="11.7403134"><ele>127.0</ele><time>2026-04-06T12:19:30.616Z</time></trkpt><trkpt lat="45.7624851" lon="11.7402441"><ele>127.0</ele><time>2026-04-06T12:19:31.621Z</time></trkpt><trkpt lat="45.762604" lon="11.7401752"><ele>127.0</ele><time>2026-04-06T12:19:32.629Z</time></trkpt><trkpt lat="45.7627193" lon="11.7401064"><ele>127.0</ele><time>2026-04-06T12:19:33.618Z</time></trkpt><trkpt lat="45.7628323" lon="11.7400381"><ele>128.0</ele><time>2026-04-06T12:19:34.618Z</time></trkpt><trkpt lat="45.7629439" lon="11.7399721"><ele>129.0</ele><time>2026-04-06T12:19:35.622Z</time></trkpt><trkpt lat="45.7630564" lon="11.7399055"><ele>130.0</ele><time>2026-04-06T12:19:36.616Z</time></trkpt><trkpt lat="45.7631671" lon="11.7398381"><ele>131.0</ele><time>2026-04-06T12:19:37.623Z</time></trkpt><trkpt lat="45.7632779" lon="11.7397733"><ele>131.0</ele><time>2026-04-06T12:19:38.615Z</time></trkpt><trkpt lat="45.7633873" lon="11.7397066"><ele>131.0</ele><time>2026-04-06T12:19:39.606Z</time></trkpt><trkpt lat="45.7634974" lon="11.7396397"><ele>131.0</ele><time>2026-04-06T12:19:40.633Z</time></trkpt><trkpt lat="45.7636067" lon="11.7395737"><ele>131.0</ele><time>2026-04-06T12:19:41.616Z</time></trkpt><trkpt lat="45.763715" lon="11.7395097"><ele>131.75</ele><time>2026-04-06T12:19:42.616Z</time></trkpt><trkpt lat="45.7638235" lon="11.7394483"><ele>132.5</ele><time>2026-04-06T12:19:43.615Z</time></trkpt><trkpt lat="45.7639313" lon="11.7393868"><ele>133.25</ele><time>2026-04-06T12:19:44.606Z</time></trkpt><trkpt lat="45.7640397" lon="11.7393219"><ele>134.0</ele><time>2026-04-06T12:19:45.611Z</time></trkpt><trkpt lat="45.7641454" lon="11.7392613"><ele>134.0</ele><time>2026-04-06T12:19:46.616Z</time></trkpt><trkpt lat="45.7642464" lon="11.7392041"><ele>134.0</ele><time>2026-04-06T12:19:47.621Z</time></trkpt><trkpt lat="45.7643444" lon="11.7391534"><ele>134.0</ele><time>2026-04-06T12:19:48.627Z</time></trkpt><trkpt lat="45.764439" lon="11.7391082"><ele>134.0</ele><time>2026-04-06T12:19:49.612Z</time></trkpt><trkpt lat="45.7645289" lon="11.7390725"><ele>134.0</ele><time>2026-04-06T12:19:50.611Z</time></trkpt><trkpt lat="45.7646191" lon="11.739026"><ele>133.6</ele><time>2026-04-06T12:19:51.618Z</time></trkpt><trkpt lat="45.7647104" lon="11.7389718"><ele>133.2</ele><time>2026-04-06T12:19:52.611Z</time></trkpt><trkpt lat="45.7647999" lon="11.7389239"><ele>132.79999999999998</ele><time>2026-04-06T12:19:53.616Z</time></trkpt><trkpt lat="45.764892" lon="11.7388869"><ele>132.4</ele><time>2026-04-06T12:19:54.613Z</time></trkpt><trkpt lat="45.7649986" lon="11.7388327"><ele>132.0</ele><time>2026-04-06T12:19:55.619Z</time></trkpt><trkpt lat="45.7651011" lon="11.7387784"><ele>132.2</ele><time>2026-04-06T12:19:56.617Z</time></trkpt><trkpt lat="45.7651978" lon="11.7387208"><ele>132.39999999999998</ele><time>2026-04-06T12:19:57.608Z</time></trkpt><trkpt lat="45.7653067" lon="11.7386763"><ele>132.60000000000002</ele><time>2026-04-06T12:19:58.62Z</time></trkpt><trkpt lat="45.7654098" lon="11.7386329"><ele>132.8</ele><time>2026-04-06T12:19:59.617Z</time></trkpt><trkpt lat="45.7655068" lon="11.7386047"><ele>133.0</ele><time>2026-04-06T12:20:00.617Z</time></trkpt><trkpt lat="45.7655938" lon="11.7385776"><ele>133.0</ele><time>2026-04-06T12:20:01.603Z</time></trkpt><trkpt lat="45.7656865" lon="11.7385573"><ele>133.0</ele><time>2026-04-06T12:20:02.628Z</time></trkpt><trkpt lat="45.7657818" lon="11.7385393"><ele>133.0</ele><time>2026-04-06T12:20:03.619Z</time></trkpt><trkpt lat="45.7658771" lon="11.7385246"><ele>133.0</ele><time>2026-04-06T12:20:04.611Z</time></trkpt><trkpt lat="45.7659762" lon="11.738514"><ele>133.0</ele><time>2026-04-06T12:20:05.614Z</time></trkpt><trkpt lat="45.7660793" lon="11.7385028"><ele>132.8</ele><time>2026-04-06T12:20:06.621Z</time></trkpt><trkpt lat="45.7661878" lon="11.7384895"><ele>132.60000000000002</ele><time>2026-04-06T12:20:07.615Z</time></trkpt><trkpt lat="45.7662926" lon="11.7384779"><ele>132.39999999999998</ele><time>2026-04-06T12:20:08.607Z</time></trkpt><trkpt lat="45.7663855" lon="11.7384716"><ele>132.2</ele><time>2026-04-06T12:20:09.66Z</time></trkpt><trkpt lat="45.7664678" lon="11.7384657"><ele>132.0</ele><time>2026-04-06T12:20:10.615Z</time></trkpt><trkpt lat="45.7665446" lon="11.7384607"><ele>132.0</ele><time>2026-04-06T12:20:11.628Z</time></trkpt><trkpt lat="45.7666256" lon="11.7384549"><ele>132.0</ele><time>2026-04-06T12:20:12.62Z</time></trkpt><trkpt lat="45.76671" lon="11.7384499"><ele>132.0</ele><time>2026-04-06T12:20:13.613Z</time></trkpt><trkpt lat="45.7667947" lon="11.7384446"><ele>132.0</ele><time>2026-04-06T12:20:14.6Z</time></trkpt><trkpt lat="45.7668787" lon="11.7384406"><ele>132.0</ele><time>2026-04-06T12:20:15.611Z</time></trkpt><trkpt lat="45.7669625" lon="11.7384366"><ele>132.0</ele><time>2026-04-06T12:20:16.617Z</time></trkpt><trkpt lat="45.7670478" lon="11.7384315"><ele>132.16666666666666</ele><time>2026-04-06T12:20:17.617Z</time></trkpt><trkpt lat="45.767136" lon="11.7384273"><ele>132.33333333333334</ele><time>2026-04-06T12:20:18.619Z</time></trkpt><trkpt lat="45.7672247" lon="11.7384226"><ele>132.5</ele><time>2026-04-06T12:20:19.625Z</time></trkpt><trkpt lat="45.7673116" lon="11.7384186"><ele>132.66666666666669</ele><time>2026-04-06T12:20:20.617Z</time></trkpt><trkpt lat="45.7674004" lon="11.7384123"><ele>132.83333333333334</ele><time>2026-04-06T12:20:21.631Z</time></trkpt><trkpt lat="45.767476" lon="11.7384075"><ele>133.0</ele><time>2026-04-06T12:20:22.613Z</time></trkpt><trkpt lat="45.7675867" lon="11.7384028"><ele>133.0</ele><time>2026-04-06T12:20:24.611Z</time></trkpt><trkpt lat="45.7676758" lon="11.7383998"><ele>133.0</ele><time>2026-04-06T12:20:26.612Z</time></trkpt><trkpt lat="45.7677457" lon="11.7383951"><ele>133.0</ele><time>2026-04-06T12:20:29.613Z</time></trkpt><trkpt lat="45.7678232" lon="11.738386"><ele>133.0</ele><time>2026-04-06T12:20:45.609Z</time></trkpt><trkpt lat="45.7679147" lon="11.7383842"><ele>133.0</ele><time>2026-04-06T12:20:47.608Z</time></trkpt><trkpt lat="45.7680138" lon="11.7383803"><ele>133.0</ele><time>2026-04-06T12:20:49.62Z</time></trkpt><trkpt lat="45.7681378" lon="11.7383753"><ele>133.0</ele><time>2026-04-06T12:20:51.618Z</time></trkpt><trkpt lat="45.7682115" lon="11.7383729"><ele>133.0</ele><time>2026-04-06T12:20:52.628Z</time></trkpt><trkpt lat="45.7682914" lon="11.7383713"><ele>133.0</ele><time>2026-04-06T12:20:53.619Z</time></trkpt><trkpt lat="45.7683776" lon="11.738372"><ele>133.0</ele><time>2026-04-06T12:20:54.614Z</time></trkpt><trkpt lat="45.76847" lon="11.7383734"><ele>133.0</ele><time>2026-04-06T12:20:55.631Z</time></trkpt><trkpt lat="45.7685678" lon="11.7383762"><ele>133.0</ele><time>2026-04-06T12:20:56.618Z</time></trkpt><trkpt lat="45.7686724" lon="11.7383778"><ele>133.5</ele><time>2026-04-06T12:20:57.615Z</time></trkpt><trkpt lat="45.7687779" lon="11.7383786"><ele>134.0</ele><time>2026-04-06T12:20:58.615Z</time></trkpt><trkpt lat="45.7688702" lon="11.7383783"><ele>134.5</ele><time>2026-04-06T12:20:59.619Z</time></trkpt><trkpt lat="45.7689561" lon="11.7383807"><ele>135.0</ele><time>2026-04-06T12:21:00.618Z</time></trkpt><trkpt lat="45.7690338" lon="11.738388"><ele>135.5</ele><time>2026-04-06T12:21:01.618Z</time></trkpt><trkpt lat="45.7691043" lon="11.7383967"><ele>136.0</ele><time>2026-04-06T12:21:02.618Z</time></trkpt><trkpt lat="45.7691743" lon="11.7384015"><ele>136.0</ele><time>2026-04-06T12:21:03.608Z</time></trkpt><trkpt lat="45.7692518" lon="11.7384017"><ele>136.0</ele><time>2026-04-06T12:21:04.62Z</time></trkpt><trkpt lat="45.7693357" lon="11.7384011"><ele>136.0</ele><time>2026-04-06T12:21:05.611Z</time></trkpt><trkpt lat="45.7694179" lon="11.7384064"><ele>136.0</ele><time>2026-04-06T12:21:06.617Z</time></trkpt><trkpt lat="45.7694992" lon="11.7384203"><ele>136.0</ele><time>2026-04-06T12:21:07.616Z</time></trkpt><trkpt lat="45.7695839" lon="11.7384384"><ele>136.0</ele><time>2026-04-06T12:21:08.614Z</time></trkpt><trkpt lat="45.7696687" lon="11.7384568"><ele>135.6</ele><time>2026-04-06T12:21:09.608Z</time></trkpt><trkpt lat="45.7697532" lon="11.7384882"><ele>135.2</ele><time>2026-04-06T12:21:10.614Z</time></trkpt><trkpt lat="45.7698356" lon="11.7385427"><ele>134.8</ele><time>2026-04-06T12:21:11.63Z</time></trkpt><trkpt lat="45.7699169" lon="11.7386326"><ele>134.4</ele><time>2026-04-06T12:21:12.62Z</time></trkpt><trkpt lat="45.7700124" lon="11.7387359"><ele>134.0</ele><time>2026-04-06T12:21:13.62Z</time></trkpt><trkpt lat="45.7701122" lon="11.7388429"><ele>131.75</ele><time>2026-04-06T12:21:14.616Z</time></trkpt><trkpt lat="45.7702135" lon="11.7389628"><ele>129.5</ele><time>2026-04-06T12:21:15.614Z</time></trkpt><trkpt lat="45.7703128" lon="11.7390701"><ele>127.25</ele><time>2026-04-06T12:21:16.621Z</time></trkpt><trkpt lat="45.7704124" lon="11.7391789"><ele>125.0</ele><time>2026-04-06T12:21:17.618Z</time></trkpt><trkpt lat="45.7705177" lon="11.7392957"><ele>127.25</ele><time>2026-04-06T12:21:18.627Z</time></trkpt><trkpt lat="45.7706243" lon="11.7394101"><ele>129.5</ele><time>2026-04-06T12:21:19.619Z</time></trkpt><trkpt lat="45.7707337" lon="11.739526"><ele>131.75</ele><time>2026-04-06T12:21:20.615Z</time></trkpt><trkpt lat="45.7708374" lon="11.7396356"><ele>134.0</ele><time>2026-04-06T12:21:21.624Z</time></trkpt><trkpt lat="45.7709367" lon="11.7397403"><ele>132.25</ele><time>2026-04-06T12:21:22.604Z</time></trkpt><trkpt lat="45.7710405" lon="11.7398445"><ele>130.5</ele><time>2026-04-06T12:21:23.618Z</time></trkpt><trkpt lat="45.7711514" lon="11.7399354"><ele>128.75</ele><time>2026-04-06T12:21:24.619Z</time></trkpt><trkpt lat="45.7712676" lon="11.7400119"><ele>127.0</ele><time>2026-04-06T12:21:25.613Z</time></trkpt><trkpt lat="45.7713905" lon="11.74007"><ele>127.0</ele><time>2026-04-06T12:21:26.62Z</time></trkpt><trkpt lat="45.7715114" lon="11.7401224"><ele>127.0</ele><time>2026-04-06T12:21:27.619Z</time></trkpt><trkpt lat="45.7716316" lon="11.7401739"><ele>127.0</ele><time>2026-04-06T12:21:28.621Z</time></trkpt><trkpt lat="45.7717526" lon="11.7402263"><ele>127.0</ele><time>2026-04-06T12:21:29.622Z</time></trkpt><trkpt lat="45.7718766" lon="11.7402794"><ele>128.25</ele><time>2026-04-06T12:21:30.637Z</time></trkpt><trkpt lat="45.7720001" lon="11.7403288"><ele>129.5</ele><time>2026-04-06T12:21:31.618Z</time></trkpt><trkpt lat="45.7721229" lon="11.7403781"><ele>130.75</ele><time>2026-04-06T12:21:32.613Z</time></trkpt><trkpt lat="45.7722635" lon="11.7404103"><ele>132.0</ele><time>2026-04-06T12:21:33.611Z</time></trkpt><trkpt lat="45.7724126" lon="11.7404332"><ele>132.0</ele><time>2026-04-06T12:21:34.615Z</time></trkpt><trkpt lat="45.7725711" lon="11.740453"><ele>132.0</ele><time>2026-04-06T12:21:35.627Z</time></trkpt><trkpt lat="45.7727299" lon="11.7404715"><ele>132.0</ele><time>2026-04-06T12:21:36.613Z</time></trkpt><trkpt lat="45.7728849" lon="11.7404899"><ele>132.5</ele><time>2026-04-06T12:21:37.609Z</time></trkpt><trkpt lat="45.773037" lon="11.7405094"><ele>133.0</ele><time>2026-04-06T12:21:38.626Z</time></trkpt><trkpt lat="45.7731818" lon="11.7405297"><ele>133.5</ele><time>2026-04-06T12:21:39.62Z</time></trkpt><trkpt lat="45.7733221" lon="11.7405547"><ele>134.0</ele><time>2026-04-06T12:21:40.626Z</time></trkpt><trkpt lat="45.7734618" lon="11.740589"><ele>134.0</ele><time>2026-04-06T12:21:41.617Z</time></trkpt><trkpt lat="45.7736009" lon="11.7406411"><ele>134.0</ele><time>2026-04-06T12:21:42.616Z</time></trkpt><trkpt lat="45.7737404" lon="11.7406974"><ele>134.0</ele><time>2026-04-06T12:21:43.604Z</time></trkpt><trkpt lat="45.7738708" lon="11.7407888"><ele>134.0</ele><time>2026-04-06T12:21:44.616Z</time></trkpt><trkpt lat="45.7739941" lon="11.7408988"><ele>134.0</ele><time>2026-04-06T12:21:45.623Z</time></trkpt><trkpt lat="45.7741147" lon="11.7409984"><ele>134.0</ele><time>2026-04-06T12:21:46.616Z</time></trkpt><trkpt lat="45.7742502" lon="11.7410717"><ele>134.0</ele><time>2026-04-06T12:21:47.624Z</time></trkpt><trkpt lat="45.7743977" lon="11.741114"><ele>134.0</ele><time>2026-04-06T12:21:48.619Z</time></trkpt><trkpt lat="45.7745458" lon="11.7411392"><ele>134.75</ele><time>2026-04-06T12:21:49.619Z</time></trkpt><trkpt lat="45.774696" lon="11.7411551"><ele>135.5</ele><time>2026-04-06T12:21:50.607Z</time></trkpt><trkpt lat="45.7748409" lon="11.7411685"><ele>136.25</ele><time>2026-04-06T12:21:51.614Z</time></trkpt><trkpt lat="45.7749786" lon="11.7411847"><ele>137.0</ele><time>2026-04-06T12:21:52.619Z</time></trkpt><trkpt lat="45.7751156" lon="11.7412004"><ele>136.0</ele><time>2026-04-06T12:21:53.613Z</time></trkpt><trkpt lat="45.7752486" lon="11.7412403"><ele>135.0</ele><time>2026-04-06T12:21:54.615Z</time></trkpt><trkpt lat="45.7753802" lon="11.7412664"><ele>134.0</ele><time>2026-04-06T12:21:55.613Z</time></trkpt><trkpt lat="45.7755132" lon="11.7413449"><ele>133.0</ele><time>2026-04-06T12:21:56.608Z</time></trkpt><trkpt lat="45.7756366" lon="11.7414474"><ele>133.0</ele><time>2026-04-06T12:21:57.616Z</time></trkpt><trkpt lat="45.7757563" lon="11.7415509"><ele>133.0</ele><time>2026-04-06T12:21:58.62Z</time></trkpt><trkpt lat="45.7758633" lon="11.7416473"><ele>133.0</ele><time>2026-04-06T12:21:59.618Z</time></trkpt><trkpt lat="45.7759713" lon="11.7417382"><ele>133.0</ele><time>2026-04-06T12:22:00.614Z</time></trkpt><trkpt lat="45.7760828" lon="11.7418356"><ele>133.25</ele><time>2026-04-06T12:22:01.619Z</time></trkpt><trkpt lat="45.776195" lon="11.7419295"><ele>133.5</ele><time>2026-04-06T12:22:02.61Z</time></trkpt><trkpt lat="45.7763113" lon="11.7420136"><ele>133.75</ele><time>2026-04-06T12:22:03.609Z</time></trkpt><trkpt lat="45.7764367" lon="11.7420784"><ele>134.0</ele><time>2026-04-06T12:22:04.615Z</time></trkpt><trkpt lat="45.7765695" lon="11.7421157"><ele>134.0</ele><time>2026-04-06T12:22:05.629Z</time></trkpt><trkpt lat="45.7767083" lon="11.7421339"><ele>134.0</ele><time>2026-04-06T12:22:06.624Z</time></trkpt><trkpt lat="45.7768557" lon="11.7421454"><ele>134.0</ele><time>2026-04-06T12:22:07.618Z</time></trkpt><trkpt lat="45.7770083" lon="11.7421551"><ele>134.0</ele><time>2026-04-06T12:22:08.619Z</time></trkpt><trkpt lat="45.7771629" lon="11.7421674"><ele>134.0</ele><time>2026-04-06T12:22:09.629Z</time></trkpt><trkpt lat="45.7773152" lon="11.7421811"><ele>134.0</ele><time>2026-04-06T12:22:10.635Z</time></trkpt><trkpt lat="45.7774649" lon="11.7421882"><ele>134.0</ele><time>2026-04-06T12:22:11.62Z</time></trkpt><trkpt lat="45.7776114" lon="11.7421823"><ele>134.0</ele><time>2026-04-06T12:22:12.62Z</time></trkpt><trkpt lat="45.7777568" lon="11.7421628"><ele>134.25</ele><time>2026-04-06T12:22:13.626Z</time></trkpt><trkpt lat="45.7778933" lon="11.7421311"><ele>134.5</ele><time>2026-04-06T12:22:14.615Z</time></trkpt><trkpt lat="45.7780193" lon="11.7420918"><ele>134.75</ele><time>2026-04-06T12:22:15.629Z</time></trkpt><trkpt lat="45.7781428" lon="11.742045"><ele>135.0</ele><time>2026-04-06T12:22:16.621Z</time></trkpt><trkpt lat="45.7782596" lon="11.7419915"><ele>135.0</ele><time>2026-04-06T12:22:17.623Z</time></trkpt><trkpt lat="45.7783657" lon="11.7419372"><ele>135.0</ele><time>2026-04-06T12:22:18.625Z</time></trkpt><trkpt lat="45.7784607" lon="11.7418829"><ele>135.0</ele><time>2026-04-06T12:22:19.622Z</time></trkpt><trkpt lat="45.7785439" lon="11.7418323"><ele>135.0</ele><time>2026-04-06T12:22:20.622Z</time></trkpt><trkpt lat="45.7786182" lon="11.7417871"><ele>135.0</ele><time>2026-04-06T12:22:21.619Z</time></trkpt><trkpt lat="45.7786812" lon="11.7417487"><ele>135.0</ele><time>2026-04-06T12:22:22.616Z</time></trkpt><trkpt lat="45.7787654" lon="11.7416996"><ele>135.0</ele><time>2026-04-06T12:22:24.616Z</time></trkpt><trkpt lat="45.7788538" lon="11.7416455"><ele>135.0</ele><time>2026-04-06T12:22:39.6Z</time></trkpt><trkpt lat="45.7789408" lon="11.7415917"><ele>135.0</ele><time>2026-04-06T12:22:41.617Z</time></trkpt><trkpt lat="45.7790663" lon="11.7415318"><ele>135.0</ele><time>2026-04-06T12:22:43.604Z</time></trkpt><trkpt lat="45.7791448" lon="11.741499"><ele>135.0</ele><time>2026-04-06T12:22:44.597Z</time></trkpt><trkpt lat="45.7792201" lon="11.7414723"><ele>135.0</ele><time>2026-04-06T12:22:45.622Z</time></trkpt><trkpt lat="45.7792907" lon="11.7414609"><ele>135.0</ele><time>2026-04-06T12:22:46.65Z</time></trkpt><trkpt lat="45.7793557" lon="11.741484"><ele>135.0</ele><time>2026-04-06T12:22:47.615Z</time></trkpt><trkpt lat="45.7794015" lon="11.7415483"><ele>135.0</ele><time>2026-04-06T12:22:48.617Z</time></trkpt><trkpt lat="45.7794214" lon="11.7416395"><ele>135.0</ele><time>2026-04-06T12:22:49.625Z</time></trkpt><trkpt lat="45.7794194" lon="11.7417537"><ele>135.0</ele><time>2026-04-06T12:22:50.625Z</time></trkpt><trkpt lat="45.7794012" lon="11.7418871"><ele>135.4</ele><time>2026-04-06T12:22:51.606Z</time></trkpt><trkpt lat="45.7793813" lon="11.7420287"><ele>135.8</ele><time>2026-04-06T12:22:52.607Z</time></trkpt><trkpt lat="45.7793732" lon="11.7421734"><ele>136.2</ele><time>2026-04-06T12:22:53.638Z</time></trkpt><trkpt lat="45.7793775" lon="11.7423079"><ele>136.6</ele><time>2026-04-06T12:22:54.631Z</time></trkpt><trkpt lat="45.7793886" lon="11.7424341"><ele>137.0</ele><time>2026-04-06T12:22:55.614Z</time></trkpt><trkpt lat="45.7794068" lon="11.7425472"><ele>137.0</ele><time>2026-04-06T12:22:56.61Z</time></trkpt><trkpt lat="45.7794285" lon="11.7426532"><ele>137.0</ele><time>2026-04-06T12:22:57.641Z</time></trkpt><trkpt lat="45.7794582" lon="11.7427613"><ele>137.0</ele><time>2026-04-06T12:22:58.625Z</time></trkpt><trkpt lat="45.7794924" lon="11.7428714"><ele>137.0</ele><time>2026-04-06T12:22:59.617Z</time></trkpt><trkpt lat="45.7795334" lon="11.7429908"><ele>137.0</ele><time>2026-04-06T12:23:00.625Z</time></trkpt><trkpt lat="45.7795788" lon="11.7431121"><ele>137.0</ele><time>2026-04-06T12:23:01.626Z</time></trkpt><trkpt lat="45.7796237" lon="11.7432213"><ele>137.0</ele><time>2026-04-06T12:23:02.601Z</time></trkpt><trkpt lat="45.7796742" lon="11.7433307"><ele>137.0</ele><time>2026-04-06T12:23:03.622Z</time></trkpt><trkpt lat="45.7797304" lon="11.7434437"><ele>137.0</ele><time>2026-04-06T12:23:04.608Z</time></trkpt><trkpt lat="45.7797875" lon="11.7435553"><ele>137.0</ele><time>2026-04-06T12:23:05.633Z</time></trkpt><trkpt lat="45.7798413" lon="11.7436632"><ele>137.0</ele><time>2026-04-06T12:23:06.626Z</time></trkpt><trkpt lat="45.7798988" lon="11.7437761"><ele>137.0</ele><time>2026-04-06T12:23:07.607Z</time></trkpt><trkpt lat="45.7799591" lon="11.7438938"><ele>137.0</ele><time>2026-04-06T12:23:08.624Z</time></trkpt><trkpt lat="45.7800208" lon="11.7440135"><ele>137.0</ele><time>2026-04-06T12:23:09.632Z</time></trkpt><trkpt lat="45.7800831" lon="11.744136"><ele>137.0</ele><time>2026-04-06T12:23:10.621Z</time></trkpt><trkpt lat="45.7801481" lon="11.7442631"><ele>137.0</ele><time>2026-04-06T12:23:11.626Z</time></trkpt><trkpt lat="45.7802143" lon="11.7443935"><ele>136.75</ele><time>2026-04-06T12:23:12.64Z</time></trkpt><trkpt lat="45.7802814" lon="11.7445247"><ele>136.5</ele><time>2026-04-06T12:23:13.619Z</time></trkpt><trkpt lat="45.7803494" lon="11.744658"><ele>136.25</ele><time>2026-04-06T12:23:14.622Z</time></trkpt><trkpt lat="45.7804169" lon="11.7447922"><ele>136.0</ele><time>2026-04-06T12:23:15.606Z</time></trkpt><trkpt lat="45.7804857" lon="11.7449269"><ele>136.0</ele><time>2026-04-06T12:23:16.615Z</time></trkpt><trkpt lat="45.7805567" lon="11.7450627"><ele>136.0</ele><time>2026-04-06T12:23:17.61Z</time></trkpt><trkpt lat="45.7806299" lon="11.7452036"><ele>136.0</ele><time>2026-04-06T12:23:18.618Z</time></trkpt><trkpt lat="45.7807049" lon="11.7453535"><ele>136.0</ele><time>2026-04-06T12:23:19.624Z</time></trkpt><trkpt lat="45.780782" lon="11.7455067"><ele>136.0</ele><time>2026-04-06T12:23:20.62Z</time></trkpt><trkpt lat="45.780862" lon="11.7456623"><ele>136.0</ele><time>2026-04-06T12:23:21.624Z</time></trkpt><trkpt lat="45.7809442" lon="11.7458197"><ele>136.0</ele><time>2026-04-06T12:23:22.622Z</time></trkpt><trkpt lat="45.7810275" lon="11.7459808"><ele>136.0</ele><time>2026-04-06T12:23:23.622Z</time></trkpt><trkpt lat="45.7811101" lon="11.746142"><ele>135.75</ele><time>2026-04-06T12:23:24.621Z</time></trkpt><trkpt lat="45.7811915" lon="11.7463027"><ele>135.5</ele><time>2026-04-06T12:23:25.621Z</time></trkpt><trkpt lat="45.7812751" lon="11.7464663"><ele>135.25</ele><time>2026-04-06T12:23:26.62Z</time></trkpt><trkpt lat="45.7813615" lon="11.7466328"><ele>135.0</ele><time>2026-04-06T12:23:27.621Z</time></trkpt><trkpt lat="45.7814496" lon="11.7468037"><ele>135.5</ele><time>2026-04-06T12:23:28.623Z</time></trkpt><trkpt lat="45.7815389" lon="11.7469771"><ele>136.0</ele><time>2026-04-06T12:23:29.618Z</time></trkpt><trkpt lat="45.7816272" lon="11.7471463"><ele>136.5</ele><time>2026-04-06T12:23:30.634Z</time></trkpt><trkpt lat="45.7817172" lon="11.7473187"><ele>137.0</ele><time>2026-04-06T12:23:31.623Z</time></trkpt><trkpt lat="45.7818068" lon="11.7474876"><ele>137.5</ele><time>2026-04-06T12:23:32.624Z</time></trkpt><trkpt lat="45.7818996" lon="11.7476519"><ele>138.0</ele><time>2026-04-06T12:23:33.624Z</time></trkpt><trkpt lat="45.7819826" lon="11.7478098"><ele>138.5</ele><time>2026-04-06T12:23:34.626Z</time></trkpt><trkpt lat="45.7820629" lon="11.747967"><ele>139.0</ele><time>2026-04-06T12:23:35.626Z</time></trkpt><trkpt lat="45.7821477" lon="11.7481164"><ele>139.5</ele><time>2026-04-06T12:23:36.628Z</time></trkpt><trkpt lat="45.7822267" lon="11.7482667"><ele>140.0</ele><time>2026-04-06T12:23:37.618Z</time></trkpt><trkpt lat="45.7823108" lon="11.7484141"><ele>140.5</ele><time>2026-04-06T12:23:38.616Z</time></trkpt><trkpt lat="45.7823963" lon="11.7485697"><ele>141.0</ele><time>2026-04-06T12:23:39.616Z</time></trkpt><trkpt lat="45.7824809" lon="11.7487269"><ele>141.0</ele><time>2026-04-06T12:23:40.615Z</time></trkpt><trkpt lat="45.7825716" lon="11.7488855"><ele>141.0</ele><time>2026-04-06T12:23:41.623Z</time></trkpt><trkpt lat="45.7826624" lon="11.7490404"><ele>141.0</ele><time>2026-04-06T12:23:42.619Z</time></trkpt><trkpt lat="45.7827539" lon="11.7491978"><ele>141.0</ele><time>2026-04-06T12:23:43.616Z</time></trkpt><trkpt lat="45.782846" lon="11.7493545"><ele>141.5</ele><time>2026-04-06T12:23:44.634Z</time></trkpt><trkpt lat="45.7829379" lon="11.7495072"><ele>142.0</ele><time>2026-04-06T12:23:45.623Z</time></trkpt><trkpt lat="45.7830337" lon="11.749667"><ele>142.5</ele><time>2026-04-06T12:23:46.623Z</time></trkpt><trkpt lat="45.7831297" lon="11.749827"><ele>143.0</ele><time>2026-04-06T12:23:47.629Z</time></trkpt><trkpt lat="45.7832243" lon="11.7499822"><ele>143.0</ele><time>2026-04-06T12:23:48.617Z</time></trkpt><trkpt lat="45.7833242" lon="11.7501415"><ele>143.0</ele><time>2026-04-06T12:23:49.628Z</time></trkpt><trkpt lat="45.7834183" lon="11.7503001"><ele>143.0</ele><time>2026-04-06T12:23:50.622Z</time></trkpt><trkpt lat="45.7835177" lon="11.7504642"><ele>143.0</ele><time>2026-04-06T12:23:51.62Z</time></trkpt><trkpt lat="45.7836229" lon="11.7506321"><ele>143.0</ele><time>2026-04-06T12:23:52.607Z</time></trkpt><trkpt lat="45.7837331" lon="11.7508114"><ele>143.0</ele><time>2026-04-06T12:23:53.635Z</time></trkpt><trkpt lat="45.7838491" lon="11.7509922"><ele>143.0</ele><time>2026-04-06T12:23:54.624Z</time></trkpt><trkpt lat="45.7839736" lon="11.7511715"><ele>142.66666666666666</ele><time>2026-04-06T12:23:55.624Z</time></trkpt><trkpt lat="45.7841017" lon="11.7513437"><ele>142.33333333333334</ele><time>2026-04-06T12:23:56.623Z</time></trkpt><trkpt lat="45.7842398" lon="11.7514985"><ele>142.0</ele><time>2026-04-06T12:23:57.624Z</time></trkpt><trkpt lat="45.7843806" lon="11.7516477"><ele>141.66666666666669</ele><time>2026-04-06T12:23:58.618Z</time></trkpt><trkpt lat="45.7845244" lon="11.7517916"><ele>141.33333333333334</ele><time>2026-04-06T12:23:59.622Z</time></trkpt><trkpt lat="45.7846671" lon="11.7519352"><ele>141.0</ele><time>2026-04-06T12:24:00.611Z</time></trkpt><trkpt lat="45.7848077" lon="11.7520798"><ele>141.0</ele><time>2026-04-06T12:24:01.622Z</time></trkpt><trkpt lat="45.7849468" lon="11.7522222"><ele>141.0</ele><time>2026-04-06T12:24:02.623Z</time></trkpt><trkpt lat="45.7850857" lon="11.7523616"><ele>141.0</ele><time>2026-04-06T12:24:03.623Z</time></trkpt><trkpt lat="45.7852191" lon="11.7524951"><ele>141.33333333333334</ele><time>2026-04-06T12:24:04.618Z</time></trkpt><trkpt lat="45.7853505" lon="11.7526274"><ele>141.66666666666669</ele><time>2026-04-06T12:24:05.626Z</time></trkpt><trkpt lat="45.7854821" lon="11.7527599"><ele>142.0</ele><time>2026-04-06T12:24:06.622Z</time></trkpt><trkpt lat="45.7856101" lon="11.7528917"><ele>142.0</ele><time>2026-04-06T12:24:07.621Z</time></trkpt><trkpt lat="45.7857408" lon="11.7530235"><ele>142.0</ele><time>2026-04-06T12:24:08.625Z</time></trkpt><trkpt lat="45.7858704" lon="11.7531568"><ele>142.0</ele><time>2026-04-06T12:24:09.621Z</time></trkpt><trkpt lat="45.7860003" lon="11.7532983"><ele>144.0</ele><time>2026-04-06T12:24:10.632Z</time></trkpt><trkpt lat="45.7861296" lon="11.7534452"><ele>146.0</ele><time>2026-04-06T12:24:11.623Z</time></trkpt><trkpt lat="45.7862595" lon="11.7535968"><ele>148.0</ele><time>2026-04-06T12:24:12.626Z</time></trkpt><trkpt lat="45.7863909" lon="11.7537556"><ele>148.33333333333334</ele><time>2026-04-06T12:24:13.622Z</time></trkpt><trkpt lat="45.7865262" lon="11.7539185"><ele>148.66666666666666</ele><time>2026-04-06T12:24:14.628Z</time></trkpt><trkpt lat="45.7866706" lon="11.7540767"><ele>149.0</ele><time>2026-04-06T12:24:15.628Z</time></trkpt><trkpt lat="45.7868252" lon="11.754221"><ele>150.0</ele><time>2026-04-06T12:24:16.623Z</time></trkpt><trkpt lat="45.7869862" lon="11.7543452"><ele>151.0</ele><time>2026-04-06T12:24:17.622Z</time></trkpt><trkpt lat="45.7871527" lon="11.7544465"><ele>152.0</ele><time>2026-04-06T12:24:18.618Z</time></trkpt><trkpt lat="45.7873261" lon="11.7545213"><ele>152.0</ele><time>2026-04-06T12:24:19.623Z</time></trkpt><trkpt lat="45.7874977" lon="11.7545829"><ele>152.0</ele><time>2026-04-06T12:24:20.624Z</time></trkpt><trkpt lat="45.7876668" lon="11.7546412"><ele>152.0</ele><time>2026-04-06T12:24:21.621Z</time></trkpt><trkpt lat="45.7878357" lon="11.7546941"><ele>151.66666666666666</ele><time>2026-04-06T12:24:22.626Z</time></trkpt><trkpt lat="45.7880047" lon="11.754745"><ele>151.33333333333334</ele><time>2026-04-06T12:24:23.641Z</time></trkpt><trkpt lat="45.7881725" lon="11.7547957"><ele>151.0</ele><time>2026-04-06T12:24:24.623Z</time></trkpt><trkpt lat="45.7883412" lon="11.7548461"><ele>152.0</ele><time>2026-04-06T12:24:25.622Z</time></trkpt><trkpt lat="45.7885109" lon="11.7548975"><ele>153.0</ele><time>2026-04-06T12:24:26.608Z</time></trkpt><trkpt lat="45.7886811" lon="11.7549491"><ele>154.0</ele><time>2026-04-06T12:24:27.628Z</time></trkpt><trkpt lat="45.7888516" lon="11.7550026"><ele>154.0</ele><time>2026-04-06T12:24:28.618Z</time></trkpt><trkpt lat="45.7890224" lon="11.7550524"><ele>154.0</ele><time>2026-04-06T12:24:29.626Z</time></trkpt><trkpt lat="45.7891944" lon="11.7550927"><ele>154.0</ele><time>2026-04-06T12:24:30.634Z</time></trkpt><trkpt lat="45.7893648" lon="11.7551206"><ele>154.0</ele><time>2026-04-06T12:24:31.623Z</time></trkpt><trkpt lat="45.7895339" lon="11.7551374"><ele>154.0</ele><time>2026-04-06T12:24:32.621Z</time></trkpt><trkpt lat="45.7896999" lon="11.7551532"><ele>154.0</ele><time>2026-04-06T12:24:33.62Z</time></trkpt><trkpt lat="45.789862" lon="11.7551711"><ele>154.0</ele><time>2026-04-06T12:24:34.615Z</time></trkpt><trkpt lat="45.7900213" lon="11.7551935"><ele>154.0</ele><time>2026-04-06T12:24:35.632Z</time></trkpt><trkpt lat="45.7901765" lon="11.7552278"><ele>154.0</ele><time>2026-04-06T12:24:36.62Z</time></trkpt><trkpt lat="45.7903285" lon="11.7552782"><ele>154.66666666666669</ele><time>2026-04-06T12:24:37.621Z</time></trkpt><trkpt lat="45.790478" lon="11.7553409"><ele>155.33333333333334</ele><time>2026-04-06T12:24:38.618Z</time></trkpt><trkpt lat="45.7906281" lon="11.7554139"><ele>156.0</ele><time>2026-04-06T12:24:39.618Z</time></trkpt><trkpt lat="45.7907813" lon="11.7554921"><ele>156.0</ele><time>2026-04-06T12:24:40.618Z</time></trkpt><trkpt lat="45.7909371" lon="11.7555747"><ele>156.0</ele><time>2026-04-06T12:24:41.62Z</time></trkpt><trkpt lat="45.7910929" lon="11.7556568"><ele>156.0</ele><time>2026-04-06T12:24:42.636Z</time></trkpt><trkpt lat="45.791248" lon="11.7557366"><ele>156.0</ele><time>2026-04-06T12:24:43.618Z</time></trkpt><trkpt lat="45.7914042" lon="11.7558161"><ele>156.0</ele><time>2026-04-06T12:24:44.647Z</time></trkpt><trkpt lat="45.7915618" lon="11.7558979"><ele>156.0</ele><time>2026-04-06T12:24:45.628Z</time></trkpt><trkpt lat="45.7917211" lon="11.75598"><ele>157.0</ele><time>2026-04-06T12:24:46.617Z</time></trkpt><trkpt lat="45.7918819" lon="11.756064"><ele>158.0</ele><time>2026-04-06T12:24:47.608Z</time></trkpt><trkpt lat="45.7920449" lon="11.75615"><ele>159.0</ele><time>2026-04-06T12:24:48.624Z</time></trkpt><trkpt lat="45.7922087" lon="11.7562387"><ele>159.0</ele><time>2026-04-06T12:24:49.614Z</time></trkpt><trkpt lat="45.7923739" lon="11.7563273"><ele>159.0</ele><time>2026-04-06T12:24:50.627Z</time></trkpt><trkpt lat="45.7925378" lon="11.7564129"><ele>159.0</ele><time>2026-04-06T12:24:51.622Z</time></trkpt><trkpt lat="45.7926986" lon="11.7564984"><ele>159.33333333333334</ele><time>2026-04-06T12:24:52.624Z</time></trkpt><trkpt lat="45.7928578" lon="11.7565812"><ele>159.66666666666669</ele><time>2026-04-06T12:24:53.625Z</time></trkpt><trkpt lat="45.7930151" lon="11.7566635"><ele>160.0</ele><time>2026-04-06T12:24:54.627Z</time></trkpt><trkpt lat="45.7931706" lon="11.756745"><ele>160.0</ele><time>2026-04-06T12:24:55.617Z</time></trkpt><trkpt lat="45.7933242" lon="11.7568258"><ele>160.0</ele><time>2026-04-06T12:24:56.62Z</time></trkpt><trkpt lat="45.7934771" lon="11.7569041"><ele>160.0</ele><time>2026-04-06T12:24:57.619Z</time></trkpt><trkpt lat="45.7936309" lon="11.7569805"><ele>161.0</ele><time>2026-04-06T12:24:58.623Z</time></trkpt><trkpt lat="45.7937859" lon="11.757062"><ele>162.0</ele><time>2026-04-06T12:24:59.628Z</time></trkpt><trkpt lat="45.7939426" lon="11.7571322"><ele>163.0</ele><time>2026-04-06T12:25:00.624Z</time></trkpt><trkpt lat="45.7940929" lon="11.7572082"><ele>163.0</ele><time>2026-04-06T12:25:01.625Z</time></trkpt><trkpt lat="45.7942345" lon="11.7572892"><ele>163.0</ele><time>2026-04-06T12:25:02.616Z</time></trkpt><trkpt lat="45.7943784" lon="11.7573603"><ele>163.0</ele><time>2026-04-06T12:25:03.609Z</time></trkpt><trkpt lat="45.7945175" lon="11.7574374"><ele>163.5</ele><time>2026-04-06T12:25:04.622Z</time></trkpt><trkpt lat="45.794653" lon="11.757507"><ele>164.0</ele><time>2026-04-06T12:25:05.637Z</time></trkpt><trkpt lat="45.7947819" lon="11.7575755"><ele>164.5</ele><time>2026-04-06T12:25:06.619Z</time></trkpt><trkpt lat="45.7949095" lon="11.7576404"><ele>165.0</ele><time>2026-04-06T12:25:07.617Z</time></trkpt><trkpt lat="45.7950364" lon="11.7577034"><ele>165.5</ele><time>2026-04-06T12:25:08.609Z</time></trkpt><trkpt lat="45.7951596" lon="11.7577676"><ele>166.0</ele><time>2026-04-06T12:25:09.617Z</time></trkpt><trkpt lat="45.7952746" lon="11.7578255"><ele>166.5</ele><time>2026-04-06T12:25:10.62Z</time></trkpt><trkpt lat="45.7953794" lon="11.7578782"><ele>167.0</ele><time>2026-04-06T12:25:11.613Z</time></trkpt><trkpt lat="45.795482" lon="11.7579335"><ele>167.16666666666666</ele><time>2026-04-06T12:25:12.622Z</time></trkpt><trkpt lat="45.7955729" lon="11.7579842"><ele>167.33333333333331</ele><time>2026-04-06T12:25:13.617Z</time></trkpt><trkpt lat="45.7956537" lon="11.7580294"><ele>167.5</ele><time>2026-04-06T12:25:14.616Z</time></trkpt><trkpt lat="45.7957343" lon="11.7580684"><ele>167.66666666666666</ele><time>2026-04-06T12:25:15.612Z</time></trkpt><trkpt lat="45.795812" lon="11.7581093"><ele>167.83333333333334</ele><time>2026-04-06T12:25:16.618Z</time></trkpt><trkpt lat="45.7958816" lon="11.7581465"><ele>168.0</ele><time>2026-04-06T12:25:17.607Z</time></trkpt><trkpt lat="45.7959406" lon="11.7581811"><ele>168.2</ele><time>2026-04-06T12:25:18.62Z</time></trkpt><trkpt lat="45.7960291" lon="11.7582467"><ele>168.4</ele><time>2026-04-06T12:25:20.624Z</time></trkpt><trkpt lat="45.7960751" lon="11.7583111"><ele>168.6</ele><time>2026-04-06T12:25:22.623Z</time></trkpt><trkpt lat="45.7961208" lon="11.7584187"><ele>168.79999999999998</ele><time>2026-04-06T12:25:24.6Z</time></trkpt><trkpt lat="45.7961963" lon="11.758525"><ele>169.0</ele><time>2026-04-06T12:25:26.617Z</time></trkpt><trkpt lat="45.796286" lon="11.758466"><ele>169.0</ele><time>2026-04-06T12:25:28.617Z</time></trkpt><trkpt lat="45.7963046" lon="11.758375"><ele>169.0</ele><time>2026-04-06T12:25:29.617Z</time></trkpt><trkpt lat="45.796314" lon="11.7582604"><ele>169.0</ele><time>2026-04-06T12:25:30.616Z</time></trkpt><trkpt lat="45.7963355" lon="11.7581377"><ele>169.0</ele><time>2026-04-06T12:25:31.616Z</time></trkpt><trkpt lat="45.7963815" lon="11.7580277"><ele>169.0</ele><time>2026-04-06T12:25:32.617Z</time></trkpt><trkpt lat="45.7964495" lon="11.7579325"><ele>169.0</ele><time>2026-04-06T12:25:33.614Z</time></trkpt><trkpt lat="45.7965287" lon="11.7578412"><ele>169.0</ele><time>2026-04-06T12:25:34.624Z</time></trkpt><trkpt lat="45.7966093" lon="11.7577432"><ele>169.0</ele><time>2026-04-06T12:25:35.617Z</time></trkpt><trkpt lat="45.7966873" lon="11.7576432"><ele>169.0</ele><time>2026-04-06T12:25:36.613Z</time></trkpt><trkpt lat="45.7967562" lon="11.7575612"><ele>169.0</ele><time>2026-04-06T12:25:37.617Z</time></trkpt><trkpt lat="45.7968229" lon="11.7575112"><ele>169.0</ele><time>2026-04-06T12:25:38.615Z</time></trkpt><trkpt lat="45.7969035" lon="11.7574793"><ele>169.79999999999998</ele><time>2026-04-06T12:25:39.619Z</time></trkpt><trkpt lat="45.7969916" lon="11.7574496"><ele>170.6</ele><time>2026-04-06T12:25:40.602Z</time></trkpt><trkpt lat="45.7970863" lon="11.7574138"><ele>171.4</ele><time>2026-04-06T12:25:41.669Z</time></trkpt><trkpt lat="45.7971832" lon="11.7573685"><ele>172.2</ele><time>2026-04-06T12:25:42.631Z</time></trkpt><trkpt lat="45.7972806" lon="11.7573104"><ele>173.0</ele><time>2026-04-06T12:25:43.674Z</time></trkpt><trkpt lat="45.797375" lon="11.7572355"><ele>173.0</ele><time>2026-04-06T12:25:44.59Z</time></trkpt><trkpt lat="45.79747" lon="11.7571473"><ele>173.0</ele><time>2026-04-06T12:25:45.602Z</time></trkpt><trkpt lat="45.7975661" lon="11.7570571"><ele>173.0</ele><time>2026-04-06T12:25:46.595Z</time></trkpt><trkpt lat="45.7976625" lon="11.7569718"><ele>173.0</ele><time>2026-04-06T12:25:47.609Z</time></trkpt><trkpt lat="45.7978706" lon="11.756824"><ele>173.5</ele><time>2026-04-06T12:25:49.635Z</time></trkpt><trkpt lat="45.7979893" lon="11.7567796"><ele>174.0</ele><time>2026-04-06T12:25:50.67Z</time></trkpt><trkpt lat="45.7981238" lon="11.7567446"><ele>174.5</ele><time>2026-04-06T12:25:51.651Z</time></trkpt><trkpt lat="45.7982619" lon="11.7567142"><ele>175.0</ele><time>2026-04-06T12:25:52.599Z</time></trkpt><trkpt lat="45.7984017" lon="11.756679"><ele>176.0</ele><time>2026-04-06T12:25:53.601Z</time></trkpt><trkpt lat="45.798542" lon="11.756648"><ele>177.0</ele><time>2026-04-06T12:25:54.602Z</time></trkpt><trkpt lat="45.798686" lon="11.7566158"><ele>178.0</ele><time>2026-04-06T12:25:55.598Z</time></trkpt><trkpt lat="45.7988287" lon="11.7565876"><ele>179.0</ele><time>2026-04-06T12:25:56.601Z</time></trkpt><trkpt lat="45.7989719" lon="11.7565525"><ele>179.0</ele><time>2026-04-06T12:25:57.599Z</time></trkpt><trkpt lat="45.799105" lon="11.75651"><ele>179.0</ele><time>2026-04-06T12:25:58.598Z</time></trkpt><trkpt lat="45.7992329" lon="11.7564724"><ele>179.0</ele><time>2026-04-06T12:25:59.599Z</time></trkpt><trkpt lat="45.7993617" lon="11.7564526"><ele>179.0</ele><time>2026-04-06T12:26:00.6Z</time></trkpt><trkpt lat="45.799487" lon="11.756446"><ele>180.25</ele><time>2026-04-06T12:26:01.598Z</time></trkpt><trkpt lat="45.7996244" lon="11.7564651"><ele>181.5</ele><time>2026-04-06T12:26:02.602Z</time></trkpt><trkpt lat="45.7997626" lon="11.7564815"><ele>182.75</ele><time>2026-04-06T12:26:03.602Z</time></trkpt><trkpt lat="45.7999016" lon="11.7565103"><ele>184.0</ele><time>2026-04-06T12:26:04.598Z</time></trkpt><trkpt lat="45.8000206" lon="11.7565341"><ele>184.0</ele><time>2026-04-06T12:26:05.591Z</time></trkpt><trkpt lat="45.8001188" lon="11.7565587"><ele>184.0</ele><time>2026-04-06T12:26:06.592Z</time></trkpt><trkpt lat="45.8001905" lon="11.7565904"><ele>184.0</ele><time>2026-04-06T12:26:07.597Z</time></trkpt><trkpt lat="45.8002545" lon="11.7566346"><ele>184.0</ele><time>2026-04-06T12:26:08.604Z</time></trkpt><trkpt lat="45.8003037" lon="11.7566948"><ele>184.0</ele><time>2026-04-06T12:26:09.596Z</time></trkpt><trkpt lat="45.8003486" lon="11.7568071"><ele>184.0</ele><time>2026-04-06T12:26:10.658Z</time></trkpt><trkpt lat="45.8004131" lon="11.7569254"><ele>184.0</ele><time>2026-04-06T12:26:11.603Z</time></trkpt><trkpt lat="45.8004885" lon="11.7570554"><ele>184.0</ele><time>2026-04-06T12:26:12.605Z</time></trkpt><trkpt lat="45.8005926" lon="11.7571504"><ele>184.0</ele><time>2026-04-06T12:26:13.597Z</time></trkpt><trkpt lat="45.8007048" lon="11.757244"><ele>184.0</ele><time>2026-04-06T12:26:14.597Z</time></trkpt><trkpt lat="45.8008133" lon="11.7573471"><ele>184.0</ele><time>2026-04-06T12:26:15.594Z</time></trkpt><trkpt lat="45.8009232" lon="11.757454"><ele>184.0</ele><time>2026-04-06T12:26:16.594Z</time></trkpt><trkpt lat="45.801034" lon="11.7575669"><ele>184.0</ele><time>2026-04-06T12:26:17.594Z</time></trkpt><trkpt lat="45.8011412" lon="11.7576857"><ele>184.0</ele><time>2026-04-06T12:26:18.609Z</time></trkpt><trkpt lat="45.8012362" lon="11.757803"><ele>184.6</ele><time>2026-04-06T12:26:19.6Z</time></trkpt><trkpt lat="45.8013238" lon="11.7579047"><ele>185.2</ele><time>2026-04-06T12:26:20.596Z</time></trkpt><trkpt lat="45.8014173" lon="11.7579696"><ele>185.79999999999998</ele><time>2026-04-06T12:26:21.596Z</time></trkpt><trkpt lat="45.8015213" lon="11.7579855"><ele>186.39999999999998</ele><time>2026-04-06T12:26:22.595Z</time></trkpt><trkpt lat="45.8016296" lon="11.757961"><ele>187.0</ele><time>2026-04-06T12:26:23.591Z</time></trkpt><trkpt lat="45.8017291" lon="11.7579191"><ele>187.0</ele><time>2026-04-06T12:26:24.597Z</time></trkpt><trkpt lat="45.8018274" lon="11.757877"><ele>187.0</ele><time>2026-04-06T12:26:25.591Z</time></trkpt><trkpt lat="45.8019199" lon="11.7578757"><ele>187.0</ele><time>2026-04-06T12:26:26.595Z</time></trkpt><trkpt lat="45.8020253" lon="11.7579151"><ele>187.0</ele><time>2026-04-06T12:26:27.589Z</time></trkpt><trkpt lat="45.8021618" lon="11.7579613"><ele>187.0</ele><time>2026-04-06T12:26:28.594Z</time></trkpt><trkpt lat="45.8023224" lon="11.7579634"><ele>187.5</ele><time>2026-04-06T12:26:29.591Z</time></trkpt><trkpt lat="45.8024556" lon="11.7578834"><ele>188.0</ele><time>2026-04-06T12:26:30.594Z</time></trkpt><trkpt lat="45.8025868" lon="11.7577951"><ele>188.5</ele><time>2026-04-06T12:26:31.61Z</time></trkpt><trkpt lat="45.8027226" lon="11.7577006"><ele>189.0</ele><time>2026-04-06T12:26:32.6Z</time></trkpt><trkpt lat="45.8028635" lon="11.7576013"><ele>190.33333333333331</ele><time>2026-04-06T12:26:33.594Z</time></trkpt><trkpt lat="45.8030079" lon="11.7575024"><ele>191.66666666666666</ele><time>2026-04-06T12:26:34.594Z</time></trkpt><trkpt lat="45.8031554" lon="11.7574029"><ele>193.0</ele><time>2026-04-06T12:26:35.595Z</time></trkpt><trkpt lat="45.8033017" lon="11.7573005"><ele>193.0</ele><time>2026-04-06T12:26:36.601Z</time></trkpt><trkpt lat="45.8034551" lon="11.7571996"><ele>193.0</ele><time>2026-04-06T12:26:37.594Z</time></trkpt><trkpt lat="45.8036127" lon="11.7571004"><ele>193.0</ele><time>2026-04-06T12:26:38.592Z</time></trkpt><trkpt lat="45.8037724" lon="11.7570024"><ele>193.33333333333331</ele><time>2026-04-06T12:26:39.619Z</time></trkpt><trkpt lat="45.8039329" lon="11.7569063"><ele>193.66666666666669</ele><time>2026-04-06T12:26:40.592Z</time></trkpt><trkpt lat="45.8040829" lon="11.7568076"><ele>194.0</ele><time>2026-04-06T12:26:41.598Z</time></trkpt><trkpt lat="45.8042175" lon="11.7566924"><ele>199.0</ele><time>2026-04-06T12:26:42.598Z</time></trkpt><trkpt lat="45.8043399" lon="11.7565484"><ele>204.0</ele><time>2026-04-06T12:26:43.592Z</time></trkpt><trkpt lat="45.8044568" lon="11.7564089"><ele>209.0</ele><time>2026-04-06T12:26:44.598Z</time></trkpt><trkpt lat="45.8045949" lon="11.756326"><ele>209.0</ele><time>2026-04-06T12:26:45.601Z</time></trkpt><trkpt lat="45.8047487" lon="11.7563054"><ele>209.0</ele><time>2026-04-06T12:26:46.597Z</time></trkpt><trkpt lat="45.8049123" lon="11.7563423"><ele>209.0</ele><time>2026-04-06T12:26:47.593Z</time></trkpt><trkpt lat="45.8050845" lon="11.7563921"><ele>214.0</ele><time>2026-04-06T12:26:48.591Z</time></trkpt><trkpt lat="45.8052771" lon="11.7564699"><ele>219.0</ele><time>2026-04-06T12:26:49.595Z</time></trkpt><trkpt lat="45.8054795" lon="11.7565553"><ele>224.0</ele><time>2026-04-06T12:26:50.6Z</time></trkpt><trkpt lat="45.8056976" lon="11.7566249"><ele>224.0</ele><time>2026-04-06T12:26:51.595Z</time></trkpt><trkpt lat="45.8059214" lon="11.7566699"><ele>224.0</ele><time>2026-04-06T12:26:52.596Z</time></trkpt><trkpt lat="45.8061468" lon="11.7567169"><ele>228.66666666666669</ele><time>2026-04-06T12:26:53.594Z</time></trkpt><trkpt lat="45.8063671" lon="11.7567413"><ele>233.33333333333331</ele><time>2026-04-06T12:26:54.592Z</time></trkpt><trkpt lat="45.8065691" lon="11.7567651"><ele>238.0</ele><time>2026-04-06T12:26:55.596Z</time></trkpt><trkpt lat="45.8067624" lon="11.7567776"><ele>239.66666666666666</ele><time>2026-04-06T12:26:56.599Z</time></trkpt><trkpt lat="45.8069354" lon="11.75679"><ele>241.33333333333331</ele><time>2026-04-06T12:26:57.593Z</time></trkpt><trkpt lat="45.8070852" lon="11.7567921"><ele>243.0</ele><time>2026-04-06T12:26:58.592Z</time></trkpt><trkpt lat="45.8072235" lon="11.7567974"><ele>243.0</ele><time>2026-04-06T12:26:59.594Z</time></trkpt><trkpt lat="45.8073468" lon="11.756796"><ele>243.0</ele><time>2026-04-06T12:27:00.591Z</time></trkpt><trkpt lat="45.8074525" lon="11.7568054"><ele>243.0</ele><time>2026-04-06T12:27:01.597Z</time></trkpt><trkpt lat="45.8075401" lon="11.7568364"><ele>243.0</ele><time>2026-04-06T12:27:02.595Z</time></trkpt><trkpt lat="45.8076065" lon="11.7568807"><ele>243.0</ele><time>2026-04-06T12:27:03.59Z</time></trkpt><trkpt lat="45.8076688" lon="11.7569025"><ele>243.0</ele><time>2026-04-06T12:27:04.59Z</time></trkpt><trkpt lat="45.8077698" lon="11.7568472"><ele>243.0</ele><time>2026-04-06T12:27:06.606Z</time></trkpt><trkpt lat="45.8077791" lon="11.7567153"><ele>243.0</ele><time>2026-04-06T12:27:08.6Z</time></trkpt><trkpt lat="45.8076805" lon="11.756614"><ele>243.0</ele><time>2026-04-06T12:27:10.603Z</time></trkpt><trkpt lat="45.8076037" lon="11.7565888"><ele>243.0</ele><time>2026-04-06T12:27:11.593Z</time></trkpt><trkpt lat="45.8075221" lon="11.7565736"><ele>243.0</ele><time>2026-04-06T12:27:12.598Z</time></trkpt><trkpt lat="45.8074409" lon="11.7565578"><ele>243.0</ele><time>2026-04-06T12:27:13.6Z</time></trkpt><trkpt lat="45.8073585" lon="11.7565428"><ele>243.0</ele><time>2026-04-06T12:27:14.597Z</time></trkpt><trkpt lat="45.8072718" lon="11.7565265"><ele>243.0</ele><time>2026-04-06T12:27:15.588Z</time></trkpt><trkpt lat="45.8071797" lon="11.7565057"><ele>243.0</ele><time>2026-04-06T12:27:16.595Z</time></trkpt><trkpt lat="45.8070766" lon="11.7564703"><ele>243.0</ele><time>2026-04-06T12:27:17.593Z</time></trkpt><trkpt lat="45.8069693" lon="11.7564429"><ele>243.0</ele><time>2026-04-06T12:27:18.599Z</time></trkpt><trkpt lat="45.8068571" lon="11.7564041"><ele>243.0</ele><time>2026-04-06T12:27:19.589Z</time></trkpt><trkpt lat="45.8067407" lon="11.7563602"><ele>243.0</ele><time>2026-04-06T12:27:20.6Z</time></trkpt><trkpt lat="45.8066199" lon="11.7563159"><ele>241.75</ele><time>2026-04-06T12:27:21.593Z</time></trkpt><trkpt lat="45.8064945" lon="11.756249"><ele>240.5</ele><time>2026-04-06T12:27:22.596Z</time></trkpt><trkpt lat="45.8063671" lon="11.7561814"><ele>239.25</ele><time>2026-04-06T12:27:23.589Z</time></trkpt><trkpt lat="45.806243" lon="11.7560994"><ele>238.0</ele><time>2026-04-06T12:27:24.591Z</time></trkpt><trkpt lat="45.8061199" lon="11.756017"><ele>244.5</ele><time>2026-04-06T12:27:25.591Z</time></trkpt><trkpt lat="45.8060066" lon="11.7559489"><ele>251.0</ele><time>2026-04-06T12:27:26.599Z</time></trkpt><trkpt lat="45.8058945" lon="11.7558784"><ele>257.5</ele><time>2026-04-06T12:27:27.59Z</time></trkpt><trkpt lat="45.8057748" lon="11.7558016"><ele>264.0</ele><time>2026-04-06T12:27:28.588Z</time></trkpt><trkpt lat="45.8056644" lon="11.755712"><ele>264.0</ele><time>2026-04-06T12:27:29.597Z</time></trkpt><trkpt lat="45.8055562" lon="11.7556188"><ele>264.0</ele><time>2026-04-06T12:27:30.596Z</time></trkpt><trkpt lat="45.8054462" lon="11.7555162"><ele>264.0</ele><time>2026-04-06T12:27:31.601Z</time></trkpt><trkpt lat="45.8053381" lon="11.7554183"><ele>264.0</ele><time>2026-04-06T12:27:32.6Z</time></trkpt><trkpt lat="45.8052353" lon="11.7553018"><ele>266.75</ele><time>2026-04-06T12:27:33.592Z</time></trkpt><trkpt lat="45.80514" lon="11.7551533"><ele>269.5</ele><time>2026-04-06T12:27:34.594Z</time></trkpt><trkpt lat="45.8050469" lon="11.7550242"><ele>272.25</ele><time>2026-04-06T12:27:35.596Z</time></trkpt><trkpt lat="45.8049636" lon="11.7548975"><ele>275.0</ele><time>2026-04-06T12:27:36.596Z</time></trkpt><trkpt lat="45.8048699" lon="11.7547826"><ele>275.0</ele><time>2026-04-06T12:27:37.594Z</time></trkpt><trkpt lat="45.8047734" lon="11.7546579"><ele>275.0</ele><time>2026-04-06T12:27:38.594Z</time></trkpt><trkpt lat="45.8046733" lon="11.754525"><ele>275.0</ele><time>2026-04-06T12:27:39.594Z</time></trkpt><trkpt lat="45.8045697" lon="11.7543967"><ele>275.0</ele><time>2026-04-06T12:27:40.596Z</time></trkpt><trkpt lat="45.80447" lon="11.7542687"><ele>274.0</ele><time>2026-04-06T12:27:41.594Z</time></trkpt><trkpt lat="45.8043765" lon="11.754133"><ele>273.0</ele><time>2026-04-06T12:27:42.593Z</time></trkpt><trkpt lat="45.8042905" lon="11.7539884"><ele>272.0</ele><time>2026-04-06T12:27:43.593Z</time></trkpt><trkpt lat="45.8042037" lon="11.7538406"><ele>271.0</ele><time>2026-04-06T12:27:44.591Z</time></trkpt><trkpt lat="45.8041177" lon="11.7536888"><ele>271.0</ele><time>2026-04-06T12:27:45.588Z</time></trkpt><trkpt lat="45.8040307" lon="11.7535418"><ele>271.0</ele><time>2026-04-06T12:27:46.59Z</time></trkpt><trkpt lat="45.8039435" lon="11.7533951"><ele>271.0</ele><time>2026-04-06T12:27:47.593Z</time></trkpt><trkpt lat="45.803857" lon="11.7532455"><ele>271.0</ele><time>2026-04-06T12:27:48.603Z</time></trkpt><trkpt lat="45.8037716" lon="11.7530963"><ele>274.75</ele><time>2026-04-06T12:27:49.592Z</time></trkpt><trkpt lat="45.8036846" lon="11.7529471"><ele>278.5</ele><time>2026-04-06T12:27:50.595Z</time></trkpt><trkpt lat="45.8035964" lon="11.7528009"><ele>282.25</ele><time>2026-04-06T12:27:51.592Z</time></trkpt><trkpt lat="45.8035084" lon="11.7526471"><ele>286.0</ele><time>2026-04-06T12:27:52.596Z</time></trkpt><trkpt lat="45.8034249" lon="11.7524876"><ele>286.0</ele><time>2026-04-06T12:27:53.594Z</time></trkpt><trkpt lat="45.8033553" lon="11.7523167"><ele>286.0</ele><time>2026-04-06T12:27:54.602Z</time></trkpt><trkpt lat="45.8032954" lon="11.7521392"><ele>286.0</ele><time>2026-04-06T12:27:55.594Z</time></trkpt><trkpt lat="45.8032357" lon="11.7519615"><ele>286.0</ele><time>2026-04-06T12:27:56.606Z</time></trkpt><trkpt lat="45.8031756" lon="11.7517868"><ele>295.0</ele><time>2026-04-06T12:27:57.59Z</time></trkpt><trkpt lat="45.8031167" lon="11.7516144"><ele>304.0</ele><time>2026-04-06T12:27:58.592Z</time></trkpt><trkpt lat="45.8030571" lon="11.7514408"><ele>313.0</ele><time>2026-04-06T12:27:59.63Z</time></trkpt><trkpt lat="45.8029971" lon="11.7512653"><ele>322.0</ele><time>2026-04-06T12:28:00.594Z</time></trkpt><trkpt lat="45.8029389" lon="11.7510945"><ele>327.25</ele><time>2026-04-06T12:28:01.592Z</time></trkpt><trkpt lat="45.8028774" lon="11.7509197"><ele>332.5</ele><time>2026-04-06T12:28:02.594Z</time></trkpt><trkpt lat="45.8028213" lon="11.7507373"><ele>337.75</ele><time>2026-04-06T12:28:03.599Z</time></trkpt><trkpt lat="45.8027644" lon="11.7505539"><ele>343.0</ele><time>2026-04-06T12:28:04.59Z</time></trkpt><trkpt lat="45.8027132" lon="11.7503787"><ele>337.0</ele><time>2026-04-06T12:28:05.591Z</time></trkpt><trkpt lat="45.802661" lon="11.7502134"><ele>331.0</ele><time>2026-04-06T12:28:06.601Z</time></trkpt><trkpt lat="45.8026085" lon="11.7500548"><ele>325.0</ele><time>2026-04-06T12:28:07.598Z</time></trkpt><trkpt lat="45.8025647" lon="11.7499039"><ele>319.0</ele><time>2026-04-06T12:28:08.597Z</time></trkpt><trkpt lat="45.8025121" lon="11.7497593"><ele>319.0</ele><time>2026-04-06T12:28:09.588Z</time></trkpt><trkpt lat="45.8024191" lon="11.7496607"><ele>319.0</ele><time>2026-04-06T12:28:10.589Z</time></trkpt><trkpt lat="45.8022936" lon="11.7495846"><ele>319.0</ele><time>2026-04-06T12:28:11.598Z</time></trkpt><trkpt lat="45.8021767" lon="11.7495089"><ele>319.0</ele><time>2026-04-06T12:28:12.597Z</time></trkpt><trkpt lat="45.802058" lon="11.7494422"><ele>319.0</ele><time>2026-04-06T12:28:13.597Z</time></trkpt><trkpt lat="45.8019398" lon="11.7493788"><ele>319.0</ele><time>2026-04-06T12:28:14.595Z</time></trkpt><trkpt lat="45.8018379" lon="11.7493124"><ele>319.0</ele><time>2026-04-06T12:28:15.596Z</time></trkpt><trkpt lat="45.8017388" lon="11.7492174"><ele>319.0</ele><time>2026-04-06T12:28:16.597Z</time></trkpt><trkpt lat="45.8016479" lon="11.749105"><ele>320.75</ele><time>2026-04-06T12:28:17.597Z</time></trkpt><trkpt lat="45.8015507" lon="11.7489864"><ele>322.5</ele><time>2026-04-06T12:28:18.596Z</time></trkpt><trkpt lat="45.8014646" lon="11.7488426"><ele>324.25</ele><time>2026-04-06T12:28:19.593Z</time></trkpt><trkpt lat="45.8013892" lon="11.7486921"><ele>326.0</ele><time>2026-04-06T12:28:20.594Z</time></trkpt><trkpt lat="45.8013098" lon="11.7485418"><ele>325.25</ele><time>2026-04-06T12:28:21.594Z</time></trkpt><trkpt lat="45.8012291" lon="11.7483882"><ele>324.5</ele><time>2026-04-06T12:28:22.587Z</time></trkpt><trkpt lat="45.8011442" lon="11.7482454"><ele>323.75</ele><time>2026-04-06T12:28:23.592Z</time></trkpt><trkpt lat="45.8010597" lon="11.7480984"><ele>323.0</ele><time>2026-04-06T12:28:24.599Z</time></trkpt><trkpt lat="45.8009889" lon="11.7479523"><ele>323.0</ele><time>2026-04-06T12:28:25.589Z</time></trkpt><trkpt lat="45.8009213" lon="11.747807"><ele>323.0</ele><time>2026-04-06T12:28:26.589Z</time></trkpt><trkpt lat="45.8008628" lon="11.7476788"><ele>323.0</ele><time>2026-04-06T12:28:27.592Z</time></trkpt><trkpt lat="45.8008114" lon="11.7475742"><ele>323.0</ele><time>2026-04-06T12:28:28.589Z</time></trkpt><trkpt lat="45.8007578" lon="11.747487"><ele>323.0</ele><time>2026-04-06T12:28:29.589Z</time></trkpt><trkpt lat="45.8007099" lon="11.7474038"><ele>328.0</ele><time>2026-04-06T12:28:30.591Z</time></trkpt><trkpt lat="45.8006329" lon="11.7472669"><ele>333.0</ele><time>2026-04-06T12:28:32.586Z</time></trkpt><trkpt lat="45.8005839" lon="11.7471997"><ele>338.0</ele><time>2026-04-06T12:28:33.59Z</time></trkpt><trkpt lat="45.8005472" lon="11.747072"><ele>343.0</ele><time>2026-04-06T12:28:35.594Z</time></trkpt><trkpt lat="45.8006022" lon="11.7469693"><ele>348.0</ele><time>2026-04-06T12:28:37.59Z</time></trkpt><trkpt lat="45.8006895" lon="11.7469812"><ele>348.0</ele><time>2026-04-06T12:28:39.605Z</time></trkpt><trkpt lat="45.8007349" lon="11.7470517"><ele>348.0</ele><time>2026-04-06T12:28:40.592Z</time></trkpt><trkpt lat="45.800774" lon="11.747167"><ele>348.0</ele><time>2026-04-06T12:28:41.59Z</time></trkpt><trkpt lat="45.8008238" lon="11.7472992"><ele>348.0</ele><time>2026-04-06T12:28:42.592Z</time></trkpt><trkpt lat="45.8009075" lon="11.7474112"><ele>348.0</ele><time>2026-04-06T12:28:43.586Z</time></trkpt><trkpt lat="45.8010251" lon="11.7475393"><ele>353.3333333333333</ele><time>2026-04-06T12:28:44.598Z</time></trkpt><trkpt lat="45.8011458" lon="11.7476824"><ele>358.66666666666663</ele><time>2026-04-06T12:28:45.59Z</time></trkpt><trkpt lat="45.8012808" lon="11.7478358"><ele>364.0</ele><time>2026-04-06T12:28:46.592Z</time></trkpt><trkpt lat="45.8014043" lon="11.748025"><ele>364.0</ele><time>2026-04-06T12:28:47.591Z</time></trkpt><trkpt lat="45.8015453" lon="11.7481836"><ele>364.0</ele><time>2026-04-06T12:28:48.588Z</time></trkpt><trkpt lat="45.8016847" lon="11.7483608"><ele>364.0</ele><time>2026-04-06T12:28:49.59Z</time></trkpt><trkpt lat="45.8018202" lon="11.7485159"><ele>361.0</ele><time>2026-04-06T12:28:50.596Z</time></trkpt><trkpt lat="45.8019635" lon="11.7486495"><ele>358.0</ele><time>2026-04-06T12:28:51.59Z</time></trkpt><trkpt lat="45.8021265" lon="11.7487515"><ele>355.0</ele><time>2026-04-06T12:28:52.594Z</time></trkpt><trkpt lat="45.8022967" lon="11.7488132"><ele>355.0</ele><time>2026-04-06T12:28:53.591Z</time></trkpt><trkpt lat="45.8024785" lon="11.7488039"><ele>355.0</ele><time>2026-04-06T12:28:54.594Z</time></trkpt><trkpt lat="45.8026482" lon="11.7488185"><ele>355.0</ele><time>2026-04-06T12:28:55.588Z</time></trkpt><trkpt lat="45.802791" lon="11.7488246"><ele>364.0</ele><time>2026-04-06T12:28:56.584Z</time></trkpt><trkpt lat="45.8029125" lon="11.7488334"><ele>373.0</ele><time>2026-04-06T12:28:57.586Z</time></trkpt><trkpt lat="45.8030203" lon="11.7488763"><ele>382.0</ele><time>2026-04-06T12:28:58.591Z</time></trkpt><trkpt lat="45.8031204" lon="11.7489902"><ele>391.0</ele><time>2026-04-06T12:28:59.594Z</time></trkpt><trkpt lat="45.8032371" lon="11.7491336"><ele>391.0</ele><time>2026-04-06T12:29:00.594Z</time></trkpt><trkpt lat="45.803356" lon="11.749328"><ele>391.0</ele><time>2026-04-06T12:29:01.592Z</time></trkpt><trkpt lat="45.8034751" lon="11.7495047"><ele>391.0</ele><time>2026-04-06T12:29:02.596Z</time></trkpt><trkpt lat="45.803598" lon="11.7497157"><ele>393.0</ele><time>2026-04-06T12:29:03.592Z</time></trkpt><trkpt lat="45.8037041" lon="11.7499411"><ele>395.0</ele><time>2026-04-06T12:29:04.596Z</time></trkpt><trkpt lat="45.8038105" lon="11.7501719"><ele>397.0</ele><time>2026-04-06T12:29:05.595Z</time></trkpt><trkpt lat="45.8039218" lon="11.7503951"><ele>397.0</ele><time>2026-04-06T12:29:06.599Z</time></trkpt><trkpt lat="45.8040261" lon="11.7506125"><ele>397.0</ele><time>2026-04-06T12:29:07.592Z</time></trkpt><trkpt lat="45.8041182" lon="11.7508153"><ele>397.0</ele><time>2026-04-06T12:29:08.597Z</time></trkpt><trkpt lat="45.8041939" lon="11.7510032"><ele>401.5</ele><time>2026-04-06T12:29:09.591Z</time></trkpt><trkpt lat="45.804262" lon="11.7511832"><ele>406.0</ele><time>2026-04-06T12:29:10.602Z</time></trkpt><trkpt lat="45.8043435" lon="11.751347"><ele>410.5</ele><time>2026-04-06T12:29:11.59Z</time></trkpt><trkpt lat="45.8044529" lon="11.7514987"><ele>415.0</ele><time>2026-04-06T12:29:12.594Z</time></trkpt><trkpt lat="45.8045888" lon="11.7516393"><ele>415.0</ele><time>2026-04-06T12:29:13.594Z</time></trkpt><trkpt lat="45.8047415" lon="11.7517779"><ele>415.0</ele><time>2026-04-06T12:29:14.596Z</time></trkpt><trkpt lat="45.8049111" lon="11.7519139"><ele>415.0</ele><time>2026-04-06T12:29:15.587Z</time></trkpt><trkpt lat="45.8050867" lon="11.7520524"><ele>416.6666666666667</ele><time>2026-04-06T12:29:16.587Z</time></trkpt><trkpt lat="45.8052615" lon="11.7522054"><ele>418.33333333333337</ele><time>2026-04-06T12:29:17.596Z</time></trkpt><trkpt lat="45.8054496" lon="11.7523516"><ele>420.0</ele><time>2026-04-06T12:29:18.591Z</time></trkpt><trkpt lat="45.8056233" lon="11.7525055"><ele>420.0</ele><time>2026-04-06T12:29:19.594Z</time></trkpt><trkpt lat="45.8057983" lon="11.752642"><ele>420.0</ele><time>2026-04-06T12:29:20.598Z</time></trkpt><trkpt lat="45.8059708" lon="11.7527821"><ele>420.0</ele><time>2026-04-06T12:29:21.592Z</time></trkpt><trkpt lat="45.8061426" lon="11.7529304"><ele>416.66666666666663</ele><time>2026-04-06T12:29:22.591Z</time></trkpt><trkpt lat="45.8062986" lon="11.7530687"><ele>413.3333333333333</ele><time>2026-04-06T12:29:23.591Z</time></trkpt><trkpt lat="45.806458" lon="11.7531859"><ele>410.0</ele><time>2026-04-06T12:29:24.594Z</time></trkpt><trkpt lat="45.8066181" lon="11.7533013"><ele>410.0</ele><time>2026-04-06T12:29:25.586Z</time></trkpt><trkpt lat="45.8067798" lon="11.7533743"><ele>410.0</ele><time>2026-04-06T12:29:26.591Z</time></trkpt><trkpt lat="45.8069339" lon="11.7533943"><ele>410.0</ele><time>2026-04-06T12:29:27.594Z</time></trkpt><trkpt lat="45.8070888" lon="11.7534091"><ele>416.66666666666663</ele><time>2026-04-06T12:29:28.597Z</time></trkpt><trkpt lat="45.8072347" lon="11.7533859"><ele>423.33333333333337</ele><time>2026-04-06T12:29:29.591Z</time></trkpt><trkpt lat="45.8073862" lon="11.7532807"><ele>430.0</ele><time>2026-04-06T12:29:30.593Z</time></trkpt><trkpt lat="45.8075398" lon="11.753209"><ele>427.0</ele><time>2026-04-06T12:29:31.588Z</time></trkpt><trkpt lat="45.8077116" lon="11.7532086"><ele>424.0</ele><time>2026-04-06T12:29:32.592Z</time></trkpt><trkpt lat="45.8078839" lon="11.7531815"><ele>421.0</ele><time>2026-04-06T12:29:33.587Z</time></trkpt><trkpt lat="45.8080566" lon="11.7531381"><ele>421.0</ele><time>2026-04-06T12:29:34.592Z</time></trkpt><trkpt lat="45.8082346" lon="11.7530858"><ele>421.0</ele><time>2026-04-06T12:29:35.59Z</time></trkpt><trkpt lat="45.808409" lon="11.7530335"><ele>421.0</ele><time>2026-04-06T12:29:36.59Z</time></trkpt><trkpt lat="45.8085841" lon="11.7529767"><ele>419.0</ele><time>2026-04-06T12:29:37.591Z</time></trkpt><trkpt lat="45.8087555" lon="11.7528897"><ele>417.0</ele><time>2026-04-06T12:29:38.586Z</time></trkpt><trkpt lat="45.8089365" lon="11.7528114"><ele>415.0</ele><time>2026-04-06T12:29:39.594Z</time></trkpt><trkpt lat="45.8091021" lon="11.7527377"><ele>420.75</ele><time>2026-04-06T12:29:40.594Z</time></trkpt><trkpt lat="45.8092588" lon="11.7526874"><ele>426.5</ele><time>2026-04-06T12:29:41.595Z</time></trkpt><trkpt lat="45.8093998" lon="11.7526364"><ele>432.25</ele><time>2026-04-06T12:29:42.589Z</time></trkpt><trkpt lat="45.8095319" lon="11.7525711"><ele>438.0</ele><time>2026-04-06T12:29:43.595Z</time></trkpt><trkpt lat="45.8096569" lon="11.7524626"><ele>438.0</ele><time>2026-04-06T12:29:44.593Z</time></trkpt><trkpt lat="45.8097672" lon="11.7523302"><ele>438.0</ele><time>2026-04-06T12:29:45.597Z</time></trkpt><trkpt lat="45.8098654" lon="11.7521968"><ele>438.0</ele><time>2026-04-06T12:29:46.592Z</time></trkpt><trkpt lat="45.8099565" lon="11.7520657"><ele>438.0</ele><time>2026-04-06T12:29:47.592Z</time></trkpt><trkpt lat="45.8100432" lon="11.7519625"><ele>438.0</ele><time>2026-04-06T12:29:48.592Z</time></trkpt><trkpt lat="45.810122" lon="11.7518802"><ele>438.0</ele><time>2026-04-06T12:29:49.589Z</time></trkpt><trkpt lat="45.8102384" lon="11.7518369"><ele>438.0</ele><time>2026-04-06T12:29:50.597Z</time></trkpt><trkpt lat="45.8103761" lon="11.7518769"><ele>438.0</ele><time>2026-04-06T12:29:51.59Z</time></trkpt><trkpt lat="45.8104793" lon="11.7519178"><ele>441.4</ele><time>2026-04-06T12:29:52.589Z</time></trkpt><trkpt lat="45.8105842" lon="11.7519159"><ele>444.79999999999995</ele><time>2026-04-06T12:29:53.593Z</time></trkpt><trkpt lat="45.8106527" lon="11.7519022"><ele>448.2</ele><time>2026-04-06T12:29:54.588Z</time></trkpt><trkpt lat="45.8107105" lon="11.7517605"><ele>451.6</ele><time>2026-04-06T12:29:56.596Z</time></trkpt><trkpt lat="45.8106233" lon="11.7516885"><ele>455.0</ele><time>2026-04-06T12:29:58.588Z</time></trkpt><trkpt lat="45.8105549" lon="11.7516743"><ele>454.99999999999994</ele><time>2026-04-06T12:29:59.594Z</time></trkpt><trkpt lat="45.8104797" lon="11.7517303"><ele>455.0</ele><time>2026-04-06T12:30:00.587Z</time></trkpt><trkpt lat="45.810396" lon="11.751758"><ele>455.0</ele><time>2026-04-06T12:30:01.588Z</time></trkpt><trkpt lat="45.8103213" lon="11.7517879"><ele>455.0</ele><time>2026-04-06T12:30:02.601Z</time></trkpt><trkpt lat="45.8102437" lon="11.7518184"><ele>454.99999999999994</ele><time>2026-04-06T12:30:03.594Z</time></trkpt><trkpt lat="45.8101606" lon="11.75185"><ele>455.0</ele><time>2026-04-06T12:30:04.593Z</time></trkpt><trkpt lat="45.8100598" lon="11.7518662"><ele>451.6</ele><time>2026-04-06T12:30:05.598Z</time></trkpt><trkpt lat="45.8099613" lon="11.7518678"><ele>448.2</ele><time>2026-04-06T12:30:06.597Z</time></trkpt><trkpt lat="45.8098608" lon="11.7518744"><ele>444.79999999999995</ele><time>2026-04-06T12:30:07.599Z</time></trkpt><trkpt lat="45.8097786" lon="11.7519043"><ele>441.4</ele><time>2026-04-06T12:30:08.595Z</time></trkpt><trkpt lat="45.809706" lon="11.7519642"><ele>438.0</ele><time>2026-04-06T12:30:09.586Z</time></trkpt><trkpt lat="45.8096263" lon="11.752029"><ele>438.0</ele><time>2026-04-06T12:30:10.598Z</time></trkpt><trkpt lat="45.8095388" lon="11.7521092"><ele>438.0</ele><time>2026-04-06T12:30:11.596Z</time></trkpt><trkpt lat="45.8094247" lon="11.7521873"><ele>438.0</ele><time>2026-04-06T12:30:12.599Z</time></trkpt><trkpt lat="45.8093137" lon="11.7522135"><ele>438.0</ele><time>2026-04-06T12:30:13.598Z</time></trkpt><trkpt lat="45.8092066" lon="11.7522396"><ele>441.79999999999995</ele><time>2026-04-06T12:30:14.593Z</time></trkpt><trkpt lat="45.8091015" lon="11.7522582"><ele>445.59999999999997</ele><time>2026-04-06T12:30:15.591Z</time></trkpt><trkpt lat="45.8089916" lon="11.7522699"><ele>449.40000000000003</ele><time>2026-04-06T12:30:16.593Z</time></trkpt><trkpt lat="45.8088803" lon="11.7523036"><ele>453.20000000000005</ele><time>2026-04-06T12:30:17.594Z</time></trkpt><trkpt lat="45.8087668" lon="11.7523213"><ele>457.0</ele><time>2026-04-06T12:30:18.597Z</time></trkpt><trkpt lat="45.8086504" lon="11.7523429"><ele>457.0</ele><time>2026-04-06T12:30:19.593Z</time></trkpt><trkpt lat="45.808527" lon="11.7523332"><ele>457.0</ele><time>2026-04-06T12:30:20.593Z</time></trkpt><trkpt lat="45.8084191" lon="11.7523536"><ele>457.0</ele><time>2026-04-06T12:30:21.59Z</time></trkpt><trkpt lat="45.8083053" lon="11.7523634"><ele>457.0</ele><time>2026-04-06T12:30:22.598Z</time></trkpt><trkpt lat="45.8081818" lon="11.7523562"><ele>459.75</ele><time>2026-04-06T12:30:23.593Z</time></trkpt><trkpt lat="45.8080552" lon="11.7523483"><ele>462.5</ele><time>2026-04-06T12:30:24.598Z</time></trkpt><trkpt lat="45.8079359" lon="11.7523224"><ele>465.25</ele><time>2026-04-06T12:30:25.596Z</time></trkpt><trkpt lat="45.8078144" lon="11.7523028"><ele>468.0</ele><time>2026-04-06T12:30:26.593Z</time></trkpt><trkpt lat="45.8076901" lon="11.7522922"><ele>467.8333333333333</ele><time>2026-04-06T12:30:27.591Z</time></trkpt><trkpt lat="45.8075935" lon="11.7522798"><ele>467.66666666666663</ele><time>2026-04-06T12:30:28.605Z</time></trkpt><trkpt lat="45.8075237" lon="11.7522715"><ele>467.5</ele><time>2026-04-06T12:30:29.59Z</time></trkpt><trkpt lat="45.807452" lon="11.7522685"><ele>467.3333333333333</ele><time>2026-04-06T12:30:30.595Z</time></trkpt><trkpt lat="45.8073784" lon="11.752261"><ele>467.16666666666663</ele><time>2026-04-06T12:30:31.593Z</time></trkpt><trkpt lat="45.8073055" lon="11.7522503"><ele>467.0</ele><time>2026-04-06T12:30:32.594Z</time></trkpt><trkpt lat="45.8072274" lon="11.7522303"><ele>466.99999999999994</ele><time>2026-04-06T12:30:33.59Z</time></trkpt><trkpt lat="45.8071507" lon="11.7521903"><ele>467.0</ele><time>2026-04-06T12:30:34.596Z</time></trkpt><trkpt lat="45.8070749" lon="11.7521334"><ele>467.0</ele><time>2026-04-06T12:30:35.592Z</time></trkpt><trkpt lat="45.8070014" lon="11.7520645"><ele>467.0</ele><time>2026-04-06T12:30:36.605Z</time></trkpt><trkpt lat="45.8069256" lon="11.7519994"><ele>466.99999999999994</ele><time>2026-04-06T12:30:37.597Z</time></trkpt><trkpt lat="45.8068503" lon="11.7519205"><ele>467.0</ele><time>2026-04-06T12:30:38.598Z</time></trkpt><trkpt lat="45.8067741" lon="11.7518598"><ele>472.40000000000003</ele><time>2026-04-06T12:30:39.597Z</time></trkpt><trkpt lat="45.8067023" lon="11.751781"><ele>477.80000000000007</ele><time>2026-04-06T12:30:40.594Z</time></trkpt><trkpt lat="45.8066356" lon="11.7516959"><ele>483.2</ele><time>2026-04-06T12:30:41.595Z</time></trkpt><trkpt lat="45.8065786" lon="11.7515865"><ele>488.6</ele><time>2026-04-06T12:30:42.593Z</time></trkpt><trkpt lat="45.8065253" lon="11.7514675"><ele>494.0</ele><time>2026-04-06T12:30:43.595Z</time></trkpt><trkpt lat="45.8064733" lon="11.7513439"><ele>494.0</ele><time>2026-04-06T12:30:44.597Z</time></trkpt><trkpt lat="45.8064119" lon="11.751219"><ele>494.0</ele><time>2026-04-06T12:30:45.587Z</time></trkpt><trkpt lat="45.8063471" lon="11.7510973"><ele>494.0</ele><time>2026-04-06T12:30:46.594Z</time></trkpt><trkpt lat="45.8062854" lon="11.7509844"><ele>494.0</ele><time>2026-04-06T12:30:47.59Z</time></trkpt><trkpt lat="45.806228" lon="11.7508864"><ele>494.0</ele><time>2026-04-06T12:30:48.592Z</time></trkpt><trkpt lat="45.8061709" lon="11.7507865"><ele>493.0</ele><time>2026-04-06T12:30:49.6Z</time></trkpt><trkpt lat="45.8061061" lon="11.7506887"><ele>492.0</ele><time>2026-04-06T12:30:50.594Z</time></trkpt><trkpt lat="45.8060372" lon="11.7506042"><ele>491.0</ele><time>2026-04-06T12:30:51.591Z</time></trkpt><trkpt lat="45.8059662" lon="11.7505284"><ele>490.0</ele><time>2026-04-06T12:30:52.592Z</time></trkpt><trkpt lat="45.8058873" lon="11.7504618"><ele>489.0</ele><time>2026-04-06T12:30:53.593Z</time></trkpt><trkpt lat="45.8058112" lon="11.7503951"><ele>489.0</ele><time>2026-04-06T12:30:54.602Z</time></trkpt><trkpt lat="45.8057575" lon="11.7503371"><ele>489.0</ele><time>2026-04-06T12:30:55.598Z</time></trkpt><trkpt lat="45.80566" lon="11.7502748"><ele>489.0</ele><time>2026-04-06T12:30:56.596Z</time></trkpt><trkpt lat="45.8055756" lon="11.7502026"><ele>489.0</ele><time>2026-04-06T12:30:57.597Z</time></trkpt><trkpt lat="45.8055044" lon="11.750108"><ele>489.0</ele><time>2026-04-06T12:30:58.594Z</time></trkpt><trkpt lat="45.8054465" lon="11.7500241"><ele>497.25</ele><time>2026-04-06T12:30:59.604Z</time></trkpt><trkpt lat="45.8054209" lon="11.7498876"><ele>505.5</ele><time>2026-04-06T12:31:00.595Z</time></trkpt><trkpt lat="45.805383" lon="11.7497139"><ele>513.75</ele><time>2026-04-06T12:31:01.595Z</time></trkpt><trkpt lat="45.8053259" lon="11.7495084"><ele>522.0</ele><time>2026-04-06T12:31:02.595Z</time></trkpt><trkpt lat="45.8052625" lon="11.7492818"><ele>522.0</ele><time>2026-04-06T12:31:03.592Z</time></trkpt><trkpt lat="45.8051984" lon="11.7490354"><ele>522.0</ele><time>2026-04-06T12:31:04.592Z</time></trkpt><trkpt lat="45.8051345" lon="11.7487876"><ele>522.0</ele><time>2026-04-06T12:31:05.596Z</time></trkpt><trkpt lat="45.8050655" lon="11.7485428"><ele>522.0</ele><time>2026-04-06T12:31:06.595Z</time></trkpt><trkpt lat="45.8049958" lon="11.7483021"><ele>522.0</ele><time>2026-04-06T12:31:07.594Z</time></trkpt><trkpt lat="45.804926" lon="11.7480622"><ele>522.0</ele><time>2026-04-06T12:31:08.593Z</time></trkpt><trkpt lat="45.8048501" lon="11.7478296"><ele>530.3333333333334</ele><time>2026-04-06T12:31:09.59Z</time></trkpt><trkpt lat="45.8047661" lon="11.7476037"><ele>538.6666666666667</ele><time>2026-04-06T12:31:10.59Z</time></trkpt><trkpt lat="45.8046712" lon="11.7473909"><ele>547.0</ele><time>2026-04-06T12:31:11.591Z</time></trkpt><trkpt lat="45.8045623" lon="11.7471895"><ele>547.0</ele><time>2026-04-06T12:31:12.647Z</time></trkpt><trkpt lat="45.8044442" lon="11.7469995"><ele>547.0</ele><time>2026-04-06T12:31:13.592Z</time></trkpt><trkpt lat="45.80432" lon="11.7468155"><ele>547.0</ele><time>2026-04-06T12:31:14.596Z</time></trkpt><trkpt lat="45.8042004" lon="11.746634"><ele>540.0</ele><time>2026-04-06T12:31:15.593Z</time></trkpt><trkpt lat="45.8040815" lon="11.7464547"><ele>533.0</ele><time>2026-04-06T12:31:16.604Z</time></trkpt><trkpt lat="45.8039672" lon="11.7462821"><ele>526.0</ele><time>2026-04-06T12:31:17.596Z</time></trkpt><trkpt lat="45.803875" lon="11.7460861"><ele>531.5</ele><time>2026-04-06T12:31:18.593Z</time></trkpt><trkpt lat="45.8038073" lon="11.7458867"><ele>537.0</ele><time>2026-04-06T12:31:19.59Z</time></trkpt><trkpt lat="45.80377" lon="11.7457049"><ele>542.5</ele><time>2026-04-06T12:31:20.594Z</time></trkpt><trkpt lat="45.8037672" lon="11.7455165"><ele>548.0</ele><time>2026-04-06T12:31:21.597Z</time></trkpt><trkpt lat="45.8038096" lon="11.7453273"><ele>550.5</ele><time>2026-04-06T12:31:22.598Z</time></trkpt><trkpt lat="45.8038777" lon="11.7451341"><ele>553.0</ele><time>2026-04-06T12:31:23.601Z</time></trkpt><trkpt lat="45.8039204" lon="11.7449377"><ele>555.5</ele><time>2026-04-06T12:31:24.615Z</time></trkpt><trkpt lat="45.8039543" lon="11.7447529"><ele>558.0</ele><time>2026-04-06T12:31:25.594Z</time></trkpt><trkpt lat="45.8039509" lon="11.7446022"><ele>558.0</ele><time>2026-04-06T12:31:26.599Z</time></trkpt><trkpt lat="45.8039254" lon="11.7444885"><ele>558.0</ele><time>2026-04-06T12:31:27.591Z</time></trkpt><trkpt lat="45.8038614" lon="11.7444211"><ele>558.0</ele><time>2026-04-06T12:31:28.59Z</time></trkpt><trkpt lat="45.8037727" lon="11.7444182"><ele>558.0</ele><time>2026-04-06T12:31:29.591Z</time></trkpt><trkpt lat="45.8036798" lon="11.7444631"><ele>558.0</ele><time>2026-04-06T12:31:30.611Z</time></trkpt><trkpt lat="45.8035825" lon="11.7445295"><ele>557.0</ele><time>2026-04-06T12:31:31.596Z</time></trkpt><trkpt lat="45.8034811" lon="11.7445805"><ele>556.0</ele><time>2026-04-06T12:31:32.589Z</time></trkpt><trkpt lat="45.8033663" lon="11.7445773"><ele>555.0</ele><time>2026-04-06T12:31:33.594Z</time></trkpt><trkpt lat="45.8032723" lon="11.744475"><ele>554.0</ele><time>2026-04-06T12:31:34.594Z</time></trkpt><trkpt lat="45.8031802" lon="11.7443756"><ele>554.0</ele><time>2026-04-06T12:31:35.599Z</time></trkpt><trkpt lat="45.8030844" lon="11.7442646"><ele>554.0</ele><time>2026-04-06T12:31:36.588Z</time></trkpt><trkpt lat="45.8029884" lon="11.7441693"><ele>554.0</ele><time>2026-04-06T12:31:37.594Z</time></trkpt><trkpt lat="45.8029025" lon="11.7441064"><ele>554.0</ele><time>2026-04-06T12:31:38.596Z</time></trkpt><trkpt lat="45.8028279" lon="11.7440591"><ele>554.0</ele><time>2026-04-06T12:31:39.592Z</time></trkpt><trkpt lat="45.8027392" lon="11.7439625"><ele>554.0</ele><time>2026-04-06T12:31:41.594Z</time></trkpt><trkpt lat="45.8027368" lon="11.7438721"><ele>554.0</ele><time>2026-04-06T12:31:42.597Z</time></trkpt><trkpt lat="45.8027819" lon="11.7437435"><ele>554.0</ele><time>2026-04-06T12:31:44.597Z</time></trkpt><trkpt lat="45.8028663" lon="11.7437758"><ele>554.0</ele><time>2026-04-06T12:31:45.593Z</time></trkpt><trkpt lat="45.8029546" lon="11.7438157"><ele>554.0</ele><time>2026-04-06T12:31:46.592Z</time></trkpt><trkpt lat="45.803041" lon="11.7438596"><ele>554.0</ele><time>2026-04-06T12:31:47.597Z</time></trkpt><trkpt lat="45.8031204" lon="11.7439103"><ele>554.0</ele><time>2026-04-06T12:31:48.597Z</time></trkpt><trkpt lat="45.8032035" lon="11.7439592"><ele>554.0</ele><time>2026-04-06T12:31:49.594Z</time></trkpt><trkpt lat="45.8032877" lon="11.7439975"><ele>554.0</ele><time>2026-04-06T12:31:50.594Z</time></trkpt><trkpt lat="45.8033737" lon="11.7440143"><ele>554.0</ele><time>2026-04-06T12:31:51.595Z</time></trkpt><trkpt lat="45.8034688" lon="11.7440057"><ele>554.0</ele><time>2026-04-06T12:31:52.594Z</time></trkpt><trkpt lat="45.8035693" lon="11.7439768"><ele>556.5</ele><time>2026-04-06T12:31:53.595Z</time></trkpt><trkpt lat="45.8036728" lon="11.743934"><ele>559.0</ele><time>2026-04-06T12:31:54.598Z</time></trkpt><trkpt lat="45.8037852" lon="11.7438777"><ele>561.5</ele><time>2026-04-06T12:31:55.596Z</time></trkpt><trkpt lat="45.8039084" lon="11.7438198"><ele>564.0</ele><time>2026-04-06T12:31:56.597Z</time></trkpt><trkpt lat="45.8040308" lon="11.74376"><ele>564.0</ele><time>2026-04-06T12:31:57.596Z</time></trkpt><trkpt lat="45.8041374" lon="11.7437089"><ele>564.0</ele><time>2026-04-06T12:31:58.597Z</time></trkpt><trkpt lat="45.804236" lon="11.7436669"><ele>564.0</ele><time>2026-04-06T12:31:59.615Z</time></trkpt><trkpt lat="45.8043269" lon="11.7436732"><ele>564.0</ele><time>2026-04-06T12:32:00.598Z</time></trkpt><trkpt lat="45.8043868" lon="11.7437727"><ele>564.0</ele><time>2026-04-06T12:32:01.593Z</time></trkpt><trkpt lat="45.8044155" lon="11.7439069"><ele>571.25</ele><time>2026-04-06T12:32:02.597Z</time></trkpt><trkpt lat="45.8044219" lon="11.7440627"><ele>578.5</ele><time>2026-04-06T12:32:03.591Z</time></trkpt><trkpt lat="45.8044375" lon="11.7442354"><ele>585.75</ele><time>2026-04-06T12:32:04.596Z</time></trkpt><trkpt lat="45.8044644" lon="11.7444163"><ele>593.0</ele><time>2026-04-06T12:32:05.591Z</time></trkpt><trkpt lat="45.8045011" lon="11.7446047"><ele>593.0</ele><time>2026-04-06T12:32:06.598Z</time></trkpt><trkpt lat="45.8045583" lon="11.7447912"><ele>593.0</ele><time>2026-04-06T12:32:07.591Z</time></trkpt><trkpt lat="45.8046377" lon="11.744962"><ele>593.0</ele><time>2026-04-06T12:32:08.604Z</time></trkpt><trkpt lat="45.8047253" lon="11.7451325"><ele>593.0</ele><time>2026-04-06T12:32:09.598Z</time></trkpt><trkpt lat="45.8048117" lon="11.7453118"><ele>590.6666666666666</ele><time>2026-04-06T12:32:10.599Z</time></trkpt><trkpt lat="45.8048824" lon="11.7455057"><ele>588.3333333333334</ele><time>2026-04-06T12:32:11.592Z</time></trkpt><trkpt lat="45.804947" lon="11.7457078"><ele>586.0</ele><time>2026-04-06T12:32:12.599Z</time></trkpt><trkpt lat="45.8049922" lon="11.7459164"><ele>581.3333333333334</ele><time>2026-04-06T12:32:13.595Z</time></trkpt><trkpt lat="45.8050453" lon="11.7461272"><ele>576.6666666666666</ele><time>2026-04-06T12:32:14.598Z</time></trkpt><trkpt lat="45.8050954" lon="11.7463368"><ele>572.0</ele><time>2026-04-06T12:32:15.601Z</time></trkpt><trkpt lat="45.8051626" lon="11.7465337"><ele>580.0</ele><time>2026-04-06T12:32:16.603Z</time></trkpt><trkpt lat="45.8052423" lon="11.7467216"><ele>588.0</ele><time>2026-04-06T12:32:17.599Z</time></trkpt><trkpt lat="45.8053274" lon="11.7469078"><ele>596.0</ele><time>2026-04-06T12:32:18.59Z</time></trkpt><trkpt lat="45.8054132" lon="11.7470875"><ele>596.0</ele><time>2026-04-06T12:32:19.591Z</time></trkpt><trkpt lat="45.8054887" lon="11.7472817"><ele>596.0</ele><time>2026-04-06T12:32:20.596Z</time></trkpt><trkpt lat="45.8055603" lon="11.7474614"><ele>596.0</ele><time>2026-04-06T12:32:21.597Z</time></trkpt><trkpt lat="45.8056252" lon="11.7476276"><ele>596.0</ele><time>2026-04-06T12:32:22.602Z</time></trkpt><trkpt lat="45.8056984" lon="11.7477602"><ele>596.6</ele><time>2026-04-06T12:32:23.597Z</time></trkpt><trkpt lat="45.8057777" lon="11.7478772"><ele>597.2</ele><time>2026-04-06T12:32:24.606Z</time></trkpt><trkpt lat="45.8058645" lon="11.7479796"><ele>597.8</ele><time>2026-04-06T12:32:25.594Z</time></trkpt><trkpt lat="45.8059465" lon="11.7480663"><ele>598.4</ele><time>2026-04-06T12:32:26.598Z</time></trkpt><trkpt lat="45.8060197" lon="11.7481567"><ele>599.0</ele><time>2026-04-06T12:32:27.595Z</time></trkpt><trkpt lat="45.8060931" lon="11.7482427"><ele>599.0</ele><time>2026-04-06T12:32:28.609Z</time></trkpt><trkpt lat="45.8061616" lon="11.7483275"><ele>599.0</ele><time>2026-04-06T12:32:29.598Z</time></trkpt><trkpt lat="45.8062307" lon="11.7483919"><ele>599.0</ele><time>2026-04-06T12:32:30.604Z</time></trkpt><trkpt lat="45.8063047" lon="11.7484307"><ele>599.0</ele><time>2026-04-06T12:32:31.602Z</time></trkpt><trkpt lat="45.8063799" lon="11.7484218"><ele>599.0</ele><time>2026-04-06T12:32:32.603Z</time></trkpt><trkpt lat="45.8064368" lon="11.7483618"><ele>599.0</ele><time>2026-04-06T12:32:33.598Z</time></trkpt><trkpt lat="45.8064576" lon="11.7482704"><ele>599.0</ele><time>2026-04-06T12:32:34.607Z</time></trkpt><trkpt lat="45.8064372" lon="11.7481765"><ele>599.0</ele><time>2026-04-06T12:32:35.598Z</time></trkpt><trkpt lat="45.8063426" lon="11.7480278"><ele>599.0</ele><time>2026-04-06T12:32:37.61Z</time></trkpt><trkpt lat="45.8062661" lon="11.7479589"><ele>599.0</ele><time>2026-04-06T12:32:38.602Z</time></trkpt><trkpt lat="45.806195" lon="11.7478942"><ele>599.0</ele><time>2026-04-06T12:32:39.594Z</time></trkpt><trkpt lat="45.8061271" lon="11.7478083"><ele>599.0</ele><time>2026-04-06T12:32:40.593Z</time></trkpt><trkpt lat="45.8060704" lon="11.7477127"><ele>599.0</ele><time>2026-04-06T12:32:41.589Z</time></trkpt><trkpt lat="45.8060189" lon="11.7476039"><ele>599.0</ele><time>2026-04-06T12:32:42.598Z</time></trkpt><trkpt lat="45.8059677" lon="11.7474938"><ele>599.0</ele><time>2026-04-06T12:32:43.592Z</time></trkpt><trkpt lat="45.8059203" lon="11.7473823"><ele>599.0</ele><time>2026-04-06T12:32:44.592Z</time></trkpt><trkpt lat="45.8058784" lon="11.7472656"><ele>598.4</ele><time>2026-04-06T12:32:45.598Z</time></trkpt><trkpt lat="45.8058379" lon="11.7471391"><ele>597.8</ele><time>2026-04-06T12:32:46.595Z</time></trkpt><trkpt lat="45.8058017" lon="11.7470061"><ele>597.2</ele><time>2026-04-06T12:32:47.591Z</time></trkpt><trkpt lat="45.8057761" lon="11.7468708"><ele>596.6</ele><time>2026-04-06T12:32:48.602Z</time></trkpt><trkpt lat="45.8057587" lon="11.7467326"><ele>596.0</ele><time>2026-04-06T12:32:49.597Z</time></trkpt><trkpt lat="45.8057451" lon="11.746595"><ele>599.6</ele><time>2026-04-06T12:32:50.597Z</time></trkpt><trkpt lat="45.8057378" lon="11.7464584"><ele>603.2</ele><time>2026-04-06T12:32:51.605Z</time></trkpt><trkpt lat="45.8057356" lon="11.7463219"><ele>606.8</ele><time>2026-04-06T12:32:52.594Z</time></trkpt><trkpt lat="45.8057348" lon="11.7461788"><ele>610.4</ele><time>2026-04-06T12:32:53.599Z</time></trkpt><trkpt lat="45.8057407" lon="11.7460324"><ele>614.0</ele><time>2026-04-06T12:32:54.6Z</time></trkpt><trkpt lat="45.8057532" lon="11.7458882"><ele>615.0</ele><time>2026-04-06T12:32:55.596Z</time></trkpt><trkpt lat="45.8057701" lon="11.7457428"><ele>616.0</ele><time>2026-04-06T12:32:56.602Z</time></trkpt><trkpt lat="45.8058007" lon="11.7455988"><ele>617.0</ele><time>2026-04-06T12:32:57.599Z</time></trkpt><trkpt lat="45.8058288" lon="11.7454598"><ele>618.0</ele><time>2026-04-06T12:32:58.603Z</time></trkpt><trkpt lat="45.805836" lon="11.7453142"><ele>619.0</ele><time>2026-04-06T12:32:59.595Z</time></trkpt><trkpt lat="45.8058215" lon="11.7451705"><ele>620.2</ele><time>2026-04-06T12:33:00.594Z</time></trkpt><trkpt lat="45.8057948" lon="11.7450241"><ele>621.4</ele><time>2026-04-06T12:33:01.603Z</time></trkpt><trkpt lat="45.8057578" lon="11.7448838"><ele>622.6</ele><time>2026-04-06T12:33:02.598Z</time></trkpt><trkpt lat="45.8057282" lon="11.7447428"><ele>623.8</ele><time>2026-04-06T12:33:03.589Z</time></trkpt><trkpt lat="45.8057053" lon="11.7445974"><ele>625.0</ele><time>2026-04-06T12:33:04.601Z</time></trkpt><trkpt lat="45.8056927" lon="11.7444465"><ele>626.8</ele><time>2026-04-06T12:33:05.598Z</time></trkpt><trkpt lat="45.8056902" lon="11.7442919"><ele>628.6</ele><time>2026-04-06T12:33:06.601Z</time></trkpt><trkpt lat="45.8056958" lon="11.7441344"><ele>630.4</ele><time>2026-04-06T12:33:07.61Z</time></trkpt><trkpt lat="45.8057086" lon="11.7439793"><ele>632.2</ele><time>2026-04-06T12:33:08.605Z</time></trkpt><trkpt lat="45.8057302" lon="11.7438294"><ele>634.0</ele><time>2026-04-06T12:33:09.597Z</time></trkpt><trkpt lat="45.8057597" lon="11.7436838"><ele>633.6</ele><time>2026-04-06T12:33:10.598Z</time></trkpt><trkpt lat="45.8057944" lon="11.7435424"><ele>633.2</ele><time>2026-04-06T12:33:11.599Z</time></trkpt><trkpt lat="45.805831" lon="11.7434051"><ele>632.8000000000001</ele><time>2026-04-06T12:33:12.599Z</time></trkpt><trkpt lat="45.8058733" lon="11.7432809"><ele>632.4</ele><time>2026-04-06T12:33:13.592Z</time></trkpt><trkpt lat="45.8059154" lon="11.7431604"><ele>632.0</ele><time>2026-04-06T12:33:14.594Z</time></trkpt><trkpt lat="45.8059537" lon="11.7430365"><ele>632.0</ele><time>2026-04-06T12:33:15.59Z</time></trkpt><trkpt lat="45.8059888" lon="11.7429075"><ele>632.0</ele><time>2026-04-06T12:33:16.595Z</time></trkpt><trkpt lat="45.8060191" lon="11.7427861"><ele>632.0</ele><time>2026-04-06T12:33:17.591Z</time></trkpt><trkpt lat="45.8060434" lon="11.7426832"><ele>632.0</ele><time>2026-04-06T12:33:18.59Z</time></trkpt><trkpt lat="45.8060617" lon="11.7425895"><ele>632.0</ele><time>2026-04-06T12:33:19.595Z</time></trkpt><trkpt lat="45.8060792" lon="11.742502"><ele>632.0</ele><time>2026-04-06T12:33:20.598Z</time></trkpt><trkpt lat="45.8061364" lon="11.7423906"><ele>638.4000000000001</ele><time>2026-04-06T12:33:22.608Z</time></trkpt><trkpt lat="45.8062107" lon="11.7423918"><ele>644.8000000000001</ele><time>2026-04-06T12:33:24.597Z</time></trkpt><trkpt lat="45.8062424" lon="11.7425019"><ele>651.2</ele><time>2026-04-06T12:33:26.608Z</time></trkpt><trkpt lat="45.8062146" lon="11.7426415"><ele>657.6</ele><time>2026-04-06T12:33:28.599Z</time></trkpt><trkpt lat="45.8061748" lon="11.7428177"><ele>664.0</ele><time>2026-04-06T12:33:30.593Z</time></trkpt><trkpt lat="45.8061548" lon="11.7429159"><ele>664.0</ele><time>2026-04-06T12:33:31.592Z</time></trkpt><trkpt lat="45.8061352" lon="11.7430179"><ele>664.0</ele><time>2026-04-06T12:33:32.594Z</time></trkpt><trkpt lat="45.8061194" lon="11.7431378"><ele>664.0</ele><time>2026-04-06T12:33:33.594Z</time></trkpt><trkpt lat="45.8061056" lon="11.7432463"><ele>664.0</ele><time>2026-04-06T12:33:34.592Z</time></trkpt><trkpt lat="45.8061044" lon="11.7433869"><ele>664.0</ele><time>2026-04-06T12:33:35.594Z</time></trkpt><trkpt lat="45.8061247" lon="11.7435193"><ele>664.0</ele><time>2026-04-06T12:33:36.599Z</time></trkpt><trkpt lat="45.8061625" lon="11.7436545"><ele>662.8000000000001</ele><time>2026-04-06T12:33:37.597Z</time></trkpt><trkpt lat="45.8062074" lon="11.7437804"><ele>661.6</ele><time>2026-04-06T12:33:38.599Z</time></trkpt><trkpt lat="45.8062526" lon="11.7439057"><ele>660.4</ele><time>2026-04-06T12:33:39.601Z</time></trkpt><trkpt lat="45.8063005" lon="11.7440227"><ele>659.2</ele><time>2026-04-06T12:33:40.604Z</time></trkpt><trkpt lat="45.8063519" lon="11.7441411"><ele>658.0</ele><time>2026-04-06T12:33:41.597Z</time></trkpt><trkpt lat="45.8064053" lon="11.7442511"><ele>658.0</ele><time>2026-04-06T12:33:42.601Z</time></trkpt><trkpt lat="45.8064622" lon="11.744359"><ele>658.0</ele><time>2026-04-06T12:33:43.601Z</time></trkpt><trkpt lat="45.8065224" lon="11.7444548"><ele>658.0</ele><time>2026-04-06T12:33:44.599Z</time></trkpt><trkpt lat="45.8065921" lon="11.7445371"><ele>658.0</ele><time>2026-04-06T12:33:45.597Z</time></trkpt><trkpt lat="45.8066671" lon="11.7446105"><ele>658.0</ele><time>2026-04-06T12:33:46.599Z</time></trkpt><trkpt lat="45.8067466" lon="11.7446741"><ele>658.5</ele><time>2026-04-06T12:33:47.602Z</time></trkpt><trkpt lat="45.806831" lon="11.7447261"><ele>659.0</ele><time>2026-04-06T12:33:48.605Z</time></trkpt><trkpt lat="45.8069157" lon="11.7447642"><ele>659.5</ele><time>2026-04-06T12:33:49.596Z</time></trkpt><trkpt lat="45.8069921" lon="11.744789"><ele>660.0</ele><time>2026-04-06T12:33:50.6Z</time></trkpt><trkpt lat="45.8070688" lon="11.7448063"><ele>660.5</ele><time>2026-04-06T12:33:51.6Z</time></trkpt><trkpt lat="45.8071489" lon="11.7448133"><ele>661.0</ele><time>2026-04-06T12:33:52.6Z</time></trkpt><trkpt lat="45.807228" lon="11.7448039"><ele>661.0</ele><time>2026-04-06T12:33:53.598Z</time></trkpt><trkpt lat="45.8073086" lon="11.7447806"><ele>661.0</ele><time>2026-04-06T12:33:54.599Z</time></trkpt><trkpt lat="45.8073943" lon="11.7447356"><ele>661.0</ele><time>2026-04-06T12:33:55.597Z</time></trkpt><trkpt lat="45.8074865" lon="11.7446559"><ele>661.0</ele><time>2026-04-06T12:33:56.604Z</time></trkpt><trkpt lat="45.8075911" lon="11.7445441"><ele>661.0</ele><time>2026-04-06T12:33:57.597Z</time></trkpt><trkpt lat="45.8077148" lon="11.7444056"><ele>663.6666666666667</ele><time>2026-04-06T12:33:58.604Z</time></trkpt><trkpt lat="45.8078472" lon="11.7442618"><ele>666.3333333333334</ele><time>2026-04-06T12:33:59.598Z</time></trkpt><trkpt lat="45.8079875" lon="11.744115"><ele>669.0</ele><time>2026-04-06T12:34:00.602Z</time></trkpt><trkpt lat="45.808127" lon="11.7439677"><ele>669.0</ele><time>2026-04-06T12:34:01.595Z</time></trkpt><trkpt lat="45.8082745" lon="11.7438108"><ele>669.0</ele><time>2026-04-06T12:34:02.591Z</time></trkpt><trkpt lat="45.8084261" lon="11.7436604"><ele>669.0</ele><time>2026-04-06T12:34:03.591Z</time></trkpt><trkpt lat="45.8085864" lon="11.7435377"><ele>676.6666666666666</ele><time>2026-04-06T12:34:04.593Z</time></trkpt><trkpt lat="45.8087515" lon="11.743441"><ele>684.3333333333333</ele><time>2026-04-06T12:34:05.592Z</time></trkpt><trkpt lat="45.8089175" lon="11.743366"><ele>692.0</ele><time>2026-04-06T12:34:06.601Z</time></trkpt><trkpt lat="45.8090785" lon="11.7433102"><ele>692.0</ele><time>2026-04-06T12:34:07.59Z</time></trkpt><trkpt lat="45.8092205" lon="11.743279"><ele>692.0</ele><time>2026-04-06T12:34:08.672Z</time></trkpt><trkpt lat="45.8093371" lon="11.7432658"><ele>692.0</ele><time>2026-04-06T12:34:09.607Z</time></trkpt><trkpt lat="45.8094377" lon="11.7432493"><ele>692.0</ele><time>2026-04-06T12:34:10.591Z</time></trkpt><trkpt lat="45.8095266" lon="11.743271"><ele>694.5</ele><time>2026-04-06T12:34:11.603Z</time></trkpt><trkpt lat="45.809604" lon="11.7433361"><ele>697.0</ele><time>2026-04-06T12:34:12.609Z</time></trkpt><trkpt lat="45.8096262" lon="11.7435032"><ele>699.5</ele><time>2026-04-06T12:34:13.593Z</time></trkpt><trkpt lat="45.8096377" lon="11.7436796"><ele>702.0</ele><time>2026-04-06T12:34:14.598Z</time></trkpt><trkpt lat="45.8096605" lon="11.7438485"><ele>702.0</ele><time>2026-04-06T12:34:15.595Z</time></trkpt><trkpt lat="45.8097152" lon="11.7440058"><ele>702.0</ele><time>2026-04-06T12:34:16.594Z</time></trkpt><trkpt lat="45.8098045" lon="11.7441496"><ele>702.0</ele><time>2026-04-06T12:34:17.591Z</time></trkpt><trkpt lat="45.8099125" lon="11.7442851"><ele>702.0</ele><time>2026-04-06T12:34:18.595Z</time></trkpt><trkpt lat="45.8100147" lon="11.7444146"><ele>700.75</ele><time>2026-04-06T12:34:19.591Z</time></trkpt><trkpt lat="45.8100825" lon="11.7445664"><ele>699.5</ele><time>2026-04-06T12:34:20.588Z</time></trkpt><trkpt lat="45.8101014" lon="11.7447346"><ele>698.25</ele><time>2026-04-06T12:34:21.595Z</time></trkpt><trkpt lat="45.8101197" lon="11.7448901"><ele>697.0</ele><time>2026-04-06T12:34:22.599Z</time></trkpt><trkpt lat="45.8100868" lon="11.745066"><ele>696.75</ele><time>2026-04-06T12:34:23.595Z</time></trkpt><trkpt lat="45.8100839" lon="11.7452416"><ele>696.5</ele><time>2026-04-06T12:34:24.595Z</time></trkpt><trkpt lat="45.8100985" lon="11.7454258"><ele>696.25</ele><time>2026-04-06T12:34:25.594Z</time></trkpt><trkpt lat="45.8101496" lon="11.7456003"><ele>696.0</ele><time>2026-04-06T12:34:26.599Z</time></trkpt><trkpt lat="45.8102233" lon="11.7457565"><ele>699.5</ele><time>2026-04-06T12:34:27.591Z</time></trkpt><trkpt lat="45.810316" lon="11.7458645"><ele>703.0</ele><time>2026-04-06T12:34:28.597Z</time></trkpt><trkpt lat="45.8104272" lon="11.7459279"><ele>706.5</ele><time>2026-04-06T12:34:29.597Z</time></trkpt><trkpt lat="45.8105473" lon="11.7459849"><ele>710.0</ele><time>2026-04-06T12:34:30.596Z</time></trkpt><trkpt lat="45.8107038" lon="11.745982"><ele>710.0</ele><time>2026-04-06T12:34:31.596Z</time></trkpt><trkpt lat="45.8108721" lon="11.7459639"><ele>710.0</ele><time>2026-04-06T12:34:32.603Z</time></trkpt><trkpt lat="45.8110507" lon="11.7459354"><ele>710.0</ele><time>2026-04-06T12:34:33.601Z</time></trkpt><trkpt lat="45.8112498" lon="11.7459071"><ele>712.6666666666666</ele><time>2026-04-06T12:34:34.592Z</time></trkpt><trkpt lat="45.8114502" lon="11.7458733"><ele>715.3333333333334</ele><time>2026-04-06T12:34:35.588Z</time></trkpt><trkpt lat="45.8116585" lon="11.7458676"><ele>718.0</ele><time>2026-04-06T12:34:36.599Z</time></trkpt><trkpt lat="45.8118593" lon="11.7458607"><ele>721.0</ele><time>2026-04-06T12:34:37.592Z</time></trkpt><trkpt lat="45.8120569" lon="11.7458598"><ele>724.0</ele><time>2026-04-06T12:34:38.595Z</time></trkpt><trkpt lat="45.8122544" lon="11.7458734"><ele>727.0</ele><time>2026-04-06T12:34:39.629Z</time></trkpt><trkpt lat="45.8124483" lon="11.7458845"><ele>727.0</ele><time>2026-04-06T12:34:40.591Z</time></trkpt><trkpt lat="45.8126369" lon="11.7459215"><ele>727.0</ele><time>2026-04-06T12:34:41.592Z</time></trkpt><trkpt lat="45.8128134" lon="11.7459407"><ele>727.0</ele><time>2026-04-06T12:34:42.591Z</time></trkpt><trkpt lat="45.8129687" lon="11.7459447"><ele>726.25</ele><time>2026-04-06T12:34:43.593Z</time></trkpt><trkpt lat="45.8131116" lon="11.7458907"><ele>725.5</ele><time>2026-04-06T12:34:44.601Z</time></trkpt><trkpt lat="45.8132417" lon="11.7458086"><ele>724.75</ele><time>2026-04-06T12:34:45.595Z</time></trkpt><trkpt lat="45.8133698" lon="11.7457252"><ele>724.0</ele><time>2026-04-06T12:34:46.591Z</time></trkpt><trkpt lat="45.8135184" lon="11.7457177"><ele>724.0</ele><time>2026-04-06T12:34:47.594Z</time></trkpt><trkpt lat="45.8136916" lon="11.7457707"><ele>724.0</ele><time>2026-04-06T12:34:48.59Z</time></trkpt><trkpt lat="45.8138489" lon="11.745823"><ele>724.0</ele><time>2026-04-06T12:34:49.593Z</time></trkpt><trkpt lat="45.8139902" lon="11.7458784"><ele>724.0</ele><time>2026-04-06T12:34:50.594Z</time></trkpt><trkpt lat="45.8140748" lon="11.7459385"><ele>724.0</ele><time>2026-04-06T12:34:51.593Z</time></trkpt><trkpt lat="45.814138" lon="11.7459827"><ele>724.0</ele><time>2026-04-06T12:34:52.591Z</time></trkpt><trkpt lat="45.8142191" lon="11.7459081"><ele>724.0</ele><time>2026-04-06T12:34:54.601Z</time></trkpt><trkpt lat="45.8142203" lon="11.7457485"><ele>724.0</ele><time>2026-04-06T12:34:56.599Z</time></trkpt><trkpt lat="45.8141658" lon="11.7456904"><ele>724.0</ele><time>2026-04-06T12:34:57.645Z</time></trkpt><trkpt lat="45.8140726" lon="11.7456797"><ele>724.0</ele><time>2026-04-06T12:34:58.6Z</time></trkpt><trkpt lat="45.8139563" lon="11.7456766"><ele>724.0</ele><time>2026-04-06T12:34:59.597Z</time></trkpt><trkpt lat="45.8138178" lon="11.7456421"><ele>724.0</ele><time>2026-04-06T12:35:00.597Z</time></trkpt><trkpt lat="45.8136435" lon="11.7456038"><ele>724.0</ele><time>2026-04-06T12:35:01.596Z</time></trkpt><trkpt lat="45.8134654" lon="11.7455539"><ele>726.6666666666667</ele><time>2026-04-06T12:35:02.594Z</time></trkpt><trkpt lat="45.8133046" lon="11.7455182"><ele>729.3333333333334</ele><time>2026-04-06T12:35:03.591Z</time></trkpt><trkpt lat="45.8131579" lon="11.7454834"><ele>732.0</ele><time>2026-04-06T12:35:04.595Z</time></trkpt><trkpt lat="45.8130188" lon="11.7454395"><ele>732.0</ele><time>2026-04-06T12:35:05.598Z</time></trkpt><trkpt lat="45.8128809" lon="11.7453303"><ele>732.0</ele><time>2026-04-06T12:35:06.594Z</time></trkpt><trkpt lat="45.8127471" lon="11.7452433"><ele>732.0</ele><time>2026-04-06T12:35:07.6Z</time></trkpt><trkpt lat="45.812616" lon="11.7451487"><ele>737.25</ele><time>2026-04-06T12:35:08.603Z</time></trkpt><trkpt lat="45.8124887" lon="11.7450595"><ele>742.5</ele><time>2026-04-06T12:35:09.598Z</time></trkpt><trkpt lat="45.8123665" lon="11.7449744"><ele>747.75</ele><time>2026-04-06T12:35:10.601Z</time></trkpt><trkpt lat="45.8122468" lon="11.7448853"><ele>753.0</ele><time>2026-04-06T12:35:11.588Z</time></trkpt><trkpt lat="45.8121299" lon="11.7447982"><ele>753.0</ele><time>2026-04-06T12:35:12.599Z</time></trkpt><trkpt lat="45.8120177" lon="11.7447098"><ele>753.0</ele><time>2026-04-06T12:35:13.597Z</time></trkpt><trkpt lat="45.8119081" lon="11.7446184"><ele>753.0</ele><time>2026-04-06T12:35:14.602Z</time></trkpt><trkpt lat="45.8118197" lon="11.7445081"><ele>753.0</ele><time>2026-04-06T12:35:15.593Z</time></trkpt><trkpt lat="45.8117578" lon="11.7443737"><ele>753.75</ele><time>2026-04-06T12:35:16.594Z</time></trkpt><trkpt lat="45.8117213" lon="11.7442094"><ele>754.5</ele><time>2026-04-06T12:35:17.593Z</time></trkpt><trkpt lat="45.8117055" lon="11.7440132"><ele>755.25</ele><time>2026-04-06T12:35:18.602Z</time></trkpt><trkpt lat="45.811699" lon="11.7438294"><ele>756.0</ele><time>2026-04-06T12:35:19.592Z</time></trkpt><trkpt lat="45.8117043" lon="11.7436549"><ele>758.25</ele><time>2026-04-06T12:35:20.59Z</time></trkpt><trkpt lat="45.8117149" lon="11.7434776"><ele>760.5</ele><time>2026-04-06T12:35:21.594Z</time></trkpt><trkpt lat="45.81176" lon="11.7433004"><ele>762.75</ele><time>2026-04-06T12:35:22.593Z</time></trkpt><trkpt lat="45.8118023" lon="11.7431453"><ele>765.0</ele><time>2026-04-06T12:35:23.598Z</time></trkpt><trkpt lat="45.8118242" lon="11.743007"><ele>765.0</ele><time>2026-04-06T12:35:24.605Z</time></trkpt><trkpt lat="45.8118054" lon="11.7428242"><ele>765.0</ele><time>2026-04-06T12:35:25.589Z</time></trkpt><trkpt lat="45.8117546" lon="11.7426409"><ele>765.0</ele><time>2026-04-06T12:35:26.593Z</time></trkpt><trkpt lat="45.8116771" lon="11.7424598"><ele>765.0</ele><time>2026-04-06T12:35:27.592Z</time></trkpt><trkpt lat="45.8116021" lon="11.7422746"><ele>766.25</ele><time>2026-04-06T12:35:28.593Z</time></trkpt><trkpt lat="45.8115362" lon="11.7421008"><ele>767.5</ele><time>2026-04-06T12:35:29.587Z</time></trkpt><trkpt lat="45.8114619" lon="11.7419269"><ele>768.75</ele><time>2026-04-06T12:35:30.602Z</time></trkpt><trkpt lat="45.8114459" lon="11.7417503"><ele>770.0</ele><time>2026-04-06T12:35:31.594Z</time></trkpt><trkpt lat="45.811446" lon="11.7415697"><ele>771.5</ele><time>2026-04-06T12:35:32.592Z</time></trkpt><trkpt lat="45.811474" lon="11.7413977"><ele>773.0</ele><time>2026-04-06T12:35:33.596Z</time></trkpt><trkpt lat="45.8115359" lon="11.7412357"><ele>774.5</ele><time>2026-04-06T12:35:34.598Z</time></trkpt><trkpt lat="45.8116288" lon="11.7410691"><ele>776.0</ele><time>2026-04-06T12:35:35.596Z</time></trkpt><trkpt lat="45.8117317" lon="11.7408956"><ele>780.25</ele><time>2026-04-06T12:35:36.595Z</time></trkpt><trkpt lat="45.8118308" lon="11.7407346"><ele>784.5</ele><time>2026-04-06T12:35:37.59Z</time></trkpt><trkpt lat="45.8119216" lon="11.7406377"><ele>788.75</ele><time>2026-04-06T12:35:38.601Z</time></trkpt><trkpt lat="45.8120326" lon="11.7405733"><ele>793.0</ele><time>2026-04-06T12:35:39.594Z</time></trkpt><trkpt lat="45.8121488" lon="11.7405117"><ele>793.0</ele><time>2026-04-06T12:35:40.598Z</time></trkpt><trkpt lat="45.8122873" lon="11.7405144"><ele>793.0</ele><time>2026-04-06T12:35:41.592Z</time></trkpt><trkpt lat="45.8124304" lon="11.7405458"><ele>793.0</ele><time>2026-04-06T12:35:42.59Z</time></trkpt><trkpt lat="45.8126007" lon="11.7406623"><ele>792.6666666666666</ele><time>2026-04-06T12:35:43.591Z</time></trkpt><trkpt lat="45.8127715" lon="11.7407746"><ele>792.3333333333333</ele><time>2026-04-06T12:35:44.597Z</time></trkpt><trkpt lat="45.8129449" lon="11.7409032"><ele>792.0</ele><time>2026-04-06T12:35:45.59Z</time></trkpt><trkpt lat="45.8131099" lon="11.7410322"><ele>786.0</ele><time>2026-04-06T12:35:46.598Z</time></trkpt><trkpt lat="45.8132804" lon="11.74115"><ele>780.0</ele><time>2026-04-06T12:35:47.593Z</time></trkpt><trkpt lat="45.8134486" lon="11.7412493"><ele>774.0</ele><time>2026-04-06T12:35:48.592Z</time></trkpt><trkpt lat="45.813615" lon="11.7412921"><ele>773.0</ele><time>2026-04-06T12:35:49.59Z</time></trkpt><trkpt lat="45.8137868" lon="11.7412959"><ele>772.0</ele><time>2026-04-06T12:35:50.602Z</time></trkpt><trkpt lat="45.8139606" lon="11.7412549"><ele>771.0</ele><time>2026-04-06T12:35:51.596Z</time></trkpt><trkpt lat="45.8141273" lon="11.7411925"><ele>771.0</ele><time>2026-04-06T12:35:52.598Z</time></trkpt><trkpt lat="45.8142757" lon="11.7411219"><ele>771.0</ele><time>2026-04-06T12:35:53.592Z</time></trkpt><trkpt lat="45.8144048" lon="11.7410176"><ele>771.0</ele><time>2026-04-06T12:35:54.589Z</time></trkpt><trkpt lat="45.814528" lon="11.7408905"><ele>773.6666666666667</ele><time>2026-04-06T12:35:55.594Z</time></trkpt><trkpt lat="45.8146302" lon="11.740704"><ele>776.3333333333334</ele><time>2026-04-06T12:35:56.593Z</time></trkpt><trkpt lat="45.8147314" lon="11.740498"><ele>779.0</ele><time>2026-04-06T12:35:57.594Z</time></trkpt><trkpt lat="45.8148277" lon="11.7403007"><ele>781.5</ele><time>2026-04-06T12:35:58.589Z</time></trkpt><trkpt lat="45.8149137" lon="11.7401356"><ele>784.0</ele><time>2026-04-06T12:35:59.59Z</time></trkpt><trkpt lat="45.8150073" lon="11.7400038"><ele>786.5</ele><time>2026-04-06T12:36:00.602Z</time></trkpt><trkpt lat="45.8151185" lon="11.7399054"><ele>789.0</ele><time>2026-04-06T12:36:01.594Z</time></trkpt><trkpt lat="45.815242" lon="11.7398506"><ele>791.75</ele><time>2026-04-06T12:36:02.594Z</time></trkpt><trkpt lat="45.815357" lon="11.7397987"><ele>794.5</ele><time>2026-04-06T12:36:03.598Z</time></trkpt><trkpt lat="45.8154709" lon="11.7398317"><ele>797.25</ele><time>2026-04-06T12:36:04.598Z</time></trkpt><trkpt lat="45.8155859" lon="11.7398936"><ele>800.0</ele><time>2026-04-06T12:36:05.59Z</time></trkpt><trkpt lat="45.8156773" lon="11.7400334"><ele>801.3333333333334</ele><time>2026-04-06T12:36:06.599Z</time></trkpt><trkpt lat="45.8157104" lon="11.7402271"><ele>802.6666666666667</ele><time>2026-04-06T12:36:07.594Z</time></trkpt><trkpt lat="45.8157316" lon="11.7404535"><ele>804.0</ele><time>2026-04-06T12:36:08.595Z</time></trkpt><trkpt lat="45.8157543" lon="11.7406883"><ele>804.0</ele><time>2026-04-06T12:36:09.591Z</time></trkpt><trkpt lat="45.8157611" lon="11.7409092"><ele>804.0</ele><time>2026-04-06T12:36:10.596Z</time></trkpt><trkpt lat="45.815764" lon="11.7411009"><ele>804.0</ele><time>2026-04-06T12:36:11.589Z</time></trkpt><trkpt lat="45.8157358" lon="11.741276"><ele>804.0</ele><time>2026-04-06T12:36:12.6Z</time></trkpt><trkpt lat="45.8157507" lon="11.7414374"><ele>803.2</ele><time>2026-04-06T12:36:13.594Z</time></trkpt><trkpt lat="45.8157959" lon="11.7415916"><ele>802.4000000000001</ele><time>2026-04-06T12:36:14.592Z</time></trkpt><trkpt lat="45.8158576" lon="11.7417432"><ele>801.6</ele><time>2026-04-06T12:36:15.596Z</time></trkpt><trkpt lat="45.8159173" lon="11.7418749"><ele>800.8</ele><time>2026-04-06T12:36:16.596Z</time></trkpt><trkpt lat="45.8159752" lon="11.7419704"><ele>800.0</ele><time>2026-04-06T12:36:17.594Z</time></trkpt><trkpt lat="45.816055" lon="11.7420399"><ele>797.25</ele><time>2026-04-06T12:36:18.593Z</time></trkpt><trkpt lat="45.8161401" lon="11.7421006"><ele>794.5</ele><time>2026-04-06T12:36:19.587Z</time></trkpt><trkpt lat="45.8162684" lon="11.7421055"><ele>791.75</ele><time>2026-04-06T12:36:20.597Z</time></trkpt><trkpt lat="45.8164121" lon="11.7421149"><ele>789.0</ele><time>2026-04-06T12:36:21.589Z</time></trkpt><trkpt lat="45.8165592" lon="11.7421302"><ele>789.0</ele><time>2026-04-06T12:36:22.592Z</time></trkpt><trkpt lat="45.8166955" lon="11.7421426"><ele>789.0</ele><time>2026-04-06T12:36:23.591Z</time></trkpt><trkpt lat="45.816809" lon="11.7421393"><ele>789.0</ele><time>2026-04-06T12:36:24.594Z</time></trkpt><trkpt lat="45.8168983" lon="11.7420989"><ele>789.0</ele><time>2026-04-06T12:36:25.591Z</time></trkpt><trkpt lat="45.8169847" lon="11.7420159"><ele>789.0</ele><time>2026-04-06T12:36:26.593Z</time></trkpt><trkpt lat="45.8170601" lon="11.7418778"><ele>795.5</ele><time>2026-04-06T12:36:27.593Z</time></trkpt><trkpt lat="45.8171316" lon="11.7417051"><ele>802.0</ele><time>2026-04-06T12:36:28.598Z</time></trkpt><trkpt lat="45.8171979" lon="11.7415295"><ele>808.5</ele><time>2026-04-06T12:36:29.593Z</time></trkpt><trkpt lat="45.81726" lon="11.7413886"><ele>815.0</ele><time>2026-04-06T12:36:30.597Z</time></trkpt><trkpt lat="45.8173318" lon="11.7412845"><ele>815.0</ele><time>2026-04-06T12:36:31.593Z</time></trkpt><trkpt lat="45.8174033" lon="11.7412036"><ele>815.0</ele><time>2026-04-06T12:36:32.593Z</time></trkpt><trkpt lat="45.8174913" lon="11.7411929"><ele>815.0</ele><time>2026-04-06T12:36:33.59Z</time></trkpt><trkpt lat="45.8175875" lon="11.7412327"><ele>815.0</ele><time>2026-04-06T12:36:34.591Z</time></trkpt><trkpt lat="45.817692" lon="11.7412794"><ele>815.0</ele><time>2026-04-06T12:36:35.594Z</time></trkpt><trkpt lat="45.8177942" lon="11.7413363"><ele>816.2</ele><time>2026-04-06T12:36:36.594Z</time></trkpt><trkpt lat="45.8178829" lon="11.7414185"><ele>817.4</ele><time>2026-04-06T12:36:37.59Z</time></trkpt><trkpt lat="45.8179659" lon="11.7414983"><ele>818.5999999999999</ele><time>2026-04-06T12:36:38.608Z</time></trkpt><trkpt lat="45.8180213" lon="11.7416022"><ele>819.8</ele><time>2026-04-06T12:36:39.593Z</time></trkpt><trkpt lat="45.8180797" lon="11.7416988"><ele>821.0</ele><time>2026-04-06T12:36:40.593Z</time></trkpt><trkpt lat="45.8181469" lon="11.7417645"><ele>821.0</ele><time>2026-04-06T12:36:41.594Z</time></trkpt><trkpt lat="45.8182178" lon="11.7418059"><ele>821.0</ele><time>2026-04-06T12:36:42.595Z</time></trkpt><trkpt lat="45.8183045" lon="11.7417774"><ele>821.0</ele><time>2026-04-06T12:36:43.596Z</time></trkpt><trkpt lat="45.818407" lon="11.7416494"><ele>821.0</ele><time>2026-04-06T12:36:44.588Z</time></trkpt><trkpt lat="45.8185356" lon="11.741499"><ele>819.75</ele><time>2026-04-06T12:36:45.596Z</time></trkpt><trkpt lat="45.8186405" lon="11.7413416"><ele>818.5</ele><time>2026-04-06T12:36:46.602Z</time></trkpt><trkpt lat="45.818748" lon="11.7411949"><ele>817.25</ele><time>2026-04-06T12:36:47.594Z</time></trkpt><trkpt lat="45.818854" lon="11.7410675"><ele>816.0</ele><time>2026-04-06T12:36:48.59Z</time></trkpt><trkpt lat="45.818952" lon="11.7409932"><ele>818.5999999999999</ele><time>2026-04-06T12:36:49.597Z</time></trkpt><trkpt lat="45.8190616" lon="11.7409676"><ele>821.2</ele><time>2026-04-06T12:36:50.599Z</time></trkpt><trkpt lat="45.8191746" lon="11.7409844"><ele>823.8</ele><time>2026-04-06T12:36:51.591Z</time></trkpt><trkpt lat="45.8192812" lon="11.7410106"><ele>826.4000000000001</ele><time>2026-04-06T12:36:52.588Z</time></trkpt><trkpt lat="45.8193756" lon="11.7410312"><ele>829.0</ele><time>2026-04-06T12:36:53.592Z</time></trkpt><trkpt lat="45.8194687" lon="11.7410515"><ele>830.4000000000001</ele><time>2026-04-06T12:36:54.593Z</time></trkpt><trkpt lat="45.8195575" lon="11.7410863"><ele>831.8</ele><time>2026-04-06T12:36:55.598Z</time></trkpt><trkpt lat="45.8196415" lon="11.74114"><ele>833.2</ele><time>2026-04-06T12:36:56.592Z</time></trkpt><trkpt lat="45.8197173" lon="11.7412126"><ele>834.5999999999999</ele><time>2026-04-06T12:36:57.591Z</time></trkpt><trkpt lat="45.8197843" lon="11.7413096"><ele>836.0</ele><time>2026-04-06T12:36:58.595Z</time></trkpt><trkpt lat="45.819843" lon="11.7414132"><ele>836.0</ele><time>2026-04-06T12:36:59.597Z</time></trkpt><trkpt lat="45.8198944" lon="11.7415438"><ele>836.0</ele><time>2026-04-06T12:37:00.593Z</time></trkpt><trkpt lat="45.8199605" lon="11.7416523"><ele>836.0</ele><time>2026-04-06T12:37:01.592Z</time></trkpt><trkpt lat="45.8200403" lon="11.7417504"><ele>836.0</ele><time>2026-04-06T12:37:02.589Z</time></trkpt><trkpt lat="45.8201349" lon="11.7418149"><ele>836.0</ele><time>2026-04-06T12:37:03.603Z</time></trkpt><trkpt lat="45.8202383" lon="11.7418394"><ele>833.75</ele><time>2026-04-06T12:37:04.601Z</time></trkpt><trkpt lat="45.8203487" lon="11.7418501"><ele>831.5</ele><time>2026-04-06T12:37:05.598Z</time></trkpt><trkpt lat="45.8204592" lon="11.7418792"><ele>829.25</ele><time>2026-04-06T12:37:06.597Z</time></trkpt><trkpt lat="45.8205681" lon="11.7419303"><ele>827.0</ele><time>2026-04-06T12:37:07.592Z</time></trkpt><trkpt lat="45.8206685" lon="11.7420032"><ele>827.0</ele><time>2026-04-06T12:37:08.597Z</time></trkpt><trkpt lat="45.8207668" lon="11.7420797"><ele>827.0</ele><time>2026-04-06T12:37:09.594Z</time></trkpt><trkpt lat="45.8208695" lon="11.7421367"><ele>827.0</ele><time>2026-04-06T12:37:10.596Z</time></trkpt><trkpt lat="45.8209777" lon="11.7421575"><ele>827.0</ele><time>2026-04-06T12:37:11.593Z</time></trkpt><trkpt lat="45.8210803" lon="11.7421383"><ele>827.0</ele><time>2026-04-06T12:37:12.596Z</time></trkpt><trkpt lat="45.8211693" lon="11.7421119"><ele>830.5000000000001</ele><time>2026-04-06T12:37:13.591Z</time></trkpt><trkpt lat="45.8212317" lon="11.7420455"><ele>834.0</ele><time>2026-04-06T12:37:14.601Z</time></trkpt><trkpt lat="45.8213061" lon="11.7419912"><ele>837.5</ele><time>2026-04-06T12:37:15.596Z</time></trkpt><trkpt lat="45.8213788" lon="11.7419926"><ele>841.0</ele><time>2026-04-06T12:37:16.593Z</time></trkpt><trkpt lat="45.821459" lon="11.7420379"><ele>844.5000000000001</ele><time>2026-04-06T12:37:17.593Z</time></trkpt><trkpt lat="45.8215421" lon="11.7421113"><ele>848.0</ele><time>2026-04-06T12:37:18.594Z</time></trkpt><trkpt lat="45.8216235" lon="11.7421986"><ele>848.0</ele><time>2026-04-06T12:37:19.592Z</time></trkpt><trkpt lat="45.8217133" lon="11.7422699"><ele>848.0</ele><time>2026-04-06T12:37:20.596Z</time></trkpt><trkpt lat="45.8218191" lon="11.7422916"><ele>848.0</ele><time>2026-04-06T12:37:21.589Z</time></trkpt><trkpt lat="45.8219344" lon="11.7422834"><ele>848.0</ele><time>2026-04-06T12:37:22.596Z</time></trkpt><trkpt lat="45.8220493" lon="11.7422771"><ele>848.0</ele><time>2026-04-06T12:37:23.593Z</time></trkpt><trkpt lat="45.8221582" lon="11.7423054"><ele>850.0</ele><time>2026-04-06T12:37:24.598Z</time></trkpt><trkpt lat="45.8222601" lon="11.7423753"><ele>852.0</ele><time>2026-04-06T12:37:25.589Z</time></trkpt><trkpt lat="45.8223619" lon="11.7424623"><ele>854.0</ele><time>2026-04-06T12:37:26.596Z</time></trkpt><trkpt lat="45.82248" lon="11.742548"><ele>856.0</ele><time>2026-04-06T12:37:27.589Z</time></trkpt><trkpt lat="45.8225961" lon="11.7426257"><ele>857.25</ele><time>2026-04-06T12:37:28.593Z</time></trkpt><trkpt lat="45.8227132" lon="11.7426896"><ele>858.5</ele><time>2026-04-06T12:37:29.591Z</time></trkpt><trkpt lat="45.8228391" lon="11.742723"><ele>859.75</ele><time>2026-04-06T12:37:30.592Z</time></trkpt><trkpt lat="45.8229715" lon="11.742727"><ele>861.0</ele><time>2026-04-06T12:37:31.591Z</time></trkpt><trkpt lat="45.823099" lon="11.7427155"><ele>861.0</ele><time>2026-04-06T12:37:32.591Z</time></trkpt><trkpt lat="45.8232168" lon="11.7426927"><ele>861.0</ele><time>2026-04-06T12:37:33.59Z</time></trkpt><trkpt lat="45.82333" lon="11.7426347"><ele>861.0</ele><time>2026-04-06T12:37:34.596Z</time></trkpt><trkpt lat="45.8234398" lon="11.7425588"><ele>861.0</ele><time>2026-04-06T12:37:35.597Z</time></trkpt><trkpt lat="45.8235158" lon="11.7424112"><ele>857.5</ele><time>2026-04-06T12:37:36.588Z</time></trkpt><trkpt lat="45.8235866" lon="11.7422406"><ele>854.0</ele><time>2026-04-06T12:37:37.592Z</time></trkpt><trkpt lat="45.8236518" lon="11.7420645"><ele>850.5</ele><time>2026-04-06T12:37:38.592Z</time></trkpt><trkpt lat="45.8237245" lon="11.7419063"><ele>847.0</ele><time>2026-04-06T12:37:39.595Z</time></trkpt><trkpt lat="45.8238103" lon="11.7417643"><ele>847.0</ele><time>2026-04-06T12:37:40.591Z</time></trkpt><trkpt lat="45.8239017" lon="11.7416278"><ele>847.0</ele><time>2026-04-06T12:37:41.593Z</time></trkpt><trkpt lat="45.8239732" lon="11.7414688"><ele>847.0</ele><time>2026-04-06T12:37:42.589Z</time></trkpt><trkpt lat="45.8240076" lon="11.7412825"><ele>847.0</ele><time>2026-04-06T12:37:43.594Z</time></trkpt><trkpt lat="45.8240256" lon="11.7410793"><ele>847.5</ele><time>2026-04-06T12:37:44.606Z</time></trkpt><trkpt lat="45.8240352" lon="11.7408848"><ele>848.0</ele><time>2026-04-06T12:37:45.594Z</time></trkpt><trkpt lat="45.8240475" lon="11.7407021"><ele>848.5</ele><time>2026-04-06T12:37:46.595Z</time></trkpt><trkpt lat="45.8240514" lon="11.7405133"><ele>849.0</ele><time>2026-04-06T12:37:47.594Z</time></trkpt><trkpt lat="45.8240855" lon="11.7403159"><ele>851.25</ele><time>2026-04-06T12:37:48.594Z</time></trkpt><trkpt lat="45.824121" lon="11.7401228"><ele>853.5</ele><time>2026-04-06T12:37:49.595Z</time></trkpt><trkpt lat="45.824173" lon="11.7399081"><ele>855.75</ele><time>2026-04-06T12:37:50.591Z</time></trkpt><trkpt lat="45.8242044" lon="11.7396988"><ele>858.0</ele><time>2026-04-06T12:37:51.599Z</time></trkpt><trkpt lat="45.8242162" lon="11.7394838"><ele>858.75</ele><time>2026-04-06T12:37:52.594Z</time></trkpt><trkpt lat="45.8242179" lon="11.7392702"><ele>859.5</ele><time>2026-04-06T12:37:53.587Z</time></trkpt><trkpt lat="45.8242448" lon="11.7390728"><ele>860.25</ele><time>2026-04-06T12:37:54.596Z</time></trkpt><trkpt lat="45.8242886" lon="11.7388988"><ele>861.0</ele><time>2026-04-06T12:37:55.59Z</time></trkpt><trkpt lat="45.8243305" lon="11.7387325"><ele>861.0</ele><time>2026-04-06T12:37:56.594Z</time></trkpt><trkpt lat="45.8243695" lon="11.7385744"><ele>860.9999999999999</ele><time>2026-04-06T12:37:57.598Z</time></trkpt><trkpt lat="45.8243783" lon="11.7384184"><ele>860.9999999999999</ele><time>2026-04-06T12:37:58.597Z</time></trkpt><trkpt lat="45.8243661" lon="11.7382738"><ele>861.0</ele><time>2026-04-06T12:37:59.599Z</time></trkpt><trkpt lat="45.8243252" lon="11.7381394"><ele>861.0</ele><time>2026-04-06T12:38:00.598Z</time></trkpt><trkpt lat="45.8242753" lon="11.738018"><ele>861.0</ele><time>2026-04-06T12:38:01.598Z</time></trkpt><trkpt lat="45.8242225" lon="11.7379063"><ele>861.0</ele><time>2026-04-06T12:38:02.594Z</time></trkpt><trkpt lat="45.8241572" lon="11.7378172"><ele>861.0</ele><time>2026-04-06T12:38:03.598Z</time></trkpt><trkpt lat="45.8240991" lon="11.7377419"><ele>861.0</ele><time>2026-04-06T12:38:04.595Z</time></trkpt><trkpt lat="45.8240395" lon="11.7376668"><ele>861.0</ele><time>2026-04-06T12:38:05.592Z</time></trkpt><trkpt lat="45.8239809" lon="11.7375973"><ele>861.0</ele><time>2026-04-06T12:38:06.592Z</time></trkpt><trkpt lat="45.8239081" lon="11.7375182"><ele>860.1666666666666</ele><time>2026-04-06T12:38:07.592Z</time></trkpt><trkpt lat="45.8238462" lon="11.7374254"><ele>859.3333333333333</ele><time>2026-04-06T12:38:08.595Z</time></trkpt><trkpt lat="45.8238143" lon="11.73732"><ele>858.5</ele><time>2026-04-06T12:38:09.593Z</time></trkpt><trkpt lat="45.8238243" lon="11.7372157"><ele>857.6666666666666</ele><time>2026-04-06T12:38:10.598Z</time></trkpt><trkpt lat="45.823866" lon="11.7371352"><ele>856.8333333333333</ele><time>2026-04-06T12:38:11.598Z</time></trkpt><trkpt lat="45.823922" lon="11.7370729"><ele>856.0</ele><time>2026-04-06T12:38:12.599Z</time></trkpt><trkpt lat="45.8239912" lon="11.7370264"><ele>855.9999999999999</ele><time>2026-04-06T12:38:13.599Z</time></trkpt><trkpt lat="45.8240599" lon="11.7369808"><ele>856.0</ele><time>2026-04-06T12:38:14.597Z</time></trkpt><trkpt lat="45.8241339" lon="11.7369417"><ele>856.0</ele><time>2026-04-06T12:38:15.597Z</time></trkpt><trkpt lat="45.8242124" lon="11.7369182"><ele>856.0</ele><time>2026-04-06T12:38:16.597Z</time></trkpt><trkpt lat="45.8242933" lon="11.7369063"><ele>855.9999999999999</ele><time>2026-04-06T12:38:17.597Z</time></trkpt><trkpt lat="45.8243756" lon="11.7369705"><ele>856.0</ele><time>2026-04-06T12:38:18.601Z</time></trkpt><trkpt lat="45.8244731" lon="11.7370379"><ele>856.4</ele><time>2026-04-06T12:38:19.595Z</time></trkpt><trkpt lat="45.8245648" lon="11.7371107"><ele>856.8</ele><time>2026-04-06T12:38:20.593Z</time></trkpt><trkpt lat="45.8246572" lon="11.7371885"><ele>857.1999999999999</ele><time>2026-04-06T12:38:21.595Z</time></trkpt><trkpt lat="45.8247468" lon="11.7372665"><ele>857.5999999999999</ele><time>2026-04-06T12:38:22.594Z</time></trkpt><trkpt lat="45.8248394" lon="11.7373473"><ele>858.0</ele><time>2026-04-06T12:38:23.596Z</time></trkpt><trkpt lat="45.8249214" lon="11.7374419"><ele>858.0</ele><time>2026-04-06T12:38:24.597Z</time></trkpt><trkpt lat="45.8249941" lon="11.7375506"><ele>858.0</ele><time>2026-04-06T12:38:25.594Z</time></trkpt><trkpt lat="45.8250567" lon="11.737669"><ele>858.0</ele><time>2026-04-06T12:38:26.59Z</time></trkpt><trkpt lat="45.8251069" lon="11.7377935"><ele>858.0</ele><time>2026-04-06T12:38:27.598Z</time></trkpt><trkpt lat="45.8251528" lon="11.737922"><ele>858.0</ele><time>2026-04-06T12:38:28.599Z</time></trkpt><trkpt lat="45.8252047" lon="11.7380354"><ele>861.4</ele><time>2026-04-06T12:38:29.598Z</time></trkpt><trkpt lat="45.8252678" lon="11.7381288"><ele>864.8</ele><time>2026-04-06T12:38:30.599Z</time></trkpt><trkpt lat="45.8253402" lon="11.7381999"><ele>868.2</ele><time>2026-04-06T12:38:31.593Z</time></trkpt><trkpt lat="45.8254221" lon="11.7382572"><ele>871.6</ele><time>2026-04-06T12:38:32.604Z</time></trkpt><trkpt lat="45.8255038" lon="11.7383107"><ele>875.0</ele><time>2026-04-06T12:38:33.599Z</time></trkpt><trkpt lat="45.825585" lon="11.7383723"><ele>875.0</ele><time>2026-04-06T12:38:34.597Z</time></trkpt><trkpt lat="45.8256534" lon="11.7384671"><ele>875.0</ele><time>2026-04-06T12:38:35.593Z</time></trkpt><trkpt lat="45.8257099" lon="11.7385846"><ele>875.0</ele><time>2026-04-06T12:38:36.601Z</time></trkpt><trkpt lat="45.8257584" lon="11.7386944"><ele>875.0</ele><time>2026-04-06T12:38:37.598Z</time></trkpt><trkpt lat="45.8257988" lon="11.7388158"><ele>875.0</ele><time>2026-04-06T12:38:38.598Z</time></trkpt><trkpt lat="45.8258454" lon="11.7389314"><ele>874.4</ele><time>2026-04-06T12:38:39.589Z</time></trkpt><trkpt lat="45.8259063" lon="11.7390612"><ele>873.8</ele><time>2026-04-06T12:38:40.585Z</time></trkpt><trkpt lat="45.8259762" lon="11.739198"><ele>873.2</ele><time>2026-04-06T12:38:41.587Z</time></trkpt><trkpt lat="45.8260313" lon="11.7393121"><ele>872.6</ele><time>2026-04-06T12:38:42.596Z</time></trkpt><trkpt lat="45.8260672" lon="11.73943"><ele>872.0</ele><time>2026-04-06T12:38:43.591Z</time></trkpt><trkpt lat="45.8260798" lon="11.7395712"><ele>879.4000000000001</ele><time>2026-04-06T12:38:44.591Z</time></trkpt><trkpt lat="45.8260887" lon="11.7397158"><ele>886.8000000000001</ele><time>2026-04-06T12:38:45.596Z</time></trkpt><trkpt lat="45.826094" lon="11.739878"><ele>894.2</ele><time>2026-04-06T12:38:46.592Z</time></trkpt><trkpt lat="45.826102" lon="11.7400403"><ele>901.6</ele><time>2026-04-06T12:38:47.591Z</time></trkpt><trkpt lat="45.8261158" lon="11.7402"><ele>909.0</ele><time>2026-04-06T12:38:48.595Z</time></trkpt><trkpt lat="45.8261338" lon="11.7403586"><ele>909.75</ele><time>2026-04-06T12:38:49.594Z</time></trkpt><trkpt lat="45.8261549" lon="11.7405192"><ele>910.5</ele><time>2026-04-06T12:38:50.596Z</time></trkpt><trkpt lat="45.8261752" lon="11.7406785"><ele>911.25</ele><time>2026-04-06T12:38:51.588Z</time></trkpt><trkpt lat="45.826196" lon="11.740847"><ele>912.0</ele><time>2026-04-06T12:38:52.597Z</time></trkpt><trkpt lat="45.8262203" lon="11.74101"><ele>910.6</ele><time>2026-04-06T12:38:53.595Z</time></trkpt><trkpt lat="45.8262525" lon="11.7411624"><ele>909.2</ele><time>2026-04-06T12:38:54.591Z</time></trkpt><trkpt lat="45.8262951" lon="11.7413033"><ele>907.8</ele><time>2026-04-06T12:38:55.6Z</time></trkpt><trkpt lat="45.8263392" lon="11.7414408"><ele>906.4</ele><time>2026-04-06T12:38:56.593Z</time></trkpt><trkpt lat="45.8263868" lon="11.7415797"><ele>905.0</ele><time>2026-04-06T12:38:57.592Z</time></trkpt><trkpt lat="45.8264352" lon="11.7417153"><ele>905.0</ele><time>2026-04-06T12:38:58.592Z</time></trkpt><trkpt lat="45.8264893" lon="11.7418466"><ele>905.0</ele><time>2026-04-06T12:38:59.598Z</time></trkpt><trkpt lat="45.8265406" lon="11.7419774"><ele>905.0</ele><time>2026-04-06T12:39:00.595Z</time></trkpt><trkpt lat="45.8265956" lon="11.7421068"><ele>905.0</ele><time>2026-04-06T12:39:01.59Z</time></trkpt><trkpt lat="45.8266561" lon="11.7422224"><ele>905.0</ele><time>2026-04-06T12:39:02.595Z</time></trkpt><trkpt lat="45.8267225" lon="11.7423167"><ele>906.0</ele><time>2026-04-06T12:39:03.595Z</time></trkpt><trkpt lat="45.8267983" lon="11.7424015"><ele>907.0</ele><time>2026-04-06T12:39:04.592Z</time></trkpt><trkpt lat="45.8268813" lon="11.7424766"><ele>908.0</ele><time>2026-04-06T12:39:05.591Z</time></trkpt><trkpt lat="45.8269637" lon="11.7425495"><ele>909.0</ele><time>2026-04-06T12:39:06.601Z</time></trkpt><trkpt lat="45.8270546" lon="11.7426173"><ele>910.0</ele><time>2026-04-06T12:39:07.591Z</time></trkpt><trkpt lat="45.8271529" lon="11.7426627"><ele>910.0</ele><time>2026-04-06T12:39:08.591Z</time></trkpt><trkpt lat="45.8272612" lon="11.7426808"><ele>910.0</ele><time>2026-04-06T12:39:09.59Z</time></trkpt><trkpt lat="45.8273716" lon="11.7426846"><ele>910.0</ele><time>2026-04-06T12:39:10.593Z</time></trkpt><trkpt lat="45.827479" lon="11.7426844"><ele>910.0</ele><time>2026-04-06T12:39:11.59Z</time></trkpt><trkpt lat="45.8275888" lon="11.7426659"><ele>910.0</ele><time>2026-04-06T12:39:12.599Z</time></trkpt><trkpt lat="45.82769" lon="11.7426377"><ele>913.2</ele><time>2026-04-06T12:39:13.587Z</time></trkpt><trkpt lat="45.827787" lon="11.7426057"><ele>916.4</ele><time>2026-04-06T12:39:14.587Z</time></trkpt><trkpt lat="45.827883" lon="11.7425734"><ele>919.5999999999999</ele><time>2026-04-06T12:39:15.587Z</time></trkpt><trkpt lat="45.8279787" lon="11.7425404"><ele>922.8</ele><time>2026-04-06T12:39:16.593Z</time></trkpt><trkpt lat="45.8280651" lon="11.7425225"><ele>926.0</ele><time>2026-04-06T12:39:17.59Z</time></trkpt><trkpt lat="45.8281394" lon="11.7425288"><ele>926.0000000000001</ele><time>2026-04-06T12:39:18.596Z</time></trkpt><trkpt lat="45.8282073" lon="11.7425602"><ele>926.0</ele><time>2026-04-06T12:39:19.588Z</time></trkpt><trkpt lat="45.8282724" lon="11.7426222"><ele>926.0</ele><time>2026-04-06T12:39:20.59Z</time></trkpt><trkpt lat="45.8283412" lon="11.7426879"><ele>926.0</ele><time>2026-04-06T12:39:21.588Z</time></trkpt><trkpt lat="45.8283947" lon="11.7427847"><ele>926.0000000000001</ele><time>2026-04-06T12:39:22.596Z</time></trkpt><trkpt lat="45.8284178" lon="11.7429046"><ele>926.0</ele><time>2026-04-06T12:39:23.594Z</time></trkpt><trkpt lat="45.828433" lon="11.7430338"><ele>925.4</ele><time>2026-04-06T12:39:24.588Z</time></trkpt><trkpt lat="45.8284453" lon="11.7431713"><ele>924.8</ele><time>2026-04-06T12:39:25.587Z</time></trkpt><trkpt lat="45.8284613" lon="11.7433013"><ele>924.1999999999999</ele><time>2026-04-06T12:39:26.591Z</time></trkpt><trkpt lat="45.8284637" lon="11.743433"><ele>923.5999999999999</ele><time>2026-04-06T12:39:27.598Z</time></trkpt><trkpt lat="45.8284601" lon="11.7435613"><ele>923.0</ele><time>2026-04-06T12:39:28.599Z</time></trkpt><trkpt lat="45.8284543" lon="11.743686"><ele>922.8</ele><time>2026-04-06T12:39:29.591Z</time></trkpt><trkpt lat="45.8284514" lon="11.7438197"><ele>922.5999999999999</ele><time>2026-04-06T12:39:30.593Z</time></trkpt><trkpt lat="45.8284498" lon="11.7439559"><ele>922.4000000000001</ele><time>2026-04-06T12:39:31.593Z</time></trkpt><trkpt lat="45.8284647" lon="11.7441224"><ele>922.2</ele><time>2026-04-06T12:39:32.594Z</time></trkpt><trkpt lat="45.8284896" lon="11.744276"><ele>922.0</ele><time>2026-04-06T12:39:33.595Z</time></trkpt><trkpt lat="45.8285195" lon="11.7444077"><ele>926.4000000000001</ele><time>2026-04-06T12:39:34.594Z</time></trkpt><trkpt lat="45.8285566" lon="11.7445275"><ele>930.8000000000001</ele><time>2026-04-06T12:39:35.593Z</time></trkpt><trkpt lat="45.8285933" lon="11.7446452"><ele>935.2</ele><time>2026-04-06T12:39:36.592Z</time></trkpt><trkpt lat="45.8286345" lon="11.7447575"><ele>939.6</ele><time>2026-04-06T12:39:37.589Z</time></trkpt><trkpt lat="45.8286837" lon="11.7448657"><ele>944.0</ele><time>2026-04-06T12:39:38.593Z</time></trkpt><trkpt lat="45.8287447" lon="11.7449604"><ele>944.0</ele><time>2026-04-06T12:39:39.595Z</time></trkpt><trkpt lat="45.8288175" lon="11.7450475"><ele>944.0000000000001</ele><time>2026-04-06T12:39:40.592Z</time></trkpt><trkpt lat="45.8288988" lon="11.7451255"><ele>944.0000000000001</ele><time>2026-04-06T12:39:41.595Z</time></trkpt><trkpt lat="45.8289786" lon="11.7452017"><ele>944.0</ele><time>2026-04-06T12:39:42.597Z</time></trkpt><trkpt lat="45.8290657" lon="11.7452631"><ele>944.0</ele><time>2026-04-06T12:39:43.593Z</time></trkpt><trkpt lat="45.8291664" lon="11.745297"><ele>942.0000000000001</ele><time>2026-04-06T12:39:44.586Z</time></trkpt><trkpt lat="45.8292608" lon="11.7453278"><ele>940.0</ele><time>2026-04-06T12:39:45.593Z</time></trkpt><trkpt lat="45.8293477" lon="11.7453351"><ele>938.0</ele><time>2026-04-06T12:39:46.591Z</time></trkpt><trkpt lat="45.8294259" lon="11.745336"><ele>936.0</ele><time>2026-04-06T12:39:47.596Z</time></trkpt><trkpt lat="45.8294997" lon="11.7453285"><ele>934.0000000000001</ele><time>2026-04-06T12:39:48.605Z</time></trkpt><trkpt lat="45.8295719" lon="11.7453263"><ele>932.0</ele><time>2026-04-06T12:39:49.591Z</time></trkpt><trkpt lat="45.8296405" lon="11.7453269"><ele>932.0</ele><time>2026-04-06T12:39:50.593Z</time></trkpt><trkpt lat="45.8297054" lon="11.7453348"><ele>932.0</ele><time>2026-04-06T12:39:51.592Z</time></trkpt><trkpt lat="45.8297677" lon="11.74537"><ele>932.0</ele><time>2026-04-06T12:39:52.598Z</time></trkpt><trkpt lat="45.8298511" lon="11.7454097"><ele>932.0</ele><time>2026-04-06T12:39:54.594Z</time></trkpt><trkpt lat="45.8299279" lon="11.7453952"><ele>932.0</ele><time>2026-04-06T12:39:56.602Z</time></trkpt><trkpt lat="45.8299781" lon="11.7453246"><ele>932.0</ele><time>2026-04-06T12:39:58.597Z</time></trkpt><trkpt lat="45.8299617" lon="11.7452185"><ele>932.0</ele><time>2026-04-06T12:40:00.59Z</time></trkpt><trkpt lat="45.829839" lon="11.7451549"><ele>935.4000000000001</ele><time>2026-04-06T12:40:02.594Z</time></trkpt><trkpt lat="45.8297465" lon="11.7451412"><ele>938.8000000000001</ele><time>2026-04-06T12:40:03.591Z</time></trkpt><trkpt lat="45.8296471" lon="11.745126"><ele>942.2</ele><time>2026-04-06T12:40:04.593Z</time></trkpt><trkpt lat="45.8295392" lon="11.7451063"><ele>945.6</ele><time>2026-04-06T12:40:05.595Z</time></trkpt><trkpt lat="45.8294334" lon="11.7450565"><ele>949.0</ele><time>2026-04-06T12:40:06.597Z</time></trkpt><trkpt lat="45.8293266" lon="11.7450047"><ele>948.0</ele><time>2026-04-06T12:40:07.59Z</time></trkpt><trkpt lat="45.8292228" lon="11.7449196"><ele>947.0000000000001</ele><time>2026-04-06T12:40:08.59Z</time></trkpt><trkpt lat="45.8291267" lon="11.7448292"><ele>946.0000000000001</ele><time>2026-04-06T12:40:09.591Z</time></trkpt><trkpt lat="45.8290504" lon="11.7447133"><ele>945.0</ele><time>2026-04-06T12:40:10.597Z</time></trkpt><trkpt lat="45.8290068" lon="11.7445901"><ele>944.0</ele><time>2026-04-06T12:40:11.592Z</time></trkpt><trkpt lat="45.8289933" lon="11.7444534"><ele>947.6</ele><time>2026-04-06T12:40:12.593Z</time></trkpt><trkpt lat="45.8289981" lon="11.7443007"><ele>951.2</ele><time>2026-04-06T12:40:13.599Z</time></trkpt><trkpt lat="45.8290029" lon="11.7441446"><ele>954.8000000000001</ele><time>2026-04-06T12:40:14.604Z</time></trkpt><trkpt lat="45.8290065" lon="11.743982"><ele>958.4000000000001</ele><time>2026-04-06T12:40:15.597Z</time></trkpt><trkpt lat="45.8290143" lon="11.7438242"><ele>962.0</ele><time>2026-04-06T12:40:16.597Z</time></trkpt><trkpt lat="45.8290212" lon="11.7436683"><ele>962.5</ele><time>2026-04-06T12:40:17.592Z</time></trkpt><trkpt lat="45.8290436" lon="11.7435063"><ele>963.0</ele><time>2026-04-06T12:40:18.597Z</time></trkpt><trkpt lat="45.8290736" lon="11.7433429"><ele>963.5</ele><time>2026-04-06T12:40:19.592Z</time></trkpt><trkpt lat="45.829101" lon="11.743183"><ele>964.0</ele><time>2026-04-06T12:40:20.61Z</time></trkpt><trkpt lat="45.829133" lon="11.7430322"><ele>964.0</ele><time>2026-04-06T12:40:21.594Z</time></trkpt><trkpt lat="45.8291635" lon="11.7428888"><ele>964.0000000000001</ele><time>2026-04-06T12:40:22.593Z</time></trkpt><trkpt lat="45.8292094" lon="11.74275"><ele>964.0000000000001</ele><time>2026-04-06T12:40:23.598Z</time></trkpt><trkpt lat="45.8292592" lon="11.7426148"><ele>964.0</ele><time>2026-04-06T12:40:24.599Z</time></trkpt><trkpt lat="45.8293087" lon="11.7424748"><ele>964.0</ele><time>2026-04-06T12:40:25.59Z</time></trkpt><trkpt lat="45.8293522" lon="11.7423284"><ele>969.6</ele><time>2026-04-06T12:40:26.593Z</time></trkpt><trkpt lat="45.829392" lon="11.7421785"><ele>975.2</ele><time>2026-04-06T12:40:27.598Z</time></trkpt><trkpt lat="45.8294269" lon="11.7420325"><ele>980.8000000000001</ele><time>2026-04-06T12:40:28.592Z</time></trkpt><trkpt lat="45.8294599" lon="11.7418941"><ele>986.4000000000001</ele><time>2026-04-06T12:40:29.595Z</time></trkpt><trkpt lat="45.8294987" lon="11.7417557"><ele>992.0</ele><time>2026-04-06T12:40:30.6Z</time></trkpt><trkpt lat="45.8299617" lon="11.7452185"><ele>983.4000000000001</ele><time>2026-04-06T12:40:00.59Z</time></trkpt><trkpt lat="45.829839" lon="11.7451549"><ele>974.8000000000001</ele><time>2026-04-06T12:40:02.594Z</time></trkpt><trkpt lat="45.8297465" lon="11.7451412"><ele>966.2</ele><time>2026-04-06T12:40:03.591Z</time></trkpt><trkpt lat="45.8296471" lon="11.745126"><ele>957.6</ele><time>2026-04-06T12:40:04.593Z</time></trkpt><trkpt lat="45.8295392" lon="11.7451063"><ele>949.0</ele><time>2026-04-06T12:40:05.595Z</time></trkpt><trkpt lat="45.8294334" lon="11.7450565"><ele>949.0</ele><time>2026-04-06T12:40:06.597Z</time></trkpt><trkpt lat="45.8293266" lon="11.7450047"><ele>949.0</ele><time>2026-04-06T12:40:07.59Z</time></trkpt><trkpt lat="45.8292228" lon="11.7449196"><ele>949.0</ele><time>2026-04-06T12:40:08.59Z</time></trkpt><trkpt lat="45.8291267" lon="11.7448292"><ele>949.0</ele><time>2026-04-06T12:40:09.591Z</time></trkpt><trkpt lat="45.8290504" lon="11.7447133"><ele>948.0</ele><time>2026-04-06T12:40:10.597Z</time></trkpt><trkpt lat="45.8290068" lon="11.7445901"><ele>947.0000000000001</ele><time>2026-04-06T12:40:11.592Z</time></trkpt><trkpt lat="45.8289933" lon="11.7444534"><ele>946.0000000000001</ele><time>2026-04-06T12:40:12.593Z</time></trkpt><trkpt lat="45.8289981" lon="11.7443007"><ele>945.0</ele><time>2026-04-06T12:40:13.599Z</time></trkpt><trkpt lat="45.8290029" lon="11.7441446"><ele>944.0</ele><time>2026-04-06T12:40:14.604Z</time></trkpt><trkpt lat="45.8290065" lon="11.743982"><ele>948.5</ele><time>2026-04-06T12:40:15.597Z</time></trkpt><trkpt lat="45.8290143" lon="11.7438242"><ele>953.0</ele><time>2026-04-06T12:40:16.597Z</time></trkpt><trkpt lat="45.8290212" lon="11.7436683"><ele>957.5</ele><time>2026-04-06T12:40:17.592Z</time></trkpt><trkpt lat="45.8290436" lon="11.7435063"><ele>962.0</ele><time>2026-04-06T12:40:18.597Z</time></trkpt><trkpt lat="45.8290736" lon="11.7433429"><ele>962.4000000000001</ele><time>2026-04-06T12:40:19.592Z</time></trkpt><trkpt lat="45.829101" lon="11.743183"><ele>962.8000000000001</ele><time>2026-04-06T12:40:20.61Z</time></trkpt><trkpt lat="45.829133" lon="11.7430322"><ele>963.2</ele><time>2026-04-06T12:40:21.594Z</time></trkpt><trkpt lat="45.8291635" lon="11.7428888"><ele>963.6</ele><time>2026-04-06T12:40:22.593Z</time></trkpt><trkpt lat="45.8292094" lon="11.74275"><ele>964.0</ele><time>2026-04-06T12:40:23.598Z</time></trkpt><trkpt lat="45.8292592" lon="11.7426148"><ele>963.2</ele><time>2026-04-06T12:40:24.599Z</time></trkpt><trkpt lat="45.8293087" lon="11.7424748"><ele>962.4000000000001</ele><time>2026-04-06T12:40:25.59Z</time></trkpt><trkpt lat="45.8293522" lon="11.7423284"><ele>961.6</ele><time>2026-04-06T12:40:26.593Z</time></trkpt><trkpt lat="45.829392" lon="11.7421785"><ele>960.8</ele><time>2026-04-06T12:40:27.598Z</time></trkpt><trkpt lat="45.8294269" lon="11.7420325"><ele>960.0</ele><time>2026-04-06T12:40:28.592Z</time></trkpt><trkpt lat="45.8294599" lon="11.7418941"><ele>966.4</ele><time>2026-04-06T12:40:29.595Z</time></trkpt><trkpt lat="45.8294987" lon="11.7417557"><ele>972.8</ele><time>2026-04-06T12:40:30.6Z</time></trkpt><trkpt lat="45.8295436" lon="11.7416266"><ele>979.2</ele><time>2026-04-06T12:40:31.595Z</time></trkpt><trkpt lat="45.8295947" lon="11.7415062"><ele>985.6</ele><time>2026-04-06T12:40:32.597Z</time></trkpt><trkpt lat="45.8296501" lon="11.7413903"><ele>992.0</ele><time>2026-04-06T12:40:33.594Z</time></trkpt><trkpt lat="45.8297076" lon="11.7412782"><ele>992.0000000000001</ele><time>2026-04-06T12:40:34.593Z</time></trkpt><trkpt lat="45.8297566" lon="11.7411648"><ele>992.0</ele><time>2026-04-06T12:40:35.596Z</time></trkpt><trkpt lat="45.829787" lon="11.741046"><ele>992.0</ele><time>2026-04-06T12:40:36.593Z</time></trkpt><trkpt lat="45.829815" lon="11.7409315"><ele>992.0</ele><time>2026-04-06T12:40:37.593Z</time></trkpt><trkpt lat="45.8297692" lon="11.7408353"><ele>992.0000000000001</ele><time>2026-04-06T12:40:38.6Z</time></trkpt><trkpt lat="45.8296963" lon="11.7407814"><ele>992.0</ele><time>2026-04-06T12:40:39.593Z</time></trkpt><trkpt lat="45.8296129" lon="11.7407325"><ele>991.25</ele><time>2026-04-06T12:40:40.598Z</time></trkpt><trkpt lat="45.8295038" lon="11.7407508"><ele>990.5</ele><time>2026-04-06T12:40:41.599Z</time></trkpt><trkpt lat="45.8293865" lon="11.740773"><ele>989.75</ele><time>2026-04-06T12:40:42.588Z</time></trkpt><trkpt lat="45.8292465" lon="11.7407834"><ele>989.0</ele><time>2026-04-06T12:40:43.594Z</time></trkpt><trkpt lat="45.8290987" lon="11.7407477"><ele>985.25</ele><time>2026-04-06T12:40:44.591Z</time></trkpt><trkpt lat="45.8289617" lon="11.7407139"><ele>981.5</ele><time>2026-04-06T12:40:45.59Z</time></trkpt><trkpt lat="45.828838" lon="11.7407046"><ele>977.75</ele><time>2026-04-06T12:40:46.589Z</time></trkpt><trkpt lat="45.8287262" lon="11.7406959"><ele>974.0</ele><time>2026-04-06T12:40:47.598Z</time></trkpt><trkpt lat="45.8286189" lon="11.7406827"><ele>974.0</ele><time>2026-04-06T12:40:48.611Z</time></trkpt><trkpt lat="45.8285152" lon="11.7406693"><ele>974.0000000000001</ele><time>2026-04-06T12:40:49.595Z</time></trkpt><trkpt lat="45.8284154" lon="11.740648"><ele>974.0000000000001</ele><time>2026-04-06T12:40:50.594Z</time></trkpt><trkpt lat="45.8283286" lon="11.7406045"><ele>974.0</ele><time>2026-04-06T12:40:51.595Z</time></trkpt><trkpt lat="45.8282454" lon="11.7405612"><ele>974.0</ele><time>2026-04-06T12:40:52.604Z</time></trkpt><trkpt lat="45.8281856" lon="11.7404688"><ele>973.8333333333334</ele><time>2026-04-06T12:40:53.598Z</time></trkpt><trkpt lat="45.8281474" lon="11.7403591"><ele>973.6666666666667</ele><time>2026-04-06T12:40:54.594Z</time></trkpt><trkpt lat="45.8281228" lon="11.7402406"><ele>973.5</ele><time>2026-04-06T12:40:55.595Z</time></trkpt><trkpt lat="45.8281126" lon="11.7401208"><ele>973.3333333333333</ele><time>2026-04-06T12:40:56.594Z</time></trkpt><trkpt lat="45.8281174" lon="11.7400015"><ele>973.1666666666666</ele><time>2026-04-06T12:40:57.595Z</time></trkpt><trkpt lat="45.8281403" lon="11.7398939"><ele>973.0</ele><time>2026-04-06T12:40:58.593Z</time></trkpt><trkpt lat="45.8281795" lon="11.7397987"><ele>974.4999999999999</ele><time>2026-04-06T12:40:59.596Z</time></trkpt><trkpt lat="45.8282313" lon="11.7397063"><ele>976.0</ele><time>2026-04-06T12:41:00.598Z</time></trkpt><trkpt lat="45.8282888" lon="11.7396173"><ele>977.5</ele><time>2026-04-06T12:41:01.596Z</time></trkpt><trkpt lat="45.8283385" lon="11.7395172"><ele>979.0</ele><time>2026-04-06T12:41:02.601Z</time></trkpt><trkpt lat="45.8283857" lon="11.7394165"><ele>980.4999999999999</ele><time>2026-04-06T12:41:03.599Z</time></trkpt><trkpt lat="45.8284008" lon="11.7392974"><ele>982.0</ele><time>2026-04-06T12:41:04.596Z</time></trkpt><trkpt lat="45.8283992" lon="11.7391664"><ele>983.4000000000001</ele><time>2026-04-06T12:41:05.596Z</time></trkpt><trkpt lat="45.8283845" lon="11.7390399"><ele>984.8000000000001</ele><time>2026-04-06T12:41:06.604Z</time></trkpt><trkpt lat="45.8283582" lon="11.7389097"><ele>986.2</ele><time>2026-04-06T12:41:07.595Z</time></trkpt><trkpt lat="45.8283309" lon="11.738782"><ele>987.6</ele><time>2026-04-06T12:41:08.597Z</time></trkpt><trkpt lat="45.8283003" lon="11.7386582"><ele>989.0</ele><time>2026-04-06T12:41:09.594Z</time></trkpt><trkpt lat="45.8282611" lon="11.7385314"><ele>991.0</ele><time>2026-04-06T12:41:10.603Z</time></trkpt><trkpt lat="45.8282267" lon="11.7383999"><ele>993.0000000000001</ele><time>2026-04-06T12:41:11.598Z</time></trkpt><trkpt lat="45.8282015" lon="11.7382638"><ele>995.0000000000001</ele><time>2026-04-06T12:41:12.604Z</time></trkpt><trkpt lat="45.8281815" lon="11.7381269"><ele>997.0</ele><time>2026-04-06T12:41:13.594Z</time></trkpt><trkpt lat="45.8281663" lon="11.7379905"><ele>999.0</ele><time>2026-04-06T12:41:14.6Z</time></trkpt><trkpt lat="45.8281609" lon="11.7378537"><ele>999.6</ele><time>2026-04-06T12:41:15.595Z</time></trkpt><trkpt lat="45.8281639" lon="11.7377181"><ele>1000.2</ele><time>2026-04-06T12:41:16.603Z</time></trkpt><trkpt lat="45.8281729" lon="11.7375838"><ele>1000.8000000000001</ele><time>2026-04-06T12:41:17.592Z</time></trkpt><trkpt lat="45.8281882" lon="11.7374492"><ele>1001.4000000000001</ele><time>2026-04-06T12:41:18.591Z</time></trkpt><trkpt lat="45.8282141" lon="11.7373132"><ele>1002.0</ele><time>2026-04-06T12:41:19.595Z</time></trkpt><trkpt lat="45.8282489" lon="11.7371849"><ele>1002.0</ele><time>2026-04-06T12:41:20.598Z</time></trkpt><trkpt lat="45.8282942" lon="11.7370678"><ele>1002.0</ele><time>2026-04-06T12:41:21.599Z</time></trkpt><trkpt lat="45.8283487" lon="11.736964"><ele>1002.0</ele><time>2026-04-06T12:41:22.59Z</time></trkpt><trkpt lat="45.8284024" lon="11.7368655"><ele>1002.0</ele><time>2026-04-06T12:41:23.594Z</time></trkpt><trkpt lat="45.8284793" lon="11.7368042"><ele>1002.0</ele><time>2026-04-06T12:41:24.605Z</time></trkpt><trkpt lat="45.828569" lon="11.7367621"><ele>1001.8</ele><time>2026-04-06T12:41:25.597Z</time></trkpt><trkpt lat="45.8286663" lon="11.7367386"><ele>1001.6</ele><time>2026-04-06T12:41:26.604Z</time></trkpt><trkpt lat="45.828771" lon="11.7367273"><ele>1001.3999999999999</ele><time>2026-04-06T12:41:27.594Z</time></trkpt><trkpt lat="45.8288837" lon="11.7367211"><ele>1001.1999999999999</ele><time>2026-04-06T12:41:28.602Z</time></trkpt><trkpt lat="45.8290016" lon="11.736723"><ele>1001.0</ele><time>2026-04-06T12:41:29.59Z</time></trkpt><trkpt lat="45.8291187" lon="11.7367279"><ele>1001.0</ele><time>2026-04-06T12:41:30.592Z</time></trkpt><trkpt lat="45.8292327" lon="11.7367526"><ele>1001.0</ele><time>2026-04-06T12:41:31.601Z</time></trkpt><trkpt lat="45.829349" lon="11.7367845"><ele>1001.0</ele><time>2026-04-06T12:41:32.598Z</time></trkpt><trkpt lat="45.8294751" lon="11.7368101"><ele>1001.0</ele><time>2026-04-06T12:41:33.593Z</time></trkpt><trkpt lat="45.8296236" lon="11.7368349"><ele>999.0</ele><time>2026-04-06T12:41:34.6Z</time></trkpt><trkpt lat="45.8297896" lon="11.7368659"><ele>997.0</ele><time>2026-04-06T12:41:35.596Z</time></trkpt><trkpt lat="45.8299601" lon="11.7369045"><ele>995.0</ele><time>2026-04-06T12:41:36.595Z</time></trkpt><trkpt lat="45.8301282" lon="11.7369506"><ele>1004.0</ele><time>2026-04-06T12:41:37.593Z</time></trkpt><trkpt lat="45.8302844" lon="11.7369949"><ele>1013.0</ele><time>2026-04-06T12:41:38.597Z</time></trkpt><trkpt lat="45.8304264" lon="11.7370281"><ele>1022.0</ele><time>2026-04-06T12:41:39.592Z</time></trkpt><trkpt lat="45.8305648" lon="11.7370321"><ele>1031.0</ele><time>2026-04-06T12:41:40.592Z</time></trkpt><trkpt lat="45.8306986" lon="11.7370029"><ele>1031.0</ele><time>2026-04-06T12:41:41.601Z</time></trkpt><trkpt lat="45.8308243" lon="11.7369613"><ele>1031.0</ele><time>2026-04-06T12:41:42.605Z</time></trkpt><trkpt lat="45.8309424" lon="11.736933"><ele>1031.0</ele><time>2026-04-06T12:41:43.59Z</time></trkpt><trkpt lat="45.8310496" lon="11.7369096"><ele>1031.0</ele><time>2026-04-06T12:41:44.598Z</time></trkpt><trkpt lat="45.8311572" lon="11.7369295"><ele>1028.6</ele><time>2026-04-06T12:41:45.599Z</time></trkpt><trkpt lat="45.8312676" lon="11.7369443"><ele>1026.1999999999998</ele><time>2026-04-06T12:41:46.594Z</time></trkpt><trkpt lat="45.8313722" lon="11.7369267"><ele>1023.8000000000001</ele><time>2026-04-06T12:41:47.595Z</time></trkpt><trkpt lat="45.8314617" lon="11.7368654"><ele>1021.4000000000001</ele><time>2026-04-06T12:41:48.592Z</time></trkpt><trkpt lat="45.831541" lon="11.7367654"><ele>1019.0</ele><time>2026-04-06T12:41:49.589Z</time></trkpt><trkpt lat="45.8315959" lon="11.736634"><ele>1019.0</ele><time>2026-04-06T12:41:50.597Z</time></trkpt><trkpt lat="45.8316468" lon="11.7365017"><ele>1019.0000000000001</ele><time>2026-04-06T12:41:51.596Z</time></trkpt><trkpt lat="45.8316852" lon="11.7363565"><ele>1019.0000000000001</ele><time>2026-04-06T12:41:52.6Z</time></trkpt><trkpt lat="45.8317193" lon="11.7362228"><ele>1019.0</ele><time>2026-04-06T12:41:53.599Z</time></trkpt><trkpt lat="45.8317646" lon="11.7361037"><ele>1019.0</ele><time>2026-04-06T12:41:54.607Z</time></trkpt><trkpt lat="45.8318257" lon="11.7360253"><ele>1019.5000000000001</ele><time>2026-04-06T12:41:55.586Z</time></trkpt><trkpt lat="45.8318829" lon="11.7359705"><ele>1020.0</ele><time>2026-04-06T12:41:56.596Z</time></trkpt><trkpt lat="45.8319528" lon="11.7359639"><ele>1020.5</ele><time>2026-04-06T12:41:57.598Z</time></trkpt><trkpt lat="45.8320301" lon="11.7359683"><ele>1021.0</ele><time>2026-04-06T12:41:58.597Z</time></trkpt><trkpt lat="45.8321079" lon="11.7359825"><ele>1021.5000000000001</ele><time>2026-04-06T12:41:59.599Z</time></trkpt><trkpt lat="45.8322106" lon="11.7359732"><ele>1022.0</ele><time>2026-04-06T12:42:00.594Z</time></trkpt><trkpt lat="45.8323006" lon="11.7359675"><ele>1022.0000000000001</ele><time>2026-04-06T12:42:01.596Z</time></trkpt><trkpt lat="45.8323855" lon="11.7359453"><ele>1022.0</ele><time>2026-04-06T12:42:02.593Z</time></trkpt><trkpt lat="45.8324646" lon="11.7359209"><ele>1022.0</ele><time>2026-04-06T12:42:03.598Z</time></trkpt><trkpt lat="45.8325422" lon="11.7358753"><ele>1022.0</ele><time>2026-04-06T12:42:04.594Z</time></trkpt><trkpt lat="45.832602" lon="11.7358104"><ele>1022.0000000000001</ele><time>2026-04-06T12:42:05.595Z</time></trkpt><trkpt lat="45.8326494" lon="11.7357339"><ele>1022.0</ele><time>2026-04-06T12:42:06.593Z</time></trkpt><trkpt lat="45.8327212" lon="11.7355854"><ele>1021.5000000000001</ele><time>2026-04-06T12:42:08.597Z</time></trkpt><trkpt lat="45.8327574" lon="11.7354816"><ele>1021.0</ele><time>2026-04-06T12:42:09.589Z</time></trkpt><trkpt lat="45.8328026" lon="11.73539"><ele>1020.5</ele><time>2026-04-06T12:42:10.601Z</time></trkpt><trkpt lat="45.8328472" lon="11.7353054"><ele>1020.0</ele><time>2026-04-06T12:42:11.592Z</time></trkpt><trkpt lat="45.832902" lon="11.7352474"><ele>1019.5000000000001</ele><time>2026-04-06T12:42:12.593Z</time></trkpt><trkpt lat="45.8329699" lon="11.7352099"><ele>1019.0</ele><time>2026-04-06T12:42:13.595Z</time></trkpt><trkpt lat="45.8330467" lon="11.7351855"><ele>1019.0000000000001</ele><time>2026-04-06T12:42:14.594Z</time></trkpt><trkpt lat="45.833132" lon="11.7351642"><ele>1019.0</ele><time>2026-04-06T12:42:15.591Z</time></trkpt><trkpt lat="45.8332155" lon="11.7351423"><ele>1019.0</ele><time>2026-04-06T12:42:16.592Z</time></trkpt><trkpt lat="45.8332984" lon="11.7351169"><ele>1019.0</ele><time>2026-04-06T12:42:17.595Z</time></trkpt><trkpt lat="45.833384" lon="11.7350929"><ele>1019.0000000000001</ele><time>2026-04-06T12:42:18.598Z</time></trkpt><trkpt lat="45.8334652" lon="11.7350705"><ele>1019.0</ele><time>2026-04-06T12:42:19.593Z</time></trkpt><trkpt lat="45.8335458" lon="11.7350442"><ele>1019.5000000000001</ele><time>2026-04-06T12:42:20.595Z</time></trkpt><trkpt lat="45.8336258" lon="11.7350032"><ele>1020.0</ele><time>2026-04-06T12:42:21.597Z</time></trkpt><trkpt lat="45.8337043" lon="11.7349568"><ele>1020.5</ele><time>2026-04-06T12:42:22.595Z</time></trkpt><trkpt lat="45.8337792" lon="11.7348964"><ele>1021.0</ele><time>2026-04-06T12:42:23.593Z</time></trkpt><trkpt lat="45.8338478" lon="11.7348312"><ele>1021.5000000000001</ele><time>2026-04-06T12:42:24.604Z</time></trkpt><trkpt lat="45.8339213" lon="11.734749"><ele>1022.0</ele><time>2026-04-06T12:42:25.597Z</time></trkpt><trkpt lat="45.8339941" lon="11.7346641"><ele>1022.0</ele><time>2026-04-06T12:42:26.598Z</time></trkpt><trkpt lat="45.8340565" lon="11.7345782"><ele>1022.0</ele><time>2026-04-06T12:42:27.591Z</time></trkpt><trkpt lat="45.8341125" lon="11.7344961"><ele>1022.0</ele><time>2026-04-06T12:42:28.597Z</time></trkpt><trkpt lat="45.8341649" lon="11.7344198"><ele>1022.0</ele><time>2026-04-06T12:42:29.596Z</time></trkpt><trkpt lat="45.83421" lon="11.7343517"><ele>1022.0</ele><time>2026-04-06T12:42:30.603Z</time></trkpt><trkpt lat="45.834257" lon="11.7342862"><ele>1022.0</ele><time>2026-04-06T12:42:31.594Z</time></trkpt><trkpt lat="45.8343109" lon="11.7342204"><ele>1022.0</ele><time>2026-04-06T12:42:32.602Z</time></trkpt><trkpt lat="45.8343664" lon="11.734158"><ele>1022.0</ele><time>2026-04-06T12:42:33.602Z</time></trkpt><trkpt lat="45.834424" lon="11.7341082"><ele>1022.0</ele><time>2026-04-06T12:42:34.599Z</time></trkpt><trkpt lat="45.8344823" lon="11.7340731"><ele>1022.0</ele><time>2026-04-06T12:42:35.596Z</time></trkpt><trkpt lat="45.8345889" lon="11.7340217"><ele>1022.0</ele><time>2026-04-06T12:42:37.595Z</time></trkpt><trkpt lat="45.8346911" lon="11.7339858"><ele>1022.0</ele><time>2026-04-06T12:42:39.599Z</time></trkpt><trkpt lat="45.8347933" lon="11.733971"><ele>1022.0</ele><time>2026-04-06T12:42:41.601Z</time></trkpt><trkpt lat="45.8349036" lon="11.7340171"><ele>1022.0</ele><time>2026-04-06T12:42:43.605Z</time></trkpt><trkpt lat="45.8349817" lon="11.7341493"><ele>1022.0</ele><time>2026-04-06T12:42:45.606Z</time></trkpt><trkpt lat="45.8350056" lon="11.7342427"><ele>1022.0</ele><time>2026-04-06T12:42:46.606Z</time></trkpt><trkpt lat="45.8350246" lon="11.734344"><ele>1022.0</ele><time>2026-04-06T12:42:47.604Z</time></trkpt><trkpt lat="45.8350447" lon="11.7344427"><ele>1020.0</ele><time>2026-04-06T12:42:48.602Z</time></trkpt><trkpt lat="45.8350768" lon="11.7345349"><ele>1018.0</ele><time>2026-04-06T12:42:49.597Z</time></trkpt><trkpt lat="45.8351273" lon="11.7346256"><ele>1016.0</ele><time>2026-04-06T12:42:50.596Z</time></trkpt><trkpt lat="45.8352105" lon="11.7347205"><ele>1014.0</ele><time>2026-04-06T12:42:51.598Z</time></trkpt><trkpt lat="45.8353165" lon="11.7348172"><ele>1012.0</ele><time>2026-04-06T12:42:52.599Z</time></trkpt><trkpt lat="45.835428" lon="11.7349173"><ele>1011.0</ele><time>2026-04-06T12:42:53.592Z</time></trkpt><trkpt lat="45.8355435" lon="11.7350241"><ele>1010.0</ele><time>2026-04-06T12:42:54.6Z</time></trkpt><trkpt lat="45.835665" lon="11.735151"><ele>1009.0</ele><time>2026-04-06T12:42:55.595Z</time></trkpt><trkpt lat="45.8357796" lon="11.7353081"><ele>1008.0</ele><time>2026-04-06T12:42:56.598Z</time></trkpt><trkpt lat="45.8358912" lon="11.7354836"><ele>1006.0</ele><time>2026-04-06T12:42:57.593Z</time></trkpt><trkpt lat="45.8360049" lon="11.735661"><ele>1004.0</ele><time>2026-04-06T12:42:58.595Z</time></trkpt><trkpt lat="45.8361435" lon="11.7358051"><ele>1002.0</ele><time>2026-04-06T12:42:59.596Z</time></trkpt><trkpt lat="45.8363056" lon="11.7358986"><ele>1002.0</ele><time>2026-04-06T12:43:00.595Z</time></trkpt><trkpt lat="45.8364759" lon="11.7359539"><ele>1002.0</ele><time>2026-04-06T12:43:01.598Z</time></trkpt><trkpt lat="45.8366465" lon="11.7360023"><ele>1002.0</ele><time>2026-04-06T12:43:02.594Z</time></trkpt><trkpt lat="45.8368068" lon="11.736071"><ele>1002.3333333333333</ele><time>2026-04-06T12:43:03.604Z</time></trkpt><trkpt lat="45.8369663" lon="11.736157"><ele>1002.6666666666666</ele><time>2026-04-06T12:43:04.625Z</time></trkpt><trkpt lat="45.8371229" lon="11.7362363"><ele>1003.0</ele><time>2026-04-06T12:43:05.6Z</time></trkpt><trkpt lat="45.8372733" lon="11.7363044"><ele>1003.0</ele><time>2026-04-06T12:43:06.599Z</time></trkpt><trkpt lat="45.8374208" lon="11.7363763"><ele>1003.0</ele><time>2026-04-06T12:43:07.597Z</time></trkpt><trkpt lat="45.8375677" lon="11.7364531"><ele>1003.0</ele><time>2026-04-06T12:43:08.598Z</time></trkpt><trkpt lat="45.8376856" lon="11.7365728"><ele>1002.25</ele><time>2026-04-06T12:43:09.599Z</time></trkpt><trkpt lat="45.8377972" lon="11.7366706"><ele>1001.5</ele><time>2026-04-06T12:43:10.597Z</time></trkpt><trkpt lat="45.837921" lon="11.7367411"><ele>1000.75</ele><time>2026-04-06T12:43:11.602Z</time></trkpt><trkpt lat="45.8380535" lon="11.7367994"><ele>1000.0</ele><time>2026-04-06T12:43:12.601Z</time></trkpt><trkpt lat="45.8382189" lon="11.7367957"><ele>1000.0</ele><time>2026-04-06T12:43:13.596Z</time></trkpt><trkpt lat="45.838403" lon="11.736787"><ele>1000.0</ele><time>2026-04-06T12:43:14.603Z</time></trkpt><trkpt lat="45.8385758" lon="11.7367826"><ele>1000.0</ele><time>2026-04-06T12:43:15.601Z</time></trkpt><trkpt lat="45.838745" lon="11.7367818"><ele>999.25</ele><time>2026-04-06T12:43:16.61Z</time></trkpt><trkpt lat="45.8388918" lon="11.7367821"><ele>998.5</ele><time>2026-04-06T12:43:17.602Z</time></trkpt><trkpt lat="45.839029" lon="11.7367787"><ele>997.75</ele><time>2026-04-06T12:43:18.599Z</time></trkpt><trkpt lat="45.8391634" lon="11.7367986"><ele>997.0</ele><time>2026-04-06T12:43:19.602Z</time></trkpt><trkpt lat="45.8392979" lon="11.7368745"><ele>999.0</ele><time>2026-04-06T12:43:20.596Z</time></trkpt><trkpt lat="45.8394274" lon="11.7370192"><ele>1001.0</ele><time>2026-04-06T12:43:21.59Z</time></trkpt><trkpt lat="45.8395822" lon="11.7371752"><ele>1003.0</ele><time>2026-04-06T12:43:22.594Z</time></trkpt><trkpt lat="45.8397497" lon="11.7373215"><ele>1003.0</ele><time>2026-04-06T12:43:23.598Z</time></trkpt><trkpt lat="45.8399072" lon="11.7374528"><ele>1003.0</ele><time>2026-04-06T12:43:24.606Z</time></trkpt><trkpt lat="45.840046" lon="11.7375762"><ele>1003.0</ele><time>2026-04-06T12:43:25.599Z</time></trkpt><trkpt lat="45.8401902" lon="11.7377084"><ele>1007.0</ele><time>2026-04-06T12:43:26.598Z</time></trkpt><trkpt lat="45.8403026" lon="11.7379026"><ele>1011.0</ele><time>2026-04-06T12:43:27.594Z</time></trkpt><trkpt lat="45.840402" lon="11.7381044"><ele>1015.0</ele><time>2026-04-06T12:43:28.627Z</time></trkpt><trkpt lat="45.8404943" lon="11.7383098"><ele>1015.0</ele><time>2026-04-06T12:43:29.605Z</time></trkpt><trkpt lat="45.8405709" lon="11.7385074"><ele>1015.0</ele><time>2026-04-06T12:43:30.597Z</time></trkpt><trkpt lat="45.8406574" lon="11.7386765"><ele>1015.0</ele><time>2026-04-06T12:43:31.598Z</time></trkpt><trkpt lat="45.8407414" lon="11.7388356"><ele>1015.0</ele><time>2026-04-06T12:43:32.592Z</time></trkpt><trkpt lat="45.8408822" lon="11.7389479"><ele>1013.0</ele><time>2026-04-06T12:43:33.589Z</time></trkpt><trkpt lat="45.8410184" lon="11.7390392"><ele>1011.0</ele><time>2026-04-06T12:43:34.585Z</time></trkpt><trkpt lat="45.8411419" lon="11.7391198"><ele>1009.0</ele><time>2026-04-06T12:43:35.592Z</time></trkpt><trkpt lat="45.8412342" lon="11.7392406"><ele>1007.0</ele><time>2026-04-06T12:43:36.597Z</time></trkpt><trkpt lat="45.8413119" lon="11.7394129"><ele>1007.0</ele><time>2026-04-06T12:43:37.598Z</time></trkpt><trkpt lat="45.8413862" lon="11.739616"><ele>1007.0</ele><time>2026-04-06T12:43:38.595Z</time></trkpt><trkpt lat="45.8414692" lon="11.739805"><ele>1007.0</ele><time>2026-04-06T12:43:39.589Z</time></trkpt><trkpt lat="45.8415732" lon="11.7399673"><ele>1007.0</ele><time>2026-04-06T12:43:40.593Z</time></trkpt><trkpt lat="45.8416542" lon="11.7401461"><ele>1007.0</ele><time>2026-04-06T12:43:41.59Z</time></trkpt><trkpt lat="45.8417816" lon="11.740251"><ele>1007.0</ele><time>2026-04-06T12:43:42.592Z</time></trkpt><trkpt lat="45.8419126" lon="11.7403539"><ele>1007.0</ele><time>2026-04-06T12:43:43.593Z</time></trkpt><trkpt lat="45.8420545" lon="11.7404419"><ele>1006.25</ele><time>2026-04-06T12:43:44.603Z</time></trkpt><trkpt lat="45.8421832" lon="11.740517"><ele>1005.5</ele><time>2026-04-06T12:43:45.597Z</time></trkpt><trkpt lat="45.8423117" lon="11.7405437"><ele>1004.75</ele><time>2026-04-06T12:43:46.616Z</time></trkpt><trkpt lat="45.8424364" lon="11.7405608"><ele>1004.0</ele><time>2026-04-06T12:43:47.597Z</time></trkpt><trkpt lat="45.8425458" lon="11.7405284"><ele>1004.0</ele><time>2026-04-06T12:43:48.598Z</time></trkpt><trkpt lat="45.84263" lon="11.7405365"><ele>1004.0000000000001</ele><time>2026-04-06T12:43:49.584Z</time></trkpt><trkpt lat="45.8427059" lon="11.7405486"><ele>1004.0000000000001</ele><time>2026-04-06T12:43:50.599Z</time></trkpt><trkpt lat="45.842783" lon="11.7406389"><ele>1004.0</ele><time>2026-04-06T12:43:51.594Z</time></trkpt><trkpt lat="45.8428268" lon="11.7408099"><ele>1004.0</ele><time>2026-04-06T12:43:52.59Z</time></trkpt><trkpt lat="45.842859" lon="11.7409804"><ele>1012.6666666666667</ele><time>2026-04-06T12:43:53.594Z</time></trkpt><trkpt lat="45.8428858" lon="11.7411711"><ele>1021.3333333333333</ele><time>2026-04-06T12:43:54.613Z</time></trkpt><trkpt lat="45.8429239" lon="11.7413989"><ele>1030.0</ele><time>2026-04-06T12:43:55.594Z</time></trkpt><trkpt lat="45.8429621" lon="11.7416462"><ele>1027.6666666666665</ele><time>2026-04-06T12:43:56.591Z</time></trkpt><trkpt lat="45.8429973" lon="11.7418939"><ele>1025.3333333333333</ele><time>2026-04-06T12:43:57.594Z</time></trkpt><trkpt lat="45.8430345" lon="11.7421237"><ele>1023.0</ele><time>2026-04-06T12:43:58.596Z</time></trkpt><trkpt lat="45.8430278" lon="11.7423338"><ele>1023.0</ele><time>2026-04-06T12:43:59.591Z</time></trkpt><trkpt lat="45.8430089" lon="11.7425207"><ele>1023.0</ele><time>2026-04-06T12:44:00.593Z</time></trkpt><trkpt lat="45.842984" lon="11.7426544"><ele>1023.0</ele><time>2026-04-06T12:44:01.592Z</time></trkpt><trkpt lat="45.8429794" lon="11.7427928"><ele>1023.0</ele><time>2026-04-06T12:44:02.589Z</time></trkpt><trkpt lat="45.8430231" lon="11.742909"><ele>1023.0</ele><time>2026-04-06T12:44:03.594Z</time></trkpt><trkpt lat="45.843098" lon="11.7430304"><ele>1018.6666666666667</ele><time>2026-04-06T12:44:04.601Z</time></trkpt><trkpt lat="45.8432" lon="11.7431826"><ele>1014.3333333333334</ele><time>2026-04-06T12:44:05.595Z</time></trkpt><trkpt lat="45.8433031" lon="11.7433423"><ele>1010.0</ele><time>2026-04-06T12:44:06.59Z</time></trkpt><trkpt lat="45.843408" lon="11.7435071"><ele>1014.3333333333334</ele><time>2026-04-06T12:44:07.602Z</time></trkpt><trkpt lat="45.8435044" lon="11.7436928"><ele>1018.6666666666667</ele><time>2026-04-06T12:44:08.592Z</time></trkpt><trkpt lat="45.8436001" lon="11.743898"><ele>1023.0</ele><time>2026-04-06T12:44:09.59Z</time></trkpt><trkpt lat="45.8437221" lon="11.744077"><ele>1023.0</ele><time>2026-04-06T12:44:10.6Z</time></trkpt><trkpt lat="45.8438461" lon="11.7442605"><ele>1023.0</ele><time>2026-04-06T12:44:11.595Z</time></trkpt><trkpt lat="45.8439906" lon="11.7444451"><ele>1023.0</ele><time>2026-04-06T12:44:12.592Z</time></trkpt><trkpt lat="45.8441396" lon="11.7446168"><ele>1020.3333333333333</ele><time>2026-04-06T12:44:13.594Z</time></trkpt><trkpt lat="45.8442797" lon="11.744779"><ele>1017.6666666666666</ele><time>2026-04-06T12:44:14.591Z</time></trkpt><trkpt lat="45.8444075" lon="11.7449364"><ele>1015.0</ele><time>2026-04-06T12:44:15.603Z</time></trkpt><trkpt lat="45.844544" lon="11.7450727"><ele>1015.0</ele><time>2026-04-06T12:44:16.596Z</time></trkpt><trkpt lat="45.8446841" lon="11.7451543"><ele>1015.0</ele><time>2026-04-06T12:44:17.589Z</time></trkpt><trkpt lat="45.8448094" lon="11.745214"><ele>1015.0</ele><time>2026-04-06T12:44:18.586Z</time></trkpt><trkpt lat="45.8449104" lon="11.745249"><ele>1015.0</ele><time>2026-04-06T12:44:19.596Z</time></trkpt><trkpt lat="45.845005" lon="11.7451977"><ele>1015.0</ele><time>2026-04-06T12:44:20.593Z</time></trkpt><trkpt lat="45.8451079" lon="11.7451245"><ele>1015.0</ele><time>2026-04-06T12:44:21.591Z</time></trkpt><trkpt lat="45.8451981" lon="11.7449852"><ele>1015.0</ele><time>2026-04-06T12:44:22.59Z</time></trkpt><trkpt lat="45.8453074" lon="11.744856"><ele>1015.0</ele><time>2026-04-06T12:44:23.591Z</time></trkpt><trkpt lat="45.8454574" lon="11.7447762"><ele>1012.3333333333333</ele><time>2026-04-06T12:44:24.59Z</time></trkpt><trkpt lat="45.8456102" lon="11.7446966"><ele>1009.6666666666667</ele><time>2026-04-06T12:44:25.592Z</time></trkpt><trkpt lat="45.8457578" lon="11.7446011"><ele>1007.0</ele><time>2026-04-06T12:44:26.591Z</time></trkpt><trkpt lat="45.8458939" lon="11.7444938"><ele>1006.5</ele><time>2026-04-06T12:44:27.59Z</time></trkpt><trkpt lat="45.8460088" lon="11.7443658"><ele>1006.0</ele><time>2026-04-06T12:44:28.589Z</time></trkpt><trkpt lat="45.8461255" lon="11.7442294"><ele>1005.5</ele><time>2026-04-06T12:44:29.591Z</time></trkpt><trkpt lat="45.8462283" lon="11.7440943"><ele>1005.0</ele><time>2026-04-06T12:44:30.59Z</time></trkpt><trkpt lat="45.846327" lon="11.743957"><ele>1005.0</ele><time>2026-04-06T12:44:31.594Z</time></trkpt><trkpt lat="45.8464123" lon="11.7438008"><ele>1005.0</ele><time>2026-04-06T12:44:32.601Z</time></trkpt><trkpt lat="45.8464792" lon="11.7436591"><ele>1005.0</ele><time>2026-04-06T12:44:33.59Z</time></trkpt><trkpt lat="45.8465276" lon="11.7435291"><ele>1005.0</ele><time>2026-04-06T12:44:34.591Z</time></trkpt><trkpt lat="45.8465745" lon="11.7434216"><ele>1005.0</ele><time>2026-04-06T12:44:35.593Z</time></trkpt><trkpt lat="45.8466235" lon="11.743337"><ele>1007.0</ele><time>2026-04-06T12:44:36.599Z</time></trkpt><trkpt lat="45.8466796" lon="11.743264"><ele>1009.0</ele><time>2026-04-06T12:44:37.59Z</time></trkpt><trkpt lat="45.8467391" lon="11.7432197"><ele>1011.0</ele><time>2026-04-06T12:44:38.59Z</time></trkpt><trkpt lat="45.8468592" lon="11.7431818"><ele>1013.0</ele><time>2026-04-06T12:44:40.597Z</time></trkpt><trkpt lat="45.846933" lon="11.7432028"><ele>1015.0</ele><time>2026-04-06T12:44:41.591Z</time></trkpt><trkpt lat="45.8470149" lon="11.7432607"><ele>1017.0</ele><time>2026-04-06T12:44:42.601Z</time></trkpt><trkpt lat="45.8470978" lon="11.7433301"><ele>1015.4000000000001</ele><time>2026-04-06T12:44:43.594Z</time></trkpt><trkpt lat="45.8471667" lon="11.7434322"><ele>1013.8000000000001</ele><time>2026-04-06T12:44:44.594Z</time></trkpt><trkpt lat="45.8472265" lon="11.7435383"><ele>1012.2</ele><time>2026-04-06T12:44:45.598Z</time></trkpt><trkpt lat="45.8472696" lon="11.7436414"><ele>1010.6</ele><time>2026-04-06T12:44:46.593Z</time></trkpt><trkpt lat="45.8473097" lon="11.743755"><ele>1009.0</ele><time>2026-04-06T12:44:47.591Z</time></trkpt><trkpt lat="45.8473505" lon="11.7438721"><ele>1008.9999999999999</ele><time>2026-04-06T12:44:48.597Z</time></trkpt><trkpt lat="45.8473965" lon="11.7439654"><ele>1009.0</ele><time>2026-04-06T12:44:49.591Z</time></trkpt><trkpt lat="45.8474548" lon="11.7440317"><ele>1009.0</ele><time>2026-04-06T12:44:50.599Z</time></trkpt><trkpt lat="45.8475112" lon="11.7440887"><ele>1009.0</ele><time>2026-04-06T12:44:51.591Z</time></trkpt><trkpt lat="45.8475888" lon="11.7441007"><ele>1008.9999999999999</ele><time>2026-04-06T12:44:52.595Z</time></trkpt><trkpt lat="45.8476789" lon="11.7440698"><ele>1009.0</ele><time>2026-04-06T12:44:53.593Z</time></trkpt><trkpt lat="45.8477671" lon="11.7440099"><ele>1007.8000000000001</ele><time>2026-04-06T12:44:54.598Z</time></trkpt><trkpt lat="45.8478621" lon="11.7439448"><ele>1006.6000000000001</ele><time>2026-04-06T12:44:55.592Z</time></trkpt><trkpt lat="45.8479593" lon="11.7438777"><ele>1005.4</ele><time>2026-04-06T12:44:56.602Z</time></trkpt><trkpt lat="45.8480619" lon="11.7438202"><ele>1004.2</ele><time>2026-04-06T12:44:57.595Z</time></trkpt><trkpt lat="45.8481579" lon="11.743777"><ele>1003.0</ele><time>2026-04-06T12:44:58.594Z</time></trkpt><trkpt lat="45.8482599" lon="11.7437418"><ele>1003.0</ele><time>2026-04-06T12:44:59.601Z</time></trkpt><trkpt lat="45.8483556" lon="11.743654"><ele>1003.0</ele><time>2026-04-06T12:45:00.598Z</time></trkpt><trkpt lat="45.8484442" lon="11.7435733"><ele>1003.0</ele><time>2026-04-06T12:45:01.59Z</time></trkpt><trkpt lat="45.8485259" lon="11.7434855"><ele>1003.0</ele><time>2026-04-06T12:45:02.591Z</time></trkpt><trkpt lat="45.8486069" lon="11.7433999"><ele>1003.0</ele><time>2026-04-06T12:45:03.594Z</time></trkpt><trkpt lat="45.8486889" lon="11.7433176"><ele>1004.9999999999999</ele><time>2026-04-06T12:45:04.593Z</time></trkpt><trkpt lat="45.8487744" lon="11.7432375"><ele>1007.0</ele><time>2026-04-06T12:45:05.594Z</time></trkpt><trkpt lat="45.8488436" lon="11.7431595"><ele>1009.0</ele><time>2026-04-06T12:45:06.594Z</time></trkpt><trkpt lat="45.8489109" lon="11.7431036"><ele>1011.0</ele><time>2026-04-06T12:45:07.598Z</time></trkpt><trkpt lat="45.8489905" lon="11.7430482"><ele>1012.9999999999999</ele><time>2026-04-06T12:45:08.588Z</time></trkpt><trkpt lat="45.8490712" lon="11.7429992"><ele>1015.0</ele><time>2026-04-06T12:45:09.598Z</time></trkpt><trkpt lat="45.8491497" lon="11.7429578"><ele>1014.9999999999999</ele><time>2026-04-06T12:45:10.595Z</time></trkpt><trkpt lat="45.8492358" lon="11.7429399"><ele>1015.0</ele><time>2026-04-06T12:45:11.589Z</time></trkpt><trkpt lat="45.8493205" lon="11.7429141"><ele>1015.0</ele><time>2026-04-06T12:45:12.595Z</time></trkpt><trkpt lat="45.8494094" lon="11.7428882"><ele>1015.0</ele><time>2026-04-06T12:45:13.593Z</time></trkpt><trkpt lat="45.849483" lon="11.7428665"><ele>1014.9999999999999</ele><time>2026-04-06T12:45:14.595Z</time></trkpt><trkpt lat="45.8495661" lon="11.7428323"><ele>1015.0</ele><time>2026-04-06T12:45:15.597Z</time></trkpt><trkpt lat="45.8496481" lon="11.7427919"><ele>1012.8</ele><time>2026-04-06T12:45:16.597Z</time></trkpt><trkpt lat="45.8497323" lon="11.7427549"><ele>1010.6</ele><time>2026-04-06T12:45:17.593Z</time></trkpt><trkpt lat="45.8498248" lon="11.7427313"><ele>1008.4000000000001</ele><time>2026-04-06T12:45:18.594Z</time></trkpt><trkpt lat="45.8499171" lon="11.7427345"><ele>1006.2</ele><time>2026-04-06T12:45:19.595Z</time></trkpt><trkpt lat="45.8500056" lon="11.7427614"><ele>1004.0</ele><time>2026-04-06T12:45:20.599Z</time></trkpt><trkpt lat="45.8500863" lon="11.7427997"><ele>1002.5000000000001</ele><time>2026-04-06T12:45:21.589Z</time></trkpt><trkpt lat="45.8501712" lon="11.7428454"><ele>1001.0</ele><time>2026-04-06T12:45:22.593Z</time></trkpt><trkpt lat="45.8502535" lon="11.7428842"><ele>999.5</ele><time>2026-04-06T12:45:23.59Z</time></trkpt><trkpt lat="45.8503401" lon="11.7429011"><ele>998.0</ele><time>2026-04-06T12:45:24.591Z</time></trkpt><trkpt lat="45.8504304" lon="11.7428855"><ele>996.5000000000001</ele><time>2026-04-06T12:45:25.595Z</time></trkpt><trkpt lat="45.8505182" lon="11.742843"><ele>995.0</ele><time>2026-04-06T12:45:26.591Z</time></trkpt><trkpt lat="45.8506075" lon="11.7427797"><ele>995.0</ele><time>2026-04-06T12:45:27.597Z</time></trkpt><trkpt lat="45.8506968" lon="11.7427151"><ele>995.0</ele><time>2026-04-06T12:45:28.597Z</time></trkpt><trkpt lat="45.8507876" lon="11.742652"><ele>995.0</ele><time>2026-04-06T12:45:29.592Z</time></trkpt><trkpt lat="45.8508763" lon="11.7425919"><ele>995.0</ele><time>2026-04-06T12:45:30.59Z</time></trkpt><trkpt lat="45.8509615" lon="11.7425351"><ele>995.0</ele><time>2026-04-06T12:45:31.592Z</time></trkpt><trkpt lat="45.8510478" lon="11.7424702"><ele>996.0</ele><time>2026-04-06T12:45:32.598Z</time></trkpt><trkpt lat="45.8511254" lon="11.742381"><ele>997.0</ele><time>2026-04-06T12:45:33.591Z</time></trkpt><trkpt lat="45.8511934" lon="11.7422703"><ele>998.0</ele><time>2026-04-06T12:45:34.588Z</time></trkpt><trkpt lat="45.8512589" lon="11.7421436"><ele>999.0</ele><time>2026-04-06T12:45:35.594Z</time></trkpt><trkpt lat="45.8513261" lon="11.7419994"><ele>1000.0</ele><time>2026-04-06T12:45:36.591Z</time></trkpt><trkpt lat="45.8514025" lon="11.7418217"><ele>1006.6666666666666</ele><time>2026-04-06T12:45:37.593Z</time></trkpt><trkpt lat="45.851487" lon="11.741619"><ele>1013.3333333333333</ele><time>2026-04-06T12:45:38.594Z</time></trkpt><trkpt lat="45.851571" lon="11.741408"><ele>1020.0</ele><time>2026-04-06T12:45:39.59Z</time></trkpt><trkpt lat="45.8516537" lon="11.7412146"><ele>1017.0</ele><time>2026-04-06T12:45:40.595Z</time></trkpt><trkpt lat="45.8517465" lon="11.7410429"><ele>1014.0</ele><time>2026-04-06T12:45:41.59Z</time></trkpt><trkpt lat="45.8518521" lon="11.7408966"><ele>1011.0</ele><time>2026-04-06T12:45:42.592Z</time></trkpt><trkpt lat="45.8519468" lon="11.7407552"><ele>1008.0</ele><time>2026-04-06T12:45:43.592Z</time></trkpt><trkpt lat="45.8520419" lon="11.7406091"><ele>1008.0</ele><time>2026-04-06T12:45:44.585Z</time></trkpt><trkpt lat="45.852124" lon="11.7404398"><ele>1008.0</ele><time>2026-04-06T12:45:45.595Z</time></trkpt><trkpt lat="45.8521813" lon="11.7402601"><ele>1008.0</ele><time>2026-04-06T12:45:46.595Z</time></trkpt><trkpt lat="45.8522329" lon="11.740079"><ele>1008.0</ele><time>2026-04-06T12:45:47.594Z</time></trkpt><trkpt lat="45.8522727" lon="11.7399376"><ele>1010.0</ele><time>2026-04-06T12:45:48.592Z</time></trkpt><trkpt lat="45.8522735" lon="11.7398006"><ele>1012.0</ele><time>2026-04-06T12:45:49.589Z</time></trkpt><trkpt lat="45.8522449" lon="11.7396568"><ele>1014.0</ele><time>2026-04-06T12:45:50.593Z</time></trkpt><trkpt lat="45.8521943" lon="11.7395113"><ele>1016.0</ele><time>2026-04-06T12:45:51.586Z</time></trkpt><trkpt lat="45.8521318" lon="11.7393565"><ele>1018.0</ele><time>2026-04-06T12:45:52.592Z</time></trkpt><trkpt lat="45.8520571" lon="11.7391964"><ele>1019.25</ele><time>2026-04-06T12:45:53.589Z</time></trkpt><trkpt lat="45.8519726" lon="11.739054"><ele>1020.5</ele><time>2026-04-06T12:45:54.606Z</time></trkpt><trkpt lat="45.8518929" lon="11.7389286"><ele>1021.75</ele><time>2026-04-06T12:45:55.594Z</time></trkpt><trkpt lat="45.8518288" lon="11.7388035"><ele>1023.0</ele><time>2026-04-06T12:45:56.59Z</time></trkpt><trkpt lat="45.8517934" lon="11.7386701"><ele>1023.8</ele><time>2026-04-06T12:45:57.592Z</time></trkpt><trkpt lat="45.8517651" lon="11.7385406"><ele>1024.6</ele><time>2026-04-06T12:45:58.591Z</time></trkpt><trkpt lat="45.8517979" lon="11.738414"><ele>1025.4</ele><time>2026-04-06T12:45:59.588Z</time></trkpt><trkpt lat="45.851885" lon="11.7382867"><ele>1026.2</ele><time>2026-04-06T12:46:00.601Z</time></trkpt><trkpt lat="45.8520053" lon="11.7381975"><ele>1027.0</ele><time>2026-04-06T12:46:01.59Z</time></trkpt><trkpt lat="45.8521281" lon="11.7381146"><ele>1027.0</ele><time>2026-04-06T12:46:02.596Z</time></trkpt><trkpt lat="45.8522526" lon="11.73803"><ele>1027.0</ele><time>2026-04-06T12:46:03.59Z</time></trkpt><trkpt lat="45.8523493" lon="11.7378708"><ele>1027.0</ele><time>2026-04-06T12:46:04.598Z</time></trkpt><trkpt lat="45.8524241" lon="11.7377398"><ele>1027.0</ele><time>2026-04-06T12:46:05.592Z</time></trkpt><trkpt lat="45.8524709" lon="11.7376467"><ele>1029.5</ele><time>2026-04-06T12:46:06.608Z</time></trkpt><trkpt lat="45.8525113" lon="11.737518"><ele>1032.0</ele><time>2026-04-06T12:46:07.59Z</time></trkpt><trkpt lat="45.8525177" lon="11.7373542"><ele>1034.5</ele><time>2026-04-06T12:46:08.594Z</time></trkpt><trkpt lat="45.852499" lon="11.7371566"><ele>1037.0</ele><time>2026-04-06T12:46:09.586Z</time></trkpt><trkpt lat="45.8524825" lon="11.7369656"><ele>1038.2</ele><time>2026-04-06T12:46:10.596Z</time></trkpt><trkpt lat="45.8524838" lon="11.7368199"><ele>1039.4</ele><time>2026-04-06T12:46:11.601Z</time></trkpt><trkpt lat="45.852508" lon="11.7366807"><ele>1040.6</ele><time>2026-04-06T12:46:12.594Z</time></trkpt><trkpt lat="45.8525667" lon="11.7365453"><ele>1041.8</ele><time>2026-04-06T12:46:13.593Z</time></trkpt><trkpt lat="45.8526318" lon="11.7363916"><ele>1043.0</ele><time>2026-04-06T12:46:14.591Z</time></trkpt><trkpt lat="45.8527488" lon="11.7362899"><ele>1045.0</ele><time>2026-04-06T12:46:15.588Z</time></trkpt><trkpt lat="45.8528959" lon="11.7361944"><ele>1047.0</ele><time>2026-04-06T12:46:16.593Z</time></trkpt><trkpt lat="45.8530529" lon="11.7360944"><ele>1049.0</ele><time>2026-04-06T12:46:17.591Z</time></trkpt><trkpt lat="45.8531815" lon="11.7359612"><ele>1049.0</ele><time>2026-04-06T12:46:18.599Z</time></trkpt><trkpt lat="45.8533104" lon="11.7358182"><ele>1049.0</ele><time>2026-04-06T12:46:19.589Z</time></trkpt><trkpt lat="45.8534462" lon="11.735717"><ele>1049.0</ele><time>2026-04-06T12:46:20.589Z</time></trkpt><trkpt lat="45.8535793" lon="11.7356596"><ele>1045.6000000000001</ele><time>2026-04-06T12:46:21.591Z</time></trkpt><trkpt lat="45.8536973" lon="11.7356164"><ele>1042.2</ele><time>2026-04-06T12:46:22.597Z</time></trkpt><trkpt lat="45.8537962" lon="11.735576"><ele>1038.8000000000002</ele><time>2026-04-06T12:46:23.597Z</time></trkpt><trkpt lat="45.8538762" lon="11.7354965"><ele>1035.4</ele><time>2026-04-06T12:46:24.597Z</time></trkpt><trkpt lat="45.8539585" lon="11.7353892"><ele>1032.0</ele><time>2026-04-06T12:46:25.594Z</time></trkpt><trkpt lat="45.8540171" lon="11.7352482"><ele>1035.0</ele><time>2026-04-06T12:46:26.604Z</time></trkpt><trkpt lat="45.8540812" lon="11.7351106"><ele>1038.0</ele><time>2026-04-06T12:46:27.599Z</time></trkpt><trkpt lat="45.8541753" lon="11.7350359"><ele>1041.0</ele><time>2026-04-06T12:46:28.594Z</time></trkpt><trkpt lat="45.8542885" lon="11.7350143"><ele>1044.0</ele><time>2026-04-06T12:46:29.593Z</time></trkpt><trkpt lat="45.8543989" lon="11.7350177"><ele>1047.0</ele><time>2026-04-06T12:46:30.593Z</time></trkpt><trkpt lat="45.8545126" lon="11.7350211"><ele>1047.0</ele><time>2026-04-06T12:46:31.594Z</time></trkpt><trkpt lat="45.8546065" lon="11.7349482"><ele>1047.0</ele><time>2026-04-06T12:46:32.597Z</time></trkpt><trkpt lat="45.8546768" lon="11.7348039"><ele>1047.0</ele><time>2026-04-06T12:46:33.603Z</time></trkpt><trkpt lat="45.854764" lon="11.7346972"><ele>1047.0</ele><time>2026-04-06T12:46:34.594Z</time></trkpt><trkpt lat="45.8548492" lon="11.7346225"><ele>1047.0</ele><time>2026-04-06T12:46:35.588Z</time></trkpt><trkpt lat="45.854938" lon="11.7345575"><ele>1047.0</ele><time>2026-04-06T12:46:36.598Z</time></trkpt><trkpt lat="45.8550466" lon="11.7345729"><ele>1047.0</ele><time>2026-04-06T12:46:37.595Z</time></trkpt><trkpt lat="45.8551728" lon="11.7346653"><ele>1047.0</ele><time>2026-04-06T12:46:38.59Z</time></trkpt><trkpt lat="45.8552973" lon="11.7347584"><ele>1047.0</ele><time>2026-04-06T12:46:39.587Z</time></trkpt><trkpt lat="45.855417" lon="11.7348699"><ele>1049.0</ele><time>2026-04-06T12:46:40.592Z</time></trkpt><trkpt lat="45.8555149" lon="11.7349916"><ele>1051.0</ele><time>2026-04-06T12:46:41.596Z</time></trkpt><trkpt lat="45.8556014" lon="11.735079"><ele>1053.0</ele><time>2026-04-06T12:46:42.597Z</time></trkpt><trkpt lat="45.8557153" lon="11.735106"><ele>1055.0</ele><time>2026-04-06T12:46:43.603Z</time></trkpt><trkpt lat="45.8558374" lon="11.7350856"><ele>1055.0</ele><time>2026-04-06T12:46:44.597Z</time></trkpt><trkpt lat="45.8559444" lon="11.7350877"><ele>1055.0</ele><time>2026-04-06T12:46:45.596Z</time></trkpt><trkpt lat="45.856032" lon="11.7350658"><ele>1055.0</ele><time>2026-04-06T12:46:46.599Z</time></trkpt><trkpt lat="45.8561059" lon="11.7350017"><ele>1055.0</ele><time>2026-04-06T12:46:47.598Z</time></trkpt><trkpt lat="45.8561873" lon="11.7348837"><ele>1055.0</ele><time>2026-04-06T12:46:48.598Z</time></trkpt><trkpt lat="45.8562505" lon="11.7347905"><ele>1054.5</ele><time>2026-04-06T12:46:49.594Z</time></trkpt><trkpt lat="45.856309" lon="11.7347008"><ele>1054.0</ele><time>2026-04-06T12:46:50.594Z</time></trkpt><trkpt lat="45.8563474" lon="11.7346033"><ele>1053.5</ele><time>2026-04-06T12:46:51.595Z</time></trkpt><trkpt lat="45.8563876" lon="11.7344955"><ele>1053.0</ele><time>2026-04-06T12:46:52.6Z</time></trkpt><trkpt lat="45.8564225" lon="11.7343962"><ele>1052.5</ele><time>2026-04-06T12:46:53.597Z</time></trkpt><trkpt lat="45.8564638" lon="11.7343053"><ele>1052.0</ele><time>2026-04-06T12:46:54.592Z</time></trkpt><trkpt lat="45.8565201" lon="11.7342306"><ele>1052.142857142857</ele><time>2026-04-06T12:46:55.591Z</time></trkpt><trkpt lat="45.8565937" lon="11.7341879"><ele>1052.2857142857142</ele><time>2026-04-06T12:46:56.593Z</time></trkpt><trkpt lat="45.8566614" lon="11.7341531"><ele>1052.4285714285713</ele><time>2026-04-06T12:46:57.596Z</time></trkpt><trkpt lat="45.8567384" lon="11.7341111"><ele>1052.5714285714284</ele><time>2026-04-06T12:46:58.596Z</time></trkpt><trkpt lat="45.8567983" lon="11.7340409"><ele>1052.7142857142858</ele><time>2026-04-06T12:46:59.59Z</time></trkpt><trkpt lat="45.8568413" lon="11.733971"><ele>1052.8571428571427</ele><time>2026-04-06T12:47:00.599Z</time></trkpt><trkpt lat="45.8568877" lon="11.733889"><ele>1053.0</ele><time>2026-04-06T12:47:01.595Z</time></trkpt><trkpt lat="45.8569332" lon="11.7338158"><ele>1052.9999999999998</ele><time>2026-04-06T12:47:02.589Z</time></trkpt><trkpt lat="45.8569711" lon="11.7337398"><ele>1053.0</ele><time>2026-04-06T12:47:03.594Z</time></trkpt><trkpt lat="45.8570101" lon="11.7336593"><ele>1053.0</ele><time>2026-04-06T12:47:04.592Z</time></trkpt><trkpt lat="45.8570628" lon="11.7335788"><ele>1053.0</ele><time>2026-04-06T12:47:05.598Z</time></trkpt><trkpt lat="45.8571283" lon="11.7335294"><ele>1053.0</ele><time>2026-04-06T12:47:06.592Z</time></trkpt><trkpt lat="45.8571989" lon="11.7335244"><ele>1052.9999999999998</ele><time>2026-04-06T12:47:07.591Z</time></trkpt><trkpt lat="45.8572745" lon="11.73353"><ele>1053.0</ele><time>2026-04-06T12:47:08.596Z</time></trkpt><trkpt lat="45.857328" lon="11.7335849"><ele>1052.9999999999998</ele><time>2026-04-06T12:47:09.589Z</time></trkpt><trkpt lat="45.8573954" lon="11.7336145"><ele>1053.0</ele><time>2026-04-06T12:47:10.595Z</time></trkpt><trkpt lat="45.857467" lon="11.7336378"><ele>1053.0</ele><time>2026-04-06T12:47:11.599Z</time></trkpt><trkpt lat="45.8575443" lon="11.7336473"><ele>1053.0</ele><time>2026-04-06T12:47:12.591Z</time></trkpt><trkpt lat="45.8576182" lon="11.7336416"><ele>1053.0</ele><time>2026-04-06T12:47:13.591Z</time></trkpt><trkpt lat="45.8576851" lon="11.7336103"><ele>1052.9999999999998</ele><time>2026-04-06T12:47:14.602Z</time></trkpt><trkpt lat="45.8577532" lon="11.7335535"><ele>1053.0</ele><time>2026-04-06T12:47:15.595Z</time></trkpt><trkpt lat="45.8578221" lon="11.7334807"><ele>1054.1666666666667</ele><time>2026-04-06T12:47:16.593Z</time></trkpt><trkpt lat="45.8578927" lon="11.7334036"><ele>1055.3333333333333</ele><time>2026-04-06T12:47:17.593Z</time></trkpt><trkpt lat="45.8579646" lon="11.7333381"><ele>1056.5</ele><time>2026-04-06T12:47:18.598Z</time></trkpt><trkpt lat="45.858036" lon="11.7332874"><ele>1057.6666666666665</ele><time>2026-04-06T12:47:19.594Z</time></trkpt><trkpt lat="45.8581103" lon="11.7332458"><ele>1058.8333333333333</ele><time>2026-04-06T12:47:20.595Z</time></trkpt><trkpt lat="45.8581862" lon="11.7332086"><ele>1060.0</ele><time>2026-04-06T12:47:21.601Z</time></trkpt><trkpt lat="45.8582609" lon="11.733161"><ele>1059.9999999999998</ele><time>2026-04-06T12:47:22.597Z</time></trkpt><trkpt lat="45.8583194" lon="11.7330978"><ele>1060.0</ele><time>2026-04-06T12:47:23.587Z</time></trkpt><trkpt lat="45.8583612" lon="11.7330109"><ele>1060.0</ele><time>2026-04-06T12:47:24.591Z</time></trkpt><trkpt lat="45.858384" lon="11.7329032"><ele>1060.0</ele><time>2026-04-06T12:47:25.594Z</time></trkpt><trkpt lat="45.8583911" lon="11.7327942"><ele>1060.0</ele><time>2026-04-06T12:47:26.6Z</time></trkpt><trkpt lat="45.8583957" lon="11.7326863"><ele>1059.9999999999998</ele><time>2026-04-06T12:47:27.591Z</time></trkpt><trkpt lat="45.8584028" lon="11.7325823"><ele>1060.0</ele><time>2026-04-06T12:47:28.593Z</time></trkpt><trkpt lat="45.8584387" lon="11.7324147"><ele>1062.6666666666665</ele><time>2026-04-06T12:47:30.6Z</time></trkpt><trkpt lat="45.8585483" lon="11.7323282"><ele>1065.3333333333333</ele><time>2026-04-06T12:47:32.594Z</time></trkpt><trkpt lat="45.8586186" lon="11.7323265"><ele>1068.0</ele><time>2026-04-06T12:47:33.595Z</time></trkpt><trkpt lat="45.8586906" lon="11.7323525"><ele>1070.6666666666667</ele><time>2026-04-06T12:47:34.595Z</time></trkpt><trkpt lat="45.8587594" lon="11.7324087"><ele>1073.3333333333335</ele><time>2026-04-06T12:47:35.591Z</time></trkpt><trkpt lat="45.8588196" lon="11.7324773"><ele>1076.0</ele><time>2026-04-06T12:47:36.589Z</time></trkpt><trkpt lat="45.8588769" lon="11.7325563"><ele>1076.0</ele><time>2026-04-06T12:47:37.588Z</time></trkpt><trkpt lat="45.8589344" lon="11.732642"><ele>1076.0</ele><time>2026-04-06T12:47:38.598Z</time></trkpt><trkpt lat="45.8589902" lon="11.7327351"><ele>1076.0</ele><time>2026-04-06T12:47:39.595Z</time></trkpt><trkpt lat="45.8590388" lon="11.7328348"><ele>1076.0</ele><time>2026-04-06T12:47:40.594Z</time></trkpt><trkpt lat="45.8590948" lon="11.7329335"><ele>1076.0</ele><time>2026-04-06T12:47:41.6Z</time></trkpt><trkpt lat="45.8591414" lon="11.7330216"><ele>1076.0</ele><time>2026-04-06T12:47:42.598Z</time></trkpt><trkpt lat="45.8591726" lon="11.7331138"><ele>1076.1666666666667</ele><time>2026-04-06T12:47:43.592Z</time></trkpt><trkpt lat="45.8591737" lon="11.7332138"><ele>1076.3333333333335</ele><time>2026-04-06T12:47:44.593Z</time></trkpt><trkpt lat="45.8591376" lon="11.7333135"><ele>1076.5</ele><time>2026-04-06T12:47:45.591Z</time></trkpt><trkpt lat="45.8590844" lon="11.733388"><ele>1076.6666666666667</ele><time>2026-04-06T12:47:46.592Z</time></trkpt><trkpt lat="45.8590264" lon="11.7334606"><ele>1076.8333333333333</ele><time>2026-04-06T12:47:47.596Z</time></trkpt><trkpt lat="45.8589762" lon="11.7335437"><ele>1077.0</ele><time>2026-04-06T12:47:48.598Z</time></trkpt><trkpt lat="45.8589321" lon="11.7336453"><ele>1078.8333333333333</ele><time>2026-04-06T12:47:49.591Z</time></trkpt><trkpt lat="45.8589066" lon="11.7337715"><ele>1080.6666666666667</ele><time>2026-04-06T12:47:50.591Z</time></trkpt><trkpt lat="45.8588884" lon="11.7338972"><ele>1082.5</ele><time>2026-04-06T12:47:51.587Z</time></trkpt><trkpt lat="45.8588705" lon="11.7340337"><ele>1084.3333333333335</ele><time>2026-04-06T12:47:52.591Z</time></trkpt><trkpt lat="45.8588533" lon="11.7341547"><ele>1086.1666666666667</ele><time>2026-04-06T12:47:53.588Z</time></trkpt><trkpt lat="45.8588356" lon="11.7342693"><ele>1088.0</ele><time>2026-04-06T12:47:54.592Z</time></trkpt><trkpt lat="45.8588085" lon="11.7343915"><ele>1090.8</ele><time>2026-04-06T12:47:55.59Z</time></trkpt><trkpt lat="45.85877" lon="11.7345304"><ele>1093.6</ele><time>2026-04-06T12:47:56.592Z</time></trkpt><trkpt lat="45.8587328" lon="11.7346756"><ele>1096.4</ele><time>2026-04-06T12:47:57.59Z</time></trkpt><trkpt lat="45.8586998" lon="11.7348062"><ele>1099.2</ele><time>2026-04-06T12:47:58.596Z</time></trkpt><trkpt lat="45.8586638" lon="11.7349333"><ele>1102.0</ele><time>2026-04-06T12:47:59.596Z</time></trkpt><trkpt lat="45.8586363" lon="11.7350697"><ele>1102.0</ele><time>2026-04-06T12:48:00.593Z</time></trkpt><trkpt lat="45.8586006" lon="11.7352072"><ele>1102.0</ele><time>2026-04-06T12:48:01.592Z</time></trkpt><trkpt lat="45.8585625" lon="11.7353448"><ele>1102.0</ele><time>2026-04-06T12:48:02.594Z</time></trkpt><trkpt lat="45.8585264" lon="11.7354729"><ele>1102.0</ele><time>2026-04-06T12:48:03.593Z</time></trkpt><trkpt lat="45.8584993" lon="11.7356015"><ele>1102.0</ele><time>2026-04-06T12:48:04.597Z</time></trkpt><trkpt lat="45.8584737" lon="11.7357168"><ele>1103.5</ele><time>2026-04-06T12:48:05.597Z</time></trkpt><trkpt lat="45.8584497" lon="11.7358336"><ele>1105.0</ele><time>2026-04-06T12:48:06.593Z</time></trkpt><trkpt lat="45.8584373" lon="11.7359484"><ele>1106.5</ele><time>2026-04-06T12:48:07.595Z</time></trkpt><trkpt lat="45.8584312" lon="11.7360642"><ele>1108.0</ele><time>2026-04-06T12:48:08.603Z</time></trkpt><trkpt lat="45.8584568" lon="11.7361833"><ele>1109.5</ele><time>2026-04-06T12:48:09.595Z</time></trkpt><trkpt lat="45.858473" lon="11.7362986"><ele>1111.0</ele><time>2026-04-06T12:48:10.594Z</time></trkpt><trkpt lat="45.8584923" lon="11.7364359"><ele>1111.0</ele><time>2026-04-06T12:48:11.599Z</time></trkpt><trkpt lat="45.8585077" lon="11.7365692"><ele>1111.0</ele><time>2026-04-06T12:48:12.593Z</time></trkpt><trkpt lat="45.8585177" lon="11.736711"><ele>1111.0</ele><time>2026-04-06T12:48:13.595Z</time></trkpt><trkpt lat="45.8585204" lon="11.7368479"><ele>1111.0</ele><time>2026-04-06T12:48:14.592Z</time></trkpt><trkpt lat="45.8585087" lon="11.7369733"><ele>1111.0</ele><time>2026-04-06T12:48:15.599Z</time></trkpt><trkpt lat="45.8584753" lon="11.7370929"><ele>1108.3333333333333</ele><time>2026-04-06T12:48:16.598Z</time></trkpt><trkpt lat="45.8584255" lon="11.7371931"><ele>1105.6666666666665</ele><time>2026-04-06T12:48:17.599Z</time></trkpt><trkpt lat="45.8583624" lon="11.7372803"><ele>1103.0</ele><time>2026-04-06T12:48:18.598Z</time></trkpt><trkpt lat="45.8582934" lon="11.7373621"><ele>1100.3333333333333</ele><time>2026-04-06T12:48:19.602Z</time></trkpt><trkpt lat="45.8582295" lon="11.7374501"><ele>1097.6666666666667</ele><time>2026-04-06T12:48:20.603Z</time></trkpt><trkpt lat="45.8581772" lon="11.7375508"><ele>1095.0</ele><time>2026-04-06T12:48:21.593Z</time></trkpt><trkpt lat="45.8581394" lon="11.7376722"><ele>1096.8</ele><time>2026-04-06T12:48:22.594Z</time></trkpt><trkpt lat="45.8581168" lon="11.7378037"><ele>1098.6</ele><time>2026-04-06T12:48:23.593Z</time></trkpt><trkpt lat="45.8581001" lon="11.7379336"><ele>1100.4</ele><time>2026-04-06T12:48:24.596Z</time></trkpt><trkpt lat="45.8580816" lon="11.7380607"><ele>1102.2</ele><time>2026-04-06T12:48:25.591Z</time></trkpt><trkpt lat="45.8580611" lon="11.738187"><ele>1104.0</ele><time>2026-04-06T12:48:26.595Z</time></trkpt><trkpt lat="45.8580413" lon="11.7383084"><ele>1104.0</ele><time>2026-04-06T12:48:27.592Z</time></trkpt><trkpt lat="45.8580231" lon="11.7384242"><ele>1104.0</ele><time>2026-04-06T12:48:28.604Z</time></trkpt><trkpt lat="45.8580082" lon="11.7385393"><ele>1104.0</ele><time>2026-04-06T12:48:29.604Z</time></trkpt><trkpt lat="45.858031" lon="11.738652"><ele>1104.0</ele><time>2026-04-06T12:48:30.594Z</time></trkpt><trkpt lat="45.8580664" lon="11.7387624"><ele>1104.0</ele><time>2026-04-06T12:48:31.59Z</time></trkpt><trkpt lat="45.858105" lon="11.7388762"><ele>1104.0</ele><time>2026-04-06T12:48:32.599Z</time></trkpt><trkpt lat="45.8581515" lon="11.7389839"><ele>1104.1666666666667</ele><time>2026-04-06T12:48:33.603Z</time></trkpt><trkpt lat="45.8581908" lon="11.7390884"><ele>1104.3333333333333</ele><time>2026-04-06T12:48:34.591Z</time></trkpt><trkpt lat="45.8582211" lon="11.7391942"><ele>1104.5</ele><time>2026-04-06T12:48:35.592Z</time></trkpt><trkpt lat="45.8582409" lon="11.7393077"><ele>1104.6666666666665</ele><time>2026-04-06T12:48:36.597Z</time></trkpt><trkpt lat="45.8582637" lon="11.7394396"><ele>1104.8333333333333</ele><time>2026-04-06T12:48:37.593Z</time></trkpt><trkpt lat="45.8582973" lon="11.7395689"><ele>1105.0</ele><time>2026-04-06T12:48:38.591Z</time></trkpt><trkpt lat="45.8583386" lon="11.7396892"><ele>1103.4</ele><time>2026-04-06T12:48:39.598Z</time></trkpt><trkpt lat="45.8583853" lon="11.7398015"><ele>1101.8</ele><time>2026-04-06T12:48:40.594Z</time></trkpt><trkpt lat="45.858437" lon="11.7399168"><ele>1100.2</ele><time>2026-04-06T12:48:41.593Z</time></trkpt><trkpt lat="45.8584827" lon="11.740035"><ele>1098.6</ele><time>2026-04-06T12:48:42.601Z</time></trkpt><trkpt lat="45.8585353" lon="11.7401482"><ele>1097.0</ele><time>2026-04-06T12:48:43.591Z</time></trkpt><trkpt lat="45.8585841" lon="11.7402608"><ele>1099.8333333333335</ele><time>2026-04-06T12:48:44.593Z</time></trkpt><trkpt lat="45.8586458" lon="11.7403471"><ele>1102.6666666666667</ele><time>2026-04-06T12:48:45.594Z</time></trkpt><trkpt lat="45.8587054" lon="11.7404167"><ele>1105.5</ele><time>2026-04-06T12:48:46.596Z</time></trkpt><trkpt lat="45.8587753" lon="11.7404828"><ele>1108.3333333333333</ele><time>2026-04-06T12:48:47.601Z</time></trkpt><trkpt lat="45.8588494" lon="11.7405471"><ele>1111.1666666666665</ele><time>2026-04-06T12:48:48.599Z</time></trkpt><trkpt lat="45.858923" lon="11.7406119"><ele>1114.0</ele><time>2026-04-06T12:48:49.595Z</time></trkpt><trkpt lat="45.8589941" lon="11.7406851"><ele>1114.0</ele><time>2026-04-06T12:48:50.6Z</time></trkpt><trkpt lat="45.8590484" lon="11.7407661"><ele>1114.0</ele><time>2026-04-06T12:48:51.594Z</time></trkpt><trkpt lat="45.8590835" lon="11.7408574"><ele>1114.0</ele><time>2026-04-06T12:48:52.6Z</time></trkpt><trkpt lat="45.8590987" lon="11.7409661"><ele>1114.0</ele><time>2026-04-06T12:48:53.595Z</time></trkpt><trkpt lat="45.8591114" lon="11.7410805"><ele>1114.0</ele><time>2026-04-06T12:48:54.591Z</time></trkpt><trkpt lat="45.8591051" lon="11.7412026"><ele>1114.0</ele><time>2026-04-06T12:48:55.601Z</time></trkpt><trkpt lat="45.8591206" lon="11.7413156"><ele>1113.0</ele><time>2026-04-06T12:48:56.604Z</time></trkpt><trkpt lat="45.8591643" lon="11.7414131"><ele>1112.0</ele><time>2026-04-06T12:48:57.594Z</time></trkpt><trkpt lat="45.8592168" lon="11.7415005"><ele>1111.0</ele><time>2026-04-06T12:48:58.594Z</time></trkpt><trkpt lat="45.8592688" lon="11.74158"><ele>1110.0</ele><time>2026-04-06T12:48:59.593Z</time></trkpt><trkpt lat="45.8593156" lon="11.7416533"><ele>1109.0</ele><time>2026-04-06T12:49:00.595Z</time></trkpt><trkpt lat="45.8593462" lon="11.7417562"><ele>1108.0</ele><time>2026-04-06T12:49:01.593Z</time></trkpt><trkpt lat="45.8593795" lon="11.7418701"><ele>1112.6</ele><time>2026-04-06T12:49:02.589Z</time></trkpt><trkpt lat="45.8594157" lon="11.741992"><ele>1117.1999999999998</ele><time>2026-04-06T12:49:03.602Z</time></trkpt><trkpt lat="45.8594624" lon="11.7421144"><ele>1121.8</ele><time>2026-04-06T12:49:04.598Z</time></trkpt><trkpt lat="45.8595391" lon="11.7422324"><ele>1126.3999999999999</ele><time>2026-04-06T12:49:05.59Z</time></trkpt><trkpt lat="45.8596489" lon="11.7423713"><ele>1131.0</ele><time>2026-04-06T12:49:06.595Z</time></trkpt><trkpt lat="45.8597728" lon="11.7425289"><ele>1131.0</ele><time>2026-04-06T12:49:07.593Z</time></trkpt><trkpt lat="45.8598987" lon="11.7426907"><ele>1131.0</ele><time>2026-04-06T12:49:08.594Z</time></trkpt><trkpt lat="45.8600041" lon="11.7428776"><ele>1131.0</ele><time>2026-04-06T12:49:09.59Z</time></trkpt><trkpt lat="45.860096" lon="11.7430893"><ele>1139.3333333333333</ele><time>2026-04-06T12:49:10.597Z</time></trkpt><trkpt lat="45.8601735" lon="11.7433095"><ele>1147.6666666666665</ele><time>2026-04-06T12:49:11.59Z</time></trkpt><trkpt lat="45.8602349" lon="11.7435248"><ele>1156.0</ele><time>2026-04-06T12:49:12.597Z</time></trkpt><trkpt lat="45.8602848" lon="11.7437216"><ele>1156.0</ele><time>2026-04-06T12:49:13.594Z</time></trkpt><trkpt lat="45.8603309" lon="11.7438987"><ele>1156.0</ele><time>2026-04-06T12:49:14.665Z</time></trkpt><trkpt lat="45.8603562" lon="11.7440363"><ele>1156.0</ele><time>2026-04-06T12:49:15.594Z</time></trkpt><trkpt lat="45.8603748" lon="11.7441407"><ele>1156.0</ele><time>2026-04-06T12:49:16.59Z</time></trkpt><trkpt lat="45.8603859" lon="11.7442603"><ele>1156.0</ele><time>2026-04-06T12:49:17.6Z</time></trkpt><trkpt lat="45.8603943" lon="11.7444247"><ele>1153.75</ele><time>2026-04-06T12:49:19.597Z</time></trkpt><trkpt lat="45.8602815" lon="11.7444717"><ele>1151.5</ele><time>2026-04-06T12:49:21.593Z</time></trkpt><trkpt lat="45.8601783" lon="11.7444061"><ele>1149.25</ele><time>2026-04-06T12:49:22.595Z</time></trkpt><trkpt lat="45.860083" lon="11.7442953"><ele>1147.0</ele><time>2026-04-06T12:49:23.597Z</time></trkpt><trkpt lat="45.8599853" lon="11.7441922"><ele>1143.25</ele><time>2026-04-06T12:49:24.593Z</time></trkpt><trkpt lat="45.8598758" lon="11.7441466"><ele>1139.5</ele><time>2026-04-06T12:49:25.596Z</time></trkpt><trkpt lat="45.8597492" lon="11.7441791"><ele>1135.75</ele><time>2026-04-06T12:49:26.594Z</time></trkpt><trkpt lat="45.8596093" lon="11.7442371"><ele>1132.0</ele><time>2026-04-06T12:49:27.595Z</time></trkpt><trkpt lat="45.8594656" lon="11.7443092"><ele>1132.0</ele><time>2026-04-06T12:49:28.601Z</time></trkpt><trkpt lat="45.8593227" lon="11.744369"><ele>1132.0</ele><time>2026-04-06T12:49:29.596Z</time></trkpt><trkpt lat="45.8591754" lon="11.7444223"><ele>1132.0</ele><time>2026-04-06T12:49:30.594Z</time></trkpt><trkpt lat="45.8590289" lon="11.7444553"><ele>1132.0</ele><time>2026-04-06T12:49:31.588Z</time></trkpt><trkpt lat="45.8588915" lon="11.7444793"><ele>1135.6</ele><time>2026-04-06T12:49:32.591Z</time></trkpt><trkpt lat="45.8587749" lon="11.7445058"><ele>1139.2</ele><time>2026-04-06T12:49:33.595Z</time></trkpt><trkpt lat="45.8586668" lon="11.7445582"><ele>1142.8</ele><time>2026-04-06T12:49:34.594Z</time></trkpt><trkpt lat="45.8586007" lon="11.7446534"><ele>1146.4</ele><time>2026-04-06T12:49:35.591Z</time></trkpt><trkpt lat="45.8585351" lon="11.7447705"><ele>1150.0</ele><time>2026-04-06T12:49:36.6Z</time></trkpt><trkpt lat="45.8585302" lon="11.744947"><ele>1150.0</ele><time>2026-04-06T12:49:37.596Z</time></trkpt><trkpt lat="45.8585252" lon="11.7451392"><ele>1150.0</ele><time>2026-04-06T12:49:38.595Z</time></trkpt><trkpt lat="45.8585158" lon="11.7453418"><ele>1150.0</ele><time>2026-04-06T12:49:39.594Z</time></trkpt><trkpt lat="45.8585008" lon="11.7455499"><ele>1150.0</ele><time>2026-04-06T12:49:40.595Z</time></trkpt><trkpt lat="45.8584846" lon="11.7457612"><ele>1149.6666666666665</ele><time>2026-04-06T12:49:41.598Z</time></trkpt><trkpt lat="45.8584713" lon="11.7459878"><ele>1149.3333333333333</ele><time>2026-04-06T12:49:42.593Z</time></trkpt><trkpt lat="45.8584635" lon="11.7462252"><ele>1149.0</ele><time>2026-04-06T12:49:43.594Z</time></trkpt><trkpt lat="45.8584498" lon="11.7464745"><ele>1149.0</ele><time>2026-04-06T12:49:44.595Z</time></trkpt><trkpt lat="45.8584338" lon="11.746729"><ele>1149.0</ele><time>2026-04-06T12:49:45.592Z</time></trkpt><trkpt lat="45.8584144" lon="11.7469868"><ele>1149.0</ele><time>2026-04-06T12:49:46.596Z</time></trkpt><trkpt lat="45.858394" lon="11.7472421"><ele>1150.3333333333333</ele><time>2026-04-06T12:49:47.629Z</time></trkpt><trkpt lat="45.858378" lon="11.7474904"><ele>1151.6666666666665</ele><time>2026-04-06T12:49:48.595Z</time></trkpt><trkpt lat="45.8583518" lon="11.7477267"><ele>1153.0</ele><time>2026-04-06T12:49:49.591Z</time></trkpt><trkpt lat="45.8583255" lon="11.747948"><ele>1155.3333333333333</ele><time>2026-04-06T12:49:50.59Z</time></trkpt><trkpt lat="45.8583283" lon="11.7481878"><ele>1157.6666666666667</ele><time>2026-04-06T12:49:51.592Z</time></trkpt><trkpt lat="45.8583509" lon="11.7484239"><ele>1160.0</ele><time>2026-04-06T12:49:52.591Z</time></trkpt><trkpt lat="45.8583831" lon="11.7486571"><ele>1161.0</ele><time>2026-04-06T12:49:53.597Z</time></trkpt><trkpt lat="45.8584118" lon="11.7488729"><ele>1162.0</ele><time>2026-04-06T12:49:54.593Z</time></trkpt><trkpt lat="45.8584433" lon="11.7490813"><ele>1163.0</ele><time>2026-04-06T12:49:55.593Z</time></trkpt><trkpt lat="45.8585203" lon="11.7492731"><ele>1171.25</ele><time>2026-04-06T12:49:56.59Z</time></trkpt><trkpt lat="45.8585985" lon="11.7494505"><ele>1179.5</ele><time>2026-04-06T12:49:57.592Z</time></trkpt><trkpt lat="45.8586515" lon="11.749628"><ele>1187.75</ele><time>2026-04-06T12:49:58.596Z</time></trkpt><trkpt lat="45.8586962" lon="11.749794"><ele>1196.0</ele><time>2026-04-06T12:49:59.59Z</time></trkpt><trkpt lat="45.8586766" lon="11.7499849"><ele>1196.0</ele><time>2026-04-06T12:50:00.608Z</time></trkpt><trkpt lat="45.8586168" lon="11.750198"><ele>1196.0</ele><time>2026-04-06T12:50:01.6Z</time></trkpt><trkpt lat="45.8585819" lon="11.7504204"><ele>1196.0</ele><time>2026-04-06T12:50:02.598Z</time></trkpt><trkpt lat="45.8585892" lon="11.750654"><ele>1197.25</ele><time>2026-04-06T12:50:03.591Z</time></trkpt><trkpt lat="45.8586215" lon="11.7508784"><ele>1198.5</ele><time>2026-04-06T12:50:04.591Z</time></trkpt><trkpt lat="45.8586373" lon="11.751089"><ele>1199.75</ele><time>2026-04-06T12:50:05.592Z</time></trkpt><trkpt lat="45.8586264" lon="11.7512919"><ele>1201.0</ele><time>2026-04-06T12:50:06.591Z</time></trkpt><trkpt lat="45.8585591" lon="11.7514945"><ele>1202.3333333333333</ele><time>2026-04-06T12:50:07.594Z</time></trkpt><trkpt lat="45.8584955" lon="11.7517047"><ele>1203.6666666666667</ele><time>2026-04-06T12:50:08.596Z</time></trkpt><trkpt lat="45.8584113" lon="11.7519187"><ele>1205.0</ele><time>2026-04-06T12:50:09.593Z</time></trkpt><trkpt lat="45.8583654" lon="11.7521288"><ele>1199.0</ele><time>2026-04-06T12:50:10.602Z</time></trkpt><trkpt lat="45.8583534" lon="11.7523824"><ele>1193.0</ele><time>2026-04-06T12:50:11.592Z</time></trkpt><trkpt lat="45.8583548" lon="11.7526413"><ele>1187.0</ele><time>2026-04-06T12:50:12.595Z</time></trkpt><trkpt lat="45.8583634" lon="11.7529066"><ele>1187.0</ele><time>2026-04-06T12:50:13.609Z</time></trkpt><trkpt lat="45.858394" lon="11.7531834"><ele>1187.0</ele><time>2026-04-06T12:50:14.631Z</time></trkpt><trkpt lat="45.8584401" lon="11.7534709"><ele>1187.0</ele><time>2026-04-06T12:50:15.591Z</time></trkpt><trkpt lat="45.8584892" lon="11.7537644"><ele>1201.6666666666667</ele><time>2026-04-06T12:50:16.592Z</time></trkpt><trkpt lat="45.8585408" lon="11.7540548"><ele>1216.3333333333333</ele><time>2026-04-06T12:50:17.589Z</time></trkpt><trkpt lat="45.8585859" lon="11.7543461"><ele>1231.0</ele><time>2026-04-06T12:50:18.594Z</time></trkpt><trkpt lat="45.8586233" lon="11.7546367"><ele>1231.3333333333333</ele><time>2026-04-06T12:50:19.59Z</time></trkpt><trkpt lat="45.8586694" lon="11.7549229"><ele>1231.6666666666667</ele><time>2026-04-06T12:50:20.59Z</time></trkpt><trkpt lat="45.8587271" lon="11.7552086"><ele>1232.0</ele><time>2026-04-06T12:50:21.592Z</time></trkpt><trkpt lat="45.8587815" lon="11.755491"><ele>1232.0</ele><time>2026-04-06T12:50:22.594Z</time></trkpt><trkpt lat="45.8588272" lon="11.7557608"><ele>1232.0</ele><time>2026-04-06T12:50:23.591Z</time></trkpt><trkpt lat="45.8588665" lon="11.7560258"><ele>1232.0</ele><time>2026-04-06T12:50:24.591Z</time></trkpt><trkpt lat="45.8588745" lon="11.7562814"><ele>1230.6666666666667</ele><time>2026-04-06T12:50:25.591Z</time></trkpt><trkpt lat="45.8588819" lon="11.7565467"><ele>1229.3333333333333</ele><time>2026-04-06T12:50:26.59Z</time></trkpt><trkpt lat="45.8588909" lon="11.7568124"><ele>1228.0</ele><time>2026-04-06T12:50:27.592Z</time></trkpt><trkpt lat="45.8589272" lon="11.7570533"><ele>1226.3333333333333</ele><time>2026-04-06T12:50:28.593Z</time></trkpt><trkpt lat="45.8589682" lon="11.7573002"><ele>1224.6666666666667</ele><time>2026-04-06T12:50:29.587Z</time></trkpt><trkpt lat="45.8589972" lon="11.7575529"><ele>1223.0</ele><time>2026-04-06T12:50:30.6Z</time></trkpt><trkpt lat="45.858998" lon="11.7577513"><ele>1222.5</ele><time>2026-04-06T12:50:31.598Z</time></trkpt><trkpt lat="45.8590005" lon="11.7579323"><ele>1222.0</ele><time>2026-04-06T12:50:32.593Z</time></trkpt><trkpt lat="45.859055" lon="11.7581206"><ele>1221.5</ele><time>2026-04-06T12:50:33.595Z</time></trkpt><trkpt lat="45.8591355" lon="11.7583149"><ele>1221.0</ele><time>2026-04-06T12:50:34.592Z</time></trkpt><trkpt lat="45.8592341" lon="11.7585068"><ele>1228.6666666666667</ele><time>2026-04-06T12:50:35.591Z</time></trkpt><trkpt lat="45.8593487" lon="11.7586998"><ele>1236.3333333333335</ele><time>2026-04-06T12:50:36.593Z</time></trkpt><trkpt lat="45.8594716" lon="11.7589062"><ele>1244.0</ele><time>2026-04-06T12:50:37.593Z</time></trkpt><trkpt lat="45.8595944" lon="11.7591243"><ele>1244.0</ele><time>2026-04-06T12:50:38.597Z</time></trkpt><trkpt lat="45.8596943" lon="11.7593413"><ele>1244.0</ele><time>2026-04-06T12:50:39.587Z</time></trkpt><trkpt lat="45.8597861" lon="11.7595408"><ele>1244.0</ele><time>2026-04-06T12:50:40.593Z</time></trkpt><trkpt lat="45.8598795" lon="11.7597275"><ele>1240.0</ele><time>2026-04-06T12:50:41.594Z</time></trkpt><trkpt lat="45.8599605" lon="11.7599217"><ele>1236.0</ele><time>2026-04-06T12:50:42.619Z</time></trkpt><trkpt lat="45.860023" lon="11.7601227"><ele>1232.0</ele><time>2026-04-06T12:50:43.6Z</time></trkpt><trkpt lat="45.8600825" lon="11.7603193"><ele>1236.6666666666667</ele><time>2026-04-06T12:50:44.596Z</time></trkpt><trkpt lat="45.8601653" lon="11.7604997"><ele>1241.3333333333333</ele><time>2026-04-06T12:50:45.592Z</time></trkpt><trkpt lat="45.8602576" lon="11.7606691"><ele>1246.0</ele><time>2026-04-06T12:50:46.591Z</time></trkpt><trkpt lat="45.8603772" lon="11.7608246"><ele>1246.0</ele><time>2026-04-06T12:50:47.593Z</time></trkpt><trkpt lat="45.8604796" lon="11.7609568"><ele>1246.0</ele><time>2026-04-06T12:50:48.594Z</time></trkpt><trkpt lat="45.8605738" lon="11.761035"><ele>1246.0</ele><time>2026-04-06T12:50:49.597Z</time></trkpt><trkpt lat="45.8606812" lon="11.7611065"><ele>1246.0</ele><time>2026-04-06T12:50:50.59Z</time></trkpt><trkpt lat="45.8608368" lon="11.7610669"><ele>1244.6666666666665</ele><time>2026-04-06T12:50:51.594Z</time></trkpt><trkpt lat="45.8609993" lon="11.7610362"><ele>1243.3333333333333</ele><time>2026-04-06T12:50:52.597Z</time></trkpt><trkpt lat="45.8611598" lon="11.7610241"><ele>1242.0</ele><time>2026-04-06T12:50:53.594Z</time></trkpt><trkpt lat="45.861307" lon="11.7610356"><ele>1242.0</ele><time>2026-04-06T12:50:54.592Z</time></trkpt><trkpt lat="45.8614362" lon="11.7610556"><ele>1242.0</ele><time>2026-04-06T12:50:55.589Z</time></trkpt><trkpt lat="45.8615254" lon="11.7611141"><ele>1242.0</ele><time>2026-04-06T12:50:56.594Z</time></trkpt><trkpt lat="45.8615925" lon="11.7612323"><ele>1242.0</ele><time>2026-04-06T12:50:57.586Z</time></trkpt><trkpt lat="45.8616411" lon="11.7613636"><ele>1242.0</ele><time>2026-04-06T12:50:58.591Z</time></trkpt><trkpt lat="45.8617101" lon="11.7614588"><ele>1244.5</ele><time>2026-04-06T12:50:59.595Z</time></trkpt><trkpt lat="45.8618024" lon="11.7615033"><ele>1247.0</ele><time>2026-04-06T12:51:00.594Z</time></trkpt><trkpt lat="45.8619204" lon="11.7615055"><ele>1249.5</ele><time>2026-04-06T12:51:01.596Z</time></trkpt><trkpt lat="45.8620649" lon="11.7614885"><ele>1252.0</ele><time>2026-04-06T12:51:02.592Z</time></trkpt><trkpt lat="45.8621924" lon="11.7614865"><ele>1252.0</ele><time>2026-04-06T12:51:03.593Z</time></trkpt><trkpt lat="45.8623242" lon="11.7614829"><ele>1252.0</ele><time>2026-04-06T12:51:04.599Z</time></trkpt><trkpt lat="45.8624332" lon="11.7616048"><ele>1252.0</ele><time>2026-04-06T12:51:05.594Z</time></trkpt><trkpt lat="45.862541" lon="11.7617653"><ele>1252.0</ele><time>2026-04-06T12:51:06.597Z</time></trkpt><trkpt lat="45.8626838" lon="11.7618898"><ele>1255.75</ele><time>2026-04-06T12:51:07.593Z</time></trkpt><trkpt lat="45.8628353" lon="11.761993"><ele>1259.5</ele><time>2026-04-06T12:51:08.593Z</time></trkpt><trkpt lat="45.8629559" lon="11.7620696"><ele>1263.25</ele><time>2026-04-06T12:51:09.598Z</time></trkpt><trkpt lat="45.8630555" lon="11.7621538"><ele>1267.0</ele><time>2026-04-06T12:51:10.6Z</time></trkpt><trkpt lat="45.8631155" lon="11.762299"><ele>1267.0</ele><time>2026-04-06T12:51:11.594Z</time></trkpt><trkpt lat="45.8631603" lon="11.7624747"><ele>1267.0</ele><time>2026-04-06T12:51:12.598Z</time></trkpt><trkpt lat="45.8631851" lon="11.762683"><ele>1267.0</ele><time>2026-04-06T12:51:13.598Z</time></trkpt><trkpt lat="45.8632231" lon="11.7628981"><ele>1267.0</ele><time>2026-04-06T12:51:14.59Z</time></trkpt><trkpt lat="45.8632933" lon="11.7630975"><ele>1265.75</ele><time>2026-04-06T12:51:15.597Z</time></trkpt><trkpt lat="45.8633662" lon="11.7632481"><ele>1264.5</ele><time>2026-04-06T12:51:16.589Z</time></trkpt><trkpt lat="45.8634374" lon="11.7633531"><ele>1263.25</ele><time>2026-04-06T12:51:17.593Z</time></trkpt><trkpt lat="45.8635329" lon="11.7634209"><ele>1262.0</ele><time>2026-04-06T12:51:18.589Z</time></trkpt><trkpt lat="45.8636497" lon="11.763449"><ele>1264.75</ele><time>2026-04-06T12:51:19.595Z</time></trkpt><trkpt lat="45.8637813" lon="11.76346"><ele>1267.5</ele><time>2026-04-06T12:51:20.597Z</time></trkpt><trkpt lat="45.8639077" lon="11.7634893"><ele>1270.25</ele><time>2026-04-06T12:51:21.594Z</time></trkpt><trkpt lat="45.8640228" lon="11.7635256"><ele>1273.0</ele><time>2026-04-06T12:51:22.592Z</time></trkpt><trkpt lat="45.8641209" lon="11.7636547"><ele>1273.0</ele><time>2026-04-06T12:51:23.595Z</time></trkpt><trkpt lat="45.864215" lon="11.7638262"><ele>1273.0</ele><time>2026-04-06T12:51:24.591Z</time></trkpt><trkpt lat="45.8643003" lon="11.7639851"><ele>1273.0</ele><time>2026-04-06T12:51:25.597Z</time></trkpt><trkpt lat="45.864368" lon="11.7641174"><ele>1273.0</ele><time>2026-04-06T12:51:26.599Z</time></trkpt><trkpt lat="45.8644211" lon="11.7642212"><ele>1275.2</ele><time>2026-04-06T12:51:27.592Z</time></trkpt><trkpt lat="45.8644471" lon="11.7643352"><ele>1277.4</ele><time>2026-04-06T12:51:28.589Z</time></trkpt><trkpt lat="45.8644283" lon="11.7644498"><ele>1279.6000000000001</ele><time>2026-04-06T12:51:29.594Z</time></trkpt><trkpt lat="45.8643922" lon="11.7645562"><ele>1281.8</ele><time>2026-04-06T12:51:30.6Z</time></trkpt><trkpt lat="45.8642908" lon="11.7646314"><ele>1284.0</ele><time>2026-04-06T12:51:31.596Z</time></trkpt><trkpt lat="45.8641975" lon="11.7646845"><ele>1284.0</ele><time>2026-04-06T12:51:32.594Z</time></trkpt><trkpt lat="45.8640863" lon="11.7646568"><ele>1284.0</ele><time>2026-04-06T12:51:33.594Z</time></trkpt><trkpt lat="45.8640006" lon="11.7645742"><ele>1284.0</ele><time>2026-04-06T12:51:34.601Z</time></trkpt><trkpt lat="45.8639157" lon="11.7645006"><ele>1284.0</ele><time>2026-04-06T12:51:35.595Z</time></trkpt><trkpt lat="45.8637988" lon="11.7644859"><ele>1284.0</ele><time>2026-04-06T12:51:36.594Z</time></trkpt><trkpt lat="45.8636595" lon="11.7645154"><ele>1284.0</ele><time>2026-04-06T12:51:37.597Z</time></trkpt><trkpt lat="45.8635234" lon="11.7645874"><ele>1284.0</ele><time>2026-04-06T12:51:38.594Z</time></trkpt><trkpt lat="45.8633812" lon="11.7646734"><ele>1284.0</ele><time>2026-04-06T12:51:39.59Z</time></trkpt><trkpt lat="45.8632791" lon="11.7647842"><ele>1284.0</ele><time>2026-04-06T12:51:40.592Z</time></trkpt><trkpt lat="45.8631906" lon="11.7648656"><ele>1285.8000000000002</ele><time>2026-04-06T12:51:41.591Z</time></trkpt><trkpt lat="45.863087" lon="11.7649297"><ele>1287.6000000000001</ele><time>2026-04-06T12:51:42.591Z</time></trkpt><trkpt lat="45.8630016" lon="11.764885"><ele>1289.4</ele><time>2026-04-06T12:51:43.593Z</time></trkpt><trkpt lat="45.8629362" lon="11.7647536"><ele>1291.2</ele><time>2026-04-06T12:51:44.598Z</time></trkpt><trkpt lat="45.8628814" lon="11.7646223"><ele>1293.0</ele><time>2026-04-06T12:51:45.594Z</time></trkpt><trkpt lat="45.8628122" lon="11.7645334"><ele>1293.0</ele><time>2026-04-06T12:51:46.592Z</time></trkpt><trkpt lat="45.8627183" lon="11.7644967"><ele>1293.0</ele><time>2026-04-06T12:51:47.592Z</time></trkpt><trkpt lat="45.8626137" lon="11.7645204"><ele>1293.0</ele><time>2026-04-06T12:51:48.597Z</time></trkpt><trkpt lat="45.8625027" lon="11.7645682"><ele>1293.0</ele><time>2026-04-06T12:51:49.592Z</time></trkpt><trkpt lat="45.8623871" lon="11.7646859"><ele>1293.3333333333333</ele><time>2026-04-06T12:51:50.594Z</time></trkpt><trkpt lat="45.8622687" lon="11.764836"><ele>1293.6666666666665</ele><time>2026-04-06T12:51:51.594Z</time></trkpt><trkpt lat="45.8621408" lon="11.7649769"><ele>1294.0</ele><time>2026-04-06T12:51:52.598Z</time></trkpt><trkpt lat="45.8620214" lon="11.7651005"><ele>1295.5</ele><time>2026-04-06T12:51:53.597Z</time></trkpt><trkpt lat="45.8619111" lon="11.7652122"><ele>1297.0</ele><time>2026-04-06T12:51:54.595Z</time></trkpt><trkpt lat="45.8618203" lon="11.7653255"><ele>1298.5</ele><time>2026-04-06T12:51:55.595Z</time></trkpt><trkpt lat="45.8617439" lon="11.7654812"><ele>1300.0</ele><time>2026-04-06T12:51:56.597Z</time></trkpt><trkpt lat="45.8616828" lon="11.7656815"><ele>1300.0</ele><time>2026-04-06T12:51:57.596Z</time></trkpt><trkpt lat="45.8616259" lon="11.765899"><ele>1300.0</ele><time>2026-04-06T12:51:58.6Z</time></trkpt><trkpt lat="45.861555" lon="11.7661055"><ele>1300.0</ele><time>2026-04-06T12:51:59.592Z</time></trkpt><trkpt lat="45.8614716" lon="11.7662815"><ele>1301.75</ele><time>2026-04-06T12:52:00.604Z</time></trkpt><trkpt lat="45.8613995" lon="11.7664263"><ele>1303.5</ele><time>2026-04-06T12:52:01.602Z</time></trkpt><trkpt lat="45.8613472" lon="11.7665685"><ele>1305.25</ele><time>2026-04-06T12:52:02.603Z</time></trkpt><trkpt lat="45.861316" lon="11.7667189"><ele>1307.0</ele><time>2026-04-06T12:52:03.597Z</time></trkpt><trkpt lat="45.8613146" lon="11.766874"><ele>1307.0</ele><time>2026-04-06T12:52:04.599Z</time></trkpt><trkpt lat="45.8613463" lon="11.7670129"><ele>1307.0</ele><time>2026-04-06T12:52:05.594Z</time></trkpt><trkpt lat="45.8614178" lon="11.7671325"><ele>1307.0</ele><time>2026-04-06T12:52:06.595Z</time></trkpt><trkpt lat="45.8615222" lon="11.7672293"><ele>1307.0</ele><time>2026-04-06T12:52:07.591Z</time></trkpt><trkpt lat="45.86164" lon="11.7673195"><ele>1313.25</ele><time>2026-04-06T12:52:08.596Z</time></trkpt><trkpt lat="45.8617827" lon="11.7673596"><ele>1319.5</ele><time>2026-04-06T12:52:09.595Z</time></trkpt><trkpt lat="45.8619098" lon="11.7673831"><ele>1325.75</ele><time>2026-04-06T12:52:10.595Z</time></trkpt><trkpt lat="45.8620122" lon="11.7674116"><ele>1332.0</ele><time>2026-04-06T12:52:11.597Z</time></trkpt><trkpt lat="45.8620838" lon="11.7674575"><ele>1332.0</ele><time>2026-04-06T12:52:12.593Z</time></trkpt><trkpt lat="45.8621277" lon="11.7675618"><ele>1332.0</ele><time>2026-04-06T12:52:13.593Z</time></trkpt><trkpt lat="45.8621523" lon="11.7676656"><ele>1332.0</ele><time>2026-04-06T12:52:14.601Z</time></trkpt><trkpt lat="45.8621248" lon="11.7678152"><ele>1332.0</ele><time>2026-04-06T12:52:15.599Z</time></trkpt><trkpt lat="45.8621148" lon="11.7679711"><ele>1332.0</ele><time>2026-04-06T12:52:16.594Z</time></trkpt><trkpt lat="45.8621375" lon="11.7681168"><ele>1331.8</ele><time>2026-04-06T12:52:17.594Z</time></trkpt><trkpt lat="45.8621924" lon="11.7682523"><ele>1331.6</ele><time>2026-04-06T12:52:18.595Z</time></trkpt><trkpt lat="45.862267" lon="11.7683544"><ele>1331.3999999999999</ele><time>2026-04-06T12:52:19.593Z</time></trkpt><trkpt lat="45.8623271" lon="11.7684458"><ele>1331.1999999999998</ele><time>2026-04-06T12:52:20.602Z</time></trkpt><trkpt lat="45.862349" lon="11.7685574"><ele>1331.0</ele><time>2026-04-06T12:52:21.594Z</time></trkpt><trkpt lat="45.8623202" lon="11.7686638"><ele>1333.1999999999998</ele><time>2026-04-06T12:52:22.595Z</time></trkpt><trkpt lat="45.8622496" lon="11.7687549"><ele>1335.3999999999999</ele><time>2026-04-06T12:52:23.598Z</time></trkpt><trkpt lat="45.8621558" lon="11.7688453"><ele>1337.6</ele><time>2026-04-06T12:52:24.592Z</time></trkpt><trkpt lat="45.8620609" lon="11.7689373"><ele>1339.8</ele><time>2026-04-06T12:52:25.591Z</time></trkpt><trkpt lat="45.8619847" lon="11.76904"><ele>1342.0</ele><time>2026-04-06T12:52:26.599Z</time></trkpt><trkpt lat="45.86192" lon="11.7691513"><ele>1342.0</ele><time>2026-04-06T12:52:27.596Z</time></trkpt><trkpt lat="45.861917" lon="11.7693054"><ele>1342.0</ele><time>2026-04-06T12:52:28.591Z</time></trkpt><trkpt lat="45.8619487" lon="11.769477"><ele>1342.0</ele><time>2026-04-06T12:52:29.593Z</time></trkpt><trkpt lat="45.8619949" lon="11.7696666"><ele>1342.0</ele><time>2026-04-06T12:52:30.603Z</time></trkpt><trkpt lat="45.8620353" lon="11.769833"><ele>1345.0</ele><time>2026-04-06T12:52:31.599Z</time></trkpt><trkpt lat="45.8620427" lon="11.7699974"><ele>1348.0</ele><time>2026-04-06T12:52:32.596Z</time></trkpt><trkpt lat="45.8620048" lon="11.7701521"><ele>1351.0</ele><time>2026-04-06T12:52:33.596Z</time></trkpt><trkpt lat="45.8619285" lon="11.7702868"><ele>1354.0</ele><time>2026-04-06T12:52:34.6Z</time></trkpt><trkpt lat="45.8618476" lon="11.770447"><ele>1351.0</ele><time>2026-04-06T12:52:35.594Z</time></trkpt><trkpt lat="45.8617713" lon="11.7706386"><ele>1348.0</ele><time>2026-04-06T12:52:36.598Z</time></trkpt><trkpt lat="45.8617023" lon="11.7708212"><ele>1345.0</ele><time>2026-04-06T12:52:37.596Z</time></trkpt><trkpt lat="45.8616489" lon="11.7710135"><ele>1342.0</ele><time>2026-04-06T12:52:38.594Z</time></trkpt><trkpt lat="45.8616254" lon="11.7712054"><ele>1342.0</ele><time>2026-04-06T12:52:39.593Z</time></trkpt><trkpt lat="45.861626" lon="11.7714218"><ele>1342.0</ele><time>2026-04-06T12:52:40.592Z</time></trkpt><trkpt lat="45.8616263" lon="11.7716281"><ele>1342.0</ele><time>2026-04-06T12:52:41.591Z</time></trkpt><trkpt lat="45.8615912" lon="11.771789"><ele>1342.0</ele><time>2026-04-06T12:52:42.597Z</time></trkpt><trkpt lat="45.8615369" lon="11.7719306"><ele>1343.75</ele><time>2026-04-06T12:52:43.593Z</time></trkpt><trkpt lat="45.8614902" lon="11.7720856"><ele>1345.5</ele><time>2026-04-06T12:52:44.598Z</time></trkpt><trkpt lat="45.8614722" lon="11.772253"><ele>1347.25</ele><time>2026-04-06T12:52:45.595Z</time></trkpt><trkpt lat="45.8614763" lon="11.7724323"><ele>1349.0</ele><time>2026-04-06T12:52:46.597Z</time></trkpt><trkpt lat="45.8615" lon="11.7726167"><ele>1349.75</ele><time>2026-04-06T12:52:47.596Z</time></trkpt><trkpt lat="45.8615304" lon="11.7728092"><ele>1350.5</ele><time>2026-04-06T12:52:48.591Z</time></trkpt><trkpt lat="45.8615774" lon="11.7730004"><ele>1351.25</ele><time>2026-04-06T12:52:49.595Z</time></trkpt><trkpt lat="45.8616409" lon="11.7731971"><ele>1352.0</ele><time>2026-04-06T12:52:50.598Z</time></trkpt><trkpt lat="45.861701" lon="11.7734019"><ele>1352.5</ele><time>2026-04-06T12:52:51.596Z</time></trkpt><trkpt lat="45.8617488" lon="11.7735959"><ele>1353.0</ele><time>2026-04-06T12:52:52.598Z</time></trkpt><trkpt lat="45.8617806" lon="11.7737903"><ele>1353.5</ele><time>2026-04-06T12:52:53.595Z</time></trkpt><trkpt lat="45.8618003" lon="11.7739901"><ele>1354.0</ele><time>2026-04-06T12:52:54.588Z</time></trkpt><trkpt lat="45.8617779" lon="11.7742034"><ele>1355.0</ele><time>2026-04-06T12:52:55.595Z</time></trkpt><trkpt lat="45.8617442" lon="11.7744217"><ele>1356.0</ele><time>2026-04-06T12:52:56.591Z</time></trkpt><trkpt lat="45.8617185" lon="11.7746182"><ele>1357.0</ele><time>2026-04-06T12:52:57.589Z</time></trkpt><trkpt lat="45.8617043" lon="11.7748143"><ele>1358.0</ele><time>2026-04-06T12:52:58.597Z</time></trkpt><trkpt lat="45.8617329" lon="11.7750109"><ele>1366.3333333333335</ele><time>2026-04-06T12:52:59.595Z</time></trkpt><trkpt lat="45.8617891" lon="11.7752167"><ele>1374.6666666666667</ele><time>2026-04-06T12:53:00.59Z</time></trkpt><trkpt lat="45.8618491" lon="11.7754302"><ele>1383.0</ele><time>2026-04-06T12:53:01.598Z</time></trkpt><trkpt lat="45.8619017" lon="11.775621"><ele>1383.0</ele><time>2026-04-06T12:53:02.596Z</time></trkpt><trkpt lat="45.8619602" lon="11.7757971"><ele>1383.0</ele><time>2026-04-06T12:53:03.595Z</time></trkpt><trkpt lat="45.8620427" lon="11.7759696"><ele>1383.0</ele><time>2026-04-06T12:53:04.599Z</time></trkpt><trkpt lat="45.8621573" lon="11.7761291"><ele>1383.0</ele><time>2026-04-06T12:53:05.601Z</time></trkpt><trkpt lat="45.8622891" lon="11.7762892"><ele>1386.3333333333333</ele><time>2026-04-06T12:53:06.594Z</time></trkpt><trkpt lat="45.8624258" lon="11.7764522"><ele>1389.6666666666665</ele><time>2026-04-06T12:53:07.594Z</time></trkpt><trkpt lat="45.8625593" lon="11.7766148"><ele>1393.0</ele><time>2026-04-06T12:53:08.59Z</time></trkpt><trkpt lat="45.8626771" lon="11.776766"><ele>1389.75</ele><time>2026-04-06T12:53:09.589Z</time></trkpt><trkpt lat="45.8627757" lon="11.7769046"><ele>1386.5</ele><time>2026-04-06T12:53:10.598Z</time></trkpt><trkpt lat="45.8628752" lon="11.7770242"><ele>1383.25</ele><time>2026-04-06T12:53:11.594Z</time></trkpt><trkpt lat="45.8629907" lon="11.7771104"><ele>1380.0</ele><time>2026-04-06T12:53:12.591Z</time></trkpt><trkpt lat="45.8631164" lon="11.7771556"><ele>1380.0</ele><time>2026-04-06T12:53:13.598Z</time></trkpt><trkpt lat="45.8632319" lon="11.7771885"><ele>1380.0</ele><time>2026-04-06T12:53:14.601Z</time></trkpt><trkpt lat="45.8633234" lon="11.777236"><ele>1380.0</ele><time>2026-04-06T12:53:15.602Z</time></trkpt><trkpt lat="45.8634023" lon="11.7773353"><ele>1380.0</ele><time>2026-04-06T12:53:16.595Z</time></trkpt><trkpt lat="45.863456" lon="11.7774687"><ele>1380.0</ele><time>2026-04-06T12:53:17.591Z</time></trkpt><trkpt lat="45.8635195" lon="11.7775997"><ele>1380.75</ele><time>2026-04-06T12:53:18.593Z</time></trkpt><trkpt lat="45.8636053" lon="11.7777103"><ele>1381.5</ele><time>2026-04-06T12:53:19.595Z</time></trkpt><trkpt lat="45.8636958" lon="11.7778052"><ele>1382.25</ele><time>2026-04-06T12:53:20.591Z</time></trkpt><trkpt lat="45.8638215" lon="11.7778154"><ele>1383.0</ele><time>2026-04-06T12:53:21.602Z</time></trkpt><trkpt lat="45.863948" lon="11.7777811"><ele>1383.0</ele><time>2026-04-06T12:53:22.599Z</time></trkpt><trkpt lat="45.8640725" lon="11.7777139"><ele>1383.0</ele><time>2026-04-06T12:53:23.591Z</time></trkpt><trkpt lat="45.8641973" lon="11.7776227"><ele>1383.0</ele><time>2026-04-06T12:53:24.593Z</time></trkpt><trkpt lat="45.8643118" lon="11.7775141"><ele>1383.0</ele><time>2026-04-06T12:53:25.596Z</time></trkpt><trkpt lat="45.8644116" lon="11.7773839"><ele>1384.0</ele><time>2026-04-06T12:53:26.599Z</time></trkpt><trkpt lat="45.864489" lon="11.7772717"><ele>1385.0</ele><time>2026-04-06T12:53:27.595Z</time></trkpt><trkpt lat="45.8645515" lon="11.7771855"><ele>1386.0</ele><time>2026-04-06T12:53:28.592Z</time></trkpt><trkpt lat="45.8645978" lon="11.7771121"><ele>1387.0</ele><time>2026-04-06T12:53:29.59Z</time></trkpt><trkpt lat="45.8646635" lon="11.7769976"><ele>1388.0</ele><time>2026-04-06T12:53:31.604Z</time></trkpt><trkpt lat="45.8647458" lon="11.7768666"><ele>1389.8333333333335</ele><time>2026-04-06T12:53:33.595Z</time></trkpt><trkpt lat="45.8647928" lon="11.7768002"><ele>1391.6666666666667</ele><time>2026-04-06T12:53:34.592Z</time></trkpt><trkpt lat="45.8648417" lon="11.7767292"><ele>1393.5</ele><time>2026-04-06T12:53:35.6Z</time></trkpt><trkpt lat="45.864892" lon="11.776651"><ele>1395.3333333333333</ele><time>2026-04-06T12:53:36.593Z</time></trkpt><trkpt lat="45.8649469" lon="11.7765709"><ele>1397.1666666666665</ele><time>2026-04-06T12:53:37.593Z</time></trkpt><trkpt lat="45.8650052" lon="11.7764905"><ele>1399.0</ele><time>2026-04-06T12:53:38.594Z</time></trkpt><trkpt lat="45.8650702" lon="11.7764076"><ele>1399.2</ele><time>2026-04-06T12:53:39.597Z</time></trkpt><trkpt lat="45.8651396" lon="11.7763204"><ele>1399.4</ele><time>2026-04-06T12:53:40.599Z</time></trkpt><trkpt lat="45.8652112" lon="11.7762289"><ele>1399.6</ele><time>2026-04-06T12:53:41.592Z</time></trkpt><trkpt lat="45.8652831" lon="11.7761293"><ele>1399.8</ele><time>2026-04-06T12:53:42.596Z</time></trkpt><trkpt lat="45.8653565" lon="11.7760234"><ele>1400.0</ele><time>2026-04-06T12:53:43.589Z</time></trkpt><trkpt lat="45.8654301" lon="11.7759136"><ele>1400.6</ele><time>2026-04-06T12:53:44.594Z</time></trkpt><trkpt lat="45.8655039" lon="11.7757974"><ele>1401.2</ele><time>2026-04-06T12:53:45.594Z</time></trkpt><trkpt lat="45.8655771" lon="11.7756803"><ele>1401.8000000000002</ele><time>2026-04-06T12:53:46.592Z</time></trkpt><trkpt lat="45.8656464" lon="11.7755658"><ele>1402.4</ele><time>2026-04-06T12:53:47.591Z</time></trkpt><trkpt lat="45.8657082" lon="11.7754626"><ele>1403.0</ele><time>2026-04-06T12:53:48.591Z</time></trkpt><trkpt lat="45.8657677" lon="11.7753613"><ele>1403.0</ele><time>2026-04-06T12:53:49.593Z</time></trkpt><trkpt lat="45.8658271" lon="11.7752608"><ele>1403.0</ele><time>2026-04-06T12:53:50.591Z</time></trkpt><trkpt lat="45.8658871" lon="11.7751616"><ele>1403.0</ele><time>2026-04-06T12:53:51.589Z</time></trkpt><trkpt lat="45.8659503" lon="11.7750525"><ele>1403.0</ele><time>2026-04-06T12:53:52.599Z</time></trkpt><trkpt lat="45.8660037" lon="11.7749477"><ele>1403.0</ele><time>2026-04-06T12:53:53.593Z</time></trkpt><trkpt lat="45.8660691" lon="11.7748355"><ele>1406.0</ele><time>2026-04-06T12:53:54.592Z</time></trkpt><trkpt lat="45.8661154" lon="11.7747239"><ele>1409.0</ele><time>2026-04-06T12:53:55.589Z</time></trkpt><trkpt lat="45.8661571" lon="11.7745999"><ele>1412.0</ele><time>2026-04-06T12:53:56.597Z</time></trkpt><trkpt lat="45.8661987" lon="11.7744724"><ele>1415.0</ele><time>2026-04-06T12:53:57.593Z</time></trkpt><trkpt lat="45.8662406" lon="11.7743547"><ele>1418.0</ele><time>2026-04-06T12:53:58.59Z</time></trkpt><trkpt lat="45.8662778" lon="11.7742459"><ele>1419.7142857142858</ele><time>2026-04-06T12:53:59.592Z</time></trkpt><trkpt lat="45.8663109" lon="11.7741573"><ele>1421.4285714285716</ele><time>2026-04-06T12:54:00.592Z</time></trkpt><trkpt lat="45.866349" lon="11.7740798"><ele>1423.1428571428573</ele><time>2026-04-06T12:54:01.597Z</time></trkpt><trkpt lat="45.8664027" lon="11.7740273"><ele>1424.857142857143</ele><time>2026-04-06T12:54:02.587Z</time></trkpt><trkpt lat="45.866471" lon="11.7740214"><ele>1426.5714285714284</ele><time>2026-04-06T12:54:03.591Z</time></trkpt><trkpt lat="45.8665455" lon="11.774061"><ele>1428.2857142857144</ele><time>2026-04-06T12:54:04.594Z</time></trkpt><trkpt lat="45.8666215" lon="11.7741407"><ele>1430.0</ele><time>2026-04-06T12:54:05.595Z</time></trkpt><trkpt lat="45.8666981" lon="11.7742475"><ele>1427.0</ele><time>2026-04-06T12:54:06.594Z</time></trkpt><trkpt lat="45.8667684" lon="11.7743791"><ele>1424.0</ele><time>2026-04-06T12:54:07.595Z</time></trkpt><trkpt lat="45.8668322" lon="11.7745314"><ele>1421.0</ele><time>2026-04-06T12:54:08.596Z</time></trkpt><trkpt lat="45.8668874" lon="11.7746993"><ele>1418.0</ele><time>2026-04-06T12:54:09.596Z</time></trkpt><trkpt lat="45.8669269" lon="11.7748795"><ele>1427.25</ele><time>2026-04-06T12:54:10.596Z</time></trkpt><trkpt lat="45.8669423" lon="11.7750724"><ele>1436.5</ele><time>2026-04-06T12:54:11.591Z</time></trkpt><trkpt lat="45.866958" lon="11.7752742"><ele>1445.75</ele><time>2026-04-06T12:54:12.591Z</time></trkpt><trkpt lat="45.8669573" lon="11.7754767"><ele>1455.0</ele><time>2026-04-06T12:54:13.596Z</time></trkpt><trkpt lat="45.866953" lon="11.7756842"><ele>1455.6666666666667</ele><time>2026-04-06T12:54:14.59Z</time></trkpt><trkpt lat="45.8669524" lon="11.7759012"><ele>1456.3333333333335</ele><time>2026-04-06T12:54:15.592Z</time></trkpt><trkpt lat="45.8669447" lon="11.7761213"><ele>1457.0</ele><time>2026-04-06T12:54:16.592Z</time></trkpt><trkpt lat="45.8669141" lon="11.7763434"><ele>1458.3333333333335</ele><time>2026-04-06T12:54:17.59Z</time></trkpt><trkpt lat="45.8668685" lon="11.7765597"><ele>1459.6666666666667</ele><time>2026-04-06T12:54:18.592Z</time></trkpt><trkpt lat="45.8668195" lon="11.7767843"><ele>1461.0</ele><time>2026-04-06T12:54:19.59Z</time></trkpt><trkpt lat="45.8667802" lon="11.7770125"><ele>1453.6666666666667</ele><time>2026-04-06T12:54:20.594Z</time></trkpt><trkpt lat="45.8667471" lon="11.7772447"><ele>1446.3333333333335</ele><time>2026-04-06T12:54:21.601Z</time></trkpt><trkpt lat="45.8667174" lon="11.7774679"><ele>1439.0</ele><time>2026-04-06T12:54:22.595Z</time></trkpt><trkpt lat="45.866681" lon="11.7776745"><ele>1440.75</ele><time>2026-04-06T12:54:23.593Z</time></trkpt><trkpt lat="45.8666324" lon="11.7778464"><ele>1442.5</ele><time>2026-04-06T12:54:24.599Z</time></trkpt><trkpt lat="45.866587" lon="11.7780208"><ele>1444.25</ele><time>2026-04-06T12:54:25.597Z</time></trkpt><trkpt lat="45.8665539" lon="11.7782099"><ele>1446.0</ele><time>2026-04-06T12:54:26.595Z</time></trkpt><trkpt lat="45.8665399" lon="11.7784112"><ele>1448.0</ele><time>2026-04-06T12:54:27.613Z</time></trkpt><trkpt lat="45.8665375" lon="11.7786164"><ele>1450.0</ele><time>2026-04-06T12:54:28.593Z</time></trkpt><trkpt lat="45.8665373" lon="11.7788237"><ele>1452.0</ele><time>2026-04-06T12:54:29.594Z</time></trkpt><trkpt lat="45.8665371" lon="11.7790219"><ele>1454.0</ele><time>2026-04-06T12:54:30.598Z</time></trkpt><trkpt lat="45.8665306" lon="11.7791997"><ele>1455.8000000000002</ele><time>2026-04-06T12:54:31.6Z</time></trkpt><trkpt lat="45.8665154" lon="11.7793519"><ele>1457.6000000000001</ele><time>2026-04-06T12:54:32.599Z</time></trkpt><trkpt lat="45.8664856" lon="11.7794834"><ele>1459.4</ele><time>2026-04-06T12:54:33.594Z</time></trkpt><trkpt lat="45.8664418" lon="11.7796021"><ele>1461.2</ele><time>2026-04-06T12:54:34.595Z</time></trkpt><trkpt lat="45.8663966" lon="11.7797139"><ele>1463.0</ele><time>2026-04-06T12:54:35.594Z</time></trkpt><trkpt lat="45.866367" lon="11.7798303"><ele>1463.0</ele><time>2026-04-06T12:54:36.593Z</time></trkpt><trkpt lat="45.8663582" lon="11.7799523"><ele>1463.0</ele><time>2026-04-06T12:54:37.592Z</time></trkpt><trkpt lat="45.8663674" lon="11.78008"><ele>1463.0</ele><time>2026-04-06T12:54:38.595Z</time></trkpt><trkpt lat="45.8663831" lon="11.7802127"><ele>1463.0</ele><time>2026-04-06T12:54:39.6Z</time></trkpt><trkpt lat="45.8663973" lon="11.7803481"><ele>1463.0</ele><time>2026-04-06T12:54:40.607Z</time></trkpt><trkpt lat="45.8664091" lon="11.780488"><ele>1463.4</ele><time>2026-04-06T12:54:41.601Z</time></trkpt><trkpt lat="45.8664222" lon="11.7806354"><ele>1463.8000000000002</ele><time>2026-04-06T12:54:42.591Z</time></trkpt><trkpt lat="45.8664454" lon="11.7807848"><ele>1464.2</ele><time>2026-04-06T12:54:43.596Z</time></trkpt><trkpt lat="45.866476" lon="11.7809239"><ele>1464.6</ele><time>2026-04-06T12:54:44.602Z</time></trkpt><trkpt lat="45.8665071" lon="11.7810393"><ele>1465.0</ele><time>2026-04-06T12:54:45.599Z</time></trkpt><trkpt lat="45.8665356" lon="11.7811298"><ele>1465.0</ele><time>2026-04-06T12:54:46.597Z</time></trkpt><trkpt lat="45.8665601" lon="11.781215"><ele>1465.0</ele><time>2026-04-06T12:54:47.591Z</time></trkpt><trkpt lat="45.8665861" lon="11.7813061"><ele>1465.0</ele><time>2026-04-06T12:54:48.6Z</time></trkpt><trkpt lat="45.8666061" lon="11.7813967"><ele>1465.0</ele><time>2026-04-06T12:54:49.597Z</time></trkpt><trkpt lat="45.8666169" lon="11.7814969"><ele>1465.0</ele><time>2026-04-06T12:54:50.595Z</time></trkpt><trkpt lat="45.8666095" lon="11.7816076"><ele>1465.0</ele><time>2026-04-06T12:54:51.603Z</time></trkpt><trkpt lat="45.8665885" lon="11.781718"><ele>1465.0</ele><time>2026-04-06T12:54:52.592Z</time></trkpt><trkpt lat="45.8665596" lon="11.7818291"><ele>1464.1666666666665</ele><time>2026-04-06T12:54:53.594Z</time></trkpt><trkpt lat="45.8665384" lon="11.7819422"><ele>1463.3333333333333</ele><time>2026-04-06T12:54:54.597Z</time></trkpt><trkpt lat="45.866534" lon="11.7820569"><ele>1462.5</ele><time>2026-04-06T12:54:55.595Z</time></trkpt><trkpt lat="45.8665475" lon="11.7821723"><ele>1461.6666666666667</ele><time>2026-04-06T12:54:56.598Z</time></trkpt><trkpt lat="45.8665787" lon="11.7822845"><ele>1460.8333333333335</ele><time>2026-04-06T12:54:57.595Z</time></trkpt><trkpt lat="45.8666217" lon="11.7823909"><ele>1460.0</ele><time>2026-04-06T12:54:58.595Z</time></trkpt><trkpt lat="45.8666909" lon="11.7824808"><ele>1463.75</ele><time>2026-04-06T12:54:59.594Z</time></trkpt><trkpt lat="45.8667842" lon="11.782569"><ele>1467.5</ele><time>2026-04-06T12:55:00.596Z</time></trkpt><trkpt lat="45.8668914" lon="11.7826721"><ele>1471.25</ele><time>2026-04-06T12:55:01.599Z</time></trkpt><trkpt lat="45.867004" lon="11.7827969"><ele>1475.0</ele><time>2026-04-06T12:55:02.607Z</time></trkpt><trkpt lat="45.8671238" lon="11.7829365"><ele>1475.0</ele><time>2026-04-06T12:55:03.598Z</time></trkpt><trkpt lat="45.8672477" lon="11.7830823"><ele>1475.0</ele><time>2026-04-06T12:55:04.598Z</time></trkpt><trkpt lat="45.8673749" lon="11.7832335"><ele>1475.0</ele><time>2026-04-06T12:55:05.595Z</time></trkpt><trkpt lat="45.8674907" lon="11.7833748"><ele>1475.0</ele><time>2026-04-06T12:55:06.608Z</time></trkpt><trkpt lat="45.8675937" lon="11.7834981"><ele>1475.0</ele><time>2026-04-06T12:55:07.597Z</time></trkpt><trkpt lat="45.867683" lon="11.7836014"><ele>1475.0</ele><time>2026-04-06T12:55:08.6Z</time></trkpt><trkpt lat="45.8677538" lon="11.783691"><ele>1475.0</ele><time>2026-04-06T12:55:09.588Z</time></trkpt><trkpt lat="45.8678006" lon="11.7837887"><ele>1475.0</ele><time>2026-04-06T12:55:10.597Z</time></trkpt><trkpt lat="45.8678077" lon="11.7839076"><ele>1475.4</ele><time>2026-04-06T12:55:11.598Z</time></trkpt><trkpt lat="45.8677655" lon="11.7840239"><ele>1475.8</ele><time>2026-04-06T12:55:12.595Z</time></trkpt><trkpt lat="45.8677014" lon="11.7841546"><ele>1476.1999999999998</ele><time>2026-04-06T12:55:13.593Z</time></trkpt><trkpt lat="45.86761" lon="11.7842608"><ele>1476.6</ele><time>2026-04-06T12:55:14.604Z</time></trkpt><trkpt lat="45.8675481" lon="11.7843668"><ele>1477.0</ele><time>2026-04-06T12:55:15.595Z</time></trkpt><trkpt lat="45.8674932" lon="11.7844912"><ele>1479.0</ele><time>2026-04-06T12:55:16.591Z</time></trkpt><trkpt lat="45.8674969" lon="11.7846624"><ele>1481.0</ele><time>2026-04-06T12:55:17.596Z</time></trkpt><trkpt lat="45.867521" lon="11.784884"><ele>1483.0</ele><time>2026-04-06T12:55:18.599Z</time></trkpt><trkpt lat="45.8675327" lon="11.7851133"><ele>1485.0</ele><time>2026-04-06T12:55:19.595Z</time></trkpt><trkpt lat="45.8675455" lon="11.7853341"><ele>1487.5</ele><time>2026-04-06T12:55:20.591Z</time></trkpt><trkpt lat="45.8675272" lon="11.7855179"><ele>1490.0</ele><time>2026-04-06T12:55:21.595Z</time></trkpt><trkpt lat="45.8674622" lon="11.7856994"><ele>1492.5</ele><time>2026-04-06T12:55:22.591Z</time></trkpt><trkpt lat="45.8673702" lon="11.7858546"><ele>1495.0</ele><time>2026-04-06T12:55:23.602Z</time></trkpt><trkpt lat="45.8672858" lon="11.7860181"><ele>1496.75</ele><time>2026-04-06T12:55:24.59Z</time></trkpt><trkpt lat="45.8672157" lon="11.7861902"><ele>1498.5</ele><time>2026-04-06T12:55:25.594Z</time></trkpt><trkpt lat="45.8671825" lon="11.7863645"><ele>1500.25</ele><time>2026-04-06T12:55:26.59Z</time></trkpt><trkpt lat="45.8671728" lon="11.7865519"><ele>1502.0</ele><time>2026-04-06T12:55:27.591Z</time></trkpt><trkpt lat="45.8671953" lon="11.7867438"><ele>1500.0</ele><time>2026-04-06T12:55:28.59Z</time></trkpt><trkpt lat="45.8672286" lon="11.7869209"><ele>1498.0</ele><time>2026-04-06T12:55:29.593Z</time></trkpt><trkpt lat="45.8672724" lon="11.7870652"><ele>1496.0</ele><time>2026-04-06T12:55:30.593Z</time></trkpt><trkpt lat="45.8673405" lon="11.7871848"><ele>1494.0</ele><time>2026-04-06T12:55:31.593Z</time></trkpt><trkpt lat="45.8674264" lon="11.7872668"><ele>1492.0</ele><time>2026-04-06T12:55:32.594Z</time></trkpt><trkpt lat="45.867535" lon="11.7873145"><ele>1496.0</ele><time>2026-04-06T12:55:33.59Z</time></trkpt><trkpt lat="45.8676713" lon="11.7873417"><ele>1500.0</ele><time>2026-04-06T12:55:34.591Z</time></trkpt><trkpt lat="45.8678249" lon="11.7873598"><ele>1504.0</ele><time>2026-04-06T12:55:35.593Z</time></trkpt><trkpt lat="45.8679891" lon="11.7873709"><ele>1504.0</ele><time>2026-04-06T12:55:36.592Z</time></trkpt><trkpt lat="45.8681508" lon="11.7873809"><ele>1504.0</ele><time>2026-04-06T12:55:37.59Z</time></trkpt><trkpt lat="45.8682853" lon="11.78739"><ele>1504.0</ele><time>2026-04-06T12:55:38.599Z</time></trkpt><trkpt lat="45.8684011" lon="11.787414"><ele>1504.0</ele><time>2026-04-06T12:55:39.591Z</time></trkpt><trkpt lat="45.8685049" lon="11.7874856"><ele>1511.0</ele><time>2026-04-06T12:55:40.595Z</time></trkpt><trkpt lat="45.8686119" lon="11.7876076"><ele>1518.0</ele><time>2026-04-06T12:55:41.594Z</time></trkpt><trkpt lat="45.8687304" lon="11.7877734"><ele>1525.0</ele><time>2026-04-06T12:55:42.6Z</time></trkpt><trkpt lat="45.8688508" lon="11.7879413"><ele>1525.0</ele><time>2026-04-06T12:55:43.591Z</time></trkpt><trkpt lat="45.8689494" lon="11.7880855"><ele>1525.0</ele><time>2026-04-06T12:55:44.587Z</time></trkpt><trkpt lat="45.8690226" lon="11.7882104"><ele>1525.0</ele><time>2026-04-06T12:55:45.593Z</time></trkpt><trkpt lat="45.8690624" lon="11.7883401"><ele>1525.0</ele><time>2026-04-06T12:55:46.593Z</time></trkpt><trkpt lat="45.8690563" lon="11.7884796"><ele>1526.6</ele><time>2026-04-06T12:55:47.586Z</time></trkpt><trkpt lat="45.8690084" lon="11.788596"><ele>1528.2</ele><time>2026-04-06T12:55:48.596Z</time></trkpt><trkpt lat="45.8689269" lon="11.7886696"><ele>1529.8000000000002</ele><time>2026-04-06T12:55:49.59Z</time></trkpt><trkpt lat="45.868836" lon="11.7887287"><ele>1531.4</ele><time>2026-04-06T12:55:50.588Z</time></trkpt><trkpt lat="45.8687083" lon="11.7887086"><ele>1533.0</ele><time>2026-04-06T12:55:51.591Z</time></trkpt><trkpt lat="45.8686013" lon="11.7887117"><ele>1533.0</ele><time>2026-04-06T12:55:52.597Z</time></trkpt><trkpt lat="45.86853" lon="11.7887435"><ele>1533.0</ele><time>2026-04-06T12:55:53.591Z</time></trkpt><trkpt lat="45.8684807" lon="11.7888104"><ele>1533.0</ele><time>2026-04-06T12:55:54.599Z</time></trkpt><trkpt lat="45.8684518" lon="11.7889592"><ele>1533.0</ele><time>2026-04-06T12:55:56.591Z</time></trkpt><trkpt lat="45.8685558" lon="11.7890342"><ele>1533.0</ele><time>2026-04-06T12:55:58.6Z</time></trkpt><trkpt lat="45.8686455" lon="11.7890149"><ele>1533.0</ele><time>2026-04-06T12:55:59.594Z</time></trkpt><trkpt lat="45.8687505" lon="11.7889818"><ele>1533.0</ele><time>2026-04-06T12:56:00.593Z</time></trkpt><trkpt lat="45.8688669" lon="11.7889576"><ele>1533.0</ele><time>2026-04-06T12:56:01.593Z</time></trkpt><trkpt lat="45.8689758" lon="11.7889564"><ele>1533.0</ele><time>2026-04-06T12:56:02.6Z</time></trkpt><trkpt lat="45.8690884" lon="11.788952"><ele>1533.0</ele><time>2026-04-06T12:56:03.588Z</time></trkpt><trkpt lat="45.8691734" lon="11.7889268"><ele>1533.0</ele><time>2026-04-06T12:56:04.597Z</time></trkpt><trkpt lat="45.8692395" lon="11.7888654"><ele>1533.0</ele><time>2026-04-06T12:56:05.588Z</time></trkpt><trkpt lat="45.8692945" lon="11.7887546"><ele>1533.0</ele><time>2026-04-06T12:56:06.595Z</time></trkpt><trkpt lat="45.8693441" lon="11.7886113"><ele>1533.0</ele><time>2026-04-06T12:56:07.592Z</time></trkpt><trkpt lat="45.8693555" lon="11.7884063"><ele>1533.0</ele><time>2026-04-06T12:56:08.596Z</time></trkpt><trkpt lat="45.8693719" lon="11.7881782"><ele>1540.25</ele><time>2026-04-06T12:56:09.599Z</time></trkpt><trkpt lat="45.869381" lon="11.7879582"><ele>1547.5</ele><time>2026-04-06T12:56:10.594Z</time></trkpt><trkpt lat="45.8693985" lon="11.7877742"><ele>1554.75</ele><time>2026-04-06T12:56:11.593Z</time></trkpt><trkpt lat="45.8694259" lon="11.7876406"><ele>1562.0</ele><time>2026-04-06T12:56:12.599Z</time></trkpt><trkpt lat="45.8694708" lon="11.7875252"><ele>1562.0</ele><time>2026-04-06T12:56:13.595Z</time></trkpt><trkpt lat="45.8695138" lon="11.7874147"><ele>1562.0</ele><time>2026-04-06T12:56:14.595Z</time></trkpt><trkpt lat="45.8695326" lon="11.7872878"><ele>1562.0</ele><time>2026-04-06T12:56:15.591Z</time></trkpt><trkpt lat="45.8695211" lon="11.7871405"><ele>1562.0</ele><time>2026-04-06T12:56:16.588Z</time></trkpt><trkpt lat="45.8694894" lon="11.7869726"><ele>1562.0</ele><time>2026-04-06T12:56:17.593Z</time></trkpt><trkpt lat="45.8694594" lon="11.7867866"><ele>1561.5</ele><time>2026-04-06T12:56:18.603Z</time></trkpt><trkpt lat="45.8694333" lon="11.7865907"><ele>1561.0</ele><time>2026-04-06T12:56:19.595Z</time></trkpt><trkpt lat="45.8694051" lon="11.7864172"><ele>1560.5</ele><time>2026-04-06T12:56:20.592Z</time></trkpt><trkpt lat="45.8693733" lon="11.7862724"><ele>1560.0</ele><time>2026-04-06T12:56:21.594Z</time></trkpt><trkpt lat="45.8693467" lon="11.7861609"><ele>1560.0</ele><time>2026-04-06T12:56:22.592Z</time></trkpt><trkpt lat="45.8693394" lon="11.7859963"><ele>1560.0</ele><time>2026-04-06T12:56:24.602Z</time></trkpt><trkpt lat="45.8694038" lon="11.7859156"><ele>1560.0</ele><time>2026-04-06T12:56:35.595Z</time></trkpt><trkpt lat="45.8694754" lon="11.7859294"><ele>1560.0</ele><time>2026-04-06T12:56:37.598Z</time></trkpt><trkpt lat="45.8695214" lon="11.7860694"><ele>1560.0</ele><time>2026-04-06T12:56:39.587Z</time></trkpt><trkpt lat="45.8695123" lon="11.7861671"><ele>1560.0</ele><time>2026-04-06T12:56:40.594Z</time></trkpt><trkpt lat="45.8695078" lon="11.786291"><ele>1560.0</ele><time>2026-04-06T12:56:41.593Z</time></trkpt><trkpt lat="45.8695289" lon="11.7864253"><ele>1560.0</ele><time>2026-04-06T12:56:42.596Z</time></trkpt><trkpt lat="45.8695744" lon="11.7865695"><ele>1560.0</ele><time>2026-04-06T12:56:43.594Z</time></trkpt><trkpt lat="45.8696335" lon="11.7867268"><ele>1560.0</ele><time>2026-04-06T12:56:44.602Z</time></trkpt><trkpt lat="45.8697" lon="11.7868959"><ele>1560.5</ele><time>2026-04-06T12:56:45.592Z</time></trkpt><trkpt lat="45.8697689" lon="11.7870676"><ele>1561.0</ele><time>2026-04-06T12:56:46.596Z</time></trkpt><trkpt lat="45.8698308" lon="11.7872438"><ele>1561.5</ele><time>2026-04-06T12:56:47.592Z</time></trkpt><trkpt lat="45.8698641" lon="11.78744"><ele>1562.0</ele><time>2026-04-06T12:56:48.593Z</time></trkpt><trkpt lat="45.8698708" lon="11.7876549"><ele>1564.0</ele><time>2026-04-06T12:56:49.594Z</time></trkpt><trkpt lat="45.8698764" lon="11.7878809"><ele>1566.0</ele><time>2026-04-06T12:56:50.593Z</time></trkpt><trkpt lat="45.8698915" lon="11.7881126"><ele>1568.0</ele><time>2026-04-06T12:56:51.591Z</time></trkpt><trkpt lat="45.8699131" lon="11.7883456"><ele>1568.6666666666665</ele><time>2026-04-06T12:56:52.602Z</time></trkpt><trkpt lat="45.8699345" lon="11.7885783"><ele>1569.3333333333335</ele><time>2026-04-06T12:56:53.593Z</time></trkpt><trkpt lat="45.8699529" lon="11.7888129"><ele>1570.0</ele><time>2026-04-06T12:56:54.646Z</time></trkpt><trkpt lat="45.8699724" lon="11.7890483"><ele>1570.0</ele><time>2026-04-06T12:56:55.596Z</time></trkpt><trkpt lat="45.8699925" lon="11.7892828"><ele>1570.0</ele><time>2026-04-06T12:56:56.59Z</time></trkpt><trkpt lat="45.8700128" lon="11.7895175"><ele>1570.0</ele><time>2026-04-06T12:56:57.593Z</time></trkpt><trkpt lat="45.8700386" lon="11.7897509"><ele>1570.0</ele><time>2026-04-06T12:56:58.59Z</time></trkpt><trkpt lat="45.8700738" lon="11.7899846"><ele>1570.0</ele><time>2026-04-06T12:56:59.593Z</time></trkpt><trkpt lat="45.8701177" lon="11.7902226"><ele>1570.0</ele><time>2026-04-06T12:57:00.591Z</time></trkpt><trkpt lat="45.8701642" lon="11.7904663"><ele>1580.0</ele><time>2026-04-06T12:57:01.592Z</time></trkpt><trkpt lat="45.870206" lon="11.7906952"><ele>1590.0</ele><time>2026-04-06T12:57:02.591Z</time></trkpt><trkpt lat="45.8702394" lon="11.7908927"><ele>1600.0</ele><time>2026-04-06T12:57:03.591Z</time></trkpt><trkpt lat="45.8702614" lon="11.7910562"><ele>1610.0</ele><time>2026-04-06T12:57:04.589Z</time></trkpt><trkpt lat="45.8702762" lon="11.7911998"><ele>1610.75</ele><time>2026-04-06T12:57:05.591Z</time></trkpt><trkpt lat="45.8702521" lon="11.791336"><ele>1611.5</ele><time>2026-04-06T12:57:06.605Z</time></trkpt><trkpt lat="45.8701951" lon="11.7914716"><ele>1612.25</ele><time>2026-04-06T12:57:07.596Z</time></trkpt><trkpt lat="45.8700988" lon="11.7915811"><ele>1613.0</ele><time>2026-04-06T12:57:08.599Z</time></trkpt><trkpt lat="45.8699882" lon="11.79166"><ele>1610.25</ele><time>2026-04-06T12:57:09.594Z</time></trkpt><trkpt lat="45.8698586" lon="11.791724"><ele>1607.5</ele><time>2026-04-06T12:57:10.603Z</time></trkpt><trkpt lat="45.8697282" lon="11.7918088"><ele>1604.75</ele><time>2026-04-06T12:57:11.591Z</time></trkpt><trkpt lat="45.8695905" lon="11.7919068"><ele>1602.0</ele><time>2026-04-06T12:57:12.587Z</time></trkpt><trkpt lat="45.8694498" lon="11.7920239"><ele>1602.0</ele><time>2026-04-06T12:57:13.593Z</time></trkpt><trkpt lat="45.8693078" lon="11.792146"><ele>1602.0</ele><time>2026-04-06T12:57:14.594Z</time></trkpt><trkpt lat="45.8691642" lon="11.7922693"><ele>1602.0</ele><time>2026-04-06T12:57:15.595Z</time></trkpt><trkpt lat="45.8690209" lon="11.792386"><ele>1600.25</ele><time>2026-04-06T12:57:16.595Z</time></trkpt><trkpt lat="45.8688862" lon="11.7924902"><ele>1598.5</ele><time>2026-04-06T12:57:17.594Z</time></trkpt><trkpt lat="45.8687714" lon="11.7925844"><ele>1596.75</ele><time>2026-04-06T12:57:18.597Z</time></trkpt><trkpt lat="45.8686798" lon="11.7926786"><ele>1595.0</ele><time>2026-04-06T12:57:19.594Z</time></trkpt><trkpt lat="45.8686041" lon="11.7927962"><ele>1598.5</ele><time>2026-04-06T12:57:20.6Z</time></trkpt><trkpt lat="45.8685497" lon="11.7929487"><ele>1602.0</ele><time>2026-04-06T12:57:21.591Z</time></trkpt><trkpt lat="45.8685152" lon="11.7931302"><ele>1605.5</ele><time>2026-04-06T12:57:22.594Z</time></trkpt><trkpt lat="45.8684865" lon="11.7933325"><ele>1609.0</ele><time>2026-04-06T12:57:23.593Z</time></trkpt><trkpt lat="45.8684517" lon="11.7935529"><ele>1606.0</ele><time>2026-04-06T12:57:24.595Z</time></trkpt><trkpt lat="45.868416" lon="11.7937799"><ele>1603.0</ele><time>2026-04-06T12:57:25.592Z</time></trkpt><trkpt lat="45.8683878" lon="11.7940061"><ele>1600.0</ele><time>2026-04-06T12:57:26.594Z</time></trkpt><trkpt lat="45.8683815" lon="11.7942351"><ele>1603.0</ele><time>2026-04-06T12:57:27.595Z</time></trkpt><trkpt lat="45.868389" lon="11.7944642"><ele>1606.0</ele><time>2026-04-06T12:57:28.592Z</time></trkpt><trkpt lat="45.8683992" lon="11.794675"><ele>1609.0</ele><time>2026-04-06T12:57:29.596Z</time></trkpt><trkpt lat="45.8684058" lon="11.7948533"><ele>1612.0</ele><time>2026-04-06T12:57:30.595Z</time></trkpt><trkpt lat="45.8684101" lon="11.7950018"><ele>1612.0</ele><time>2026-04-06T12:57:31.591Z</time></trkpt><trkpt lat="45.8683953" lon="11.7951348"><ele>1612.0</ele><time>2026-04-06T12:57:32.59Z</time></trkpt><trkpt lat="45.8683488" lon="11.795257"><ele>1612.0</ele><time>2026-04-06T12:57:33.593Z</time></trkpt><trkpt lat="45.8682681" lon="11.7953597"><ele>1612.0</ele><time>2026-04-06T12:57:34.593Z</time></trkpt><trkpt lat="45.8681688" lon="11.7954468"><ele>1612.0</ele><time>2026-04-06T12:57:35.592Z</time></trkpt><trkpt lat="45.8680764" lon="11.7955581"><ele>1615.75</ele><time>2026-04-06T12:57:36.6Z</time></trkpt><trkpt lat="45.8680026" lon="11.7957051"><ele>1619.5</ele><time>2026-04-06T12:57:37.592Z</time></trkpt><trkpt lat="45.8679489" lon="11.7958776"><ele>1623.25</ele><time>2026-04-06T12:57:38.594Z</time></trkpt><trkpt lat="45.8678975" lon="11.7960379"><ele>1627.0</ele><time>2026-04-06T12:57:39.592Z</time></trkpt><trkpt lat="45.8678297" lon="11.7961789"><ele>1627.75</ele><time>2026-04-06T12:57:40.594Z</time></trkpt><trkpt lat="45.8677499" lon="11.7963027"><ele>1628.5</ele><time>2026-04-06T12:57:41.591Z</time></trkpt><trkpt lat="45.8676777" lon="11.7964351"><ele>1629.25</ele><time>2026-04-06T12:57:42.596Z</time></trkpt><trkpt lat="45.8676239" lon="11.7966084"><ele>1630.0</ele><time>2026-04-06T12:57:43.595Z</time></trkpt><trkpt lat="45.8675788" lon="11.7968138"><ele>1629.75</ele><time>2026-04-06T12:57:44.597Z</time></trkpt><trkpt lat="45.8675393" lon="11.7970289"><ele>1629.5</ele><time>2026-04-06T12:57:45.599Z</time></trkpt><trkpt lat="45.8674988" lon="11.7972314"><ele>1629.25</ele><time>2026-04-06T12:57:46.597Z</time></trkpt><trkpt lat="45.867457" lon="11.7974059"><ele>1629.0</ele><time>2026-04-06T12:57:47.595Z</time></trkpt><trkpt lat="45.8674116" lon="11.7975514"><ele>1635.75</ele><time>2026-04-06T12:57:48.594Z</time></trkpt><trkpt lat="45.8673516" lon="11.79768"><ele>1642.5</ele><time>2026-04-06T12:57:49.594Z</time></trkpt><trkpt lat="45.8672647" lon="11.7977875"><ele>1649.25</ele><time>2026-04-06T12:57:50.595Z</time></trkpt><trkpt lat="45.8671484" lon="11.7978752"><ele>1656.0</ele><time>2026-04-06T12:57:51.595Z</time></trkpt><trkpt lat="45.8670204" lon="11.7979578"><ele>1656.0</ele><time>2026-04-06T12:57:52.595Z</time></trkpt><trkpt lat="45.866887" lon="11.7980439"><ele>1656.0</ele><time>2026-04-06T12:57:53.592Z</time></trkpt><trkpt lat="45.8667488" lon="11.7981334"><ele>1656.0</ele><time>2026-04-06T12:57:54.599Z</time></trkpt><trkpt lat="45.8666061" lon="11.7982238"><ele>1651.0</ele><time>2026-04-06T12:57:55.591Z</time></trkpt><trkpt lat="45.866457" lon="11.7983154"><ele>1646.0</ele><time>2026-04-06T12:57:56.6Z</time></trkpt><trkpt lat="45.866305" lon="11.7983977"><ele>1641.0</ele><time>2026-04-06T12:57:57.592Z</time></trkpt><trkpt lat="45.8661613" lon="11.7984612"><ele>1641.8</ele><time>2026-04-06T12:57:58.592Z</time></trkpt><trkpt lat="45.8660345" lon="11.798517"><ele>1642.6</ele><time>2026-04-06T12:57:59.595Z</time></trkpt><trkpt lat="45.8659292" lon="11.7985815"><ele>1643.4</ele><time>2026-04-06T12:58:00.591Z</time></trkpt><trkpt lat="45.8658523" lon="11.7986631"><ele>1644.2</ele><time>2026-04-06T12:58:01.596Z</time></trkpt><trkpt lat="45.8658041" lon="11.7987671"><ele>1645.0</ele><time>2026-04-06T12:58:02.597Z</time></trkpt><trkpt lat="45.86579" lon="11.7989005"><ele>1645.0</ele><time>2026-04-06T12:58:03.603Z</time></trkpt><trkpt lat="45.865786" lon="11.7990395"><ele>1645.0</ele><time>2026-04-06T12:58:04.598Z</time></trkpt><trkpt lat="45.8657942" lon="11.7991909"><ele>1645.0</ele><time>2026-04-06T12:58:05.597Z</time></trkpt><trkpt lat="45.8658161" lon="11.7993495"><ele>1645.0</ele><time>2026-04-06T12:58:06.601Z</time></trkpt><trkpt lat="45.8658604" lon="11.7995009"><ele>1645.0</ele><time>2026-04-06T12:58:07.596Z</time></trkpt><trkpt lat="45.8659352" lon="11.7996322"><ele>1647.0</ele><time>2026-04-06T12:58:08.595Z</time></trkpt><trkpt lat="45.866038" lon="11.7997403"><ele>1649.0</ele><time>2026-04-06T12:58:09.596Z</time></trkpt><trkpt lat="45.8661545" lon="11.7998273"><ele>1651.0</ele><time>2026-04-06T12:58:10.602Z</time></trkpt><trkpt lat="45.8662826" lon="11.7998935"><ele>1653.0</ele><time>2026-04-06T12:58:11.597Z</time></trkpt><trkpt lat="45.8664205" lon="11.7999359"><ele>1653.0</ele><time>2026-04-06T12:58:12.599Z</time></trkpt><trkpt lat="45.8665666" lon="11.7999518"><ele>1653.0</ele><time>2026-04-06T12:58:13.597Z</time></trkpt><trkpt lat="45.8667165" lon="11.7999457"><ele>1653.0</ele><time>2026-04-06T12:58:14.602Z</time></trkpt><trkpt lat="45.8668697" lon="11.7999278"><ele>1656.6666666666665</ele><time>2026-04-06T12:58:15.599Z</time></trkpt><trkpt lat="45.867024" lon="11.7999019"><ele>1660.3333333333333</ele><time>2026-04-06T12:58:16.599Z</time></trkpt><trkpt lat="45.867179" lon="11.7998728"><ele>1664.0</ele><time>2026-04-06T12:58:17.602Z</time></trkpt><trkpt lat="45.8673344" lon="11.7998522"><ele>1664.0</ele><time>2026-04-06T12:58:18.6Z</time></trkpt><trkpt lat="45.8674894" lon="11.7998543"><ele>1664.0</ele><time>2026-04-06T12:58:19.598Z</time></trkpt><trkpt lat="45.8676405" lon="11.7998879"><ele>1664.0</ele><time>2026-04-06T12:58:20.594Z</time></trkpt><trkpt lat="45.8677856" lon="11.7999508"><ele>1662.3333333333333</ele><time>2026-04-06T12:58:21.615Z</time></trkpt><trkpt lat="45.8679285" lon="11.8000296"><ele>1660.6666666666665</ele><time>2026-04-06T12:58:22.598Z</time></trkpt><trkpt lat="45.8680695" lon="11.8001195"><ele>1659.0</ele><time>2026-04-06T12:58:23.595Z</time></trkpt><trkpt lat="45.8682107" lon="11.8002103"><ele>1659.0</ele><time>2026-04-06T12:58:24.597Z</time></trkpt><trkpt lat="45.8683314" lon="11.800358"><ele>1659.0</ele><time>2026-04-06T12:58:25.596Z</time></trkpt><trkpt lat="45.8684385" lon="11.8005169"><ele>1659.0</ele><time>2026-04-06T12:58:26.597Z</time></trkpt><trkpt lat="45.8685506" lon="11.8006725"><ele>1663.0</ele><time>2026-04-06T12:58:27.591Z</time></trkpt><trkpt lat="45.8686576" lon="11.8008306"><ele>1667.0</ele><time>2026-04-06T12:58:28.592Z</time></trkpt><trkpt lat="45.8687615" lon="11.8009779"><ele>1671.0</ele><time>2026-04-06T12:58:29.59Z</time></trkpt><trkpt lat="45.8688582" lon="11.8011111"><ele>1675.0</ele><time>2026-04-06T12:58:30.594Z</time></trkpt><trkpt lat="45.8689465" lon="11.8012273"><ele>1675.0</ele><time>2026-04-06T12:58:31.596Z</time></trkpt><trkpt lat="45.8690399" lon="11.8013469"><ele>1675.0</ele><time>2026-04-06T12:58:32.608Z</time></trkpt><trkpt lat="45.8691328" lon="11.8014569"><ele>1675.0</ele><time>2026-04-06T12:58:33.595Z</time></trkpt><trkpt lat="45.8692174" lon="11.8015581"><ele>1675.0</ele><time>2026-04-06T12:58:34.603Z</time></trkpt><trkpt lat="45.8692986" lon="11.8016454"><ele>1677.6</ele><time>2026-04-06T12:58:35.602Z</time></trkpt><trkpt lat="45.8693767" lon="11.8017015"><ele>1680.2</ele><time>2026-04-06T12:58:36.6Z</time></trkpt><trkpt lat="45.8694655" lon="11.8017281"><ele>1682.8000000000002</ele><time>2026-04-06T12:58:37.596Z</time></trkpt><trkpt lat="45.8695672" lon="11.8017257"><ele>1685.4</ele><time>2026-04-06T12:58:38.6Z</time></trkpt><trkpt lat="45.8696787" lon="11.8017015"><ele>1688.0</ele><time>2026-04-06T12:58:39.593Z</time></trkpt><trkpt lat="45.8697995" lon="11.8016612"><ele>1688.0</ele><time>2026-04-06T12:58:40.595Z</time></trkpt><trkpt lat="45.8699252" lon="11.8016191"><ele>1688.0</ele><time>2026-04-06T12:58:41.595Z</time></trkpt><trkpt lat="45.8700562" lon="11.8015789"><ele>1688.0</ele><time>2026-04-06T12:58:42.603Z</time></trkpt><trkpt lat="45.8701949" lon="11.8015394"><ele>1688.0</ele><time>2026-04-06T12:58:43.599Z</time></trkpt><trkpt lat="45.8703348" lon="11.8015127"><ele>1688.75</ele><time>2026-04-06T12:58:44.594Z</time></trkpt><trkpt lat="45.8704641" lon="11.8015047"><ele>1689.5</ele><time>2026-04-06T12:58:45.592Z</time></trkpt><trkpt lat="45.8705932" lon="11.8015196"><ele>1690.25</ele><time>2026-04-06T12:58:46.594Z</time></trkpt><trkpt lat="45.8707163" lon="11.8015464"><ele>1691.0</ele><time>2026-04-06T12:58:47.594Z</time></trkpt><trkpt lat="45.8708243" lon="11.8015504"><ele>1691.0</ele><time>2026-04-06T12:58:48.6Z</time></trkpt><trkpt lat="45.8709211" lon="11.8015278"><ele>1691.0</ele><time>2026-04-06T12:58:49.596Z</time></trkpt><trkpt lat="45.8710076" lon="11.8014724"><ele>1691.0</ele><time>2026-04-06T12:58:50.596Z</time></trkpt><trkpt lat="45.8710847" lon="11.801395"><ele>1691.0</ele><time>2026-04-06T12:58:51.597Z</time></trkpt><trkpt lat="45.8711621" lon="11.8013139"><ele>1691.0</ele><time>2026-04-06T12:58:52.597Z</time></trkpt><trkpt lat="45.8712405" lon="11.8012398"><ele>1690.6</ele><time>2026-04-06T12:58:53.594Z</time></trkpt><trkpt lat="45.8713218" lon="11.8011778"><ele>1690.1999999999998</ele><time>2026-04-06T12:58:54.601Z</time></trkpt><trkpt lat="45.871407" lon="11.8011268"><ele>1689.8000000000002</ele><time>2026-04-06T12:58:55.595Z</time></trkpt><trkpt lat="45.8714996" lon="11.8010943"><ele>1689.4</ele><time>2026-04-06T12:58:56.597Z</time></trkpt><trkpt lat="45.8715956" lon="11.8010926"><ele>1689.0</ele><time>2026-04-06T12:58:57.598Z</time></trkpt><trkpt lat="45.8716931" lon="11.8011178"><ele>1692.8000000000002</ele><time>2026-04-06T12:58:58.601Z</time></trkpt><trkpt lat="45.8717905" lon="11.801144"><ele>1696.6000000000001</ele><time>2026-04-06T12:58:59.591Z</time></trkpt><trkpt lat="45.8718897" lon="11.8011669"><ele>1700.4</ele><time>2026-04-06T12:59:00.597Z</time></trkpt><trkpt lat="45.8719893" lon="11.8011881"><ele>1704.2</ele><time>2026-04-06T12:59:01.602Z</time></trkpt><trkpt lat="45.8720873" lon="11.8012153"><ele>1708.0</ele><time>2026-04-06T12:59:02.598Z</time></trkpt><trkpt lat="45.8721859" lon="11.8012447"><ele>1708.0</ele><time>2026-04-06T12:59:03.597Z</time></trkpt><trkpt lat="45.8722747" lon="11.8012726"><ele>1708.0000000000002</ele><time>2026-04-06T12:59:04.601Z</time></trkpt><trkpt lat="45.8723413" lon="11.8013018"><ele>1708.0000000000002</ele><time>2026-04-06T12:59:05.601Z</time></trkpt><trkpt lat="45.872437" lon="11.8013572"><ele>1708.0</ele><time>2026-04-06T12:59:07.603Z</time></trkpt><trkpt lat="45.8725641" lon="11.8014122"><ele>1708.0</ele><time>2026-04-06T12:59:09.594Z</time></trkpt><trkpt lat="45.8726386" lon="11.8014732"><ele>1710.8000000000002</ele><time>2026-04-06T12:59:10.6Z</time></trkpt><trkpt lat="45.8727147" lon="11.8015655"><ele>1713.6000000000001</ele><time>2026-04-06T12:59:11.595Z</time></trkpt><trkpt lat="45.8727853" lon="11.8016774"><ele>1716.3999999999999</ele><time>2026-04-06T12:59:12.596Z</time></trkpt><trkpt lat="45.8728511" lon="11.8017983"><ele>1719.1999999999998</ele><time>2026-04-06T12:59:13.595Z</time></trkpt><trkpt lat="45.8729101" lon="11.801925"><ele>1722.0</ele><time>2026-04-06T12:59:14.59Z</time></trkpt><trkpt lat="45.8729592" lon="11.8020606"><ele>1722.0</ele><time>2026-04-06T12:59:15.594Z</time></trkpt><trkpt lat="45.8729988" lon="11.8022031"><ele>1721.9999999999998</ele><time>2026-04-06T12:59:16.592Z</time></trkpt><trkpt lat="45.8730289" lon="11.8023504"><ele>1721.9999999999998</ele><time>2026-04-06T12:59:17.593Z</time></trkpt><trkpt lat="45.8730514" lon="11.8025037"><ele>1722.0</ele><time>2026-04-06T12:59:18.596Z</time></trkpt><trkpt lat="45.8730633" lon="11.8026561"><ele>1722.0</ele><time>2026-04-06T12:59:19.595Z</time></trkpt><trkpt lat="45.8730725" lon="11.8028059"><ele>1721.3999999999999</ele><time>2026-04-06T12:59:20.605Z</time></trkpt><trkpt lat="45.8730915" lon="11.8029535"><ele>1720.7999999999997</ele><time>2026-04-06T12:59:21.596Z</time></trkpt><trkpt lat="45.8731212" lon="11.8030958"><ele>1720.2</ele><time>2026-04-06T12:59:22.598Z</time></trkpt><trkpt lat="45.8731552" lon="11.8032244"><ele>1719.6</ele><time>2026-04-06T12:59:23.594Z</time></trkpt><trkpt lat="45.8731885" lon="11.8033394"><ele>1719.0</ele><time>2026-04-06T12:59:24.592Z</time></trkpt><trkpt lat="45.8732221" lon="11.8034259"><ele>1716.6</ele><time>2026-04-06T12:59:25.592Z</time></trkpt><trkpt lat="45.8732881" lon="11.803551"><ele>1714.2</ele><time>2026-04-06T12:59:27.593Z</time></trkpt><trkpt lat="45.8733655" lon="11.8035768"><ele>1711.7999999999997</ele><time>2026-04-06T12:59:29.595Z</time></trkpt><trkpt lat="45.8734508" lon="11.8034916"><ele>1709.3999999999999</ele><time>2026-04-06T12:59:31.609Z</time></trkpt><trkpt lat="45.8734977" lon="11.8033415"><ele>1707.0</ele><time>2026-04-06T12:59:33.594Z</time></trkpt><trkpt lat="45.8735169" lon="11.8032538"><ele>1706.3333333333333</ele><time>2026-04-06T12:59:34.601Z</time></trkpt><trkpt lat="45.8735364" lon="11.8031595"><ele>1705.6666666666665</ele><time>2026-04-06T12:59:35.598Z</time></trkpt><trkpt lat="45.8735541" lon="11.8030615"><ele>1705.0</ele><time>2026-04-06T12:59:36.603Z</time></trkpt><trkpt lat="45.8735701" lon="11.8029663"><ele>1704.3333333333333</ele><time>2026-04-06T12:59:37.601Z</time></trkpt><trkpt lat="45.8735854" lon="11.802789"><ele>1703.6666666666665</ele><time>2026-04-06T12:59:39.604Z</time></trkpt><trkpt lat="45.8735801" lon="11.8026981"><ele>1703.0</ele><time>2026-04-06T12:59:40.596Z</time></trkpt><trkpt lat="45.8735691" lon="11.8025549"><ele>1698.9999999999998</ele><time>2026-04-06T12:59:42.607Z</time></trkpt><trkpt lat="45.8735832" lon="11.8027171"><ele>1695.0</ele><time>2026-04-06T12:59:55.606Z</time></trkpt><trkpt lat="45.8735918" lon="11.8028167"><ele>1691.0</ele><time>2026-04-06T12:59:57.656Z</time></trkpt><trkpt lat="45.8735664" lon="11.8029885"><ele>1687.0</ele><time>2026-04-06T12:59:59.598Z</time></trkpt><trkpt lat="45.8735465" lon="11.8030827"><ele>1682.9999999999998</ele><time>2026-04-06T13:00:00.601Z</time></trkpt><trkpt lat="45.8735235" lon="11.8031778"><ele>1679.0</ele><time>2026-04-06T13:00:01.614Z</time></trkpt><trkpt lat="45.8735016" lon="11.803266"><ele>1679.0</ele><time>2026-04-06T13:00:02.596Z</time></trkpt><trkpt lat="45.8734517" lon="11.8034174"><ele>1679.0</ele><time>2026-04-06T13:00:04.604Z</time></trkpt><trkpt lat="45.8733927" lon="11.8035132"><ele>1679.0</ele><time>2026-04-06T13:00:06.605Z</time></trkpt><trkpt lat="45.8733104" lon="11.803515"><ele>1679.0</ele><time>2026-04-06T13:00:08.613Z</time></trkpt><trkpt lat="45.8732379" lon="11.8033983"><ele>1679.0</ele><time>2026-04-06T13:00:10.607Z</time></trkpt><trkpt lat="45.8732069" lon="11.8033153"><ele>1684.7142857142858</ele><time>2026-04-06T13:00:11.61Z</time></trkpt><trkpt lat="45.8731767" lon="11.8032232"><ele>1690.4285714285713</ele><time>2026-04-06T13:00:12.597Z</time></trkpt><trkpt lat="45.8731466" lon="11.8031239"><ele>1696.1428571428573</ele><time>2026-04-06T13:00:13.594Z</time></trkpt><trkpt lat="45.8731217" lon="11.8030251"><ele>1701.857142857143</ele><time>2026-04-06T13:00:14.6Z</time></trkpt><trkpt lat="45.8731063" lon="11.8029224"><ele>1707.5714285714287</ele><time>2026-04-06T13:00:15.597Z</time></trkpt><trkpt lat="45.8731005" lon="11.802813"><ele>1713.2857142857144</ele><time>2026-04-06T13:00:16.592Z</time></trkpt><trkpt lat="45.8731006" lon="11.8026984"><ele>1719.0</ele><time>2026-04-06T13:00:17.597Z</time></trkpt><trkpt lat="45.8730946" lon="11.8025839"><ele>1719.5</ele><time>2026-04-06T13:00:18.608Z</time></trkpt><trkpt lat="45.8730826" lon="11.8024779"><ele>1720.0</ele><time>2026-04-06T13:00:19.601Z</time></trkpt><trkpt lat="45.8730681" lon="11.8023811"><ele>1720.5</ele><time>2026-04-06T13:00:20.597Z</time></trkpt><trkpt lat="45.8730542" lon="11.8022917"><ele>1721.0</ele><time>2026-04-06T13:00:21.597Z</time></trkpt><trkpt lat="45.8730329" lon="11.8021322"><ele>1721.5</ele><time>2026-04-06T13:00:23.6Z</time></trkpt><trkpt lat="45.8730197" lon="11.8020151"><ele>1722.0</ele><time>2026-04-06T13:00:25.596Z</time></trkpt><trkpt lat="45.8729971" lon="11.8021356"><ele>1722.0</ele><time>2026-04-06T13:00:45.594Z</time></trkpt><trkpt lat="45.87302" lon="11.8022243"><ele>1722.0</ele><time>2026-04-06T13:00:46.596Z</time></trkpt><trkpt lat="45.8730406" lon="11.802325"><ele>1722.0</ele><time>2026-04-06T13:00:47.599Z</time></trkpt><trkpt lat="45.8730569" lon="11.8024339"><ele>1722.0</ele><time>2026-04-06T13:00:48.593Z</time></trkpt><trkpt lat="45.8730686" lon="11.8025466"><ele>1722.0</ele><time>2026-04-06T13:00:49.594Z</time></trkpt><trkpt lat="45.8730771" lon="11.8026632"><ele>1722.0</ele><time>2026-04-06T13:00:50.602Z</time></trkpt><trkpt lat="45.8730811" lon="11.8027853"><ele>1721.5</ele><time>2026-04-06T13:00:51.6Z</time></trkpt><trkpt lat="45.8730913" lon="11.8029094"><ele>1721.0</ele><time>2026-04-06T13:00:52.594Z</time></trkpt><trkpt lat="45.8731125" lon="11.8030314"><ele>1720.5</ele><time>2026-04-06T13:00:53.595Z</time></trkpt><trkpt lat="45.873142" lon="11.8031498"><ele>1720.0</ele><time>2026-04-06T13:00:54.594Z</time></trkpt><trkpt lat="45.8731766" lon="11.8032633"><ele>1719.5</ele><time>2026-04-06T13:00:55.597Z</time></trkpt><trkpt lat="45.8732116" lon="11.8033664"><ele>1719.0</ele><time>2026-04-06T13:00:56.598Z</time></trkpt><trkpt lat="45.8732452" lon="11.8034496"><ele>1719.0</ele><time>2026-04-06T13:00:57.596Z</time></trkpt><trkpt lat="45.8733278" lon="11.8035505"><ele>1707.0</ele><time>2026-04-06T13:00:59.596Z</time></trkpt><trkpt lat="45.8734122" lon="11.8035524"><ele>1707.0</ele><time>2026-04-06T13:01:01.602Z</time></trkpt><trkpt lat="45.8734756" lon="11.8034625"><ele>1679.0</ele><time>2026-04-06T13:01:03.596Z</time></trkpt></trkseg><trkseg><trkpt lat="45.8734163" lon="11.8034621"><ele>1719.0</ele><time>2026-04-06T13:14:51.442Z</time></trkpt><trkpt lat="45.8733309" lon="11.8034707"><ele>1719.0</ele><time>2026-04-06T13:14:53.44Z</time></trkpt><trkpt lat="45.8732642" lon="11.8034024"><ele>1719.0</ele><time>2026-04-06T13:14:55.442Z</time></trkpt><trkpt lat="45.8732256" lon="11.8033137"><ele>1719.0</ele><time>2026-04-06T13:14:57.445Z</time></trkpt><trkpt lat="45.8731938" lon="11.8032155"><ele>1719.0</ele><time>2026-04-06T13:14:59.438Z</time></trkpt><trkpt lat="45.8731566" lon="11.8031028"><ele>1719.0</ele><time>2026-04-06T13:15:01.439Z</time></trkpt><trkpt lat="45.8731273" lon="11.802965"><ele>1719.0</ele><time>2026-04-06T13:15:03.441Z</time></trkpt><trkpt lat="45.8731055" lon="11.8028146"><ele>1719.0</ele><time>2026-04-06T13:15:05.442Z</time></trkpt><trkpt lat="45.8730994" lon="11.8026495"><ele>1719.0</ele><time>2026-04-06T13:15:07.443Z</time></trkpt><trkpt lat="45.873086" lon="11.8024874"><ele>1719.0</ele><time>2026-04-06T13:15:09.438Z</time></trkpt><trkpt lat="45.8730612" lon="11.8023269"><ele>1719.5</ele><time>2026-04-06T13:15:11.485Z</time></trkpt><trkpt lat="45.8730275" lon="11.8021598"><ele>1720.0</ele><time>2026-04-06T13:15:13.453Z</time></trkpt><trkpt lat="45.8730039" lon="11.8020731"><ele>1720.5</ele><time>2026-04-06T13:15:14.469Z</time></trkpt><trkpt lat="45.8729753" lon="11.8019841"><ele>1721.0</ele><time>2026-04-06T13:15:15.458Z</time></trkpt><trkpt lat="45.8729441" lon="11.8018921"><ele>1721.5</ele><time>2026-04-06T13:15:16.46Z</time></trkpt><trkpt lat="45.8729092" lon="11.8018021"><ele>1722.0</ele><time>2026-04-06T13:15:17.465Z</time></trkpt><trkpt lat="45.8728695" lon="11.8017192"><ele>1722.5714285714287</ele><time>2026-04-06T13:15:18.453Z</time></trkpt><trkpt lat="45.8728267" lon="11.8016403"><ele>1723.142857142857</ele><time>2026-04-06T13:15:19.459Z</time></trkpt><trkpt lat="45.8727782" lon="11.8015648"><ele>1723.7142857142858</ele><time>2026-04-06T13:15:20.462Z</time></trkpt><trkpt lat="45.872724" lon="11.8014936"><ele>1724.2857142857142</ele><time>2026-04-06T13:15:21.456Z</time></trkpt><trkpt lat="45.8726668" lon="11.8014253"><ele>1724.857142857143</ele><time>2026-04-06T13:15:22.475Z</time></trkpt><trkpt lat="45.8726049" lon="11.8013688"><ele>1725.4285714285716</ele><time>2026-04-06T13:15:23.45Z</time></trkpt><trkpt lat="45.872538" lon="11.8013231"><ele>1726.0</ele><time>2026-04-06T13:15:24.473Z</time></trkpt><trkpt lat="45.8724661" lon="11.80129"><ele>1723.0000000000002</ele><time>2026-04-06T13:15:25.441Z</time></trkpt><trkpt lat="45.872394" lon="11.801265"><ele>1720.0</ele><time>2026-04-06T13:15:26.476Z</time></trkpt><trkpt lat="45.8723195" lon="11.8012412"><ele>1717.0</ele><time>2026-04-06T13:15:27.457Z</time></trkpt><trkpt lat="45.8722451" lon="11.8012195"><ele>1714.0</ele><time>2026-04-06T13:15:28.457Z</time></trkpt><trkpt lat="45.8721691" lon="11.8012024"><ele>1711.0000000000002</ele><time>2026-04-06T13:15:29.47Z</time></trkpt><trkpt lat="45.8720923" lon="11.8011861"><ele>1708.0</ele><time>2026-04-06T13:15:30.482Z</time></trkpt><trkpt lat="45.8720164" lon="11.8011662"><ele>1708.0000000000002</ele><time>2026-04-06T13:15:31.449Z</time></trkpt><trkpt lat="45.8719431" lon="11.8011436"><ele>1708.0</ele><time>2026-04-06T13:15:32.472Z</time></trkpt><trkpt lat="45.8718707" lon="11.801122"><ele>1708.0</ele><time>2026-04-06T13:15:33.438Z</time></trkpt><trkpt lat="45.8717951" lon="11.8011029"><ele>1708.0</ele><time>2026-04-06T13:15:34.473Z</time></trkpt><trkpt lat="45.8717152" lon="11.8010855"><ele>1708.0000000000002</ele><time>2026-04-06T13:15:35.454Z</time></trkpt><trkpt lat="45.8716367" lon="11.8010692"><ele>1708.0</ele><time>2026-04-06T13:15:36.451Z</time></trkpt><trkpt lat="45.8715583" lon="11.8010596"><ele>1705.2857142857142</ele><time>2026-04-06T13:15:37.445Z</time></trkpt><trkpt lat="45.87148" lon="11.8010704"><ele>1702.5714285714284</ele><time>2026-04-06T13:15:38.446Z</time></trkpt><trkpt lat="45.871405" lon="11.8011001"><ele>1699.857142857143</ele><time>2026-04-06T13:15:39.44Z</time></trkpt><trkpt lat="45.8713332" lon="11.8011404"><ele>1697.142857142857</ele><time>2026-04-06T13:15:40.445Z</time></trkpt><trkpt lat="45.8712679" lon="11.8011853"><ele>1694.4285714285713</ele><time>2026-04-06T13:15:41.469Z</time></trkpt><trkpt lat="45.8712076" lon="11.8012335"><ele>1691.7142857142858</ele><time>2026-04-06T13:15:42.455Z</time></trkpt><trkpt lat="45.8711502" lon="11.8012834"><ele>1689.0</ele><time>2026-04-06T13:15:43.465Z</time></trkpt><trkpt lat="45.8710916" lon="11.8013366"><ele>1689.0</ele><time>2026-04-06T13:15:44.447Z</time></trkpt><trkpt lat="45.8710323" lon="11.8013859"><ele>1689.0</ele><time>2026-04-06T13:15:45.476Z</time></trkpt><trkpt lat="45.8709718" lon="11.8014304"><ele>1689.0</ele><time>2026-04-06T13:15:46.442Z</time></trkpt><trkpt lat="45.8709074" lon="11.8014661"><ele>1689.0</ele><time>2026-04-06T13:15:47.456Z</time></trkpt><trkpt lat="45.8708416" lon="11.8014826"><ele>1689.0</ele><time>2026-04-06T13:15:48.464Z</time></trkpt><trkpt lat="45.870772" lon="11.8014804"><ele>1689.0</ele><time>2026-04-06T13:15:49.454Z</time></trkpt><trkpt lat="45.870703" lon="11.8014657"><ele>1689.0</ele><time>2026-04-06T13:15:50.464Z</time></trkpt><trkpt lat="45.870635" lon="11.8014481"><ele>1689.2857142857144</ele><time>2026-04-06T13:15:51.468Z</time></trkpt><trkpt lat="45.8705664" lon="11.8014343"><ele>1689.5714285714284</ele><time>2026-04-06T13:15:52.469Z</time></trkpt><trkpt lat="45.8704949" lon="11.8014295"><ele>1689.857142857143</ele><time>2026-04-06T13:15:53.456Z</time></trkpt><trkpt lat="45.870422" lon="11.8014328"><ele>1690.1428571428573</ele><time>2026-04-06T13:15:54.461Z</time></trkpt><trkpt lat="45.8703476" lon="11.8014403"><ele>1690.4285714285716</ele><time>2026-04-06T13:15:55.46Z</time></trkpt><trkpt lat="45.8702719" lon="11.8014524"><ele>1690.7142857142858</ele><time>2026-04-06T13:15:56.46Z</time></trkpt><trkpt lat="45.8701944" lon="11.8014676"><ele>1691.0</ele><time>2026-04-06T13:15:57.463Z</time></trkpt><trkpt lat="45.8701154" lon="11.8014862"><ele>1690.4999999999998</ele><time>2026-04-06T13:15:58.461Z</time></trkpt><trkpt lat="45.8700346" lon="11.8015097"><ele>1690.0</ele><time>2026-04-06T13:15:59.457Z</time></trkpt><trkpt lat="45.8699534" lon="11.8015387"><ele>1689.5</ele><time>2026-04-06T13:16:00.464Z</time></trkpt><trkpt lat="45.8698737" lon="11.8015685"><ele>1689.0</ele><time>2026-04-06T13:16:01.468Z</time></trkpt><trkpt lat="45.8697994" lon="11.8015964"><ele>1688.4999999999998</ele><time>2026-04-06T13:16:02.463Z</time></trkpt><trkpt lat="45.8697286" lon="11.8016227"><ele>1688.0</ele><time>2026-04-06T13:16:03.455Z</time></trkpt><trkpt lat="45.8696604" lon="11.8016434"><ele>1688.0</ele><time>2026-04-06T13:16:04.472Z</time></trkpt><trkpt lat="45.8695914" lon="11.8016562"><ele>1688.0</ele><time>2026-04-06T13:16:05.46Z</time></trkpt><trkpt lat="45.8695221" lon="11.8016582"><ele>1688.0</ele><time>2026-04-06T13:16:06.451Z</time></trkpt><trkpt lat="45.8694494" lon="11.8016599"><ele>1688.0</ele><time>2026-04-06T13:16:07.456Z</time></trkpt><trkpt lat="45.8693771" lon="11.8016324"><ele>1688.0</ele><time>2026-04-06T13:16:08.462Z</time></trkpt><trkpt lat="45.8693073" lon="11.8015889"><ele>1688.0</ele><time>2026-04-06T13:16:09.449Z</time></trkpt><trkpt lat="45.8692417" lon="11.8015358"><ele>1688.0</ele><time>2026-04-06T13:16:10.447Z</time></trkpt><trkpt lat="45.8691795" lon="11.8014746"><ele>1689.5714285714287</ele><time>2026-04-06T13:16:11.464Z</time></trkpt><trkpt lat="45.8691193" lon="11.8014122"><ele>1691.1428571428573</ele><time>2026-04-06T13:16:12.462Z</time></trkpt><trkpt lat="45.8690641" lon="11.801343"><ele>1692.7142857142858</ele><time>2026-04-06T13:16:13.468Z</time></trkpt><trkpt lat="45.8690138" lon="11.8012773"><ele>1694.2857142857142</ele><time>2026-04-06T13:16:14.461Z</time></trkpt><trkpt lat="45.8689624" lon="11.8012104"><ele>1695.857142857143</ele><time>2026-04-06T13:16:15.454Z</time></trkpt><trkpt lat="45.8689113" lon="11.8011455"><ele>1697.4285714285713</ele><time>2026-04-06T13:16:16.447Z</time></trkpt><trkpt lat="45.8688591" lon="11.8010815"><ele>1699.0</ele><time>2026-04-06T13:16:17.443Z</time></trkpt><trkpt lat="45.8687536" lon="11.8009454"><ele>1699.0000000000002</ele><time>2026-04-06T13:16:19.516Z</time></trkpt><trkpt lat="45.868704" lon="11.8008689"><ele>1699.0</ele><time>2026-04-06T13:16:20.451Z</time></trkpt><trkpt lat="45.8686529" lon="11.8007887"><ele>1699.0</ele><time>2026-04-06T13:16:21.442Z</time></trkpt><trkpt lat="45.8686017" lon="11.8007066"><ele>1699.0</ele><time>2026-04-06T13:16:22.446Z</time></trkpt><trkpt lat="45.8685494" lon="11.800625"><ele>1699.0000000000002</ele><time>2026-04-06T13:16:23.443Z</time></trkpt><trkpt lat="45.8684953" lon="11.8005459"><ele>1699.0</ele><time>2026-04-06T13:16:24.446Z</time></trkpt><trkpt lat="45.8684403" lon="11.8004711"><ele>1695.6</ele><time>2026-04-06T13:16:25.44Z</time></trkpt><trkpt lat="45.8683812" lon="11.8003957"><ele>1692.2</ele><time>2026-04-06T13:16:26.447Z</time></trkpt><trkpt lat="45.8683217" lon="11.8003262"><ele>1688.8</ele><time>2026-04-06T13:16:27.45Z</time></trkpt><trkpt lat="45.868247" lon="11.8002539"><ele>1685.3999999999999</ele><time>2026-04-06T13:16:28.441Z</time></trkpt><trkpt lat="45.8681485" lon="11.8001705"><ele>1682.0</ele><time>2026-04-06T13:16:29.441Z</time></trkpt><trkpt lat="45.8680298" lon="11.8000806"><ele>1682.0</ele><time>2026-04-06T13:16:30.447Z</time></trkpt><trkpt lat="45.8678962" lon="11.7999843"><ele>1682.0</ele><time>2026-04-06T13:16:31.447Z</time></trkpt><trkpt lat="45.8677643" lon="11.7998989"><ele>1682.0</ele><time>2026-04-06T13:16:32.449Z</time></trkpt><trkpt lat="45.8676257" lon="11.7998383"><ele>1682.0</ele><time>2026-04-06T13:16:33.444Z</time></trkpt><trkpt lat="45.8674755" lon="11.7998104"><ele>1676.0</ele><time>2026-04-06T13:16:34.463Z</time></trkpt><trkpt lat="45.8673199" lon="11.7998095"><ele>1670.0</ele><time>2026-04-06T13:16:35.451Z</time></trkpt><trkpt lat="45.8671641" lon="11.7998087"><ele>1664.0</ele><time>2026-04-06T13:16:36.456Z</time></trkpt><trkpt lat="45.8670117" lon="11.7998311"><ele>1664.0</ele><time>2026-04-06T13:16:37.44Z</time></trkpt><trkpt lat="45.8668679" lon="11.7998518"><ele>1664.0</ele><time>2026-04-06T13:16:38.474Z</time></trkpt><trkpt lat="45.8667312" lon="11.7998694"><ele>1664.0</ele><time>2026-04-06T13:16:39.443Z</time></trkpt><trkpt lat="45.8665955" lon="11.7998778"><ele>1664.0</ele><time>2026-04-06T13:16:40.441Z</time></trkpt><trkpt lat="45.8664557" lon="11.7998699"><ele>1661.25</ele><time>2026-04-06T13:16:41.445Z</time></trkpt><trkpt lat="45.8663222" lon="11.7998395"><ele>1658.5</ele><time>2026-04-06T13:16:42.446Z</time></trkpt><trkpt lat="45.8662015" lon="11.7997835"><ele>1655.75</ele><time>2026-04-06T13:16:43.444Z</time></trkpt><trkpt lat="45.8660915" lon="11.7997115"><ele>1653.0</ele><time>2026-04-06T13:16:44.446Z</time></trkpt><trkpt lat="45.8659938" lon="11.7996277"><ele>1651.4</ele><time>2026-04-06T13:16:45.449Z</time></trkpt><trkpt lat="45.8659131" lon="11.7995282"><ele>1649.8000000000002</ele><time>2026-04-06T13:16:46.444Z</time></trkpt><trkpt lat="45.8658587" lon="11.7994027"><ele>1648.2</ele><time>2026-04-06T13:16:47.443Z</time></trkpt><trkpt lat="45.8658233" lon="11.7992463"><ele>1646.6</ele><time>2026-04-06T13:16:48.445Z</time></trkpt><trkpt lat="45.8658051" lon="11.7990725"><ele>1645.0</ele><time>2026-04-06T13:16:49.447Z</time></trkpt><trkpt lat="45.8658043" lon="11.798912"><ele>1645.0</ele><time>2026-04-06T13:16:50.441Z</time></trkpt><trkpt lat="45.8658245" lon="11.7987817"><ele>1645.0</ele><time>2026-04-06T13:16:51.442Z</time></trkpt><trkpt lat="45.865871" lon="11.7986727"><ele>1645.0</ele><time>2026-04-06T13:16:52.447Z</time></trkpt><trkpt lat="45.8659472" lon="11.7985856"><ele>1645.0</ele><time>2026-04-06T13:16:53.447Z</time></trkpt><trkpt lat="45.8660314" lon="11.7985095"><ele>1645.0</ele><time>2026-04-06T13:16:54.44Z</time></trkpt><trkpt lat="45.86614" lon="11.7984676"><ele>1644.0</ele><time>2026-04-06T13:16:55.447Z</time></trkpt><trkpt lat="45.8662552" lon="11.7984262"><ele>1643.0</ele><time>2026-04-06T13:16:56.44Z</time></trkpt><trkpt lat="45.8663762" lon="11.7983712"><ele>1642.0</ele><time>2026-04-06T13:16:57.433Z</time></trkpt><trkpt lat="45.8665067" lon="11.7983035"><ele>1641.0</ele><time>2026-04-06T13:16:58.442Z</time></trkpt><trkpt lat="45.8666383" lon="11.798218"><ele>1641.0</ele><time>2026-04-06T13:16:59.439Z</time></trkpt><trkpt lat="45.866772" lon="11.7981175"><ele>1641.0</ele><time>2026-04-06T13:17:00.445Z</time></trkpt><trkpt lat="45.8669162" lon="11.7980295"><ele>1641.0</ele><time>2026-04-06T13:17:01.441Z</time></trkpt><trkpt lat="45.8670393" lon="11.7979489"><ele>1641.0</ele><time>2026-04-06T13:17:02.441Z</time></trkpt><trkpt lat="45.8671495" lon="11.7978824"><ele>1638.6</ele><time>2026-04-06T13:17:03.452Z</time></trkpt><trkpt lat="45.8672499" lon="11.7978208"><ele>1636.1999999999998</ele><time>2026-04-06T13:17:04.445Z</time></trkpt><trkpt lat="45.8673398" lon="11.7977455"><ele>1633.8000000000002</ele><time>2026-04-06T13:17:05.429Z</time></trkpt><trkpt lat="45.8674141" lon="11.7976383"><ele>1631.4</ele><time>2026-04-06T13:17:06.442Z</time></trkpt><trkpt lat="45.8674688" lon="11.7975003"><ele>1629.0</ele><time>2026-04-06T13:17:07.446Z</time></trkpt><trkpt lat="45.867507" lon="11.7973409"><ele>1629.0</ele><time>2026-04-06T13:17:08.441Z</time></trkpt><trkpt lat="45.8675433" lon="11.7971686"><ele>1629.0</ele><time>2026-04-06T13:17:09.449Z</time></trkpt><trkpt lat="45.86758" lon="11.7969864"><ele>1629.0</ele><time>2026-04-06T13:17:10.439Z</time></trkpt><trkpt lat="45.8676147" lon="11.7968085"><ele>1629.0</ele><time>2026-04-06T13:17:11.446Z</time></trkpt><trkpt lat="45.867647" lon="11.7966446"><ele>1629.25</ele><time>2026-04-06T13:17:12.444Z</time></trkpt><trkpt lat="45.8676918" lon="11.7964994"><ele>1629.5</ele><time>2026-04-06T13:17:13.441Z</time></trkpt><trkpt lat="45.8677547" lon="11.7963705"><ele>1629.75</ele><time>2026-04-06T13:17:14.438Z</time></trkpt><trkpt lat="45.8678348" lon="11.7962508"><ele>1630.0</ele><time>2026-04-06T13:17:15.447Z</time></trkpt><trkpt lat="45.8679232" lon="11.7961319"><ele>1629.25</ele><time>2026-04-06T13:17:16.44Z</time></trkpt><trkpt lat="45.8679811" lon="11.7959877"><ele>1628.5</ele><time>2026-04-06T13:17:17.439Z</time></trkpt><trkpt lat="45.8680118" lon="11.7958287"><ele>1627.75</ele><time>2026-04-06T13:17:18.44Z</time></trkpt><trkpt lat="45.8680483" lon="11.7956824"><ele>1627.0</ele><time>2026-04-06T13:17:19.44Z</time></trkpt><trkpt lat="45.8681113" lon="11.7955496"><ele>1627.0</ele><time>2026-04-06T13:17:20.438Z</time></trkpt><trkpt lat="45.8681766" lon="11.7954307"><ele>1627.0</ele><time>2026-04-06T13:17:21.444Z</time></trkpt><trkpt lat="45.8682593" lon="11.7953396"><ele>1627.0</ele><time>2026-04-06T13:17:22.441Z</time></trkpt><trkpt lat="45.8683355" lon="11.795248"><ele>1627.0</ele><time>2026-04-06T13:17:23.441Z</time></trkpt><trkpt lat="45.8683926" lon="11.7951273"><ele>1627.0</ele><time>2026-04-06T13:17:24.449Z</time></trkpt><trkpt lat="45.8684262" lon="11.7949835"><ele>1623.25</ele><time>2026-04-06T13:17:25.446Z</time></trkpt><trkpt lat="45.8684344" lon="11.7948249"><ele>1619.5</ele><time>2026-04-06T13:17:26.437Z</time></trkpt><trkpt lat="45.8684251" lon="11.7946438"><ele>1615.75</ele><time>2026-04-06T13:17:27.444Z</time></trkpt><trkpt lat="45.8684178" lon="11.7944705"><ele>1612.0</ele><time>2026-04-06T13:17:28.441Z</time></trkpt><trkpt lat="45.8684159" lon="11.7943174"><ele>1614.0</ele><time>2026-04-06T13:17:29.444Z</time></trkpt><trkpt lat="45.8684144" lon="11.7941701"><ele>1616.0</ele><time>2026-04-06T13:17:30.44Z</time></trkpt><trkpt lat="45.868406" lon="11.7940154"><ele>1618.0</ele><time>2026-04-06T13:17:31.441Z</time></trkpt><trkpt lat="45.8684176" lon="11.793869"><ele>1620.0</ele><time>2026-04-06T13:17:32.441Z</time></trkpt><trkpt lat="45.8684388" lon="11.7937316"><ele>1622.0</ele><time>2026-04-06T13:17:33.442Z</time></trkpt><trkpt lat="45.8684614" lon="11.7935899"><ele>1619.3999999999999</ele><time>2026-04-06T13:17:34.452Z</time></trkpt><trkpt lat="45.8684886" lon="11.793443"><ele>1616.8</ele><time>2026-04-06T13:17:35.446Z</time></trkpt><trkpt lat="45.868513" lon="11.7932991"><ele>1614.2</ele><time>2026-04-06T13:17:36.446Z</time></trkpt><trkpt lat="45.8685329" lon="11.793154"><ele>1611.6</ele><time>2026-04-06T13:17:37.443Z</time></trkpt><trkpt lat="45.8685553" lon="11.793016"><ele>1609.0</ele><time>2026-04-06T13:17:38.445Z</time></trkpt><trkpt lat="45.8685888" lon="11.792885"><ele>1609.0</ele><time>2026-04-06T13:17:39.444Z</time></trkpt><trkpt lat="45.8686401" lon="11.7927705"><ele>1609.0</ele><time>2026-04-06T13:17:40.449Z</time></trkpt><trkpt lat="45.8687053" lon="11.7926747"><ele>1609.0</ele><time>2026-04-06T13:17:41.447Z</time></trkpt><trkpt lat="45.8687864" lon="11.7925882"><ele>1609.0</ele><time>2026-04-06T13:17:42.454Z</time></trkpt><trkpt lat="45.8688766" lon="11.7925033"><ele>1609.0</ele><time>2026-04-06T13:17:43.455Z</time></trkpt><trkpt lat="45.8689779" lon="11.7924218"><ele>1607.25</ele><time>2026-04-06T13:17:44.449Z</time></trkpt><trkpt lat="45.869085" lon="11.7923363"><ele>1605.5</ele><time>2026-04-06T13:17:45.443Z</time></trkpt><trkpt lat="45.8691915" lon="11.7922469"><ele>1603.75</ele><time>2026-04-06T13:17:46.443Z</time></trkpt><trkpt lat="45.869295" lon="11.7921597"><ele>1602.0</ele><time>2026-04-06T13:17:47.463Z</time></trkpt><trkpt lat="45.8693954" lon="11.7920755"><ele>1602.0</ele><time>2026-04-06T13:17:48.447Z</time></trkpt><trkpt lat="45.8694967" lon="11.7919885"><ele>1602.0</ele><time>2026-04-06T13:17:49.444Z</time></trkpt><trkpt lat="45.8696015" lon="11.7918998"><ele>1602.0</ele><time>2026-04-06T13:17:50.448Z</time></trkpt><trkpt lat="45.869712" lon="11.7918132"><ele>1602.0</ele><time>2026-04-06T13:17:51.446Z</time></trkpt><trkpt lat="45.8698214" lon="11.7917342"><ele>1604.1999999999998</ele><time>2026-04-06T13:17:52.451Z</time></trkpt><trkpt lat="45.8699235" lon="11.7916691"><ele>1606.4</ele><time>2026-04-06T13:17:53.444Z</time></trkpt><trkpt lat="45.8700151" lon="11.7916162"><ele>1608.6</ele><time>2026-04-06T13:17:54.45Z</time></trkpt><trkpt lat="45.8700989" lon="11.7915492"><ele>1610.8000000000002</ele><time>2026-04-06T13:17:55.454Z</time></trkpt><trkpt lat="45.8701691" lon="11.7914576"><ele>1613.0</ele><time>2026-04-06T13:17:56.446Z</time></trkpt><trkpt lat="45.8702236" lon="11.7913469"><ele>1613.0</ele><time>2026-04-06T13:17:57.451Z</time></trkpt><trkpt lat="45.8702549" lon="11.7912206"><ele>1613.0</ele><time>2026-04-06T13:17:58.449Z</time></trkpt><trkpt lat="45.8702606" lon="11.7910816"><ele>1613.0</ele><time>2026-04-06T13:17:59.46Z</time></trkpt><trkpt lat="45.8702449" lon="11.7909338"><ele>1613.0</ele><time>2026-04-06T13:18:00.454Z</time></trkpt><trkpt lat="45.8702211" lon="11.7907768"><ele>1613.0</ele><time>2026-04-06T13:18:01.45Z</time></trkpt><trkpt lat="45.8701962" lon="11.7906133"><ele>1612.4</ele><time>2026-04-06T13:18:02.452Z</time></trkpt><trkpt lat="45.8701702" lon="11.7904499"><ele>1611.8000000000002</ele><time>2026-04-06T13:18:03.447Z</time></trkpt><trkpt lat="45.8701443" lon="11.7902915"><ele>1611.2</ele><time>2026-04-06T13:18:04.452Z</time></trkpt><trkpt lat="45.8701191" lon="11.7901383"><ele>1610.6</ele><time>2026-04-06T13:18:05.461Z</time></trkpt><trkpt lat="45.8700944" lon="11.7899902"><ele>1610.0</ele><time>2026-04-06T13:18:06.451Z</time></trkpt><trkpt lat="45.8700707" lon="11.789846"><ele>1602.0</ele><time>2026-04-06T13:18:07.45Z</time></trkpt><trkpt lat="45.8700498" lon="11.7897036"><ele>1594.0</ele><time>2026-04-06T13:18:08.468Z</time></trkpt><trkpt lat="45.870033" lon="11.7895639"><ele>1586.0</ele><time>2026-04-06T13:18:09.451Z</time></trkpt><trkpt lat="45.8700208" lon="11.7894262"><ele>1578.0</ele><time>2026-04-06T13:18:10.445Z</time></trkpt><trkpt lat="45.8700102" lon="11.7892843"><ele>1570.0</ele><time>2026-04-06T13:18:11.463Z</time></trkpt><trkpt lat="45.8699995" lon="11.7891326"><ele>1570.0</ele><time>2026-04-06T13:18:12.462Z</time></trkpt><trkpt lat="45.8699873" lon="11.7889705"><ele>1570.0</ele><time>2026-04-06T13:18:13.448Z</time></trkpt><trkpt lat="45.869975" lon="11.7888"><ele>1570.0</ele><time>2026-04-06T13:18:14.456Z</time></trkpt><trkpt lat="45.8699615" lon="11.7886268"><ele>1570.0</ele><time>2026-04-06T13:18:15.46Z</time></trkpt><trkpt lat="45.8699467" lon="11.7884602"><ele>1569.6</ele><time>2026-04-06T13:18:16.449Z</time></trkpt><trkpt lat="45.8699318" lon="11.7882997"><ele>1569.2</ele><time>2026-04-06T13:18:17.452Z</time></trkpt><trkpt lat="45.8699161" lon="11.7881404"><ele>1568.8000000000002</ele><time>2026-04-06T13:18:18.456Z</time></trkpt><trkpt lat="45.8699027" lon="11.7879861"><ele>1568.4</ele><time>2026-04-06T13:18:19.45Z</time></trkpt><trkpt lat="45.8698942" lon="11.787832"><ele>1568.0</ele><time>2026-04-06T13:18:20.455Z</time></trkpt><trkpt lat="45.8698945" lon="11.7876808"><ele>1566.8000000000002</ele><time>2026-04-06T13:18:21.453Z</time></trkpt><trkpt lat="45.8698959" lon="11.7875328"><ele>1565.6</ele><time>2026-04-06T13:18:22.444Z</time></trkpt><trkpt lat="45.8698862" lon="11.7873842"><ele>1564.4</ele><time>2026-04-06T13:18:23.45Z</time></trkpt><trkpt lat="45.8698584" lon="11.7872403"><ele>1563.1999999999998</ele><time>2026-04-06T13:18:24.451Z</time></trkpt><trkpt lat="45.8698147" lon="11.7871071"><ele>1562.0</ele><time>2026-04-06T13:18:25.462Z</time></trkpt><trkpt lat="45.8697627" lon="11.7869839"><ele>1562.0</ele><time>2026-04-06T13:18:26.46Z</time></trkpt><trkpt lat="45.8697076" lon="11.7868604"><ele>1562.0</ele><time>2026-04-06T13:18:27.454Z</time></trkpt><trkpt lat="45.8696573" lon="11.7867367"><ele>1562.0</ele><time>2026-04-06T13:18:28.447Z</time></trkpt><trkpt lat="45.8696128" lon="11.7866131"><ele>1562.0</ele><time>2026-04-06T13:18:29.461Z</time></trkpt><trkpt lat="45.8695741" lon="11.7864901"><ele>1562.0</ele><time>2026-04-06T13:18:30.452Z</time></trkpt><trkpt lat="45.8695468" lon="11.786365"><ele>1561.6666666666665</ele><time>2026-04-06T13:18:31.451Z</time></trkpt><trkpt lat="45.8695281" lon="11.7862423"><ele>1561.3333333333333</ele><time>2026-04-06T13:18:32.45Z</time></trkpt><trkpt lat="45.8695313" lon="11.7861286"><ele>1561.0</ele><time>2026-04-06T13:18:33.452Z</time></trkpt><trkpt lat="45.8695266" lon="11.7860202"><ele>1560.6666666666665</ele><time>2026-04-06T13:18:34.471Z</time></trkpt><trkpt lat="45.8695104" lon="11.7859321"><ele>1560.3333333333333</ele><time>2026-04-06T13:18:35.462Z</time></trkpt><trkpt lat="45.8694347" lon="11.7858483"><ele>1560.0</ele><time>2026-04-06T13:18:37.452Z</time></trkpt><trkpt lat="45.8693645" lon="11.7858272"><ele>1558.8333333333333</ele><time>2026-04-06T13:18:39.457Z</time></trkpt><trkpt lat="45.8692999" lon="11.7857893"><ele>1557.6666666666665</ele><time>2026-04-06T13:18:41.46Z</time></trkpt><trkpt lat="45.8693071" lon="11.7856218"><ele>1556.5</ele><time>2026-04-06T13:18:43.466Z</time></trkpt><trkpt lat="45.869349" lon="11.7855291"><ele>1555.3333333333333</ele><time>2026-04-06T13:18:44.45Z</time></trkpt><trkpt lat="45.8694091" lon="11.7854406"><ele>1554.1666666666665</ele><time>2026-04-06T13:18:45.456Z</time></trkpt><trkpt lat="45.8694797" lon="11.7853769"><ele>1553.0</ele><time>2026-04-06T13:18:46.444Z</time></trkpt><trkpt lat="45.8695614" lon="11.7853456"><ele>1553.0</ele><time>2026-04-06T13:18:47.459Z</time></trkpt><trkpt lat="45.8696543" lon="11.7853432"><ele>1553.0</ele><time>2026-04-06T13:18:48.455Z</time></trkpt><trkpt lat="45.8697499" lon="11.7853577"><ele>1553.0</ele><time>2026-04-06T13:18:49.457Z</time></trkpt><trkpt lat="45.8698518" lon="11.7853782"><ele>1553.0</ele><time>2026-04-06T13:18:50.461Z</time></trkpt><trkpt lat="45.8699602" lon="11.785398"><ele>1553.0</ele><time>2026-04-06T13:18:51.465Z</time></trkpt><trkpt lat="45.8700718" lon="11.7854139"><ele>1555.75</ele><time>2026-04-06T13:18:52.448Z</time></trkpt><trkpt lat="45.8701825" lon="11.785429"><ele>1558.5</ele><time>2026-04-06T13:18:53.452Z</time></trkpt><trkpt lat="45.8703033" lon="11.7854446"><ele>1561.25</ele><time>2026-04-06T13:18:54.451Z</time></trkpt><trkpt lat="45.8704258" lon="11.7854505"><ele>1564.0</ele><time>2026-04-06T13:18:55.452Z</time></trkpt><trkpt lat="45.8705511" lon="11.7854453"><ele>1564.0</ele><time>2026-04-06T13:18:56.461Z</time></trkpt><trkpt lat="45.87068" lon="11.7854352"><ele>1564.0</ele><time>2026-04-06T13:18:57.456Z</time></trkpt><trkpt lat="45.8708086" lon="11.7854271"><ele>1564.0</ele><time>2026-04-06T13:18:58.45Z</time></trkpt><trkpt lat="45.8709358" lon="11.785418"><ele>1564.0</ele><time>2026-04-06T13:18:59.463Z</time></trkpt><trkpt lat="45.8710565" lon="11.7854108"><ele>1565.0</ele><time>2026-04-06T13:19:00.45Z</time></trkpt><trkpt lat="45.8711689" lon="11.7854092"><ele>1566.0</ele><time>2026-04-06T13:19:01.444Z</time></trkpt><trkpt lat="45.8712794" lon="11.7854168"><ele>1567.0</ele><time>2026-04-06T13:19:02.441Z</time></trkpt><trkpt lat="45.8713935" lon="11.7854399"><ele>1568.0</ele><time>2026-04-06T13:19:03.448Z</time></trkpt><trkpt lat="45.8715095" lon="11.7854715"><ele>1568.0</ele><time>2026-04-06T13:19:04.458Z</time></trkpt><trkpt lat="45.8716274" lon="11.7855118"><ele>1568.0</ele><time>2026-04-06T13:19:05.453Z</time></trkpt><trkpt lat="45.8717447" lon="11.7855645"><ele>1568.0</ele><time>2026-04-06T13:19:06.455Z</time></trkpt><trkpt lat="45.8718573" lon="11.7856391"><ele>1568.0</ele><time>2026-04-06T13:19:07.451Z</time></trkpt><trkpt lat="45.8719616" lon="11.7857378"><ele>1566.5</ele><time>2026-04-06T13:19:08.457Z</time></trkpt><trkpt lat="45.8720554" lon="11.7858574"><ele>1565.0</ele><time>2026-04-06T13:19:09.446Z</time></trkpt><trkpt lat="45.8721403" lon="11.7859915"><ele>1563.5</ele><time>2026-04-06T13:19:10.455Z</time></trkpt><trkpt lat="45.8722186" lon="11.7861356"><ele>1562.0</ele><time>2026-04-06T13:19:11.452Z</time></trkpt><trkpt lat="45.8722878" lon="11.7862918"><ele>1562.0</ele><time>2026-04-06T13:19:12.449Z</time></trkpt><trkpt lat="45.8723495" lon="11.7864581"><ele>1562.0</ele><time>2026-04-06T13:19:13.457Z</time></trkpt><trkpt lat="45.8724009" lon="11.7866327"><ele>1562.0</ele><time>2026-04-06T13:19:14.463Z</time></trkpt><trkpt lat="45.872446" lon="11.786813"><ele>1562.0</ele><time>2026-04-06T13:19:15.456Z</time></trkpt><trkpt lat="45.8724868" lon="11.7869967"><ele>1565.75</ele><time>2026-04-06T13:19:16.445Z</time></trkpt><trkpt lat="45.8725282" lon="11.7871804"><ele>1569.5</ele><time>2026-04-06T13:19:17.46Z</time></trkpt><trkpt lat="45.8725526" lon="11.787369"><ele>1573.25</ele><time>2026-04-06T13:19:18.45Z</time></trkpt><trkpt lat="45.8725705" lon="11.7875521"><ele>1577.0</ele><time>2026-04-06T13:19:19.457Z</time></trkpt><trkpt lat="45.8725838" lon="11.7877267"><ele>1568.25</ele><time>2026-04-06T13:19:20.45Z</time></trkpt><trkpt lat="45.8726066" lon="11.787898"><ele>1559.5</ele><time>2026-04-06T13:19:21.457Z</time></trkpt><trkpt lat="45.8726456" lon="11.7880613"><ele>1550.75</ele><time>2026-04-06T13:19:22.451Z</time></trkpt><trkpt lat="45.8726874" lon="11.7882216"><ele>1542.0</ele><time>2026-04-06T13:19:23.455Z</time></trkpt><trkpt lat="45.8727199" lon="11.7883863"><ele>1542.8333333333333</ele><time>2026-04-06T13:19:24.447Z</time></trkpt><trkpt lat="45.8727397" lon="11.7885414"><ele>1543.6666666666665</ele><time>2026-04-06T13:19:25.456Z</time></trkpt><trkpt lat="45.8727464" lon="11.7886767"><ele>1544.5</ele><time>2026-04-06T13:19:26.458Z</time></trkpt><trkpt lat="45.8727449" lon="11.7887956"><ele>1545.3333333333333</ele><time>2026-04-06T13:19:27.452Z</time></trkpt><trkpt lat="45.8727369" lon="11.7889055"><ele>1546.1666666666665</ele><time>2026-04-06T13:19:28.455Z</time></trkpt><trkpt lat="45.8727239" lon="11.789007"><ele>1547.0</ele><time>2026-04-06T13:19:29.484Z</time></trkpt><trkpt lat="45.8727074" lon="11.7891083"><ele>1546.9999999999998</ele><time>2026-04-06T13:19:30.453Z</time></trkpt><trkpt lat="45.8726892" lon="11.7892086"><ele>1547.0</ele><time>2026-04-06T13:19:31.452Z</time></trkpt><trkpt lat="45.8726667" lon="11.7893159"><ele>1547.0</ele><time>2026-04-06T13:19:32.459Z</time></trkpt><trkpt lat="45.8726391" lon="11.7894299"><ele>1547.0</ele><time>2026-04-06T13:19:33.451Z</time></trkpt><trkpt lat="45.8726076" lon="11.7895453"><ele>1546.9999999999998</ele><time>2026-04-06T13:19:34.451Z</time></trkpt><trkpt lat="45.8725685" lon="11.7896687"><ele>1547.0</ele><time>2026-04-06T13:19:35.452Z</time></trkpt><trkpt lat="45.8725184" lon="11.789807"><ele>1554.0</ele><time>2026-04-06T13:19:36.457Z</time></trkpt><trkpt lat="45.8724584" lon="11.7899493"><ele>1561.0</ele><time>2026-04-06T13:19:37.459Z</time></trkpt><trkpt lat="45.8723963" lon="11.7900881"><ele>1568.0</ele><time>2026-04-06T13:19:38.455Z</time></trkpt><trkpt lat="45.8723444" lon="11.7902152"><ele>1575.0</ele><time>2026-04-06T13:19:39.451Z</time></trkpt><trkpt lat="45.8723139" lon="11.7903392"><ele>1582.0</ele><time>2026-04-06T13:19:40.447Z</time></trkpt><trkpt lat="45.872287" lon="11.7904602"><ele>1583.3999999999999</ele><time>2026-04-06T13:19:41.452Z</time></trkpt><trkpt lat="45.8723179" lon="11.7905766"><ele>1584.8</ele><time>2026-04-06T13:19:42.454Z</time></trkpt><trkpt lat="45.8723801" lon="11.790678"><ele>1586.2</ele><time>2026-04-06T13:19:43.476Z</time></trkpt><trkpt lat="45.8724666" lon="11.7907669"><ele>1587.6</ele><time>2026-04-06T13:19:44.461Z</time></trkpt><trkpt lat="45.8725625" lon="11.7908532"><ele>1589.0</ele><time>2026-04-06T13:19:45.455Z</time></trkpt><trkpt lat="45.8726619" lon="11.7909478"><ele>1588.75</ele><time>2026-04-06T13:19:46.449Z</time></trkpt><trkpt lat="45.8727621" lon="11.7910507"><ele>1588.5</ele><time>2026-04-06T13:19:47.473Z</time></trkpt><trkpt lat="45.8728646" lon="11.7911616"><ele>1588.25</ele><time>2026-04-06T13:19:48.45Z</time></trkpt><trkpt lat="45.8729621" lon="11.7912752"><ele>1588.0</ele><time>2026-04-06T13:19:49.455Z</time></trkpt><trkpt lat="45.8730444" lon="11.791396"><ele>1588.0</ele><time>2026-04-06T13:19:50.452Z</time></trkpt><trkpt lat="45.8731124" lon="11.7915402"><ele>1588.0</ele><time>2026-04-06T13:19:51.453Z</time></trkpt><trkpt lat="45.8731752" lon="11.7917046"><ele>1588.0</ele><time>2026-04-06T13:19:52.457Z</time></trkpt><trkpt lat="45.8732385" lon="11.7918763"><ele>1588.0</ele><time>2026-04-06T13:19:53.455Z</time></trkpt><trkpt lat="45.8733032" lon="11.792049"><ele>1587.25</ele><time>2026-04-06T13:19:54.448Z</time></trkpt><trkpt lat="45.8733674" lon="11.7922238"><ele>1586.5</ele><time>2026-04-06T13:19:55.448Z</time></trkpt><trkpt lat="45.8734255" lon="11.7923961"><ele>1585.75</ele><time>2026-04-06T13:19:56.449Z</time></trkpt><trkpt lat="45.8734829" lon="11.792565"><ele>1585.0</ele><time>2026-04-06T13:19:57.454Z</time></trkpt><trkpt lat="45.8735283" lon="11.7927326"><ele>1588.5</ele><time>2026-04-06T13:19:58.45Z</time></trkpt><trkpt lat="45.873583" lon="11.7928953"><ele>1592.0</ele><time>2026-04-06T13:19:59.447Z</time></trkpt><trkpt lat="45.8736501" lon="11.7930413"><ele>1595.5</ele><time>2026-04-06T13:20:00.458Z</time></trkpt><trkpt lat="45.8737212" lon="11.7931874"><ele>1599.0</ele><time>2026-04-06T13:20:01.455Z</time></trkpt><trkpt lat="45.8737845" lon="11.7933272"><ele>1599.0</ele><time>2026-04-06T13:20:02.456Z</time></trkpt><trkpt lat="45.873834" lon="11.7934785"><ele>1599.0</ele><time>2026-04-06T13:20:03.444Z</time></trkpt><trkpt lat="45.8738644" lon="11.7936394"><ele>1599.0</ele><time>2026-04-06T13:20:04.443Z</time></trkpt><trkpt lat="45.8738735" lon="11.7937926"><ele>1599.0</ele><time>2026-04-06T13:20:05.451Z</time></trkpt><trkpt lat="45.87386" lon="11.7939386"><ele>1599.0</ele><time>2026-04-06T13:20:06.451Z</time></trkpt><trkpt lat="45.8738282" lon="11.7940854"><ele>1599.4</ele><time>2026-04-06T13:20:07.455Z</time></trkpt><trkpt lat="45.8737872" lon="11.7942281"><ele>1599.8000000000002</ele><time>2026-04-06T13:20:08.459Z</time></trkpt><trkpt lat="45.8737496" lon="11.7943609"><ele>1600.1999999999998</ele><time>2026-04-06T13:20:09.454Z</time></trkpt><trkpt lat="45.8737296" lon="11.7944957"><ele>1600.6</ele><time>2026-04-06T13:20:10.449Z</time></trkpt><trkpt lat="45.873738" lon="11.7946329"><ele>1601.0</ele><time>2026-04-06T13:20:11.459Z</time></trkpt><trkpt lat="45.8737799" lon="11.7947645"><ele>1603.25</ele><time>2026-04-06T13:20:12.458Z</time></trkpt><trkpt lat="45.873824" lon="11.7949026"><ele>1605.5</ele><time>2026-04-06T13:20:13.459Z</time></trkpt><trkpt lat="45.8739112" lon="11.7950263"><ele>1607.75</ele><time>2026-04-06T13:20:14.45Z</time></trkpt><trkpt lat="45.874004" lon="11.7951551"><ele>1610.0</ele><time>2026-04-06T13:20:15.456Z</time></trkpt><trkpt lat="45.8740985" lon="11.7952897"><ele>1608.75</ele><time>2026-04-06T13:20:16.464Z</time></trkpt><trkpt lat="45.8741949" lon="11.7954324"><ele>1607.5</ele><time>2026-04-06T13:20:17.456Z</time></trkpt><trkpt lat="45.8743013" lon="11.7955696"><ele>1606.25</ele><time>2026-04-06T13:20:18.453Z</time></trkpt><trkpt lat="45.8744179" lon="11.7957022"><ele>1605.0</ele><time>2026-04-06T13:20:19.45Z</time></trkpt><trkpt lat="45.874537" lon="11.7958281"><ele>1605.0</ele><time>2026-04-06T13:20:20.458Z</time></trkpt><trkpt lat="45.8746544" lon="11.7959566"><ele>1605.0</ele><time>2026-04-06T13:20:21.449Z</time></trkpt><trkpt lat="45.874764" lon="11.7960792"><ele>1605.0</ele><time>2026-04-06T13:20:22.454Z</time></trkpt><trkpt lat="45.8748703" lon="11.7961961"><ele>1605.0</ele><time>2026-04-06T13:20:23.453Z</time></trkpt><trkpt lat="45.8749843" lon="11.796289"><ele>1604.2</ele><time>2026-04-06T13:20:24.449Z</time></trkpt><trkpt lat="45.8750998" lon="11.7963505"><ele>1603.4</ele><time>2026-04-06T13:20:25.46Z</time></trkpt><trkpt lat="45.8752113" lon="11.7963965"><ele>1602.6</ele><time>2026-04-06T13:20:26.451Z</time></trkpt><trkpt lat="45.8753123" lon="11.7964428"><ele>1601.8</ele><time>2026-04-06T13:20:27.455Z</time></trkpt><trkpt lat="45.8754046" lon="11.7965105"><ele>1601.0</ele><time>2026-04-06T13:20:28.45Z</time></trkpt><trkpt lat="45.875483" lon="11.7966045"><ele>1601.0</ele><time>2026-04-06T13:20:29.451Z</time></trkpt><trkpt lat="45.8755475" lon="11.7967309"><ele>1601.0</ele><time>2026-04-06T13:20:30.456Z</time></trkpt><trkpt lat="45.8756059" lon="11.796873"><ele>1601.0</ele><time>2026-04-06T13:20:31.453Z</time></trkpt><trkpt lat="45.8756711" lon="11.7970157"><ele>1601.0</ele><time>2026-04-06T13:20:32.448Z</time></trkpt><trkpt lat="45.8757472" lon="11.7971502"><ele>1606.75</ele><time>2026-04-06T13:20:33.446Z</time></trkpt><trkpt lat="45.8758309" lon="11.7972714"><ele>1612.5</ele><time>2026-04-06T13:20:34.453Z</time></trkpt><trkpt lat="45.875911" lon="11.7973877"><ele>1618.25</ele><time>2026-04-06T13:20:35.454Z</time></trkpt><trkpt lat="45.8760077" lon="11.797488"><ele>1624.0</ele><time>2026-04-06T13:20:36.445Z</time></trkpt><trkpt lat="45.8761152" lon="11.7975241"><ele>1625.25</ele><time>2026-04-06T13:20:37.455Z</time></trkpt><trkpt lat="45.8762234" lon="11.7975223"><ele>1626.5</ele><time>2026-04-06T13:20:38.449Z</time></trkpt><trkpt lat="45.8763478" lon="11.7974529"><ele>1627.75</ele><time>2026-04-06T13:20:39.457Z</time></trkpt><trkpt lat="45.8764584" lon="11.7973386"><ele>1629.0</ele><time>2026-04-06T13:20:40.445Z</time></trkpt><trkpt lat="45.8765748" lon="11.7972238"><ele>1629.0</ele><time>2026-04-06T13:20:41.456Z</time></trkpt><trkpt lat="45.8766905" lon="11.7971089"><ele>1629.0</ele><time>2026-04-06T13:20:42.461Z</time></trkpt><trkpt lat="45.8768098" lon="11.797007"><ele>1629.0</ele><time>2026-04-06T13:20:43.474Z</time></trkpt><trkpt lat="45.876932" lon="11.7969135"><ele>1629.0</ele><time>2026-04-06T13:20:44.457Z</time></trkpt><trkpt lat="45.8770464" lon="11.7968181"><ele>1625.25</ele><time>2026-04-06T13:20:45.457Z</time></trkpt><trkpt lat="45.8771665" lon="11.7967185"><ele>1621.5</ele><time>2026-04-06T13:20:46.44Z</time></trkpt><trkpt lat="45.8772913" lon="11.7966428"><ele>1617.75</ele><time>2026-04-06T13:20:47.445Z</time></trkpt><trkpt lat="45.8774155" lon="11.7965764"><ele>1614.0</ele><time>2026-04-06T13:20:48.446Z</time></trkpt><trkpt lat="45.8775218" lon="11.7965401"><ele>1615.2</ele><time>2026-04-06T13:20:49.454Z</time></trkpt><trkpt lat="45.8776187" lon="11.7965381"><ele>1616.4</ele><time>2026-04-06T13:20:50.446Z</time></trkpt><trkpt lat="45.8777118" lon="11.7965688"><ele>1617.6</ele><time>2026-04-06T13:20:51.445Z</time></trkpt><trkpt lat="45.8777989" lon="11.7966369"><ele>1618.8</ele><time>2026-04-06T13:20:52.452Z</time></trkpt><trkpt lat="45.8778811" lon="11.7967186"><ele>1620.0</ele><time>2026-04-06T13:20:53.458Z</time></trkpt><trkpt lat="45.8779684" lon="11.7968123"><ele>1622.8</ele><time>2026-04-06T13:20:54.45Z</time></trkpt><trkpt lat="45.8780582" lon="11.7968819"><ele>1625.6</ele><time>2026-04-06T13:20:55.442Z</time></trkpt><trkpt lat="45.8781556" lon="11.7969202"><ele>1628.4</ele><time>2026-04-06T13:20:56.446Z</time></trkpt><trkpt lat="45.8782535" lon="11.7969098"><ele>1631.2</ele><time>2026-04-06T13:20:57.458Z</time></trkpt><trkpt lat="45.8783521" lon="11.7968516"><ele>1634.0</ele><time>2026-04-06T13:20:58.457Z</time></trkpt><trkpt lat="45.8784532" lon="11.7967535"><ele>1634.0</ele><time>2026-04-06T13:20:59.441Z</time></trkpt><trkpt lat="45.8785626" lon="11.7966477"><ele>1634.0</ele><time>2026-04-06T13:21:00.449Z</time></trkpt><trkpt lat="45.878675" lon="11.7965235"><ele>1634.0</ele><time>2026-04-06T13:21:01.447Z</time></trkpt><trkpt lat="45.8787776" lon="11.7964074"><ele>1634.0</ele><time>2026-04-06T13:21:02.452Z</time></trkpt><trkpt lat="45.878869" lon="11.7963101"><ele>1634.0</ele><time>2026-04-06T13:21:03.449Z</time></trkpt><trkpt lat="45.8789592" lon="11.7962368"><ele>1634.0</ele><time>2026-04-06T13:21:04.45Z</time></trkpt><trkpt lat="45.8790461" lon="11.7961706"><ele>1634.0</ele><time>2026-04-06T13:21:05.452Z</time></trkpt><trkpt lat="45.8791234" lon="11.796116"><ele>1634.0</ele><time>2026-04-06T13:21:06.45Z</time></trkpt><trkpt lat="45.8791925" lon="11.7960433"><ele>1634.0</ele><time>2026-04-06T13:21:07.438Z</time></trkpt><trkpt lat="45.8792458" lon="11.7959391"><ele>1633.3333333333333</ele><time>2026-04-06T13:21:08.441Z</time></trkpt><trkpt lat="45.8792793" lon="11.7958137"><ele>1632.6666666666665</ele><time>2026-04-06T13:21:09.447Z</time></trkpt><trkpt lat="45.8792853" lon="11.7956775"><ele>1632.0</ele><time>2026-04-06T13:21:10.444Z</time></trkpt><trkpt lat="45.8792798" lon="11.7955547"><ele>1631.3333333333335</ele><time>2026-04-06T13:21:11.443Z</time></trkpt><trkpt lat="45.8792712" lon="11.7954424"><ele>1630.6666666666667</ele><time>2026-04-06T13:21:12.455Z</time></trkpt><trkpt lat="45.8792729" lon="11.7953366"><ele>1630.0</ele><time>2026-04-06T13:21:13.451Z</time></trkpt><trkpt lat="45.8792935" lon="11.7952297"><ele>1627.8333333333335</ele><time>2026-04-06T13:21:14.448Z</time></trkpt><trkpt lat="45.8793385" lon="11.7951261"><ele>1625.6666666666667</ele><time>2026-04-06T13:21:15.446Z</time></trkpt><trkpt lat="45.8794035" lon="11.7950316"><ele>1623.5</ele><time>2026-04-06T13:21:16.453Z</time></trkpt><trkpt lat="45.8794804" lon="11.7949434"><ele>1621.3333333333335</ele><time>2026-04-06T13:21:17.457Z</time></trkpt><trkpt lat="45.8795505" lon="11.7948652"><ele>1619.1666666666667</ele><time>2026-04-06T13:21:18.446Z</time></trkpt><trkpt lat="45.8796001" lon="11.794809"><ele>1617.0</ele><time>2026-04-06T13:21:19.453Z</time></trkpt><trkpt lat="45.8796301" lon="11.7947257"><ele>1617.0</ele><time>2026-04-06T13:21:21.45Z</time></trkpt><trkpt lat="45.8795579" lon="11.7947199"><ele>1617.0</ele><time>2026-04-06T13:21:27.48Z</time></trkpt><trkpt lat="45.8795052" lon="11.7948635"><ele>1617.0</ele><time>2026-04-06T13:27:45.445Z</time></trkpt><trkpt lat="45.8794076" lon="11.7949736"><ele>1617.0</ele><time>2026-04-06T13:27:47.461Z</time></trkpt><trkpt lat="45.8793585" lon="11.795036"><ele>1617.0</ele><time>2026-04-06T13:27:48.447Z</time></trkpt><trkpt lat="45.8793134" lon="11.7951244"><ele>1617.0</ele><time>2026-04-06T13:27:49.444Z</time></trkpt><trkpt lat="45.8792854" lon="11.7952273"><ele>1617.0</ele><time>2026-04-06T13:27:50.451Z</time></trkpt><trkpt lat="45.8792782" lon="11.7953448"><ele>1617.0</ele><time>2026-04-06T13:27:51.452Z</time></trkpt><trkpt lat="45.8792836" lon="11.795472"><ele>1617.0</ele><time>2026-04-06T13:27:52.467Z</time></trkpt><trkpt lat="45.8792927" lon="11.7956087"><ele>1617.0</ele><time>2026-04-06T13:27:53.452Z</time></trkpt><trkpt lat="45.8792891" lon="11.7957327"><ele>1617.0</ele><time>2026-04-06T13:27:54.455Z</time></trkpt><trkpt lat="45.8792635" lon="11.7958546"><ele>1617.0</ele><time>2026-04-06T13:27:55.453Z</time></trkpt><trkpt lat="45.8792088" lon="11.7959626"><ele>1617.0</ele><time>2026-04-06T13:27:56.454Z</time></trkpt><trkpt lat="45.8791295" lon="11.7960441"><ele>1617.0</ele><time>2026-04-06T13:27:57.448Z</time></trkpt><trkpt lat="45.8790311" lon="11.796113"><ele>1617.0</ele><time>2026-04-06T13:27:58.448Z</time></trkpt><trkpt lat="45.8789309" lon="11.7961922"><ele>1617.0</ele><time>2026-04-06T13:27:59.434Z</time></trkpt><trkpt lat="45.8788224" lon="11.7962802"><ele>1617.75</ele><time>2026-04-06T13:28:00.452Z</time></trkpt><trkpt lat="45.8787121" lon="11.7964041"><ele>1618.5</ele><time>2026-04-06T13:28:01.439Z</time></trkpt><trkpt lat="45.8785978" lon="11.7965252"><ele>1619.25</ele><time>2026-04-06T13:28:02.446Z</time></trkpt><trkpt lat="45.8784895" lon="11.7966398"><ele>1620.0</ele><time>2026-04-06T13:28:03.452Z</time></trkpt><trkpt lat="45.8783941" lon="11.7967408"><ele>1620.0</ele><time>2026-04-06T13:28:04.457Z</time></trkpt><trkpt lat="45.8783102" lon="11.7968155"><ele>1620.0</ele><time>2026-04-06T13:28:05.451Z</time></trkpt><trkpt lat="45.8782253" lon="11.7968562"><ele>1620.0</ele><time>2026-04-06T13:28:06.453Z</time></trkpt><trkpt lat="45.8781365" lon="11.7968492"><ele>1620.0</ele><time>2026-04-06T13:28:07.443Z</time></trkpt><trkpt lat="45.8780464" lon="11.796796"><ele>1620.0</ele><time>2026-04-06T13:28:08.452Z</time></trkpt><trkpt lat="45.8779582" lon="11.7967109"><ele>1620.0</ele><time>2026-04-06T13:28:09.448Z</time></trkpt><trkpt lat="45.8778704" lon="11.7966149"><ele>1620.0</ele><time>2026-04-06T13:28:10.452Z</time></trkpt><trkpt lat="45.8777831" lon="11.7965368"><ele>1620.0</ele><time>2026-04-06T13:28:11.46Z</time></trkpt><trkpt lat="45.8776953" lon="11.7964911"><ele>1620.0</ele><time>2026-04-06T13:28:12.444Z</time></trkpt><trkpt lat="45.8775972" lon="11.7964782"><ele>1620.0</ele><time>2026-04-06T13:28:13.448Z</time></trkpt><trkpt lat="45.877493" lon="11.7965025"><ele>1618.5</ele><time>2026-04-06T13:28:14.437Z</time></trkpt><trkpt lat="45.8773816" lon="11.7965515"><ele>1617.0</ele><time>2026-04-06T13:28:15.44Z</time></trkpt><trkpt lat="45.8772648" lon="11.7966117"><ele>1615.5</ele><time>2026-04-06T13:28:16.447Z</time></trkpt><trkpt lat="45.8771443" lon="11.7966875"><ele>1614.0</ele><time>2026-04-06T13:28:17.462Z</time></trkpt><trkpt lat="45.8770244" lon="11.7967776"><ele>1617.75</ele><time>2026-04-06T13:28:18.454Z</time></trkpt><trkpt lat="45.8769047" lon="11.796877"><ele>1621.5</ele><time>2026-04-06T13:28:19.438Z</time></trkpt><trkpt lat="45.8767829" lon="11.7969731"><ele>1625.25</ele><time>2026-04-06T13:28:20.451Z</time></trkpt><trkpt lat="45.8766645" lon="11.7970644"><ele>1629.0</ele><time>2026-04-06T13:28:21.45Z</time></trkpt><trkpt lat="45.8765541" lon="11.7971509"><ele>1629.0</ele><time>2026-04-06T13:28:22.448Z</time></trkpt><trkpt lat="45.8764496" lon="11.7972326"><ele>1629.0</ele><time>2026-04-06T13:28:23.449Z</time></trkpt><trkpt lat="45.8763494" lon="11.7973113"><ele>1629.0</ele><time>2026-04-06T13:28:24.452Z</time></trkpt><trkpt lat="45.8762569" lon="11.7973798"><ele>1629.0</ele><time>2026-04-06T13:28:25.455Z</time></trkpt><trkpt lat="45.876166" lon="11.7974372"><ele>1629.0</ele><time>2026-04-06T13:28:26.438Z</time></trkpt><trkpt lat="45.8760826" lon="11.7974516"><ele>1629.0</ele><time>2026-04-06T13:28:27.447Z</time></trkpt><trkpt lat="45.8760049" lon="11.7974548"><ele>1629.0</ele><time>2026-04-06T13:28:28.443Z</time></trkpt><trkpt lat="45.8759025" lon="11.7974231"><ele>1629.0</ele><time>2026-04-06T13:28:29.444Z</time></trkpt><trkpt lat="45.8758197" lon="11.7973046"><ele>1629.0</ele><time>2026-04-06T13:28:30.445Z</time></trkpt><trkpt lat="45.8757444" lon="11.7971418"><ele>1629.0</ele><time>2026-04-06T13:28:31.437Z</time></trkpt><trkpt lat="45.8756644" lon="11.7969797"><ele>1622.0</ele><time>2026-04-06T13:28:32.444Z</time></trkpt><trkpt lat="45.875603" lon="11.7968264"><ele>1615.0</ele><time>2026-04-06T13:28:33.45Z</time></trkpt><trkpt lat="45.8755338" lon="11.7966903"><ele>1608.0</ele><time>2026-04-06T13:28:34.443Z</time></trkpt><trkpt lat="45.875442" lon="11.7965947"><ele>1601.0</ele><time>2026-04-06T13:28:35.442Z</time></trkpt><trkpt lat="45.8753288" lon="11.7965139"><ele>1601.0</ele><time>2026-04-06T13:28:36.455Z</time></trkpt><trkpt lat="45.8752084" lon="11.7964587"><ele>1601.0</ele><time>2026-04-06T13:28:37.454Z</time></trkpt><trkpt lat="45.8750915" lon="11.7964016"><ele>1601.0</ele><time>2026-04-06T13:28:38.442Z</time></trkpt><trkpt lat="45.8749869" lon="11.7963212"><ele>1601.0</ele><time>2026-04-06T13:28:39.454Z</time></trkpt><trkpt lat="45.874893" lon="11.7962212"><ele>1602.0</ele><time>2026-04-06T13:28:40.448Z</time></trkpt><trkpt lat="45.8748065" lon="11.7961158"><ele>1603.0</ele><time>2026-04-06T13:28:41.446Z</time></trkpt><trkpt lat="45.8747176" lon="11.7960098"><ele>1604.0</ele><time>2026-04-06T13:28:42.454Z</time></trkpt><trkpt lat="45.8746339" lon="11.7958995"><ele>1605.0</ele><time>2026-04-06T13:28:43.454Z</time></trkpt><trkpt lat="45.8745475" lon="11.795798"><ele>1605.0</ele><time>2026-04-06T13:28:44.442Z</time></trkpt><trkpt lat="45.8744603" lon="11.7957028"><ele>1605.0</ele><time>2026-04-06T13:28:45.443Z</time></trkpt><trkpt lat="45.8743746" lon="11.7955989"><ele>1605.0</ele><time>2026-04-06T13:28:46.452Z</time></trkpt><trkpt lat="45.8742928" lon="11.7954927"><ele>1605.0</ele><time>2026-04-06T13:28:47.461Z</time></trkpt><trkpt lat="45.8742138" lon="11.7953809"><ele>1605.0</ele><time>2026-04-06T13:28:48.449Z</time></trkpt><trkpt lat="45.8741374" lon="11.795266"><ele>1606.0</ele><time>2026-04-06T13:28:49.47Z</time></trkpt><trkpt lat="45.8740606" lon="11.7951474"><ele>1607.0</ele><time>2026-04-06T13:28:50.456Z</time></trkpt><trkpt lat="45.8739812" lon="11.7950339"><ele>1608.0</ele><time>2026-04-06T13:28:51.469Z</time></trkpt><trkpt lat="45.8739103" lon="11.7949269"><ele>1609.0</ele><time>2026-04-06T13:28:52.451Z</time></trkpt><trkpt lat="45.8738468" lon="11.7948227"><ele>1610.0</ele><time>2026-04-06T13:28:53.444Z</time></trkpt><trkpt lat="45.8737974" lon="11.7947085"><ele>1610.0</ele><time>2026-04-06T13:28:54.45Z</time></trkpt><trkpt lat="45.8737755" lon="11.7945784"><ele>1610.0</ele><time>2026-04-06T13:28:55.448Z</time></trkpt><trkpt lat="45.873786" lon="11.7944419"><ele>1610.0</ele><time>2026-04-06T13:28:56.433Z</time></trkpt><trkpt lat="45.8738199" lon="11.7943061"><ele>1610.0</ele><time>2026-04-06T13:28:57.458Z</time></trkpt><trkpt lat="45.8738587" lon="11.7941723"><ele>1610.0</ele><time>2026-04-06T13:28:58.445Z</time></trkpt><trkpt lat="45.8738912" lon="11.7940419"><ele>1608.2</ele><time>2026-04-06T13:28:59.44Z</time></trkpt><trkpt lat="45.873912" lon="11.793913"><ele>1606.4</ele><time>2026-04-06T13:29:00.442Z</time></trkpt><trkpt lat="45.8739186" lon="11.7937851"><ele>1604.6</ele><time>2026-04-06T13:29:01.433Z</time></trkpt><trkpt lat="45.8739142" lon="11.793655"><ele>1602.8</ele><time>2026-04-06T13:29:02.454Z</time></trkpt><trkpt lat="45.8738965" lon="11.7935263"><ele>1601.0</ele><time>2026-04-06T13:29:03.434Z</time></trkpt><trkpt lat="45.8738619" lon="11.7934057"><ele>1600.6</ele><time>2026-04-06T13:29:04.446Z</time></trkpt><trkpt lat="45.8738127" lon="11.7932931"><ele>1600.1999999999998</ele><time>2026-04-06T13:29:05.44Z</time></trkpt><trkpt lat="45.8737533" lon="11.7931846"><ele>1599.8000000000002</ele><time>2026-04-06T13:29:06.455Z</time></trkpt><trkpt lat="45.8736947" lon="11.7930726"><ele>1599.4</ele><time>2026-04-06T13:29:07.444Z</time></trkpt><trkpt lat="45.8736423" lon="11.7929513"><ele>1599.0</ele><time>2026-04-06T13:29:08.442Z</time></trkpt><trkpt lat="45.8735976" lon="11.7928183"><ele>1599.0</ele><time>2026-04-06T13:29:09.454Z</time></trkpt><trkpt lat="45.8735592" lon="11.7926754"><ele>1599.0</ele><time>2026-04-06T13:29:10.446Z</time></trkpt><trkpt lat="45.873522" lon="11.792529"><ele>1599.0</ele><time>2026-04-06T13:29:11.451Z</time></trkpt><trkpt lat="45.8734762" lon="11.7923823"><ele>1599.0</ele><time>2026-04-06T13:29:12.444Z</time></trkpt><trkpt lat="45.8734251" lon="11.7922356"><ele>1599.0</ele><time>2026-04-06T13:29:13.45Z</time></trkpt><trkpt lat="45.8733699" lon="11.7920853"><ele>1601.0</ele><time>2026-04-06T13:29:14.44Z</time></trkpt><trkpt lat="45.8733123" lon="11.7919329"><ele>1603.0</ele><time>2026-04-06T13:29:15.442Z</time></trkpt><trkpt lat="45.8732603" lon="11.7917831"><ele>1605.0</ele><time>2026-04-06T13:29:16.448Z</time></trkpt><trkpt lat="45.8732082" lon="11.7916355"><ele>1607.0</ele><time>2026-04-06T13:29:17.441Z</time></trkpt><trkpt lat="45.8731512" lon="11.7915005"><ele>1603.1999999999998</ele><time>2026-04-06T13:29:18.447Z</time></trkpt><trkpt lat="45.8730836" lon="11.7913826"><ele>1599.4</ele><time>2026-04-06T13:29:19.453Z</time></trkpt><trkpt lat="45.8730039" lon="11.7912755"><ele>1595.6</ele><time>2026-04-06T13:29:20.451Z</time></trkpt><trkpt lat="45.8729156" lon="11.7911728"><ele>1591.8000000000002</ele><time>2026-04-06T13:29:21.447Z</time></trkpt><trkpt lat="45.8728252" lon="11.7910791"><ele>1588.0</ele><time>2026-04-06T13:29:22.438Z</time></trkpt><trkpt lat="45.8727383" lon="11.7909922"><ele>1588.1666666666667</ele><time>2026-04-06T13:29:23.444Z</time></trkpt><trkpt lat="45.8726534" lon="11.7909117"><ele>1588.3333333333335</ele><time>2026-04-06T13:29:24.439Z</time></trkpt><trkpt lat="45.8725735" lon="11.7908379"><ele>1588.5</ele><time>2026-04-06T13:29:25.451Z</time></trkpt><trkpt lat="45.8724964" lon="11.7907704"><ele>1588.6666666666665</ele><time>2026-04-06T13:29:26.435Z</time></trkpt><trkpt lat="45.872428" lon="11.7907014"><ele>1588.8333333333333</ele><time>2026-04-06T13:29:27.451Z</time></trkpt><trkpt lat="45.8723764" lon="11.7906205"><ele>1589.0</ele><time>2026-04-06T13:29:28.44Z</time></trkpt><trkpt lat="45.8723459" lon="11.7905231"><ele>1589.0</ele><time>2026-04-06T13:29:29.451Z</time></trkpt><trkpt lat="45.872338" lon="11.7904162"><ele>1589.0</ele><time>2026-04-06T13:29:30.433Z</time></trkpt><trkpt lat="45.8723545" lon="11.7903119"><ele>1589.0</ele><time>2026-04-06T13:29:31.44Z</time></trkpt><trkpt lat="45.8723831" lon="11.7902191"><ele>1589.0</ele><time>2026-04-06T13:29:32.461Z</time></trkpt><trkpt lat="45.8724162" lon="11.7901291"><ele>1589.0</ele><time>2026-04-06T13:29:33.448Z</time></trkpt><trkpt lat="45.8724512" lon="11.7900324"><ele>1589.0</ele><time>2026-04-06T13:29:34.456Z</time></trkpt><trkpt lat="45.8724894" lon="11.7899273"><ele>1589.0</ele><time>2026-04-06T13:29:35.446Z</time></trkpt><trkpt lat="45.8725309" lon="11.7898135"><ele>1587.6</ele><time>2026-04-06T13:29:36.447Z</time></trkpt><trkpt lat="45.8725759" lon="11.7896902"><ele>1586.2</ele><time>2026-04-06T13:29:37.451Z</time></trkpt><trkpt lat="45.8726237" lon="11.7895604"><ele>1584.8</ele><time>2026-04-06T13:29:38.433Z</time></trkpt><trkpt lat="45.8726683" lon="11.7894302"><ele>1583.3999999999999</ele><time>2026-04-06T13:29:39.45Z</time></trkpt><trkpt lat="45.8727053" lon="11.7893018"><ele>1582.0</ele><time>2026-04-06T13:29:40.452Z</time></trkpt><trkpt lat="45.8727356" lon="11.7891696"><ele>1575.0</ele><time>2026-04-06T13:29:41.449Z</time></trkpt><trkpt lat="45.8727599" lon="11.7890331"><ele>1568.0</ele><time>2026-04-06T13:29:42.438Z</time></trkpt><trkpt lat="45.8727783" lon="11.7888981"><ele>1561.0</ele><time>2026-04-06T13:29:43.45Z</time></trkpt><trkpt lat="45.872789" lon="11.7887577"><ele>1554.0</ele><time>2026-04-06T13:29:44.443Z</time></trkpt><trkpt lat="45.8727886" lon="11.788615"><ele>1547.0</ele><time>2026-04-06T13:29:45.449Z</time></trkpt><trkpt lat="45.8727755" lon="11.7884771"><ele>1546.0</ele><time>2026-04-06T13:29:46.44Z</time></trkpt><trkpt lat="45.872753" lon="11.788344"><ele>1545.0</ele><time>2026-04-06T13:29:47.458Z</time></trkpt><trkpt lat="45.8727209" lon="11.7882155"><ele>1544.0</ele><time>2026-04-06T13:29:48.448Z</time></trkpt><trkpt lat="45.8726826" lon="11.7880889"><ele>1543.0</ele><time>2026-04-06T13:29:49.451Z</time></trkpt><trkpt lat="45.8726483" lon="11.7879578"><ele>1542.0</ele><time>2026-04-06T13:29:50.445Z</time></trkpt><trkpt lat="45.8726267" lon="11.7878194"><ele>1540.0</ele><time>2026-04-06T13:29:51.452Z</time></trkpt><trkpt lat="45.8726152" lon="11.7876763"><ele>1538.0</ele><time>2026-04-06T13:29:52.445Z</time></trkpt><trkpt lat="45.8726063" lon="11.7875225"><ele>1536.0</ele><time>2026-04-06T13:29:53.436Z</time></trkpt><trkpt lat="45.8725903" lon="11.7873632"><ele>1534.0</ele><time>2026-04-06T13:29:54.456Z</time></trkpt><trkpt lat="45.8725642" lon="11.7871994"><ele>1532.0</ele><time>2026-04-06T13:29:55.453Z</time></trkpt><trkpt lat="45.8725326" lon="11.7870305"><ele>1539.5</ele><time>2026-04-06T13:29:56.452Z</time></trkpt><trkpt lat="45.8724964" lon="11.7868573"><ele>1547.0</ele><time>2026-04-06T13:29:57.438Z</time></trkpt><trkpt lat="45.8724565" lon="11.7866841"><ele>1554.5</ele><time>2026-04-06T13:29:58.453Z</time></trkpt><trkpt lat="45.8724145" lon="11.7865198"><ele>1562.0</ele><time>2026-04-06T13:29:59.456Z</time></trkpt><trkpt lat="45.8723651" lon="11.7863618"><ele>1562.0</ele><time>2026-04-06T13:30:00.451Z</time></trkpt><trkpt lat="45.8723049" lon="11.7862115"><ele>1562.0</ele><time>2026-04-06T13:30:01.453Z</time></trkpt><trkpt lat="45.8722393" lon="11.7860744"><ele>1562.0</ele><time>2026-04-06T13:30:02.449Z</time></trkpt><trkpt lat="45.872172" lon="11.7859486"><ele>1562.0</ele><time>2026-04-06T13:30:03.447Z</time></trkpt><trkpt lat="45.8720996" lon="11.7858371"><ele>1563.1999999999998</ele><time>2026-04-06T13:30:04.447Z</time></trkpt><trkpt lat="45.872023" lon="11.7857423"><ele>1564.4</ele><time>2026-04-06T13:30:05.445Z</time></trkpt><trkpt lat="45.8719387" lon="11.7856605"><ele>1565.6</ele><time>2026-04-06T13:30:06.452Z</time></trkpt><trkpt lat="45.8718439" lon="11.785596"><ele>1566.8000000000002</ele><time>2026-04-06T13:30:07.452Z</time></trkpt><trkpt lat="45.871741" lon="11.7855458"><ele>1568.0</ele><time>2026-04-06T13:30:08.446Z</time></trkpt><trkpt lat="45.8716351" lon="11.7855056"><ele>1568.0</ele><time>2026-04-06T13:30:09.454Z</time></trkpt><trkpt lat="45.8715286" lon="11.7854695"><ele>1568.0</ele><time>2026-04-06T13:30:10.45Z</time></trkpt><trkpt lat="45.8714216" lon="11.7854367"><ele>1568.0</ele><time>2026-04-06T13:30:11.448Z</time></trkpt><trkpt lat="45.8713132" lon="11.7854115"><ele>1568.0</ele><time>2026-04-06T13:30:12.455Z</time></trkpt><trkpt lat="45.8712016" lon="11.7853991"><ele>1568.0</ele><time>2026-04-06T13:30:13.462Z</time></trkpt><trkpt lat="45.8710863" lon="11.7854006"><ele>1568.0</ele><time>2026-04-06T13:30:14.439Z</time></trkpt><trkpt lat="45.8709678" lon="11.7854115"><ele>1568.0</ele><time>2026-04-06T13:30:15.455Z</time></trkpt><trkpt lat="45.8708501" lon="11.7854213"><ele>1568.0</ele><time>2026-04-06T13:30:16.452Z</time></trkpt><trkpt lat="45.8707293" lon="11.7854279"><ele>1568.0</ele><time>2026-04-06T13:30:17.443Z</time></trkpt><trkpt lat="45.8706057" lon="11.7854322"><ele>1567.0</ele><time>2026-04-06T13:30:18.443Z</time></trkpt><trkpt lat="45.8704805" lon="11.7854347"><ele>1566.0</ele><time>2026-04-06T13:30:19.454Z</time></trkpt><trkpt lat="45.8703562" lon="11.785428"><ele>1565.0</ele><time>2026-04-06T13:30:20.442Z</time></trkpt><trkpt lat="45.8702344" lon="11.785414"><ele>1564.0</ele><time>2026-04-06T13:30:21.455Z</time></trkpt><trkpt lat="45.8701187" lon="11.7853975"><ele>1561.8000000000002</ele><time>2026-04-06T13:30:22.454Z</time></trkpt><trkpt lat="45.8700087" lon="11.7853797"><ele>1559.6000000000001</ele><time>2026-04-06T13:30:23.45Z</time></trkpt><trkpt lat="45.8699048" lon="11.7853596"><ele>1557.4</ele><time>2026-04-06T13:30:24.46Z</time></trkpt><trkpt lat="45.8698056" lon="11.7853378"><ele>1555.2</ele><time>2026-04-06T13:30:25.443Z</time></trkpt><trkpt lat="45.8697096" lon="11.7853172"><ele>1553.0</ele><time>2026-04-06T13:30:26.455Z</time></trkpt><trkpt lat="45.8696149" lon="11.7853099"><ele>1553.0</ele><time>2026-04-06T13:30:27.461Z</time></trkpt><trkpt lat="45.8695295" lon="11.7853266"><ele>1553.0</ele><time>2026-04-06T13:30:28.443Z</time></trkpt><trkpt lat="45.8694491" lon="11.7853453"><ele>1553.0</ele><time>2026-04-06T13:30:29.448Z</time></trkpt><trkpt lat="45.8693893" lon="11.785408"><ele>1553.0</ele><time>2026-04-06T13:30:30.453Z</time></trkpt><trkpt lat="45.8693392" lon="11.7854776"><ele>1553.0</ele><time>2026-04-06T13:30:31.444Z</time></trkpt><trkpt lat="45.8692976" lon="11.7855498"><ele>1553.0</ele><time>2026-04-06T13:30:32.442Z</time></trkpt><trkpt lat="45.8692649" lon="11.7856274"><ele>1553.0</ele><time>2026-04-06T13:30:33.441Z</time></trkpt><trkpt lat="45.8692447" lon="11.7857143"><ele>1554.4</ele><time>2026-04-06T13:30:34.449Z</time></trkpt><trkpt lat="45.869245" lon="11.7858259"><ele>1555.8000000000002</ele><time>2026-04-06T13:30:35.453Z</time></trkpt><trkpt lat="45.8692658" lon="11.7859561"><ele>1557.2</ele><time>2026-04-06T13:30:36.456Z</time></trkpt><trkpt lat="45.8692997" lon="11.7860877"><ele>1558.6</ele><time>2026-04-06T13:30:37.459Z</time></trkpt><trkpt lat="45.8693335" lon="11.7862228"><ele>1560.0</ele><time>2026-04-06T13:30:38.455Z</time></trkpt><trkpt lat="45.8693601" lon="11.786359"><ele>1560.0</ele><time>2026-04-06T13:30:39.45Z</time></trkpt><trkpt lat="45.8693788" lon="11.7864961"><ele>1560.0</ele><time>2026-04-06T13:30:40.455Z</time></trkpt><trkpt lat="45.8693966" lon="11.7866343"><ele>1560.0</ele><time>2026-04-06T13:30:41.452Z</time></trkpt><trkpt lat="45.8694162" lon="11.7867692"><ele>1560.0</ele><time>2026-04-06T13:30:42.457Z</time></trkpt><trkpt lat="45.8694413" lon="11.7868978"><ele>1560.0</ele><time>2026-04-06T13:30:43.45Z</time></trkpt><trkpt lat="45.869468" lon="11.7870143"><ele>1560.2857142857142</ele><time>2026-04-06T13:30:44.458Z</time></trkpt><trkpt lat="45.869493" lon="11.7871224"><ele>1560.5714285714284</ele><time>2026-04-06T13:30:45.441Z</time></trkpt><trkpt lat="45.8695103" lon="11.7872295"><ele>1560.857142857143</ele><time>2026-04-06T13:30:46.44Z</time></trkpt><trkpt lat="45.8695073" lon="11.7873345"><ele>1561.142857142857</ele><time>2026-04-06T13:30:47.451Z</time></trkpt><trkpt lat="45.8695016" lon="11.7874372"><ele>1561.4285714285716</ele><time>2026-04-06T13:30:48.452Z</time></trkpt><trkpt lat="45.8694534" lon="11.7875196"><ele>1561.7142857142858</ele><time>2026-04-06T13:30:49.449Z</time></trkpt><trkpt lat="45.8694158" lon="11.7876102"><ele>1562.0</ele><time>2026-04-06T13:30:50.45Z</time></trkpt><trkpt lat="45.8693964" lon="11.7877076"><ele>1562.9999999999998</ele><time>2026-04-06T13:30:51.448Z</time></trkpt><trkpt lat="45.8693769" lon="11.7878059"><ele>1564.0</ele><time>2026-04-06T13:30:52.447Z</time></trkpt><trkpt lat="45.8693659" lon="11.7879007"><ele>1565.0</ele><time>2026-04-06T13:30:53.45Z</time></trkpt><trkpt lat="45.8693558" lon="11.7879967"><ele>1566.0</ele><time>2026-04-06T13:30:54.445Z</time></trkpt><trkpt lat="45.8693493" lon="11.788091"><ele>1566.9999999999998</ele><time>2026-04-06T13:30:55.441Z</time></trkpt><trkpt lat="45.8693444" lon="11.7881849"><ele>1568.0</ele><time>2026-04-06T13:30:56.455Z</time></trkpt><trkpt lat="45.8693325" lon="11.7883632"><ele>1568.5</ele><time>2026-04-06T13:30:58.462Z</time></trkpt><trkpt lat="45.8693206" lon="11.7885316"><ele>1569.0</ele><time>2026-04-06T13:31:00.469Z</time></trkpt><trkpt lat="45.8692986" lon="11.7886972"><ele>1569.5</ele><time>2026-04-06T13:31:02.452Z</time></trkpt><trkpt lat="45.8692408" lon="11.7888414"><ele>1570.0</ele><time>2026-04-06T13:31:04.449Z</time></trkpt><trkpt lat="45.8691322" lon="11.7889197"><ele>1560.75</ele><time>2026-04-06T13:31:06.441Z</time></trkpt><trkpt lat="45.8690082" lon="11.7889309"><ele>1551.5</ele><time>2026-04-06T13:31:08.44Z</time></trkpt><trkpt lat="45.868889" lon="11.7889293"><ele>1542.25</ele><time>2026-04-06T13:31:10.451Z</time></trkpt><trkpt lat="45.8687809" lon="11.7889392"><ele>1533.0</ele><time>2026-04-06T13:31:12.447Z</time></trkpt><trkpt lat="45.868674" lon="11.7889797"><ele>1533.0</ele><time>2026-04-06T13:31:14.447Z</time></trkpt><trkpt lat="45.8685696" lon="11.7890086"><ele>1533.0</ele><time>2026-04-06T13:31:16.437Z</time></trkpt><trkpt lat="45.8684771" lon="11.7889521"><ele>1533.0</ele><time>2026-04-06T13:31:18.453Z</time></trkpt><trkpt lat="45.8685053" lon="11.7888281"><ele>1533.0</ele><time>2026-04-06T13:31:20.451Z</time></trkpt><trkpt lat="45.8685819" lon="11.7887548"><ele>1533.0</ele><time>2026-04-06T13:31:22.447Z</time></trkpt><trkpt lat="45.8686815" lon="11.7887482"><ele>1533.0</ele><time>2026-04-06T13:31:24.444Z</time></trkpt><trkpt lat="45.8687627" lon="11.7887532"><ele>1533.0</ele><time>2026-04-06T13:31:26.449Z</time></trkpt><trkpt lat="45.8688288" lon="11.7887522"><ele>1533.0</ele><time>2026-04-06T13:31:29.442Z</time></trkpt><trkpt lat="45.8688971" lon="11.7887365"><ele>1533.0</ele><time>2026-04-06T13:31:32.446Z</time></trkpt><trkpt lat="45.8689978" lon="11.7886874"><ele>1533.0</ele><time>2026-04-06T13:31:34.452Z</time></trkpt><trkpt lat="45.8690485" lon="11.7886113"><ele>1533.0</ele><time>2026-04-06T13:31:35.432Z</time></trkpt><trkpt lat="45.869078" lon="11.7885251"><ele>1531.4</ele><time>2026-04-06T13:31:36.438Z</time></trkpt><trkpt lat="45.8690892" lon="11.7883501"><ele>1529.8000000000002</ele><time>2026-04-06T13:31:38.438Z</time></trkpt><trkpt lat="45.8690681" lon="11.78826"><ele>1528.2</ele><time>2026-04-06T13:31:39.445Z</time></trkpt><trkpt lat="45.8690226" lon="11.7881756"><ele>1526.6</ele><time>2026-04-06T13:31:40.449Z</time></trkpt><trkpt lat="45.8689547" lon="11.7880892"><ele>1525.0</ele><time>2026-04-06T13:31:41.443Z</time></trkpt><trkpt lat="45.8688825" lon="11.7879943"><ele>1525.0</ele><time>2026-04-06T13:31:42.447Z</time></trkpt><trkpt lat="45.8688016" lon="11.7878893"><ele>1525.0</ele><time>2026-04-06T13:31:43.45Z</time></trkpt><trkpt lat="45.8687221" lon="11.7877743"><ele>1525.0</ele><time>2026-04-06T13:31:44.449Z</time></trkpt><trkpt lat="45.8686479" lon="11.7876543"><ele>1525.0</ele><time>2026-04-06T13:31:45.454Z</time></trkpt><trkpt lat="45.8685688" lon="11.7875413"><ele>1525.0</ele><time>2026-04-06T13:31:46.441Z</time></trkpt><trkpt lat="45.8684685" lon="11.7874512"><ele>1519.75</ele><time>2026-04-06T13:31:47.455Z</time></trkpt><trkpt lat="45.8683627" lon="11.7874038"><ele>1514.5</ele><time>2026-04-06T13:31:48.439Z</time></trkpt><trkpt lat="45.8682521" lon="11.7873811"><ele>1509.25</ele><time>2026-04-06T13:31:49.449Z</time></trkpt><trkpt lat="45.8681371" lon="11.787364"><ele>1504.0</ele><time>2026-04-06T13:31:50.446Z</time></trkpt><trkpt lat="45.8680212" lon="11.7873518"><ele>1504.0</ele><time>2026-04-06T13:31:51.445Z</time></trkpt><trkpt lat="45.8679083" lon="11.7873415"><ele>1504.0</ele><time>2026-04-06T13:31:52.442Z</time></trkpt><trkpt lat="45.8677996" lon="11.787328"><ele>1504.0</ele><time>2026-04-06T13:31:53.439Z</time></trkpt><trkpt lat="45.8676934" lon="11.7873136"><ele>1504.0</ele><time>2026-04-06T13:31:54.446Z</time></trkpt><trkpt lat="45.8675963" lon="11.7872984"><ele>1504.0</ele><time>2026-04-06T13:31:55.462Z</time></trkpt><trkpt lat="45.8675009" lon="11.7872694"><ele>1503.6666666666665</ele><time>2026-04-06T13:31:56.448Z</time></trkpt><trkpt lat="45.8674147" lon="11.7872147"><ele>1503.3333333333333</ele><time>2026-04-06T13:31:57.441Z</time></trkpt><trkpt lat="45.8673423" lon="11.7871328"><ele>1503.0</ele><time>2026-04-06T13:31:58.443Z</time></trkpt><trkpt lat="45.8672894" lon="11.7870285"><ele>1502.6666666666667</ele><time>2026-04-06T13:31:59.442Z</time></trkpt><trkpt lat="45.8672548" lon="11.7869172"><ele>1502.3333333333335</ele><time>2026-04-06T13:32:00.445Z</time></trkpt><trkpt lat="45.86723" lon="11.7868035"><ele>1502.0</ele><time>2026-04-06T13:32:01.446Z</time></trkpt><trkpt lat="45.8672098" lon="11.7866909"><ele>1502.0</ele><time>2026-04-06T13:32:02.447Z</time></trkpt><trkpt lat="45.8671947" lon="11.7865751"><ele>1502.0</ele><time>2026-04-06T13:32:03.444Z</time></trkpt><trkpt lat="45.8671928" lon="11.7864542"><ele>1502.0</ele><time>2026-04-06T13:32:04.44Z</time></trkpt><trkpt lat="45.867203" lon="11.7863311"><ele>1502.0</ele><time>2026-04-06T13:32:05.452Z</time></trkpt><trkpt lat="45.8672144" lon="11.7862144"><ele>1502.0</ele><time>2026-04-06T13:32:06.442Z</time></trkpt><trkpt lat="45.8672529" lon="11.7861068"><ele>1502.0</ele><time>2026-04-06T13:32:07.452Z</time></trkpt><trkpt lat="45.8673" lon="11.786001"><ele>1500.8333333333335</ele><time>2026-04-06T13:32:08.455Z</time></trkpt><trkpt lat="45.8673545" lon="11.7858978"><ele>1499.6666666666667</ele><time>2026-04-06T13:32:09.449Z</time></trkpt><trkpt lat="45.8674131" lon="11.7858021"><ele>1498.5</ele><time>2026-04-06T13:32:10.449Z</time></trkpt><trkpt lat="45.8674679" lon="11.785706"><ele>1497.3333333333333</ele><time>2026-04-06T13:32:11.444Z</time></trkpt><trkpt lat="45.8675093" lon="11.7855966"><ele>1496.1666666666665</ele><time>2026-04-06T13:32:12.438Z</time></trkpt><trkpt lat="45.8675359" lon="11.7854817"><ele>1495.0</ele><time>2026-04-06T13:32:13.441Z</time></trkpt><trkpt lat="45.8675462" lon="11.7853613"><ele>1495.0</ele><time>2026-04-06T13:32:14.448Z</time></trkpt><trkpt lat="45.8675444" lon="11.7852363"><ele>1495.0</ele><time>2026-04-06T13:32:15.442Z</time></trkpt><trkpt lat="45.8675417" lon="11.7851033"><ele>1495.0</ele><time>2026-04-06T13:32:16.449Z</time></trkpt><trkpt lat="45.8675376" lon="11.7849647"><ele>1495.0</ele><time>2026-04-06T13:32:17.453Z</time></trkpt><trkpt lat="45.8675316" lon="11.7848357"><ele>1495.0</ele><time>2026-04-06T13:32:18.437Z</time></trkpt><trkpt lat="45.8675251" lon="11.7847124"><ele>1495.5</ele><time>2026-04-06T13:32:19.444Z</time></trkpt><trkpt lat="45.8675216" lon="11.7845962"><ele>1496.0</ele><time>2026-04-06T13:32:20.457Z</time></trkpt><trkpt lat="45.867532" lon="11.7844917"><ele>1496.5</ele><time>2026-04-06T13:32:21.449Z</time></trkpt><trkpt lat="45.86756" lon="11.784388"><ele>1497.0</ele><time>2026-04-06T13:32:22.451Z</time></trkpt><trkpt lat="45.867609" lon="11.7842936"><ele>1497.5</ele><time>2026-04-06T13:32:23.448Z</time></trkpt><trkpt lat="45.8676726" lon="11.7842059"><ele>1498.0</ele><time>2026-04-06T13:32:24.439Z</time></trkpt><trkpt lat="45.8677377" lon="11.7841156"><ele>1498.0</ele><time>2026-04-06T13:32:25.439Z</time></trkpt><trkpt lat="45.8678008" lon="11.7840271"><ele>1498.0</ele><time>2026-04-06T13:32:26.452Z</time></trkpt><trkpt lat="45.8678306" lon="11.7839326"><ele>1498.0</ele><time>2026-04-06T13:32:27.46Z</time></trkpt><trkpt lat="45.8678552" lon="11.7838358"><ele>1498.0</ele><time>2026-04-06T13:32:28.439Z</time></trkpt><trkpt lat="45.8678164" lon="11.783734"><ele>1498.0</ele><time>2026-04-06T13:32:29.444Z</time></trkpt><trkpt lat="45.8677424" lon="11.7836432"><ele>1498.0</ele><time>2026-04-06T13:32:30.427Z</time></trkpt><trkpt lat="45.8676475" lon="11.783533"><ele>1492.25</ele><time>2026-04-06T13:32:31.437Z</time></trkpt><trkpt lat="45.8675429" lon="11.7834051"><ele>1486.5</ele><time>2026-04-06T13:32:32.436Z</time></trkpt><trkpt lat="45.8674315" lon="11.783267"><ele>1480.75</ele><time>2026-04-06T13:32:33.442Z</time></trkpt><trkpt lat="45.8673149" lon="11.7831326"><ele>1475.0</ele><time>2026-04-06T13:32:34.445Z</time></trkpt><trkpt lat="45.867199" lon="11.7830063"><ele>1475.0</ele><time>2026-04-06T13:32:35.459Z</time></trkpt><trkpt lat="45.8670845" lon="11.7828837"><ele>1475.0</ele><time>2026-04-06T13:32:36.458Z</time></trkpt><trkpt lat="45.8669726" lon="11.7827595"><ele>1475.0</ele><time>2026-04-06T13:32:37.443Z</time></trkpt><trkpt lat="45.866858" lon="11.7826421"><ele>1475.0</ele><time>2026-04-06T13:32:38.448Z</time></trkpt><trkpt lat="45.8667547" lon="11.7825223"><ele>1473.0</ele><time>2026-04-06T13:32:39.457Z</time></trkpt><trkpt lat="45.8666736" lon="11.7823957"><ele>1471.0</ele><time>2026-04-06T13:32:40.438Z</time></trkpt><trkpt lat="45.8666141" lon="11.7822628"><ele>1469.0</ele><time>2026-04-06T13:32:41.439Z</time></trkpt><trkpt lat="45.8665556" lon="11.7821296"><ele>1467.0</ele><time>2026-04-06T13:32:42.443Z</time></trkpt><trkpt lat="45.8665526" lon="11.7819793"><ele>1465.0</ele><time>2026-04-06T13:32:43.443Z</time></trkpt><trkpt lat="45.8665779" lon="11.7818254"><ele>1465.0</ele><time>2026-04-06T13:32:44.441Z</time></trkpt><trkpt lat="45.8666092" lon="11.7816785"><ele>1465.0</ele><time>2026-04-06T13:32:45.447Z</time></trkpt><trkpt lat="45.8666194" lon="11.781521"><ele>1465.0</ele><time>2026-04-06T13:32:46.453Z</time></trkpt><trkpt lat="45.8666005" lon="11.7813632"><ele>1465.0</ele><time>2026-04-06T13:32:47.454Z</time></trkpt><trkpt lat="45.8665811" lon="11.7812062"><ele>1465.0</ele><time>2026-04-06T13:32:48.452Z</time></trkpt><trkpt lat="45.8665344" lon="11.7810603"><ele>1465.0</ele><time>2026-04-06T13:32:49.433Z</time></trkpt><trkpt lat="45.8664974" lon="11.7809084"><ele>1465.0</ele><time>2026-04-06T13:32:50.451Z</time></trkpt><trkpt lat="45.8664737" lon="11.7807486"><ele>1465.0</ele><time>2026-04-06T13:32:51.448Z</time></trkpt><trkpt lat="45.8664527" lon="11.7805867"><ele>1465.0</ele><time>2026-04-06T13:32:52.442Z</time></trkpt><trkpt lat="45.8664317" lon="11.7804165"><ele>1465.0</ele><time>2026-04-06T13:32:53.454Z</time></trkpt><trkpt lat="45.8664101" lon="11.7802428"><ele>1465.0</ele><time>2026-04-06T13:32:54.442Z</time></trkpt><trkpt lat="45.8663905" lon="11.780083"><ele>1465.0</ele><time>2026-04-06T13:32:55.44Z</time></trkpt><trkpt lat="45.8663878" lon="11.7799261"><ele>1465.0</ele><time>2026-04-06T13:32:56.448Z</time></trkpt><trkpt lat="45.8664108" lon="11.779769"><ele>1464.5</ele><time>2026-04-06T13:32:57.454Z</time></trkpt><trkpt lat="45.8664575" lon="11.7796231"><ele>1464.0</ele><time>2026-04-06T13:32:58.438Z</time></trkpt><trkpt lat="45.8665062" lon="11.779476"><ele>1463.5</ele><time>2026-04-06T13:32:59.448Z</time></trkpt><trkpt lat="45.8665342" lon="11.7793179"><ele>1463.0</ele><time>2026-04-06T13:33:00.447Z</time></trkpt><trkpt lat="45.8665465" lon="11.779154"><ele>1460.75</ele><time>2026-04-06T13:33:01.452Z</time></trkpt><trkpt lat="45.8665523" lon="11.778988"><ele>1458.5</ele><time>2026-04-06T13:33:02.451Z</time></trkpt><trkpt lat="45.8665564" lon="11.7788197"><ele>1456.25</ele><time>2026-04-06T13:33:03.463Z</time></trkpt><trkpt lat="45.8665573" lon="11.7786512"><ele>1454.0</ele><time>2026-04-06T13:33:04.46Z</time></trkpt><trkpt lat="45.8665592" lon="11.7784826"><ele>1452.0</ele><time>2026-04-06T13:33:05.439Z</time></trkpt><trkpt lat="45.8665629" lon="11.7783153"><ele>1450.0</ele><time>2026-04-06T13:33:06.445Z</time></trkpt><trkpt lat="45.866579" lon="11.7781489"><ele>1448.0</ele><time>2026-04-06T13:33:07.44Z</time></trkpt><trkpt lat="45.8666093" lon="11.7779868"><ele>1446.0</ele><time>2026-04-06T13:33:08.445Z</time></trkpt><trkpt lat="45.866649" lon="11.7778286"><ele>1444.25</ele><time>2026-04-06T13:33:09.452Z</time></trkpt><trkpt lat="45.8666893" lon="11.777668"><ele>1442.5</ele><time>2026-04-06T13:33:10.462Z</time></trkpt><trkpt lat="45.8667206" lon="11.7775023"><ele>1440.75</ele><time>2026-04-06T13:33:11.448Z</time></trkpt><trkpt lat="45.8667451" lon="11.7773328"><ele>1439.0</ele><time>2026-04-06T13:33:12.455Z</time></trkpt><trkpt lat="45.8667657" lon="11.7771611"><ele>1444.5</ele><time>2026-04-06T13:33:13.449Z</time></trkpt><trkpt lat="45.8667881" lon="11.7769909"><ele>1450.0</ele><time>2026-04-06T13:33:14.459Z</time></trkpt><trkpt lat="45.8668209" lon="11.7768226"><ele>1455.5</ele><time>2026-04-06T13:33:15.444Z</time></trkpt><trkpt lat="45.8668598" lon="11.7766544"><ele>1461.0</ele><time>2026-04-06T13:33:16.457Z</time></trkpt><trkpt lat="45.8668974" lon="11.7764832"><ele>1461.0</ele><time>2026-04-06T13:33:17.444Z</time></trkpt><trkpt lat="45.8669295" lon="11.7763092"><ele>1461.0</ele><time>2026-04-06T13:33:18.453Z</time></trkpt><trkpt lat="45.8669508" lon="11.7761354"><ele>1461.0</ele><time>2026-04-06T13:33:19.453Z</time></trkpt><trkpt lat="45.8669609" lon="11.7759605"><ele>1461.0</ele><time>2026-04-06T13:33:20.452Z</time></trkpt><trkpt lat="45.866964" lon="11.7757868"><ele>1460.0</ele><time>2026-04-06T13:33:21.439Z</time></trkpt><trkpt lat="45.8669696" lon="11.7756127"><ele>1459.0</ele><time>2026-04-06T13:33:22.452Z</time></trkpt><trkpt lat="45.8669736" lon="11.7754344"><ele>1458.0</ele><time>2026-04-06T13:33:23.452Z</time></trkpt><trkpt lat="45.8669763" lon="11.7752589"><ele>1457.0</ele><time>2026-04-06T13:33:24.449Z</time></trkpt><trkpt lat="45.8669728" lon="11.7750702"><ele>1456.3333333333335</ele><time>2026-04-06T13:33:25.448Z</time></trkpt><trkpt lat="45.8669504" lon="11.7748635"><ele>1455.6666666666667</ele><time>2026-04-06T13:33:26.449Z</time></trkpt><trkpt lat="45.8668995" lon="11.7746478"><ele>1455.0</ele><time>2026-04-06T13:33:27.441Z</time></trkpt><trkpt lat="45.8668314" lon="11.7744526"><ele>1450.0</ele><time>2026-04-06T13:33:28.443Z</time></trkpt><trkpt lat="45.8667594" lon="11.7742945"><ele>1445.0</ele><time>2026-04-06T13:33:29.437Z</time></trkpt><trkpt lat="45.8666826" lon="11.774171"><ele>1440.0</ele><time>2026-04-06T13:33:30.433Z</time></trkpt><trkpt lat="45.8666066" lon="11.7740742"><ele>1435.0</ele><time>2026-04-06T13:33:31.43Z</time></trkpt><trkpt lat="45.8665378" lon="11.7739899"><ele>1430.0</ele><time>2026-04-06T13:33:32.444Z</time></trkpt><trkpt lat="45.8664624" lon="11.7739711"><ele>1430.0</ele><time>2026-04-06T13:33:33.444Z</time></trkpt><trkpt lat="45.8663851" lon="11.7740073"><ele>1430.0</ele><time>2026-04-06T13:33:34.432Z</time></trkpt><trkpt lat="45.8663236" lon="11.7741025"><ele>1430.0</ele><time>2026-04-06T13:33:35.429Z</time></trkpt><trkpt lat="45.8662682" lon="11.7742486"><ele>1430.0</ele><time>2026-04-06T13:33:36.441Z</time></trkpt><trkpt lat="45.8662089" lon="11.7744305"><ele>1430.0</ele><time>2026-04-06T13:33:37.437Z</time></trkpt><trkpt lat="45.8661327" lon="11.7746349"><ele>1426.0</ele><time>2026-04-06T13:33:38.443Z</time></trkpt><trkpt lat="45.866036" lon="11.7748477"><ele>1422.0</ele><time>2026-04-06T13:33:39.45Z</time></trkpt><trkpt lat="45.8659168" lon="11.7750683"><ele>1418.0</ele><time>2026-04-06T13:33:40.452Z</time></trkpt><trkpt lat="45.8657867" lon="11.7752934"><ele>1413.0</ele><time>2026-04-06T13:33:41.451Z</time></trkpt><trkpt lat="45.8656535" lon="11.7755067"><ele>1408.0</ele><time>2026-04-06T13:33:42.447Z</time></trkpt><trkpt lat="45.8655288" lon="11.7757277"><ele>1403.0</ele><time>2026-04-06T13:33:43.463Z</time></trkpt><trkpt lat="45.8653812" lon="11.7759559"><ele>1401.5</ele><time>2026-04-06T13:33:44.457Z</time></trkpt><trkpt lat="45.8652074" lon="11.7761907"><ele>1400.0</ele><time>2026-04-06T13:33:45.442Z</time></trkpt><trkpt lat="45.8650381" lon="11.7764123"><ele>1399.6666666666667</ele><time>2026-04-06T13:33:46.454Z</time></trkpt><trkpt lat="45.8648835" lon="11.7766305"><ele>1399.3333333333333</ele><time>2026-04-06T13:33:47.451Z</time></trkpt><trkpt lat="45.8647493" lon="11.7768346"><ele>1399.0</ele><time>2026-04-06T13:33:48.456Z</time></trkpt><trkpt lat="45.8646208" lon="11.7770297"><ele>1395.6666666666665</ele><time>2026-04-06T13:33:49.446Z</time></trkpt><trkpt lat="45.8644961" lon="11.7772145"><ele>1392.3333333333333</ele><time>2026-04-06T13:33:50.466Z</time></trkpt><trkpt lat="45.8643846" lon="11.7773611"><ele>1389.0</ele><time>2026-04-06T13:33:51.465Z</time></trkpt><trkpt lat="45.8642671" lon="11.777503"><ele>1389.0</ele><time>2026-04-06T13:33:52.437Z</time></trkpt><trkpt lat="45.8641486" lon="11.7776152"><ele>1389.0</ele><time>2026-04-06T13:33:53.462Z</time></trkpt><trkpt lat="45.864028" lon="11.7776983"><ele>1389.0</ele><time>2026-04-06T13:33:54.444Z</time></trkpt><trkpt lat="45.8639075" lon="11.7777534"><ele>1389.0</ele><time>2026-04-06T13:33:55.46Z</time></trkpt><trkpt lat="45.8637969" lon="11.7777896"><ele>1389.0</ele><time>2026-04-06T13:33:56.449Z</time></trkpt><trkpt lat="45.8636889" lon="11.7777635"><ele>1389.0</ele><time>2026-04-06T13:33:57.451Z</time></trkpt><trkpt lat="45.8636001" lon="11.7777096"><ele>1389.0</ele><time>2026-04-06T13:33:58.451Z</time></trkpt><trkpt lat="45.8635158" lon="11.7775929"><ele>1389.0</ele><time>2026-04-06T13:33:59.461Z</time></trkpt><trkpt lat="45.8634439" lon="11.7774698"><ele>1389.0</ele><time>2026-04-06T13:34:00.444Z</time></trkpt><trkpt lat="45.8634026" lon="11.7773346"><ele>1387.5</ele><time>2026-04-06T13:34:01.458Z</time></trkpt><trkpt lat="45.8633364" lon="11.7772394"><ele>1386.0</ele><time>2026-04-06T13:34:02.447Z</time></trkpt><trkpt lat="45.8632554" lon="11.7771802"><ele>1384.5</ele><time>2026-04-06T13:34:03.456Z</time></trkpt><trkpt lat="45.8631703" lon="11.7771534"><ele>1383.0</ele><time>2026-04-06T13:34:04.455Z</time></trkpt><trkpt lat="45.8630999" lon="11.7771375"><ele>1381.5</ele><time>2026-04-06T13:34:05.454Z</time></trkpt><trkpt lat="45.8630306" lon="11.7771131"><ele>1380.0</ele><time>2026-04-06T13:34:06.444Z</time></trkpt><trkpt lat="45.8629671" lon="11.7770759"><ele>1380.0</ele><time>2026-04-06T13:34:07.466Z</time></trkpt><trkpt lat="45.8629067" lon="11.7770177"><ele>1380.0</ele><time>2026-04-06T13:34:08.456Z</time></trkpt><trkpt lat="45.8628508" lon="11.7769541"><ele>1380.0</ele><time>2026-04-06T13:34:09.449Z</time></trkpt><trkpt lat="45.8627895" lon="11.7768783"><ele>1380.0</ele><time>2026-04-06T13:34:10.441Z</time></trkpt><trkpt lat="45.8627234" lon="11.7767917"><ele>1380.0</ele><time>2026-04-06T13:34:11.445Z</time></trkpt><trkpt lat="45.8626578" lon="11.7767096"><ele>1380.0</ele><time>2026-04-06T13:34:12.452Z</time></trkpt><trkpt lat="45.8625886" lon="11.7766227"><ele>1378.3333333333333</ele><time>2026-04-06T13:34:13.447Z</time></trkpt><trkpt lat="45.8625196" lon="11.7765328"><ele>1376.6666666666667</ele><time>2026-04-06T13:34:14.454Z</time></trkpt><trkpt lat="45.8624496" lon="11.7764557"><ele>1375.0</ele><time>2026-04-06T13:34:15.452Z</time></trkpt><trkpt lat="45.8623784" lon="11.7763763"><ele>1373.3333333333335</ele><time>2026-04-06T13:34:16.456Z</time></trkpt><trkpt lat="45.86231" lon="11.7763008"><ele>1371.6666666666667</ele><time>2026-04-06T13:34:17.451Z</time></trkpt><trkpt lat="45.8622458" lon="11.7762248"><ele>1370.0</ele><time>2026-04-06T13:34:18.448Z</time></trkpt><trkpt lat="45.8621836" lon="11.7761496"><ele>1370.0</ele><time>2026-04-06T13:34:19.447Z</time></trkpt><trkpt lat="45.8621254" lon="11.7760727"><ele>1370.0</ele><time>2026-04-06T13:34:20.451Z</time></trkpt><trkpt lat="45.862073" lon="11.775993"><ele>1370.0</ele><time>2026-04-06T13:34:21.452Z</time></trkpt><trkpt lat="45.8620229" lon="11.7758981"><ele>1370.0</ele><time>2026-04-06T13:34:22.462Z</time></trkpt><trkpt lat="45.861975" lon="11.7757889"><ele>1370.0</ele><time>2026-04-06T13:34:23.455Z</time></trkpt><trkpt lat="45.861932" lon="11.7756639"><ele>1370.0</ele><time>2026-04-06T13:34:24.451Z</time></trkpt><trkpt lat="45.8618898" lon="11.7755266"><ele>1367.6</ele><time>2026-04-06T13:34:25.447Z</time></trkpt><trkpt lat="45.8618482" lon="11.7753829"><ele>1365.2</ele><time>2026-04-06T13:34:26.458Z</time></trkpt><trkpt lat="45.8618052" lon="11.7752389"><ele>1362.8000000000002</ele><time>2026-04-06T13:34:27.453Z</time></trkpt><trkpt lat="45.8617668" lon="11.7751041"><ele>1360.4</ele><time>2026-04-06T13:34:28.46Z</time></trkpt><trkpt lat="45.8617391" lon="11.7749726"><ele>1358.0</ele><time>2026-04-06T13:34:29.458Z</time></trkpt><trkpt lat="45.8617273" lon="11.7748371"><ele>1358.0</ele><time>2026-04-06T13:34:30.451Z</time></trkpt><trkpt lat="45.8617323" lon="11.7746918"><ele>1358.0</ele><time>2026-04-06T13:34:31.456Z</time></trkpt><trkpt lat="45.861741" lon="11.7745425"><ele>1358.0</ele><time>2026-04-06T13:34:32.453Z</time></trkpt><trkpt lat="45.8617607" lon="11.7743885"><ele>1358.0</ele><time>2026-04-06T13:34:33.451Z</time></trkpt><trkpt lat="45.8617779" lon="11.7742317"><ele>1358.0</ele><time>2026-04-06T13:34:34.439Z</time></trkpt><trkpt lat="45.8617938" lon="11.7740664"><ele>1357.0</ele><time>2026-04-06T13:34:35.437Z</time></trkpt><trkpt lat="45.8617978" lon="11.7738836"><ele>1356.0</ele><time>2026-04-06T13:34:36.439Z</time></trkpt><trkpt lat="45.8617794" lon="11.7736964"><ele>1355.0</ele><time>2026-04-06T13:34:37.439Z</time></trkpt><trkpt lat="45.8617331" lon="11.7734949"><ele>1354.0</ele><time>2026-04-06T13:34:38.453Z</time></trkpt><trkpt lat="45.8616794" lon="11.773281"><ele>1353.5</ele><time>2026-04-06T13:34:39.46Z</time></trkpt><trkpt lat="45.8616209" lon="11.7730659"><ele>1353.0</ele><time>2026-04-06T13:34:40.464Z</time></trkpt><trkpt lat="45.8615749" lon="11.7728643"><ele>1352.5</ele><time>2026-04-06T13:34:41.455Z</time></trkpt><trkpt lat="45.8615442" lon="11.7726766"><ele>1352.0</ele><time>2026-04-06T13:34:42.458Z</time></trkpt><trkpt lat="45.8615226" lon="11.7725072"><ele>1351.3999999999999</ele><time>2026-04-06T13:34:43.451Z</time></trkpt><trkpt lat="45.8615087" lon="11.7723552"><ele>1350.8</ele><time>2026-04-06T13:34:44.451Z</time></trkpt><trkpt lat="45.861509" lon="11.7722101"><ele>1350.2</ele><time>2026-04-06T13:34:45.449Z</time></trkpt><trkpt lat="45.8615331" lon="11.7720716"><ele>1349.6</ele><time>2026-04-06T13:34:46.441Z</time></trkpt><trkpt lat="45.8615757" lon="11.7719312"><ele>1349.0</ele><time>2026-04-06T13:34:47.452Z</time></trkpt><trkpt lat="45.8616219" lon="11.7717764"><ele>1347.25</ele><time>2026-04-06T13:34:48.442Z</time></trkpt><trkpt lat="45.8616508" lon="11.7715977"><ele>1345.5</ele><time>2026-04-06T13:34:49.448Z</time></trkpt><trkpt lat="45.8616744" lon="11.7714125"><ele>1343.75</ele><time>2026-04-06T13:34:50.448Z</time></trkpt><trkpt lat="45.8616712" lon="11.7712284"><ele>1342.0</ele><time>2026-04-06T13:34:51.451Z</time></trkpt><trkpt lat="45.8616969" lon="11.7710434"><ele>1339.75</ele><time>2026-04-06T13:34:52.442Z</time></trkpt><trkpt lat="45.8617491" lon="11.7708427"><ele>1337.5</ele><time>2026-04-06T13:34:53.447Z</time></trkpt><trkpt lat="45.8618076" lon="11.7706403"><ele>1335.25</ele><time>2026-04-06T13:34:54.455Z</time></trkpt><trkpt lat="45.8618706" lon="11.7704614"><ele>1333.0</ele><time>2026-04-06T13:34:55.452Z</time></trkpt><trkpt lat="45.8619469" lon="11.7703243"><ele>1337.2</ele><time>2026-04-06T13:34:56.442Z</time></trkpt><trkpt lat="45.8620168" lon="11.7702104"><ele>1341.4</ele><time>2026-04-06T13:34:57.46Z</time></trkpt><trkpt lat="45.8620815" lon="11.7700975"><ele>1345.6000000000001</ele><time>2026-04-06T13:34:58.448Z</time></trkpt><trkpt lat="45.8620724" lon="11.7699301"><ele>1349.8000000000002</ele><time>2026-04-06T13:34:59.443Z</time></trkpt><trkpt lat="45.8620431" lon="11.7697693"><ele>1354.0</ele><time>2026-04-06T13:35:00.468Z</time></trkpt><trkpt lat="45.8620021" lon="11.769599"><ele>1354.0</ele><time>2026-04-06T13:35:01.439Z</time></trkpt><trkpt lat="45.8619694" lon="11.7694383"><ele>1354.0</ele><time>2026-04-06T13:35:02.445Z</time></trkpt><trkpt lat="45.86194" lon="11.7692792"><ele>1354.0</ele><time>2026-04-06T13:35:03.453Z</time></trkpt><trkpt lat="45.8619441" lon="11.7691349"><ele>1354.0</ele><time>2026-04-06T13:35:04.442Z</time></trkpt><trkpt lat="45.8620113" lon="11.769029"><ele>1354.0</ele><time>2026-04-06T13:35:05.44Z</time></trkpt><trkpt lat="45.8621108" lon="11.7689189"><ele>1352.0</ele><time>2026-04-06T13:35:06.441Z</time></trkpt><trkpt lat="45.8622233" lon="11.7688235"><ele>1350.0</ele><time>2026-04-06T13:35:07.444Z</time></trkpt><trkpt lat="45.862297" lon="11.7687523"><ele>1348.0</ele><time>2026-04-06T13:35:08.448Z</time></trkpt><trkpt lat="45.8623437" lon="11.7686752"><ele>1346.0</ele><time>2026-04-06T13:35:09.428Z</time></trkpt><trkpt lat="45.8623614" lon="11.7685856"><ele>1344.0</ele><time>2026-04-06T13:35:10.442Z</time></trkpt><trkpt lat="45.8623445" lon="11.7684871"><ele>1342.0</ele><time>2026-04-06T13:35:11.444Z</time></trkpt><trkpt lat="45.8622953" lon="11.7684021"><ele>1339.25</ele><time>2026-04-06T13:35:12.452Z</time></trkpt><trkpt lat="45.8622219" lon="11.7683181"><ele>1336.5</ele><time>2026-04-06T13:35:13.446Z</time></trkpt><trkpt lat="45.8621714" lon="11.7682291"><ele>1333.75</ele><time>2026-04-06T13:35:14.441Z</time></trkpt><trkpt lat="45.8621283" lon="11.7681158"><ele>1331.0</ele><time>2026-04-06T13:35:15.438Z</time></trkpt><trkpt lat="45.8621147" lon="11.7678368"><ele>1331.0</ele><time>2026-04-06T13:35:17.452Z</time></trkpt><trkpt lat="45.8621415" lon="11.7677043"><ele>1331.0</ele><time>2026-04-06T13:35:18.442Z</time></trkpt><trkpt lat="45.8621512" lon="11.767574"><ele>1331.0</ele><time>2026-04-06T13:35:19.447Z</time></trkpt><trkpt lat="45.862108" lon="11.7674736"><ele>1331.0</ele><time>2026-04-06T13:35:20.448Z</time></trkpt><trkpt lat="45.8620206" lon="11.7674057"><ele>1331.0</ele><time>2026-04-06T13:35:21.454Z</time></trkpt><trkpt lat="45.8619113" lon="11.7673722"><ele>1331.25</ele><time>2026-04-06T13:35:22.441Z</time></trkpt><trkpt lat="45.8617888" lon="11.767333"><ele>1331.5</ele><time>2026-04-06T13:35:23.449Z</time></trkpt><trkpt lat="45.8616564" lon="11.7672796"><ele>1331.75</ele><time>2026-04-06T13:35:24.436Z</time></trkpt><trkpt lat="45.8615409" lon="11.7672038"><ele>1332.0</ele><time>2026-04-06T13:35:25.453Z</time></trkpt><trkpt lat="45.8614456" lon="11.7671268"><ele>1327.8</ele><time>2026-04-06T13:35:26.44Z</time></trkpt><trkpt lat="45.8613741" lon="11.7670336"><ele>1323.6</ele><time>2026-04-06T13:35:27.44Z</time></trkpt><trkpt lat="45.8613345" lon="11.7669046"><ele>1319.3999999999999</ele><time>2026-04-06T13:35:28.436Z</time></trkpt><trkpt lat="45.8613284" lon="11.7667576"><ele>1315.1999999999998</ele><time>2026-04-06T13:35:29.439Z</time></trkpt><trkpt lat="45.8613542" lon="11.7666073"><ele>1311.0</ele><time>2026-04-06T13:35:30.441Z</time></trkpt><trkpt lat="45.8614091" lon="11.7664528"><ele>1311.0</ele><time>2026-04-06T13:35:31.436Z</time></trkpt><trkpt lat="45.8614798" lon="11.7662984"><ele>1311.0</ele><time>2026-04-06T13:35:32.437Z</time></trkpt><trkpt lat="45.8615486" lon="11.7661361"><ele>1311.0</ele><time>2026-04-06T13:35:33.441Z</time></trkpt><trkpt lat="45.8616081" lon="11.7659558"><ele>1311.0</ele><time>2026-04-06T13:35:34.446Z</time></trkpt><trkpt lat="45.8616627" lon="11.7657701"><ele>1311.5</ele><time>2026-04-06T13:35:35.435Z</time></trkpt><trkpt lat="45.861719" lon="11.7655941"><ele>1312.0</ele><time>2026-04-06T13:35:36.443Z</time></trkpt><trkpt lat="45.861793" lon="11.7654389"><ele>1312.5</ele><time>2026-04-06T13:35:37.446Z</time></trkpt><trkpt lat="45.8618918" lon="11.7653014"><ele>1313.0</ele><time>2026-04-06T13:35:38.436Z</time></trkpt><trkpt lat="45.8620063" lon="11.7651742"><ele>1308.25</ele><time>2026-04-06T13:35:39.436Z</time></trkpt><trkpt lat="45.8621302" lon="11.7650409"><ele>1303.5</ele><time>2026-04-06T13:35:40.45Z</time></trkpt><trkpt lat="45.8622486" lon="11.7649101"><ele>1298.75</ele><time>2026-04-06T13:35:41.449Z</time></trkpt><trkpt lat="45.86236" lon="11.7647829"><ele>1294.0</ele><time>2026-04-06T13:35:42.444Z</time></trkpt><trkpt lat="45.8624698" lon="11.7646689"><ele>1294.0</ele><time>2026-04-06T13:35:43.446Z</time></trkpt><trkpt lat="45.8625675" lon="11.7645929"><ele>1294.0</ele><time>2026-04-06T13:35:44.451Z</time></trkpt><trkpt lat="45.8626632" lon="11.7645473"><ele>1294.0</ele><time>2026-04-06T13:35:45.457Z</time></trkpt><trkpt lat="45.8627547" lon="11.764543"><ele>1294.0</ele><time>2026-04-06T13:35:46.437Z</time></trkpt><trkpt lat="45.8628465" lon="11.7645586"><ele>1294.0</ele><time>2026-04-06T13:35:47.441Z</time></trkpt><trkpt lat="45.8629048" lon="11.7646674"><ele>1293.8000000000002</ele><time>2026-04-06T13:35:48.444Z</time></trkpt><trkpt lat="45.8629564" lon="11.7647886"><ele>1293.6000000000001</ele><time>2026-04-06T13:35:49.441Z</time></trkpt><trkpt lat="45.8630071" lon="11.7648857"><ele>1293.4</ele><time>2026-04-06T13:35:50.442Z</time></trkpt><trkpt lat="45.8630671" lon="11.7649722"><ele>1293.2</ele><time>2026-04-06T13:35:51.438Z</time></trkpt><trkpt lat="45.8631637" lon="11.7649646"><ele>1293.0</ele><time>2026-04-06T13:35:52.442Z</time></trkpt><trkpt lat="45.8632708" lon="11.7648917"><ele>1293.0</ele><time>2026-04-06T13:35:53.434Z</time></trkpt><trkpt lat="45.8633563" lon="11.7647813"><ele>1293.0</ele><time>2026-04-06T13:35:54.442Z</time></trkpt><trkpt lat="45.863462" lon="11.764692"><ele>1293.0</ele><time>2026-04-06T13:35:55.429Z</time></trkpt><trkpt lat="45.8635875" lon="11.7646317"><ele>1293.0</ele><time>2026-04-06T13:35:56.456Z</time></trkpt><trkpt lat="45.8637095" lon="11.7645818"><ele>1291.2</ele><time>2026-04-06T13:35:57.446Z</time></trkpt><trkpt lat="45.8637949" lon="11.764549"><ele>1289.4</ele><time>2026-04-06T13:35:58.443Z</time></trkpt><trkpt lat="45.8638981" lon="11.7645586"><ele>1287.6000000000001</ele><time>2026-04-06T13:35:59.437Z</time></trkpt><trkpt lat="45.863999" lon="11.7645976"><ele>1285.8000000000002</ele><time>2026-04-06T13:36:00.438Z</time></trkpt><trkpt lat="45.8640746" lon="11.7646813"><ele>1284.0</ele><time>2026-04-06T13:36:01.452Z</time></trkpt><trkpt lat="45.8641503" lon="11.7647435"><ele>1284.0</ele><time>2026-04-06T13:36:02.451Z</time></trkpt><trkpt lat="45.8642339" lon="11.7647319"><ele>1284.0</ele><time>2026-04-06T13:36:03.437Z</time></trkpt><trkpt lat="45.8643256" lon="11.7646596"><ele>1284.0</ele><time>2026-04-06T13:36:04.435Z</time></trkpt><trkpt lat="45.8643977" lon="11.7645743"><ele>1284.0</ele><time>2026-04-06T13:36:05.444Z</time></trkpt><trkpt lat="45.8644454" lon="11.7644964"><ele>1284.0</ele><time>2026-04-06T13:36:06.446Z</time></trkpt><trkpt lat="45.8644633" lon="11.7643964"><ele>1284.0</ele><time>2026-04-06T13:36:07.436Z</time></trkpt><trkpt lat="45.8644383" lon="11.7642867"><ele>1281.25</ele><time>2026-04-06T13:36:08.44Z</time></trkpt><trkpt lat="45.8643854" lon="11.7641707"><ele>1278.5</ele><time>2026-04-06T13:36:09.436Z</time></trkpt><trkpt lat="45.8643135" lon="11.7640398"><ele>1275.75</ele><time>2026-04-06T13:36:10.452Z</time></trkpt><trkpt lat="45.8642375" lon="11.7638938"><ele>1273.0</ele><time>2026-04-06T13:36:11.448Z</time></trkpt><trkpt lat="45.8641645" lon="11.7637586"><ele>1273.0</ele><time>2026-04-06T13:36:12.455Z</time></trkpt><trkpt lat="45.8640848" lon="11.7636375"><ele>1273.0</ele><time>2026-04-06T13:36:13.451Z</time></trkpt><trkpt lat="45.8639862" lon="11.7635484"><ele>1273.0</ele><time>2026-04-06T13:36:14.453Z</time></trkpt><trkpt lat="45.8638658" lon="11.7634984"><ele>1273.0</ele><time>2026-04-06T13:36:15.445Z</time></trkpt><trkpt lat="45.8637403" lon="11.7634759"><ele>1274.8</ele><time>2026-04-06T13:36:16.437Z</time></trkpt><trkpt lat="45.863629" lon="11.7634602"><ele>1276.6</ele><time>2026-04-06T13:36:17.438Z</time></trkpt><trkpt lat="45.8635345" lon="11.7634382"><ele>1278.3999999999999</ele><time>2026-04-06T13:36:18.438Z</time></trkpt><trkpt lat="45.8634526" lon="11.7633824"><ele>1280.1999999999998</ele><time>2026-04-06T13:36:19.443Z</time></trkpt><trkpt lat="45.863372" lon="11.7632807"><ele>1282.0</ele><time>2026-04-06T13:36:20.443Z</time></trkpt><trkpt lat="45.863297" lon="11.7631396"><ele>1278.25</ele><time>2026-04-06T13:36:21.442Z</time></trkpt><trkpt lat="45.8632325" lon="11.7629709"><ele>1274.5</ele><time>2026-04-06T13:36:22.441Z</time></trkpt><trkpt lat="45.8631858" lon="11.7627881"><ele>1270.75</ele><time>2026-04-06T13:36:23.448Z</time></trkpt><trkpt lat="45.8631564" lon="11.762609"><ele>1267.0</ele><time>2026-04-06T13:36:24.444Z</time></trkpt><trkpt lat="45.8631325" lon="11.7624391"><ele>1267.0</ele><time>2026-04-06T13:36:25.44Z</time></trkpt><trkpt lat="45.8631029" lon="11.7622954"><ele>1267.0</ele><time>2026-04-06T13:36:26.447Z</time></trkpt><trkpt lat="45.8630523" lon="11.7621739"><ele>1267.0</ele><time>2026-04-06T13:36:27.448Z</time></trkpt><trkpt lat="45.8629727" lon="11.7620796"><ele>1267.0</ele><time>2026-04-06T13:36:28.442Z</time></trkpt><trkpt lat="45.8628713" lon="11.7620109"><ele>1267.0</ele><time>2026-04-06T13:36:29.445Z</time></trkpt><trkpt lat="45.8627612" lon="11.7619467"><ele>1267.0</ele><time>2026-04-06T13:36:30.428Z</time></trkpt><trkpt lat="45.862654" lon="11.7618761"><ele>1267.0</ele><time>2026-04-06T13:36:31.447Z</time></trkpt><trkpt lat="45.8625513" lon="11.7618163"><ele>1267.0</ele><time>2026-04-06T13:36:32.453Z</time></trkpt><trkpt lat="45.862478" lon="11.7617071"><ele>1267.0</ele><time>2026-04-06T13:36:33.45Z</time></trkpt><trkpt lat="45.8624027" lon="11.7615923"><ele>1267.0</ele><time>2026-04-06T13:36:34.44Z</time></trkpt><trkpt lat="45.8623073" lon="11.7615065"><ele>1263.25</ele><time>2026-04-06T13:36:35.453Z</time></trkpt><trkpt lat="45.8621908" lon="11.7614792"><ele>1259.5</ele><time>2026-04-06T13:36:36.444Z</time></trkpt><trkpt lat="45.8620688" lon="11.7614565"><ele>1255.75</ele><time>2026-04-06T13:36:37.452Z</time></trkpt><trkpt lat="45.8619469" lon="11.761481"><ele>1252.0</ele><time>2026-04-06T13:36:38.45Z</time></trkpt><trkpt lat="45.8618326" lon="11.7615032"><ele>1250.0</ele><time>2026-04-06T13:36:39.436Z</time></trkpt><trkpt lat="45.861739" lon="11.7614999"><ele>1248.0</ele><time>2026-04-06T13:36:40.445Z</time></trkpt><trkpt lat="45.8616603" lon="11.7614314"><ele>1246.0</ele><time>2026-04-06T13:36:41.44Z</time></trkpt><trkpt lat="45.8616119" lon="11.7613079"><ele>1244.0</ele><time>2026-04-06T13:36:42.446Z</time></trkpt><trkpt lat="45.8615557" lon="11.7611828"><ele>1242.0</ele><time>2026-04-06T13:36:43.447Z</time></trkpt><trkpt lat="45.8614733" lon="11.7610736"><ele>1243.0</ele><time>2026-04-06T13:36:44.437Z</time></trkpt><trkpt lat="45.8613643" lon="11.7610162"><ele>1244.0</ele><time>2026-04-06T13:36:45.444Z</time></trkpt><trkpt lat="45.8612381" lon="11.7609659"><ele>1245.0</ele><time>2026-04-06T13:36:46.436Z</time></trkpt><trkpt lat="45.8610922" lon="11.7609557"><ele>1246.0</ele><time>2026-04-06T13:36:47.445Z</time></trkpt><trkpt lat="45.8608165" lon="11.7610192"><ele>1246.0</ele><time>2026-04-06T13:36:49.452Z</time></trkpt><trkpt lat="45.8606993" lon="11.7610264"><ele>1246.0</ele><time>2026-04-06T13:36:50.436Z</time></trkpt><trkpt lat="45.8605894" lon="11.7609924"><ele>1246.0</ele><time>2026-04-06T13:36:51.43Z</time></trkpt><trkpt lat="45.8604836" lon="11.7609103"><ele>1246.0</ele><time>2026-04-06T13:36:52.444Z</time></trkpt><trkpt lat="45.8603787" lon="11.7607842"><ele>1246.0</ele><time>2026-04-06T13:36:53.428Z</time></trkpt><trkpt lat="45.8602748" lon="11.7606468"><ele>1246.0</ele><time>2026-04-06T13:36:54.43Z</time></trkpt><trkpt lat="45.8601777" lon="11.7605094"><ele>1246.0</ele><time>2026-04-06T13:36:55.444Z</time></trkpt><trkpt lat="45.860098" lon="11.7603474"><ele>1246.0</ele><time>2026-04-06T13:36:56.451Z</time></trkpt><trkpt lat="45.8600351" lon="11.7601622"><ele>1242.5</ele><time>2026-04-06T13:36:57.434Z</time></trkpt><trkpt lat="45.8599746" lon="11.7599694"><ele>1239.0</ele><time>2026-04-06T13:36:58.428Z</time></trkpt><trkpt lat="45.8598988" lon="11.7597879"><ele>1235.5</ele><time>2026-04-06T13:36:59.443Z</time></trkpt><trkpt lat="45.8598126" lon="11.75961"><ele>1232.0</ele><time>2026-04-06T13:37:00.43Z</time></trkpt><trkpt lat="45.859726" lon="11.7594178"><ele>1236.0</ele><time>2026-04-06T13:37:01.447Z</time></trkpt><trkpt lat="45.8596412" lon="11.7592215"><ele>1240.0</ele><time>2026-04-06T13:37:02.446Z</time></trkpt><trkpt lat="45.859547" lon="11.7590246"><ele>1244.0</ele><time>2026-04-06T13:37:03.449Z</time></trkpt><trkpt lat="45.8594433" lon="11.7588319"><ele>1244.0</ele><time>2026-04-06T13:37:04.433Z</time></trkpt><trkpt lat="45.8593425" lon="11.7586497"><ele>1244.0</ele><time>2026-04-06T13:37:05.448Z</time></trkpt><trkpt lat="45.8592494" lon="11.7584786"><ele>1244.0</ele><time>2026-04-06T13:37:06.451Z</time></trkpt><trkpt lat="45.8591624" lon="11.7583143"><ele>1238.25</ele><time>2026-04-06T13:37:07.452Z</time></trkpt><trkpt lat="45.8590933" lon="11.7581675"><ele>1232.5</ele><time>2026-04-06T13:37:08.437Z</time></trkpt><trkpt lat="45.8590438" lon="11.7580248"><ele>1226.75</ele><time>2026-04-06T13:37:09.45Z</time></trkpt><trkpt lat="45.8589893" lon="11.7578831"><ele>1221.0</ele><time>2026-04-06T13:37:10.445Z</time></trkpt><trkpt lat="45.8589666" lon="11.7577139"><ele>1221.5</ele><time>2026-04-06T13:37:11.445Z</time></trkpt><trkpt lat="45.8589613" lon="11.757509"><ele>1222.0</ele><time>2026-04-06T13:37:12.448Z</time></trkpt><trkpt lat="45.8589383" lon="11.757301"><ele>1222.5</ele><time>2026-04-06T13:37:13.458Z</time></trkpt><trkpt lat="45.8589139" lon="11.7570863"><ele>1223.0</ele><time>2026-04-06T13:37:14.454Z</time></trkpt><trkpt lat="45.8588792" lon="11.7568825"><ele>1224.25</ele><time>2026-04-06T13:37:15.456Z</time></trkpt><trkpt lat="45.8588631" lon="11.7566822"><ele>1225.5</ele><time>2026-04-06T13:37:16.437Z</time></trkpt><trkpt lat="45.8588598" lon="11.7564801"><ele>1226.75</ele><time>2026-04-06T13:37:17.452Z</time></trkpt><trkpt lat="45.8588517" lon="11.7562766"><ele>1228.0</ele><time>2026-04-06T13:37:18.449Z</time></trkpt><trkpt lat="45.8588425" lon="11.7560672"><ele>1229.0</ele><time>2026-04-06T13:37:19.44Z</time></trkpt><trkpt lat="45.8588256" lon="11.755859"><ele>1230.0</ele><time>2026-04-06T13:37:20.44Z</time></trkpt><trkpt lat="45.858792" lon="11.7556619"><ele>1231.0</ele><time>2026-04-06T13:37:21.448Z</time></trkpt><trkpt lat="45.858757" lon="11.7554661"><ele>1232.0</ele><time>2026-04-06T13:37:22.444Z</time></trkpt><trkpt lat="45.8587232" lon="11.7552681"><ele>1232.75</ele><time>2026-04-06T13:37:23.447Z</time></trkpt><trkpt lat="45.8586902" lon="11.7550728"><ele>1233.5</ele><time>2026-04-06T13:37:24.449Z</time></trkpt><trkpt lat="45.8586605" lon="11.7548805"><ele>1234.25</ele><time>2026-04-06T13:37:25.445Z</time></trkpt><trkpt lat="45.8586345" lon="11.7546888"><ele>1235.0</ele><time>2026-04-06T13:37:26.437Z</time></trkpt><trkpt lat="45.8586079" lon="11.7545025"><ele>1234.0</ele><time>2026-04-06T13:37:27.478Z</time></trkpt><trkpt lat="45.8585854" lon="11.7543151"><ele>1233.0</ele><time>2026-04-06T13:37:28.452Z</time></trkpt><trkpt lat="45.8585698" lon="11.7541333"><ele>1232.0</ele><time>2026-04-06T13:37:29.444Z</time></trkpt><trkpt lat="45.8585409" lon="11.7539573"><ele>1231.0</ele><time>2026-04-06T13:37:30.432Z</time></trkpt><trkpt lat="45.8585104" lon="11.7537881"><ele>1231.0</ele><time>2026-04-06T13:37:31.437Z</time></trkpt><trkpt lat="45.8584795" lon="11.7536119"><ele>1231.0</ele><time>2026-04-06T13:37:32.439Z</time></trkpt><trkpt lat="45.8584495" lon="11.7534474"><ele>1231.0</ele><time>2026-04-06T13:37:33.438Z</time></trkpt><trkpt lat="45.8584207" lon="11.7532831"><ele>1231.0</ele><time>2026-04-06T13:37:34.444Z</time></trkpt><trkpt lat="45.8583956" lon="11.7531223"><ele>1220.0</ele><time>2026-04-06T13:37:35.446Z</time></trkpt><trkpt lat="45.8583796" lon="11.7529594"><ele>1209.0</ele><time>2026-04-06T13:37:36.438Z</time></trkpt><trkpt lat="45.8583695" lon="11.7527897"><ele>1198.0</ele><time>2026-04-06T13:37:37.46Z</time></trkpt><trkpt lat="45.8583659" lon="11.7526209"><ele>1187.0</ele><time>2026-04-06T13:37:38.444Z</time></trkpt><trkpt lat="45.8583649" lon="11.7524527"><ele>1186.0</ele><time>2026-04-06T13:37:39.446Z</time></trkpt><trkpt lat="45.8583702" lon="11.7522972"><ele>1185.0</ele><time>2026-04-06T13:37:40.442Z</time></trkpt><trkpt lat="45.8583816" lon="11.7521395"><ele>1184.0</ele><time>2026-04-06T13:37:41.45Z</time></trkpt><trkpt lat="45.8584118" lon="11.7519846"><ele>1183.0</ele><time>2026-04-06T13:37:42.44Z</time></trkpt><trkpt lat="45.8584529" lon="11.7518309"><ele>1182.0</ele><time>2026-04-06T13:37:43.444Z</time></trkpt><trkpt lat="45.858502" lon="11.7516789"><ele>1187.75</ele><time>2026-04-06T13:37:44.448Z</time></trkpt><trkpt lat="45.8585506" lon="11.7515274"><ele>1193.5</ele><time>2026-04-06T13:37:45.446Z</time></trkpt><trkpt lat="45.8585979" lon="11.7513762"><ele>1199.25</ele><time>2026-04-06T13:37:46.452Z</time></trkpt><trkpt lat="45.8586452" lon="11.7512185"><ele>1205.0</ele><time>2026-04-06T13:37:47.444Z</time></trkpt><trkpt lat="45.8586575" lon="11.7510429"><ele>1204.0</ele><time>2026-04-06T13:37:48.445Z</time></trkpt><trkpt lat="45.858652" lon="11.7508725"><ele>1203.0</ele><time>2026-04-06T13:37:49.435Z</time></trkpt><trkpt lat="45.8586311" lon="11.7507086"><ele>1202.0</ele><time>2026-04-06T13:37:50.447Z</time></trkpt><trkpt lat="45.8586209" lon="11.7505476"><ele>1201.0</ele><time>2026-04-06T13:37:51.444Z</time></trkpt><trkpt lat="45.8586169" lon="11.750378"><ele>1201.0</ele><time>2026-04-06T13:37:52.445Z</time></trkpt><trkpt lat="45.8586248" lon="11.7502128"><ele>1201.0</ele><time>2026-04-06T13:37:53.442Z</time></trkpt><trkpt lat="45.8586473" lon="11.7500565"><ele>1201.0</ele><time>2026-04-06T13:37:54.447Z</time></trkpt><trkpt lat="45.858675" lon="11.7499027"><ele>1201.0</ele><time>2026-04-06T13:37:55.455Z</time></trkpt><trkpt lat="45.8587005" lon="11.7497501"><ele>1201.0</ele><time>2026-04-06T13:37:56.448Z</time></trkpt><trkpt lat="45.8586993" lon="11.7496124"><ele>1200.0</ele><time>2026-04-06T13:37:57.449Z</time></trkpt><trkpt lat="45.8586457" lon="11.7494579"><ele>1199.0</ele><time>2026-04-06T13:37:58.451Z</time></trkpt><trkpt lat="45.8585972" lon="11.7493313"><ele>1198.0</ele><time>2026-04-06T13:37:59.439Z</time></trkpt><trkpt lat="45.858542" lon="11.7492134"><ele>1197.0</ele><time>2026-04-06T13:38:00.44Z</time></trkpt><trkpt lat="45.8584726" lon="11.7490649"><ele>1196.0</ele><time>2026-04-06T13:38:01.444Z</time></trkpt><trkpt lat="45.8584266" lon="11.7489084"><ele>1187.75</ele><time>2026-04-06T13:38:02.45Z</time></trkpt><trkpt lat="45.858407" lon="11.7487481"><ele>1179.5</ele><time>2026-04-06T13:38:03.448Z</time></trkpt><trkpt lat="45.8583847" lon="11.7485908"><ele>1171.25</ele><time>2026-04-06T13:38:04.448Z</time></trkpt><trkpt lat="45.8583617" lon="11.7484305"><ele>1163.0</ele><time>2026-04-06T13:38:05.445Z</time></trkpt><trkpt lat="45.8583445" lon="11.7482658"><ele>1162.25</ele><time>2026-04-06T13:38:06.438Z</time></trkpt><trkpt lat="45.8583405" lon="11.7481017"><ele>1161.5</ele><time>2026-04-06T13:38:07.44Z</time></trkpt><trkpt lat="45.8583479" lon="11.7479358"><ele>1160.75</ele><time>2026-04-06T13:38:08.452Z</time></trkpt><trkpt lat="45.8583667" lon="11.7477636"><ele>1160.0</ele><time>2026-04-06T13:38:09.445Z</time></trkpt><trkpt lat="45.8583837" lon="11.7475935"><ele>1158.25</ele><time>2026-04-06T13:38:10.45Z</time></trkpt><trkpt lat="45.8583972" lon="11.7474265"><ele>1156.5</ele><time>2026-04-06T13:38:11.449Z</time></trkpt><trkpt lat="45.8584071" lon="11.7472579"><ele>1154.75</ele><time>2026-04-06T13:38:12.453Z</time></trkpt><trkpt lat="45.8584166" lon="11.7470888"><ele>1153.0</ele><time>2026-04-06T13:38:13.451Z</time></trkpt><trkpt lat="45.8584303" lon="11.7469185"><ele>1152.0</ele><time>2026-04-06T13:38:14.442Z</time></trkpt><trkpt lat="45.8584434" lon="11.7467454"><ele>1151.0</ele><time>2026-04-06T13:38:15.452Z</time></trkpt><trkpt lat="45.8584609" lon="11.7465761"><ele>1150.0</ele><time>2026-04-06T13:38:16.43Z</time></trkpt><trkpt lat="45.8584733" lon="11.7464003"><ele>1149.0</ele><time>2026-04-06T13:38:17.451Z</time></trkpt><trkpt lat="45.8584871" lon="11.7462275"><ele>1153.5</ele><time>2026-04-06T13:38:18.446Z</time></trkpt><trkpt lat="45.8584981" lon="11.7460686"><ele>1158.0</ele><time>2026-04-06T13:38:19.455Z</time></trkpt><trkpt lat="45.8584972" lon="11.7459019"><ele>1162.5</ele><time>2026-04-06T13:38:20.446Z</time></trkpt><trkpt lat="45.8585022" lon="11.7457369"><ele>1167.0</ele><time>2026-04-06T13:38:21.465Z</time></trkpt><trkpt lat="45.8585167" lon="11.7455689"><ele>1167.0</ele><time>2026-04-06T13:38:22.445Z</time></trkpt><trkpt lat="45.8585346" lon="11.7454021"><ele>1167.0</ele><time>2026-04-06T13:38:23.452Z</time></trkpt><trkpt lat="45.8585466" lon="11.7452457"><ele>1167.0</ele><time>2026-04-06T13:38:24.452Z</time></trkpt><trkpt lat="45.8585532" lon="11.7451005"><ele>1167.0</ele><time>2026-04-06T13:38:25.449Z</time></trkpt><trkpt lat="45.8585617" lon="11.7449634"><ele>1167.0</ele><time>2026-04-06T13:38:26.452Z</time></trkpt><trkpt lat="45.8585777" lon="11.7448431"><ele>1164.1666666666667</ele><time>2026-04-06T13:38:27.447Z</time></trkpt><trkpt lat="45.8585955" lon="11.7447305"><ele>1161.3333333333333</ele><time>2026-04-06T13:38:28.451Z</time></trkpt><trkpt lat="45.858642" lon="11.7446417"><ele>1158.5</ele><time>2026-04-06T13:38:29.434Z</time></trkpt><trkpt lat="45.8587192" lon="11.7445907"><ele>1155.6666666666665</ele><time>2026-04-06T13:38:30.441Z</time></trkpt><trkpt lat="45.8588011" lon="11.7445476"><ele>1152.8333333333333</ele><time>2026-04-06T13:38:31.436Z</time></trkpt><trkpt lat="45.8589009" lon="11.7445348"><ele>1150.0</ele><time>2026-04-06T13:38:32.446Z</time></trkpt><trkpt lat="45.8589947" lon="11.7445219"><ele>1150.0</ele><time>2026-04-06T13:38:33.448Z</time></trkpt><trkpt lat="45.859092" lon="11.7445"><ele>1150.0</ele><time>2026-04-06T13:38:34.449Z</time></trkpt><trkpt lat="45.8591886" lon="11.7444735"><ele>1150.0</ele><time>2026-04-06T13:38:35.438Z</time></trkpt><trkpt lat="45.8592844" lon="11.7444395"><ele>1150.0</ele><time>2026-04-06T13:38:36.444Z</time></trkpt><trkpt lat="45.8593816" lon="11.7443993"><ele>1150.0</ele><time>2026-04-06T13:38:37.448Z</time></trkpt><trkpt lat="45.859477" lon="11.7443524"><ele>1146.4</ele><time>2026-04-06T13:38:38.442Z</time></trkpt><trkpt lat="45.8595747" lon="11.7443086"><ele>1142.8</ele><time>2026-04-06T13:38:39.442Z</time></trkpt><trkpt lat="45.8596663" lon="11.7442672"><ele>1139.2</ele><time>2026-04-06T13:38:40.44Z</time></trkpt><trkpt lat="45.8597566" lon="11.7442262"><ele>1135.6</ele><time>2026-04-06T13:38:41.446Z</time></trkpt><trkpt lat="45.8598464" lon="11.7442025"><ele>1132.0</ele><time>2026-04-06T13:38:42.436Z</time></trkpt><trkpt lat="45.8599281" lon="11.7442027"><ele>1132.0</ele><time>2026-04-06T13:38:43.443Z</time></trkpt><trkpt lat="45.8600201" lon="11.7442648"><ele>1132.0</ele><time>2026-04-06T13:38:44.441Z</time></trkpt><trkpt lat="45.8600904" lon="11.744349"><ele>1132.0</ele><time>2026-04-06T13:38:45.431Z</time></trkpt><trkpt lat="45.8601402" lon="11.7444442"><ele>1132.0</ele><time>2026-04-06T13:38:46.454Z</time></trkpt><trkpt lat="45.8601999" lon="11.7445164"><ele>1132.0</ele><time>2026-04-06T13:38:47.445Z</time></trkpt><trkpt lat="45.8602526" lon="11.7445742"><ele>1132.0</ele><time>2026-04-06T13:38:48.435Z</time></trkpt><trkpt lat="45.8603617" lon="11.7445731"><ele>1134.5</ele><time>2026-04-06T13:38:50.427Z</time></trkpt><trkpt lat="45.8603929" lon="11.7444384"><ele>1137.0</ele><time>2026-04-06T13:38:52.434Z</time></trkpt><trkpt lat="45.8603918" lon="11.7443471"><ele>1139.5</ele><time>2026-04-06T13:38:53.439Z</time></trkpt><trkpt lat="45.8603676" lon="11.7442392"><ele>1142.0</ele><time>2026-04-06T13:38:54.429Z</time></trkpt><trkpt lat="45.8603482" lon="11.7441178"><ele>1144.5</ele><time>2026-04-06T13:38:55.436Z</time></trkpt><trkpt lat="45.8603247" lon="11.7439938"><ele>1147.0</ele><time>2026-04-06T13:38:56.431Z</time></trkpt><trkpt lat="45.8602921" lon="11.7438696"><ele>1148.8</ele><time>2026-04-06T13:38:57.446Z</time></trkpt><trkpt lat="45.8602571" lon="11.7437313"><ele>1150.6</ele><time>2026-04-06T13:38:58.45Z</time></trkpt><trkpt lat="45.8602175" lon="11.7435874"><ele>1152.3999999999999</ele><time>2026-04-06T13:38:59.447Z</time></trkpt><trkpt lat="45.8601773" lon="11.7434458"><ele>1154.2</ele><time>2026-04-06T13:39:00.453Z</time></trkpt><trkpt lat="45.8601341" lon="11.7432978"><ele>1156.0</ele><time>2026-04-06T13:39:01.438Z</time></trkpt><trkpt lat="45.8600922" lon="11.7431598"><ele>1149.75</ele><time>2026-04-06T13:39:02.448Z</time></trkpt><trkpt lat="45.860045" lon="11.7430243"><ele>1143.5</ele><time>2026-04-06T13:39:03.447Z</time></trkpt><trkpt lat="45.8599797" lon="11.7428898"><ele>1137.25</ele><time>2026-04-06T13:39:04.45Z</time></trkpt><trkpt lat="45.859901" lon="11.7427685"><ele>1131.0</ele><time>2026-04-06T13:39:05.45Z</time></trkpt><trkpt lat="45.8598158" lon="11.7426561"><ele>1131.0</ele><time>2026-04-06T13:39:06.435Z</time></trkpt><trkpt lat="45.8597338" lon="11.7425542"><ele>1131.0</ele><time>2026-04-06T13:39:07.452Z</time></trkpt><trkpt lat="45.859655" lon="11.7424561"><ele>1131.0</ele><time>2026-04-06T13:39:08.436Z</time></trkpt><trkpt lat="45.859579" lon="11.7423531"><ele>1131.0</ele><time>2026-04-06T13:39:09.447Z</time></trkpt><trkpt lat="45.8595065" lon="11.7422401"><ele>1131.0</ele><time>2026-04-06T13:39:10.436Z</time></trkpt><trkpt lat="45.8594426" lon="11.7421177"><ele>1131.0</ele><time>2026-04-06T13:39:11.448Z</time></trkpt><trkpt lat="45.8593863" lon="11.7419984"><ele>1131.0</ele><time>2026-04-06T13:39:12.453Z</time></trkpt><trkpt lat="45.85934" lon="11.7418564"><ele>1131.0</ele><time>2026-04-06T13:39:13.446Z</time></trkpt><trkpt lat="45.8592986" lon="11.74169"><ele>1131.0</ele><time>2026-04-06T13:39:14.452Z</time></trkpt><trkpt lat="45.8592482" lon="11.7415681"><ele>1131.0</ele><time>2026-04-06T13:39:15.441Z</time></trkpt><trkpt lat="45.8591823" lon="11.7414559"><ele>1127.6</ele><time>2026-04-06T13:39:16.448Z</time></trkpt><trkpt lat="45.8591115" lon="11.7413682"><ele>1124.1999999999998</ele><time>2026-04-06T13:39:17.436Z</time></trkpt><trkpt lat="45.8590641" lon="11.741264"><ele>1120.8000000000002</ele><time>2026-04-06T13:39:18.446Z</time></trkpt><trkpt lat="45.859054" lon="11.7411232"><ele>1117.4</ele><time>2026-04-06T13:39:19.436Z</time></trkpt><trkpt lat="45.8590659" lon="11.7409776"><ele>1114.0</ele><time>2026-04-06T13:39:20.45Z</time></trkpt><trkpt lat="45.8590522" lon="11.7408313"><ele>1114.0</ele><time>2026-04-06T13:39:21.448Z</time></trkpt><trkpt lat="45.8590073" lon="11.7407209"><ele>1114.0</ele><time>2026-04-06T13:39:22.441Z</time></trkpt><trkpt lat="45.8589394" lon="11.7406448"><ele>1114.0</ele><time>2026-04-06T13:39:23.438Z</time></trkpt><trkpt lat="45.8588666" lon="11.7405775"><ele>1114.0</ele><time>2026-04-06T13:39:24.449Z</time></trkpt><trkpt lat="45.8587902" lon="11.7405155"><ele>1114.0</ele><time>2026-04-06T13:39:25.45Z</time></trkpt><trkpt lat="45.8587134" lon="11.7404501"><ele>1114.0</ele><time>2026-04-06T13:39:26.43Z</time></trkpt><trkpt lat="45.8586392" lon="11.7403756"><ele>1114.0</ele><time>2026-04-06T13:39:27.445Z</time></trkpt><trkpt lat="45.8585718" lon="11.7402778"><ele>1114.0</ele><time>2026-04-06T13:39:28.446Z</time></trkpt><trkpt lat="45.8585163" lon="11.7401696"><ele>1114.0</ele><time>2026-04-06T13:39:29.431Z</time></trkpt><trkpt lat="45.858457" lon="11.740054"><ele>1114.0</ele><time>2026-04-06T13:39:30.446Z</time></trkpt><trkpt lat="45.8583956" lon="11.7399293"><ele>1114.0</ele><time>2026-04-06T13:39:31.443Z</time></trkpt><trkpt lat="45.8583388" lon="11.7398069"><ele>1112.2</ele><time>2026-04-06T13:39:32.44Z</time></trkpt><trkpt lat="45.8582873" lon="11.7396863"><ele>1110.4</ele><time>2026-04-06T13:39:33.44Z</time></trkpt><trkpt lat="45.8582385" lon="11.7395741"><ele>1108.6</ele><time>2026-04-06T13:39:34.447Z</time></trkpt><trkpt lat="45.8582011" lon="11.7394619"><ele>1106.8</ele><time>2026-04-06T13:39:35.439Z</time></trkpt><trkpt lat="45.8581846" lon="11.7393235"><ele>1105.0</ele><time>2026-04-06T13:39:36.438Z</time></trkpt><trkpt lat="45.8581599" lon="11.7391674"><ele>1105.0</ele><time>2026-04-06T13:39:37.449Z</time></trkpt><trkpt lat="45.8581331" lon="11.7390207"><ele>1105.0</ele><time>2026-04-06T13:39:38.438Z</time></trkpt><trkpt lat="45.8580927" lon="11.7388935"><ele>1105.0</ele><time>2026-04-06T13:39:39.455Z</time></trkpt><trkpt lat="45.8580554" lon="11.7387742"><ele>1105.0</ele><time>2026-04-06T13:39:40.447Z</time></trkpt><trkpt lat="45.8580273" lon="11.7386491"><ele>1105.0</ele><time>2026-04-06T13:39:41.445Z</time></trkpt><trkpt lat="45.8580203" lon="11.7385317"><ele>1104.8333333333333</ele><time>2026-04-06T13:39:42.448Z</time></trkpt><trkpt lat="45.8580318" lon="11.7384148"><ele>1104.6666666666665</ele><time>2026-04-06T13:39:43.446Z</time></trkpt><trkpt lat="45.8580499" lon="11.7383042"><ele>1104.5</ele><time>2026-04-06T13:39:44.438Z</time></trkpt><trkpt lat="45.858072" lon="11.7381879"><ele>1104.3333333333333</ele><time>2026-04-06T13:39:45.451Z</time></trkpt><trkpt lat="45.8580924" lon="11.7380573"><ele>1104.1666666666667</ele><time>2026-04-06T13:39:46.452Z</time></trkpt><trkpt lat="45.8581109" lon="11.737919"><ele>1104.0</ele><time>2026-04-06T13:39:47.452Z</time></trkpt><trkpt lat="45.8581285" lon="11.7377918"><ele>1102.5</ele><time>2026-04-06T13:39:48.446Z</time></trkpt><trkpt lat="45.8581436" lon="11.7376871"><ele>1101.0</ele><time>2026-04-06T13:39:49.463Z</time></trkpt><trkpt lat="45.8581814" lon="11.737587"><ele>1099.5</ele><time>2026-04-06T13:39:50.444Z</time></trkpt><trkpt lat="45.8582326" lon="11.7374973"><ele>1098.0</ele><time>2026-04-06T13:39:51.428Z</time></trkpt><trkpt lat="45.858299" lon="11.7374151"><ele>1096.5</ele><time>2026-04-06T13:39:52.437Z</time></trkpt><trkpt lat="45.8583692" lon="11.7373349"><ele>1095.0</ele><time>2026-04-06T13:39:53.446Z</time></trkpt><trkpt lat="45.858442" lon="11.7372503"><ele>1098.2</ele><time>2026-04-06T13:39:54.441Z</time></trkpt><trkpt lat="45.8584929" lon="11.7371402"><ele>1101.4</ele><time>2026-04-06T13:39:55.46Z</time></trkpt><trkpt lat="45.8585205" lon="11.737007"><ele>1104.6</ele><time>2026-04-06T13:39:56.436Z</time></trkpt><trkpt lat="45.8585263" lon="11.7368678"><ele>1107.8</ele><time>2026-04-06T13:39:57.45Z</time></trkpt><trkpt lat="45.8585258" lon="11.7367276"><ele>1111.0</ele><time>2026-04-06T13:39:58.447Z</time></trkpt><trkpt lat="45.8585197" lon="11.7365891"><ele>1111.0</ele><time>2026-04-06T13:39:59.453Z</time></trkpt><trkpt lat="45.8585068" lon="11.7364419"><ele>1111.0</ele><time>2026-04-06T13:40:00.455Z</time></trkpt><trkpt lat="45.8584855" lon="11.736294"><ele>1111.0</ele><time>2026-04-06T13:40:01.436Z</time></trkpt><trkpt lat="45.8584627" lon="11.7361556"><ele>1111.0</ele><time>2026-04-06T13:40:02.437Z</time></trkpt><trkpt lat="45.85844" lon="11.7360208"><ele>1111.0</ele><time>2026-04-06T13:40:03.444Z</time></trkpt><trkpt lat="45.8584249" lon="11.7358874"><ele>1110.5</ele><time>2026-04-06T13:40:04.443Z</time></trkpt><trkpt lat="45.85845" lon="11.7357228"><ele>1110.0</ele><time>2026-04-06T13:40:05.447Z</time></trkpt><trkpt lat="45.8584854" lon="11.7355507"><ele>1109.5</ele><time>2026-04-06T13:40:06.438Z</time></trkpt><trkpt lat="45.8585264" lon="11.7353501"><ele>1109.0</ele><time>2026-04-06T13:40:07.436Z</time></trkpt><trkpt lat="45.8585698" lon="11.7351293"><ele>1106.6666666666667</ele><time>2026-04-06T13:40:08.434Z</time></trkpt><trkpt lat="45.858626" lon="11.7348939"><ele>1104.3333333333333</ele><time>2026-04-06T13:40:09.434Z</time></trkpt><trkpt lat="45.8587027" lon="11.7346625"><ele>1102.0</ele><time>2026-04-06T13:40:10.445Z</time></trkpt><trkpt lat="45.858768" lon="11.7344313"><ele>1098.5</ele><time>2026-04-06T13:40:11.437Z</time></trkpt><trkpt lat="45.85882" lon="11.7342065"><ele>1095.0</ele><time>2026-04-06T13:40:12.436Z</time></trkpt><trkpt lat="45.8588658" lon="11.7339995"><ele>1091.5</ele><time>2026-04-06T13:40:13.437Z</time></trkpt><trkpt lat="45.8588931" lon="11.7338164"><ele>1088.0</ele><time>2026-04-06T13:40:14.439Z</time></trkpt><trkpt lat="45.8589313" lon="11.7336702"><ele>1085.8</ele><time>2026-04-06T13:40:15.442Z</time></trkpt><trkpt lat="45.8589655" lon="11.7335305"><ele>1083.6</ele><time>2026-04-06T13:40:16.431Z</time></trkpt><trkpt lat="45.8590177" lon="11.7334157"><ele>1081.4</ele><time>2026-04-06T13:40:17.439Z</time></trkpt><trkpt lat="45.8590852" lon="11.7333158"><ele>1079.2</ele><time>2026-04-06T13:40:18.446Z</time></trkpt><trkpt lat="45.8591398" lon="11.7332007"><ele>1077.0</ele><time>2026-04-06T13:40:19.444Z</time></trkpt><trkpt lat="45.8591715" lon="11.7330622"><ele>1077.0</ele><time>2026-04-06T13:40:20.441Z</time></trkpt><trkpt lat="45.8591434" lon="11.7329186"><ele>1077.0</ele><time>2026-04-06T13:40:21.445Z</time></trkpt><trkpt lat="45.8590371" lon="11.732775"><ele>1077.0</ele><time>2026-04-06T13:40:22.452Z</time></trkpt><trkpt lat="45.8589156" lon="11.7326207"><ele>1077.0</ele><time>2026-04-06T13:40:23.431Z</time></trkpt><trkpt lat="45.8588242" lon="11.732477"><ele>1076.8333333333333</ele><time>2026-04-06T13:40:24.436Z</time></trkpt><trkpt lat="45.8587423" lon="11.7323741"><ele>1076.6666666666667</ele><time>2026-04-06T13:40:25.442Z</time></trkpt><trkpt lat="45.8586669" lon="11.7323096"><ele>1076.5</ele><time>2026-04-06T13:40:26.447Z</time></trkpt><trkpt lat="45.8585748" lon="11.7322796"><ele>1076.3333333333335</ele><time>2026-04-06T13:40:27.439Z</time></trkpt><trkpt lat="45.8584959" lon="11.7322931"><ele>1076.1666666666667</ele><time>2026-04-06T13:40:28.444Z</time></trkpt><trkpt lat="45.8584286" lon="11.7323457"><ele>1076.0</ele><time>2026-04-06T13:40:29.442Z</time></trkpt><trkpt lat="45.8583824" lon="11.7324412"><ele>1074.0</ele><time>2026-04-06T13:40:30.438Z</time></trkpt><trkpt lat="45.8583398" lon="11.732571"><ele>1072.0</ele><time>2026-04-06T13:40:31.422Z</time></trkpt><trkpt lat="45.8583389" lon="11.7327467"><ele>1070.0</ele><time>2026-04-06T13:40:32.449Z</time></trkpt><trkpt lat="45.8583317" lon="11.7329016"><ele>1068.0</ele><time>2026-04-06T13:40:33.446Z</time></trkpt><trkpt lat="45.8583224" lon="11.7330329"><ele>1066.0</ele><time>2026-04-06T13:40:34.445Z</time></trkpt><trkpt lat="45.8582446" lon="11.7331362"><ele>1064.5</ele><time>2026-04-06T13:40:35.439Z</time></trkpt><trkpt lat="45.8581425" lon="11.7331959"><ele>1063.0</ele><time>2026-04-06T13:40:36.444Z</time></trkpt><trkpt lat="45.8580147" lon="11.7332516"><ele>1061.5</ele><time>2026-04-06T13:40:37.448Z</time></trkpt><trkpt lat="45.8578887" lon="11.733346"><ele>1060.0</ele><time>2026-04-06T13:40:38.44Z</time></trkpt><trkpt lat="45.8577913" lon="11.7334472"><ele>1060.0</ele><time>2026-04-06T13:40:39.448Z</time></trkpt><trkpt lat="45.8577083" lon="11.7335424"><ele>1060.0</ele><time>2026-04-06T13:40:40.443Z</time></trkpt><trkpt lat="45.8576176" lon="11.7336047"><ele>1060.0</ele><time>2026-04-06T13:40:41.451Z</time></trkpt><trkpt lat="45.8575135" lon="11.733623"><ele>1060.0</ele><time>2026-04-06T13:40:42.451Z</time></trkpt><trkpt lat="45.8574019" lon="11.7335987"><ele>1060.0</ele><time>2026-04-06T13:40:43.443Z</time></trkpt><trkpt lat="45.8572976" lon="11.7335676"><ele>1059.8</ele><time>2026-04-06T13:40:44.442Z</time></trkpt><trkpt lat="45.8572025" lon="11.7335193"><ele>1059.6</ele><time>2026-04-06T13:40:45.448Z</time></trkpt><trkpt lat="45.8571087" lon="11.7334637"><ele>1059.4</ele><time>2026-04-06T13:40:46.436Z</time></trkpt><trkpt lat="45.8570105" lon="11.7335005"><ele>1059.2</ele><time>2026-04-06T13:40:47.442Z</time></trkpt><trkpt lat="45.8569484" lon="11.733601"><ele>1059.0</ele><time>2026-04-06T13:40:48.435Z</time></trkpt><trkpt lat="45.8568876" lon="11.733768"><ele>1059.6000000000001</ele><time>2026-04-06T13:40:49.448Z</time></trkpt><trkpt lat="45.8568258" lon="11.7339063"><ele>1060.2</ele><time>2026-04-06T13:40:50.443Z</time></trkpt><trkpt lat="45.8567602" lon="11.7340083"><ele>1060.8000000000002</ele><time>2026-04-06T13:40:51.448Z</time></trkpt><trkpt lat="45.856674" lon="11.7340705"><ele>1061.4</ele><time>2026-04-06T13:40:52.441Z</time></trkpt><trkpt lat="45.8565758" lon="11.7341352"><ele>1062.0</ele><time>2026-04-06T13:40:53.44Z</time></trkpt><trkpt lat="45.8564745" lon="11.7342104"><ele>1062.0</ele><time>2026-04-06T13:40:54.451Z</time></trkpt><trkpt lat="45.8563995" lon="11.734331"><ele>1062.0</ele><time>2026-04-06T13:40:55.435Z</time></trkpt><trkpt lat="45.8563518" lon="11.7344941"><ele>1062.0</ele><time>2026-04-06T13:40:56.439Z</time></trkpt><trkpt lat="45.8562872" lon="11.7346608"><ele>1062.0</ele><time>2026-04-06T13:40:57.453Z</time></trkpt><trkpt lat="45.8562084" lon="11.7348032"><ele>1060.6</ele><time>2026-04-06T13:40:58.446Z</time></trkpt><trkpt lat="45.8561283" lon="11.7349229"><ele>1059.2</ele><time>2026-04-06T13:40:59.428Z</time></trkpt><trkpt lat="45.8560565" lon="11.7350139"><ele>1057.8</ele><time>2026-04-06T13:41:00.441Z</time></trkpt><trkpt lat="45.8559908" lon="11.7350767"><ele>1056.4</ele><time>2026-04-06T13:41:01.437Z</time></trkpt><trkpt lat="45.8558771" lon="11.7350806"><ele>1055.0</ele><time>2026-04-06T13:41:02.447Z</time></trkpt><trkpt lat="45.8557525" lon="11.7350766"><ele>1055.0</ele><time>2026-04-06T13:41:03.446Z</time></trkpt><trkpt lat="45.8556076" lon="11.7350516"><ele>1055.0</ele><time>2026-04-06T13:41:04.454Z</time></trkpt><trkpt lat="45.8555071" lon="11.7350105"><ele>1055.0</ele><time>2026-04-06T13:41:05.456Z</time></trkpt><trkpt lat="45.8554084" lon="11.7349191"><ele>1055.0</ele><time>2026-04-06T13:41:06.439Z</time></trkpt><trkpt lat="45.8552903" lon="11.7347913"><ele>1055.0</ele><time>2026-04-06T13:41:07.442Z</time></trkpt><trkpt lat="45.8551493" lon="11.7347044"><ele>1055.0</ele><time>2026-04-06T13:41:08.436Z</time></trkpt><trkpt lat="45.8550235" lon="11.7346289"><ele>1055.0</ele><time>2026-04-06T13:41:09.442Z</time></trkpt><trkpt lat="45.8549196" lon="11.7346065"><ele>1055.0</ele><time>2026-04-06T13:41:10.437Z</time></trkpt><trkpt lat="45.8548007" lon="11.7346044"><ele>1053.0</ele><time>2026-04-06T13:41:11.432Z</time></trkpt><trkpt lat="45.8546828" lon="11.7347295"><ele>1051.0</ele><time>2026-04-06T13:41:12.448Z</time></trkpt><trkpt lat="45.8545927" lon="11.7348366"><ele>1049.0</ele><time>2026-04-06T13:41:13.437Z</time></trkpt><trkpt lat="45.854513" lon="11.7349404"><ele>1047.0</ele><time>2026-04-06T13:41:14.429Z</time></trkpt><trkpt lat="45.8544387" lon="11.7350176"><ele>1047.0</ele><time>2026-04-06T13:41:15.454Z</time></trkpt><trkpt lat="45.8543308" lon="11.735045"><ele>1047.0</ele><time>2026-04-06T13:41:16.442Z</time></trkpt><trkpt lat="45.8542152" lon="11.7350627"><ele>1047.0</ele><time>2026-04-06T13:41:17.445Z</time></trkpt><trkpt lat="45.8540703" lon="11.7350758"><ele>1047.0</ele><time>2026-04-06T13:41:18.444Z</time></trkpt><trkpt lat="45.8539597" lon="11.7351425"><ele>1044.0</ele><time>2026-04-06T13:41:19.449Z</time></trkpt><trkpt lat="45.8538938" lon="11.7352775"><ele>1041.0</ele><time>2026-04-06T13:41:20.434Z</time></trkpt><trkpt lat="45.8538463" lon="11.7354298"><ele>1038.0</ele><time>2026-04-06T13:41:21.452Z</time></trkpt><trkpt lat="45.8537735" lon="11.7355208"><ele>1035.0</ele><time>2026-04-06T13:41:22.424Z</time></trkpt><trkpt lat="45.8536801" lon="11.7356077"><ele>1032.0</ele><time>2026-04-06T13:41:23.451Z</time></trkpt><trkpt lat="45.8535529" lon="11.7356542"><ele>1037.6666666666667</ele><time>2026-04-06T13:41:24.452Z</time></trkpt><trkpt lat="45.8534175" lon="11.7357255"><ele>1043.3333333333335</ele><time>2026-04-06T13:41:25.444Z</time></trkpt><trkpt lat="45.853277" lon="11.7358301"><ele>1049.0</ele><time>2026-04-06T13:41:26.447Z</time></trkpt><trkpt lat="45.8531191" lon="11.7359838"><ele>1041.0</ele><time>2026-04-06T13:41:27.441Z</time></trkpt><trkpt lat="45.852959" lon="11.7361285"><ele>1033.0</ele><time>2026-04-06T13:41:28.442Z</time></trkpt><trkpt lat="45.8528202" lon="11.7362501"><ele>1025.0</ele><time>2026-04-06T13:41:29.448Z</time></trkpt><trkpt lat="45.852702" lon="11.7363505"><ele>1029.5</ele><time>2026-04-06T13:41:30.443Z</time></trkpt><trkpt lat="45.8525915" lon="11.7364306"><ele>1034.0</ele><time>2026-04-06T13:41:31.447Z</time></trkpt><trkpt lat="45.8525027" lon="11.7365259"><ele>1038.5</ele><time>2026-04-06T13:41:32.447Z</time></trkpt><trkpt lat="45.8524529" lon="11.7366706"><ele>1043.0</ele><time>2026-04-06T13:41:33.444Z</time></trkpt><trkpt lat="45.8524121" lon="11.736814"><ele>1041.5</ele><time>2026-04-06T13:41:34.436Z</time></trkpt><trkpt lat="45.8524033" lon="11.7369863"><ele>1040.0</ele><time>2026-04-06T13:41:35.446Z</time></trkpt><trkpt lat="45.8524346" lon="11.7371655"><ele>1038.5</ele><time>2026-04-06T13:41:36.437Z</time></trkpt><trkpt lat="45.852456" lon="11.7373316"><ele>1037.0</ele><time>2026-04-06T13:41:37.446Z</time></trkpt><trkpt lat="45.852461" lon="11.7374923"><ele>1037.0</ele><time>2026-04-06T13:41:38.448Z</time></trkpt><trkpt lat="45.8524367" lon="11.7376369"><ele>1037.0</ele><time>2026-04-06T13:41:39.436Z</time></trkpt><trkpt lat="45.8523826" lon="11.7377952"><ele>1037.0</ele><time>2026-04-06T13:41:40.447Z</time></trkpt><trkpt lat="45.8522861" lon="11.7379321"><ele>1037.0</ele><time>2026-04-06T13:41:41.44Z</time></trkpt><trkpt lat="45.8521879" lon="11.7380502"><ele>1038.8</ele><time>2026-04-06T13:41:42.44Z</time></trkpt><trkpt lat="45.8520911" lon="11.7381607"><ele>1040.6</ele><time>2026-04-06T13:41:43.442Z</time></trkpt><trkpt lat="45.8519871" lon="11.7382257"><ele>1042.3999999999999</ele><time>2026-04-06T13:41:44.435Z</time></trkpt><trkpt lat="45.8518745" lon="11.7382639"><ele>1044.2</ele><time>2026-04-06T13:41:45.446Z</time></trkpt><trkpt lat="45.8517987" lon="11.738345"><ele>1046.0</ele><time>2026-04-06T13:41:46.445Z</time></trkpt><trkpt lat="45.8517586" lon="11.7384612"><ele>1046.25</ele><time>2026-04-06T13:41:47.44Z</time></trkpt><trkpt lat="45.8517639" lon="11.7386106"><ele>1046.5</ele><time>2026-04-06T13:41:48.427Z</time></trkpt><trkpt lat="45.8518006" lon="11.7387594"><ele>1046.75</ele><time>2026-04-06T13:41:49.439Z</time></trkpt><trkpt lat="45.8518601" lon="11.7389072"><ele>1047.0</ele><time>2026-04-06T13:41:50.444Z</time></trkpt><trkpt lat="45.8519548" lon="11.7390595"><ele>1041.0</ele><time>2026-04-06T13:41:51.432Z</time></trkpt><trkpt lat="45.8520441" lon="11.7392266"><ele>1035.0</ele><time>2026-04-06T13:41:52.443Z</time></trkpt><trkpt lat="45.8521199" lon="11.7393951"><ele>1029.0</ele><time>2026-04-06T13:41:53.444Z</time></trkpt><trkpt lat="45.8521832" lon="11.7395516"><ele>1023.0</ele><time>2026-04-06T13:41:54.441Z</time></trkpt><trkpt lat="45.8522221" lon="11.7397113"><ele>1021.75</ele><time>2026-04-06T13:41:55.445Z</time></trkpt><trkpt lat="45.8522281" lon="11.7398832"><ele>1020.5</ele><time>2026-04-06T13:41:56.441Z</time></trkpt><trkpt lat="45.8522013" lon="11.7400699"><ele>1019.25</ele><time>2026-04-06T13:41:57.43Z</time></trkpt><trkpt lat="45.8521471" lon="11.7402662"><ele>1018.0</ele><time>2026-04-06T13:41:58.442Z</time></trkpt><trkpt lat="45.8520789" lon="11.7404525"><ele>1018.5</ele><time>2026-04-06T13:41:59.447Z</time></trkpt><trkpt lat="45.8520029" lon="11.7406242"><ele>1019.0</ele><time>2026-04-06T13:42:00.453Z</time></trkpt><trkpt lat="45.8519035" lon="11.7407831"><ele>1019.5</ele><time>2026-04-06T13:42:01.426Z</time></trkpt><trkpt lat="45.851789" lon="11.7409386"><ele>1020.0</ele><time>2026-04-06T13:42:02.429Z</time></trkpt><trkpt lat="45.851684" lon="11.7411128"><ele>1020.0</ele><time>2026-04-06T13:42:03.437Z</time></trkpt><trkpt lat="45.8516022" lon="11.7413065"><ele>1020.0</ele><time>2026-04-06T13:42:04.43Z</time></trkpt><trkpt lat="45.8515106" lon="11.7415243"><ele>1020.0</ele><time>2026-04-06T13:42:05.438Z</time></trkpt><trkpt lat="45.8514332" lon="11.7417226"><ele>1015.0</ele><time>2026-04-06T13:42:06.429Z</time></trkpt><trkpt lat="45.8513486" lon="11.7419244"><ele>1010.0</ele><time>2026-04-06T13:42:07.437Z</time></trkpt><trkpt lat="45.8512639" lon="11.7420875"><ele>1005.0</ele><time>2026-04-06T13:42:08.436Z</time></trkpt><trkpt lat="45.8511825" lon="11.7422295"><ele>1000.0</ele><time>2026-04-06T13:42:09.442Z</time></trkpt><trkpt lat="45.8511072" lon="11.7423528"><ele>1000.0</ele><time>2026-04-06T13:42:10.448Z</time></trkpt><trkpt lat="45.8510327" lon="11.7424409"><ele>1000.0</ele><time>2026-04-06T13:42:11.45Z</time></trkpt><trkpt lat="45.8509131" lon="11.7425301"><ele>1000.0</ele><time>2026-04-06T13:42:12.466Z</time></trkpt><trkpt lat="45.8507893" lon="11.7426272"><ele>1000.0</ele><time>2026-04-06T13:42:13.443Z</time></trkpt><trkpt lat="45.8506539" lon="11.7427186"><ele>999.0</ele><time>2026-04-06T13:42:14.448Z</time></trkpt><trkpt lat="45.8505392" lon="11.7427948"><ele>998.0</ele><time>2026-04-06T13:42:15.453Z</time></trkpt><trkpt lat="45.8504402" lon="11.7428413"><ele>997.0</ele><time>2026-04-06T13:42:16.457Z</time></trkpt><trkpt lat="45.8503382" lon="11.7428598"><ele>996.0</ele><time>2026-04-06T13:42:17.453Z</time></trkpt><trkpt lat="45.8502414" lon="11.7428758"><ele>995.0</ele><time>2026-04-06T13:42:18.46Z</time></trkpt><trkpt lat="45.8501411" lon="11.7428395"><ele>997.25</ele><time>2026-04-06T13:42:19.446Z</time></trkpt><trkpt lat="45.8500241" lon="11.7427724"><ele>999.5</ele><time>2026-04-06T13:42:20.45Z</time></trkpt><trkpt lat="45.8499058" lon="11.7427292"><ele>1001.75</ele><time>2026-04-06T13:42:21.455Z</time></trkpt><trkpt lat="45.849787" lon="11.7427244"><ele>1004.0</ele><time>2026-04-06T13:42:22.445Z</time></trkpt><trkpt lat="45.8496488" lon="11.7427869"><ele>1004.0</ele><time>2026-04-06T13:42:23.44Z</time></trkpt><trkpt lat="45.849507" lon="11.7428415"><ele>1004.0</ele><time>2026-04-06T13:42:24.45Z</time></trkpt><trkpt lat="45.8493726" lon="11.7428922"><ele>1004.0</ele><time>2026-04-06T13:42:25.459Z</time></trkpt><trkpt lat="45.849232" lon="11.7429132"><ele>1004.0</ele><time>2026-04-06T13:42:26.446Z</time></trkpt><trkpt lat="45.8490939" lon="11.7429412"><ele>1007.6666666666667</ele><time>2026-04-06T13:42:27.455Z</time></trkpt><trkpt lat="45.8489496" lon="11.7430008"><ele>1011.3333333333333</ele><time>2026-04-06T13:42:28.443Z</time></trkpt><trkpt lat="45.8488063" lon="11.7431134"><ele>1015.0</ele><time>2026-04-06T13:42:29.449Z</time></trkpt><trkpt lat="45.8486729" lon="11.7432615"><ele>1015.0</ele><time>2026-04-06T13:42:30.456Z</time></trkpt><trkpt lat="45.8485756" lon="11.7434"><ele>1015.0</ele><time>2026-04-06T13:42:31.446Z</time></trkpt><trkpt lat="45.8484703" lon="11.7435196"><ele>1015.0</ele><time>2026-04-06T13:42:32.451Z</time></trkpt><trkpt lat="45.8483486" lon="11.7436265"><ele>1015.0</ele><time>2026-04-06T13:42:33.449Z</time></trkpt><trkpt lat="45.8482069" lon="11.7437268"><ele>1011.0</ele><time>2026-04-06T13:42:34.451Z</time></trkpt><trkpt lat="45.8480426" lon="11.7438147"><ele>1007.0</ele><time>2026-04-06T13:42:35.449Z</time></trkpt><trkpt lat="45.8478944" lon="11.7438938"><ele>1003.0</ele><time>2026-04-06T13:42:36.448Z</time></trkpt><trkpt lat="45.847754" lon="11.7439603"><ele>1003.0</ele><time>2026-04-06T13:42:37.456Z</time></trkpt><trkpt lat="45.8476495" lon="11.7440166"><ele>1003.0</ele><time>2026-04-06T13:42:38.447Z</time></trkpt><trkpt lat="45.8475502" lon="11.7440684"><ele>1003.0</ele><time>2026-04-06T13:42:39.445Z</time></trkpt><trkpt lat="45.8474528" lon="11.7440397"><ele>1003.0</ele><time>2026-04-06T13:42:40.451Z</time></trkpt><trkpt lat="45.8473829" lon="11.7439403"><ele>1003.0</ele><time>2026-04-06T13:42:41.439Z</time></trkpt><trkpt lat="45.8473233" lon="11.7437763"><ele>1004.5</ele><time>2026-04-06T13:42:42.431Z</time></trkpt><trkpt lat="45.8472547" lon="11.7435937"><ele>1006.0</ele><time>2026-04-06T13:42:43.438Z</time></trkpt><trkpt lat="45.8471658" lon="11.7434303"><ele>1007.5</ele><time>2026-04-06T13:42:44.435Z</time></trkpt><trkpt lat="45.8470689" lon="11.74331"><ele>1009.0</ele><time>2026-04-06T13:42:45.439Z</time></trkpt><trkpt lat="45.8469719" lon="11.743234"><ele>1011.0</ele><time>2026-04-06T13:42:46.441Z</time></trkpt><trkpt lat="45.8468693" lon="11.7431871"><ele>1013.0</ele><time>2026-04-06T13:42:47.44Z</time></trkpt><trkpt lat="45.8467612" lon="11.7431448"><ele>1015.0</ele><time>2026-04-06T13:42:48.447Z</time></trkpt><trkpt lat="45.8466423" lon="11.7432429"><ele>1017.0</ele><time>2026-04-06T13:42:49.439Z</time></trkpt><trkpt lat="45.8465523" lon="11.7433852"><ele>1013.0</ele><time>2026-04-06T13:42:50.446Z</time></trkpt><trkpt lat="45.846474" lon="11.7435828"><ele>1009.0</ele><time>2026-04-06T13:42:51.443Z</time></trkpt><trkpt lat="45.8463996" lon="11.7437774"><ele>1005.0</ele><time>2026-04-06T13:42:52.447Z</time></trkpt><trkpt lat="45.8463205" lon="11.7439496"><ele>1005.0</ele><time>2026-04-06T13:42:53.444Z</time></trkpt><trkpt lat="45.8462392" lon="11.7441081"><ele>1005.0</ele><time>2026-04-06T13:42:54.448Z</time></trkpt><trkpt lat="45.8461213" lon="11.7442583"><ele>1005.0</ele><time>2026-04-06T13:42:55.441Z</time></trkpt><trkpt lat="45.8459848" lon="11.744397"><ele>1005.6666666666667</ele><time>2026-04-06T13:42:56.454Z</time></trkpt><trkpt lat="45.8458585" lon="11.744539"><ele>1006.3333333333334</ele><time>2026-04-06T13:42:57.449Z</time></trkpt><trkpt lat="45.8457028" lon="11.7446268"><ele>1007.0</ele><time>2026-04-06T13:42:58.441Z</time></trkpt><trkpt lat="45.8455432" lon="11.7447063"><ele>1007.0</ele><time>2026-04-06T13:42:59.459Z</time></trkpt><trkpt lat="45.8453769" lon="11.7448"><ele>1007.0</ele><time>2026-04-06T13:43:00.444Z</time></trkpt><trkpt lat="45.8452199" lon="11.7448847"><ele>1007.0</ele><time>2026-04-06T13:43:01.445Z</time></trkpt><trkpt lat="45.8451007" lon="11.7449876"><ele>1009.0</ele><time>2026-04-06T13:43:02.457Z</time></trkpt><trkpt lat="45.8450174" lon="11.7450912"><ele>1011.0</ele><time>2026-04-06T13:43:03.438Z</time></trkpt><trkpt lat="45.8449413" lon="11.7451759"><ele>1013.0</ele><time>2026-04-06T13:43:04.439Z</time></trkpt><trkpt lat="45.8448185" lon="11.7452115"><ele>1015.0</ele><time>2026-04-06T13:43:05.428Z</time></trkpt><trkpt lat="45.8446952" lon="11.7451818"><ele>1015.0</ele><time>2026-04-06T13:43:06.444Z</time></trkpt><trkpt lat="45.8445473" lon="11.7450899"><ele>1015.0</ele><time>2026-04-06T13:43:07.439Z</time></trkpt><trkpt lat="45.8444129" lon="11.744948"><ele>1015.0</ele><time>2026-04-06T13:43:08.439Z</time></trkpt><trkpt lat="45.844277" lon="11.7447778"><ele>1017.6666666666666</ele><time>2026-04-06T13:43:09.443Z</time></trkpt><trkpt lat="45.8441341" lon="11.7446001"><ele>1020.3333333333333</ele><time>2026-04-06T13:43:10.445Z</time></trkpt><trkpt lat="45.8440003" lon="11.7444279"><ele>1023.0</ele><time>2026-04-06T13:43:11.444Z</time></trkpt><trkpt lat="45.8438795" lon="11.744271"><ele>1023.0</ele><time>2026-04-06T13:43:12.432Z</time></trkpt><trkpt lat="45.8437599" lon="11.7441019"><ele>1023.0</ele><time>2026-04-06T13:43:13.441Z</time></trkpt><trkpt lat="45.8436418" lon="11.7439123"><ele>1023.0</ele><time>2026-04-06T13:43:14.454Z</time></trkpt><trkpt lat="45.8435412" lon="11.7437088"><ele>1018.6666666666667</ele><time>2026-04-06T13:43:15.439Z</time></trkpt><trkpt lat="45.843442" lon="11.743497"><ele>1014.3333333333334</ele><time>2026-04-06T13:43:16.445Z</time></trkpt><trkpt lat="45.8433309" lon="11.7433142"><ele>1010.0</ele><time>2026-04-06T13:43:17.447Z</time></trkpt><trkpt lat="45.8432254" lon="11.7431552"><ele>1010.0</ele><time>2026-04-06T13:43:18.444Z</time></trkpt><trkpt lat="45.8431278" lon="11.7430149"><ele>1010.0</ele><time>2026-04-06T13:43:19.43Z</time></trkpt><trkpt lat="45.8430571" lon="11.7428747"><ele>1010.0</ele><time>2026-04-06T13:43:20.437Z</time></trkpt><trkpt lat="45.843015" lon="11.7427836"><ele>1010.0</ele><time>2026-04-06T13:43:21.432Z</time></trkpt><trkpt lat="45.8429971" lon="11.7426874"><ele>1010.0</ele><time>2026-04-06T13:43:22.439Z</time></trkpt><trkpt lat="45.8430134" lon="11.7425202"><ele>1014.3333333333334</ele><time>2026-04-06T13:43:23.431Z</time></trkpt><trkpt lat="45.8430384" lon="11.742325"><ele>1018.6666666666667</ele><time>2026-04-06T13:43:24.438Z</time></trkpt><trkpt lat="45.8430285" lon="11.7421143"><ele>1023.0</ele><time>2026-04-06T13:43:25.443Z</time></trkpt><trkpt lat="45.8430005" lon="11.7418747"><ele>1025.3333333333333</ele><time>2026-04-06T13:43:26.436Z</time></trkpt><trkpt lat="45.8429613" lon="11.7416192"><ele>1027.6666666666665</ele><time>2026-04-06T13:43:27.436Z</time></trkpt><trkpt lat="45.8429241" lon="11.7413669"><ele>1030.0</ele><time>2026-04-06T13:43:28.461Z</time></trkpt><trkpt lat="45.842888" lon="11.7411162"><ele>1032.0</ele><time>2026-04-06T13:43:29.446Z</time></trkpt><trkpt lat="45.8428614" lon="11.7409027"><ele>1034.0</ele><time>2026-04-06T13:43:30.436Z</time></trkpt><trkpt lat="45.8428251" lon="11.7407356"><ele>1036.0</ele><time>2026-04-06T13:43:31.436Z</time></trkpt><trkpt lat="45.8427822" lon="11.7406122"><ele>1038.0</ele><time>2026-04-06T13:43:32.439Z</time></trkpt><trkpt lat="45.8427202" lon="11.7405306"><ele>1029.5</ele><time>2026-04-06T13:43:33.442Z</time></trkpt><trkpt lat="45.8426243" lon="11.7404582"><ele>1021.0</ele><time>2026-04-06T13:43:34.443Z</time></trkpt><trkpt lat="45.8425009" lon="11.7404716"><ele>1012.5</ele><time>2026-04-06T13:43:35.439Z</time></trkpt><trkpt lat="45.8423697" lon="11.7404922"><ele>1004.0</ele><time>2026-04-06T13:43:36.434Z</time></trkpt><trkpt lat="45.8422339" lon="11.7405044"><ele>1004.0</ele><time>2026-04-06T13:43:37.444Z</time></trkpt><trkpt lat="45.8421129" lon="11.7404492"><ele>1004.0</ele><time>2026-04-06T13:43:38.449Z</time></trkpt><trkpt lat="45.8419717" lon="11.7403732"><ele>1004.0</ele><time>2026-04-06T13:43:39.443Z</time></trkpt><trkpt lat="45.8418317" lon="11.7402941"><ele>1004.0</ele><time>2026-04-06T13:43:40.434Z</time></trkpt><trkpt lat="45.8417074" lon="11.7401995"><ele>1005.0</ele><time>2026-04-06T13:43:41.444Z</time></trkpt><trkpt lat="45.8415894" lon="11.7400734"><ele>1006.0</ele><time>2026-04-06T13:43:42.433Z</time></trkpt><trkpt lat="45.8414962" lon="11.7398908"><ele>1007.0</ele><time>2026-04-06T13:43:43.452Z</time></trkpt><trkpt lat="45.8414028" lon="11.7396993"><ele>1007.0</ele><time>2026-04-06T13:43:44.444Z</time></trkpt><trkpt lat="45.8413271" lon="11.7394796"><ele>1007.0</ele><time>2026-04-06T13:43:45.446Z</time></trkpt><trkpt lat="45.8412366" lon="11.7392946"><ele>1007.0</ele><time>2026-04-06T13:43:46.446Z</time></trkpt><trkpt lat="45.8411371" lon="11.7391322"><ele>1004.5</ele><time>2026-04-06T13:43:47.445Z</time></trkpt><trkpt lat="45.8410264" lon="11.7389991"><ele>1002.0</ele><time>2026-04-06T13:43:48.437Z</time></trkpt><trkpt lat="45.8409034" lon="11.7389043"><ele>999.5</ele><time>2026-04-06T13:43:49.456Z</time></trkpt><trkpt lat="45.8407807" lon="11.7388211"><ele>997.0</ele><time>2026-04-06T13:43:50.443Z</time></trkpt><trkpt lat="45.8406792" lon="11.7386814"><ele>1003.0</ele><time>2026-04-06T13:43:51.443Z</time></trkpt><trkpt lat="45.8405883" lon="11.7384844"><ele>1009.0</ele><time>2026-04-06T13:43:52.435Z</time></trkpt><trkpt lat="45.8404906" lon="11.7382779"><ele>1015.0</ele><time>2026-04-06T13:43:53.45Z</time></trkpt><trkpt lat="45.8403949" lon="11.7380417"><ele>1015.0</ele><time>2026-04-06T13:43:54.435Z</time></trkpt><trkpt lat="45.8402901" lon="11.7378355"><ele>1015.0</ele><time>2026-04-06T13:43:55.436Z</time></trkpt><trkpt lat="45.8401728" lon="11.7376758"><ele>1015.0</ele><time>2026-04-06T13:43:56.444Z</time></trkpt><trkpt lat="45.8400416" lon="11.7375451"><ele>1011.0</ele><time>2026-04-06T13:43:57.435Z</time></trkpt><trkpt lat="45.8398851" lon="11.7374309"><ele>1007.0</ele><time>2026-04-06T13:43:58.448Z</time></trkpt><trkpt lat="45.8397276" lon="11.7373016"><ele>1003.0</ele><time>2026-04-06T13:43:59.437Z</time></trkpt><trkpt lat="45.8395765" lon="11.7371497"><ele>1003.0</ele><time>2026-04-06T13:44:00.442Z</time></trkpt><trkpt lat="45.839442" lon="11.7370045"><ele>1003.0</ele><time>2026-04-06T13:44:01.441Z</time></trkpt><trkpt lat="45.8393129" lon="11.7368821"><ele>1003.0</ele><time>2026-04-06T13:44:02.453Z</time></trkpt><trkpt lat="45.839171" lon="11.7367989"><ele>1001.0</ele><time>2026-04-06T13:44:03.44Z</time></trkpt><trkpt lat="45.8390146" lon="11.7367551"><ele>999.0</ele><time>2026-04-06T13:44:04.435Z</time></trkpt><trkpt lat="45.8388455" lon="11.7367444"><ele>997.0</ele><time>2026-04-06T13:44:05.443Z</time></trkpt><trkpt lat="45.8386832" lon="11.7367457"><ele>997.0</ele><time>2026-04-06T13:44:06.438Z</time></trkpt><trkpt lat="45.8385319" lon="11.7367463"><ele>997.0</ele><time>2026-04-06T13:44:07.448Z</time></trkpt><trkpt lat="45.8383855" lon="11.7367447"><ele>997.0</ele><time>2026-04-06T13:44:08.459Z</time></trkpt><trkpt lat="45.8382471" lon="11.7367427"><ele>997.0</ele><time>2026-04-06T13:44:09.446Z</time></trkpt><trkpt lat="45.8381256" lon="11.7367397"><ele>997.6</ele><time>2026-04-06T13:44:10.445Z</time></trkpt><trkpt lat="45.8380159" lon="11.7367364"><ele>998.2</ele><time>2026-04-06T13:44:11.446Z</time></trkpt><trkpt lat="45.8379109" lon="11.7367203"><ele>998.8</ele><time>2026-04-06T13:44:12.444Z</time></trkpt><trkpt lat="45.8378135" lon="11.7366769"><ele>999.4</ele><time>2026-04-06T13:44:13.432Z</time></trkpt><trkpt lat="45.8377189" lon="11.7366073"><ele>1000.0</ele><time>2026-04-06T13:44:14.445Z</time></trkpt><trkpt lat="45.8376432" lon="11.7365388"><ele>1000.6</ele><time>2026-04-06T13:44:15.443Z</time></trkpt><trkpt lat="45.8375737" lon="11.7364753"><ele>1001.2</ele><time>2026-04-06T13:44:16.447Z</time></trkpt><trkpt lat="45.8374895" lon="11.7364125"><ele>1001.8</ele><time>2026-04-06T13:44:17.446Z</time></trkpt><trkpt lat="45.8373777" lon="11.7363598"><ele>1002.4</ele><time>2026-04-06T13:44:18.436Z</time></trkpt><trkpt lat="45.8372463" lon="11.7363014"><ele>1003.0</ele><time>2026-04-06T13:44:19.445Z</time></trkpt><trkpt lat="45.837102" lon="11.7362305"><ele>1003.0</ele><time>2026-04-06T13:44:20.44Z</time></trkpt><trkpt lat="45.8369528" lon="11.7361401"><ele>1003.0</ele><time>2026-04-06T13:44:21.457Z</time></trkpt><trkpt lat="45.8367979" lon="11.7360498"><ele>1003.0</ele><time>2026-04-06T13:44:22.437Z</time></trkpt><trkpt lat="45.8366309" lon="11.7359887"><ele>1002.6666666666666</ele><time>2026-04-06T13:44:23.447Z</time></trkpt><trkpt lat="45.8364665" lon="11.7359441"><ele>1002.3333333333333</ele><time>2026-04-06T13:44:24.433Z</time></trkpt><trkpt lat="45.8363156" lon="11.7358805"><ele>1002.0</ele><time>2026-04-06T13:44:25.436Z</time></trkpt><trkpt lat="45.8361743" lon="11.7357819"><ele>1002.0</ele><time>2026-04-06T13:44:26.444Z</time></trkpt><trkpt lat="45.8360423" lon="11.7356532"><ele>1002.0</ele><time>2026-04-06T13:44:27.448Z</time></trkpt><trkpt lat="45.8359192" lon="11.7355001"><ele>1002.0</ele><time>2026-04-06T13:44:28.446Z</time></trkpt><trkpt lat="45.8357994" lon="11.735343"><ele>1004.0</ele><time>2026-04-06T13:44:29.451Z</time></trkpt><trkpt lat="45.8356745" lon="11.7351966"><ele>1006.0</ele><time>2026-04-06T13:44:30.436Z</time></trkpt><trkpt lat="45.8355449" lon="11.7350615"><ele>1008.0</ele><time>2026-04-06T13:44:31.445Z</time></trkpt><trkpt lat="45.8354214" lon="11.7349436"><ele>1008.0</ele><time>2026-04-06T13:44:32.441Z</time></trkpt><trkpt lat="45.835313" lon="11.7348372"><ele>1008.0</ele><time>2026-04-06T13:44:33.449Z</time></trkpt><trkpt lat="45.8352151" lon="11.7347318"><ele>1008.0</ele><time>2026-04-06T13:44:34.449Z</time></trkpt><trkpt lat="45.835133" lon="11.7346039"><ele>1008.0</ele><time>2026-04-06T13:44:35.434Z</time></trkpt><trkpt lat="45.8350732" lon="11.7344491"><ele>1010.8</ele><time>2026-04-06T13:44:36.447Z</time></trkpt><trkpt lat="45.8350377" lon="11.7342882"><ele>1013.5999999999999</ele><time>2026-04-06T13:44:37.454Z</time></trkpt><trkpt lat="45.8350063" lon="11.7341284"><ele>1016.4000000000001</ele><time>2026-04-06T13:44:38.444Z</time></trkpt><trkpt lat="45.834949" lon="11.7340219"><ele>1019.2</ele><time>2026-04-06T13:44:39.437Z</time></trkpt><trkpt lat="45.8348931" lon="11.7339289"><ele>1022.0</ele><time>2026-04-06T13:44:40.433Z</time></trkpt><trkpt lat="45.8347855" lon="11.733924"><ele>1022.0</ele><time>2026-04-06T13:44:41.435Z</time></trkpt><trkpt lat="45.8346801" lon="11.7339421"><ele>1022.0</ele><time>2026-04-06T13:44:42.441Z</time></trkpt><trkpt lat="45.8345729" lon="11.7339767"><ele>1022.0</ele><time>2026-04-06T13:44:43.442Z</time></trkpt><trkpt lat="45.8344687" lon="11.734045"><ele>1022.0</ele><time>2026-04-06T13:44:44.431Z</time></trkpt><trkpt lat="45.8343623" lon="11.7341529"><ele>1022.0</ele><time>2026-04-06T13:44:45.45Z</time></trkpt><trkpt lat="45.8342514" lon="11.7342879"><ele>1022.0</ele><time>2026-04-06T13:44:46.443Z</time></trkpt><trkpt lat="45.8341455" lon="11.7344342"><ele>1022.0</ele><time>2026-04-06T13:44:47.446Z</time></trkpt><trkpt lat="45.8340308" lon="11.7345832"><ele>1022.0</ele><time>2026-04-06T13:44:48.454Z</time></trkpt><trkpt lat="45.8339092" lon="11.7347325"><ele>1022.0</ele><time>2026-04-06T13:44:49.452Z</time></trkpt><trkpt lat="45.8337815" lon="11.7348686"><ele>1022.0</ele><time>2026-04-06T13:44:50.452Z</time></trkpt><trkpt lat="45.8336451" lon="11.7349745"><ele>1022.0</ele><time>2026-04-06T13:44:51.446Z</time></trkpt><trkpt lat="45.8335016" lon="11.7350423"><ele>1021.25</ele><time>2026-04-06T13:44:52.447Z</time></trkpt><trkpt lat="45.8333571" lon="11.7350871"><ele>1020.5</ele><time>2026-04-06T13:44:53.447Z</time></trkpt><trkpt lat="45.833219" lon="11.7351254"><ele>1019.75</ele><time>2026-04-06T13:44:54.444Z</time></trkpt><trkpt lat="45.833089" lon="11.7351479"><ele>1019.0</ele><time>2026-04-06T13:44:55.439Z</time></trkpt><trkpt lat="45.832981" lon="11.7351632"><ele>1019.0</ele><time>2026-04-06T13:44:56.442Z</time></trkpt><trkpt lat="45.8328805" lon="11.7351873"><ele>1019.0000000000001</ele><time>2026-04-06T13:44:57.441Z</time></trkpt><trkpt lat="45.832813" lon="11.7352824"><ele>1019.0000000000001</ele><time>2026-04-06T13:44:58.429Z</time></trkpt><trkpt lat="45.8327539" lon="11.7354288"><ele>1019.0</ele><time>2026-04-06T13:44:59.447Z</time></trkpt><trkpt lat="45.8326926" lon="11.735595"><ele>1019.0</ele><time>2026-04-06T13:45:00.448Z</time></trkpt><trkpt lat="45.832614" lon="11.7357474"><ele>1019.75</ele><time>2026-04-06T13:45:01.449Z</time></trkpt><trkpt lat="45.8325176" lon="11.7358555"><ele>1020.5</ele><time>2026-04-06T13:45:02.442Z</time></trkpt><trkpt lat="45.8323817" lon="11.7359221"><ele>1021.25</ele><time>2026-04-06T13:45:03.435Z</time></trkpt><trkpt lat="45.8322265" lon="11.735955"><ele>1022.0</ele><time>2026-04-06T13:45:04.44Z</time></trkpt><trkpt lat="45.8320853" lon="11.735955"><ele>1022.0</ele><time>2026-04-06T13:45:05.448Z</time></trkpt><trkpt lat="45.8319602" lon="11.7359536"><ele>1022.0</ele><time>2026-04-06T13:45:06.441Z</time></trkpt><trkpt lat="45.8318666" lon="11.7359516"><ele>1022.0</ele><time>2026-04-06T13:45:07.446Z</time></trkpt><trkpt lat="45.8317721" lon="11.7359792"><ele>1022.0</ele><time>2026-04-06T13:45:08.448Z</time></trkpt><trkpt lat="45.8317106" lon="11.7360944"><ele>1022.0</ele><time>2026-04-06T13:45:09.446Z</time></trkpt><trkpt lat="45.831662" lon="11.7362362"><ele>1021.25</ele><time>2026-04-06T13:45:10.447Z</time></trkpt><trkpt lat="45.8316274" lon="11.736396"><ele>1020.5</ele><time>2026-04-06T13:45:11.435Z</time></trkpt><trkpt lat="45.831592" lon="11.7365614"><ele>1019.75</ele><time>2026-04-06T13:45:12.43Z</time></trkpt><trkpt lat="45.8315379" lon="11.7367108"><ele>1019.0</ele><time>2026-04-06T13:45:13.441Z</time></trkpt><trkpt lat="45.831447" lon="11.7368341"><ele>1028.6666666666667</ele><time>2026-04-06T13:45:14.441Z</time></trkpt><trkpt lat="45.8313212" lon="11.736894"><ele>1038.3333333333333</ele><time>2026-04-06T13:45:15.439Z</time></trkpt><trkpt lat="45.8311698" lon="11.7369401"><ele>1048.0</ele><time>2026-04-06T13:45:16.441Z</time></trkpt><trkpt lat="45.8309819" lon="11.7369378"><ele>1042.3333333333333</ele><time>2026-04-06T13:45:17.437Z</time></trkpt><trkpt lat="45.8308031" lon="11.73697"><ele>1036.6666666666667</ele><time>2026-04-06T13:45:18.443Z</time></trkpt><trkpt lat="45.8306259" lon="11.7370128"><ele>1031.0</ele><time>2026-04-06T13:45:19.449Z</time></trkpt><trkpt lat="45.8304399" lon="11.7370081"><ele>1031.0</ele><time>2026-04-06T13:45:20.443Z</time></trkpt><trkpt lat="45.8302478" lon="11.7369716"><ele>1031.0</ele><time>2026-04-06T13:45:21.442Z</time></trkpt><trkpt lat="45.8300569" lon="11.736935"><ele>1031.0</ele><time>2026-04-06T13:45:22.44Z</time></trkpt><trkpt lat="45.8298639" lon="11.7369031"><ele>1019.0</ele><time>2026-04-06T13:45:23.44Z</time></trkpt><trkpt lat="45.8296791" lon="11.7368728"><ele>1007.0</ele><time>2026-04-06T13:45:24.443Z</time></trkpt><trkpt lat="45.8295059" lon="11.7368219"><ele>995.0</ele><time>2026-04-06T13:45:25.442Z</time></trkpt><trkpt lat="45.8293424" lon="11.7367646"><ele>997.0</ele><time>2026-04-06T13:45:26.445Z</time></trkpt><trkpt lat="45.8291706" lon="11.7367274"><ele>999.0</ele><time>2026-04-06T13:45:27.448Z</time></trkpt><trkpt lat="45.8290073" lon="11.7367218"><ele>1001.0</ele><time>2026-04-06T13:45:28.441Z</time></trkpt><trkpt lat="45.8288524" lon="11.7367223"><ele>1001.0</ele><time>2026-04-06T13:45:29.445Z</time></trkpt><trkpt lat="45.8287135" lon="11.7367344"><ele>1001.0</ele><time>2026-04-06T13:45:30.454Z</time></trkpt><trkpt lat="45.8285884" lon="11.7367564"><ele>1001.0</ele><time>2026-04-06T13:45:31.45Z</time></trkpt><trkpt lat="45.828476" lon="11.7368037"><ele>1001.0</ele><time>2026-04-06T13:45:32.453Z</time></trkpt><trkpt lat="45.8283807" lon="11.7368835"><ele>1001.25</ele><time>2026-04-06T13:45:33.447Z</time></trkpt><trkpt lat="45.8282967" lon="11.7370036"><ele>1001.5</ele><time>2026-04-06T13:45:34.443Z</time></trkpt><trkpt lat="45.8282273" lon="11.7371681"><ele>1001.75</ele><time>2026-04-06T13:45:35.444Z</time></trkpt><trkpt lat="45.828174" lon="11.7373662"><ele>1002.0</ele><time>2026-04-06T13:45:36.436Z</time></trkpt><trkpt lat="45.8281404" lon="11.7375898"><ele>1001.0</ele><time>2026-04-06T13:45:37.451Z</time></trkpt><trkpt lat="45.8281286" lon="11.7378241"><ele>1000.0</ele><time>2026-04-06T13:45:38.451Z</time></trkpt><trkpt lat="45.8281402" lon="11.738071"><ele>999.0</ele><time>2026-04-06T13:45:39.462Z</time></trkpt><trkpt lat="45.8281711" lon="11.7383132"><ele>999.0</ele><time>2026-04-06T13:45:40.454Z</time></trkpt><trkpt lat="45.8282219" lon="11.7385373"><ele>999.0</ele><time>2026-04-06T13:45:41.437Z</time></trkpt><trkpt lat="45.8282825" lon="11.7387423"><ele>999.0</ele><time>2026-04-06T13:45:42.445Z</time></trkpt><trkpt lat="45.8283353" lon="11.7389363"><ele>996.5</ele><time>2026-04-06T13:45:43.446Z</time></trkpt><trkpt lat="45.8283654" lon="11.7391255"><ele>994.0</ele><time>2026-04-06T13:45:44.446Z</time></trkpt><trkpt lat="45.8283656" lon="11.7392978"><ele>991.5</ele><time>2026-04-06T13:45:45.449Z</time></trkpt><trkpt lat="45.828337" lon="11.739444"><ele>989.0</ele><time>2026-04-06T13:45:46.441Z</time></trkpt><trkpt lat="45.8282759" lon="11.739581"><ele>987.6</ele><time>2026-04-06T13:45:47.432Z</time></trkpt><trkpt lat="45.8282026" lon="11.7397099"><ele>986.2</ele><time>2026-04-06T13:45:48.447Z</time></trkpt><trkpt lat="45.8281402" lon="11.7398297"><ele>984.8000000000001</ele><time>2026-04-06T13:45:49.44Z</time></trkpt><trkpt lat="45.8280781" lon="11.7399444"><ele>983.4000000000001</ele><time>2026-04-06T13:45:50.432Z</time></trkpt><trkpt lat="45.8280767" lon="11.7400957"><ele>982.0</ele><time>2026-04-06T13:45:51.439Z</time></trkpt><trkpt lat="45.8280985" lon="11.7402614"><ele>980.4000000000001</ele><time>2026-04-06T13:45:52.424Z</time></trkpt><trkpt lat="45.8281325" lon="11.7404132"><ele>978.8000000000001</ele><time>2026-04-06T13:45:53.442Z</time></trkpt><trkpt lat="45.8281863" lon="11.7405305"><ele>977.2</ele><time>2026-04-06T13:45:54.438Z</time></trkpt><trkpt lat="45.8282704" lon="11.7406107"><ele>975.6</ele><time>2026-04-06T13:45:55.436Z</time></trkpt><trkpt lat="45.8283814" lon="11.7406618"><ele>974.0</ele><time>2026-04-06T13:45:56.425Z</time></trkpt><trkpt lat="45.8285101" lon="11.7406878"><ele>974.0</ele><time>2026-04-06T13:45:57.447Z</time></trkpt><trkpt lat="45.8286483" lon="11.7407028"><ele>974.0</ele><time>2026-04-06T13:45:58.443Z</time></trkpt><trkpt lat="45.8287905" lon="11.7407149"><ele>974.0</ele><time>2026-04-06T13:45:59.448Z</time></trkpt><trkpt lat="45.8289418" lon="11.7407355"><ele>974.0</ele><time>2026-04-06T13:46:00.441Z</time></trkpt><trkpt lat="45.8290955" lon="11.7407486"><ele>974.0</ele><time>2026-04-06T13:46:01.444Z</time></trkpt><trkpt lat="45.8292471" lon="11.7407566"><ele>974.0</ele><time>2026-04-06T13:46:02.45Z</time></trkpt><trkpt lat="45.8293866" lon="11.7407583"><ele>974.0</ele><time>2026-04-06T13:46:03.448Z</time></trkpt><trkpt lat="45.8295109" lon="11.7407683"><ele>974.0</ele><time>2026-04-06T13:46:04.448Z</time></trkpt><trkpt lat="45.8296085" lon="11.7407757"><ele>977.0</ele><time>2026-04-06T13:46:05.444Z</time></trkpt><trkpt lat="45.8296878" lon="11.7408281"><ele>980.0000000000001</ele><time>2026-04-06T13:46:06.441Z</time></trkpt><trkpt lat="45.8297426" lon="11.7408964"><ele>983.0000000000001</ele><time>2026-04-06T13:46:07.432Z</time></trkpt><trkpt lat="45.8297409" lon="11.7410286"><ele>986.0</ele><time>2026-04-06T13:46:08.435Z</time></trkpt><trkpt lat="45.8297351" lon="11.7411908"><ele>989.0</ele><time>2026-04-06T13:46:09.439Z</time></trkpt><trkpt lat="45.8296648" lon="11.7413256"><ele>989.75</ele><time>2026-04-06T13:46:10.432Z</time></trkpt><trkpt lat="45.8295954" lon="11.7414656"><ele>990.5</ele><time>2026-04-06T13:46:11.449Z</time></trkpt><trkpt lat="45.8295313" lon="11.7416207"><ele>991.25</ele><time>2026-04-06T13:46:12.438Z</time></trkpt><trkpt lat="45.8294734" lon="11.7418051"><ele>992.0</ele><time>2026-04-06T13:46:13.439Z</time></trkpt><trkpt lat="45.8294384" lon="11.7420099"><ele>993.75</ele><time>2026-04-06T13:46:14.457Z</time></trkpt><trkpt lat="45.8293728" lon="11.7421982"><ele>995.5</ele><time>2026-04-06T13:46:15.454Z</time></trkpt><trkpt lat="45.8293105" lon="11.7423992"><ele>997.25</ele><time>2026-04-06T13:46:16.45Z</time></trkpt><trkpt lat="45.8292538" lon="11.7425808"><ele>999.0</ele><time>2026-04-06T13:46:17.442Z</time></trkpt><trkpt lat="45.8291786" lon="11.7427676"><ele>990.25</ele><time>2026-04-06T13:46:18.45Z</time></trkpt><trkpt lat="45.8291223" lon="11.7429528"><ele>981.5</ele><time>2026-04-06T13:46:19.421Z</time></trkpt><trkpt lat="45.829082" lon="11.743157"><ele>972.75</ele><time>2026-04-06T13:46:20.441Z</time></trkpt><trkpt lat="45.8290387" lon="11.743369"><ele>964.0</ele><time>2026-04-06T13:46:21.448Z</time></trkpt><trkpt lat="45.829009" lon="11.7435629"><ele>963.5</ele><time>2026-04-06T13:46:22.452Z</time></trkpt><trkpt lat="45.8289938" lon="11.7437598"><ele>963.0</ele><time>2026-04-06T13:46:23.453Z</time></trkpt><trkpt lat="45.8289711" lon="11.7439456"><ele>962.5</ele><time>2026-04-06T13:46:24.449Z</time></trkpt><trkpt lat="45.8289599" lon="11.7441232"><ele>962.0</ele><time>2026-04-06T13:46:25.44Z</time></trkpt><trkpt lat="45.8289512" lon="11.7442959"><ele>958.4000000000001</ele><time>2026-04-06T13:46:26.446Z</time></trkpt><trkpt lat="45.8289456" lon="11.7444457"><ele>954.8000000000001</ele><time>2026-04-06T13:46:27.442Z</time></trkpt><trkpt lat="45.8289579" lon="11.7445865"><ele>951.2</ele><time>2026-04-06T13:46:28.443Z</time></trkpt><trkpt lat="45.8290151" lon="11.7447193"><ele>947.6</ele><time>2026-04-06T13:46:29.439Z</time></trkpt><trkpt lat="45.829096" lon="11.7448345"><ele>944.0</ele><time>2026-04-06T13:46:30.43Z</time></trkpt><trkpt lat="45.8291943" lon="11.7449346"><ele>944.0</ele><time>2026-04-06T13:46:31.447Z</time></trkpt><trkpt lat="45.8292992" lon="11.7450167"><ele>944.0</ele><time>2026-04-06T13:46:32.456Z</time></trkpt><trkpt lat="45.8294003" lon="11.7450992"><ele>944.0</ele><time>2026-04-06T13:46:33.442Z</time></trkpt><trkpt lat="45.8295065" lon="11.7451427"><ele>944.0</ele><time>2026-04-06T13:46:34.445Z</time></trkpt><trkpt lat="45.8296084" lon="11.7451791"><ele>944.8333333333334</ele><time>2026-04-06T13:46:35.447Z</time></trkpt><trkpt lat="45.8296841" lon="11.7451933"><ele>945.6666666666667</ele><time>2026-04-06T13:46:36.436Z</time></trkpt><trkpt lat="45.829762" lon="11.7451885"><ele>946.5</ele><time>2026-04-06T13:46:37.452Z</time></trkpt><trkpt lat="45.8298365" lon="11.7451924"><ele>947.3333333333333</ele><time>2026-04-06T13:46:38.446Z</time></trkpt><trkpt lat="45.8299364" lon="11.74525"><ele>948.1666666666666</ele><time>2026-04-06T13:46:40.439Z</time></trkpt><trkpt lat="45.8299277" lon="11.7453796"><ele>949.0</ele><time>2026-04-06T13:46:42.438Z</time></trkpt><trkpt lat="45.8298383" lon="11.7454131"><ele>945.6</ele><time>2026-04-06T13:46:44.44Z</time></trkpt><trkpt lat="45.8297265" lon="11.7453575"><ele>942.2</ele><time>2026-04-06T13:46:46.437Z</time></trkpt><trkpt lat="45.8296582" lon="11.7453174"><ele>938.8000000000001</ele><time>2026-04-06T13:46:47.451Z</time></trkpt><trkpt lat="45.8295789" lon="11.7453089"><ele>935.4000000000001</ele><time>2026-04-06T13:46:48.444Z</time></trkpt><trkpt lat="45.8294937" lon="11.745298"><ele>932.0</ele><time>2026-04-06T13:46:49.45Z</time></trkpt><trkpt lat="45.8293999" lon="11.7452821"><ele>929.6</ele><time>2026-04-06T13:46:50.447Z</time></trkpt><trkpt lat="45.8292975" lon="11.7452793"><ele>927.2</ele><time>2026-04-06T13:46:51.43Z</time></trkpt><trkpt lat="45.8292043" lon="11.7452671"><ele>924.8</ele><time>2026-04-06T13:46:52.459Z</time></trkpt><trkpt lat="45.8291086" lon="11.7452397"><ele>922.4</ele><time>2026-04-06T13:46:53.443Z</time></trkpt><trkpt lat="45.8290077" lon="11.7452121"><ele>920.0</ele><time>2026-04-06T13:46:54.444Z</time></trkpt><trkpt lat="45.8289123" lon="11.7451548"><ele>926.0</ele><time>2026-04-06T13:46:55.431Z</time></trkpt><trkpt lat="45.8288179" lon="11.7450778"><ele>932.0</ele><time>2026-04-06T13:46:56.434Z</time></trkpt><trkpt lat="45.8287216" lon="11.7449798"><ele>938.0</ele><time>2026-04-06T13:46:57.446Z</time></trkpt><trkpt lat="45.8286437" lon="11.744834"><ele>944.0</ele><time>2026-04-06T13:46:58.427Z</time></trkpt><trkpt lat="45.8285838" lon="11.7446786"><ele>944.0</ele><time>2026-04-06T13:46:59.448Z</time></trkpt><trkpt lat="45.8285366" lon="11.7445061"><ele>944.0</ele><time>2026-04-06T13:47:00.438Z</time></trkpt><trkpt lat="45.8284975" lon="11.7443252"><ele>944.0</ele><time>2026-04-06T13:47:01.446Z</time></trkpt><trkpt lat="45.8284662" lon="11.7441495"><ele>944.0</ele><time>2026-04-06T13:47:02.444Z</time></trkpt><trkpt lat="45.8284497" lon="11.7439634"><ele>938.75</ele><time>2026-04-06T13:47:03.462Z</time></trkpt><trkpt lat="45.828447" lon="11.7437732"><ele>933.5</ele><time>2026-04-06T13:47:04.443Z</time></trkpt><trkpt lat="45.8284513" lon="11.7435906"><ele>928.25</ele><time>2026-04-06T13:47:05.44Z</time></trkpt><trkpt lat="45.8284556" lon="11.7434101"><ele>923.0</ele><time>2026-04-06T13:47:06.432Z</time></trkpt><trkpt lat="45.8284591" lon="11.7432366"><ele>923.0</ele><time>2026-04-06T13:47:07.446Z</time></trkpt><trkpt lat="45.8284496" lon="11.7430744"><ele>923.0</ele><time>2026-04-06T13:47:08.429Z</time></trkpt><trkpt lat="45.8284307" lon="11.7429278"><ele>923.0</ele><time>2026-04-06T13:47:09.436Z</time></trkpt><trkpt lat="45.8284103" lon="11.7427807"><ele>923.0</ele><time>2026-04-06T13:47:10.437Z</time></trkpt><trkpt lat="45.8283674" lon="11.7426523"><ele>923.0</ele><time>2026-04-06T13:47:11.435Z</time></trkpt><trkpt lat="45.8282947" lon="11.7425477"><ele>923.5999999999999</ele><time>2026-04-06T13:47:12.44Z</time></trkpt><trkpt lat="45.8281982" lon="11.7424932"><ele>924.1999999999999</ele><time>2026-04-06T13:47:13.441Z</time></trkpt><trkpt lat="45.8281038" lon="11.7424428"><ele>924.8</ele><time>2026-04-06T13:47:14.424Z</time></trkpt><trkpt lat="45.8279892" lon="11.7424547"><ele>925.4</ele><time>2026-04-06T13:47:15.438Z</time></trkpt><trkpt lat="45.827873" lon="11.7424816"><ele>926.0</ele><time>2026-04-06T13:47:16.446Z</time></trkpt><trkpt lat="45.8277612" lon="11.7425253"><ele>926.0</ele><time>2026-04-06T13:47:17.44Z</time></trkpt><trkpt lat="45.8276467" lon="11.7425826"><ele>926.0</ele><time>2026-04-06T13:47:18.44Z</time></trkpt><trkpt lat="45.8275343" lon="11.7426143"><ele>926.0</ele><time>2026-04-06T13:47:19.436Z</time></trkpt><trkpt lat="45.8273988" lon="11.7426426"><ele>926.0</ele><time>2026-04-06T13:47:20.446Z</time></trkpt><trkpt lat="45.8272712" lon="11.7426371"><ele>922.0</ele><time>2026-04-06T13:47:21.434Z</time></trkpt><trkpt lat="45.8271308" lon="11.7425845"><ele>918.0</ele><time>2026-04-06T13:47:22.443Z</time></trkpt><trkpt lat="45.8269976" lon="11.7425382"><ele>914.0</ele><time>2026-04-06T13:47:23.449Z</time></trkpt><trkpt lat="45.8268775" lon="11.7424539"><ele>910.0</ele><time>2026-04-06T13:47:24.437Z</time></trkpt><trkpt lat="45.8267732" lon="11.7423429"><ele>908.75</ele><time>2026-04-06T13:47:25.44Z</time></trkpt><trkpt lat="45.8266748" lon="11.7422241"><ele>907.5</ele><time>2026-04-06T13:47:26.442Z</time></trkpt><trkpt lat="45.826605" lon="11.7420772"><ele>906.25</ele><time>2026-04-06T13:47:27.441Z</time></trkpt><trkpt lat="45.826536" lon="11.7419097"><ele>905.0</ele><time>2026-04-06T13:47:28.439Z</time></trkpt><trkpt lat="45.8264706" lon="11.7417446"><ele>905.0</ele><time>2026-04-06T13:47:29.432Z</time></trkpt><trkpt lat="45.8264068" lon="11.7415796"><ele>905.0</ele><time>2026-04-06T13:47:30.448Z</time></trkpt><trkpt lat="45.8263502" lon="11.7413913"><ele>905.0</ele><time>2026-04-06T13:47:31.459Z</time></trkpt><trkpt lat="45.8262879" lon="11.7412242"><ele>905.0</ele><time>2026-04-06T13:47:32.446Z</time></trkpt><trkpt lat="45.826243" lon="11.7410411"><ele>906.75</ele><time>2026-04-06T13:47:33.45Z</time></trkpt><trkpt lat="45.8262112" lon="11.7408629"><ele>908.5</ele><time>2026-04-06T13:47:34.455Z</time></trkpt><trkpt lat="45.8261879" lon="11.7406755"><ele>910.25</ele><time>2026-04-06T13:47:35.451Z</time></trkpt><trkpt lat="45.8261631" lon="11.7404872"><ele>912.0</ele><time>2026-04-06T13:47:36.441Z</time></trkpt><trkpt lat="45.8261443" lon="11.7403033"><ele>911.25</ele><time>2026-04-06T13:47:37.453Z</time></trkpt><trkpt lat="45.8261293" lon="11.7401215"><ele>910.5</ele><time>2026-04-06T13:47:38.451Z</time></trkpt><trkpt lat="45.8261206" lon="11.7399456"><ele>909.75</ele><time>2026-04-06T13:47:39.435Z</time></trkpt><trkpt lat="45.8261162" lon="11.7397775"><ele>909.0</ele><time>2026-04-06T13:47:40.441Z</time></trkpt><trkpt lat="45.8261087" lon="11.7396143"><ele>909.0</ele><time>2026-04-06T13:47:41.458Z</time></trkpt><trkpt lat="45.8260962" lon="11.7394551"><ele>909.0</ele><time>2026-04-06T13:47:42.454Z</time></trkpt><trkpt lat="45.8260689" lon="11.7393107"><ele>909.0</ele><time>2026-04-06T13:47:43.435Z</time></trkpt><trkpt lat="45.8260173" lon="11.7391819"><ele>909.0</ele><time>2026-04-06T13:47:44.447Z</time></trkpt><trkpt lat="45.8285838" lon="11.7446786"><ele>912.25</ele><time>2026-04-06T13:46:59.448Z</time></trkpt><trkpt lat="45.8285366" lon="11.7445061"><ele>915.5</ele><time>2026-04-06T13:47:00.438Z</time></trkpt><trkpt lat="45.8284975" lon="11.7443252"><ele>918.75</ele><time>2026-04-06T13:47:01.446Z</time></trkpt><trkpt lat="45.8284662" lon="11.7441495"><ele>922.0</ele><time>2026-04-06T13:47:02.444Z</time></trkpt><trkpt lat="45.8284497" lon="11.7439634"><ele>922.0</ele><time>2026-04-06T13:47:03.462Z</time></trkpt><trkpt lat="45.828447" lon="11.7437732"><ele>922.0</ele><time>2026-04-06T13:47:04.443Z</time></trkpt><trkpt lat="45.8284513" lon="11.7435906"><ele>922.0</ele><time>2026-04-06T13:47:05.44Z</time></trkpt><trkpt lat="45.8284556" lon="11.7434101"><ele>922.0</ele><time>2026-04-06T13:47:06.432Z</time></trkpt><trkpt lat="45.8284591" lon="11.7432366"><ele>922.2</ele><time>2026-04-06T13:47:07.446Z</time></trkpt><trkpt lat="45.8284496" lon="11.7430744"><ele>922.4000000000001</ele><time>2026-04-06T13:47:08.429Z</time></trkpt><trkpt lat="45.8284307" lon="11.7429278"><ele>922.5999999999999</ele><time>2026-04-06T13:47:09.436Z</time></trkpt><trkpt lat="45.8284103" lon="11.7427807"><ele>922.8</ele><time>2026-04-06T13:47:10.437Z</time></trkpt><trkpt lat="45.8283674" lon="11.7426523"><ele>923.0</ele><time>2026-04-06T13:47:11.435Z</time></trkpt><trkpt lat="45.8282947" lon="11.7425477"><ele>923.5999999999999</ele><time>2026-04-06T13:47:12.44Z</time></trkpt><trkpt lat="45.8281982" lon="11.7424932"><ele>924.1999999999999</ele><time>2026-04-06T13:47:13.441Z</time></trkpt><trkpt lat="45.8281038" lon="11.7424428"><ele>924.8</ele><time>2026-04-06T13:47:14.424Z</time></trkpt><trkpt lat="45.8279892" lon="11.7424547"><ele>925.4</ele><time>2026-04-06T13:47:15.438Z</time></trkpt><trkpt lat="45.827873" lon="11.7424816"><ele>926.0</ele><time>2026-04-06T13:47:16.446Z</time></trkpt><trkpt lat="45.8277612" lon="11.7425253"><ele>926.0</ele><time>2026-04-06T13:47:17.44Z</time></trkpt><trkpt lat="45.8276467" lon="11.7425826"><ele>926.0</ele><time>2026-04-06T13:47:18.44Z</time></trkpt><trkpt lat="45.8275343" lon="11.7426143"><ele>926.0</ele><time>2026-04-06T13:47:19.436Z</time></trkpt><trkpt lat="45.8273988" lon="11.7426426"><ele>926.0</ele><time>2026-04-06T13:47:20.446Z</time></trkpt><trkpt lat="45.8272712" lon="11.7426371"><ele>922.0</ele><time>2026-04-06T13:47:21.434Z</time></trkpt><trkpt lat="45.8271308" lon="11.7425845"><ele>918.0</ele><time>2026-04-06T13:47:22.443Z</time></trkpt><trkpt lat="45.8269976" lon="11.7425382"><ele>914.0</ele><time>2026-04-06T13:47:23.449Z</time></trkpt><trkpt lat="45.8268775" lon="11.7424539"><ele>910.0</ele><time>2026-04-06T13:47:24.437Z</time></trkpt><trkpt lat="45.8267732" lon="11.7423429"><ele>908.75</ele><time>2026-04-06T13:47:25.44Z</time></trkpt><trkpt lat="45.8266748" lon="11.7422241"><ele>907.5</ele><time>2026-04-06T13:47:26.442Z</time></trkpt><trkpt lat="45.826605" lon="11.7420772"><ele>906.25</ele><time>2026-04-06T13:47:27.441Z</time></trkpt><trkpt lat="45.826536" lon="11.7419097"><ele>905.0</ele><time>2026-04-06T13:47:28.439Z</time></trkpt><trkpt lat="45.8264706" lon="11.7417446"><ele>905.0</ele><time>2026-04-06T13:47:29.432Z</time></trkpt><trkpt lat="45.8264068" lon="11.7415796"><ele>905.0</ele><time>2026-04-06T13:47:30.448Z</time></trkpt><trkpt lat="45.8263502" lon="11.7413913"><ele>905.0</ele><time>2026-04-06T13:47:31.459Z</time></trkpt><trkpt lat="45.8262879" lon="11.7412242"><ele>905.0</ele><time>2026-04-06T13:47:32.446Z</time></trkpt><trkpt lat="45.826243" lon="11.7410411"><ele>906.75</ele><time>2026-04-06T13:47:33.45Z</time></trkpt><trkpt lat="45.8262112" lon="11.7408629"><ele>908.5</ele><time>2026-04-06T13:47:34.455Z</time></trkpt><trkpt lat="45.8261879" lon="11.7406755"><ele>910.25</ele><time>2026-04-06T13:47:35.451Z</time></trkpt><trkpt lat="45.8261631" lon="11.7404872"><ele>912.0</ele><time>2026-04-06T13:47:36.441Z</time></trkpt><trkpt lat="45.8261443" lon="11.7403033"><ele>911.25</ele><time>2026-04-06T13:47:37.453Z</time></trkpt><trkpt lat="45.8261293" lon="11.7401215"><ele>910.5</ele><time>2026-04-06T13:47:38.451Z</time></trkpt><trkpt lat="45.8261206" lon="11.7399456"><ele>909.75</ele><time>2026-04-06T13:47:39.435Z</time></trkpt><trkpt lat="45.8261162" lon="11.7397775"><ele>909.0</ele><time>2026-04-06T13:47:40.441Z</time></trkpt><trkpt lat="45.8261087" lon="11.7396143"><ele>909.0</ele><time>2026-04-06T13:47:41.458Z</time></trkpt><trkpt lat="45.8260962" lon="11.7394551"><ele>909.0000000000001</ele><time>2026-04-06T13:47:42.454Z</time></trkpt><trkpt lat="45.8260689" lon="11.7393107"><ele>909.0000000000001</ele><time>2026-04-06T13:47:43.435Z</time></trkpt><trkpt lat="45.8260173" lon="11.7391819"><ele>909.0</ele><time>2026-04-06T13:47:44.447Z</time></trkpt><trkpt lat="45.8259515" lon="11.7390715"><ele>909.0</ele><time>2026-04-06T13:47:45.437Z</time></trkpt><trkpt lat="45.825885" lon="11.73896"><ele>902.2</ele><time>2026-04-06T13:47:46.449Z</time></trkpt><trkpt lat="45.8258206" lon="11.7388576"><ele>895.4000000000001</ele><time>2026-04-06T13:47:47.443Z</time></trkpt><trkpt lat="45.8257745" lon="11.7387336"><ele>888.6</ele><time>2026-04-06T13:47:48.442Z</time></trkpt><trkpt lat="45.8257397" lon="11.7385868"><ele>881.8</ele><time>2026-04-06T13:47:49.447Z</time></trkpt><trkpt lat="45.8256804" lon="11.7384593"><ele>875.0</ele><time>2026-04-06T13:47:50.452Z</time></trkpt><trkpt lat="45.8256027" lon="11.7383538"><ele>875.0</ele><time>2026-04-06T13:47:51.449Z</time></trkpt><trkpt lat="45.8255218" lon="11.738282"><ele>875.0</ele><time>2026-04-06T13:47:52.451Z</time></trkpt><trkpt lat="45.8254356" lon="11.7382263"><ele>875.0</ele><time>2026-04-06T13:47:53.449Z</time></trkpt><trkpt lat="45.8253566" lon="11.7381621"><ele>875.0</ele><time>2026-04-06T13:47:54.449Z</time></trkpt><trkpt lat="45.8252825" lon="11.7380864"><ele>875.0</ele><time>2026-04-06T13:47:55.443Z</time></trkpt><trkpt lat="45.8252211" lon="11.7379857"><ele>875.0</ele><time>2026-04-06T13:47:56.461Z</time></trkpt><trkpt lat="45.8251731" lon="11.737859"><ele>875.0</ele><time>2026-04-06T13:47:57.448Z</time></trkpt><trkpt lat="45.8251234" lon="11.7377189"><ele>875.0</ele><time>2026-04-06T13:47:58.437Z</time></trkpt><trkpt lat="45.8250592" lon="11.7375743"><ele>875.0</ele><time>2026-04-06T13:47:59.446Z</time></trkpt><trkpt lat="45.8249661" lon="11.7374488"><ele>870.75</ele><time>2026-04-06T13:48:00.447Z</time></trkpt><trkpt lat="45.8248624" lon="11.7373449"><ele>866.5</ele><time>2026-04-06T13:48:01.447Z</time></trkpt><trkpt lat="45.8247556" lon="11.7372507"><ele>862.25</ele><time>2026-04-06T13:48:02.448Z</time></trkpt><trkpt lat="45.8246526" lon="11.7371718"><ele>858.0</ele><time>2026-04-06T13:48:03.442Z</time></trkpt><trkpt lat="45.8245592" lon="11.7370927"><ele>858.0</ele><time>2026-04-06T13:48:04.442Z</time></trkpt><trkpt lat="45.8244657" lon="11.7370185"><ele>858.0</ele><time>2026-04-06T13:48:05.435Z</time></trkpt><trkpt lat="45.8243803" lon="11.7369592"><ele>858.0</ele><time>2026-04-06T13:48:06.439Z</time></trkpt><trkpt lat="45.8242906" lon="11.7369218"><ele>858.0</ele><time>2026-04-06T13:48:07.444Z</time></trkpt><trkpt lat="45.8241962" lon="11.7368878"><ele>858.0</ele><time>2026-04-06T13:48:08.441Z</time></trkpt><trkpt lat="45.8240937" lon="11.736936"><ele>857.6666666666666</ele><time>2026-04-06T13:48:09.437Z</time></trkpt><trkpt lat="45.8240018" lon="11.736996"><ele>857.3333333333333</ele><time>2026-04-06T13:48:10.454Z</time></trkpt><trkpt lat="45.8239175" lon="11.7370489"><ele>857.0</ele><time>2026-04-06T13:48:11.443Z</time></trkpt><trkpt lat="45.8238426" lon="11.7371123"><ele>856.6666666666666</ele><time>2026-04-06T13:48:12.43Z</time></trkpt><trkpt lat="45.8237935" lon="11.7371976"><ele>856.3333333333333</ele><time>2026-04-06T13:48:13.451Z</time></trkpt><trkpt lat="45.8237835" lon="11.7372993"><ele>856.0</ele><time>2026-04-06T13:48:14.437Z</time></trkpt><trkpt lat="45.8238085" lon="11.7374073"><ele>856.0</ele><time>2026-04-06T13:48:15.445Z</time></trkpt><trkpt lat="45.8238711" lon="11.7375041"><ele>855.9999999999999</ele><time>2026-04-06T13:48:16.435Z</time></trkpt><trkpt lat="45.8239403" lon="11.7376102"><ele>855.9999999999999</ele><time>2026-04-06T13:48:17.452Z</time></trkpt><trkpt lat="45.8240316" lon="11.7377206"><ele>856.0</ele><time>2026-04-06T13:48:18.447Z</time></trkpt><trkpt lat="45.8241293" lon="11.7378375"><ele>856.0</ele><time>2026-04-06T13:48:19.435Z</time></trkpt><trkpt lat="45.8242082" lon="11.7379632"><ele>855.1999999999999</ele><time>2026-04-06T13:48:20.448Z</time></trkpt><trkpt lat="45.8242737" lon="11.7380825"><ele>854.3999999999999</ele><time>2026-04-06T13:48:21.459Z</time></trkpt><trkpt lat="45.824318" lon="11.7382104"><ele>853.6</ele><time>2026-04-06T13:48:22.445Z</time></trkpt><trkpt lat="45.8243403" lon="11.7383511"><ele>852.8</ele><time>2026-04-06T13:48:23.439Z</time></trkpt><trkpt lat="45.8243318" lon="11.7385052"><ele>852.0</ele><time>2026-04-06T13:48:24.437Z</time></trkpt><trkpt lat="45.8242956" lon="11.7386806"><ele>854.0</ele><time>2026-04-06T13:48:25.442Z</time></trkpt><trkpt lat="45.824258" lon="11.738898"><ele>856.0</ele><time>2026-04-06T13:48:26.435Z</time></trkpt><trkpt lat="45.8242146" lon="11.7391462"><ele>858.0</ele><time>2026-04-06T13:48:27.427Z</time></trkpt><trkpt lat="45.8241687" lon="11.7394408"><ele>858.0</ele><time>2026-04-06T13:48:28.439Z</time></trkpt><trkpt lat="45.8241302" lon="11.7397729"><ele>858.0</ele><time>2026-04-06T13:48:29.434Z</time></trkpt><trkpt lat="45.8240661" lon="11.7400905"><ele>855.0</ele><time>2026-04-06T13:48:30.438Z</time></trkpt><trkpt lat="45.8240081" lon="11.7404062"><ele>852.0</ele><time>2026-04-06T13:48:31.442Z</time></trkpt><trkpt lat="45.8239691" lon="11.7407068"><ele>849.0</ele><time>2026-04-06T13:48:32.434Z</time></trkpt><trkpt lat="45.8239519" lon="11.7409802"><ele>848.3333333333333</ele><time>2026-04-06T13:48:33.448Z</time></trkpt><trkpt lat="45.8239254" lon="11.7412199"><ele>847.6666666666666</ele><time>2026-04-06T13:48:34.421Z</time></trkpt><trkpt lat="45.8238802" lon="11.7414454"><ele>847.0</ele><time>2026-04-06T13:48:35.445Z</time></trkpt><trkpt lat="45.8238005" lon="11.7416648"><ele>847.0</ele><time>2026-04-06T13:48:36.432Z</time></trkpt><trkpt lat="45.8237147" lon="11.7418816"><ele>847.0</ele><time>2026-04-06T13:48:37.451Z</time></trkpt><trkpt lat="45.8236282" lon="11.7420996"><ele>847.0</ele><time>2026-04-06T13:48:38.449Z</time></trkpt><trkpt lat="45.8235452" lon="11.7422793"><ele>850.5</ele><time>2026-04-06T13:48:39.452Z</time></trkpt><trkpt lat="45.8234771" lon="11.7424331"><ele>854.0</ele><time>2026-04-06T13:48:40.442Z</time></trkpt><trkpt lat="45.8234139" lon="11.7425675"><ele>857.5</ele><time>2026-04-06T13:48:41.435Z</time></trkpt><trkpt lat="45.8233122" lon="11.742673"><ele>861.0</ele><time>2026-04-06T13:48:42.43Z</time></trkpt><trkpt lat="45.8231888" lon="11.7427101"><ele>861.0</ele><time>2026-04-06T13:48:43.449Z</time></trkpt><trkpt lat="45.823045" lon="11.7427171"><ele>861.0</ele><time>2026-04-06T13:48:44.441Z</time></trkpt><trkpt lat="45.8229076" lon="11.7427209"><ele>861.0</ele><time>2026-04-06T13:48:45.433Z</time></trkpt><trkpt lat="45.8227769" lon="11.7427176"><ele>861.0</ele><time>2026-04-06T13:48:46.45Z</time></trkpt><trkpt lat="45.8226572" lon="11.7426453"><ele>859.75</ele><time>2026-04-06T13:48:47.446Z</time></trkpt><trkpt lat="45.822538" lon="11.742574"><ele>858.5</ele><time>2026-04-06T13:48:48.439Z</time></trkpt><trkpt lat="45.8224162" lon="11.7424872"><ele>857.25</ele><time>2026-04-06T13:48:49.446Z</time></trkpt><trkpt lat="45.8223009" lon="11.7423877"><ele>856.0</ele><time>2026-04-06T13:48:50.458Z</time></trkpt><trkpt lat="45.8221953" lon="11.7422974"><ele>856.0</ele><time>2026-04-06T13:48:51.445Z</time></trkpt><trkpt lat="45.8220961" lon="11.7422242"><ele>856.0</ele><time>2026-04-06T13:48:52.458Z</time></trkpt><trkpt lat="45.821981" lon="11.7422225"><ele>856.0</ele><time>2026-04-06T13:48:53.458Z</time></trkpt><trkpt lat="45.8218606" lon="11.7422196"><ele>856.0</ele><time>2026-04-06T13:48:54.451Z</time></trkpt><trkpt lat="45.8217365" lon="11.742211"><ele>854.0</ele><time>2026-04-06T13:48:55.461Z</time></trkpt><trkpt lat="45.82162" lon="11.742131"><ele>852.0</ele><time>2026-04-06T13:48:56.443Z</time></trkpt><trkpt lat="45.8215158" lon="11.7420239"><ele>850.0</ele><time>2026-04-06T13:48:57.449Z</time></trkpt><trkpt lat="45.8214231" lon="11.7419585"><ele>848.0</ele><time>2026-04-06T13:48:58.446Z</time></trkpt><trkpt lat="45.8213221" lon="11.7419536"><ele>848.0</ele><time>2026-04-06T13:48:59.447Z</time></trkpt><trkpt lat="45.8212129" lon="11.7420089"><ele>848.0</ele><time>2026-04-06T13:49:00.434Z</time></trkpt><trkpt lat="45.8211001" lon="11.7420865"><ele>848.0</ele><time>2026-04-06T13:49:01.43Z</time></trkpt><trkpt lat="45.8209969" lon="11.7421535"><ele>848.0</ele><time>2026-04-06T13:49:02.444Z</time></trkpt><trkpt lat="45.8208783" lon="11.7421422"><ele>853.6666666666667</ele><time>2026-04-06T13:49:03.44Z</time></trkpt><trkpt lat="45.8207314" lon="11.7420909"><ele>859.3333333333333</ele><time>2026-04-06T13:49:04.43Z</time></trkpt><trkpt lat="45.8205804" lon="11.7419852"><ele>865.0</ele><time>2026-04-06T13:49:05.444Z</time></trkpt><trkpt lat="45.8204114" lon="11.7418711"><ele>865.0</ele><time>2026-04-06T13:49:06.455Z</time></trkpt><trkpt lat="45.8202648" lon="11.7418351"><ele>865.0</ele><time>2026-04-06T13:49:07.437Z</time></trkpt><trkpt lat="45.8201396" lon="11.7417978"><ele>865.0</ele><time>2026-04-06T13:49:08.442Z</time></trkpt><trkpt lat="45.8200447" lon="11.7417234"><ele>865.0</ele><time>2026-04-06T13:49:09.45Z</time></trkpt><trkpt lat="45.8199528" lon="11.7415967"><ele>857.75</ele><time>2026-04-06T13:49:10.442Z</time></trkpt><trkpt lat="45.8198742" lon="11.7414585"><ele>850.5</ele><time>2026-04-06T13:49:11.439Z</time></trkpt><trkpt lat="45.8197956" lon="11.7413388"><ele>843.25</ele><time>2026-04-06T13:49:12.446Z</time></trkpt><trkpt lat="45.8197167" lon="11.7412239"><ele>836.0</ele><time>2026-04-06T13:49:13.451Z</time></trkpt><trkpt lat="45.8196263" lon="11.7411292"><ele>836.0</ele><time>2026-04-06T13:49:14.455Z</time></trkpt><trkpt lat="45.8195184" lon="11.7410639"><ele>836.0</ele><time>2026-04-06T13:49:15.444Z</time></trkpt><trkpt lat="45.8193965" lon="11.7410094"><ele>836.0</ele><time>2026-04-06T13:49:16.452Z</time></trkpt><trkpt lat="45.81928" lon="11.7409888"><ele>836.0</ele><time>2026-04-06T13:49:17.454Z</time></trkpt><trkpt lat="45.8191688" lon="11.7409719"><ele>834.25</ele><time>2026-04-06T13:49:18.448Z</time></trkpt><trkpt lat="45.8190582" lon="11.740961"><ele>832.5</ele><time>2026-04-06T13:49:19.444Z</time></trkpt><trkpt lat="45.8189572" lon="11.7409742"><ele>830.75</ele><time>2026-04-06T13:49:20.443Z</time></trkpt><trkpt lat="45.8188588" lon="11.741047"><ele>829.0</ele><time>2026-04-06T13:49:21.445Z</time></trkpt><trkpt lat="45.8187478" lon="11.7411796"><ele>827.0</ele><time>2026-04-06T13:49:22.448Z</time></trkpt><trkpt lat="45.8186387" lon="11.7413202"><ele>825.0</ele><time>2026-04-06T13:49:23.446Z</time></trkpt><trkpt lat="45.8185343" lon="11.7414562"><ele>823.0</ele><time>2026-04-06T13:49:24.455Z</time></trkpt><trkpt lat="45.8184375" lon="11.7415748"><ele>821.0</ele><time>2026-04-06T13:49:25.46Z</time></trkpt><trkpt lat="45.8183534" lon="11.7416716"><ele>821.0000000000001</ele><time>2026-04-06T13:49:26.448Z</time></trkpt><trkpt lat="45.8182865" lon="11.7417261"><ele>821.0</ele><time>2026-04-06T13:49:27.447Z</time></trkpt><trkpt lat="45.8182298" lon="11.7417695"><ele>821.0</ele><time>2026-04-06T13:49:28.446Z</time></trkpt><trkpt lat="45.8181395" lon="11.7417803"><ele>821.0</ele><time>2026-04-06T13:49:30.442Z</time></trkpt><trkpt lat="45.8180208" lon="11.7417502"><ele>821.0000000000001</ele><time>2026-04-06T13:49:32.446Z</time></trkpt><trkpt lat="45.817948" lon="11.7417075"><ele>821.0</ele><time>2026-04-06T13:49:33.442Z</time></trkpt><trkpt lat="45.8178588" lon="11.7416196"><ele>821.0</ele><time>2026-04-06T13:49:34.442Z</time></trkpt><trkpt lat="45.8177272" lon="11.7415064"><ele>821.0</ele><time>2026-04-06T13:49:35.435Z</time></trkpt><trkpt lat="45.8176044" lon="11.7413885"><ele>821.0</ele><time>2026-04-06T13:49:36.443Z</time></trkpt><trkpt lat="45.8175042" lon="11.7413402"><ele>821.0</ele><time>2026-04-06T13:49:37.434Z</time></trkpt><trkpt lat="45.8174017" lon="11.7413238"><ele>819.8</ele><time>2026-04-06T13:49:38.441Z</time></trkpt><trkpt lat="45.8173202" lon="11.7413146"><ele>818.5999999999999</ele><time>2026-04-06T13:49:39.419Z</time></trkpt><trkpt lat="45.8172662" lon="11.7413899"><ele>817.4</ele><time>2026-04-06T13:49:40.437Z</time></trkpt><trkpt lat="45.8172122" lon="11.7414997"><ele>816.2</ele><time>2026-04-06T13:49:41.442Z</time></trkpt><trkpt lat="45.8171609" lon="11.7416463"><ele>815.0</ele><time>2026-04-06T13:49:42.442Z</time></trkpt><trkpt lat="45.817108" lon="11.7417818"><ele>809.8</ele><time>2026-04-06T13:49:43.441Z</time></trkpt><trkpt lat="45.8170523" lon="11.741911"><ele>804.6</ele><time>2026-04-06T13:49:44.441Z</time></trkpt><trkpt lat="45.8169829" lon="11.7420315"><ele>799.4000000000001</ele><time>2026-04-06T13:49:45.45Z</time></trkpt><trkpt lat="45.816905" lon="11.7421271"><ele>794.2</ele><time>2026-04-06T13:49:46.449Z</time></trkpt><trkpt lat="45.8168135" lon="11.7421811"><ele>789.0</ele><time>2026-04-06T13:49:47.427Z</time></trkpt><trkpt lat="45.8166978" lon="11.7421881"><ele>789.0</ele><time>2026-04-06T13:49:48.441Z</time></trkpt><trkpt lat="45.8165572" lon="11.7421683"><ele>789.0</ele><time>2026-04-06T13:49:49.433Z</time></trkpt><trkpt lat="45.8164028" lon="11.7421418"><ele>789.0</ele><time>2026-04-06T13:49:50.437Z</time></trkpt><trkpt lat="45.816257" lon="11.7421191"><ele>789.0</ele><time>2026-04-06T13:49:51.451Z</time></trkpt><trkpt lat="45.8161376" lon="11.7420924"><ele>789.0</ele><time>2026-04-06T13:49:52.446Z</time></trkpt><trkpt lat="45.8160421" lon="11.742059"><ele>789.0</ele><time>2026-04-06T13:49:53.444Z</time></trkpt><trkpt lat="45.8159592" lon="11.741987"><ele>789.0</ele><time>2026-04-06T13:49:54.435Z</time></trkpt><trkpt lat="45.8158799" lon="11.7418858"><ele>789.0</ele><time>2026-04-06T13:49:55.445Z</time></trkpt><trkpt lat="45.8158167" lon="11.7417321"><ele>789.0</ele><time>2026-04-06T13:49:56.442Z</time></trkpt><trkpt lat="45.8157854" lon="11.7415723"><ele>791.75</ele><time>2026-04-06T13:49:57.429Z</time></trkpt><trkpt lat="45.8157637" lon="11.7413865"><ele>794.5</ele><time>2026-04-06T13:49:58.443Z</time></trkpt><trkpt lat="45.8157699" lon="11.7411822"><ele>797.25</ele><time>2026-04-06T13:49:59.435Z</time></trkpt><trkpt lat="45.8157717" lon="11.7409567"><ele>800.0</ele><time>2026-04-06T13:50:00.44Z</time></trkpt><trkpt lat="45.8157695" lon="11.740706"><ele>800.0</ele><time>2026-04-06T13:50:01.452Z</time></trkpt><trkpt lat="45.815725" lon="11.7404385"><ele>800.0</ele><time>2026-04-06T13:50:02.454Z</time></trkpt><trkpt lat="45.8156895" lon="11.7402339"><ele>800.0</ele><time>2026-04-06T13:50:03.451Z</time></trkpt><trkpt lat="45.81566" lon="11.7400771"><ele>800.0</ele><time>2026-04-06T13:50:04.454Z</time></trkpt><trkpt lat="45.8156209" lon="11.7399107"><ele>800.0</ele><time>2026-04-06T13:50:05.442Z</time></trkpt><trkpt lat="45.8155169" lon="11.7398283"><ele>800.0</ele><time>2026-04-06T13:50:06.443Z</time></trkpt><trkpt lat="45.8153982" lon="11.7397868"><ele>800.0</ele><time>2026-04-06T13:50:07.449Z</time></trkpt><trkpt lat="45.8152594" lon="11.7398033"><ele>797.25</ele><time>2026-04-06T13:50:08.443Z</time></trkpt><trkpt lat="45.8151181" lon="11.7398704"><ele>794.5</ele><time>2026-04-06T13:50:09.437Z</time></trkpt><trkpt lat="45.8149886" lon="11.7399808"><ele>791.75</ele><time>2026-04-06T13:50:10.446Z</time></trkpt><trkpt lat="45.8148933" lon="11.7401182"><ele>789.0</ele><time>2026-04-06T13:50:11.448Z</time></trkpt><trkpt lat="45.8147893" lon="11.7402744"><ele>785.6666666666667</ele><time>2026-04-06T13:50:12.45Z</time></trkpt><trkpt lat="45.8146849" lon="11.7404821"><ele>782.3333333333334</ele><time>2026-04-06T13:50:13.449Z</time></trkpt><trkpt lat="45.8145877" lon="11.740679"><ele>779.0</ele><time>2026-04-06T13:50:14.452Z</time></trkpt><trkpt lat="45.8144979" lon="11.7408589"><ele>779.0</ele><time>2026-04-06T13:50:15.432Z</time></trkpt><trkpt lat="45.8144085" lon="11.740998"><ele>779.0</ele><time>2026-04-06T13:50:16.442Z</time></trkpt><trkpt lat="45.8142961" lon="11.741089"><ele>779.0</ele><time>2026-04-06T13:50:17.446Z</time></trkpt><trkpt lat="45.814154" lon="11.7411589"><ele>779.0</ele><time>2026-04-06T13:50:18.453Z</time></trkpt><trkpt lat="45.8140043" lon="11.7412119"><ele>777.75</ele><time>2026-04-06T13:50:19.438Z</time></trkpt><trkpt lat="45.8138578" lon="11.7412401"><ele>776.5</ele><time>2026-04-06T13:50:20.452Z</time></trkpt><trkpt lat="45.8137179" lon="11.7412491"><ele>775.25</ele><time>2026-04-06T13:50:21.45Z</time></trkpt><trkpt lat="45.8135693" lon="11.7412346"><ele>774.0</ele><time>2026-04-06T13:50:22.442Z</time></trkpt><trkpt lat="45.8134186" lon="11.7412139"><ele>774.0</ele><time>2026-04-06T13:50:23.439Z</time></trkpt><trkpt lat="45.8132635" lon="11.7411377"><ele>774.0</ele><time>2026-04-06T13:50:24.454Z</time></trkpt><trkpt lat="45.8131134" lon="11.741036"><ele>774.0</ele><time>2026-04-06T13:50:25.464Z</time></trkpt><trkpt lat="45.8129641" lon="11.7409125"><ele>780.0</ele><time>2026-04-06T13:50:26.443Z</time></trkpt><trkpt lat="45.8128081" lon="11.74081"><ele>786.0</ele><time>2026-04-06T13:50:27.448Z</time></trkpt><trkpt lat="45.8126535" lon="11.7407103"><ele>792.0</ele><time>2026-04-06T13:50:28.458Z</time></trkpt><trkpt lat="45.8124953" lon="11.740623"><ele>792.25</ele><time>2026-04-06T13:50:29.449Z</time></trkpt><trkpt lat="45.8123483" lon="11.7405363"><ele>792.5</ele><time>2026-04-06T13:50:30.452Z</time></trkpt><trkpt lat="45.8122203" lon="11.7405001"><ele>792.75</ele><time>2026-04-06T13:50:31.445Z</time></trkpt><trkpt lat="45.8121106" lon="11.7404725"><ele>793.0</ele><time>2026-04-06T13:50:32.445Z</time></trkpt><trkpt lat="45.8119941" lon="11.7405074"><ele>793.0</ele><time>2026-04-06T13:50:33.443Z</time></trkpt><trkpt lat="45.8118846" lon="11.7405958"><ele>793.0</ele><time>2026-04-06T13:50:34.44Z</time></trkpt><trkpt lat="45.8117932" lon="11.7407302"><ele>793.0</ele><time>2026-04-06T13:50:35.449Z</time></trkpt><trkpt lat="45.8117032" lon="11.7408901"><ele>793.0</ele><time>2026-04-06T13:50:36.426Z</time></trkpt><trkpt lat="45.8116135" lon="11.7410423"><ele>788.75</ele><time>2026-04-06T13:50:37.45Z</time></trkpt><trkpt lat="45.8115311" lon="11.7411863"><ele>784.5</ele><time>2026-04-06T13:50:38.448Z</time></trkpt><trkpt lat="45.8114667" lon="11.7413398"><ele>780.25</ele><time>2026-04-06T13:50:39.451Z</time></trkpt><trkpt lat="45.8114307" lon="11.7415227"><ele>776.0</ele><time>2026-04-06T13:50:40.438Z</time></trkpt><trkpt lat="45.8114186" lon="11.7417087"><ele>774.5</ele><time>2026-04-06T13:50:41.451Z</time></trkpt><trkpt lat="45.8114384" lon="11.7418918"><ele>773.0</ele><time>2026-04-06T13:50:42.455Z</time></trkpt><trkpt lat="45.811484" lon="11.7420623"><ele>771.5</ele><time>2026-04-06T13:50:43.45Z</time></trkpt><trkpt lat="45.8115443" lon="11.7422121"><ele>770.0</ele><time>2026-04-06T13:50:44.448Z</time></trkpt><trkpt lat="45.8116054" lon="11.7423498"><ele>770.0</ele><time>2026-04-06T13:50:45.449Z</time></trkpt><trkpt lat="45.8116628" lon="11.7424834"><ele>770.0</ele><time>2026-04-06T13:50:46.453Z</time></trkpt><trkpt lat="45.8117164" lon="11.7426113"><ele>770.0</ele><time>2026-04-06T13:50:47.456Z</time></trkpt><trkpt lat="45.8117666" lon="11.7427389"><ele>770.0</ele><time>2026-04-06T13:50:48.457Z</time></trkpt><trkpt lat="45.8118024" lon="11.7428703"><ele>770.0</ele><time>2026-04-06T13:50:49.456Z</time></trkpt><trkpt lat="45.8118168" lon="11.7430135"><ele>769.0</ele><time>2026-04-06T13:50:50.432Z</time></trkpt><trkpt lat="45.8118063" lon="11.7431565"><ele>768.0</ele><time>2026-04-06T13:50:51.45Z</time></trkpt><trkpt lat="45.8117768" lon="11.7432949"><ele>767.0</ele><time>2026-04-06T13:50:52.443Z</time></trkpt><trkpt lat="45.8117406" lon="11.7434297"><ele>766.0</ele><time>2026-04-06T13:50:53.444Z</time></trkpt><trkpt lat="45.8117112" lon="11.7435618"><ele>765.0</ele><time>2026-04-06T13:50:54.456Z</time></trkpt><trkpt lat="45.8116849" lon="11.7436842"><ele>763.2</ele><time>2026-04-06T13:50:55.457Z</time></trkpt><trkpt lat="45.8116807" lon="11.7438221"><ele>761.4</ele><time>2026-04-06T13:50:56.434Z</time></trkpt><trkpt lat="45.8116814" lon="11.7439576"><ele>759.5999999999999</ele><time>2026-04-06T13:50:57.452Z</time></trkpt><trkpt lat="45.8116805" lon="11.7440865"><ele>757.8</ele><time>2026-04-06T13:50:58.451Z</time></trkpt><trkpt lat="45.8116914" lon="11.744218"><ele>756.0</ele><time>2026-04-06T13:50:59.452Z</time></trkpt><trkpt lat="45.8117124" lon="11.7443459"><ele>755.4</ele><time>2026-04-06T13:51:00.444Z</time></trkpt><trkpt lat="45.8117494" lon="11.7444605"><ele>754.8</ele><time>2026-04-06T13:51:01.452Z</time></trkpt><trkpt lat="45.8118054" lon="11.744565"><ele>754.1999999999999</ele><time>2026-04-06T13:51:02.44Z</time></trkpt><trkpt lat="45.8118769" lon="11.7446615"><ele>753.5999999999999</ele><time>2026-04-06T13:51:03.45Z</time></trkpt><trkpt lat="45.811955" lon="11.7447395"><ele>753.0</ele><time>2026-04-06T13:51:04.446Z</time></trkpt><trkpt lat="45.8120418" lon="11.7448088"><ele>753.0</ele><time>2026-04-06T13:51:05.442Z</time></trkpt><trkpt lat="45.8121348" lon="11.7448746"><ele>753.0</ele><time>2026-04-06T13:51:06.437Z</time></trkpt><trkpt lat="45.8122287" lon="11.7449405"><ele>753.0</ele><time>2026-04-06T13:51:07.447Z</time></trkpt><trkpt lat="45.8123233" lon="11.7450068"><ele>753.0</ele><time>2026-04-06T13:51:08.444Z</time></trkpt><trkpt lat="45.812421" lon="11.7450774"><ele>753.0</ele><time>2026-04-06T13:51:09.442Z</time></trkpt><trkpt lat="45.8125252" lon="11.745147"><ele>747.75</ele><time>2026-04-06T13:51:10.45Z</time></trkpt><trkpt lat="45.8126229" lon="11.7452202"><ele>742.5</ele><time>2026-04-06T13:51:11.445Z</time></trkpt><trkpt lat="45.8127273" lon="11.7452899"><ele>737.25</ele><time>2026-04-06T13:51:12.451Z</time></trkpt><trkpt lat="45.8128289" lon="11.7453645"><ele>732.0</ele><time>2026-04-06T13:51:13.437Z</time></trkpt><trkpt lat="45.8129345" lon="11.7454376"><ele>732.0</ele><time>2026-04-06T13:51:14.451Z</time></trkpt><trkpt lat="45.8130482" lon="11.7454949"><ele>732.0</ele><time>2026-04-06T13:51:15.455Z</time></trkpt><trkpt lat="45.8131622" lon="11.7455344"><ele>732.0</ele><time>2026-04-06T13:51:16.451Z</time></trkpt><trkpt lat="45.8132766" lon="11.7455617"><ele>732.0</ele><time>2026-04-06T13:51:17.436Z</time></trkpt><trkpt lat="45.8133927" lon="11.7455815"><ele>730.4000000000001</ele><time>2026-04-06T13:51:18.449Z</time></trkpt><trkpt lat="45.8135027" lon="11.7456002"><ele>728.8000000000001</ele><time>2026-04-06T13:51:19.445Z</time></trkpt><trkpt lat="45.8136039" lon="11.7456302"><ele>727.2</ele><time>2026-04-06T13:51:20.453Z</time></trkpt><trkpt lat="45.8136986" lon="11.74567"><ele>725.6</ele><time>2026-04-06T13:51:21.459Z</time></trkpt><trkpt lat="45.8137911" lon="11.7457113"><ele>724.0</ele><time>2026-04-06T13:51:22.458Z</time></trkpt><trkpt lat="45.8138792" lon="11.7457407"><ele>724.0</ele><time>2026-04-06T13:51:23.453Z</time></trkpt><trkpt lat="45.8139622" lon="11.7457503"><ele>724.0</ele><time>2026-04-06T13:51:24.458Z</time></trkpt><trkpt lat="45.814044" lon="11.7457483"><ele>724.0</ele><time>2026-04-06T13:51:25.461Z</time></trkpt><trkpt lat="45.8141123" lon="11.7457475"><ele>724.0</ele><time>2026-04-06T13:51:26.44Z</time></trkpt><trkpt lat="45.8141949" lon="11.7458337"><ele>724.0</ele><time>2026-04-06T13:51:28.446Z</time></trkpt><trkpt lat="45.8141616" lon="11.7459667"><ele>724.0</ele><time>2026-04-06T13:51:30.439Z</time></trkpt><trkpt lat="45.8140948" lon="11.7459659"><ele>724.0</ele><time>2026-04-06T13:51:31.447Z</time></trkpt><trkpt lat="45.8140089" lon="11.745933"><ele>724.0</ele><time>2026-04-06T13:51:32.451Z</time></trkpt><trkpt lat="45.8139265" lon="11.7458737"><ele>724.0</ele><time>2026-04-06T13:51:33.454Z</time></trkpt><trkpt lat="45.8138357" lon="11.745832"><ele>724.0</ele><time>2026-04-06T13:51:34.453Z</time></trkpt><trkpt lat="45.8137461" lon="11.745801"><ele>724.0</ele><time>2026-04-06T13:51:35.441Z</time></trkpt><trkpt lat="45.813663" lon="11.7457766"><ele>724.0</ele><time>2026-04-06T13:51:36.45Z</time></trkpt><trkpt lat="45.8135779" lon="11.745756"><ele>724.0</ele><time>2026-04-06T13:51:37.448Z</time></trkpt><trkpt lat="45.8134904" lon="11.7457457"><ele>724.0</ele><time>2026-04-06T13:51:38.45Z</time></trkpt><trkpt lat="45.8133966" lon="11.7457487"><ele>724.0</ele><time>2026-04-06T13:51:39.452Z</time></trkpt><trkpt lat="45.8132973" lon="11.7457729"><ele>724.0</ele><time>2026-04-06T13:51:40.437Z</time></trkpt><trkpt lat="45.8131962" lon="11.7458171"><ele>724.6</ele><time>2026-04-06T13:51:41.443Z</time></trkpt><trkpt lat="45.8130935" lon="11.7458587"><ele>725.2</ele><time>2026-04-06T13:51:42.454Z</time></trkpt><trkpt lat="45.8129901" lon="11.745909"><ele>725.8000000000001</ele><time>2026-04-06T13:51:43.447Z</time></trkpt><trkpt lat="45.8128814" lon="11.7459267"><ele>726.4000000000001</ele><time>2026-04-06T13:51:44.441Z</time></trkpt><trkpt lat="45.8127636" lon="11.7459201"><ele>727.0</ele><time>2026-04-06T13:51:45.429Z</time></trkpt><trkpt lat="45.8126451" lon="11.7459072"><ele>727.0</ele><time>2026-04-06T13:51:46.45Z</time></trkpt><trkpt lat="45.8125179" lon="11.7458886"><ele>727.0</ele><time>2026-04-06T13:51:47.446Z</time></trkpt><trkpt lat="45.8123864" lon="11.7458723"><ele>727.0</ele><time>2026-04-06T13:51:48.451Z</time></trkpt><trkpt lat="45.8122497" lon="11.7458648"><ele>727.0</ele><time>2026-04-06T13:51:49.447Z</time></trkpt><trkpt lat="45.8121132" lon="11.7458543"><ele>727.0</ele><time>2026-04-06T13:51:50.441Z</time></trkpt><trkpt lat="45.8119754" lon="11.7458523"><ele>727.0</ele><time>2026-04-06T13:51:51.453Z</time></trkpt><trkpt lat="45.8118365" lon="11.7458524"><ele>727.0</ele><time>2026-04-06T13:51:52.449Z</time></trkpt><trkpt lat="45.8117032" lon="11.7458559"><ele>727.0</ele><time>2026-04-06T13:51:53.447Z</time></trkpt><trkpt lat="45.8115743" lon="11.7458606"><ele>724.75</ele><time>2026-04-06T13:51:54.445Z</time></trkpt><trkpt lat="45.8114493" lon="11.7458648"><ele>722.5</ele><time>2026-04-06T13:51:55.45Z</time></trkpt><trkpt lat="45.8113285" lon="11.7458708"><ele>720.25</ele><time>2026-04-06T13:51:56.455Z</time></trkpt><trkpt lat="45.8112124" lon="11.7458833"><ele>718.0</ele><time>2026-04-06T13:51:57.44Z</time></trkpt><trkpt lat="45.8110996" lon="11.7459024"><ele>716.0</ele><time>2026-04-06T13:51:58.446Z</time></trkpt><trkpt lat="45.810984" lon="11.7459234"><ele>714.0</ele><time>2026-04-06T13:51:59.449Z</time></trkpt><trkpt lat="45.8108607" lon="11.7459397"><ele>712.0</ele><time>2026-04-06T13:52:00.449Z</time></trkpt><trkpt lat="45.8107328" lon="11.7459442"><ele>710.0</ele><time>2026-04-06T13:52:01.445Z</time></trkpt><trkpt lat="45.8106078" lon="11.7459389"><ele>710.0</ele><time>2026-04-06T13:52:02.453Z</time></trkpt><trkpt lat="45.8104865" lon="11.7459239"><ele>710.0</ele><time>2026-04-06T13:52:03.439Z</time></trkpt><trkpt lat="45.8103751" lon="11.7458856"><ele>710.0</ele><time>2026-04-06T13:52:04.444Z</time></trkpt><trkpt lat="45.8102731" lon="11.7458036"><ele>710.0</ele><time>2026-04-06T13:52:05.441Z</time></trkpt><trkpt lat="45.8101855" lon="11.7456808"><ele>706.75</ele><time>2026-04-06T13:52:06.439Z</time></trkpt><trkpt lat="45.8101166" lon="11.7455325"><ele>703.5</ele><time>2026-04-06T13:52:07.448Z</time></trkpt><trkpt lat="45.8100529" lon="11.7453865"><ele>700.25</ele><time>2026-04-06T13:52:08.434Z</time></trkpt><trkpt lat="45.8100447" lon="11.745223"><ele>697.0</ele><time>2026-04-06T13:52:09.437Z</time></trkpt><trkpt lat="45.8100653" lon="11.7450616"><ele>697.0</ele><time>2026-04-06T13:52:10.441Z</time></trkpt><trkpt lat="45.8100879" lon="11.7449079"><ele>697.0</ele><time>2026-04-06T13:52:11.441Z</time></trkpt><trkpt lat="45.8100984" lon="11.7447625"><ele>697.0</ele><time>2026-04-06T13:52:12.447Z</time></trkpt><trkpt lat="45.810084" lon="11.744626"><ele>697.0</ele><time>2026-04-06T13:52:13.431Z</time></trkpt><trkpt lat="45.8100403" lon="11.7445083"><ele>697.0</ele><time>2026-04-06T13:52:14.432Z</time></trkpt><trkpt lat="45.8099802" lon="11.7444065"><ele>697.8333333333334</ele><time>2026-04-06T13:52:15.443Z</time></trkpt><trkpt lat="45.8099252" lon="11.7443096"><ele>698.6666666666667</ele><time>2026-04-06T13:52:16.441Z</time></trkpt><trkpt lat="45.8098668" lon="11.7442266"><ele>699.5</ele><time>2026-04-06T13:52:17.443Z</time></trkpt><trkpt lat="45.8097961" lon="11.7441408"><ele>700.3333333333334</ele><time>2026-04-06T13:52:18.457Z</time></trkpt><trkpt lat="45.8097311" lon="11.7440668"><ele>701.1666666666666</ele><time>2026-04-06T13:52:19.435Z</time></trkpt><trkpt lat="45.8096877" lon="11.7439485"><ele>702.0</ele><time>2026-04-06T13:52:20.447Z</time></trkpt><trkpt lat="45.8096582" lon="11.743843"><ele>702.0</ele><time>2026-04-06T13:52:21.434Z</time></trkpt><trkpt lat="45.8096468" lon="11.7437254"><ele>702.0</ele><time>2026-04-06T13:52:22.433Z</time></trkpt><trkpt lat="45.8096374" lon="11.7435904"><ele>702.0</ele><time>2026-04-06T13:52:23.439Z</time></trkpt><trkpt lat="45.8096172" lon="11.7434602"><ele>702.0</ele><time>2026-04-06T13:52:24.46Z</time></trkpt><trkpt lat="45.8095747" lon="11.7433575"><ele>702.0</ele><time>2026-04-06T13:52:25.427Z</time></trkpt><trkpt lat="45.8095068" lon="11.7432857"><ele>702.0</ele><time>2026-04-06T13:52:26.436Z</time></trkpt><trkpt lat="45.809419" lon="11.7432486"><ele>704.0</ele><time>2026-04-06T13:52:27.444Z</time></trkpt><trkpt lat="45.8093289" lon="11.7432306"><ele>706.0</ele><time>2026-04-06T13:52:28.438Z</time></trkpt><trkpt lat="45.8092261" lon="11.7432313"><ele>708.0</ele><time>2026-04-06T13:52:29.428Z</time></trkpt><trkpt lat="45.8090923" lon="11.7432409"><ele>710.0</ele><time>2026-04-06T13:52:30.431Z</time></trkpt><trkpt lat="45.8089829" lon="11.743272"><ele>712.0</ele><time>2026-04-06T13:52:31.444Z</time></trkpt><trkpt lat="45.8088625" lon="11.7433098"><ele>707.0</ele><time>2026-04-06T13:52:32.426Z</time></trkpt><trkpt lat="45.8087557" lon="11.7433623"><ele>702.0</ele><time>2026-04-06T13:52:33.437Z</time></trkpt><trkpt lat="45.8086476" lon="11.7434216"><ele>697.0</ele><time>2026-04-06T13:52:34.448Z</time></trkpt><trkpt lat="45.8085443" lon="11.7434887"><ele>692.0</ele><time>2026-04-06T13:52:35.438Z</time></trkpt><trkpt lat="45.8084426" lon="11.7435639"><ele>686.25</ele><time>2026-04-06T13:52:36.452Z</time></trkpt><trkpt lat="45.8083446" lon="11.743639"><ele>680.5</ele><time>2026-04-06T13:52:37.45Z</time></trkpt><trkpt lat="45.8082529" lon="11.7437377"><ele>674.75</ele><time>2026-04-06T13:52:38.442Z</time></trkpt><trkpt lat="45.8081621" lon="11.743847"><ele>669.0</ele><time>2026-04-06T13:52:39.455Z</time></trkpt><trkpt lat="45.808074" lon="11.7439541"><ele>669.0</ele><time>2026-04-06T13:52:40.453Z</time></trkpt><trkpt lat="45.807983" lon="11.7440618"><ele>669.0</ele><time>2026-04-06T13:52:41.434Z</time></trkpt><trkpt lat="45.8078902" lon="11.7441713"><ele>669.0</ele><time>2026-04-06T13:52:42.461Z</time></trkpt><trkpt lat="45.8077949" lon="11.7442868"><ele>669.0</ele><time>2026-04-06T13:52:43.453Z</time></trkpt><trkpt lat="45.8077013" lon="11.7444021"><ele>667.0</ele><time>2026-04-06T13:52:44.444Z</time></trkpt><trkpt lat="45.8076104" lon="11.7445138"><ele>665.0</ele><time>2026-04-06T13:52:45.455Z</time></trkpt><trkpt lat="45.8075151" lon="11.7446117"><ele>663.0</ele><time>2026-04-06T13:52:46.445Z</time></trkpt><trkpt lat="45.8074088" lon="11.744689"><ele>661.0</ele><time>2026-04-06T13:52:47.432Z</time></trkpt><trkpt lat="45.8072945" lon="11.7447399"><ele>661.0</ele><time>2026-04-06T13:52:48.43Z</time></trkpt><trkpt lat="45.8071839" lon="11.7447652"><ele>661.0</ele><time>2026-04-06T13:52:49.45Z</time></trkpt><trkpt lat="45.8070805" lon="11.744766"><ele>661.0</ele><time>2026-04-06T13:52:50.43Z</time></trkpt><trkpt lat="45.8069818" lon="11.7447512"><ele>661.0</ele><time>2026-04-06T13:52:51.449Z</time></trkpt><trkpt lat="45.8068902" lon="11.7447214"><ele>661.0</ele><time>2026-04-06T13:52:52.445Z</time></trkpt><trkpt lat="45.8068008" lon="11.7446769"><ele>660.4</ele><time>2026-04-06T13:52:53.434Z</time></trkpt><trkpt lat="45.8067153" lon="11.7446153"><ele>659.8</ele><time>2026-04-06T13:52:54.444Z</time></trkpt><trkpt lat="45.8066329" lon="11.7445378"><ele>659.1999999999999</ele><time>2026-04-06T13:52:55.443Z</time></trkpt><trkpt lat="45.8065548" lon="11.7444447"><ele>658.5999999999999</ele><time>2026-04-06T13:52:56.447Z</time></trkpt><trkpt lat="45.8064807" lon="11.7443378"><ele>658.0</ele><time>2026-04-06T13:52:57.437Z</time></trkpt><trkpt lat="45.806413" lon="11.7442199"><ele>658.0</ele><time>2026-04-06T13:52:58.437Z</time></trkpt><trkpt lat="45.8063533" lon="11.7440963"><ele>658.0</ele><time>2026-04-06T13:52:59.448Z</time></trkpt><trkpt lat="45.8062997" lon="11.7439718"><ele>658.0</ele><time>2026-04-06T13:53:00.435Z</time></trkpt><trkpt lat="45.8062497" lon="11.7438474"><ele>658.0</ele><time>2026-04-06T13:53:01.445Z</time></trkpt><trkpt lat="45.8062022" lon="11.7437219"><ele>658.0</ele><time>2026-04-06T13:53:02.447Z</time></trkpt><trkpt lat="45.8061572" lon="11.7435912"><ele>659.2</ele><time>2026-04-06T13:53:03.452Z</time></trkpt><trkpt lat="45.8061259" lon="11.7434472"><ele>660.4</ele><time>2026-04-06T13:53:04.453Z</time></trkpt><trkpt lat="45.8061166" lon="11.7432938"><ele>661.6</ele><time>2026-04-06T13:53:05.427Z</time></trkpt><trkpt lat="45.806127" lon="11.7431392"><ele>662.8000000000001</ele><time>2026-04-06T13:53:06.444Z</time></trkpt><trkpt lat="45.8061523" lon="11.7429903"><ele>664.0</ele><time>2026-04-06T13:53:07.445Z</time></trkpt><trkpt lat="45.806186" lon="11.7428526"><ele>664.0</ele><time>2026-04-06T13:53:08.434Z</time></trkpt><trkpt lat="45.8062183" lon="11.7427301"><ele>664.0</ele><time>2026-04-06T13:53:09.428Z</time></trkpt><trkpt lat="45.806245" lon="11.7426194"><ele>664.0</ele><time>2026-04-06T13:53:10.439Z</time></trkpt><trkpt lat="45.8062617" lon="11.7425196"><ele>664.0</ele><time>2026-04-06T13:53:11.434Z</time></trkpt><trkpt lat="45.8062491" lon="11.7423725"><ele>664.0</ele><time>2026-04-06T13:53:13.438Z</time></trkpt><trkpt lat="45.8061463" lon="11.7423505"><ele>664.0</ele><time>2026-04-06T13:53:15.44Z</time></trkpt><trkpt lat="45.8060977" lon="11.7424151"><ele>664.0</ele><time>2026-04-06T13:53:16.436Z</time></trkpt><trkpt lat="45.8060617" lon="11.7425147"><ele>664.0</ele><time>2026-04-06T13:53:17.443Z</time></trkpt><trkpt lat="45.806031" lon="11.7426403"><ele>664.0</ele><time>2026-04-06T13:53:18.433Z</time></trkpt><trkpt lat="45.8060012" lon="11.742781"><ele>664.0</ele><time>2026-04-06T13:53:19.435Z</time></trkpt><trkpt lat="45.8059621" lon="11.7429289"><ele>658.0</ele><time>2026-04-06T13:53:20.43Z</time></trkpt><trkpt lat="45.8059159" lon="11.7430761"><ele>652.0</ele><time>2026-04-06T13:53:21.443Z</time></trkpt><trkpt lat="45.8058678" lon="11.7432225"><ele>646.0</ele><time>2026-04-06T13:53:22.435Z</time></trkpt><trkpt lat="45.805824" lon="11.7433654"><ele>640.0</ele><time>2026-04-06T13:53:23.439Z</time></trkpt><trkpt lat="45.8057807" lon="11.7435086"><ele>634.0</ele><time>2026-04-06T13:53:24.449Z</time></trkpt><trkpt lat="45.8057434" lon="11.7436512"><ele>634.0</ele><time>2026-04-06T13:53:25.445Z</time></trkpt><trkpt lat="45.8057088" lon="11.7437999"><ele>634.0</ele><time>2026-04-06T13:53:26.437Z</time></trkpt><trkpt lat="45.8056812" lon="11.7439581"><ele>634.0</ele><time>2026-04-06T13:53:27.442Z</time></trkpt><trkpt lat="45.8056617" lon="11.7441197"><ele>634.0</ele><time>2026-04-06T13:53:28.45Z</time></trkpt><trkpt lat="45.8056513" lon="11.7442863"><ele>632.2</ele><time>2026-04-06T13:53:29.47Z</time></trkpt><trkpt lat="45.8056541" lon="11.7444492"><ele>630.4</ele><time>2026-04-06T13:53:30.452Z</time></trkpt><trkpt lat="45.8056711" lon="11.7446071"><ele>628.6</ele><time>2026-04-06T13:53:31.447Z</time></trkpt><trkpt lat="45.8056971" lon="11.744762"><ele>626.8</ele><time>2026-04-06T13:53:32.452Z</time></trkpt><trkpt lat="45.8057296" lon="11.7449108"><ele>625.0</ele><time>2026-04-06T13:53:33.438Z</time></trkpt><trkpt lat="45.8057607" lon="11.7450568"><ele>625.0</ele><time>2026-04-06T13:53:34.439Z</time></trkpt><trkpt lat="45.8057919" lon="11.7451977"><ele>625.0</ele><time>2026-04-06T13:53:35.443Z</time></trkpt><trkpt lat="45.8058037" lon="11.7453356"><ele>625.0</ele><time>2026-04-06T13:53:36.449Z</time></trkpt><trkpt lat="45.8057914" lon="11.7454789"><ele>625.0</ele><time>2026-04-06T13:53:37.452Z</time></trkpt><trkpt lat="45.8057667" lon="11.7456204"><ele>625.0</ele><time>2026-04-06T13:53:38.45Z</time></trkpt><trkpt lat="45.8057389" lon="11.7457582"><ele>623.8</ele><time>2026-04-06T13:53:39.442Z</time></trkpt><trkpt lat="45.8057199" lon="11.7459038"><ele>622.6</ele><time>2026-04-06T13:53:40.441Z</time></trkpt><trkpt lat="45.8057086" lon="11.7460551"><ele>621.4</ele><time>2026-04-06T13:53:41.422Z</time></trkpt><trkpt lat="45.8057027" lon="11.746208"><ele>620.2</ele><time>2026-04-06T13:53:42.424Z</time></trkpt><trkpt lat="45.805701" lon="11.7463641"><ele>619.0</ele><time>2026-04-06T13:53:43.427Z</time></trkpt><trkpt lat="45.8057174" lon="11.7466763"><ele>617.75</ele><time>2026-04-06T13:53:45.445Z</time></trkpt><trkpt lat="45.8057415" lon="11.746834"><ele>616.5</ele><time>2026-04-06T13:53:46.443Z</time></trkpt><trkpt lat="45.8057706" lon="11.746992"><ele>615.25</ele><time>2026-04-06T13:53:47.489Z</time></trkpt><trkpt lat="45.8058087" lon="11.7471501"><ele>614.0</ele><time>2026-04-06T13:53:48.427Z</time></trkpt><trkpt lat="45.805854" lon="11.7473036"><ele>611.0</ele><time>2026-04-06T13:53:49.423Z</time></trkpt><trkpt lat="45.8059064" lon="11.7474561"><ele>608.0</ele><time>2026-04-06T13:53:50.43Z</time></trkpt><trkpt lat="45.8059633" lon="11.7475996"><ele>605.0</ele><time>2026-04-06T13:53:51.438Z</time></trkpt><trkpt lat="45.8060247" lon="11.7477308"><ele>602.0</ele><time>2026-04-06T13:53:52.429Z</time></trkpt><trkpt lat="45.8060939" lon="11.747843"><ele>599.0</ele><time>2026-04-06T13:53:53.418Z</time></trkpt><trkpt lat="45.8061691" lon="11.7479342"><ele>599.0</ele><time>2026-04-06T13:53:54.431Z</time></trkpt><trkpt lat="45.8062478" lon="11.7480082"><ele>599.0</ele><time>2026-04-06T13:53:55.423Z</time></trkpt><trkpt lat="45.8063214" lon="11.7480718"><ele>599.0</ele><time>2026-04-06T13:53:56.428Z</time></trkpt><trkpt lat="45.8063806" lon="11.7481398"><ele>599.0</ele><time>2026-04-06T13:53:57.432Z</time></trkpt><trkpt lat="45.8064113" lon="11.7482231"><ele>599.0</ele><time>2026-04-06T13:53:58.421Z</time></trkpt><trkpt lat="45.8064042" lon="11.748379"><ele>599.0</ele><time>2026-04-06T13:54:00.431Z</time></trkpt><trkpt lat="45.8063337" lon="11.7483823"><ele>599.0</ele><time>2026-04-06T13:54:01.42Z</time></trkpt><trkpt lat="45.8062541" lon="11.7483428"><ele>599.0</ele><time>2026-04-06T13:54:02.426Z</time></trkpt><trkpt lat="45.8061751" lon="11.7482791"><ele>599.0</ele><time>2026-04-06T13:54:03.43Z</time></trkpt><trkpt lat="45.8060937" lon="11.7481919"><ele>599.0</ele><time>2026-04-06T13:54:04.431Z</time></trkpt><trkpt lat="45.8060053" lon="11.7480915"><ele>599.0</ele><time>2026-04-06T13:54:05.432Z</time></trkpt><trkpt lat="45.8059194" lon="11.7479961"><ele>598.4</ele><time>2026-04-06T13:54:06.418Z</time></trkpt><trkpt lat="45.8058382" lon="11.747909"><ele>597.8</ele><time>2026-04-06T13:54:07.424Z</time></trkpt><trkpt lat="45.8057676" lon="11.7478231"><ele>597.2</ele><time>2026-04-06T13:54:08.43Z</time></trkpt><trkpt lat="45.8057059" lon="11.7477307"><ele>596.6</ele><time>2026-04-06T13:54:09.417Z</time></trkpt><trkpt lat="45.8056519" lon="11.747625"><ele>596.0</ele><time>2026-04-06T13:54:10.427Z</time></trkpt><trkpt lat="45.8055994" lon="11.747504"><ele>596.0</ele><time>2026-04-06T13:54:11.418Z</time></trkpt><trkpt lat="45.8055462" lon="11.747368"><ele>596.0</ele><time>2026-04-06T13:54:12.42Z</time></trkpt><trkpt lat="45.8054942" lon="11.7472337"><ele>596.0</ele><time>2026-04-06T13:54:13.422Z</time></trkpt><trkpt lat="45.8054427" lon="11.7471015"><ele>596.0</ele><time>2026-04-06T13:54:14.429Z</time></trkpt><trkpt lat="45.8053878" lon="11.746968"><ele>596.0</ele><time>2026-04-06T13:54:15.432Z</time></trkpt><trkpt lat="45.8053263" lon="11.7468364"><ele>600.5</ele><time>2026-04-06T13:54:16.418Z</time></trkpt><trkpt lat="45.8052604" lon="11.7467076"><ele>605.0</ele><time>2026-04-06T13:54:17.428Z</time></trkpt><trkpt lat="45.8051951" lon="11.7465735"><ele>609.5</ele><time>2026-04-06T13:54:18.42Z</time></trkpt><trkpt lat="45.8051404" lon="11.7464256"><ele>614.0</ele><time>2026-04-06T13:54:19.428Z</time></trkpt><trkpt lat="45.8050948" lon="11.7462677"><ele>607.0</ele><time>2026-04-06T13:54:20.425Z</time></trkpt><trkpt lat="45.8050544" lon="11.7461029"><ele>600.0</ele><time>2026-04-06T13:54:21.426Z</time></trkpt><trkpt lat="45.8050159" lon="11.7459344"><ele>593.0</ele><time>2026-04-06T13:54:22.428Z</time></trkpt><trkpt lat="45.804977" lon="11.7457621"><ele>586.0</ele><time>2026-04-06T13:54:23.432Z</time></trkpt><trkpt lat="45.8049318" lon="11.7455894"><ele>586.0</ele><time>2026-04-06T13:54:24.419Z</time></trkpt><trkpt lat="45.8048768" lon="11.7454199"><ele>586.0</ele><time>2026-04-06T13:54:25.427Z</time></trkpt><trkpt lat="45.8048073" lon="11.7452635"><ele>586.0</ele><time>2026-04-06T13:54:26.436Z</time></trkpt><trkpt lat="45.8047275" lon="11.7451199"><ele>586.0</ele><time>2026-04-06T13:54:27.423Z</time></trkpt><trkpt lat="45.8046515" lon="11.744968"><ele>587.75</ele><time>2026-04-06T13:54:28.426Z</time></trkpt><trkpt lat="45.8045856" lon="11.7448049"><ele>589.5</ele><time>2026-04-06T13:54:29.42Z</time></trkpt><trkpt lat="45.804533" lon="11.7446283"><ele>591.25</ele><time>2026-04-06T13:54:30.426Z</time></trkpt><trkpt lat="45.8044956" lon="11.7444438"><ele>593.0</ele><time>2026-04-06T13:54:31.418Z</time></trkpt><trkpt lat="45.8044769" lon="11.7442675"><ele>593.8</ele><time>2026-04-06T13:54:32.43Z</time></trkpt><trkpt lat="45.8044689" lon="11.7440997"><ele>594.5999999999999</ele><time>2026-04-06T13:54:33.419Z</time></trkpt><trkpt lat="45.8044601" lon="11.7439553"><ele>595.4000000000001</ele><time>2026-04-06T13:54:34.424Z</time></trkpt><trkpt lat="45.8044404" lon="11.7438286"><ele>596.2</ele><time>2026-04-06T13:54:35.428Z</time></trkpt><trkpt lat="45.8043923" lon="11.7437285"><ele>597.0</ele><time>2026-04-06T13:54:36.429Z</time></trkpt><trkpt lat="45.8043215" lon="11.7436711"><ele>590.4</ele><time>2026-04-06T13:54:37.421Z</time></trkpt><trkpt lat="45.804237" lon="11.7436621"><ele>583.8000000000001</ele><time>2026-04-06T13:54:38.424Z</time></trkpt><trkpt lat="45.8041477" lon="11.7436923"><ele>577.2</ele><time>2026-04-06T13:54:39.427Z</time></trkpt><trkpt lat="45.8040515" lon="11.7437428"><ele>570.6</ele><time>2026-04-06T13:54:40.428Z</time></trkpt><trkpt lat="45.8039502" lon="11.7437988"><ele>564.0</ele><time>2026-04-06T13:54:41.432Z</time></trkpt><trkpt lat="45.8038461" lon="11.7438531"><ele>564.0</ele><time>2026-04-06T13:54:42.427Z</time></trkpt><trkpt lat="45.8037388" lon="11.7439106"><ele>564.0</ele><time>2026-04-06T13:54:43.428Z</time></trkpt><trkpt lat="45.8036331" lon="11.74396"><ele>564.0</ele><time>2026-04-06T13:54:44.428Z</time></trkpt><trkpt lat="45.803528" lon="11.7439927"><ele>564.0</ele><time>2026-04-06T13:54:45.427Z</time></trkpt><trkpt lat="45.8034225" lon="11.744003"><ele>564.0</ele><time>2026-04-06T13:54:46.419Z</time></trkpt><trkpt lat="45.8033181" lon="11.7439854"><ele>562.0</ele><time>2026-04-06T13:54:47.421Z</time></trkpt><trkpt lat="45.8032178" lon="11.7439446"><ele>560.0</ele><time>2026-04-06T13:54:48.431Z</time></trkpt><trkpt lat="45.8031229" lon="11.7438929"><ele>558.0</ele><time>2026-04-06T13:54:49.419Z</time></trkpt><trkpt lat="45.8030319" lon="11.7438424"><ele>556.0</ele><time>2026-04-06T13:54:50.418Z</time></trkpt><trkpt lat="45.8029467" lon="11.7437936"><ele>554.0</ele><time>2026-04-06T13:54:51.428Z</time></trkpt><trkpt lat="45.8028704" lon="11.7437585"><ele>554.0</ele><time>2026-04-06T13:54:52.434Z</time></trkpt><trkpt lat="45.8027996" lon="11.7437636"><ele>554.0</ele><time>2026-04-06T13:54:53.419Z</time></trkpt><trkpt lat="45.8027426" lon="11.7438097"><ele>554.0</ele><time>2026-04-06T13:54:54.43Z</time></trkpt><trkpt lat="45.8026744" lon="11.7439336"><ele>554.0</ele><time>2026-04-06T13:54:56.425Z</time></trkpt><trkpt lat="45.8027235" lon="11.7440217"><ele>554.0</ele><time>2026-04-06T13:54:57.43Z</time></trkpt><trkpt lat="45.8027972" lon="11.7440864"><ele>554.0</ele><time>2026-04-06T13:54:58.42Z</time></trkpt><trkpt lat="45.8028822" lon="11.7441362"><ele>554.0</ele><time>2026-04-06T13:54:59.443Z</time></trkpt><trkpt lat="45.8029621" lon="11.7441932"><ele>554.0</ele><time>2026-04-06T13:55:00.421Z</time></trkpt><trkpt lat="45.8030332" lon="11.7442657"><ele>554.0</ele><time>2026-04-06T13:55:01.419Z</time></trkpt><trkpt lat="45.8031015" lon="11.7443459"><ele>554.0</ele><time>2026-04-06T13:55:02.423Z</time></trkpt><trkpt lat="45.8031727" lon="11.7444208"><ele>554.0</ele><time>2026-04-06T13:55:03.422Z</time></trkpt><trkpt lat="45.8032443" lon="11.7444941"><ele>554.0</ele><time>2026-04-06T13:55:04.433Z</time></trkpt><trkpt lat="45.8033214" lon="11.7445584"><ele>554.6666666666666</ele><time>2026-04-06T13:55:05.433Z</time></trkpt><trkpt lat="45.8034059" lon="11.7445946"><ele>555.3333333333333</ele><time>2026-04-06T13:55:06.423Z</time></trkpt><trkpt lat="45.8034922" lon="11.7445896"><ele>556.0</ele><time>2026-04-06T13:55:07.432Z</time></trkpt><trkpt lat="45.8035793" lon="11.7445813"><ele>556.6666666666666</ele><time>2026-04-06T13:55:08.42Z</time></trkpt><trkpt lat="45.8036539" lon="11.7445228"><ele>557.3333333333334</ele><time>2026-04-06T13:55:09.422Z</time></trkpt><trkpt lat="45.8037279" lon="11.7444801"><ele>558.0</ele><time>2026-04-06T13:55:10.429Z</time></trkpt><trkpt lat="45.8038022" lon="11.7444867"><ele>558.0</ele><time>2026-04-06T13:55:11.428Z</time></trkpt><trkpt lat="45.8038642" lon="11.7445512"><ele>558.0</ele><time>2026-04-06T13:55:12.433Z</time></trkpt><trkpt lat="45.8038941" lon="11.7446534"><ele>558.0</ele><time>2026-04-06T13:55:13.431Z</time></trkpt><trkpt lat="45.803924" lon="11.7447603"><ele>558.0</ele><time>2026-04-06T13:55:14.426Z</time></trkpt><trkpt lat="45.8039176" lon="11.7448846"><ele>558.0</ele><time>2026-04-06T13:55:15.434Z</time></trkpt><trkpt lat="45.8038963" lon="11.7450093"><ele>558.0</ele><time>2026-04-06T13:55:16.428Z</time></trkpt><trkpt lat="45.8038638" lon="11.7451338"><ele>556.0</ele><time>2026-04-06T13:55:17.426Z</time></trkpt><trkpt lat="45.8038219" lon="11.745259"><ele>554.0</ele><time>2026-04-06T13:55:18.43Z</time></trkpt><trkpt lat="45.8037818" lon="11.7453857"><ele>552.0</ele><time>2026-04-06T13:55:19.429Z</time></trkpt><trkpt lat="45.8037516" lon="11.745525"><ele>550.0</ele><time>2026-04-06T13:55:20.418Z</time></trkpt><trkpt lat="45.8037469" lon="11.7456726"><ele>548.0</ele><time>2026-04-06T13:55:21.426Z</time></trkpt><trkpt lat="45.8037642" lon="11.7458227"><ele>548.0</ele><time>2026-04-06T13:55:22.43Z</time></trkpt><trkpt lat="45.8037997" lon="11.7459706"><ele>548.0</ele><time>2026-04-06T13:55:23.429Z</time></trkpt><trkpt lat="45.803849" lon="11.7461155"><ele>548.0</ele><time>2026-04-06T13:55:24.428Z</time></trkpt><trkpt lat="45.8039114" lon="11.7462493"><ele>548.0</ele><time>2026-04-06T13:55:25.421Z</time></trkpt><trkpt lat="45.8039821" lon="11.7463682"><ele>548.0</ele><time>2026-04-06T13:55:26.428Z</time></trkpt><trkpt lat="45.8040547" lon="11.7464798"><ele>547.8</ele><time>2026-04-06T13:55:27.431Z</time></trkpt><trkpt lat="45.8041263" lon="11.7465902"><ele>547.5999999999999</ele><time>2026-04-06T13:55:28.428Z</time></trkpt><trkpt lat="45.804198" lon="11.746703"><ele>547.4000000000001</ele><time>2026-04-06T13:55:29.421Z</time></trkpt><trkpt lat="45.8042719" lon="11.7468162"><ele>547.2</ele><time>2026-04-06T13:55:30.43Z</time></trkpt><trkpt lat="45.8043451" lon="11.7469292"><ele>547.0</ele><time>2026-04-06T13:55:31.422Z</time></trkpt><trkpt lat="45.8044202" lon="11.7470395"><ele>547.0</ele><time>2026-04-06T13:55:32.431Z</time></trkpt><trkpt lat="45.8044942" lon="11.7471505"><ele>547.0</ele><time>2026-04-06T13:55:33.428Z</time></trkpt><trkpt lat="45.804565" lon="11.7472642"><ele>547.0</ele><time>2026-04-06T13:55:34.427Z</time></trkpt><trkpt lat="45.8046308" lon="11.7473872"><ele>547.0</ele><time>2026-04-06T13:55:35.429Z</time></trkpt><trkpt lat="45.8046924" lon="11.7475244"><ele>547.0</ele><time>2026-04-06T13:55:36.419Z</time></trkpt><trkpt lat="45.8047535" lon="11.7476638"><ele>540.75</ele><time>2026-04-06T13:55:37.428Z</time></trkpt><trkpt lat="45.8048043" lon="11.7478076"><ele>534.5</ele><time>2026-04-06T13:55:38.428Z</time></trkpt><trkpt lat="45.804853" lon="11.7479558"><ele>528.25</ele><time>2026-04-06T13:55:39.432Z</time></trkpt><trkpt lat="45.8049" lon="11.7481093"><ele>522.0</ele><time>2026-04-06T13:55:40.441Z</time></trkpt><trkpt lat="45.8049441" lon="11.7482688"><ele>522.0</ele><time>2026-04-06T13:55:41.423Z</time></trkpt><trkpt lat="45.8049884" lon="11.7484263"><ele>522.0</ele><time>2026-04-06T13:55:42.432Z</time></trkpt><trkpt lat="45.8050335" lon="11.748586"><ele>522.0</ele><time>2026-04-06T13:55:43.42Z</time></trkpt><trkpt lat="45.805078" lon="11.7487478"><ele>522.0</ele><time>2026-04-06T13:55:44.429Z</time></trkpt><trkpt lat="45.805127" lon="11.74891"><ele>522.0</ele><time>2026-04-06T13:55:45.431Z</time></trkpt><trkpt lat="45.8051745" lon="11.7490705"><ele>522.0</ele><time>2026-04-06T13:55:46.428Z</time></trkpt><trkpt lat="45.8052211" lon="11.7492276"><ele>522.0</ele><time>2026-04-06T13:55:47.43Z</time></trkpt><trkpt lat="45.8052684" lon="11.7493773"><ele>522.0</ele><time>2026-04-06T13:55:48.43Z</time></trkpt><trkpt lat="45.8053128" lon="11.749525"><ele>522.0</ele><time>2026-04-06T13:55:49.428Z</time></trkpt><trkpt lat="45.8053484" lon="11.7496703"><ele>522.0</ele><time>2026-04-06T13:55:50.419Z</time></trkpt><trkpt lat="45.8053673" lon="11.7498166"><ele>522.0</ele><time>2026-04-06T13:55:51.419Z</time></trkpt><trkpt lat="45.8053839" lon="11.7499552"><ele>522.0</ele><time>2026-04-06T13:55:52.426Z</time></trkpt><trkpt lat="45.805424" lon="11.7500796"><ele>522.0</ele><time>2026-04-06T13:55:53.432Z</time></trkpt><trkpt lat="45.8054897" lon="11.7501848"><ele>515.4</ele><time>2026-04-06T13:55:54.417Z</time></trkpt><trkpt lat="45.8055711" lon="11.7502709"><ele>508.80000000000007</ele><time>2026-04-06T13:55:55.426Z</time></trkpt><trkpt lat="45.8056609" lon="11.750347"><ele>502.2</ele><time>2026-04-06T13:55:56.423Z</time></trkpt><trkpt lat="45.8057533" lon="11.750422"><ele>495.6</ele><time>2026-04-06T13:55:57.427Z</time></trkpt><trkpt lat="45.8058439" lon="11.7505006"><ele>489.0</ele><time>2026-04-06T13:55:58.417Z</time></trkpt><trkpt lat="45.8059355" lon="11.7505818"><ele>498.0</ele><time>2026-04-06T13:55:59.42Z</time></trkpt><trkpt lat="45.8060222" lon="11.7506754"><ele>507.0</ele><time>2026-04-06T13:56:00.43Z</time></trkpt><trkpt lat="45.8061059" lon="11.7507837"><ele>516.0</ele><time>2026-04-06T13:56:01.431Z</time></trkpt><trkpt lat="45.806182" lon="11.7509077"><ele>525.0</ele><time>2026-04-06T13:56:02.419Z</time></trkpt><trkpt lat="45.806253" lon="11.7510385"><ele>518.8</ele><time>2026-04-06T13:56:03.428Z</time></trkpt><trkpt lat="45.8063244" lon="11.7511688"><ele>512.6</ele><time>2026-04-06T13:56:04.431Z</time></trkpt><trkpt lat="45.8063924" lon="11.7512952"><ele>506.4</ele><time>2026-04-06T13:56:05.43Z</time></trkpt><trkpt lat="45.806457" lon="11.7514153"><ele>500.2</ele><time>2026-04-06T13:56:06.429Z</time></trkpt><trkpt lat="45.8065107" lon="11.751544"><ele>494.0</ele><time>2026-04-06T13:56:07.433Z</time></trkpt><trkpt lat="45.8065647" lon="11.7516703"><ele>494.0</ele><time>2026-04-06T13:56:08.421Z</time></trkpt><trkpt lat="45.8066327" lon="11.751779"><ele>494.0</ele><time>2026-04-06T13:56:09.417Z</time></trkpt><trkpt lat="45.8067138" lon="11.7518682"><ele>494.0</ele><time>2026-04-06T13:56:10.428Z</time></trkpt><trkpt lat="45.8067991" lon="11.7519454"><ele>494.0</ele><time>2026-04-06T13:56:11.431Z</time></trkpt><trkpt lat="45.8068867" lon="11.7520235"><ele>494.0</ele><time>2026-04-06T13:56:12.424Z</time></trkpt><trkpt lat="45.8069688" lon="11.7520993"><ele>488.6</ele><time>2026-04-06T13:56:13.429Z</time></trkpt><trkpt lat="45.8070472" lon="11.7521704"><ele>483.2</ele><time>2026-04-06T13:56:14.419Z</time></trkpt><trkpt lat="45.8071277" lon="11.7522377"><ele>477.80000000000007</ele><time>2026-04-06T13:56:15.426Z</time></trkpt><trkpt lat="45.8072172" lon="11.7522893"><ele>472.40000000000003</ele><time>2026-04-06T13:56:16.42Z</time></trkpt><trkpt lat="45.8073121" lon="11.7523169"><ele>467.0</ele><time>2026-04-06T13:56:17.428Z</time></trkpt><trkpt lat="45.8074078" lon="11.7523315"><ele>467.0</ele><time>2026-04-06T13:56:18.422Z</time></trkpt><trkpt lat="45.807504" lon="11.7523414"><ele>467.00000000000006</ele><time>2026-04-06T13:56:19.426Z</time></trkpt><trkpt lat="45.8076017" lon="11.7523583"><ele>467.00000000000006</ele><time>2026-04-06T13:56:20.422Z</time></trkpt><trkpt lat="45.8077008" lon="11.7523717"><ele>467.0</ele><time>2026-04-06T13:56:21.428Z</time></trkpt><trkpt lat="45.8078016" lon="11.7523875"><ele>467.0</ele><time>2026-04-06T13:56:22.428Z</time></trkpt><trkpt lat="45.8079041" lon="11.7524033"><ele>467.20000000000005</ele><time>2026-04-06T13:56:23.43Z</time></trkpt><trkpt lat="45.8080047" lon="11.752419"><ele>467.40000000000003</ele><time>2026-04-06T13:56:24.428Z</time></trkpt><trkpt lat="45.8081043" lon="11.7524325"><ele>467.59999999999997</ele><time>2026-04-06T13:56:25.427Z</time></trkpt><trkpt lat="45.8082108" lon="11.7524393"><ele>467.79999999999995</ele><time>2026-04-06T13:56:26.431Z</time></trkpt><trkpt lat="45.8083159" lon="11.7524463"><ele>468.0</ele><time>2026-04-06T13:56:27.436Z</time></trkpt><trkpt lat="45.8084252" lon="11.7524438"><ele>465.79999999999995</ele><time>2026-04-06T13:56:28.436Z</time></trkpt><trkpt lat="45.8085308" lon="11.7524344"><ele>463.59999999999997</ele><time>2026-04-06T13:56:29.43Z</time></trkpt><trkpt lat="45.8086312" lon="11.7524281"><ele>461.40000000000003</ele><time>2026-04-06T13:56:30.43Z</time></trkpt><trkpt lat="45.8087338" lon="11.7524187"><ele>459.20000000000005</ele><time>2026-04-06T13:56:31.429Z</time></trkpt><trkpt lat="45.8088343" lon="11.7524022"><ele>457.0</ele><time>2026-04-06T13:56:32.429Z</time></trkpt><trkpt lat="45.8089204" lon="11.7523749"><ele>457.0</ele><time>2026-04-06T13:56:33.42Z</time></trkpt><trkpt lat="45.8090077" lon="11.7523586"><ele>457.00000000000006</ele><time>2026-04-06T13:56:34.427Z</time></trkpt><trkpt lat="45.8090955" lon="11.752345"><ele>457.00000000000006</ele><time>2026-04-06T13:56:35.434Z</time></trkpt><trkpt lat="45.8091895" lon="11.7523263"><ele>457.0</ele><time>2026-04-06T13:56:36.43Z</time></trkpt><trkpt lat="45.8092825" lon="11.7523038"><ele>457.0</ele><time>2026-04-06T13:56:37.439Z</time></trkpt><trkpt lat="45.809383" lon="11.7522683"><ele>453.20000000000005</ele><time>2026-04-06T13:56:38.43Z</time></trkpt><trkpt lat="45.809486" lon="11.7522332"><ele>449.40000000000003</ele><time>2026-04-06T13:56:39.433Z</time></trkpt><trkpt lat="45.8095843" lon="11.7521778"><ele>445.59999999999997</ele><time>2026-04-06T13:56:40.425Z</time></trkpt><trkpt lat="45.8096728" lon="11.7521144"><ele>441.79999999999995</ele><time>2026-04-06T13:56:41.434Z</time></trkpt><trkpt lat="45.8097539" lon="11.7520538"><ele>438.0</ele><time>2026-04-06T13:56:42.417Z</time></trkpt><trkpt lat="45.809833" lon="11.7519974"><ele>438.0</ele><time>2026-04-06T13:56:43.441Z</time></trkpt><trkpt lat="45.8099097" lon="11.7519428"><ele>437.99999999999994</ele><time>2026-04-06T13:56:44.425Z</time></trkpt><trkpt lat="45.8100006" lon="11.751899"><ele>437.99999999999994</ele><time>2026-04-06T13:56:45.435Z</time></trkpt><trkpt lat="45.8100972" lon="11.7518909"><ele>438.0</ele><time>2026-04-06T13:56:46.43Z</time></trkpt><trkpt lat="45.8101901" lon="11.7518738"><ele>438.0</ele><time>2026-04-06T13:56:47.434Z</time></trkpt><trkpt lat="45.8102689" lon="11.751848"><ele>441.4</ele><time>2026-04-06T13:56:48.433Z</time></trkpt><trkpt lat="45.8103426" lon="11.7518408"><ele>444.79999999999995</ele><time>2026-04-06T13:56:49.435Z</time></trkpt><trkpt lat="45.8104055" lon="11.7518194"><ele>448.2</ele><time>2026-04-06T13:56:50.441Z</time></trkpt><trkpt lat="45.8105115" lon="11.7517708"><ele>451.6</ele><time>2026-04-06T13:56:52.43Z</time></trkpt><trkpt lat="45.8106172" lon="11.7517361"><ele>455.0</ele><time>2026-04-06T13:56:54.434Z</time></trkpt><trkpt lat="45.8106919" lon="11.7518695"><ele>448.3333333333333</ele><time>2026-04-06T13:56:56.437Z</time></trkpt><trkpt lat="45.8106018" lon="11.7519508"><ele>441.66666666666663</ele><time>2026-04-06T13:56:58.443Z</time></trkpt><trkpt lat="45.8105278" lon="11.7519502"><ele>435.0</ele><time>2026-04-06T13:56:59.448Z</time></trkpt><trkpt lat="45.8104527" lon="11.7519581"><ele>428.33333333333337</ele><time>2026-04-06T13:57:00.436Z</time></trkpt><trkpt lat="45.8103699" lon="11.7519709"><ele>421.6666666666667</ele><time>2026-04-06T13:57:01.435Z</time></trkpt><trkpt lat="45.8102846" lon="11.7519837"><ele>415.0</ele><time>2026-04-06T13:57:02.437Z</time></trkpt><trkpt lat="45.8102026" lon="11.7519977"><ele>418.83333333333337</ele><time>2026-04-06T13:57:03.441Z</time></trkpt><trkpt lat="45.8101228" lon="11.7520131"><ele>422.6666666666667</ele><time>2026-04-06T13:57:04.432Z</time></trkpt><trkpt lat="45.8100456" lon="11.7520287"><ele>426.5</ele><time>2026-04-06T13:57:05.437Z</time></trkpt><trkpt lat="45.809975" lon="11.7520501"><ele>430.33333333333337</ele><time>2026-04-06T13:57:06.438Z</time></trkpt><trkpt lat="45.8099036" lon="11.7521081"><ele>434.1666666666667</ele><time>2026-04-06T13:57:07.44Z</time></trkpt><trkpt lat="45.8098427" lon="11.752196"><ele>438.0</ele><time>2026-04-06T13:57:08.443Z</time></trkpt><trkpt lat="45.8097804" lon="11.7522793"><ele>438.0</ele><time>2026-04-06T13:57:09.433Z</time></trkpt><trkpt lat="45.809715" lon="11.752368"><ele>437.99999999999994</ele><time>2026-04-06T13:57:10.437Z</time></trkpt><trkpt lat="45.8096444" lon="11.752452"><ele>437.99999999999994</ele><time>2026-04-06T13:57:11.443Z</time></trkpt><trkpt lat="45.8095632" lon="11.7525287"><ele>438.0</ele><time>2026-04-06T13:57:12.437Z</time></trkpt><trkpt lat="45.8094786" lon="11.7525915"><ele>438.0</ele><time>2026-04-06T13:57:13.43Z</time></trkpt><trkpt lat="45.8093966" lon="11.752652"><ele>441.79999999999995</ele><time>2026-04-06T13:57:14.439Z</time></trkpt><trkpt lat="45.8093015" lon="11.7526931"><ele>445.59999999999997</ele><time>2026-04-06T13:57:15.444Z</time></trkpt><trkpt lat="45.8092062" lon="11.7527352"><ele>449.40000000000003</ele><time>2026-04-06T13:57:16.427Z</time></trkpt><trkpt lat="45.8091047" lon="11.7527724"><ele>453.20000000000005</ele><time>2026-04-06T13:57:17.442Z</time></trkpt><trkpt lat="45.8090061" lon="11.7528074"><ele>457.0</ele><time>2026-04-06T13:57:18.44Z</time></trkpt><trkpt lat="45.808906" lon="11.7528403"><ele>449.8</ele><time>2026-04-06T13:57:19.427Z</time></trkpt><trkpt lat="45.8088059" lon="11.7528863"><ele>442.6</ele><time>2026-04-06T13:57:20.436Z</time></trkpt><trkpt lat="45.8087045" lon="11.7529367"><ele>435.40000000000003</ele><time>2026-04-06T13:57:21.437Z</time></trkpt><trkpt lat="45.8085955" lon="11.7529896"><ele>428.20000000000005</ele><time>2026-04-06T13:57:22.427Z</time></trkpt><trkpt lat="45.8084927" lon="11.7530491"><ele>421.0</ele><time>2026-04-06T13:57:23.436Z</time></trkpt><trkpt lat="45.8083913" lon="11.7530827"><ele>421.0</ele><time>2026-04-06T13:57:24.426Z</time></trkpt><trkpt lat="45.8082965" lon="11.753107"><ele>421.0</ele><time>2026-04-06T13:57:25.448Z</time></trkpt><trkpt lat="45.8081994" lon="11.753123"><ele>421.0</ele><time>2026-04-06T13:57:26.434Z</time></trkpt><trkpt lat="45.8081034" lon="11.7531492"><ele>421.0</ele><time>2026-04-06T13:57:27.437Z</time></trkpt><trkpt lat="45.8080044" lon="11.7531757"><ele>421.0</ele><time>2026-04-06T13:57:28.439Z</time></trkpt><trkpt lat="45.8079066" lon="11.7531971"><ele>421.0</ele><time>2026-04-06T13:57:29.429Z</time></trkpt><trkpt lat="45.8078036" lon="11.7532097"><ele>421.0</ele><time>2026-04-06T13:57:30.435Z</time></trkpt><trkpt lat="45.8077056" lon="11.7532206"><ele>421.0</ele><time>2026-04-06T13:57:31.426Z</time></trkpt><trkpt lat="45.8076064" lon="11.7532169"><ele>421.0</ele><time>2026-04-06T13:57:32.435Z</time></trkpt><trkpt lat="45.807505" lon="11.7532233"><ele>421.0</ele><time>2026-04-06T13:57:33.439Z</time></trkpt><trkpt lat="45.807413" lon="11.7532601"><ele>422.8</ele><time>2026-04-06T13:57:34.444Z</time></trkpt><trkpt lat="45.8073127" lon="11.753298"><ele>424.6</ele><time>2026-04-06T13:57:35.427Z</time></trkpt><trkpt lat="45.8072109" lon="11.7533298"><ele>426.4</ele><time>2026-04-06T13:57:36.436Z</time></trkpt><trkpt lat="45.8071048" lon="11.7533585"><ele>428.2</ele><time>2026-04-06T13:57:37.443Z</time></trkpt><trkpt lat="45.8069914" lon="11.7533686"><ele>430.0</ele><time>2026-04-06T13:57:38.432Z</time></trkpt><trkpt lat="45.8068774" lon="11.7533579"><ele>426.0</ele><time>2026-04-06T13:57:39.443Z</time></trkpt><trkpt lat="45.8067677" lon="11.7533332"><ele>422.0</ele><time>2026-04-06T13:57:40.434Z</time></trkpt><trkpt lat="45.8066608" lon="11.7533032"><ele>418.0</ele><time>2026-04-06T13:57:41.439Z</time></trkpt><trkpt lat="45.8065586" lon="11.7532667"><ele>414.0</ele><time>2026-04-06T13:57:42.434Z</time></trkpt><trkpt lat="45.8064603" lon="11.7532278"><ele>410.0</ele><time>2026-04-06T13:57:43.443Z</time></trkpt><trkpt lat="45.8063607" lon="11.7531809"><ele>410.0</ele><time>2026-04-06T13:57:44.435Z</time></trkpt><trkpt lat="45.8062647" lon="11.753121"><ele>410.0</ele><time>2026-04-06T13:57:45.436Z</time></trkpt><trkpt lat="45.806184" lon="11.7530469"><ele>410.0</ele><time>2026-04-06T13:57:46.429Z</time></trkpt><trkpt lat="45.8061078" lon="11.7529713"><ele>410.0</ele><time>2026-04-06T13:57:47.444Z</time></trkpt><trkpt lat="45.8060316" lon="11.7529041"><ele>410.0</ele><time>2026-04-06T13:57:48.431Z</time></trkpt><trkpt lat="45.805954" lon="11.7528311"><ele>412.0</ele><time>2026-04-06T13:57:49.438Z</time></trkpt><trkpt lat="45.8058771" lon="11.7527648"><ele>414.0</ele><time>2026-04-06T13:57:50.436Z</time></trkpt><trkpt lat="45.8057967" lon="11.7526966"><ele>416.0</ele><time>2026-04-06T13:57:51.437Z</time></trkpt><trkpt lat="45.8057131" lon="11.7526257"><ele>418.0</ele><time>2026-04-06T13:57:52.424Z</time></trkpt><trkpt lat="45.8056293" lon="11.7525535"><ele>420.0</ele><time>2026-04-06T13:57:53.441Z</time></trkpt><trkpt lat="45.805541" lon="11.7524783"><ele>420.0</ele><time>2026-04-06T13:57:54.431Z</time></trkpt><trkpt lat="45.8054533" lon="11.752404"><ele>420.0</ele><time>2026-04-06T13:57:55.427Z</time></trkpt><trkpt lat="45.8053643" lon="11.75233"><ele>420.0</ele><time>2026-04-06T13:57:56.442Z</time></trkpt><trkpt lat="45.8052753" lon="11.7522528"><ele>420.0</ele><time>2026-04-06T13:57:57.428Z</time></trkpt><trkpt lat="45.8051874" lon="11.7521789"><ele>420.0</ele><time>2026-04-06T13:57:58.434Z</time></trkpt><trkpt lat="45.8051014" lon="11.7521066"><ele>419.0</ele><time>2026-04-06T13:57:59.427Z</time></trkpt><trkpt lat="45.8050153" lon="11.7520337"><ele>418.0</ele><time>2026-04-06T13:58:00.432Z</time></trkpt><trkpt lat="45.8049323" lon="11.7519693"><ele>417.0</ele><time>2026-04-06T13:58:01.442Z</time></trkpt><trkpt lat="45.8048481" lon="11.7519026"><ele>416.0</ele><time>2026-04-06T13:58:02.429Z</time></trkpt><trkpt lat="45.8047644" lon="11.7518386"><ele>415.0</ele><time>2026-04-06T13:58:03.429Z</time></trkpt><trkpt lat="45.8046812" lon="11.7517713"><ele>415.0</ele><time>2026-04-06T13:58:04.442Z</time></trkpt><trkpt lat="45.8045954" lon="11.7516971"><ele>415.0</ele><time>2026-04-06T13:58:05.438Z</time></trkpt><trkpt lat="45.8045087" lon="11.751615"><ele>415.0</ele><time>2026-04-06T13:58:06.423Z</time></trkpt><trkpt lat="45.8044246" lon="11.7515267"><ele>415.0</ele><time>2026-04-06T13:58:07.434Z</time></trkpt><trkpt lat="45.8043457" lon="11.7514393"><ele>415.0</ele><time>2026-04-06T13:58:08.44Z</time></trkpt><trkpt lat="45.8042809" lon="11.7513198"><ele>411.4</ele><time>2026-04-06T13:58:09.437Z</time></trkpt><trkpt lat="45.8042193" lon="11.7511998"><ele>407.8</ele><time>2026-04-06T13:58:10.432Z</time></trkpt><trkpt lat="45.8041733" lon="11.751065"><ele>404.20000000000005</ele><time>2026-04-06T13:58:11.432Z</time></trkpt><trkpt lat="45.8041268" lon="11.7509255"><ele>400.6</ele><time>2026-04-06T13:58:12.435Z</time></trkpt><trkpt lat="45.8040654" lon="11.7507931"><ele>397.0</ele><time>2026-04-06T13:58:13.434Z</time></trkpt><trkpt lat="45.8040017" lon="11.750654"><ele>397.0</ele><time>2026-04-06T13:58:14.437Z</time></trkpt><trkpt lat="45.8039307" lon="11.7505035"><ele>397.0</ele><time>2026-04-06T13:58:15.434Z</time></trkpt><trkpt lat="45.8038723" lon="11.7503781"><ele>397.0</ele><time>2026-04-06T13:58:16.431Z</time></trkpt><trkpt lat="45.8038157" lon="11.7502507"><ele>397.0</ele><time>2026-04-06T13:58:17.438Z</time></trkpt><trkpt lat="45.8037562" lon="11.7501235"><ele>397.0</ele><time>2026-04-06T13:58:18.44Z</time></trkpt><trkpt lat="45.8036955" lon="11.7499963"><ele>400.20000000000005</ele><time>2026-04-06T13:58:19.435Z</time></trkpt><trkpt lat="45.8036304" lon="11.749878"><ele>403.4</ele><time>2026-04-06T13:58:20.437Z</time></trkpt><trkpt lat="45.8035664" lon="11.7497682"><ele>406.6</ele><time>2026-04-06T13:58:21.442Z</time></trkpt><trkpt lat="45.8035102" lon="11.7496706"><ele>409.79999999999995</ele><time>2026-04-06T13:58:22.436Z</time></trkpt><trkpt lat="45.8034556" lon="11.7495765"><ele>413.0</ele><time>2026-04-06T13:58:23.433Z</time></trkpt><trkpt lat="45.8033995" lon="11.74948"><ele>408.59999999999997</ele><time>2026-04-06T13:58:24.436Z</time></trkpt><trkpt lat="45.8033412" lon="11.7493802"><ele>404.2</ele><time>2026-04-06T13:58:25.44Z</time></trkpt><trkpt lat="45.8032757" lon="11.7492785"><ele>399.8</ele><time>2026-04-06T13:58:26.439Z</time></trkpt><trkpt lat="45.8032129" lon="11.7491796"><ele>395.4</ele><time>2026-04-06T13:58:27.437Z</time></trkpt><trkpt lat="45.8031479" lon="11.7490786"><ele>391.0</ele><time>2026-04-06T13:58:28.432Z</time></trkpt><trkpt lat="45.8030813" lon="11.748983"><ele>391.0</ele><time>2026-04-06T13:58:29.434Z</time></trkpt><trkpt lat="45.8030108" lon="11.7488991"><ele>391.0</ele><time>2026-04-06T13:58:30.445Z</time></trkpt><trkpt lat="45.8029394" lon="11.7488189"><ele>391.0</ele><time>2026-04-06T13:58:31.43Z</time></trkpt><trkpt lat="45.8028544" lon="11.7487778"><ele>391.0</ele><time>2026-04-06T13:58:32.43Z</time></trkpt><trkpt lat="45.8027553" lon="11.7487645"><ele>391.0</ele><time>2026-04-06T13:58:33.432Z</time></trkpt><trkpt lat="45.8026559" lon="11.7487546"><ele>383.8</ele><time>2026-04-06T13:58:34.435Z</time></trkpt><trkpt lat="45.8025482" lon="11.7487487"><ele>376.6</ele><time>2026-04-06T13:58:35.434Z</time></trkpt><trkpt lat="45.8024458" lon="11.7487435"><ele>369.4</ele><time>2026-04-06T13:58:36.433Z</time></trkpt><trkpt lat="45.8023385" lon="11.7487307"><ele>362.2</ele><time>2026-04-06T13:58:37.436Z</time></trkpt><trkpt lat="45.8022324" lon="11.7487204"><ele>355.0</ele><time>2026-04-06T13:58:38.424Z</time></trkpt><trkpt lat="45.8021334" lon="11.7487052"><ele>355.0</ele><time>2026-04-06T13:58:39.435Z</time></trkpt><trkpt lat="45.8020336" lon="11.7486712"><ele>355.0</ele><time>2026-04-06T13:58:40.432Z</time></trkpt><trkpt lat="45.8019383" lon="11.748609"><ele>355.0</ele><time>2026-04-06T13:58:41.455Z</time></trkpt><trkpt lat="45.801844" lon="11.7485311"><ele>355.0</ele><time>2026-04-06T13:58:42.432Z</time></trkpt><trkpt lat="45.8017503" lon="11.7484356"><ele>355.0</ele><time>2026-04-06T13:58:43.442Z</time></trkpt><trkpt lat="45.8016604" lon="11.7483389"><ele>356.8</ele><time>2026-04-06T13:58:44.428Z</time></trkpt><trkpt lat="45.8015726" lon="11.7482376"><ele>358.6</ele><time>2026-04-06T13:58:45.438Z</time></trkpt><trkpt lat="45.801481" lon="11.7481449"><ele>360.4</ele><time>2026-04-06T13:58:46.423Z</time></trkpt><trkpt lat="45.8013988" lon="11.7480611"><ele>362.2</ele><time>2026-04-06T13:58:47.434Z</time></trkpt><trkpt lat="45.8013257" lon="11.7479803"><ele>364.0</ele><time>2026-04-06T13:58:48.435Z</time></trkpt><trkpt lat="45.8012526" lon="11.7478997"><ele>364.0</ele><time>2026-04-06T13:58:49.432Z</time></trkpt><trkpt lat="45.8011856" lon="11.7478231"><ele>364.0</ele><time>2026-04-06T13:58:50.425Z</time></trkpt><trkpt lat="45.8011168" lon="11.7477503"><ele>364.0</ele><time>2026-04-06T13:58:51.436Z</time></trkpt><trkpt lat="45.8010536" lon="11.7476814"><ele>364.0</ele><time>2026-04-06T13:58:52.428Z</time></trkpt><trkpt lat="45.8009962" lon="11.7476094"><ele>364.0</ele><time>2026-04-06T13:58:53.449Z</time></trkpt><trkpt lat="45.800946" lon="11.7475333"><ele>364.0</ele><time>2026-04-06T13:58:54.423Z</time></trkpt><trkpt lat="45.8008623" lon="11.747416"><ele>361.3333333333333</ele><time>2026-04-06T13:58:56.439Z</time></trkpt><trkpt lat="45.8007843" lon="11.7472979"><ele>358.66666666666663</ele><time>2026-04-06T13:58:58.436Z</time></trkpt><trkpt lat="45.8007454" lon="11.747224"><ele>356.0</ele><time>2026-04-06T13:58:59.425Z</time></trkpt><trkpt lat="45.8007068" lon="11.7471358"><ele>353.3333333333333</ele><time>2026-04-06T13:59:00.434Z</time></trkpt><trkpt lat="45.8006721" lon="11.7470521"><ele>350.6666666666667</ele><time>2026-04-06T13:59:01.444Z</time></trkpt><trkpt lat="45.8006312" lon="11.7469805"><ele>348.0</ele><time>2026-04-06T13:59:02.435Z</time></trkpt><trkpt lat="45.800515" lon="11.7469805"><ele>348.0</ele><time>2026-04-06T13:59:04.436Z</time></trkpt><trkpt lat="45.8004935" lon="11.7471393"><ele>348.0</ele><time>2026-04-06T13:59:06.432Z</time></trkpt><trkpt lat="45.8005437" lon="11.7472277"><ele>348.0</ele><time>2026-04-06T13:59:07.427Z</time></trkpt><trkpt lat="45.8005894" lon="11.7473115"><ele>348.0</ele><time>2026-04-06T13:59:08.437Z</time></trkpt><trkpt lat="45.8006443" lon="11.7473876"><ele>348.0</ele><time>2026-04-06T13:59:09.434Z</time></trkpt><trkpt lat="45.8007009" lon="11.7474525"><ele>348.0</ele><time>2026-04-06T13:59:10.437Z</time></trkpt><trkpt lat="45.8007452" lon="11.7475284"><ele>348.0</ele><time>2026-04-06T13:59:11.436Z</time></trkpt><trkpt lat="45.800796" lon="11.7476171"><ele>348.0</ele><time>2026-04-06T13:59:12.425Z</time></trkpt><trkpt lat="45.8008526" lon="11.7477066"><ele>348.0</ele><time>2026-04-06T13:59:13.426Z</time></trkpt><trkpt lat="45.8009087" lon="11.747803"><ele>348.0</ele><time>2026-04-06T13:59:14.434Z</time></trkpt><trkpt lat="45.8009606" lon="11.7478993"><ele>348.0</ele><time>2026-04-06T13:59:15.423Z</time></trkpt><trkpt lat="45.8010107" lon="11.7480215"><ele>348.0</ele><time>2026-04-06T13:59:16.432Z</time></trkpt><trkpt lat="45.8010653" lon="11.7481372"><ele>351.2</ele><time>2026-04-06T13:59:17.44Z</time></trkpt><trkpt lat="45.8011214" lon="11.7482542"><ele>354.4</ele><time>2026-04-06T13:59:18.433Z</time></trkpt><trkpt lat="45.80118" lon="11.748375"><ele>357.59999999999997</ele><time>2026-04-06T13:59:19.437Z</time></trkpt><trkpt lat="45.8012362" lon="11.7484956"><ele>360.79999999999995</ele><time>2026-04-06T13:59:20.436Z</time></trkpt><trkpt lat="45.8012977" lon="11.7486223"><ele>364.0</ele><time>2026-04-06T13:59:21.45Z</time></trkpt><trkpt lat="45.8013614" lon="11.7487433"><ele>356.4</ele><time>2026-04-06T13:59:22.434Z</time></trkpt><trkpt lat="45.8014281" lon="11.7488714"><ele>348.79999999999995</ele><time>2026-04-06T13:59:23.445Z</time></trkpt><trkpt lat="45.8014971" lon="11.7489999"><ele>341.20000000000005</ele><time>2026-04-06T13:59:24.435Z</time></trkpt><trkpt lat="45.8015694" lon="11.7491154"><ele>333.6</ele><time>2026-04-06T13:59:25.434Z</time></trkpt><trkpt lat="45.8016487" lon="11.7492137"><ele>326.0</ele><time>2026-04-06T13:59:26.429Z</time></trkpt><trkpt lat="45.8017336" lon="11.749298"><ele>324.6</ele><time>2026-04-06T13:59:27.442Z</time></trkpt><trkpt lat="45.8018195" lon="11.7493833"><ele>323.20000000000005</ele><time>2026-04-06T13:59:28.436Z</time></trkpt><trkpt lat="45.8019084" lon="11.74945"><ele>321.79999999999995</ele><time>2026-04-06T13:59:29.44Z</time></trkpt><trkpt lat="45.8019997" lon="11.7495051"><ele>320.4</ele><time>2026-04-06T13:59:30.425Z</time></trkpt><trkpt lat="45.8020947" lon="11.7495644"><ele>319.0</ele><time>2026-04-06T13:59:31.441Z</time></trkpt><trkpt lat="45.8021881" lon="11.7496186"><ele>319.0</ele><time>2026-04-06T13:59:32.425Z</time></trkpt><trkpt lat="45.8022858" lon="11.7496831"><ele>319.0</ele><time>2026-04-06T13:59:33.437Z</time></trkpt><trkpt lat="45.8023812" lon="11.7497449"><ele>319.0</ele><time>2026-04-06T13:59:34.435Z</time></trkpt><trkpt lat="45.8024674" lon="11.7498117"><ele>319.0</ele><time>2026-04-06T13:59:35.439Z</time></trkpt><trkpt lat="45.8025383" lon="11.7499047"><ele>319.0</ele><time>2026-04-06T13:59:36.426Z</time></trkpt><trkpt lat="45.8025906" lon="11.7500418"><ele>319.0</ele><time>2026-04-06T13:59:37.424Z</time></trkpt><trkpt lat="45.8026408" lon="11.7501752"><ele>319.0</ele><time>2026-04-06T13:59:38.434Z</time></trkpt><trkpt lat="45.8026834" lon="11.7503172"><ele>319.0</ele><time>2026-04-06T13:59:39.443Z</time></trkpt><trkpt lat="45.8027283" lon="11.7504553"><ele>319.0</ele><time>2026-04-06T13:59:40.443Z</time></trkpt><trkpt lat="45.802766" lon="11.7505918"><ele>319.0</ele><time>2026-04-06T13:59:41.434Z</time></trkpt><trkpt lat="45.8028036" lon="11.750725"><ele>319.6</ele><time>2026-04-06T13:59:42.428Z</time></trkpt><trkpt lat="45.802842" lon="11.7508641"><ele>320.2</ele><time>2026-04-06T13:59:43.438Z</time></trkpt><trkpt lat="45.8028794" lon="11.7509957"><ele>320.8</ele><time>2026-04-06T13:59:44.432Z</time></trkpt><trkpt lat="45.8029197" lon="11.7511309"><ele>321.40000000000003</ele><time>2026-04-06T13:59:45.435Z</time></trkpt><trkpt lat="45.8029581" lon="11.7512541"><ele>322.0</ele><time>2026-04-06T13:59:46.436Z</time></trkpt><trkpt lat="45.8029964" lon="11.7513737"><ele>322.0</ele><time>2026-04-06T13:59:47.426Z</time></trkpt><trkpt lat="45.8030416" lon="11.751503"><ele>322.0</ele><time>2026-04-06T13:59:48.432Z</time></trkpt><trkpt lat="45.8030823" lon="11.7516225"><ele>322.0</ele><time>2026-04-06T13:59:49.436Z</time></trkpt><trkpt lat="45.8031247" lon="11.751749"><ele>322.0</ele><time>2026-04-06T13:59:50.429Z</time></trkpt><trkpt lat="45.8031713" lon="11.7518928"><ele>322.0</ele><time>2026-04-06T13:59:51.436Z</time></trkpt><trkpt lat="45.8032201" lon="11.7520394"><ele>313.0</ele><time>2026-04-06T13:59:52.429Z</time></trkpt><trkpt lat="45.8032688" lon="11.7521885"><ele>304.0</ele><time>2026-04-06T13:59:53.431Z</time></trkpt><trkpt lat="45.8033223" lon="11.7523347"><ele>295.0</ele><time>2026-04-06T13:59:54.438Z</time></trkpt><trkpt lat="45.8033793" lon="11.7524799"><ele>286.0</ele><time>2026-04-06T13:59:55.439Z</time></trkpt><trkpt lat="45.8034421" lon="11.7526255"><ele>289.75</ele><time>2026-04-06T13:59:56.436Z</time></trkpt><trkpt lat="45.8035153" lon="11.7527668"><ele>293.5</ele><time>2026-04-06T13:59:57.426Z</time></trkpt><trkpt lat="45.8035901" lon="11.7529031"><ele>297.25</ele><time>2026-04-06T13:59:58.437Z</time></trkpt><trkpt lat="45.8036667" lon="11.7530305"><ele>301.0</ele><time>2026-04-06T13:59:59.436Z</time></trkpt><trkpt lat="45.8037411" lon="11.7531478"><ele>301.0</ele><time>2026-04-06T14:00:00.438Z</time></trkpt><trkpt lat="45.8038106" lon="11.7532616"><ele>301.0</ele><time>2026-04-06T14:00:01.435Z</time></trkpt><trkpt lat="45.8038765" lon="11.7533732"><ele>301.0</ele><time>2026-04-06T14:00:02.428Z</time></trkpt><trkpt lat="45.8039405" lon="11.7534831"><ele>301.0</ele><time>2026-04-06T14:00:03.432Z</time></trkpt><trkpt lat="45.8040067" lon="11.7535951"><ele>301.0</ele><time>2026-04-06T14:00:04.43Z</time></trkpt><trkpt lat="45.8040755" lon="11.7537145"><ele>303.5</ele><time>2026-04-06T14:00:05.443Z</time></trkpt><trkpt lat="45.804146" lon="11.7538372"><ele>306.0</ele><time>2026-04-06T14:00:06.436Z</time></trkpt><trkpt lat="45.8042202" lon="11.7539609"><ele>308.5</ele><time>2026-04-06T14:00:07.436Z</time></trkpt><trkpt lat="45.8042946" lon="11.7540831"><ele>311.0</ele><time>2026-04-06T14:00:08.432Z</time></trkpt><trkpt lat="45.8043722" lon="11.7542075"><ele>311.0</ele><time>2026-04-06T14:00:09.433Z</time></trkpt><trkpt lat="45.8044539" lon="11.75432"><ele>311.0</ele><time>2026-04-06T14:00:10.438Z</time></trkpt><trkpt lat="45.8045321" lon="11.7544205"><ele>311.0</ele><time>2026-04-06T14:00:11.441Z</time></trkpt><trkpt lat="45.8046105" lon="11.7545217"><ele>311.0</ele><time>2026-04-06T14:00:12.426Z</time></trkpt><trkpt lat="45.8046917" lon="11.7546314"><ele>311.0</ele><time>2026-04-06T14:00:13.428Z</time></trkpt><trkpt lat="45.8047733" lon="11.7547406"><ele>303.8</ele><time>2026-04-06T14:00:14.426Z</time></trkpt><trkpt lat="45.8048564" lon="11.7548519"><ele>296.6</ele><time>2026-04-06T14:00:15.446Z</time></trkpt><trkpt lat="45.8049369" lon="11.7549622"><ele>289.4</ele><time>2026-04-06T14:00:16.434Z</time></trkpt><trkpt lat="45.805011" lon="11.7550655"><ele>282.2</ele><time>2026-04-06T14:00:17.443Z</time></trkpt><trkpt lat="45.8050875" lon="11.7551638"><ele>275.0</ele><time>2026-04-06T14:00:18.436Z</time></trkpt><trkpt lat="45.8051601" lon="11.7552643"><ele>273.1666666666667</ele><time>2026-04-06T14:00:19.429Z</time></trkpt><trkpt lat="45.8052299" lon="11.7553568"><ele>271.33333333333337</ele><time>2026-04-06T14:00:20.428Z</time></trkpt><trkpt lat="45.8052963" lon="11.7554373"><ele>269.5</ele><time>2026-04-06T14:00:21.423Z</time></trkpt><trkpt lat="45.8053542" lon="11.7555014"><ele>267.6666666666667</ele><time>2026-04-06T14:00:22.424Z</time></trkpt><trkpt lat="45.8054096" lon="11.7555648"><ele>265.8333333333333</ele><time>2026-04-06T14:00:23.424Z</time></trkpt><trkpt lat="45.8054697" lon="11.7556185"><ele>264.0</ele><time>2026-04-06T14:00:24.431Z</time></trkpt><trkpt lat="45.8055345" lon="11.755675"><ele>264.0</ele><time>2026-04-06T14:00:25.433Z</time></trkpt><trkpt lat="45.8055966" lon="11.7557318"><ele>264.0</ele><time>2026-04-06T14:00:26.433Z</time></trkpt><trkpt lat="45.8056595" lon="11.7557841"><ele>264.0</ele><time>2026-04-06T14:00:27.442Z</time></trkpt><trkpt lat="45.8057323" lon="11.7558421"><ele>264.0</ele><time>2026-04-06T14:00:28.435Z</time></trkpt><trkpt lat="45.8058055" lon="11.7558934"><ele>264.0</ele><time>2026-04-06T14:00:29.449Z</time></trkpt><trkpt lat="45.8058814" lon="11.7559418"><ele>264.0</ele><time>2026-04-06T14:00:30.436Z</time></trkpt><trkpt lat="45.8059624" lon="11.7559937"><ele>258.8</ele><time>2026-04-06T14:00:31.431Z</time></trkpt><trkpt lat="45.8060371" lon="11.756044"><ele>253.59999999999997</ele><time>2026-04-06T14:00:32.44Z</time></trkpt><trkpt lat="45.8061144" lon="11.7560976"><ele>248.4</ele><time>2026-04-06T14:00:33.44Z</time></trkpt><trkpt lat="45.8061922" lon="11.7561546"><ele>243.2</ele><time>2026-04-06T14:00:34.441Z</time></trkpt><trkpt lat="45.8062787" lon="11.756215"><ele>238.0</ele><time>2026-04-06T14:00:35.432Z</time></trkpt><trkpt lat="45.8063727" lon="11.7562806"><ele>238.0</ele><time>2026-04-06T14:00:36.432Z</time></trkpt><trkpt lat="45.806472" lon="11.756338"><ele>238.0</ele><time>2026-04-06T14:00:37.446Z</time></trkpt><trkpt lat="45.8065757" lon="11.7563889"><ele>238.0</ele><time>2026-04-06T14:00:38.435Z</time></trkpt><trkpt lat="45.8066841" lon="11.7564313"><ele>238.0</ele><time>2026-04-06T14:00:39.447Z</time></trkpt><trkpt lat="45.806795" lon="11.7564671"><ele>238.0</ele><time>2026-04-06T14:00:40.435Z</time></trkpt><trkpt lat="45.806905" lon="11.7565006"><ele>239.0</ele><time>2026-04-06T14:00:41.439Z</time></trkpt><trkpt lat="45.8070072" lon="11.7565351"><ele>240.0</ele><time>2026-04-06T14:00:42.439Z</time></trkpt><trkpt lat="45.8071131" lon="11.7565716"><ele>241.0</ele><time>2026-04-06T14:00:43.446Z</time></trkpt><trkpt lat="45.8072084" lon="11.756605"><ele>242.0</ele><time>2026-04-06T14:00:44.435Z</time></trkpt><trkpt lat="45.8072869" lon="11.7566281"><ele>243.0</ele><time>2026-04-06T14:00:45.433Z</time></trkpt><trkpt lat="45.8073706" lon="11.7566428"><ele>243.0</ele><time>2026-04-06T14:00:46.433Z</time></trkpt><trkpt lat="45.8074441" lon="11.7566546"><ele>243.0</ele><time>2026-04-06T14:00:47.428Z</time></trkpt><trkpt lat="45.8075108" lon="11.7566619"><ele>243.0</ele><time>2026-04-06T14:00:48.428Z</time></trkpt><trkpt lat="45.8075782" lon="11.7566678"><ele>243.0</ele><time>2026-04-06T14:00:49.427Z</time></trkpt><trkpt lat="45.8076883" lon="11.7566914"><ele>243.0</ele><time>2026-04-06T14:00:51.449Z</time></trkpt><trkpt lat="45.8077426" lon="11.7567654"><ele>243.0</ele><time>2026-04-06T14:00:53.427Z</time></trkpt><trkpt lat="45.8076843" lon="11.7568687"><ele>243.0</ele><time>2026-04-06T14:00:55.427Z</time></trkpt><trkpt lat="45.8075599" lon="11.7568383"><ele>243.0</ele><time>2026-04-06T14:00:57.444Z</time></trkpt><trkpt lat="45.8074979" lon="11.7568189"><ele>243.0</ele><time>2026-04-06T14:00:58.44Z</time></trkpt><trkpt lat="45.8073593" lon="11.7567974"><ele>243.0</ele><time>2026-04-06T14:01:00.431Z</time></trkpt><trkpt lat="45.8072765" lon="11.7567929"><ele>243.0</ele><time>2026-04-06T14:01:01.436Z</time></trkpt><trkpt lat="45.8071954" lon="11.7567903"><ele>243.0</ele><time>2026-04-06T14:01:02.429Z</time></trkpt><trkpt lat="45.8071148" lon="11.7567879"><ele>243.0</ele><time>2026-04-06T14:01:03.44Z</time></trkpt><trkpt lat="45.8070304" lon="11.7567881"><ele>243.0</ele><time>2026-04-06T14:01:04.434Z</time></trkpt><trkpt lat="45.8069335" lon="11.7567895"><ele>243.0</ele><time>2026-04-06T14:01:05.434Z</time></trkpt><trkpt lat="45.8068209" lon="11.7567911"><ele>243.0</ele><time>2026-04-06T14:01:06.434Z</time></trkpt><trkpt lat="45.8066815" lon="11.7567865"><ele>241.33333333333331</ele><time>2026-04-06T14:01:07.442Z</time></trkpt><trkpt lat="45.8065323" lon="11.7567686"><ele>239.66666666666666</ele><time>2026-04-06T14:01:08.425Z</time></trkpt><trkpt lat="45.8063771" lon="11.7567462"><ele>238.0</ele><time>2026-04-06T14:01:09.44Z</time></trkpt><trkpt lat="45.8062259" lon="11.7567214"><ele>238.0</ele><time>2026-04-06T14:01:10.438Z</time></trkpt><trkpt lat="45.8060805" lon="11.7567"><ele>238.0</ele><time>2026-04-06T14:01:11.447Z</time></trkpt><trkpt lat="45.8059391" lon="11.7566762"><ele>238.0</ele><time>2026-04-06T14:01:12.436Z</time></trkpt><trkpt lat="45.8058064" lon="11.7566498"><ele>238.0</ele><time>2026-04-06T14:01:13.428Z</time></trkpt><trkpt lat="45.805681" lon="11.7566171"><ele>234.5</ele><time>2026-04-06T14:01:14.434Z</time></trkpt><trkpt lat="45.8055593" lon="11.7565778"><ele>231.0</ele><time>2026-04-06T14:01:15.429Z</time></trkpt><trkpt lat="45.8054451" lon="11.7565358"><ele>227.5</ele><time>2026-04-06T14:01:16.427Z</time></trkpt><trkpt lat="45.8053386" lon="11.7564956"><ele>224.0</ele><time>2026-04-06T14:01:17.438Z</time></trkpt><trkpt lat="45.8052362" lon="11.7564523"><ele>221.0</ele><time>2026-04-06T14:01:18.425Z</time></trkpt><trkpt lat="45.8051327" lon="11.7564124"><ele>217.99999999999997</ele><time>2026-04-06T14:01:19.441Z</time></trkpt><trkpt lat="45.8050306" lon="11.7563751"><ele>215.0</ele><time>2026-04-06T14:01:20.442Z</time></trkpt><trkpt lat="45.8049271" lon="11.7563357"><ele>212.0</ele><time>2026-04-06T14:01:21.429Z</time></trkpt><trkpt lat="45.804824" lon="11.7563017"><ele>209.0</ele><time>2026-04-06T14:01:22.435Z</time></trkpt><trkpt lat="45.8047209" lon="11.7562899"><ele>209.0</ele><time>2026-04-06T14:01:23.444Z</time></trkpt><trkpt lat="45.8046236" lon="11.7563051"><ele>209.0</ele><time>2026-04-06T14:01:24.44Z</time></trkpt><trkpt lat="45.8045307" lon="11.7563444"><ele>209.0</ele><time>2026-04-06T14:01:25.447Z</time></trkpt><trkpt lat="45.8044416" lon="11.7564069"><ele>209.0</ele><time>2026-04-06T14:01:26.426Z</time></trkpt><trkpt lat="45.8043607" lon="11.756493"><ele>209.0</ele><time>2026-04-06T14:01:27.424Z</time></trkpt><trkpt lat="45.8042805" lon="11.7565946"><ele>207.39999999999998</ele><time>2026-04-06T14:01:28.433Z</time></trkpt><trkpt lat="45.8041916" lon="11.7566875"><ele>205.8</ele><time>2026-04-06T14:01:29.433Z</time></trkpt><trkpt lat="45.8041008" lon="11.7567812"><ele>204.2</ele><time>2026-04-06T14:01:30.423Z</time></trkpt><trkpt lat="45.8039982" lon="11.7568479"><ele>202.60000000000002</ele><time>2026-04-06T14:01:31.427Z</time></trkpt><trkpt lat="45.8038994" lon="11.7569147"><ele>201.0</ele><time>2026-04-06T14:01:32.435Z</time></trkpt><trkpt lat="45.8038028" lon="11.7569759"><ele>199.60000000000002</ele><time>2026-04-06T14:01:33.437Z</time></trkpt><trkpt lat="45.8037093" lon="11.7570322"><ele>198.2</ele><time>2026-04-06T14:01:34.442Z</time></trkpt><trkpt lat="45.8036189" lon="11.7570825"><ele>196.8</ele><time>2026-04-06T14:01:35.438Z</time></trkpt><trkpt lat="45.8035276" lon="11.7571343"><ele>195.39999999999998</ele><time>2026-04-06T14:01:36.438Z</time></trkpt><trkpt lat="45.8034405" lon="11.7571869"><ele>194.0</ele><time>2026-04-06T14:01:37.451Z</time></trkpt><trkpt lat="45.8033559" lon="11.7572367"><ele>193.79999999999998</ele><time>2026-04-06T14:01:38.428Z</time></trkpt><trkpt lat="45.8032739" lon="11.75729"><ele>193.6</ele><time>2026-04-06T14:01:39.451Z</time></trkpt><trkpt lat="45.8031894" lon="11.7573446"><ele>193.4</ele><time>2026-04-06T14:01:40.429Z</time></trkpt><trkpt lat="45.8031038" lon="11.7574015"><ele>193.2</ele><time>2026-04-06T14:01:41.436Z</time></trkpt><trkpt lat="45.8030172" lon="11.7574571"><ele>193.0</ele><time>2026-04-06T14:01:42.434Z</time></trkpt><trkpt lat="45.8029263" lon="11.7575143"><ele>193.0</ele><time>2026-04-06T14:01:43.451Z</time></trkpt><trkpt lat="45.8028345" lon="11.7575747"><ele>193.0</ele><time>2026-04-06T14:01:44.427Z</time></trkpt><trkpt lat="45.8027489" lon="11.757631"><ele>193.0</ele><time>2026-04-06T14:01:45.436Z</time></trkpt><trkpt lat="45.8026671" lon="11.757683"><ele>193.0</ele><time>2026-04-06T14:01:46.437Z</time></trkpt><trkpt lat="45.8025861" lon="11.7577333"><ele>193.0</ele><time>2026-04-06T14:01:47.445Z</time></trkpt><trkpt lat="45.8025071" lon="11.7577822"><ele>192.33333333333331</ele><time>2026-04-06T14:01:48.427Z</time></trkpt><trkpt lat="45.8024328" lon="11.7578304"><ele>191.66666666666666</ele><time>2026-04-06T14:01:49.431Z</time></trkpt><trkpt lat="45.8023606" lon="11.7578671"><ele>191.0</ele><time>2026-04-06T14:01:50.434Z</time></trkpt><trkpt lat="45.802286" lon="11.7578911"><ele>190.33333333333331</ele><time>2026-04-06T14:01:51.441Z</time></trkpt><trkpt lat="45.802206" lon="11.7579056"><ele>189.66666666666666</ele><time>2026-04-06T14:01:52.436Z</time></trkpt><trkpt lat="45.8021199" lon="11.757909"><ele>189.0</ele><time>2026-04-06T14:01:53.434Z</time></trkpt><trkpt lat="45.8020341" lon="11.7578973"><ele>189.0</ele><time>2026-04-06T14:01:54.437Z</time></trkpt><trkpt lat="45.801955" lon="11.7578726"><ele>189.0</ele><time>2026-04-06T14:01:55.43Z</time></trkpt><trkpt lat="45.801879" lon="11.7578579"><ele>189.0</ele><time>2026-04-06T14:01:56.426Z</time></trkpt><trkpt lat="45.8018036" lon="11.7578633"><ele>189.0</ele><time>2026-04-06T14:01:57.44Z</time></trkpt><trkpt lat="45.8017262" lon="11.7578866"><ele>189.0</ele><time>2026-04-06T14:01:58.431Z</time></trkpt><trkpt lat="45.8016469" lon="11.7579172"><ele>189.0</ele><time>2026-04-06T14:01:59.434Z</time></trkpt><trkpt lat="45.8015715" lon="11.7579455"><ele>188.66666666666666</ele><time>2026-04-06T14:02:00.437Z</time></trkpt><trkpt lat="45.8014943" lon="11.7579439"><ele>188.33333333333334</ele><time>2026-04-06T14:02:01.445Z</time></trkpt><trkpt lat="45.8014251" lon="11.7579183"><ele>188.0</ele><time>2026-04-06T14:02:02.432Z</time></trkpt><trkpt lat="45.8013635" lon="11.7578715"><ele>187.66666666666669</ele><time>2026-04-06T14:02:03.438Z</time></trkpt><trkpt lat="45.8012941" lon="11.7578057"><ele>187.33333333333334</ele><time>2026-04-06T14:02:04.437Z</time></trkpt><trkpt lat="45.8012103" lon="11.7577259"><ele>187.0</ele><time>2026-04-06T14:02:05.439Z</time></trkpt><trkpt lat="45.801112" lon="11.7576313"><ele>187.0</ele><time>2026-04-06T14:02:06.423Z</time></trkpt><trkpt lat="45.8010044" lon="11.7575252"><ele>187.0</ele><time>2026-04-06T14:02:07.429Z</time></trkpt><trkpt lat="45.8008984" lon="11.7574188"><ele>187.0</ele><time>2026-04-06T14:02:08.437Z</time></trkpt><trkpt lat="45.8007974" lon="11.757323"><ele>187.0</ele><time>2026-04-06T14:02:09.435Z</time></trkpt><trkpt lat="45.8007042" lon="11.7572369"><ele>186.8</ele><time>2026-04-06T14:02:10.434Z</time></trkpt><trkpt lat="45.8006126" lon="11.7571458"><ele>186.6</ele><time>2026-04-06T14:02:11.434Z</time></trkpt><trkpt lat="45.8005275" lon="11.7570575"><ele>186.4</ele><time>2026-04-06T14:02:12.437Z</time></trkpt><trkpt lat="45.8004532" lon="11.7569651"><ele>186.20000000000002</ele><time>2026-04-06T14:02:13.437Z</time></trkpt><trkpt lat="45.800394" lon="11.7568638"><ele>186.0</ele><time>2026-04-06T14:02:14.437Z</time></trkpt><trkpt lat="45.8003478" lon="11.7567599"><ele>186.0</ele><time>2026-04-06T14:02:15.434Z</time></trkpt><trkpt lat="45.8003086" lon="11.7566706"><ele>186.0</ele><time>2026-04-06T14:02:16.422Z</time></trkpt><trkpt lat="45.8002602" lon="11.7566046"><ele>186.0</ele><time>2026-04-06T14:02:17.435Z</time></trkpt><trkpt lat="45.8001933" lon="11.7565636"><ele>186.0</ele><time>2026-04-06T14:02:18.427Z</time></trkpt><trkpt lat="45.8001109" lon="11.7565419"><ele>186.0</ele><time>2026-04-06T14:02:19.436Z</time></trkpt><trkpt lat="45.800013" lon="11.7565322"><ele>186.0</ele><time>2026-04-06T14:02:20.43Z</time></trkpt><trkpt lat="45.7999108" lon="11.7565124"><ele>185.60000000000002</ele><time>2026-04-06T14:02:21.441Z</time></trkpt><trkpt lat="45.7998145" lon="11.7564955"><ele>185.2</ele><time>2026-04-06T14:02:22.422Z</time></trkpt><trkpt lat="45.7997205" lon="11.7564794"><ele>184.8</ele><time>2026-04-06T14:02:23.44Z</time></trkpt><trkpt lat="45.7996286" lon="11.7564645"><ele>184.39999999999998</ele><time>2026-04-06T14:02:24.434Z</time></trkpt><trkpt lat="45.7995427" lon="11.7564494"><ele>184.0</ele><time>2026-04-06T14:02:25.425Z</time></trkpt><trkpt lat="45.799463" lon="11.7564357"><ele>184.0</ele><time>2026-04-06T14:02:26.433Z</time></trkpt><trkpt lat="45.7993885" lon="11.756436"><ele>184.0</ele><time>2026-04-06T14:02:27.443Z</time></trkpt><trkpt lat="45.799311" lon="11.75645"><ele>184.0</ele><time>2026-04-06T14:02:28.429Z</time></trkpt><trkpt lat="45.799229" lon="11.7564782"><ele>184.0</ele><time>2026-04-06T14:02:29.424Z</time></trkpt><trkpt lat="45.7991416" lon="11.7565087"><ele>184.0</ele><time>2026-04-06T14:02:30.431Z</time></trkpt><trkpt lat="45.7990534" lon="11.7565376"><ele>184.0</ele><time>2026-04-06T14:02:31.423Z</time></trkpt><trkpt lat="45.7989638" lon="11.756563"><ele>183.0</ele><time>2026-04-06T14:02:32.424Z</time></trkpt><trkpt lat="45.7988687" lon="11.7565849"><ele>182.0</ele><time>2026-04-06T14:02:33.438Z</time></trkpt><trkpt lat="45.7987782" lon="11.7565994"><ele>181.0</ele><time>2026-04-06T14:02:34.446Z</time></trkpt><trkpt lat="45.7986908" lon="11.7566172"><ele>180.0</ele><time>2026-04-06T14:02:35.435Z</time></trkpt><trkpt lat="45.7986045" lon="11.756635"><ele>179.0</ele><time>2026-04-06T14:02:36.436Z</time></trkpt><trkpt lat="45.7985106" lon="11.7566594"><ele>178.2</ele><time>2026-04-06T14:02:37.432Z</time></trkpt><trkpt lat="45.798414" lon="11.7566814"><ele>177.39999999999998</ele><time>2026-04-06T14:02:38.454Z</time></trkpt><trkpt lat="45.7983103" lon="11.7567014"><ele>176.6</ele><time>2026-04-06T14:02:39.43Z</time></trkpt><trkpt lat="45.7982043" lon="11.7567258"><ele>175.8</ele><time>2026-04-06T14:02:40.426Z</time></trkpt><trkpt lat="45.7981015" lon="11.7567487"><ele>175.0</ele><time>2026-04-06T14:02:41.435Z</time></trkpt><trkpt lat="45.7980007" lon="11.7567738"><ele>175.0</ele><time>2026-04-06T14:02:42.437Z</time></trkpt><trkpt lat="45.7979003" lon="11.7568069"><ele>175.0</ele><time>2026-04-06T14:02:43.419Z</time></trkpt><trkpt lat="45.7978063" lon="11.7568527"><ele>175.0</ele><time>2026-04-06T14:02:44.438Z</time></trkpt><trkpt lat="45.7977133" lon="11.7569103"><ele>175.0</ele><time>2026-04-06T14:02:45.437Z</time></trkpt><trkpt lat="45.7976284" lon="11.7569764"><ele>175.0</ele><time>2026-04-06T14:02:46.433Z</time></trkpt><trkpt lat="45.7975477" lon="11.7570513"><ele>174.6</ele><time>2026-04-06T14:02:47.438Z</time></trkpt><trkpt lat="45.7974662" lon="11.7571302"><ele>174.2</ele><time>2026-04-06T14:02:48.436Z</time></trkpt><trkpt lat="45.797383" lon="11.7572046"><ele>173.8</ele><time>2026-04-06T14:02:49.435Z</time></trkpt><trkpt lat="45.7972939" lon="11.757268"><ele>173.4</ele><time>2026-04-06T14:02:50.422Z</time></trkpt><trkpt lat="45.7971995" lon="11.7573191"><ele>173.0</ele><time>2026-04-06T14:02:51.446Z</time></trkpt><trkpt lat="45.797102" lon="11.7573674"><ele>173.0</ele><time>2026-04-06T14:02:52.434Z</time></trkpt><trkpt lat="45.7970095" lon="11.7574082"><ele>173.0</ele><time>2026-04-06T14:02:53.446Z</time></trkpt><trkpt lat="45.7969221" lon="11.757435"><ele>173.0</ele><time>2026-04-06T14:02:54.435Z</time></trkpt><trkpt lat="45.7968498" lon="11.7574562"><ele>173.0</ele><time>2026-04-06T14:02:55.428Z</time></trkpt><trkpt lat="45.7967478" lon="11.7575439"><ele>173.0</ele><time>2026-04-06T14:02:57.427Z</time></trkpt><trkpt lat="45.7966477" lon="11.7576731"><ele>172.33333333333331</ele><time>2026-04-06T14:02:59.46Z</time></trkpt><trkpt lat="45.796576" lon="11.7577485"><ele>171.66666666666666</ele><time>2026-04-06T14:03:00.43Z</time></trkpt><trkpt lat="45.7965027" lon="11.7578282"><ele>171.0</ele><time>2026-04-06T14:03:01.435Z</time></trkpt><trkpt lat="45.796437" lon="11.7579104"><ele>170.33333333333334</ele><time>2026-04-06T14:03:02.423Z</time></trkpt><trkpt lat="45.7963841" lon="11.7579841"><ele>169.66666666666669</ele><time>2026-04-06T14:03:03.432Z</time></trkpt><trkpt lat="45.7963387" lon="11.7580537"><ele>169.0</ele><time>2026-04-06T14:03:04.442Z</time></trkpt><trkpt lat="45.7962623" lon="11.7581894"><ele>169.0</ele><time>2026-04-06T14:03:06.426Z</time></trkpt><trkpt lat="45.7961602" lon="11.7582407"><ele>169.0</ele><time>2026-04-06T14:03:08.44Z</time></trkpt><trkpt lat="45.7960924" lon="11.7582433"><ele>169.0</ele><time>2026-04-06T14:03:09.447Z</time></trkpt><trkpt lat="45.7960238" lon="11.7582067"><ele>169.0</ele><time>2026-04-06T14:03:10.432Z</time></trkpt><trkpt lat="45.7959629" lon="11.7581695"><ele>169.0</ele><time>2026-04-06T14:03:11.439Z</time></trkpt><trkpt lat="45.7959035" lon="11.758137"><ele>169.0</ele><time>2026-04-06T14:03:12.433Z</time></trkpt><trkpt lat="45.7958326" lon="11.7580996"><ele>168.79999999999998</ele><time>2026-04-06T14:03:13.432Z</time></trkpt><trkpt lat="45.7957639" lon="11.7580655"><ele>168.6</ele><time>2026-04-06T14:03:14.422Z</time></trkpt><trkpt lat="45.7956942" lon="11.7580279"><ele>168.4</ele><time>2026-04-06T14:03:15.433Z</time></trkpt><trkpt lat="45.7956269" lon="11.7579928"><ele>168.2</ele><time>2026-04-06T14:03:16.424Z</time></trkpt><trkpt lat="45.7955162" lon="11.7579291"><ele>168.0</ele><time>2026-04-06T14:03:18.432Z</time></trkpt><trkpt lat="45.7953978" lon="11.7578642"><ele>168.0</ele><time>2026-04-06T14:03:20.433Z</time></trkpt><trkpt lat="45.7953251" lon="11.7578257"><ele>168.0</ele><time>2026-04-06T14:03:21.435Z</time></trkpt><trkpt lat="45.7952362" lon="11.7577792"><ele>168.0</ele><time>2026-04-06T14:03:22.418Z</time></trkpt><trkpt lat="45.7951305" lon="11.7577308"><ele>168.0</ele><time>2026-04-06T14:03:23.442Z</time></trkpt><trkpt lat="45.7950071" lon="11.7576763"><ele>168.0</ele><time>2026-04-06T14:03:24.436Z</time></trkpt><trkpt lat="45.7948669" lon="11.757608"><ele>167.0</ele><time>2026-04-06T14:03:25.437Z</time></trkpt><trkpt lat="45.7947204" lon="11.7575278"><ele>166.0</ele><time>2026-04-06T14:03:26.425Z</time></trkpt><trkpt lat="45.7945649" lon="11.7574411"><ele>165.0</ele><time>2026-04-06T14:03:27.443Z</time></trkpt><trkpt lat="45.7944062" lon="11.757352"><ele>164.33333333333334</ele><time>2026-04-06T14:03:28.442Z</time></trkpt><trkpt lat="45.7942448" lon="11.7572615"><ele>163.66666666666669</ele><time>2026-04-06T14:03:29.443Z</time></trkpt><trkpt lat="45.7940832" lon="11.7571733"><ele>163.0</ele><time>2026-04-06T14:03:30.445Z</time></trkpt><trkpt lat="45.7939207" lon="11.7570869"><ele>163.0</ele><time>2026-04-06T14:03:31.458Z</time></trkpt><trkpt lat="45.7937589" lon="11.7570029"><ele>163.0</ele><time>2026-04-06T14:03:32.431Z</time></trkpt><trkpt lat="45.7935982" lon="11.7569161"><ele>163.0</ele><time>2026-04-06T14:03:33.44Z</time></trkpt><trkpt lat="45.7934367" lon="11.7568289"><ele>162.0</ele><time>2026-04-06T14:03:34.445Z</time></trkpt><trkpt lat="45.7932768" lon="11.7567443"><ele>161.0</ele><time>2026-04-06T14:03:35.489Z</time></trkpt><trkpt lat="45.7931179" lon="11.7566581"><ele>160.0</ele><time>2026-04-06T14:03:36.457Z</time></trkpt><trkpt lat="45.7929581" lon="11.756573"><ele>159.5</ele><time>2026-04-06T14:03:37.445Z</time></trkpt><trkpt lat="45.7926369" lon="11.756406"><ele>159.0</ele><time>2026-04-06T14:03:39.447Z</time></trkpt><trkpt lat="45.7924753" lon="11.7563221"><ele>159.0</ele><time>2026-04-06T14:03:40.424Z</time></trkpt><trkpt lat="45.7923147" lon="11.756237"><ele>159.0</ele><time>2026-04-06T14:03:41.427Z</time></trkpt><trkpt lat="45.7921532" lon="11.7561512"><ele>159.0</ele><time>2026-04-06T14:03:42.427Z</time></trkpt><trkpt lat="45.7919927" lon="11.7560657"><ele>158.0</ele><time>2026-04-06T14:03:43.426Z</time></trkpt><trkpt lat="45.7918365" lon="11.7559838"><ele>157.0</ele><time>2026-04-06T14:03:44.419Z</time></trkpt><trkpt lat="45.7916811" lon="11.7559027"><ele>156.0</ele><time>2026-04-06T14:03:45.424Z</time></trkpt><trkpt lat="45.7915241" lon="11.7558211"><ele>156.0</ele><time>2026-04-06T14:03:46.445Z</time></trkpt><trkpt lat="45.7913729" lon="11.7557425"><ele>156.0</ele><time>2026-04-06T14:03:47.442Z</time></trkpt><trkpt lat="45.791226" lon="11.755665"><ele>156.0</ele><time>2026-04-06T14:03:48.432Z</time></trkpt><trkpt lat="45.7910815" lon="11.7555913"><ele>156.0</ele><time>2026-04-06T14:03:49.421Z</time></trkpt><trkpt lat="45.7909399" lon="11.7555174"><ele>156.0</ele><time>2026-04-06T14:03:50.429Z</time></trkpt><trkpt lat="45.7908028" lon="11.7554461"><ele>156.0</ele><time>2026-04-06T14:03:51.452Z</time></trkpt><trkpt lat="45.7906692" lon="11.7553769"><ele>156.0</ele><time>2026-04-06T14:03:52.444Z</time></trkpt><trkpt lat="45.7905382" lon="11.7553107"><ele>156.0</ele><time>2026-04-06T14:03:53.441Z</time></trkpt><trkpt lat="45.7904084" lon="11.7552514"><ele>156.0</ele><time>2026-04-06T14:03:54.431Z</time></trkpt><trkpt lat="45.7902727" lon="11.7552047"><ele>156.0</ele><time>2026-04-06T14:03:55.432Z</time></trkpt><trkpt lat="45.7901271" lon="11.7551673"><ele>156.0</ele><time>2026-04-06T14:03:56.43Z</time></trkpt><trkpt lat="45.7899735" lon="11.7551377"><ele>155.33333333333334</ele><time>2026-04-06T14:03:57.457Z</time></trkpt><trkpt lat="45.7898175" lon="11.7551149"><ele>154.66666666666669</ele><time>2026-04-06T14:03:58.449Z</time></trkpt><trkpt lat="45.7896624" lon="11.7550957"><ele>154.0</ele><time>2026-04-06T14:03:59.436Z</time></trkpt><trkpt lat="45.7895144" lon="11.755078"><ele>154.0</ele><time>2026-04-06T14:04:00.454Z</time></trkpt><trkpt lat="45.7893649" lon="11.7550593"><ele>154.0</ele><time>2026-04-06T14:04:01.441Z</time></trkpt><trkpt lat="45.7892129" lon="11.7550354"><ele>154.0</ele><time>2026-04-06T14:04:02.439Z</time></trkpt><trkpt lat="45.7890572" lon="11.7550006"><ele>154.0</ele><time>2026-04-06T14:04:03.448Z</time></trkpt><trkpt lat="45.7889006" lon="11.7549571"><ele>154.0</ele><time>2026-04-06T14:04:04.445Z</time></trkpt><trkpt lat="45.7887448" lon="11.7549122"><ele>154.0</ele><time>2026-04-06T14:04:05.433Z</time></trkpt><trkpt lat="45.788589" lon="11.7548667"><ele>153.0</ele><time>2026-04-06T14:04:06.451Z</time></trkpt><trkpt lat="45.7884353" lon="11.7548203"><ele>152.0</ele><time>2026-04-06T14:04:07.429Z</time></trkpt><trkpt lat="45.7882848" lon="11.7547743"><ele>151.0</ele><time>2026-04-06T14:04:08.451Z</time></trkpt><trkpt lat="45.7881444" lon="11.7547297"><ele>151.0</ele><time>2026-04-06T14:04:09.442Z</time></trkpt><trkpt lat="45.7880103" lon="11.7546892"><ele>151.0</ele><time>2026-04-06T14:04:10.441Z</time></trkpt><trkpt lat="45.7878753" lon="11.7546488"><ele>151.0</ele><time>2026-04-06T14:04:11.45Z</time></trkpt><trkpt lat="45.7877387" lon="11.7546078"><ele>151.0</ele><time>2026-04-06T14:04:12.438Z</time></trkpt><trkpt lat="45.7876008" lon="11.7545636"><ele>151.25</ele><time>2026-04-06T14:04:13.446Z</time></trkpt><trkpt lat="45.7874619" lon="11.7545143"><ele>151.5</ele><time>2026-04-06T14:04:14.436Z</time></trkpt><trkpt lat="45.7873226" lon="11.7544568"><ele>151.75</ele><time>2026-04-06T14:04:15.451Z</time></trkpt><trkpt lat="45.7871869" lon="11.75439"><ele>152.0</ele><time>2026-04-06T14:04:16.445Z</time></trkpt><trkpt lat="45.7870586" lon="11.7543152"><ele>152.25</ele><time>2026-04-06T14:04:17.44Z</time></trkpt><trkpt lat="45.7869335" lon="11.7542282"><ele>152.5</ele><time>2026-04-06T14:04:18.448Z</time></trkpt><trkpt lat="45.786812" lon="11.754128"><ele>152.75</ele><time>2026-04-06T14:04:19.454Z</time></trkpt><trkpt lat="45.7866975" lon="11.7540185"><ele>153.0</ele><time>2026-04-06T14:04:20.442Z</time></trkpt><trkpt lat="45.7865941" lon="11.7539042"><ele>152.0</ele><time>2026-04-06T14:04:21.442Z</time></trkpt><trkpt lat="45.7864896" lon="11.7537804"><ele>151.0</ele><time>2026-04-06T14:04:22.435Z</time></trkpt><trkpt lat="45.7863758" lon="11.7536493"><ele>150.0</ele><time>2026-04-06T14:04:23.44Z</time></trkpt><trkpt lat="45.7862637" lon="11.7535255"><ele>149.0</ele><time>2026-04-06T14:04:24.442Z</time></trkpt><trkpt lat="45.7861532" lon="11.7534044"><ele>148.75</ele><time>2026-04-06T14:04:25.445Z</time></trkpt><trkpt lat="45.7860423" lon="11.7532921"><ele>148.5</ele><time>2026-04-06T14:04:26.449Z</time></trkpt><trkpt lat="45.7859418" lon="11.7531838"><ele>148.25</ele><time>2026-04-06T14:04:27.448Z</time></trkpt><trkpt lat="45.7858413" lon="11.7530729"><ele>148.0</ele><time>2026-04-06T14:04:28.449Z</time></trkpt><trkpt lat="45.7857316" lon="11.7529627"><ele>146.5</ele><time>2026-04-06T14:04:29.443Z</time></trkpt><trkpt lat="45.7856189" lon="11.7528501"><ele>145.0</ele><time>2026-04-06T14:04:30.443Z</time></trkpt><trkpt lat="45.7855024" lon="11.7527343"><ele>143.5</ele><time>2026-04-06T14:04:31.448Z</time></trkpt><trkpt lat="45.7853842" lon="11.7526162"><ele>142.0</ele><time>2026-04-06T14:04:32.449Z</time></trkpt><trkpt lat="45.785262" lon="11.7524943"><ele>141.66666666666669</ele><time>2026-04-06T14:04:33.446Z</time></trkpt><trkpt lat="45.7851377" lon="11.7523667"><ele>141.33333333333334</ele><time>2026-04-06T14:04:34.45Z</time></trkpt><trkpt lat="45.7850126" lon="11.7522376"><ele>141.0</ele><time>2026-04-06T14:04:35.445Z</time></trkpt><trkpt lat="45.7848842" lon="11.7521073"><ele>141.0</ele><time>2026-04-06T14:04:36.445Z</time></trkpt><trkpt lat="45.7847545" lon="11.7519759"><ele>141.0</ele><time>2026-04-06T14:04:37.448Z</time></trkpt><trkpt lat="45.7846245" lon="11.7518431"><ele>141.0</ele><time>2026-04-06T14:04:38.447Z</time></trkpt><trkpt lat="45.7844954" lon="11.7517113"><ele>140.66666666666666</ele><time>2026-04-06T14:04:39.439Z</time></trkpt><trkpt lat="45.7843667" lon="11.7515782"><ele>140.33333333333331</ele><time>2026-04-06T14:04:40.442Z</time></trkpt><trkpt lat="45.78424" lon="11.7514427"><ele>140.0</ele><time>2026-04-06T14:04:41.451Z</time></trkpt><trkpt lat="45.7841169" lon="11.7513027"><ele>140.5</ele><time>2026-04-06T14:04:42.451Z</time></trkpt><trkpt lat="45.7840012" lon="11.7511545"><ele>141.0</ele><time>2026-04-06T14:04:43.444Z</time></trkpt><trkpt lat="45.7838964" lon="11.7510086"><ele>141.5</ele><time>2026-04-06T14:04:44.451Z</time></trkpt><trkpt lat="45.7838017" lon="11.7508617"><ele>142.0</ele><time>2026-04-06T14:04:45.457Z</time></trkpt><trkpt lat="45.783708" lon="11.7507114"><ele>142.25</ele><time>2026-04-06T14:04:46.455Z</time></trkpt><trkpt lat="45.7836162" lon="11.7505589"><ele>142.5</ele><time>2026-04-06T14:04:47.442Z</time></trkpt><trkpt lat="45.7835229" lon="11.7504055"><ele>142.75</ele><time>2026-04-06T14:04:48.443Z</time></trkpt><trkpt lat="45.7834284" lon="11.750248"><ele>143.0</ele><time>2026-04-06T14:04:49.443Z</time></trkpt><trkpt lat="45.7833337" lon="11.7500904"><ele>143.0</ele><time>2026-04-06T14:04:50.445Z</time></trkpt><trkpt lat="45.7832381" lon="11.7499308"><ele>143.0</ele><time>2026-04-06T14:04:51.45Z</time></trkpt><trkpt lat="45.7831433" lon="11.7497699"><ele>143.0</ele><time>2026-04-06T14:04:52.445Z</time></trkpt><trkpt lat="45.7830489" lon="11.7496079"><ele>143.0</ele><time>2026-04-06T14:04:53.46Z</time></trkpt><trkpt lat="45.7829553" lon="11.7494471"><ele>142.75</ele><time>2026-04-06T14:04:54.422Z</time></trkpt><trkpt lat="45.7828659" lon="11.7492934"><ele>142.5</ele><time>2026-04-06T14:04:55.422Z</time></trkpt><trkpt lat="45.7827791" lon="11.7491495"><ele>142.25</ele><time>2026-04-06T14:04:56.448Z</time></trkpt><trkpt lat="45.7826917" lon="11.7490044"><ele>142.0</ele><time>2026-04-06T14:04:57.437Z</time></trkpt><trkpt lat="45.7826043" lon="11.7488572"><ele>141.75</ele><time>2026-04-06T14:04:58.436Z</time></trkpt><trkpt lat="45.782522" lon="11.7487122"><ele>141.5</ele><time>2026-04-06T14:04:59.438Z</time></trkpt><trkpt lat="45.7824413" lon="11.7485658"><ele>141.25</ele><time>2026-04-06T14:05:00.449Z</time></trkpt><trkpt lat="45.7823589" lon="11.7484179"><ele>141.0</ele><time>2026-04-06T14:05:01.437Z</time></trkpt><trkpt lat="45.78228" lon="11.7482684"><ele>141.0</ele><time>2026-04-06T14:05:02.433Z</time></trkpt><trkpt lat="45.782203" lon="11.7481253"><ele>141.0</ele><time>2026-04-06T14:05:03.432Z</time></trkpt><trkpt lat="45.7821245" lon="11.7479831"><ele>141.0</ele><time>2026-04-06T14:05:04.442Z</time></trkpt><trkpt lat="45.7820478" lon="11.7478455"><ele>141.0</ele><time>2026-04-06T14:05:05.458Z</time></trkpt><trkpt lat="45.7819707" lon="11.7477034"><ele>140.5</ele><time>2026-04-06T14:05:06.438Z</time></trkpt><trkpt lat="45.7818955" lon="11.7475443"><ele>140.0</ele><time>2026-04-06T14:05:07.45Z</time></trkpt><trkpt lat="45.7818107" lon="11.747389"><ele>139.5</ele><time>2026-04-06T14:05:08.433Z</time></trkpt><trkpt lat="45.7817248" lon="11.7472353"><ele>139.0</ele><time>2026-04-06T14:05:09.449Z</time></trkpt><trkpt lat="45.7816436" lon="11.7470855"><ele>138.5</ele><time>2026-04-06T14:05:10.444Z</time></trkpt><trkpt lat="45.7815596" lon="11.7469344"><ele>138.0</ele><time>2026-04-06T14:05:11.434Z</time></trkpt><trkpt lat="45.7814758" lon="11.7467803"><ele>137.5</ele><time>2026-04-06T14:05:12.447Z</time></trkpt><trkpt lat="45.7813982" lon="11.746628"><ele>137.0</ele><time>2026-04-06T14:05:13.454Z</time></trkpt><trkpt lat="45.7813199" lon="11.7464691"><ele>137.0</ele><time>2026-04-06T14:05:14.44Z</time></trkpt><trkpt lat="45.7812414" lon="11.7463148"><ele>137.0</ele><time>2026-04-06T14:05:15.45Z</time></trkpt><trkpt lat="45.7811629" lon="11.7461531"><ele>137.0</ele><time>2026-04-06T14:05:16.445Z</time></trkpt><trkpt lat="45.7810841" lon="11.7460018"><ele>137.0</ele><time>2026-04-06T14:05:17.444Z</time></trkpt><trkpt lat="45.7809999" lon="11.745851"><ele>137.0</ele><time>2026-04-06T14:05:18.456Z</time></trkpt><trkpt lat="45.7809234" lon="11.7456918"><ele>137.0</ele><time>2026-04-06T14:05:19.444Z</time></trkpt><trkpt lat="45.7808445" lon="11.7455322"><ele>137.0</ele><time>2026-04-06T14:05:20.442Z</time></trkpt><trkpt lat="45.7807663" lon="11.7453737"><ele>137.0</ele><time>2026-04-06T14:05:21.452Z</time></trkpt><trkpt lat="45.7806894" lon="11.745227"><ele>136.75</ele><time>2026-04-06T14:05:22.445Z</time></trkpt><trkpt lat="45.7806133" lon="11.7450761"><ele>136.5</ele><time>2026-04-06T14:05:23.442Z</time></trkpt><trkpt lat="45.7805386" lon="11.7449292"><ele>136.25</ele><time>2026-04-06T14:05:24.448Z</time></trkpt><trkpt lat="45.7804651" lon="11.7447875"><ele>136.0</ele><time>2026-04-06T14:05:25.472Z</time></trkpt><trkpt lat="45.7803906" lon="11.7446368"><ele>136.0</ele><time>2026-04-06T14:05:26.448Z</time></trkpt><trkpt lat="45.7803156" lon="11.7444835"><ele>136.0</ele><time>2026-04-06T14:05:27.438Z</time></trkpt><trkpt lat="45.7802379" lon="11.7443312"><ele>136.0</ele><time>2026-04-06T14:05:28.441Z</time></trkpt><trkpt lat="45.7801593" lon="11.7441785"><ele>136.0</ele><time>2026-04-06T14:05:29.438Z</time></trkpt><trkpt lat="45.7800798" lon="11.744026"><ele>136.0</ele><time>2026-04-06T14:05:30.441Z</time></trkpt><trkpt lat="45.7800022" lon="11.7438735"><ele>136.0</ele><time>2026-04-06T14:05:31.457Z</time></trkpt><trkpt lat="45.7799236" lon="11.7437212"><ele>136.0</ele><time>2026-04-06T14:05:32.444Z</time></trkpt><trkpt lat="45.7798474" lon="11.743571"><ele>136.0</ele><time>2026-04-06T14:05:33.446Z</time></trkpt><trkpt lat="45.7797727" lon="11.7434215"><ele>136.0</ele><time>2026-04-06T14:05:34.438Z</time></trkpt><trkpt lat="45.7797046" lon="11.7432795"><ele>136.0</ele><time>2026-04-06T14:05:35.442Z</time></trkpt><trkpt lat="45.7796428" lon="11.7431403"><ele>136.0</ele><time>2026-04-06T14:05:36.449Z</time></trkpt><trkpt lat="45.779591" lon="11.7430082"><ele>136.0</ele><time>2026-04-06T14:05:37.443Z</time></trkpt><trkpt lat="45.779547" lon="11.7428831"><ele>136.0</ele><time>2026-04-06T14:05:38.442Z</time></trkpt><trkpt lat="45.7795072" lon="11.7427601"><ele>136.2</ele><time>2026-04-06T14:05:39.436Z</time></trkpt><trkpt lat="45.7794712" lon="11.7426398"><ele>136.39999999999998</ele><time>2026-04-06T14:05:40.444Z</time></trkpt><trkpt lat="45.7794442" lon="11.7425189"><ele>136.6</ele><time>2026-04-06T14:05:41.451Z</time></trkpt><trkpt lat="45.7794247" lon="11.7423951"><ele>136.79999999999998</ele><time>2026-04-06T14:05:42.44Z</time></trkpt><trkpt lat="45.7794145" lon="11.7422669"><ele>137.0</ele><time>2026-04-06T14:05:43.449Z</time></trkpt><trkpt lat="45.7794145" lon="11.7421358"><ele>137.0</ele><time>2026-04-06T14:05:44.447Z</time></trkpt><trkpt lat="45.7794245" lon="11.742001"><ele>137.0</ele><time>2026-04-06T14:05:45.453Z</time></trkpt><trkpt lat="45.7794422" lon="11.7418761"><ele>137.0</ele><time>2026-04-06T14:05:46.448Z</time></trkpt><trkpt lat="45.7794601" lon="11.7417661"><ele>137.0</ele><time>2026-04-06T14:05:47.434Z</time></trkpt><trkpt lat="45.7794749" lon="11.7416689"><ele>137.0</ele><time>2026-04-06T14:05:48.447Z</time></trkpt><trkpt lat="45.7794859" lon="11.7415205"><ele>137.0</ele><time>2026-04-06T14:05:50.44Z</time></trkpt><trkpt lat="45.7794719" lon="11.7414268"><ele>137.4</ele><time>2026-04-06T14:05:52.433Z</time></trkpt><trkpt lat="45.7793676" lon="11.7413821"><ele>137.79999999999998</ele><time>2026-04-06T14:05:54.434Z</time></trkpt><trkpt lat="45.7792877" lon="11.7414023"><ele>138.2</ele><time>2026-04-06T14:05:55.438Z</time></trkpt><trkpt lat="45.7791956" lon="11.7414369"><ele>138.6</ele><time>2026-04-06T14:05:56.43Z</time></trkpt><trkpt lat="45.7790926" lon="11.7414933"><ele>139.0</ele><time>2026-04-06T14:05:57.443Z</time></trkpt><trkpt lat="45.778963" lon="11.7415725"><ele>137.66666666666669</ele><time>2026-04-06T14:05:58.44Z</time></trkpt><trkpt lat="45.7788114" lon="11.7416639"><ele>136.33333333333334</ele><time>2026-04-06T14:05:59.451Z</time></trkpt><trkpt lat="45.7786483" lon="11.7417597"><ele>135.0</ele><time>2026-04-06T14:06:00.443Z</time></trkpt><trkpt lat="45.7784729" lon="11.7418556"><ele>135.0</ele><time>2026-04-06T14:06:01.44Z</time></trkpt><trkpt lat="45.7782925" lon="11.7419453"><ele>135.0</ele><time>2026-04-06T14:06:02.444Z</time></trkpt><trkpt lat="45.7781108" lon="11.7420186"><ele>135.0</ele><time>2026-04-06T14:06:03.446Z</time></trkpt><trkpt lat="45.7779266" lon="11.7420764"><ele>135.0</ele><time>2026-04-06T14:06:04.437Z</time></trkpt><trkpt lat="45.777738" lon="11.7421159"><ele>135.0</ele><time>2026-04-06T14:06:05.434Z</time></trkpt><trkpt lat="45.7775537" lon="11.7421365"><ele>135.0</ele><time>2026-04-06T14:06:06.444Z</time></trkpt><trkpt lat="45.7773764" lon="11.7421409"><ele>134.66666666666666</ele><time>2026-04-06T14:06:07.443Z</time></trkpt><trkpt lat="45.7772032" lon="11.7421315"><ele>134.33333333333331</ele><time>2026-04-06T14:06:08.434Z</time></trkpt><trkpt lat="45.7770353" lon="11.7421179"><ele>134.0</ele><time>2026-04-06T14:06:09.422Z</time></trkpt><trkpt lat="45.7768774" lon="11.7421025"><ele>134.0</ele><time>2026-04-06T14:06:10.444Z</time></trkpt><trkpt lat="45.7767297" lon="11.7420847"><ele>134.0</ele><time>2026-04-06T14:06:11.433Z</time></trkpt><trkpt lat="45.7765942" lon="11.7420575"><ele>134.0</ele><time>2026-04-06T14:06:12.439Z</time></trkpt><trkpt lat="45.7764697" lon="11.7420154"><ele>134.0</ele><time>2026-04-06T14:06:13.447Z</time></trkpt><trkpt lat="45.7763472" lon="11.7419702"><ele>134.0</ele><time>2026-04-06T14:06:14.451Z</time></trkpt><trkpt lat="45.7762385" lon="11.7419052"><ele>134.0</ele><time>2026-04-06T14:06:15.445Z</time></trkpt><trkpt lat="45.7761403" lon="11.7418238"><ele>134.0</ele><time>2026-04-06T14:06:16.449Z</time></trkpt><trkpt lat="45.7760372" lon="11.7417322"><ele>134.0</ele><time>2026-04-06T14:06:17.436Z</time></trkpt><trkpt lat="45.7759308" lon="11.7416386"><ele>133.75</ele><time>2026-04-06T14:06:18.457Z</time></trkpt><trkpt lat="45.7758228" lon="11.7415434"><ele>133.5</ele><time>2026-04-06T14:06:19.435Z</time></trkpt><trkpt lat="45.7757163" lon="11.741454"><ele>133.25</ele><time>2026-04-06T14:06:20.44Z</time></trkpt><trkpt lat="45.7756177" lon="11.7413698"><ele>133.0</ele><time>2026-04-06T14:06:21.442Z</time></trkpt><trkpt lat="45.7755186" lon="11.7412918"><ele>133.0</ele><time>2026-04-06T14:06:22.443Z</time></trkpt><trkpt lat="45.775412" lon="11.741233"><ele>133.0</ele><time>2026-04-06T14:06:23.433Z</time></trkpt><trkpt lat="45.7753018" lon="11.7411714"><ele>133.0</ele><time>2026-04-06T14:06:24.437Z</time></trkpt><trkpt lat="45.7751788" lon="11.7411574"><ele>133.0</ele><time>2026-04-06T14:06:25.444Z</time></trkpt><trkpt lat="45.7750587" lon="11.7411404"><ele>134.0</ele><time>2026-04-06T14:06:26.434Z</time></trkpt><trkpt lat="45.7749346" lon="11.7411227"><ele>135.0</ele><time>2026-04-06T14:06:27.457Z</time></trkpt><trkpt lat="45.7748084" lon="11.7411044"><ele>136.0</ele><time>2026-04-06T14:06:28.439Z</time></trkpt><trkpt lat="45.7746903" lon="11.7410878"><ele>137.0</ele><time>2026-04-06T14:06:29.447Z</time></trkpt><trkpt lat="45.7745813" lon="11.741069"><ele>137.0</ele><time>2026-04-06T14:06:30.452Z</time></trkpt><trkpt lat="45.7744791" lon="11.7410645"><ele>137.0</ele><time>2026-04-06T14:06:31.441Z</time></trkpt><trkpt lat="45.7743735" lon="11.7410392"><ele>137.0</ele><time>2026-04-06T14:06:32.441Z</time></trkpt><trkpt lat="45.7742658" lon="11.741008"><ele>137.0</ele><time>2026-04-06T14:06:33.437Z</time></trkpt><trkpt lat="45.7741584" lon="11.7409669"><ele>137.0</ele><time>2026-04-06T14:06:34.441Z</time></trkpt><trkpt lat="45.7740548" lon="11.7408941"><ele>136.25</ele><time>2026-04-06T14:06:35.442Z</time></trkpt><trkpt lat="45.7739514" lon="11.7408146"><ele>135.5</ele><time>2026-04-06T14:06:36.437Z</time></trkpt><trkpt lat="45.7738441" lon="11.7407346"><ele>134.75</ele><time>2026-04-06T14:06:37.455Z</time></trkpt><trkpt lat="45.7737353" lon="11.7406511"><ele>134.0</ele><time>2026-04-06T14:06:38.435Z</time></trkpt><trkpt lat="45.7736169" lon="11.7405926"><ele>134.0</ele><time>2026-04-06T14:06:39.446Z</time></trkpt><trkpt lat="45.7734868" lon="11.7405374"><ele>134.0</ele><time>2026-04-06T14:06:40.431Z</time></trkpt><trkpt lat="45.7733553" lon="11.7405025"><ele>134.0</ele><time>2026-04-06T14:06:41.44Z</time></trkpt><trkpt lat="45.7732243" lon="11.7404732"><ele>134.0</ele><time>2026-04-06T14:06:42.445Z</time></trkpt><trkpt lat="45.7730907" lon="11.7404566"><ele>134.0</ele><time>2026-04-06T14:06:43.444Z</time></trkpt><trkpt lat="45.7729508" lon="11.7404407"><ele>134.0</ele><time>2026-04-06T14:06:44.448Z</time></trkpt><trkpt lat="45.7728116" lon="11.7404262"><ele>134.0</ele><time>2026-04-06T14:06:45.447Z</time></trkpt><trkpt lat="45.7726701" lon="11.7404074"><ele>134.0</ele><time>2026-04-06T14:06:46.446Z</time></trkpt><trkpt lat="45.7725301" lon="11.7403889"><ele>133.5</ele><time>2026-04-06T14:06:47.444Z</time></trkpt><trkpt lat="45.7723969" lon="11.7403711"><ele>133.0</ele><time>2026-04-06T14:06:48.45Z</time></trkpt><trkpt lat="45.7722723" lon="11.7403517"><ele>132.5</ele><time>2026-04-06T14:06:49.441Z</time></trkpt><trkpt lat="45.7721577" lon="11.740325"><ele>132.0</ele><time>2026-04-06T14:06:50.432Z</time></trkpt><trkpt lat="45.7720508" lon="11.7402913"><ele>132.0</ele><time>2026-04-06T14:06:51.436Z</time></trkpt><trkpt lat="45.7719477" lon="11.740248"><ele>132.0</ele><time>2026-04-06T14:06:52.437Z</time></trkpt><trkpt lat="45.7718436" lon="11.740199"><ele>132.0</ele><time>2026-04-06T14:06:53.43Z</time></trkpt><trkpt lat="45.771737" lon="11.7401532"><ele>132.0</ele><time>2026-04-06T14:06:54.439Z</time></trkpt><trkpt lat="45.7716363" lon="11.7401084"><ele>132.0</ele><time>2026-04-06T14:06:55.458Z</time></trkpt><trkpt lat="45.7715348" lon="11.7400631"><ele>131.0</ele><time>2026-04-06T14:06:56.445Z</time></trkpt><trkpt lat="45.7714385" lon="11.7400216"><ele>130.0</ele><time>2026-04-06T14:06:57.433Z</time></trkpt><trkpt lat="45.7713415" lon="11.739976"><ele>129.0</ele><time>2026-04-06T14:06:58.44Z</time></trkpt><trkpt lat="45.7712389" lon="11.7399177"><ele>128.0</ele><time>2026-04-06T14:06:59.452Z</time></trkpt><trkpt lat="45.7711312" lon="11.7398472"><ele>127.0</ele><time>2026-04-06T14:07:00.451Z</time></trkpt><trkpt lat="45.7710242" lon="11.739763"><ele>126.5</ele><time>2026-04-06T14:07:01.447Z</time></trkpt><trkpt lat="45.7709194" lon="11.7396652"><ele>126.0</ele><time>2026-04-06T14:07:02.444Z</time></trkpt><trkpt lat="45.7708137" lon="11.7395714"><ele>125.5</ele><time>2026-04-06T14:07:03.456Z</time></trkpt><trkpt lat="45.7707107" lon="11.7394642"><ele>125.0</ele><time>2026-04-06T14:07:04.441Z</time></trkpt><trkpt lat="45.7706122" lon="11.7393608"><ele>125.0</ele><time>2026-04-06T14:07:05.449Z</time></trkpt><trkpt lat="45.770514" lon="11.7392597"><ele>125.0</ele><time>2026-04-06T14:07:06.434Z</time></trkpt><trkpt lat="45.7704166" lon="11.7391599"><ele>125.0</ele><time>2026-04-06T14:07:07.445Z</time></trkpt><trkpt lat="45.7703219" lon="11.7390581"><ele>125.0</ele><time>2026-04-06T14:07:08.442Z</time></trkpt><trkpt lat="45.7702338" lon="11.7389684"><ele>125.33333333333333</ele><time>2026-04-06T14:07:09.445Z</time></trkpt><trkpt lat="45.7701534" lon="11.7388828"><ele>125.66666666666666</ele><time>2026-04-06T14:07:10.438Z</time></trkpt><trkpt lat="45.7700776" lon="11.7388058"><ele>126.0</ele><time>2026-04-06T14:07:11.449Z</time></trkpt><trkpt lat="45.7700077" lon="11.7387268"><ele>126.33333333333334</ele><time>2026-04-06T14:07:12.441Z</time></trkpt><trkpt lat="45.7699415" lon="11.7386539"><ele>126.66666666666667</ele><time>2026-04-06T14:07:13.441Z</time></trkpt><trkpt lat="45.769885" lon="11.7385725"><ele>127.0</ele><time>2026-04-06T14:07:14.441Z</time></trkpt><trkpt lat="45.7698525" lon="11.7384864"><ele>127.00000000000001</ele><time>2026-04-06T14:07:15.448Z</time></trkpt><trkpt lat="45.7698141" lon="11.7383168"><ele>127.0</ele><time>2026-04-06T14:07:17.435Z</time></trkpt><trkpt lat="45.7697738" lon="11.7382466"><ele>127.0</ele><time>2026-04-06T14:07:18.43Z</time></trkpt><trkpt lat="45.769715" lon="11.7382127"><ele>127.0</ele><time>2026-04-06T14:07:19.43Z</time></trkpt><trkpt lat="45.769646" lon="11.7382059"><ele>127.00000000000001</ele><time>2026-04-06T14:07:20.432Z</time></trkpt><trkpt lat="45.7695807" lon="11.7382436"><ele>127.0</ele><time>2026-04-06T14:07:21.447Z</time></trkpt><trkpt lat="45.7694777" lon="11.7382305"><ele>127.00000000000001</ele><time>2026-04-06T14:07:23.432Z</time></trkpt><trkpt lat="45.7693773" lon="11.7381946"><ele>127.0</ele><time>2026-04-06T14:07:25.431Z</time></trkpt><trkpt lat="45.7692917" lon="11.7381802"><ele>127.0</ele><time>2026-04-06T14:07:27.446Z</time></trkpt><trkpt lat="45.7692052" lon="11.7381784"><ele>127.0</ele><time>2026-04-06T14:07:30.438Z</time></trkpt><trkpt lat="45.7691409" lon="11.7381827"><ele>127.00000000000001</ele><time>2026-04-06T14:07:36.449Z</time></trkpt><trkpt lat="45.7690389" lon="11.7381974"><ele>127.0</ele><time>2026-04-06T14:07:38.446Z</time></trkpt><trkpt lat="45.7689147" lon="11.7382141"><ele>128.0</ele><time>2026-04-06T14:07:40.444Z</time></trkpt><trkpt lat="45.7688453" lon="11.7382192"><ele>129.0</ele><time>2026-04-06T14:07:41.432Z</time></trkpt><trkpt lat="45.7687695" lon="11.7382249"><ele>130.0</ele><time>2026-04-06T14:07:42.441Z</time></trkpt><trkpt lat="45.7686885" lon="11.7382317"><ele>131.0</ele><time>2026-04-06T14:07:43.44Z</time></trkpt><trkpt lat="45.768602" lon="11.7382375"><ele>132.0</ele><time>2026-04-06T14:07:44.448Z</time></trkpt><trkpt lat="45.7685193" lon="11.7382421"><ele>133.0</ele><time>2026-04-06T14:07:45.448Z</time></trkpt><trkpt lat="45.7684364" lon="11.738246"><ele>133.0</ele><time>2026-04-06T14:07:46.449Z</time></trkpt><trkpt lat="45.7683537" lon="11.7382505"><ele>133.0</ele><time>2026-04-06T14:07:47.44Z</time></trkpt><trkpt lat="45.7682695" lon="11.7382563"><ele>133.0</ele><time>2026-04-06T14:07:48.442Z</time></trkpt><trkpt lat="45.7681841" lon="11.7382606"><ele>133.0</ele><time>2026-04-06T14:07:49.447Z</time></trkpt><trkpt lat="45.7681023" lon="11.7382649"><ele>133.0</ele><time>2026-04-06T14:07:50.448Z</time></trkpt><trkpt lat="45.7680194" lon="11.7382725"><ele>133.0</ele><time>2026-04-06T14:07:51.442Z</time></trkpt><trkpt lat="45.767941" lon="11.7382816"><ele>133.0</ele><time>2026-04-06T14:07:52.447Z</time></trkpt><trkpt lat="45.76787" lon="11.7382869"><ele>133.0</ele><time>2026-04-06T14:07:53.44Z</time></trkpt><trkpt lat="45.7677621" lon="11.7382914"><ele>133.0</ele><time>2026-04-06T14:07:55.443Z</time></trkpt><trkpt lat="45.7676102" lon="11.7382795"><ele>133.0</ele><time>2026-04-06T14:08:27.432Z</time></trkpt><trkpt lat="45.7675195" lon="11.738277"><ele>133.0</ele><time>2026-04-06T14:08:29.439Z</time></trkpt><trkpt lat="45.7674506" lon="11.7382763"><ele>133.0</ele><time>2026-04-06T14:08:30.465Z</time></trkpt><trkpt lat="45.7673641" lon="11.7382809"><ele>133.0</ele><time>2026-04-06T14:08:31.45Z</time></trkpt><trkpt lat="45.7672662" lon="11.7382891"><ele>133.0</ele><time>2026-04-06T14:08:32.447Z</time></trkpt><trkpt lat="45.7671488" lon="11.7382967"><ele>133.0</ele><time>2026-04-06T14:08:33.449Z</time></trkpt><trkpt lat="45.767029" lon="11.7383055"><ele>133.0</ele><time>2026-04-06T14:08:34.446Z</time></trkpt><trkpt lat="45.7668984" lon="11.7383105"><ele>132.75</ele><time>2026-04-06T14:08:35.444Z</time></trkpt><trkpt lat="45.7667703" lon="11.7383187"><ele>132.5</ele><time>2026-04-06T14:08:36.434Z</time></trkpt><trkpt lat="45.7666384" lon="11.7383257"><ele>132.25</ele><time>2026-04-06T14:08:37.451Z</time></trkpt><trkpt lat="45.7665061" lon="11.7383355"><ele>132.0</ele><time>2026-04-06T14:08:38.437Z</time></trkpt><trkpt lat="45.7663819" lon="11.7383451"><ele>132.0</ele><time>2026-04-06T14:08:39.438Z</time></trkpt><trkpt lat="45.7662755" lon="11.7383506"><ele>132.0</ele><time>2026-04-06T14:08:40.448Z</time></trkpt><trkpt lat="45.7661764" lon="11.738356"><ele>132.0</ele><time>2026-04-06T14:08:41.443Z</time></trkpt><trkpt lat="45.7660933" lon="11.7383628"><ele>132.0</ele><time>2026-04-06T14:08:42.426Z</time></trkpt><trkpt lat="45.7660047" lon="11.7383644"><ele>132.0</ele><time>2026-04-06T14:08:43.443Z</time></trkpt><trkpt lat="45.7659061" lon="11.7383511"><ele>131.79999999999998</ele><time>2026-04-06T14:08:44.435Z</time></trkpt><trkpt lat="45.7658066" lon="11.738318"><ele>131.6</ele><time>2026-04-06T14:08:45.436Z</time></trkpt><trkpt lat="45.7657103" lon="11.738265"><ele>131.39999999999998</ele><time>2026-04-06T14:08:46.433Z</time></trkpt><trkpt lat="45.7656246" lon="11.7381917"><ele>131.2</ele><time>2026-04-06T14:08:47.428Z</time></trkpt><trkpt lat="45.7655543" lon="11.7381075"><ele>131.0</ele><time>2026-04-06T14:08:48.433Z</time></trkpt><trkpt lat="45.7654966" lon="11.7380223"><ele>131.0</ele><time>2026-04-06T14:08:49.427Z</time></trkpt><trkpt lat="45.7654513" lon="11.737951"><ele>131.0</ele><time>2026-04-06T14:08:50.43Z</time></trkpt><trkpt lat="45.7653717" lon="11.7378129"><ele>131.0</ele><time>2026-04-06T14:08:52.447Z</time></trkpt><trkpt lat="45.7653232" lon="11.737736"><ele>131.0</ele><time>2026-04-06T14:08:53.447Z</time></trkpt><trkpt lat="45.7652689" lon="11.7376492"><ele>131.0</ele><time>2026-04-06T14:08:54.438Z</time></trkpt><trkpt lat="45.7651999" lon="11.7375403"><ele>131.0</ele><time>2026-04-06T14:08:55.436Z</time></trkpt><trkpt lat="45.7651357" lon="11.7374349"><ele>130.4</ele><time>2026-04-06T14:08:56.443Z</time></trkpt><trkpt lat="45.7650727" lon="11.7373309"><ele>129.8</ele><time>2026-04-06T14:08:57.448Z</time></trkpt><trkpt lat="45.7650034" lon="11.7372264"><ele>129.20000000000002</ele><time>2026-04-06T14:08:58.444Z</time></trkpt><trkpt lat="45.7649377" lon="11.7371287"><ele>128.6</ele><time>2026-04-06T14:08:59.438Z</time></trkpt><trkpt lat="45.7648735" lon="11.7370474"><ele>128.0</ele><time>2026-04-06T14:09:00.442Z</time></trkpt><trkpt lat="45.7648141" lon="11.7369661"><ele>127.99999999999999</ele><time>2026-04-06T14:09:01.442Z</time></trkpt><trkpt lat="45.7647664" lon="11.7368803"><ele>128.0</ele><time>2026-04-06T14:09:02.443Z</time></trkpt><trkpt lat="45.7647178" lon="11.7368002"><ele>128.0</ele><time>2026-04-06T14:09:03.447Z</time></trkpt><trkpt lat="45.7646717" lon="11.7367243"><ele>128.0</ele><time>2026-04-06T14:09:04.442Z</time></trkpt><trkpt lat="45.7646307" lon="11.7366553"><ele>127.99999999999999</ele><time>2026-04-06T14:09:05.455Z</time></trkpt><trkpt lat="45.7645618" lon="11.73651"><ele>128.0</ele><time>2026-04-06T14:09:07.442Z</time></trkpt><trkpt lat="45.7644945" lon="11.7363587"><ele>127.99999999999999</ele><time>2026-04-06T14:09:09.44Z</time></trkpt><trkpt lat="45.7644649" lon="11.7362783"><ele>128.0</ele><time>2026-04-06T14:09:10.441Z</time></trkpt><trkpt lat="45.7644384" lon="11.7361809"><ele>128.0</ele><time>2026-04-06T14:09:11.441Z</time></trkpt><trkpt lat="45.76441" lon="11.7360718"><ele>128.0</ele><time>2026-04-06T14:09:12.448Z</time></trkpt><trkpt lat="45.7643984" lon="11.7359291"><ele>127.99999999999999</ele><time>2026-04-06T14:09:13.429Z</time></trkpt><trkpt lat="45.7643892" lon="11.7357785"><ele>128.0</ele><time>2026-04-06T14:09:14.445Z</time></trkpt><trkpt lat="45.7643744" lon="11.7356311"><ele>127.80000000000001</ele><time>2026-04-06T14:09:15.445Z</time></trkpt><trkpt lat="45.7643586" lon="11.7354839"><ele>127.60000000000001</ele><time>2026-04-06T14:09:16.442Z</time></trkpt><trkpt lat="45.7643158" lon="11.7353498"><ele>127.39999999999999</ele><time>2026-04-06T14:09:17.446Z</time></trkpt><trkpt lat="45.7642653" lon="11.7352061"><ele>127.19999999999999</ele><time>2026-04-06T14:09:18.438Z</time></trkpt><trkpt lat="45.7642159" lon="11.7350665"><ele>127.0</ele><time>2026-04-06T14:09:19.442Z</time></trkpt><trkpt lat="45.7641674" lon="11.7349386"><ele>126.8</ele><time>2026-04-06T14:09:20.44Z</time></trkpt><trkpt lat="45.7641188" lon="11.73481"><ele>126.6</ele><time>2026-04-06T14:09:21.44Z</time></trkpt><trkpt lat="45.7640668" lon="11.7346697"><ele>126.39999999999999</ele><time>2026-04-06T14:09:22.443Z</time></trkpt><trkpt lat="45.7640166" lon="11.7345227"><ele>126.19999999999999</ele><time>2026-04-06T14:09:23.439Z</time></trkpt><trkpt lat="45.7639702" lon="11.734372"><ele>126.0</ele><time>2026-04-06T14:09:24.445Z</time></trkpt><trkpt lat="45.76393" lon="11.7342177"><ele>125.0</ele><time>2026-04-06T14:09:25.446Z</time></trkpt><trkpt lat="45.763896" lon="11.7340576"><ele>124.0</ele><time>2026-04-06T14:09:26.444Z</time></trkpt><trkpt lat="45.763867" lon="11.7338831"><ele>123.0</ele><time>2026-04-06T14:09:27.442Z</time></trkpt><trkpt lat="45.7638426" lon="11.7337052"><ele>122.0</ele><time>2026-04-06T14:09:28.455Z</time></trkpt><trkpt lat="45.7638236" lon="11.7335406"><ele>121.39999999999999</ele><time>2026-04-06T14:09:29.422Z</time></trkpt><trkpt lat="45.7638074" lon="11.7333944"><ele>120.79999999999998</ele><time>2026-04-06T14:09:30.447Z</time></trkpt><trkpt lat="45.7637949" lon="11.7332616"><ele>120.2</ele><time>2026-04-06T14:09:31.437Z</time></trkpt><trkpt lat="45.7637832" lon="11.7331375"><ele>119.6</ele><time>2026-04-06T14:09:32.44Z</time></trkpt><trkpt lat="45.7637719" lon="11.7330125"><ele>119.0</ele><time>2026-04-06T14:09:33.45Z</time></trkpt><trkpt lat="45.7637604" lon="11.7328918"><ele>118.99999999999999</ele><time>2026-04-06T14:09:34.447Z</time></trkpt><trkpt lat="45.7637489" lon="11.7327841"><ele>119.0</ele><time>2026-04-06T14:09:35.436Z</time></trkpt><trkpt lat="45.7637369" lon="11.7326742"><ele>119.0</ele><time>2026-04-06T14:09:36.44Z</time></trkpt><trkpt lat="45.7637258" lon="11.7325725"><ele>119.0</ele><time>2026-04-06T14:09:37.436Z</time></trkpt><trkpt lat="45.7637272" lon="11.7323894"><ele>118.99999999999999</ele><time>2026-04-06T14:09:39.436Z</time></trkpt><trkpt lat="45.7637475" lon="11.7322857"><ele>119.0</ele><time>2026-04-06T14:09:40.431Z</time></trkpt><trkpt lat="45.7637788" lon="11.7321807"><ele>119.14285714285714</ele><time>2026-04-06T14:09:41.447Z</time></trkpt><trkpt lat="45.7638018" lon="11.7320792"><ele>119.28571428571428</ele><time>2026-04-06T14:09:42.435Z</time></trkpt><trkpt lat="45.7638003" lon="11.7319792"><ele>119.42857142857143</ele><time>2026-04-06T14:09:43.439Z</time></trkpt><trkpt lat="45.7637712" lon="11.7318962"><ele>119.57142857142857</ele><time>2026-04-06T14:09:44.429Z</time></trkpt><trkpt lat="45.7637164" lon="11.7318416"><ele>119.71428571428571</ele><time>2026-04-06T14:09:45.425Z</time></trkpt><trkpt lat="45.7636438" lon="11.7318264"><ele>119.85714285714286</ele><time>2026-04-06T14:09:46.427Z</time></trkpt><trkpt lat="45.7635516" lon="11.7318358"><ele>120.0</ele><time>2026-04-06T14:09:47.436Z</time></trkpt><trkpt lat="45.7634461" lon="11.7318472"><ele>119.25</ele><time>2026-04-06T14:09:48.434Z</time></trkpt><trkpt lat="45.7633241" lon="11.7318614"><ele>118.5</ele><time>2026-04-06T14:09:49.441Z</time></trkpt><trkpt lat="45.763188" lon="11.7318718"><ele>117.75</ele><time>2026-04-06T14:09:50.446Z</time></trkpt><trkpt lat="45.7630403" lon="11.7318761"><ele>117.0</ele><time>2026-04-06T14:09:51.432Z</time></trkpt><trkpt lat="45.7628847" lon="11.7318768"><ele>117.0</ele><time>2026-04-06T14:09:52.444Z</time></trkpt><trkpt lat="45.7627222" lon="11.7318769"><ele>117.0</ele><time>2026-04-06T14:09:53.443Z</time></trkpt><trkpt lat="45.7625552" lon="11.7318753"><ele>117.0</ele><time>2026-04-06T14:09:54.441Z</time></trkpt><trkpt lat="45.7623851" lon="11.731871"><ele>116.0</ele><time>2026-04-06T14:09:55.428Z</time></trkpt><trkpt lat="45.762207" lon="11.7318664"><ele>115.0</ele><time>2026-04-06T14:09:56.43Z</time></trkpt><trkpt lat="45.7620256" lon="11.7318602"><ele>114.0</ele><time>2026-04-06T14:09:57.449Z</time></trkpt><trkpt lat="45.7618547" lon="11.7318538"><ele>112.66666666666666</ele><time>2026-04-06T14:09:58.444Z</time></trkpt><trkpt lat="45.7616914" lon="11.7318453"><ele>111.33333333333333</ele><time>2026-04-06T14:09:59.447Z</time></trkpt><trkpt lat="45.7615365" lon="11.7318362"><ele>110.0</ele><time>2026-04-06T14:10:00.429Z</time></trkpt><trkpt lat="45.7613926" lon="11.7318279"><ele>110.0</ele><time>2026-04-06T14:10:01.442Z</time></trkpt><trkpt lat="45.7612582" lon="11.7318199"><ele>110.0</ele><time>2026-04-06T14:10:02.444Z</time></trkpt><trkpt lat="45.7611371" lon="11.7318117"><ele>110.0</ele><time>2026-04-06T14:10:03.436Z</time></trkpt><trkpt lat="45.7610318" lon="11.7318023"><ele>110.0</ele><time>2026-04-06T14:10:04.432Z</time></trkpt><trkpt lat="45.7609423" lon="11.7317937"><ele>109.99999999999999</ele><time>2026-04-06T14:10:05.444Z</time></trkpt><trkpt lat="45.7608635" lon="11.731786"><ele>110.0</ele><time>2026-04-06T14:10:06.43Z</time></trkpt><trkpt lat="45.7607947" lon="11.7317771"><ele>110.0</ele><time>2026-04-06T14:10:07.438Z</time></trkpt><trkpt lat="45.7607269" lon="11.7317653"><ele>110.0</ele><time>2026-04-06T14:10:08.439Z</time></trkpt><trkpt lat="45.7606586" lon="11.7317434"><ele>110.0</ele><time>2026-04-06T14:10:09.44Z</time></trkpt><trkpt lat="45.7605921" lon="11.731701"><ele>109.99999999999999</ele><time>2026-04-06T14:10:10.441Z</time></trkpt><trkpt lat="45.7605266" lon="11.7316427"><ele>110.0</ele><time>2026-04-06T14:10:11.44Z</time></trkpt><trkpt lat="45.7604514" lon="11.7315975"><ele>110.0</ele><time>2026-04-06T14:10:12.441Z</time></trkpt><trkpt lat="45.7603529" lon="11.7315857"><ele>110.0</ele><time>2026-04-06T14:10:13.454Z</time></trkpt><trkpt lat="45.7602361" lon="11.7315882"><ele>110.0</ele><time>2026-04-06T14:10:14.443Z</time></trkpt><trkpt lat="45.7601078" lon="11.7315746"><ele>110.0</ele><time>2026-04-06T14:10:15.44Z</time></trkpt><trkpt lat="45.7599679" lon="11.731535"><ele>109.66666666666666</ele><time>2026-04-06T14:10:16.441Z</time></trkpt><trkpt lat="45.7598246" lon="11.7314757"><ele>109.33333333333334</ele><time>2026-04-06T14:10:17.44Z</time></trkpt><trkpt lat="45.7596749" lon="11.7314126"><ele>109.0</ele><time>2026-04-06T14:10:18.454Z</time></trkpt><trkpt lat="45.7595223" lon="11.7313476"><ele>109.0</ele><time>2026-04-06T14:10:19.457Z</time></trkpt><trkpt lat="45.7593684" lon="11.7312764"><ele>109.0</ele><time>2026-04-06T14:10:20.44Z</time></trkpt><trkpt lat="45.7592115" lon="11.7311979"><ele>109.0</ele><time>2026-04-06T14:10:21.444Z</time></trkpt><trkpt lat="45.7590522" lon="11.7311145"><ele>108.66666666666667</ele><time>2026-04-06T14:10:22.445Z</time></trkpt><trkpt lat="45.7588894" lon="11.7310317"><ele>108.33333333333334</ele><time>2026-04-06T14:10:23.432Z</time></trkpt><trkpt lat="45.7587256" lon="11.7309557"><ele>108.0</ele><time>2026-04-06T14:10:24.438Z</time></trkpt><trkpt lat="45.7585558" lon="11.730868"><ele>107.33333333333334</ele><time>2026-04-06T14:10:25.431Z</time></trkpt><trkpt lat="45.7583879" lon="11.7307846"><ele>106.66666666666667</ele><time>2026-04-06T14:10:26.44Z</time></trkpt><trkpt lat="45.758217" lon="11.7307002"><ele>106.0</ele><time>2026-04-06T14:10:27.441Z</time></trkpt><trkpt lat="45.7580431" lon="11.7306062"><ele>106.0</ele><time>2026-04-06T14:10:28.451Z</time></trkpt><trkpt lat="45.7578692" lon="11.730509"><ele>106.0</ele><time>2026-04-06T14:10:29.446Z</time></trkpt><trkpt lat="45.7576975" lon="11.7304073"><ele>106.0</ele><time>2026-04-06T14:10:30.448Z</time></trkpt><trkpt lat="45.7575264" lon="11.730301"><ele>106.0</ele><time>2026-04-06T14:10:31.462Z</time></trkpt><trkpt lat="45.7573589" lon="11.730189"><ele>106.0</ele><time>2026-04-06T14:10:32.488Z</time></trkpt><trkpt lat="45.7571949" lon="11.7300718"><ele>106.0</ele><time>2026-04-06T14:10:33.487Z</time></trkpt><trkpt lat="45.7570317" lon="11.7299541"><ele>106.0</ele><time>2026-04-06T14:10:34.459Z</time></trkpt><trkpt lat="45.7568704" lon="11.7298375"><ele>106.0</ele><time>2026-04-06T14:10:35.47Z</time></trkpt><trkpt lat="45.7567049" lon="11.7297229"><ele>106.0</ele><time>2026-04-06T14:10:36.488Z</time></trkpt><trkpt lat="45.7565411" lon="11.7296081"><ele>106.0</ele><time>2026-04-06T14:10:37.491Z</time></trkpt><trkpt lat="45.7563785" lon="11.7294938"><ele>106.0</ele><time>2026-04-06T14:10:38.458Z</time></trkpt><trkpt lat="45.7560525" lon="11.7292658"><ele>106.0</ele><time>2026-04-06T14:10:40.537Z</time></trkpt><trkpt lat="45.7558886" lon="11.7291485"><ele>106.0</ele><time>2026-04-06T14:10:41.504Z</time></trkpt><trkpt lat="45.7557246" lon="11.7290327"><ele>106.0</ele><time>2026-04-06T14:10:42.526Z</time></trkpt><trkpt lat="45.7555617" lon="11.7289169"><ele>106.0</ele><time>2026-04-06T14:10:43.512Z</time></trkpt><trkpt lat="45.7553994" lon="11.7288032"><ele>106.0</ele><time>2026-04-06T14:10:44.506Z</time></trkpt><trkpt lat="45.7552364" lon="11.7286882"><ele>106.0</ele><time>2026-04-06T14:10:45.468Z</time></trkpt><trkpt lat="45.7550735" lon="11.7285721"><ele>105.33333333333334</ele><time>2026-04-06T14:10:46.461Z</time></trkpt><trkpt lat="45.7549129" lon="11.7284596"><ele>104.66666666666666</ele><time>2026-04-06T14:10:47.465Z</time></trkpt><trkpt lat="45.754758" lon="11.7283493"><ele>104.0</ele><time>2026-04-06T14:10:48.48Z</time></trkpt><trkpt lat="45.7546177" lon="11.7282496"><ele>104.0</ele><time>2026-04-06T14:10:49.484Z</time></trkpt><trkpt lat="45.7544996" lon="11.7281641"><ele>104.0</ele><time>2026-04-06T14:10:50.466Z</time></trkpt><trkpt lat="45.7543895" lon="11.7280848"><ele>104.0</ele><time>2026-04-06T14:10:51.463Z</time></trkpt><trkpt lat="45.7542836" lon="11.7280078"><ele>104.0</ele><time>2026-04-06T14:10:52.459Z</time></trkpt><trkpt lat="45.7541821" lon="11.7279339"><ele>104.2</ele><time>2026-04-06T14:10:53.468Z</time></trkpt><trkpt lat="45.7540827" lon="11.7278641"><ele>104.4</ele><time>2026-04-06T14:10:54.46Z</time></trkpt><trkpt lat="45.7539858" lon="11.7277964"><ele>104.6</ele><time>2026-04-06T14:10:55.476Z</time></trkpt><trkpt lat="45.7538983" lon="11.7277339"><ele>104.8</ele><time>2026-04-06T14:10:56.46Z</time></trkpt><trkpt lat="45.7538185" lon="11.7276769"><ele>105.0</ele><time>2026-04-06T14:10:57.48Z</time></trkpt><trkpt lat="45.7537407" lon="11.7276196"><ele>105.0</ele><time>2026-04-06T14:10:58.464Z</time></trkpt><trkpt lat="45.7536609" lon="11.7275623"><ele>105.0</ele><time>2026-04-06T14:10:59.463Z</time></trkpt><trkpt lat="45.7535813" lon="11.7275067"><ele>105.0</ele><time>2026-04-06T14:11:00.466Z</time></trkpt><trkpt lat="45.7535071" lon="11.7274551"><ele>105.0</ele><time>2026-04-06T14:11:01.459Z</time></trkpt><trkpt lat="45.7534365" lon="11.7274067"><ele>105.0</ele><time>2026-04-06T14:11:02.46Z</time></trkpt><trkpt lat="45.7533704" lon="11.7273455"><ele>105.0</ele><time>2026-04-06T14:11:03.466Z</time></trkpt><trkpt lat="45.7533077" lon="11.72727"><ele>105.2</ele><time>2026-04-06T14:11:04.47Z</time></trkpt><trkpt lat="45.7532394" lon="11.7271958"><ele>105.4</ele><time>2026-04-06T14:11:05.464Z</time></trkpt><trkpt lat="45.7531557" lon="11.7271386"><ele>105.6</ele><time>2026-04-06T14:11:06.462Z</time></trkpt><trkpt lat="45.7530437" lon="11.7271011"><ele>105.8</ele><time>2026-04-06T14:11:07.465Z</time></trkpt><trkpt lat="45.7529163" lon="11.7270506"><ele>106.0</ele><time>2026-04-06T14:11:08.462Z</time></trkpt><trkpt lat="45.7527813" lon="11.726974"><ele>105.66666666666667</ele><time>2026-04-06T14:11:09.467Z</time></trkpt><trkpt lat="45.7526407" lon="11.7268869"><ele>105.33333333333334</ele><time>2026-04-06T14:11:10.461Z</time></trkpt><trkpt lat="45.7524921" lon="11.7268"><ele>105.0</ele><time>2026-04-06T14:11:11.463Z</time></trkpt><trkpt lat="45.752339" lon="11.7267034"><ele>105.0</ele><time>2026-04-06T14:11:12.463Z</time></trkpt><trkpt lat="45.7521822" lon="11.7265988"><ele>105.0</ele><time>2026-04-06T14:11:13.467Z</time></trkpt><trkpt lat="45.7520212" lon="11.7264794"><ele>105.0</ele><time>2026-04-06T14:11:14.462Z</time></trkpt><trkpt lat="45.7518511" lon="11.7263609"><ele>105.33333333333334</ele><time>2026-04-06T14:11:15.469Z</time></trkpt><trkpt lat="45.7516834" lon="11.726238"><ele>105.66666666666667</ele><time>2026-04-06T14:11:16.462Z</time></trkpt><trkpt lat="45.7515062" lon="11.726123"><ele>106.0</ele><time>2026-04-06T14:11:17.466Z</time></trkpt><trkpt lat="45.7513272" lon="11.726013"><ele>106.0</ele><time>2026-04-06T14:11:18.496Z</time></trkpt><trkpt lat="45.7511374" lon="11.7259206"><ele>106.0</ele><time>2026-04-06T14:11:19.472Z</time></trkpt><trkpt lat="45.7509324" lon="11.7258392"><ele>106.0</ele><time>2026-04-06T14:11:20.459Z</time></trkpt><trkpt lat="45.7507207" lon="11.7257701"><ele>105.66666666666667</ele><time>2026-04-06T14:11:21.469Z</time></trkpt><trkpt lat="45.7505045" lon="11.7257162"><ele>105.33333333333334</ele><time>2026-04-06T14:11:22.469Z</time></trkpt><trkpt lat="45.7502849" lon="11.7256802"><ele>105.0</ele><time>2026-04-06T14:11:23.469Z</time></trkpt><trkpt lat="45.7500655" lon="11.7256601"><ele>104.66666666666666</ele><time>2026-04-06T14:11:24.463Z</time></trkpt><trkpt lat="45.7498467" lon="11.7256562"><ele>104.33333333333333</ele><time>2026-04-06T14:11:25.468Z</time></trkpt><trkpt lat="45.7496372" lon="11.7256763"><ele>104.0</ele><time>2026-04-06T14:11:26.462Z</time></trkpt><trkpt lat="45.7494352" lon="11.7257236"><ele>104.66666666666666</ele><time>2026-04-06T14:11:27.463Z</time></trkpt><trkpt lat="45.7492351" lon="11.7257882"><ele>105.33333333333334</ele><time>2026-04-06T14:11:28.47Z</time></trkpt><trkpt lat="45.74904" lon="11.7258636"><ele>106.0</ele><time>2026-04-06T14:11:29.464Z</time></trkpt><trkpt lat="45.7488506" lon="11.7259505"><ele>106.0</ele><time>2026-04-06T14:11:30.46Z</time></trkpt><trkpt lat="45.7486835" lon="11.7260381"><ele>106.0</ele><time>2026-04-06T14:11:31.503Z</time></trkpt><trkpt lat="45.7485399" lon="11.726123"><ele>106.0</ele><time>2026-04-06T14:11:32.463Z</time></trkpt><trkpt lat="45.7484175" lon="11.7261997"><ele>106.19999999999999</ele><time>2026-04-06T14:11:33.465Z</time></trkpt><trkpt lat="45.7483064" lon="11.7262706"><ele>106.39999999999999</ele><time>2026-04-06T14:11:34.463Z</time></trkpt><trkpt lat="45.7482046" lon="11.7263385"><ele>106.6</ele><time>2026-04-06T14:11:35.488Z</time></trkpt><trkpt lat="45.7481127" lon="11.7264047"><ele>106.8</ele><time>2026-04-06T14:11:36.469Z</time></trkpt><trkpt lat="45.7480288" lon="11.7264669"><ele>107.0</ele><time>2026-04-06T14:11:37.464Z</time></trkpt><trkpt lat="45.7479496" lon="11.7265273"><ele>107.0</ele><time>2026-04-06T14:11:38.462Z</time></trkpt><trkpt lat="45.7478756" lon="11.7265754"><ele>106.99999999999999</ele><time>2026-04-06T14:11:39.467Z</time></trkpt><trkpt lat="45.7477949" lon="11.7266119"><ele>106.99999999999999</ele><time>2026-04-06T14:11:40.458Z</time></trkpt><trkpt lat="45.7477096" lon="11.7266537"><ele>107.0</ele><time>2026-04-06T14:11:41.467Z</time></trkpt><trkpt lat="45.7476185" lon="11.7267265"><ele>107.0</ele><time>2026-04-06T14:11:42.463Z</time></trkpt><trkpt lat="45.7475189" lon="11.72683"><ele>106.33333333333333</ele><time>2026-04-06T14:11:43.462Z</time></trkpt><trkpt lat="45.7473944" lon="11.7269633"><ele>105.66666666666666</ele><time>2026-04-06T14:11:44.458Z</time></trkpt><trkpt lat="45.7472482" lon="11.7270874"><ele>105.0</ele><time>2026-04-06T14:11:45.463Z</time></trkpt><trkpt lat="45.7470895" lon="11.7272051"><ele>105.0</ele><time>2026-04-06T14:11:46.459Z</time></trkpt><trkpt lat="45.7469156" lon="11.7273329"><ele>105.0</ele><time>2026-04-06T14:11:47.468Z</time></trkpt><trkpt lat="45.7467344" lon="11.7274726"><ele>105.0</ele><time>2026-04-06T14:11:48.459Z</time></trkpt><trkpt lat="45.7465483" lon="11.7276132"><ele>105.0</ele><time>2026-04-06T14:11:49.465Z</time></trkpt><trkpt lat="45.7463558" lon="11.7277589"><ele>105.0</ele><time>2026-04-06T14:11:50.461Z</time></trkpt><trkpt lat="45.7461635" lon="11.7279076"><ele>105.0</ele><time>2026-04-06T14:11:51.464Z</time></trkpt><trkpt lat="45.7459735" lon="11.728066"><ele>104.66666666666666</ele><time>2026-04-06T14:11:52.49Z</time></trkpt><trkpt lat="45.7457854" lon="11.7282341"><ele>104.33333333333333</ele><time>2026-04-06T14:11:53.464Z</time></trkpt><trkpt lat="45.7456024" lon="11.7284065"><ele>104.0</ele><time>2026-04-06T14:11:54.461Z</time></trkpt><trkpt lat="45.7454261" lon="11.7285725"><ele>104.0</ele><time>2026-04-06T14:11:55.47Z</time></trkpt><trkpt lat="45.7452599" lon="11.728727"><ele>104.0</ele><time>2026-04-06T14:11:56.461Z</time></trkpt><trkpt lat="45.7450986" lon="11.7288787"><ele>104.0</ele><time>2026-04-06T14:11:57.461Z</time></trkpt><trkpt lat="45.7449341" lon="11.7290376"><ele>104.0</ele><time>2026-04-06T14:11:58.462Z</time></trkpt><trkpt lat="45.7447689" lon="11.7291978"><ele>104.0</ele><time>2026-04-06T14:11:59.462Z</time></trkpt><trkpt lat="45.7446075" lon="11.7293531"><ele>104.0</ele><time>2026-04-06T14:12:00.459Z</time></trkpt><trkpt lat="45.7444559" lon="11.7294966"><ele>103.33333333333333</ele><time>2026-04-06T14:12:01.468Z</time></trkpt><trkpt lat="45.7443098" lon="11.7296259"><ele>102.66666666666666</ele><time>2026-04-06T14:12:02.46Z</time></trkpt><trkpt lat="45.7441658" lon="11.7297365"><ele>102.0</ele><time>2026-04-06T14:12:03.464Z</time></trkpt><trkpt lat="45.7440279" lon="11.7298266"><ele>102.0</ele><time>2026-04-06T14:12:04.465Z</time></trkpt><trkpt lat="45.7439023" lon="11.7298988"><ele>102.0</ele><time>2026-04-06T14:12:05.467Z</time></trkpt><trkpt lat="45.7437919" lon="11.7299583"><ele>102.0</ele><time>2026-04-06T14:12:06.469Z</time></trkpt><trkpt lat="45.7437026" lon="11.730002"><ele>102.0</ele><time>2026-04-06T14:12:07.472Z</time></trkpt><trkpt lat="45.7436248" lon="11.7300348"><ele>102.0</ele><time>2026-04-06T14:12:08.465Z</time></trkpt><trkpt lat="45.7435534" lon="11.7300494"><ele>101.83333333333333</ele><time>2026-04-06T14:12:09.466Z</time></trkpt><trkpt lat="45.743479" lon="11.7300407"><ele>101.66666666666666</ele><time>2026-04-06T14:12:10.463Z</time></trkpt><trkpt lat="45.7434142" lon="11.7300114"><ele>101.5</ele><time>2026-04-06T14:12:11.466Z</time></trkpt><trkpt lat="45.7433485" lon="11.7299841"><ele>101.33333333333333</ele><time>2026-04-06T14:12:12.47Z</time></trkpt><trkpt lat="45.743222" lon="11.7300191"><ele>101.16666666666666</ele><time>2026-04-06T14:12:14.468Z</time></trkpt><trkpt lat="45.7431454" lon="11.7300845"><ele>101.0</ele><time>2026-04-06T14:12:15.465Z</time></trkpt><trkpt lat="45.7430388" lon="11.7301426"><ele>101.0</ele><time>2026-04-06T14:12:16.461Z</time></trkpt><trkpt lat="45.7428977" lon="11.7301802"><ele>101.0</ele><time>2026-04-06T14:12:17.46Z</time></trkpt><trkpt lat="45.7427312" lon="11.730209"><ele>101.0</ele><time>2026-04-06T14:12:18.466Z</time></trkpt><trkpt lat="45.742551" lon="11.730241"><ele>101.0</ele><time>2026-04-06T14:12:19.466Z</time></trkpt><trkpt lat="45.7423575" lon="11.7302697"><ele>101.0</ele><time>2026-04-06T14:12:20.463Z</time></trkpt><trkpt lat="45.7421495" lon="11.7303108"><ele>101.0</ele><time>2026-04-06T14:12:21.466Z</time></trkpt><trkpt lat="45.7419487" lon="11.7303501"><ele>101.33333333333333</ele><time>2026-04-06T14:12:22.462Z</time></trkpt><trkpt lat="45.7417533" lon="11.7303847"><ele>101.66666666666666</ele><time>2026-04-06T14:12:23.472Z</time></trkpt><trkpt lat="45.741571" lon="11.7304128"><ele>102.0</ele><time>2026-04-06T14:12:24.466Z</time></trkpt><trkpt lat="45.7414023" lon="11.7304281"><ele>102.0</ele><time>2026-04-06T14:12:25.51Z</time></trkpt><trkpt lat="45.741239" lon="11.7304298"><ele>102.0</ele><time>2026-04-06T14:12:26.467Z</time></trkpt><trkpt lat="45.7410874" lon="11.7304166"><ele>102.0</ele><time>2026-04-06T14:12:27.47Z</time></trkpt><trkpt lat="45.7409549" lon="11.7303916"><ele>102.0</ele><time>2026-04-06T14:12:28.463Z</time></trkpt><trkpt lat="45.7408414" lon="11.7303535"><ele>101.8</ele><time>2026-04-06T14:12:29.467Z</time></trkpt><trkpt lat="45.7407381" lon="11.7303043"><ele>101.6</ele><time>2026-04-06T14:12:30.466Z</time></trkpt><trkpt lat="45.7406454" lon="11.7302367"><ele>101.39999999999999</ele><time>2026-04-06T14:12:31.473Z</time></trkpt><trkpt lat="45.7405705" lon="11.730154"><ele>101.19999999999999</ele><time>2026-04-06T14:12:32.466Z</time></trkpt><trkpt lat="45.7405019" lon="11.7300754"><ele>101.0</ele><time>2026-04-06T14:12:33.471Z</time></trkpt><trkpt lat="45.7404224" lon="11.7300343"><ele>100.83333333333333</ele><time>2026-04-06T14:12:34.465Z</time></trkpt><trkpt lat="45.7403382" lon="11.7300405"><ele>100.66666666666666</ele><time>2026-04-06T14:12:35.474Z</time></trkpt><trkpt lat="45.7402638" lon="11.730097"><ele>100.5</ele><time>2026-04-06T14:12:36.473Z</time></trkpt><trkpt lat="45.7402097" lon="11.7301916"><ele>100.33333333333334</ele><time>2026-04-06T14:12:37.463Z</time></trkpt><trkpt lat="45.7401692" lon="11.7302825"><ele>100.16666666666667</ele><time>2026-04-06T14:12:38.465Z</time></trkpt><trkpt lat="45.7401682" lon="11.7303879"><ele>100.0</ele><time>2026-04-06T14:12:39.486Z</time></trkpt><trkpt lat="45.7401511" lon="11.7305636"><ele>100.33333333333334</ele><time>2026-04-06T14:12:41.476Z</time></trkpt><trkpt lat="45.7401203" lon="11.7306547"><ele>100.66666666666667</ele><time>2026-04-06T14:12:42.475Z</time></trkpt><trkpt lat="45.7400792" lon="11.730739"><ele>101.0</ele><time>2026-04-06T14:12:43.473Z</time></trkpt><trkpt lat="45.7400226" lon="11.7308032"><ele>101.33333333333334</ele><time>2026-04-06T14:12:44.466Z</time></trkpt><trkpt lat="45.7399518" lon="11.730852"><ele>101.66666666666667</ele><time>2026-04-06T14:12:45.48Z</time></trkpt><trkpt lat="45.7398722" lon="11.7308868"><ele>102.0</ele><time>2026-04-06T14:12:46.466Z</time></trkpt><trkpt lat="45.7397859" lon="11.7309203"><ele>102.0</ele><time>2026-04-06T14:12:47.479Z</time></trkpt><trkpt lat="45.739691" lon="11.7309576"><ele>102.0</ele><time>2026-04-06T14:12:48.48Z</time></trkpt><trkpt lat="45.7395943" lon="11.7309939"><ele>102.0</ele><time>2026-04-06T14:12:49.464Z</time></trkpt><trkpt lat="45.7394987" lon="11.7310317"><ele>102.0</ele><time>2026-04-06T14:12:50.468Z</time></trkpt><trkpt lat="45.7394076" lon="11.7310671"><ele>102.0</ele><time>2026-04-06T14:12:51.471Z</time></trkpt><trkpt lat="45.7393141" lon="11.731103"><ele>100.8</ele><time>2026-04-06T14:12:52.471Z</time></trkpt><trkpt lat="45.739217" lon="11.7311373"><ele>99.6</ele><time>2026-04-06T14:12:53.472Z</time></trkpt><trkpt lat="45.7391186" lon="11.7311673"><ele>98.39999999999999</ele><time>2026-04-06T14:12:54.462Z</time></trkpt><trkpt lat="45.7390217" lon="11.7311935"><ele>97.19999999999999</ele><time>2026-04-06T14:12:55.471Z</time></trkpt><trkpt lat="45.7389342" lon="11.7312144"><ele>96.0</ele><time>2026-04-06T14:12:56.462Z</time></trkpt><trkpt lat="45.7388576" lon="11.7312308"><ele>96.0</ele><time>2026-04-06T14:12:57.465Z</time></trkpt><trkpt lat="45.7387764" lon="11.7312423"><ele>96.0</ele><time>2026-04-06T14:12:58.472Z</time></trkpt><trkpt lat="45.7386907" lon="11.7312403"><ele>96.0</ele><time>2026-04-06T14:12:59.474Z</time></trkpt><trkpt lat="45.7386072" lon="11.7312091"><ele>96.0</ele><time>2026-04-06T14:13:00.461Z</time></trkpt><trkpt lat="45.7385228" lon="11.7311629"><ele>96.0</ele><time>2026-04-06T14:13:01.46Z</time></trkpt><trkpt lat="45.7384375" lon="11.7311157"><ele>96.0</ele><time>2026-04-06T14:13:02.474Z</time></trkpt><trkpt lat="45.7383527" lon="11.7310798"><ele>96.8</ele><time>2026-04-06T14:13:03.481Z</time></trkpt><trkpt lat="45.738256" lon="11.7310607"><ele>97.6</ele><time>2026-04-06T14:13:04.472Z</time></trkpt><trkpt lat="45.7381462" lon="11.731065"><ele>98.4</ele><time>2026-04-06T14:13:05.469Z</time></trkpt><trkpt lat="45.738034" lon="11.7311021"><ele>99.2</ele><time>2026-04-06T14:13:06.462Z</time></trkpt><trkpt lat="45.737922" lon="11.7311629"><ele>100.0</ele><time>2026-04-06T14:13:07.461Z</time></trkpt><trkpt lat="45.7377958" lon="11.7312069"><ele>100.0</ele><time>2026-04-06T14:13:08.466Z</time></trkpt><trkpt lat="45.7376608" lon="11.7312041"><ele>100.0</ele><time>2026-04-06T14:13:09.485Z</time></trkpt><trkpt lat="45.7375066" lon="11.7311822"><ele>100.0</ele><time>2026-04-06T14:13:10.469Z</time></trkpt><trkpt lat="45.7373291" lon="11.7311897"><ele>100.0</ele><time>2026-04-06T14:13:11.473Z</time></trkpt><trkpt lat="45.7371605" lon="11.73124"><ele>100.0</ele><time>2026-04-06T14:13:12.462Z</time></trkpt><trkpt lat="45.737009" lon="11.7313245"><ele>100.0</ele><time>2026-04-06T14:13:13.472Z</time></trkpt><trkpt lat="45.7368795" lon="11.7314311"><ele>99.5</ele><time>2026-04-06T14:13:14.46Z</time></trkpt><trkpt lat="45.7367658" lon="11.731541"><ele>99.0</ele><time>2026-04-06T14:13:15.477Z</time></trkpt><trkpt lat="45.7366512" lon="11.7316322"><ele>98.5</ele><time>2026-04-06T14:13:16.462Z</time></trkpt><trkpt lat="45.7365176" lon="11.731699"><ele>98.0</ele><time>2026-04-06T14:13:17.465Z</time></trkpt><trkpt lat="45.7363683" lon="11.7317491"><ele>98.0</ele><time>2026-04-06T14:13:18.469Z</time></trkpt><trkpt lat="45.7361934" lon="11.731813"><ele>98.0</ele><time>2026-04-06T14:13:19.469Z</time></trkpt><trkpt lat="45.7360118" lon="11.7318943"><ele>98.0</ele><time>2026-04-06T14:13:20.469Z</time></trkpt><trkpt lat="45.7358349" lon="11.7319799"><ele>98.66666666666666</ele><time>2026-04-06T14:13:21.47Z</time></trkpt><trkpt lat="45.7356615" lon="11.7320651"><ele>99.33333333333334</ele><time>2026-04-06T14:13:22.466Z</time></trkpt><trkpt lat="45.7354815" lon="11.7321556"><ele>100.0</ele><time>2026-04-06T14:13:23.47Z</time></trkpt><trkpt lat="45.7353039" lon="11.7322784"><ele>100.0</ele><time>2026-04-06T14:13:24.473Z</time></trkpt><trkpt lat="45.7351401" lon="11.7324224"><ele>100.0</ele><time>2026-04-06T14:13:25.473Z</time></trkpt><trkpt lat="45.7349729" lon="11.7325677"><ele>100.0</ele><time>2026-04-06T14:13:26.484Z</time></trkpt><trkpt lat="45.7347982" lon="11.7326981"><ele>100.33333333333334</ele><time>2026-04-06T14:13:27.471Z</time></trkpt><trkpt lat="45.7346146" lon="11.7328061"><ele>100.66666666666666</ele><time>2026-04-06T14:13:28.464Z</time></trkpt><trkpt lat="45.7344243" lon="11.7328961"><ele>101.0</ele><time>2026-04-06T14:13:29.472Z</time></trkpt><trkpt lat="45.7342321" lon="11.7329697"><ele>101.33333333333333</ele><time>2026-04-06T14:13:30.475Z</time></trkpt><trkpt lat="45.7340345" lon="11.7330364"><ele>101.66666666666666</ele><time>2026-04-06T14:13:31.466Z</time></trkpt><trkpt lat="45.733847" lon="11.7330918"><ele>102.0</ele><time>2026-04-06T14:13:32.474Z</time></trkpt><trkpt lat="45.7336713" lon="11.7331357"><ele>101.0</ele><time>2026-04-06T14:13:33.461Z</time></trkpt><trkpt lat="45.7335101" lon="11.7331718"><ele>100.0</ele><time>2026-04-06T14:13:34.462Z</time></trkpt><trkpt lat="45.7333607" lon="11.7332026"><ele>99.0</ele><time>2026-04-06T14:13:35.468Z</time></trkpt><trkpt lat="45.7332294" lon="11.7332257"><ele>98.0</ele><time>2026-04-06T14:13:36.462Z</time></trkpt><trkpt lat="45.7331115" lon="11.7332239"><ele>98.0</ele><time>2026-04-06T14:13:37.464Z</time></trkpt><trkpt lat="45.7329984" lon="11.7331968"><ele>98.0</ele><time>2026-04-06T14:13:38.46Z</time></trkpt><trkpt lat="45.732888" lon="11.7331844"><ele>98.0</ele><time>2026-04-06T14:13:39.472Z</time></trkpt><trkpt lat="45.7327771" lon="11.7332177"><ele>98.0</ele><time>2026-04-06T14:13:40.462Z</time></trkpt><trkpt lat="45.7326537" lon="11.7332783"><ele>98.0</ele><time>2026-04-06T14:13:41.461Z</time></trkpt><trkpt lat="45.7325153" lon="11.7333542"><ele>98.0</ele><time>2026-04-06T14:13:42.468Z</time></trkpt><trkpt lat="45.7323527" lon="11.7334012"><ele>98.0</ele><time>2026-04-06T14:13:43.464Z</time></trkpt><trkpt lat="45.7321845" lon="11.7334412"><ele>98.0</ele><time>2026-04-06T14:13:44.474Z</time></trkpt><trkpt lat="45.7320119" lon="11.7334744"><ele>98.0</ele><time>2026-04-06T14:13:45.472Z</time></trkpt><trkpt lat="45.7318318" lon="11.733513"><ele>98.0</ele><time>2026-04-06T14:13:46.463Z</time></trkpt><trkpt lat="45.7316513" lon="11.7335415"><ele>98.0</ele><time>2026-04-06T14:13:47.46Z</time></trkpt><trkpt lat="45.7314702" lon="11.7335554"><ele>98.0</ele><time>2026-04-06T14:13:48.471Z</time></trkpt><trkpt lat="45.7312827" lon="11.7335579"><ele>98.0</ele><time>2026-04-06T14:13:49.47Z</time></trkpt><trkpt lat="45.7310922" lon="11.7335548"><ele>97.66666666666666</ele><time>2026-04-06T14:13:50.465Z</time></trkpt><trkpt lat="45.7308933" lon="11.7335502"><ele>97.33333333333334</ele><time>2026-04-06T14:13:51.478Z</time></trkpt><trkpt lat="45.730702" lon="11.7335458"><ele>97.0</ele><time>2026-04-06T14:13:52.475Z</time></trkpt><trkpt lat="45.7305164" lon="11.7335407"><ele>97.0</ele><time>2026-04-06T14:13:53.476Z</time></trkpt><trkpt lat="45.7303432" lon="11.7335362"><ele>97.0</ele><time>2026-04-06T14:13:54.48Z</time></trkpt><trkpt lat="45.7301807" lon="11.7335346"><ele>97.0</ele><time>2026-04-06T14:13:55.466Z</time></trkpt><trkpt lat="45.7300286" lon="11.7335429"><ele>97.0</ele><time>2026-04-06T14:13:56.478Z</time></trkpt><trkpt lat="45.7298869" lon="11.7335661"><ele>97.0</ele><time>2026-04-06T14:13:57.474Z</time></trkpt><trkpt lat="45.7297455" lon="11.7336068"><ele>97.0</ele><time>2026-04-06T14:13:58.477Z</time></trkpt><trkpt lat="45.7296042" lon="11.7336622"><ele>97.0</ele><time>2026-04-06T14:13:59.463Z</time></trkpt><trkpt lat="45.7294633" lon="11.7337247"><ele>96.75</ele><time>2026-04-06T14:14:00.458Z</time></trkpt><trkpt lat="45.7293232" lon="11.7337888"><ele>96.5</ele><time>2026-04-06T14:14:01.462Z</time></trkpt><trkpt lat="45.7291847" lon="11.7338534"><ele>96.25</ele><time>2026-04-06T14:14:02.457Z</time></trkpt><trkpt lat="45.7290461" lon="11.7339174"><ele>96.0</ele><time>2026-04-06T14:14:03.464Z</time></trkpt><trkpt lat="45.7289087" lon="11.7339814"><ele>96.0</ele><time>2026-04-06T14:14:04.457Z</time></trkpt><trkpt lat="45.7287712" lon="11.7340466"><ele>96.0</ele><time>2026-04-06T14:14:05.46Z</time></trkpt><trkpt lat="45.7286364" lon="11.7341131"><ele>96.0</ele><time>2026-04-06T14:14:06.462Z</time></trkpt><trkpt lat="45.7285048" lon="11.7341695"><ele>96.0</ele><time>2026-04-06T14:14:07.466Z</time></trkpt><trkpt lat="45.7283823" lon="11.7342151"><ele>96.0</ele><time>2026-04-06T14:14:08.455Z</time></trkpt><trkpt lat="45.7282448" lon="11.7342336"><ele>96.0</ele><time>2026-04-06T14:14:09.465Z</time></trkpt><trkpt lat="45.728121" lon="11.7342402"><ele>96.0</ele><time>2026-04-06T14:14:10.467Z</time></trkpt><trkpt lat="45.7280033" lon="11.7342416"><ele>96.0</ele><time>2026-04-06T14:14:11.468Z</time></trkpt><trkpt lat="45.7278913" lon="11.7342494"><ele>96.0</ele><time>2026-04-06T14:14:12.458Z</time></trkpt><trkpt lat="45.7277815" lon="11.7342555"><ele>96.0</ele><time>2026-04-06T14:14:13.464Z</time></trkpt><trkpt lat="45.7276691" lon="11.7342602"><ele>96.0</ele><time>2026-04-06T14:14:14.464Z</time></trkpt><trkpt lat="45.727563" lon="11.7342649"><ele>96.0</ele><time>2026-04-06T14:14:15.464Z</time></trkpt><trkpt lat="45.7274546" lon="11.7342706"><ele>96.0</ele><time>2026-04-06T14:14:16.461Z</time></trkpt><trkpt lat="45.7273474" lon="11.734274"><ele>96.19999999999999</ele><time>2026-04-06T14:14:17.466Z</time></trkpt><trkpt lat="45.7272491" lon="11.7342699"><ele>96.39999999999999</ele><time>2026-04-06T14:14:18.461Z</time></trkpt><trkpt lat="45.7271611" lon="11.7342532"><ele>96.6</ele><time>2026-04-06T14:14:19.466Z</time></trkpt><trkpt lat="45.727078" lon="11.7342112"><ele>96.8</ele><time>2026-04-06T14:14:20.464Z</time></trkpt><trkpt lat="45.7270002" lon="11.7341536"><ele>97.0</ele><time>2026-04-06T14:14:21.467Z</time></trkpt><trkpt lat="45.7269453" lon="11.7340519"><ele>97.0</ele><time>2026-04-06T14:14:22.456Z</time></trkpt><trkpt lat="45.726894" lon="11.733933"><ele>97.0</ele><time>2026-04-06T14:14:23.463Z</time></trkpt><trkpt lat="45.7268318" lon="11.7338267"><ele>97.0</ele><time>2026-04-06T14:14:24.464Z</time></trkpt><trkpt lat="45.7267495" lon="11.7337432"><ele>97.0</ele><time>2026-04-06T14:14:25.463Z</time></trkpt><trkpt lat="45.7266538" lon="11.7336868"><ele>97.0</ele><time>2026-04-06T14:14:26.458Z</time></trkpt><trkpt lat="45.7265545" lon="11.7336498"><ele>97.0</ele><time>2026-04-06T14:14:27.469Z</time></trkpt><trkpt lat="45.7264521" lon="11.7336089"><ele>97.0</ele><time>2026-04-06T14:14:28.459Z</time></trkpt><trkpt lat="45.7263437" lon="11.7335767"><ele>97.0</ele><time>2026-04-06T14:14:29.461Z</time></trkpt><trkpt lat="45.7262331" lon="11.7335394"><ele>97.0</ele><time>2026-04-06T14:14:30.459Z</time></trkpt><trkpt lat="45.7261236" lon="11.7335044"><ele>97.0</ele><time>2026-04-06T14:14:31.471Z</time></trkpt><trkpt lat="45.72601" lon="11.7334758"><ele>96.0</ele><time>2026-04-06T14:14:32.465Z</time></trkpt><trkpt lat="45.7258899" lon="11.7334409"><ele>95.0</ele><time>2026-04-06T14:14:33.468Z</time></trkpt><trkpt lat="45.7257625" lon="11.7334062"><ele>94.0</ele><time>2026-04-06T14:14:34.455Z</time></trkpt><trkpt lat="45.7256311" lon="11.7333651"><ele>93.0</ele><time>2026-04-06T14:14:35.467Z</time></trkpt><trkpt lat="45.7254945" lon="11.7333249"><ele>93.0</ele><time>2026-04-06T14:14:36.465Z</time></trkpt><trkpt lat="45.7253507" lon="11.7332836"><ele>93.0</ele><time>2026-04-06T14:14:37.464Z</time></trkpt><trkpt lat="45.7252" lon="11.7332398"><ele>93.0</ele><time>2026-04-06T14:14:38.467Z</time></trkpt><trkpt lat="45.7250457" lon="11.7331966"><ele>94.0</ele><time>2026-04-06T14:14:39.466Z</time></trkpt><trkpt lat="45.7248881" lon="11.7331511"><ele>95.0</ele><time>2026-04-06T14:14:40.463Z</time></trkpt><trkpt lat="45.7247263" lon="11.7331048"><ele>96.0</ele><time>2026-04-06T14:14:41.468Z</time></trkpt><trkpt lat="45.7245622" lon="11.7330605"><ele>96.0</ele><time>2026-04-06T14:14:42.457Z</time></trkpt><trkpt lat="45.7243974" lon="11.7330297"><ele>96.0</ele><time>2026-04-06T14:14:43.466Z</time></trkpt><trkpt lat="45.7242333" lon="11.7330243"><ele>96.0</ele><time>2026-04-06T14:14:44.485Z</time></trkpt><trkpt lat="45.7240636" lon="11.7330305"><ele>95.33333333333333</ele><time>2026-04-06T14:14:45.465Z</time></trkpt><trkpt lat="45.7238947" lon="11.7330493"><ele>94.66666666666666</ele><time>2026-04-06T14:14:46.459Z</time></trkpt><trkpt lat="45.7237238" lon="11.7330749"><ele>94.0</ele><time>2026-04-06T14:14:47.462Z</time></trkpt><trkpt lat="45.7235557" lon="11.7330973"><ele>94.0</ele><time>2026-04-06T14:14:48.458Z</time></trkpt><trkpt lat="45.7233871" lon="11.733123"><ele>94.0</ele><time>2026-04-06T14:14:49.462Z</time></trkpt><trkpt lat="45.7232143" lon="11.7331528"><ele>94.0</ele><time>2026-04-06T14:14:50.465Z</time></trkpt><trkpt lat="45.7230436" lon="11.7331825"><ele>94.0</ele><time>2026-04-06T14:14:51.464Z</time></trkpt><trkpt lat="45.722885" lon="11.7332027"><ele>94.0</ele><time>2026-04-06T14:14:52.46Z</time></trkpt><trkpt lat="45.7227289" lon="11.733222"><ele>94.0</ele><time>2026-04-06T14:14:53.462Z</time></trkpt><trkpt lat="45.7225777" lon="11.7332312"><ele>93.5</ele><time>2026-04-06T14:14:54.468Z</time></trkpt><trkpt lat="45.7224329" lon="11.7332333"><ele>93.0</ele><time>2026-04-06T14:14:55.462Z</time></trkpt><trkpt lat="45.7222974" lon="11.7332327"><ele>92.5</ele><time>2026-04-06T14:14:56.465Z</time></trkpt><trkpt lat="45.722166" lon="11.7332326"><ele>92.0</ele><time>2026-04-06T14:14:57.461Z</time></trkpt><trkpt lat="45.7220398" lon="11.7332316"><ele>92.0</ele><time>2026-04-06T14:14:58.465Z</time></trkpt><trkpt lat="45.7219137" lon="11.7332305"><ele>92.0</ele><time>2026-04-06T14:14:59.46Z</time></trkpt><trkpt lat="45.7217887" lon="11.7332298"><ele>92.0</ele><time>2026-04-06T14:15:00.463Z</time></trkpt><trkpt lat="45.7216646" lon="11.7332283"><ele>92.0</ele><time>2026-04-06T14:15:01.461Z</time></trkpt><trkpt lat="45.7215527" lon="11.7332232"><ele>91.66666666666667</ele><time>2026-04-06T14:15:02.46Z</time></trkpt><trkpt lat="45.7214563" lon="11.7332134"><ele>91.33333333333334</ele><time>2026-04-06T14:15:03.465Z</time></trkpt><trkpt lat="45.7213732" lon="11.7331927"><ele>91.0</ele><time>2026-04-06T14:15:04.464Z</time></trkpt><trkpt lat="45.7213032" lon="11.7331664"><ele>90.66666666666667</ele><time>2026-04-06T14:15:05.461Z</time></trkpt><trkpt lat="45.7212429" lon="11.7331359"><ele>90.33333333333333</ele><time>2026-04-06T14:15:06.474Z</time></trkpt><trkpt lat="45.7211861" lon="11.7330915"><ele>90.0</ele><time>2026-04-06T14:15:07.475Z</time></trkpt><trkpt lat="45.72114" lon="11.7330185"><ele>90.0</ele><time>2026-04-06T14:15:08.472Z</time></trkpt><trkpt lat="45.7210996" lon="11.7329349"><ele>90.0</ele><time>2026-04-06T14:15:09.472Z</time></trkpt><trkpt lat="45.7210495" lon="11.732872"><ele>90.0</ele><time>2026-04-06T14:15:10.465Z</time></trkpt><trkpt lat="45.7209267" lon="11.732864"><ele>90.0</ele><time>2026-04-06T14:15:12.462Z</time></trkpt><trkpt lat="45.7208665" lon="11.7329087"><ele>90.0</ele><time>2026-04-06T14:15:13.467Z</time></trkpt><trkpt lat="45.7207983" lon="11.7329572"><ele>90.0</ele><time>2026-04-06T14:15:14.466Z</time></trkpt><trkpt lat="45.7207117" lon="11.7329796"><ele>90.75</ele><time>2026-04-06T14:15:15.469Z</time></trkpt><trkpt lat="45.7206088" lon="11.7329779"><ele>91.5</ele><time>2026-04-06T14:15:16.469Z</time></trkpt><trkpt lat="45.7204949" lon="11.7329632"><ele>92.25</ele><time>2026-04-06T14:15:17.474Z</time></trkpt><trkpt lat="45.7203684" lon="11.7329442"><ele>93.0</ele><time>2026-04-06T14:15:18.472Z</time></trkpt><trkpt lat="45.7202383" lon="11.732926"><ele>93.0</ele><time>2026-04-06T14:15:19.469Z</time></trkpt><trkpt lat="45.7201055" lon="11.7329088"><ele>93.0</ele><time>2026-04-06T14:15:20.471Z</time></trkpt><trkpt lat="45.7199714" lon="11.7328899"><ele>93.0</ele><time>2026-04-06T14:15:21.467Z</time></trkpt><trkpt lat="45.7198365" lon="11.7328715"><ele>93.0</ele><time>2026-04-06T14:15:22.467Z</time></trkpt><trkpt lat="45.7197016" lon="11.7328541"><ele>93.0</ele><time>2026-04-06T14:15:23.468Z</time></trkpt><trkpt lat="45.7195621" lon="11.7328351"><ele>93.0</ele><time>2026-04-06T14:15:24.467Z</time></trkpt><trkpt lat="45.7194213" lon="11.7328157"><ele>93.0</ele><time>2026-04-06T14:15:25.459Z</time></trkpt><trkpt lat="45.7192789" lon="11.7327949"><ele>93.0</ele><time>2026-04-06T14:15:26.463Z</time></trkpt><trkpt lat="45.7191375" lon="11.7327741"><ele>92.5</ele><time>2026-04-06T14:15:27.47Z</time></trkpt><trkpt lat="45.718996" lon="11.7327544"><ele>92.0</ele><time>2026-04-06T14:15:28.472Z</time></trkpt><trkpt lat="45.7188536" lon="11.7327356"><ele>91.5</ele><time>2026-04-06T14:15:29.474Z</time></trkpt><trkpt lat="45.7187106" lon="11.7327178"><ele>91.0</ele><time>2026-04-06T14:15:30.485Z</time></trkpt><trkpt lat="45.7185659" lon="11.7327012"><ele>90.66666666666666</ele><time>2026-04-06T14:15:31.476Z</time></trkpt><trkpt lat="45.7184194" lon="11.7326869"><ele>90.33333333333333</ele><time>2026-04-06T14:15:32.463Z</time></trkpt><trkpt lat="45.7182691" lon="11.7326768"><ele>90.0</ele><time>2026-04-06T14:15:33.476Z</time></trkpt><trkpt lat="45.7181139" lon="11.7326741"><ele>90.0</ele><time>2026-04-06T14:15:34.46Z</time></trkpt><trkpt lat="45.7179554" lon="11.7326776"><ele>90.0</ele><time>2026-04-06T14:15:35.462Z</time></trkpt><trkpt lat="45.7177936" lon="11.7326789"><ele>90.0</ele><time>2026-04-06T14:15:36.461Z</time></trkpt><trkpt lat="45.7176305" lon="11.7326752"><ele>90.0</ele><time>2026-04-06T14:15:37.464Z</time></trkpt><trkpt lat="45.7174667" lon="11.7326658"><ele>90.0</ele><time>2026-04-06T14:15:38.462Z</time></trkpt><trkpt lat="45.7173018" lon="11.7326468"><ele>90.0</ele><time>2026-04-06T14:15:39.461Z</time></trkpt><trkpt lat="45.7171349" lon="11.7326191"><ele>90.0</ele><time>2026-04-06T14:15:40.457Z</time></trkpt><trkpt lat="45.7169651" lon="11.7325837"><ele>90.0</ele><time>2026-04-06T14:15:41.464Z</time></trkpt><trkpt lat="45.7167891" lon="11.7325397"><ele>90.0</ele><time>2026-04-06T14:15:42.461Z</time></trkpt><trkpt lat="45.716612" lon="11.732491"><ele>89.66666666666667</ele><time>2026-04-06T14:15:43.463Z</time></trkpt><trkpt lat="45.7164363" lon="11.7324411"><ele>89.33333333333334</ele><time>2026-04-06T14:15:44.459Z</time></trkpt><trkpt lat="45.7162625" lon="11.7323876"><ele>89.0</ele><time>2026-04-06T14:15:45.46Z</time></trkpt><trkpt lat="45.7160895" lon="11.7323343"><ele>89.33333333333334</ele><time>2026-04-06T14:15:46.464Z</time></trkpt><trkpt lat="45.7159187" lon="11.7322829"><ele>89.66666666666667</ele><time>2026-04-06T14:15:47.466Z</time></trkpt><trkpt lat="45.7157495" lon="11.7322309"><ele>90.0</ele><time>2026-04-06T14:15:48.463Z</time></trkpt><trkpt lat="45.715581" lon="11.7321815"><ele>90.0</ele><time>2026-04-06T14:15:49.467Z</time></trkpt><trkpt lat="45.7154125" lon="11.7321359"><ele>90.0</ele><time>2026-04-06T14:15:50.461Z</time></trkpt><trkpt lat="45.7152436" lon="11.7320905"><ele>90.0</ele><time>2026-04-06T14:15:51.471Z</time></trkpt><trkpt lat="45.7150735" lon="11.7320434"><ele>89.33333333333333</ele><time>2026-04-06T14:15:52.469Z</time></trkpt><trkpt lat="45.7149019" lon="11.7319932"><ele>88.66666666666666</ele><time>2026-04-06T14:15:53.471Z</time></trkpt><trkpt lat="45.7147283" lon="11.7319399"><ele>88.0</ele><time>2026-04-06T14:15:54.462Z</time></trkpt><trkpt lat="45.7145536" lon="11.7318863"><ele>87.66666666666666</ele><time>2026-04-06T14:15:55.472Z</time></trkpt><trkpt lat="45.7143768" lon="11.7318339"><ele>87.33333333333333</ele><time>2026-04-06T14:15:56.465Z</time></trkpt><trkpt lat="45.7141988" lon="11.7317814"><ele>87.0</ele><time>2026-04-06T14:15:57.472Z</time></trkpt><trkpt lat="45.7140199" lon="11.7317293"><ele>87.0</ele><time>2026-04-06T14:15:58.461Z</time></trkpt><trkpt lat="45.7138399" lon="11.7316821"><ele>87.0</ele><time>2026-04-06T14:15:59.463Z</time></trkpt><trkpt lat="45.7136593" lon="11.7316414"><ele>87.0</ele><time>2026-04-06T14:16:00.461Z</time></trkpt><trkpt lat="45.7134781" lon="11.7316032"><ele>87.33333333333333</ele><time>2026-04-06T14:16:01.473Z</time></trkpt><trkpt lat="45.7132971" lon="11.7315656"><ele>87.66666666666666</ele><time>2026-04-06T14:16:02.462Z</time></trkpt><trkpt lat="45.713122" lon="11.7315344"><ele>88.0</ele><time>2026-04-06T14:16:03.47Z</time></trkpt><trkpt lat="45.7129567" lon="11.7315159"><ele>88.0</ele><time>2026-04-06T14:16:04.469Z</time></trkpt><trkpt lat="45.7127908" lon="11.7315103"><ele>88.0</ele><time>2026-04-06T14:16:05.476Z</time></trkpt><trkpt lat="45.712628" lon="11.7315145"><ele>88.0</ele><time>2026-04-06T14:16:06.471Z</time></trkpt><trkpt lat="45.7124672" lon="11.7315234"><ele>87.75</ele><time>2026-04-06T14:16:07.466Z</time></trkpt><trkpt lat="45.7123124" lon="11.7315333"><ele>87.5</ele><time>2026-04-06T14:16:08.459Z</time></trkpt><trkpt lat="45.7121648" lon="11.7315419"><ele>87.25</ele><time>2026-04-06T14:16:09.469Z</time></trkpt><trkpt lat="45.7120226" lon="11.7315508"><ele>87.0</ele><time>2026-04-06T14:16:10.468Z</time></trkpt><trkpt lat="45.7118857" lon="11.7315608"><ele>86.5</ele><time>2026-04-06T14:16:11.464Z</time></trkpt><trkpt lat="45.711749" lon="11.7315716"><ele>86.0</ele><time>2026-04-06T14:16:12.47Z</time></trkpt><trkpt lat="45.7116121" lon="11.7315814"><ele>85.5</ele><time>2026-04-06T14:16:13.465Z</time></trkpt><trkpt lat="45.7114813" lon="11.7315897"><ele>85.0</ele><time>2026-04-06T14:16:14.461Z</time></trkpt><trkpt lat="45.7113528" lon="11.7315981"><ele>85.0</ele><time>2026-04-06T14:16:15.463Z</time></trkpt><trkpt lat="45.7112213" lon="11.7316077"><ele>85.0</ele><time>2026-04-06T14:16:16.462Z</time></trkpt><trkpt lat="45.7110883" lon="11.7316155"><ele>85.0</ele><time>2026-04-06T14:16:17.465Z</time></trkpt><trkpt lat="45.7109484" lon="11.7316333"><ele>85.0</ele><time>2026-04-06T14:16:18.469Z</time></trkpt><trkpt lat="45.7108131" lon="11.7316407"><ele>85.0</ele><time>2026-04-06T14:16:19.461Z</time></trkpt><trkpt lat="45.7106853" lon="11.731648"><ele>85.0</ele><time>2026-04-06T14:16:20.464Z</time></trkpt><trkpt lat="45.710561" lon="11.7316554"><ele>85.0</ele><time>2026-04-06T14:16:21.474Z</time></trkpt><trkpt lat="45.7104348" lon="11.7316614"><ele>85.0</ele><time>2026-04-06T14:16:22.474Z</time></trkpt><trkpt lat="45.7103069" lon="11.7316668"><ele>85.25</ele><time>2026-04-06T14:16:23.471Z</time></trkpt><trkpt lat="45.7101789" lon="11.731677"><ele>85.5</ele><time>2026-04-06T14:16:24.467Z</time></trkpt><trkpt lat="45.7100414" lon="11.7316862"><ele>85.75</ele><time>2026-04-06T14:16:25.48Z</time></trkpt><trkpt lat="45.70991" lon="11.7316879"><ele>86.0</ele><time>2026-04-06T14:16:26.484Z</time></trkpt><trkpt lat="45.7097726" lon="11.7316987"><ele>86.0</ele><time>2026-04-06T14:16:27.466Z</time></trkpt><trkpt lat="45.7096467" lon="11.7317074"><ele>86.0</ele><time>2026-04-06T14:16:28.461Z</time></trkpt><trkpt lat="45.7095184" lon="11.7317192"><ele>86.0</ele><time>2026-04-06T14:16:29.463Z</time></trkpt><trkpt lat="45.7093869" lon="11.7317322"><ele>86.0</ele><time>2026-04-06T14:16:30.463Z</time></trkpt><trkpt lat="45.709254" lon="11.731741"><ele>85.5</ele><time>2026-04-06T14:16:31.476Z</time></trkpt><trkpt lat="45.7091194" lon="11.7317437"><ele>85.0</ele><time>2026-04-06T14:16:32.463Z</time></trkpt><trkpt lat="45.7089813" lon="11.7317511"><ele>84.5</ele><time>2026-04-06T14:16:33.458Z</time></trkpt><trkpt lat="45.7088439" lon="11.7317663"><ele>84.0</ele><time>2026-04-06T14:16:34.466Z</time></trkpt><trkpt lat="45.7087078" lon="11.7317871"><ele>84.0</ele><time>2026-04-06T14:16:35.466Z</time></trkpt><trkpt lat="45.7085727" lon="11.7318073"><ele>84.0</ele><time>2026-04-06T14:16:36.469Z</time></trkpt><trkpt lat="45.708441" lon="11.7318271"><ele>84.0</ele><time>2026-04-06T14:16:37.467Z</time></trkpt><trkpt lat="45.7083134" lon="11.7318376"><ele>84.0</ele><time>2026-04-06T14:16:38.464Z</time></trkpt><trkpt lat="45.7081841" lon="11.7318492"><ele>84.0</ele><time>2026-04-06T14:16:39.458Z</time></trkpt><trkpt lat="45.7080546" lon="11.7318723"><ele>84.0</ele><time>2026-04-06T14:16:40.469Z</time></trkpt><trkpt lat="45.7079273" lon="11.7318966"><ele>84.0</ele><time>2026-04-06T14:16:41.463Z</time></trkpt><trkpt lat="45.7078086" lon="11.731942"><ele>84.0</ele><time>2026-04-06T14:16:42.468Z</time></trkpt><trkpt lat="45.7076963" lon="11.7319984"><ele>83.75</ele><time>2026-04-06T14:16:43.459Z</time></trkpt><trkpt lat="45.7075795" lon="11.7320392"><ele>83.5</ele><time>2026-04-06T14:16:44.469Z</time></trkpt><trkpt lat="45.7074634" lon="11.7320602"><ele>83.25</ele><time>2026-04-06T14:16:45.466Z</time></trkpt><trkpt lat="45.7073461" lon="11.7320754"><ele>83.0</ele><time>2026-04-06T14:16:46.466Z</time></trkpt><trkpt lat="45.70723" lon="11.7320963"><ele>83.0</ele><time>2026-04-06T14:16:47.472Z</time></trkpt><trkpt lat="45.7071149" lon="11.7321152"><ele>83.0</ele><time>2026-04-06T14:16:48.469Z</time></trkpt><trkpt lat="45.7070052" lon="11.7321373"><ele>83.0</ele><time>2026-04-06T14:16:49.473Z</time></trkpt><trkpt lat="45.706889" lon="11.7321615"><ele>83.0</ele><time>2026-04-06T14:16:50.465Z</time></trkpt><trkpt lat="45.7067709" lon="11.7321879"><ele>82.75</ele><time>2026-04-06T14:16:51.47Z</time></trkpt><trkpt lat="45.7066458" lon="11.732213"><ele>82.5</ele><time>2026-04-06T14:16:52.477Z</time></trkpt><trkpt lat="45.7065121" lon="11.732243"><ele>82.25</ele><time>2026-04-06T14:16:53.467Z</time></trkpt><trkpt lat="45.7063747" lon="11.7322794"><ele>82.0</ele><time>2026-04-06T14:16:54.464Z</time></trkpt><trkpt lat="45.7062337" lon="11.7323149"><ele>82.0</ele><time>2026-04-06T14:16:55.469Z</time></trkpt><trkpt lat="45.7060946" lon="11.7323373"><ele>82.0</ele><time>2026-04-06T14:16:56.466Z</time></trkpt><trkpt lat="45.7059671" lon="11.7323788"><ele>82.0</ele><time>2026-04-06T14:16:57.463Z</time></trkpt><trkpt lat="45.7058382" lon="11.732415"><ele>82.0</ele><time>2026-04-06T14:16:58.464Z</time></trkpt><trkpt lat="45.7057034" lon="11.7324614"><ele>81.75</ele><time>2026-04-06T14:16:59.465Z</time></trkpt><trkpt lat="45.7055719" lon="11.7324987"><ele>81.5</ele><time>2026-04-06T14:17:00.466Z</time></trkpt><trkpt lat="45.7054361" lon="11.7325434"><ele>81.25</ele><time>2026-04-06T14:17:01.465Z</time></trkpt><trkpt lat="45.7052937" lon="11.7325922"><ele>81.0</ele><time>2026-04-06T14:17:02.464Z</time></trkpt><trkpt lat="45.7051496" lon="11.7326411"><ele>80.66666666666667</ele><time>2026-04-06T14:17:03.468Z</time></trkpt><trkpt lat="45.7050014" lon="11.7326849"><ele>80.33333333333334</ele><time>2026-04-06T14:17:04.464Z</time></trkpt><trkpt lat="45.7048505" lon="11.7327227"><ele>80.0</ele><time>2026-04-06T14:17:05.467Z</time></trkpt><trkpt lat="45.7046968" lon="11.7327539"><ele>80.0</ele><time>2026-04-06T14:17:06.466Z</time></trkpt><trkpt lat="45.7045407" lon="11.7327799"><ele>80.0</ele><time>2026-04-06T14:17:07.464Z</time></trkpt><trkpt lat="45.7043808" lon="11.7328"><ele>80.0</ele><time>2026-04-06T14:17:08.473Z</time></trkpt><trkpt lat="45.7042223" lon="11.7328157"><ele>80.0</ele><time>2026-04-06T14:17:09.485Z</time></trkpt><trkpt lat="45.704065" lon="11.7328321"><ele>80.0</ele><time>2026-04-06T14:17:10.463Z</time></trkpt><trkpt lat="45.7039105" lon="11.7328492"><ele>80.0</ele><time>2026-04-06T14:17:11.459Z</time></trkpt><trkpt lat="45.7037572" lon="11.7328657"><ele>80.0</ele><time>2026-04-06T14:17:12.466Z</time></trkpt><trkpt lat="45.7036048" lon="11.7328834"><ele>80.0</ele><time>2026-04-06T14:17:13.469Z</time></trkpt><trkpt lat="45.7034538" lon="11.7329005"><ele>80.0</ele><time>2026-04-06T14:17:14.461Z</time></trkpt><trkpt lat="45.7033027" lon="11.7329163"><ele>79.66666666666667</ele><time>2026-04-06T14:17:15.47Z</time></trkpt><trkpt lat="45.703152" lon="11.7329309"><ele>79.33333333333333</ele><time>2026-04-06T14:17:16.466Z</time></trkpt><trkpt lat="45.7030014" lon="11.7329436"><ele>79.0</ele><time>2026-04-06T14:17:17.466Z</time></trkpt><trkpt lat="45.7028514" lon="11.7329584"><ele>78.75</ele><time>2026-04-06T14:17:18.467Z</time></trkpt><trkpt lat="45.7027038" lon="11.7329739"><ele>78.5</ele><time>2026-04-06T14:17:19.471Z</time></trkpt><trkpt lat="45.7025629" lon="11.7329877"><ele>78.25</ele><time>2026-04-06T14:17:20.467Z</time></trkpt><trkpt lat="45.702424" lon="11.7330004"><ele>78.0</ele><time>2026-04-06T14:17:21.467Z</time></trkpt><trkpt lat="45.7022918" lon="11.7330116"><ele>78.0</ele><time>2026-04-06T14:17:22.464Z</time></trkpt><trkpt lat="45.7021699" lon="11.7330219"><ele>78.0</ele><time>2026-04-06T14:17:23.466Z</time></trkpt><trkpt lat="45.7020564" lon="11.7330297"><ele>78.0</ele><time>2026-04-06T14:17:24.461Z</time></trkpt><trkpt lat="45.7019449" lon="11.7330358"><ele>78.0</ele><time>2026-04-06T14:17:25.467Z</time></trkpt><trkpt lat="45.7018334" lon="11.7330393"><ele>77.75</ele><time>2026-04-06T14:17:26.472Z</time></trkpt><trkpt lat="45.7017207" lon="11.7330426"><ele>77.5</ele><time>2026-04-06T14:17:27.474Z</time></trkpt><trkpt lat="45.701604" lon="11.7330469"><ele>77.25</ele><time>2026-04-06T14:17:28.463Z</time></trkpt><trkpt lat="45.7014841" lon="11.733051"><ele>77.0</ele><time>2026-04-06T14:17:29.463Z</time></trkpt><trkpt lat="45.7013582" lon="11.7330531"><ele>77.0</ele><time>2026-04-06T14:17:30.464Z</time></trkpt><trkpt lat="45.7012293" lon="11.7330549"><ele>77.0</ele><time>2026-04-06T14:17:31.465Z</time></trkpt><trkpt lat="45.7010965" lon="11.7330564"><ele>77.0</ele><time>2026-04-06T14:17:32.463Z</time></trkpt><trkpt lat="45.7009603" lon="11.7330561"><ele>77.0</ele><time>2026-04-06T14:17:33.463Z</time></trkpt><trkpt lat="45.700818" lon="11.7330496"><ele>77.25</ele><time>2026-04-06T14:17:34.465Z</time></trkpt><trkpt lat="45.700673" lon="11.7330384"><ele>77.5</ele><time>2026-04-06T14:17:35.475Z</time></trkpt><trkpt lat="45.7005257" lon="11.7330211"><ele>77.75</ele><time>2026-04-06T14:17:36.471Z</time></trkpt><trkpt lat="45.7003782" lon="11.7329997"><ele>78.0</ele><time>2026-04-06T14:17:37.47Z</time></trkpt><trkpt lat="45.7002317" lon="11.7329751"><ele>78.25</ele><time>2026-04-06T14:17:38.472Z</time></trkpt><trkpt lat="45.7000854" lon="11.7329483"><ele>78.5</ele><time>2026-04-06T14:17:39.471Z</time></trkpt><trkpt lat="45.6999389" lon="11.7329212"><ele>78.75</ele><time>2026-04-06T14:17:40.469Z</time></trkpt><trkpt lat="45.6997902" lon="11.7328947"><ele>79.0</ele><time>2026-04-06T14:17:41.492Z</time></trkpt><trkpt lat="45.6996397" lon="11.7328693"><ele>79.0</ele><time>2026-04-06T14:17:42.469Z</time></trkpt><trkpt lat="45.6994905" lon="11.7328404"><ele>79.0</ele><time>2026-04-06T14:17:43.474Z</time></trkpt><trkpt lat="45.6993391" lon="11.7328228"><ele>79.0</ele><time>2026-04-06T14:17:44.466Z</time></trkpt><trkpt lat="45.699186" lon="11.7328016"><ele>79.0</ele><time>2026-04-06T14:17:45.474Z</time></trkpt><trkpt lat="45.6990335" lon="11.7327739"><ele>79.0</ele><time>2026-04-06T14:17:46.461Z</time></trkpt><trkpt lat="45.6988758" lon="11.7327493"><ele>79.0</ele><time>2026-04-06T14:17:47.474Z</time></trkpt><trkpt lat="45.6987195" lon="11.7327229"><ele>78.66666666666666</ele><time>2026-04-06T14:17:48.47Z</time></trkpt><trkpt lat="45.6985634" lon="11.7326986"><ele>78.33333333333333</ele><time>2026-04-06T14:17:49.475Z</time></trkpt><trkpt lat="45.6984079" lon="11.7326754"><ele>78.0</ele><time>2026-04-06T14:17:50.479Z</time></trkpt><trkpt lat="45.6982537" lon="11.7326525"><ele>78.0</ele><time>2026-04-06T14:17:51.479Z</time></trkpt><trkpt lat="45.698106" lon="11.7326331"><ele>78.0</ele><time>2026-04-06T14:17:52.473Z</time></trkpt><trkpt lat="45.697961" lon="11.7326193"><ele>78.0</ele><time>2026-04-06T14:17:53.476Z</time></trkpt><trkpt lat="45.6978133" lon="11.7326073"><ele>78.0</ele><time>2026-04-06T14:17:54.477Z</time></trkpt><trkpt lat="45.6976673" lon="11.732599"><ele>78.0</ele><time>2026-04-06T14:17:55.468Z</time></trkpt><trkpt lat="45.697522" lon="11.7325896"><ele>78.0</ele><time>2026-04-06T14:17:56.473Z</time></trkpt><trkpt lat="45.6973795" lon="11.7325859"><ele>78.0</ele><time>2026-04-06T14:17:57.475Z</time></trkpt><trkpt lat="45.6972461" lon="11.7325838"><ele>78.0</ele><time>2026-04-06T14:17:58.466Z</time></trkpt><trkpt lat="45.6971202" lon="11.7325791"><ele>78.0</ele><time>2026-04-06T14:17:59.464Z</time></trkpt><trkpt lat="45.6970019" lon="11.7325761"><ele>78.0</ele><time>2026-04-06T14:18:00.477Z</time></trkpt><trkpt lat="45.6968846" lon="11.7325755"><ele>78.0</ele><time>2026-04-06T14:18:01.478Z</time></trkpt><trkpt lat="45.6967679" lon="11.7325752"><ele>78.0</ele><time>2026-04-06T14:18:02.467Z</time></trkpt><trkpt lat="45.6966558" lon="11.7325756"><ele>77.6</ele><time>2026-04-06T14:18:03.467Z</time></trkpt><trkpt lat="45.6965536" lon="11.7325755"><ele>77.19999999999999</ele><time>2026-04-06T14:18:04.466Z</time></trkpt><trkpt lat="45.6964629" lon="11.732576"><ele>76.8</ele><time>2026-04-06T14:18:05.46Z</time></trkpt><trkpt lat="45.6963729" lon="11.732578"><ele>76.39999999999999</ele><time>2026-04-06T14:18:06.472Z</time></trkpt><trkpt lat="45.6962795" lon="11.7325817"><ele>76.0</ele><time>2026-04-06T14:18:07.468Z</time></trkpt><trkpt lat="45.6961773" lon="11.732583"><ele>75.75</ele><time>2026-04-06T14:18:08.46Z</time></trkpt><trkpt lat="45.6960683" lon="11.7325803"><ele>75.5</ele><time>2026-04-06T14:18:09.461Z</time></trkpt><trkpt lat="45.6959526" lon="11.7325784"><ele>75.25</ele><time>2026-04-06T14:18:10.462Z</time></trkpt><trkpt lat="45.6958297" lon="11.732578"><ele>75.0</ele><time>2026-04-06T14:18:11.466Z</time></trkpt><trkpt lat="45.6957174" lon="11.732576"><ele>75.0</ele><time>2026-04-06T14:18:12.463Z</time></trkpt><trkpt lat="45.6956169" lon="11.7325685"><ele>75.0</ele><time>2026-04-06T14:18:13.471Z</time></trkpt><trkpt lat="45.6955187" lon="11.7325508"><ele>75.0</ele><time>2026-04-06T14:18:14.461Z</time></trkpt><trkpt lat="45.6954277" lon="11.7325179"><ele>75.0</ele><time>2026-04-06T14:18:15.465Z</time></trkpt><trkpt lat="45.6953406" lon="11.7324593"><ele>75.0</ele><time>2026-04-06T14:18:16.462Z</time></trkpt><trkpt lat="45.6952616" lon="11.7323756"><ele>75.2</ele><time>2026-04-06T14:18:17.461Z</time></trkpt><trkpt lat="45.6951811" lon="11.7323062"><ele>75.4</ele><time>2026-04-06T14:18:18.464Z</time></trkpt><trkpt lat="45.6950887" lon="11.7322813"><ele>75.6</ele><time>2026-04-06T14:18:19.462Z</time></trkpt><trkpt lat="45.694993" lon="11.7323145"><ele>75.8</ele><time>2026-04-06T14:18:20.47Z</time></trkpt><trkpt lat="45.6949006" lon="11.7323965"><ele>76.0</ele><time>2026-04-06T14:18:21.466Z</time></trkpt><trkpt lat="45.6947898" lon="11.7324846"><ele>76.0</ele><time>2026-04-06T14:18:22.462Z</time></trkpt><trkpt lat="45.6946679" lon="11.7325432"><ele>76.0</ele><time>2026-04-06T14:18:23.455Z</time></trkpt><trkpt lat="45.6945437" lon="11.7325721"><ele>76.0</ele><time>2026-04-06T14:18:24.46Z</time></trkpt><trkpt lat="45.6944156" lon="11.7325797"><ele>76.0</ele><time>2026-04-06T14:18:25.466Z</time></trkpt><trkpt lat="45.6942799" lon="11.732579"><ele>75.66666666666666</ele><time>2026-04-06T14:18:26.461Z</time></trkpt><trkpt lat="45.6941345" lon="11.7325726"><ele>75.33333333333333</ele><time>2026-04-06T14:18:27.465Z</time></trkpt><trkpt lat="45.6939815" lon="11.7325716"><ele>75.0</ele><time>2026-04-06T14:18:28.463Z</time></trkpt><trkpt lat="45.6938285" lon="11.7325686"><ele>75.0</ele><time>2026-04-06T14:18:29.462Z</time></trkpt><trkpt lat="45.693675" lon="11.732572"><ele>75.0</ele><time>2026-04-06T14:18:30.455Z</time></trkpt><trkpt lat="45.6935282" lon="11.7325761"><ele>75.0</ele><time>2026-04-06T14:18:31.463Z</time></trkpt><trkpt lat="45.6933767" lon="11.732592"><ele>75.0</ele><time>2026-04-06T14:18:32.46Z</time></trkpt><trkpt lat="45.6932285" lon="11.7326234"><ele>75.0</ele><time>2026-04-06T14:18:33.468Z</time></trkpt><trkpt lat="45.6930937" lon="11.7326449"><ele>75.0</ele><time>2026-04-06T14:18:34.458Z</time></trkpt><trkpt lat="45.6929586" lon="11.7326604"><ele>75.0</ele><time>2026-04-06T14:18:35.472Z</time></trkpt><trkpt lat="45.6928286" lon="11.7326839"><ele>75.0</ele><time>2026-04-06T14:18:36.464Z</time></trkpt><trkpt lat="45.6927095" lon="11.7327006"><ele>75.0</ele><time>2026-04-06T14:18:37.469Z</time></trkpt><trkpt lat="45.692605" lon="11.7327133"><ele>75.0</ele><time>2026-04-06T14:18:38.462Z</time></trkpt><trkpt lat="45.6925166" lon="11.7327237"><ele>75.0</ele><time>2026-04-06T14:18:39.475Z</time></trkpt><trkpt lat="45.6924413" lon="11.732736"><ele>75.0</ele><time>2026-04-06T14:18:40.463Z</time></trkpt><trkpt lat="45.6923378" lon="11.7327647"><ele>75.2</ele><time>2026-04-06T14:18:42.463Z</time></trkpt><trkpt lat="45.6922485" lon="11.7327902"><ele>75.4</ele><time>2026-04-06T14:18:44.462Z</time></trkpt><trkpt lat="45.6921779" lon="11.7328008"><ele>75.6</ele><time>2026-04-06T14:18:46.468Z</time></trkpt><trkpt lat="45.6920827" lon="11.7328008"><ele>75.8</ele><time>2026-04-06T14:19:11.472Z</time></trkpt><trkpt lat="45.691965" lon="11.7328132"><ele>76.0</ele><time>2026-04-06T14:19:13.474Z</time></trkpt><trkpt lat="45.6918861" lon="11.7328381"><ele>75.25</ele><time>2026-04-06T14:19:14.458Z</time></trkpt><trkpt lat="45.6917898" lon="11.7328916"><ele>74.5</ele><time>2026-04-06T14:19:15.463Z</time></trkpt><trkpt lat="45.6916726" lon="11.7329503"><ele>73.75</ele><time>2026-04-06T14:19:16.461Z</time></trkpt><trkpt lat="45.6915361" lon="11.7329891"><ele>73.0</ele><time>2026-04-06T14:19:17.463Z</time></trkpt><trkpt lat="45.6913832" lon="11.733012"><ele>73.0</ele><time>2026-04-06T14:19:18.461Z</time></trkpt><trkpt lat="45.6912188" lon="11.7330314"><ele>73.0</ele><time>2026-04-06T14:19:19.463Z</time></trkpt><trkpt lat="45.6910522" lon="11.7330487"><ele>73.0</ele><time>2026-04-06T14:19:20.46Z</time></trkpt><trkpt lat="45.6908839" lon="11.7330637"><ele>73.0</ele><time>2026-04-06T14:19:21.461Z</time></trkpt><trkpt lat="45.6907119" lon="11.733084"><ele>73.0</ele><time>2026-04-06T14:19:22.464Z</time></trkpt><trkpt lat="45.6905491" lon="11.7331009"><ele>73.0</ele><time>2026-04-06T14:19:23.468Z</time></trkpt><trkpt lat="45.690382" lon="11.7331182"><ele>73.0</ele><time>2026-04-06T14:19:24.466Z</time></trkpt><trkpt lat="45.6902141" lon="11.7331362"><ele>73.0</ele><time>2026-04-06T14:19:25.502Z</time></trkpt><trkpt lat="45.6900543" lon="11.733151"><ele>73.0</ele><time>2026-04-06T14:19:26.486Z</time></trkpt><trkpt lat="45.689914" lon="11.7331628"><ele>73.0</ele><time>2026-04-06T14:19:27.465Z</time></trkpt><trkpt lat="45.6897816" lon="11.7331564"><ele>73.0</ele><time>2026-04-06T14:19:28.463Z</time></trkpt><trkpt lat="45.6896538" lon="11.7331001"><ele>73.0</ele><time>2026-04-06T14:19:29.461Z</time></trkpt><trkpt lat="45.6895397" lon="11.7329909"><ele>73.0</ele><time>2026-04-06T14:19:30.459Z</time></trkpt><trkpt lat="45.6894226" lon="11.7328685"><ele>72.66666666666666</ele><time>2026-04-06T14:19:31.458Z</time></trkpt><trkpt lat="45.6893451" lon="11.7326818"><ele>72.33333333333333</ele><time>2026-04-06T14:19:32.466Z</time></trkpt><trkpt lat="45.6892786" lon="11.7324664"><ele>72.0</ele><time>2026-04-06T14:19:33.472Z</time></trkpt><trkpt lat="45.6892268" lon="11.7322362"><ele>72.0</ele><time>2026-04-06T14:19:34.461Z</time></trkpt><trkpt lat="45.6891855" lon="11.7319936"><ele>72.0</ele><time>2026-04-06T14:19:35.458Z</time></trkpt><trkpt lat="45.6891452" lon="11.7317367"><ele>72.0</ele><time>2026-04-06T14:19:36.459Z</time></trkpt><trkpt lat="45.6891037" lon="11.7314894"><ele>72.0</ele><time>2026-04-06T14:19:37.461Z</time></trkpt><trkpt lat="45.6890653" lon="11.7312539"><ele>72.0</ele><time>2026-04-06T14:19:38.466Z</time></trkpt><trkpt lat="45.6890145" lon="11.7310424"><ele>72.0</ele><time>2026-04-06T14:19:39.472Z</time></trkpt><trkpt lat="45.6889392" lon="11.7308395"><ele>72.0</ele><time>2026-04-06T14:19:40.463Z</time></trkpt><trkpt lat="45.688834" lon="11.7306788"><ele>72.0</ele><time>2026-04-06T14:19:41.467Z</time></trkpt><trkpt lat="45.6886961" lon="11.7305538"><ele>72.0</ele><time>2026-04-06T14:19:42.464Z</time></trkpt><trkpt lat="45.6885362" lon="11.7304712"><ele>71.66666666666667</ele><time>2026-04-06T14:19:43.466Z</time></trkpt><trkpt lat="45.688362" lon="11.7304297"><ele>71.33333333333334</ele><time>2026-04-06T14:19:44.46Z</time></trkpt><trkpt lat="45.6881825" lon="11.7304157"><ele>71.0</ele><time>2026-04-06T14:19:45.465Z</time></trkpt><trkpt lat="45.6880009" lon="11.730414"><ele>71.0</ele><time>2026-04-06T14:19:46.463Z</time></trkpt><trkpt lat="45.6878151" lon="11.7304218"><ele>71.0</ele><time>2026-04-06T14:19:47.466Z</time></trkpt><trkpt lat="45.6876289" lon="11.7304287"><ele>71.0</ele><time>2026-04-06T14:19:48.461Z</time></trkpt><trkpt lat="45.6874408" lon="11.7304315"><ele>71.0</ele><time>2026-04-06T14:19:49.468Z</time></trkpt><trkpt lat="45.6872481" lon="11.7304355"><ele>71.0</ele><time>2026-04-06T14:19:50.465Z</time></trkpt><trkpt lat="45.6870578" lon="11.7304383"><ele>71.0</ele><time>2026-04-06T14:19:51.475Z</time></trkpt><trkpt lat="45.6868747" lon="11.7304401"><ele>71.0</ele><time>2026-04-06T14:19:52.466Z</time></trkpt><trkpt lat="45.6867035" lon="11.7304403"><ele>71.0</ele><time>2026-04-06T14:19:53.47Z</time></trkpt><trkpt lat="45.6865376" lon="11.7304409"><ele>71.0</ele><time>2026-04-06T14:19:54.461Z</time></trkpt><trkpt lat="45.6863778" lon="11.7304424"><ele>71.0</ele><time>2026-04-06T14:19:55.473Z</time></trkpt><trkpt lat="45.686235" lon="11.7304438"><ele>71.0</ele><time>2026-04-06T14:19:56.467Z</time></trkpt><trkpt lat="45.6861087" lon="11.7304444"><ele>71.0</ele><time>2026-04-06T14:19:57.469Z</time></trkpt><trkpt lat="45.6859965" lon="11.7304445"><ele>71.0</ele><time>2026-04-06T14:19:58.468Z</time></trkpt><trkpt lat="45.6859055" lon="11.7304439"><ele>71.0</ele><time>2026-04-06T14:19:59.479Z</time></trkpt><trkpt lat="45.6858348" lon="11.7304363"><ele>71.0</ele><time>2026-04-06T14:20:00.462Z</time></trkpt><trkpt lat="45.6857372" lon="11.7303339"><ele>71.0</ele><time>2026-04-06T14:20:02.472Z</time></trkpt><trkpt lat="45.6857321" lon="11.7301964"><ele>71.0</ele><time>2026-04-06T14:20:03.474Z</time></trkpt><trkpt lat="45.685715" lon="11.7300444"><ele>71.0</ele><time>2026-04-06T14:20:04.469Z</time></trkpt><trkpt lat="45.6856926" lon="11.7298752"><ele>70.75</ele><time>2026-04-06T14:20:05.475Z</time></trkpt><trkpt lat="45.6856652" lon="11.7296795"><ele>70.5</ele><time>2026-04-06T14:20:06.464Z</time></trkpt><trkpt lat="45.6856408" lon="11.7294942"><ele>70.25</ele><time>2026-04-06T14:20:07.488Z</time></trkpt><trkpt lat="45.6856227" lon="11.7293306"><ele>70.0</ele><time>2026-04-06T14:20:08.465Z</time></trkpt><trkpt lat="45.685604" lon="11.7291965"><ele>70.0</ele><time>2026-04-06T14:20:09.477Z</time></trkpt><trkpt lat="45.6855762" lon="11.7290949"><ele>70.0</ele><time>2026-04-06T14:20:10.474Z</time></trkpt><trkpt lat="45.6854645" lon="11.7290059"><ele>70.0</ele><time>2026-04-06T14:20:12.477Z</time></trkpt><trkpt lat="45.68538" lon="11.7289932"><ele>70.0</ele><time>2026-04-06T14:20:13.468Z</time></trkpt><trkpt lat="45.6852736" lon="11.7289799"><ele>70.0</ele><time>2026-04-06T14:20:14.464Z</time></trkpt><trkpt lat="45.6851446" lon="11.7289574"><ele>70.33333333333333</ele><time>2026-04-06T14:20:15.466Z</time></trkpt><trkpt lat="45.6849973" lon="11.7289364"><ele>70.66666666666667</ele><time>2026-04-06T14:20:16.465Z</time></trkpt><trkpt lat="45.6848352" lon="11.7289173"><ele>71.0</ele><time>2026-04-06T14:20:17.466Z</time></trkpt><trkpt lat="45.6846672" lon="11.7288964"><ele>71.0</ele><time>2026-04-06T14:20:18.466Z</time></trkpt><trkpt lat="45.6844866" lon="11.7288726"><ele>71.0</ele><time>2026-04-06T14:20:19.469Z</time></trkpt><trkpt lat="45.6843012" lon="11.7288473"><ele>71.0</ele><time>2026-04-06T14:20:20.474Z</time></trkpt><trkpt lat="45.6841266" lon="11.7288182"><ele>70.66666666666667</ele><time>2026-04-06T14:20:21.466Z</time></trkpt><trkpt lat="45.6839632" lon="11.7287918"><ele>70.33333333333333</ele><time>2026-04-06T14:20:22.463Z</time></trkpt><trkpt lat="45.6838105" lon="11.7287668"><ele>70.0</ele><time>2026-04-06T14:20:23.467Z</time></trkpt><trkpt lat="45.6836691" lon="11.7287449"><ele>70.0</ele><time>2026-04-06T14:20:24.474Z</time></trkpt><trkpt lat="45.683541" lon="11.7287246"><ele>70.0</ele><time>2026-04-06T14:20:25.463Z</time></trkpt><trkpt lat="45.6834286" lon="11.7287051"><ele>70.0</ele><time>2026-04-06T14:20:26.464Z</time></trkpt><trkpt lat="45.6833323" lon="11.7286899"><ele>70.0</ele><time>2026-04-06T14:20:27.464Z</time></trkpt><trkpt lat="45.6832576" lon="11.7286757"><ele>70.0</ele><time>2026-04-06T14:20:28.463Z</time></trkpt><trkpt lat="45.683164" lon="11.7286556"><ele>70.0</ele><time>2026-04-06T14:20:30.463Z</time></trkpt><trkpt lat="45.6831057" lon="11.7286059"><ele>70.0</ele><time>2026-04-06T14:20:33.476Z</time></trkpt><trkpt lat="45.683071" lon="11.7284137"><ele>70.0</ele><time>2026-04-06T14:20:35.478Z</time></trkpt><trkpt lat="45.6830488" lon="11.7282814"><ele>70.0</ele><time>2026-04-06T14:20:36.459Z</time></trkpt><trkpt lat="45.683025" lon="11.7281274"><ele>70.0</ele><time>2026-04-06T14:20:37.468Z</time></trkpt><trkpt lat="45.6829981" lon="11.7279289"><ele>70.0</ele><time>2026-04-06T14:20:38.464Z</time></trkpt><trkpt lat="45.6829678" lon="11.727712"><ele>70.0</ele><time>2026-04-06T14:20:39.464Z</time></trkpt><trkpt lat="45.682937" lon="11.727481"><ele>70.0</ele><time>2026-04-06T14:20:40.473Z</time></trkpt><trkpt lat="45.6829035" lon="11.7272376"><ele>70.0</ele><time>2026-04-06T14:20:41.467Z</time></trkpt><trkpt lat="45.68287" lon="11.7269823"><ele>70.0</ele><time>2026-04-06T14:20:42.455Z</time></trkpt><trkpt lat="45.6828353" lon="11.7267188"><ele>70.0</ele><time>2026-04-06T14:20:43.472Z</time></trkpt><trkpt lat="45.6828002" lon="11.7264483"><ele>70.0</ele><time>2026-04-06T14:20:44.468Z</time></trkpt><trkpt lat="45.6827733" lon="11.7261715"><ele>70.0</ele><time>2026-04-06T14:20:45.461Z</time></trkpt><trkpt lat="45.6827552" lon="11.7258904"><ele>70.0</ele><time>2026-04-06T14:20:46.461Z</time></trkpt><trkpt lat="45.6827526" lon="11.7255998"><ele>70.0</ele><time>2026-04-06T14:20:47.481Z</time></trkpt><trkpt lat="45.682764" lon="11.7253011"><ele>70.0</ele><time>2026-04-06T14:20:48.461Z</time></trkpt><trkpt lat="45.68279" lon="11.7249966"><ele>70.0</ele><time>2026-04-06T14:20:49.459Z</time></trkpt><trkpt lat="45.6828237" lon="11.7246869"><ele>69.5</ele><time>2026-04-06T14:20:50.46Z</time></trkpt><trkpt lat="45.6828626" lon="11.7243729"><ele>69.0</ele><time>2026-04-06T14:20:51.464Z</time></trkpt><trkpt lat="45.6829048" lon="11.7240539"><ele>69.0</ele><time>2026-04-06T14:20:52.461Z</time></trkpt><trkpt lat="45.6829465" lon="11.7237311"><ele>69.0</ele><time>2026-04-06T14:20:53.462Z</time></trkpt><trkpt lat="45.6829906" lon="11.7234068"><ele>68.5</ele><time>2026-04-06T14:20:54.47Z</time></trkpt><trkpt lat="45.6830358" lon="11.7230809"><ele>68.0</ele><time>2026-04-06T14:20:55.471Z</time></trkpt><trkpt lat="45.6830817" lon="11.7227531"><ele>69.0</ele><time>2026-04-06T14:20:56.466Z</time></trkpt><trkpt lat="45.683128" lon="11.7224225"><ele>70.0</ele><time>2026-04-06T14:20:57.469Z</time></trkpt><trkpt lat="45.683174" lon="11.72209"><ele>69.0</ele><time>2026-04-06T14:20:58.474Z</time></trkpt><trkpt lat="45.6832214" lon="11.7217561"><ele>68.0</ele><time>2026-04-06T14:20:59.466Z</time></trkpt><trkpt lat="45.683271" lon="11.721408"><ele>67.5</ele><time>2026-04-06T14:21:00.468Z</time></trkpt><trkpt lat="45.6833225" lon="11.7210403"><ele>67.0</ele><time>2026-04-06T14:21:01.476Z</time></trkpt><trkpt lat="45.6833759" lon="11.7206546"><ele>67.0</ele><time>2026-04-06T14:21:02.468Z</time></trkpt><trkpt lat="45.6834322" lon="11.7202537"><ele>67.0</ele><time>2026-04-06T14:21:03.467Z</time></trkpt><trkpt lat="45.68349" lon="11.7198405"><ele>67.0</ele><time>2026-04-06T14:21:04.46Z</time></trkpt><trkpt lat="45.6835457" lon="11.719446"><ele>67.0</ele><time>2026-04-06T14:21:05.466Z</time></trkpt><trkpt lat="45.6835971" lon="11.7190795"><ele>67.5</ele><time>2026-04-06T14:21:06.461Z</time></trkpt><trkpt lat="45.683645" lon="11.7187381"><ele>68.0</ele><time>2026-04-06T14:21:07.462Z</time></trkpt><trkpt lat="45.6836896" lon="11.7184198"><ele>68.0</ele><time>2026-04-06T14:21:08.474Z</time></trkpt><trkpt lat="45.6837322" lon="11.7181176"><ele>68.0</ele><time>2026-04-06T14:21:09.469Z</time></trkpt><trkpt lat="45.683772" lon="11.7178183"><ele>68.0</ele><time>2026-04-06T14:21:10.461Z</time></trkpt><trkpt lat="45.6838054" lon="11.717518"><ele>68.0</ele><time>2026-04-06T14:21:11.472Z</time></trkpt><trkpt lat="45.6838278" lon="11.7172174"><ele>68.0</ele><time>2026-04-06T14:21:12.466Z</time></trkpt><trkpt lat="45.6838351" lon="11.7169154"><ele>68.0</ele><time>2026-04-06T14:21:13.467Z</time></trkpt><trkpt lat="45.6838282" lon="11.7166133"><ele>68.0</ele><time>2026-04-06T14:21:14.482Z</time></trkpt><trkpt lat="45.6838066" lon="11.7163114"><ele>68.0</ele><time>2026-04-06T14:21:15.473Z</time></trkpt><trkpt lat="45.6837703" lon="11.7160104"><ele>68.0</ele><time>2026-04-06T14:21:16.466Z</time></trkpt><trkpt lat="45.683723" lon="11.7157105"><ele>68.33333333333334</ele><time>2026-04-06T14:21:17.473Z</time></trkpt><trkpt lat="45.6836721" lon="11.7154111"><ele>68.66666666666667</ele><time>2026-04-06T14:21:18.495Z</time></trkpt><trkpt lat="45.6836203" lon="11.7151122"><ele>69.0</ele><time>2026-04-06T14:21:19.49Z</time></trkpt><trkpt lat="45.6835683" lon="11.7148137"><ele>69.0</ele><time>2026-04-06T14:21:20.492Z</time></trkpt><trkpt lat="45.6835169" lon="11.7145158"><ele>69.0</ele><time>2026-04-06T14:21:21.468Z</time></trkpt><trkpt lat="45.6834647" lon="11.7142189"><ele>69.0</ele><time>2026-04-06T14:21:22.476Z</time></trkpt><trkpt lat="45.6834126" lon="11.7139221"><ele>69.0</ele><time>2026-04-06T14:21:23.47Z</time></trkpt><trkpt lat="45.6833591" lon="11.7136259"><ele>69.0</ele><time>2026-04-06T14:21:24.506Z</time></trkpt><trkpt lat="45.6833066" lon="11.7133282"><ele>69.0</ele><time>2026-04-06T14:21:25.467Z</time></trkpt><trkpt lat="45.6832539" lon="11.7130302"><ele>69.0</ele><time>2026-04-06T14:21:26.461Z</time></trkpt><trkpt lat="45.6831984" lon="11.712732"><ele>69.0</ele><time>2026-04-06T14:21:27.468Z</time></trkpt><trkpt lat="45.6831402" lon="11.7124357"><ele>69.0</ele><time>2026-04-06T14:21:28.463Z</time></trkpt><trkpt lat="45.6830787" lon="11.712141"><ele>69.0</ele><time>2026-04-06T14:21:29.462Z</time></trkpt><trkpt lat="45.6830123" lon="11.711849"><ele>69.0</ele><time>2026-04-06T14:21:30.464Z</time></trkpt><trkpt lat="45.6829397" lon="11.7115601"><ele>69.0</ele><time>2026-04-06T14:21:31.462Z</time></trkpt><trkpt lat="45.6828636" lon="11.7112731"><ele>69.0</ele><time>2026-04-06T14:21:32.463Z</time></trkpt><trkpt lat="45.6827859" lon="11.7109878"><ele>69.0</ele><time>2026-04-06T14:21:33.469Z</time></trkpt><trkpt lat="45.6827089" lon="11.7107021"><ele>69.0</ele><time>2026-04-06T14:21:34.469Z</time></trkpt><trkpt lat="45.6826324" lon="11.7104152"><ele>68.66666666666667</ele><time>2026-04-06T14:21:35.47Z</time></trkpt><trkpt lat="45.682556" lon="11.7101293"><ele>68.33333333333334</ele><time>2026-04-06T14:21:36.465Z</time></trkpt><trkpt lat="45.6824813" lon="11.7098434"><ele>68.0</ele><time>2026-04-06T14:21:37.464Z</time></trkpt><trkpt lat="45.682408" lon="11.709558"><ele>68.0</ele><time>2026-04-06T14:21:38.466Z</time></trkpt><trkpt lat="45.682335" lon="11.7092735"><ele>68.0</ele><time>2026-04-06T14:21:39.467Z</time></trkpt><trkpt lat="45.6822645" lon="11.708989"><ele>68.0</ele><time>2026-04-06T14:21:40.461Z</time></trkpt><trkpt lat="45.6821968" lon="11.7087036"><ele>68.33333333333334</ele><time>2026-04-06T14:21:41.468Z</time></trkpt><trkpt lat="45.6821341" lon="11.7084295"><ele>68.66666666666667</ele><time>2026-04-06T14:21:42.463Z</time></trkpt><trkpt lat="45.6820828" lon="11.708172"><ele>69.0</ele><time>2026-04-06T14:21:43.468Z</time></trkpt><trkpt lat="45.6820463" lon="11.707929"><ele>68.66666666666667</ele><time>2026-04-06T14:21:44.461Z</time></trkpt><trkpt lat="45.6820269" lon="11.7076997"><ele>68.33333333333334</ele><time>2026-04-06T14:21:45.463Z</time></trkpt><trkpt lat="45.6820274" lon="11.7074831"><ele>68.0</ele><time>2026-04-06T14:21:46.469Z</time></trkpt><trkpt lat="45.6820417" lon="11.7072822"><ele>68.0</ele><time>2026-04-06T14:21:47.465Z</time></trkpt><trkpt lat="45.6820644" lon="11.7071039"><ele>68.0</ele><time>2026-04-06T14:21:48.469Z</time></trkpt><trkpt lat="45.6820901" lon="11.7069511"><ele>68.0</ele><time>2026-04-06T14:21:49.464Z</time></trkpt><trkpt lat="45.682119" lon="11.7068334"><ele>68.0</ele><time>2026-04-06T14:21:50.468Z</time></trkpt><trkpt lat="45.6821436" lon="11.7067436"><ele>68.0</ele><time>2026-04-06T14:21:51.465Z</time></trkpt><trkpt lat="45.6821156" lon="11.7066321"><ele>68.25</ele><time>2026-04-06T14:21:53.464Z</time></trkpt><trkpt lat="45.6819728" lon="11.7065926"><ele>68.5</ele><time>2026-04-06T14:21:55.47Z</time></trkpt><trkpt lat="45.6818717" lon="11.7065791"><ele>68.75</ele><time>2026-04-06T14:21:56.459Z</time></trkpt><trkpt lat="45.6817516" lon="11.7065616"><ele>69.0</ele><time>2026-04-06T14:21:57.467Z</time></trkpt><trkpt lat="45.6816103" lon="11.7065388"><ele>68.33333333333333</ele><time>2026-04-06T14:21:58.464Z</time></trkpt><trkpt lat="45.6814505" lon="11.7065113"><ele>67.66666666666666</ele><time>2026-04-06T14:21:59.464Z</time></trkpt><trkpt lat="45.6812819" lon="11.7064938"><ele>67.0</ele><time>2026-04-06T14:22:00.464Z</time></trkpt><trkpt lat="45.6810983" lon="11.7064833"><ele>66.33333333333333</ele><time>2026-04-06T14:22:01.462Z</time></trkpt><trkpt lat="45.6809186" lon="11.7065168"><ele>65.66666666666667</ele><time>2026-04-06T14:22:02.464Z</time></trkpt><trkpt lat="45.6807317" lon="11.7065778"><ele>65.0</ele><time>2026-04-06T14:22:03.472Z</time></trkpt><trkpt lat="45.680552" lon="11.7066624"><ele>65.0</ele><time>2026-04-06T14:22:04.463Z</time></trkpt><trkpt lat="45.6803687" lon="11.7067603"><ele>65.0</ele><time>2026-04-06T14:22:05.468Z</time></trkpt><trkpt lat="45.680179" lon="11.7068639"><ele>65.0</ele><time>2026-04-06T14:22:06.463Z</time></trkpt><trkpt lat="45.6799801" lon="11.7069725"><ele>65.5</ele><time>2026-04-06T14:22:07.479Z</time></trkpt><trkpt lat="45.679766" lon="11.7070877"><ele>66.0</ele><time>2026-04-06T14:22:08.462Z</time></trkpt><trkpt lat="45.6795317" lon="11.707209"><ele>66.0</ele><time>2026-04-06T14:22:09.461Z</time></trkpt><trkpt lat="45.6792865" lon="11.7073401"><ele>66.0</ele><time>2026-04-06T14:22:10.459Z</time></trkpt><trkpt lat="45.6790337" lon="11.7074731"><ele>66.0</ele><time>2026-04-06T14:22:11.47Z</time></trkpt><trkpt lat="45.6787713" lon="11.7076073"><ele>66.0</ele><time>2026-04-06T14:22:12.473Z</time></trkpt><trkpt lat="45.6785161" lon="11.7077415"><ele>65.5</ele><time>2026-04-06T14:22:13.474Z</time></trkpt><trkpt lat="45.6782635" lon="11.7078718"><ele>65.0</ele><time>2026-04-06T14:22:14.465Z</time></trkpt><trkpt lat="45.6780148" lon="11.7080038"><ele>65.0</ele><time>2026-04-06T14:22:15.471Z</time></trkpt><trkpt lat="45.6777696" lon="11.7081331"><ele>65.0</ele><time>2026-04-06T14:22:16.464Z</time></trkpt><trkpt lat="45.6775255" lon="11.7082585"><ele>65.0</ele><time>2026-04-06T14:22:17.469Z</time></trkpt><trkpt lat="45.6772804" lon="11.7083805"><ele>65.0</ele><time>2026-04-06T14:22:18.467Z</time></trkpt><trkpt lat="45.6770356" lon="11.7084989"><ele>65.0</ele><time>2026-04-06T14:22:19.47Z</time></trkpt><trkpt lat="45.6767895" lon="11.7086143"><ele>65.0</ele><time>2026-04-06T14:22:20.466Z</time></trkpt><trkpt lat="45.6765456" lon="11.7087316"><ele>65.0</ele><time>2026-04-06T14:22:21.473Z</time></trkpt><trkpt lat="45.6762977" lon="11.7088413"><ele>65.0</ele><time>2026-04-06T14:22:22.466Z</time></trkpt><trkpt lat="45.6760491" lon="11.7089447"><ele>64.0</ele><time>2026-04-06T14:22:23.474Z</time></trkpt><trkpt lat="45.6757976" lon="11.7090419"><ele>63.0</ele><time>2026-04-06T14:22:24.468Z</time></trkpt><trkpt lat="45.6755417" lon="11.7091337"><ele>63.0</ele><time>2026-04-06T14:22:25.473Z</time></trkpt><trkpt lat="45.6752809" lon="11.7092257"><ele>63.0</ele><time>2026-04-06T14:22:26.462Z</time></trkpt><trkpt lat="45.6750058" lon="11.70932"><ele>63.0</ele><time>2026-04-06T14:22:27.472Z</time></trkpt><trkpt lat="45.6747193" lon="11.709418"><ele>63.0</ele><time>2026-04-06T14:22:28.465Z</time></trkpt><trkpt lat="45.6744211" lon="11.7095177"><ele>64.0</ele><time>2026-04-06T14:22:29.472Z</time></trkpt><trkpt lat="45.6741153" lon="11.7096197"><ele>65.0</ele><time>2026-04-06T14:22:30.466Z</time></trkpt><trkpt lat="45.6738188" lon="11.7097169"><ele>64.5</ele><time>2026-04-06T14:22:31.472Z</time></trkpt><trkpt lat="45.6735346" lon="11.7098096"><ele>64.0</ele><time>2026-04-06T14:22:32.467Z</time></trkpt><trkpt lat="45.6732583" lon="11.7098963"><ele>64.0</ele><time>2026-04-06T14:22:33.469Z</time></trkpt><trkpt lat="45.672988" lon="11.709977"><ele>64.0</ele><time>2026-04-06T14:22:34.465Z</time></trkpt><trkpt lat="45.6727246" lon="11.7100537"><ele>62.5</ele><time>2026-04-06T14:22:35.467Z</time></trkpt><trkpt lat="45.6724675" lon="11.7101262"><ele>61.0</ele><time>2026-04-06T14:22:36.463Z</time></trkpt><trkpt lat="45.6722158" lon="11.7101994"><ele>61.0</ele><time>2026-04-06T14:22:37.466Z</time></trkpt><trkpt lat="45.6719667" lon="11.710276"><ele>61.0</ele><time>2026-04-06T14:22:38.467Z</time></trkpt><trkpt lat="45.6717254" lon="11.7103782"><ele>61.0</ele><time>2026-04-06T14:22:39.467Z</time></trkpt><trkpt lat="45.6714891" lon="11.7104872"><ele>61.0</ele><time>2026-04-06T14:22:40.468Z</time></trkpt><trkpt lat="45.6712538" lon="11.7106161"><ele>60.5</ele><time>2026-04-06T14:22:41.465Z</time></trkpt><trkpt lat="45.67102" lon="11.7107418"><ele>60.0</ele><time>2026-04-06T14:22:42.467Z</time></trkpt><trkpt lat="45.6707849" lon="11.7108614"><ele>60.0</ele><time>2026-04-06T14:22:43.464Z</time></trkpt><trkpt lat="45.6705451" lon="11.7109676"><ele>60.0</ele><time>2026-04-06T14:22:44.462Z</time></trkpt><trkpt lat="45.6703019" lon="11.7110541"><ele>59.5</ele><time>2026-04-06T14:22:45.458Z</time></trkpt><trkpt lat="45.6700556" lon="11.7111299"><ele>59.0</ele><time>2026-04-06T14:22:46.465Z</time></trkpt><trkpt lat="45.6698084" lon="11.711199"><ele>59.0</ele><time>2026-04-06T14:22:47.463Z</time></trkpt><trkpt lat="45.669561" lon="11.7112698"><ele>59.0</ele><time>2026-04-06T14:22:48.461Z</time></trkpt><trkpt lat="45.6693114" lon="11.7113369"><ele>59.0</ele><time>2026-04-06T14:22:49.467Z</time></trkpt><trkpt lat="45.6690626" lon="11.711404"><ele>59.0</ele><time>2026-04-06T14:22:50.463Z</time></trkpt><trkpt lat="45.6688114" lon="11.7114732"><ele>59.5</ele><time>2026-04-06T14:22:51.472Z</time></trkpt><trkpt lat="45.6685641" lon="11.7115541"><ele>60.0</ele><time>2026-04-06T14:22:52.457Z</time></trkpt><trkpt lat="45.668313" lon="11.7116527"><ele>60.0</ele><time>2026-04-06T14:22:53.466Z</time></trkpt><trkpt lat="45.6680546" lon="11.7117681"><ele>60.0</ele><time>2026-04-06T14:22:54.46Z</time></trkpt><trkpt lat="45.6677832" lon="11.711898"><ele>60.0</ele><time>2026-04-06T14:22:55.463Z</time></trkpt><trkpt lat="45.6675071" lon="11.7120311"><ele>60.0</ele><time>2026-04-06T14:22:56.465Z</time></trkpt><trkpt lat="45.6672441" lon="11.7121574"><ele>60.0</ele><time>2026-04-06T14:22:57.462Z</time></trkpt><trkpt lat="45.6669994" lon="11.7122735"><ele>60.0</ele><time>2026-04-06T14:22:58.462Z</time></trkpt><trkpt lat="45.6667648" lon="11.7123823"><ele>58.5</ele><time>2026-04-06T14:22:59.467Z</time></trkpt><trkpt lat="45.6665349" lon="11.7124814"><ele>57.0</ele><time>2026-04-06T14:23:00.463Z</time></trkpt><trkpt lat="45.6663067" lon="11.7125705"><ele>59.0</ele><time>2026-04-06T14:23:01.463Z</time></trkpt><trkpt lat="45.6660749" lon="11.7126518"><ele>61.0</ele><time>2026-04-06T14:23:02.466Z</time></trkpt><trkpt lat="45.6658357" lon="11.7127289"><ele>61.0</ele><time>2026-04-06T14:23:03.465Z</time></trkpt><trkpt lat="45.6656054" lon="11.7128102"><ele>61.0</ele><time>2026-04-06T14:23:04.466Z</time></trkpt><trkpt lat="45.6653961" lon="11.7128924"><ele>60.33333333333333</ele><time>2026-04-06T14:23:05.467Z</time></trkpt><trkpt lat="45.6652001" lon="11.712972"><ele>59.66666666666667</ele><time>2026-04-06T14:23:06.473Z</time></trkpt><trkpt lat="45.6650329" lon="11.7130431"><ele>59.0</ele><time>2026-04-06T14:23:07.466Z</time></trkpt><trkpt lat="45.6648824" lon="11.7131131"><ele>59.0</ele><time>2026-04-06T14:23:08.47Z</time></trkpt><trkpt lat="45.6647494" lon="11.7131917"><ele>59.0</ele><time>2026-04-06T14:23:09.465Z</time></trkpt><trkpt lat="45.6646249" lon="11.7133089"><ele>59.0</ele><time>2026-04-06T14:23:10.468Z</time></trkpt><trkpt lat="45.6645082" lon="11.7134712"><ele>58.66666666666667</ele><time>2026-04-06T14:23:11.467Z</time></trkpt><trkpt lat="45.6643942" lon="11.7136649"><ele>58.33333333333333</ele><time>2026-04-06T14:23:12.471Z</time></trkpt><trkpt lat="45.6643088" lon="11.7139039"><ele>58.0</ele><time>2026-04-06T14:23:13.48Z</time></trkpt><trkpt lat="45.6642434" lon="11.7141422"><ele>58.0</ele><time>2026-04-06T14:23:14.466Z</time></trkpt><trkpt lat="45.6642106" lon="11.7143711"><ele>58.0</ele><time>2026-04-06T14:23:15.468Z</time></trkpt><trkpt lat="45.664212" lon="11.7145776"><ele>58.0</ele><time>2026-04-06T14:23:16.473Z</time></trkpt><trkpt lat="45.664228" lon="11.7147711"><ele>58.0</ele><time>2026-04-06T14:23:17.472Z</time></trkpt><trkpt lat="45.6642587" lon="11.7149594"><ele>58.0</ele><time>2026-04-06T14:23:18.473Z</time></trkpt><trkpt lat="45.6642921" lon="11.7151241"><ele>58.0</ele><time>2026-04-06T14:23:19.467Z</time></trkpt><trkpt lat="45.6643225" lon="11.7152347"><ele>58.0</ele><time>2026-04-06T14:23:20.468Z</time></trkpt><trkpt lat="45.6643521" lon="11.7153379"><ele>58.0</ele><time>2026-04-06T14:23:22.466Z</time></trkpt><trkpt lat="45.6643891" lon="11.7154806"><ele>58.0</ele><time>2026-04-06T14:23:28.461Z</time></trkpt><trkpt lat="45.6644183" lon="11.715591"><ele>58.25</ele><time>2026-04-06T14:23:29.465Z</time></trkpt><trkpt lat="45.6644546" lon="11.715725"><ele>58.5</ele><time>2026-04-06T14:23:30.461Z</time></trkpt><trkpt lat="45.6644943" lon="11.71588"><ele>58.75</ele><time>2026-04-06T14:23:31.477Z</time></trkpt><trkpt lat="45.6645407" lon="11.7160547"><ele>59.0</ele><time>2026-04-06T14:23:32.468Z</time></trkpt><trkpt lat="45.6645888" lon="11.716239"><ele>59.66666666666667</ele><time>2026-04-06T14:23:33.465Z</time></trkpt><trkpt lat="45.6646415" lon="11.7164444"><ele>60.33333333333333</ele><time>2026-04-06T14:23:34.458Z</time></trkpt><trkpt lat="45.6646979" lon="11.7166625"><ele>61.0</ele><time>2026-04-06T14:23:35.463Z</time></trkpt><trkpt lat="45.6647593" lon="11.7168894"><ele>61.33333333333333</ele><time>2026-04-06T14:23:36.464Z</time></trkpt><trkpt lat="45.6648246" lon="11.7171315"><ele>61.66666666666667</ele><time>2026-04-06T14:23:37.462Z</time></trkpt><trkpt lat="45.6648958" lon="11.717395"><ele>62.0</ele><time>2026-04-06T14:23:38.468Z</time></trkpt><trkpt lat="45.6649623" lon="11.7176473"><ele>61.333333333333336</ele><time>2026-04-06T14:23:39.479Z</time></trkpt><trkpt lat="45.6650238" lon="11.7178787"><ele>60.66666666666667</ele><time>2026-04-06T14:23:40.465Z</time></trkpt><trkpt lat="45.665081" lon="11.7180955"><ele>60.0</ele><time>2026-04-06T14:23:41.475Z</time></trkpt><trkpt lat="45.6651315" lon="11.7182919"><ele>60.0</ele><time>2026-04-06T14:23:42.465Z</time></trkpt><trkpt lat="45.6651697" lon="11.7184728"><ele>60.0</ele><time>2026-04-06T14:23:43.47Z</time></trkpt><trkpt lat="45.6652018" lon="11.7186385"><ele>60.0</ele><time>2026-04-06T14:23:44.462Z</time></trkpt><trkpt lat="45.6652067" lon="11.7187875"><ele>60.0</ele><time>2026-04-06T14:23:45.472Z</time></trkpt><trkpt lat="45.6651876" lon="11.7189277"><ele>59.833333333333336</ele><time>2026-04-06T14:23:46.466Z</time></trkpt><trkpt lat="45.6651725" lon="11.7190488"><ele>59.66666666666667</ele><time>2026-04-06T14:23:47.466Z</time></trkpt><trkpt lat="45.6651669" lon="11.7191609"><ele>59.5</ele><time>2026-04-06T14:23:48.465Z</time></trkpt><trkpt lat="45.665216" lon="11.7192393"><ele>59.333333333333336</ele><time>2026-04-06T14:23:49.467Z</time></trkpt><trkpt lat="45.6652926" lon="11.7192723"><ele>59.16666666666667</ele><time>2026-04-06T14:23:50.459Z</time></trkpt><trkpt lat="45.6653816" lon="11.7192704"><ele>59.0</ele><time>2026-04-06T14:23:51.468Z</time></trkpt><trkpt lat="45.6654778" lon="11.7192304"><ele>59.0</ele><time>2026-04-06T14:23:52.467Z</time></trkpt><trkpt lat="45.6655878" lon="11.7191795"><ele>59.0</ele><time>2026-04-06T14:23:53.47Z</time></trkpt><trkpt lat="45.6657116" lon="11.7191311"><ele>59.0</ele><time>2026-04-06T14:23:54.463Z</time></trkpt><trkpt lat="45.6658437" lon="11.71908"><ele>59.0</ele><time>2026-04-06T14:23:55.458Z</time></trkpt><trkpt lat="45.6659768" lon="11.719031"><ele>59.25</ele><time>2026-04-06T14:23:56.462Z</time></trkpt><trkpt lat="45.6661159" lon="11.7189807"><ele>59.5</ele><time>2026-04-06T14:23:57.467Z</time></trkpt><trkpt lat="45.6662555" lon="11.7189285"><ele>59.75</ele><time>2026-04-06T14:23:58.468Z</time></trkpt><trkpt lat="45.6663982" lon="11.7188754"><ele>60.0</ele><time>2026-04-06T14:23:59.475Z</time></trkpt><trkpt lat="45.6665434" lon="11.7188238"><ele>60.0</ele><time>2026-04-06T14:24:00.462Z</time></trkpt><trkpt lat="45.6666759" lon="11.7187767"><ele>60.0</ele><time>2026-04-06T14:24:01.464Z</time></trkpt><trkpt lat="45.6668016" lon="11.7187259"><ele>60.0</ele><time>2026-04-06T14:24:02.464Z</time></trkpt><trkpt lat="45.666913" lon="11.7186928"><ele>60.0</ele><time>2026-04-06T14:24:03.465Z</time></trkpt><trkpt lat="45.6670056" lon="11.7186614"><ele>60.4</ele><time>2026-04-06T14:24:04.467Z</time></trkpt><trkpt lat="45.6670703" lon="11.7186411"><ele>60.8</ele><time>2026-04-06T14:24:05.463Z</time></trkpt><trkpt lat="45.6671809" lon="11.7187352"><ele>61.2</ele><time>2026-04-06T14:24:07.464Z</time></trkpt><trkpt lat="45.6672387" lon="11.7188387"><ele>61.6</ele><time>2026-04-06T14:24:08.46Z</time></trkpt><trkpt lat="45.6672684" lon="11.7190341"><ele>62.0</ele><time>2026-04-06T14:24:09.464Z</time></trkpt><trkpt lat="45.6672964" lon="11.7192552"><ele>61.6</ele><time>2026-04-06T14:24:10.46Z</time></trkpt><trkpt lat="45.667331" lon="11.7194594"><ele>61.2</ele><time>2026-04-06T14:24:11.464Z</time></trkpt><trkpt lat="45.6673558" lon="11.7196263"><ele>60.8</ele><time>2026-04-06T14:24:12.459Z</time></trkpt><trkpt lat="45.6673883" lon="11.719737"><ele>60.4</ele><time>2026-04-06T14:24:13.464Z</time></trkpt><trkpt lat="45.6674378" lon="11.7198482"><ele>60.0</ele><time>2026-04-06T14:24:15.472Z</time></trkpt><trkpt lat="45.6675096" lon="11.7199292"><ele>60.0</ele><time>2026-04-06T14:24:50.483Z</time></trkpt><trkpt lat="45.6675594" lon="11.7198234"><ele>60.0</ele><time>2026-04-06T14:24:52.497Z</time></trkpt><trkpt lat="45.6675859" lon="11.7196975"><ele>60.0</ele><time>2026-04-06T14:24:54.466Z</time></trkpt><trkpt lat="45.6676386" lon="11.7196114"><ele>60.0</ele><time>2026-04-06T14:24:56.47Z</time></trkpt><trkpt lat="45.6677246" lon="11.7195876"><ele>60.0</ele><time>2026-04-06T14:24:58.48Z</time></trkpt><trkpt lat="45.6677883" lon="11.7196193"><ele>60.0</ele><time>2026-04-06T14:25:00.47Z</time></trkpt><trkpt lat="45.6677985" lon="11.7197291"><ele>62.0</ele><time>2026-04-06T14:25:02.469Z</time></trkpt></trkseg></trk></gpx>